<?xml version="1.0" encoding="UTF-8"?>
<gpx version="1.1" creator=" " xmlns="http://www.topografix.com/GPX/1/1" xmlns:xsi="http://www.w3.org/2001/XMLSchema-instance" xsi:schemaLocation="http://www.topografix.com/GPX/1/1 http://www.topografix.com/GPX/1/1/gpx.xsd">
<metadata>
<name>Miltenberg</name>
<desc></desc>
<link href="">
<text>  </text>
</link>
<time>2024-05-09T09:31:01Z</time>
</metadata>
<trk>
<trkseg>
<trkpt lat="49.52332681976259" lon="9.321398679167032">
<ele>336.4</ele>
</trkpt>
<trkpt lat="49.52332681976259" lon="9.321398679167032">
<ele>336.4</ele>
<time>2024-05-09T09:31:01Z</time>
</trkpt>
<trkpt lat="49.52332681976259" lon="9.321390129625795">
<ele>336.2</ele>
<time>2024-05-09T09:31:02Z</time>
</trkpt>
<trkpt lat="49.52332304790616" lon="9.321386273950338">
<ele>336.2</ele>
<time>2024-05-09T09:31:03Z</time>
</trkpt>
<trkpt lat="49.52332304790616" lon="9.32138342410326">
<ele>336.2</ele>
<time>2024-05-09T09:31:04Z</time>
</trkpt>
<trkpt lat="49.52332304790616" lon="9.321374874562023">
<ele>336.2</ele>
<time>2024-05-09T09:31:05Z</time>
</trkpt>
<trkpt lat="49.52332681976259" lon="9.321370096877216">
<ele>336.4</ele>
<time>2024-05-09T09:31:07Z</time>
</trkpt>
<trkpt lat="49.52332304790616" lon="9.321351991966369">
<ele>336.4</ele>
<time>2024-05-09T09:31:08Z</time>
</trkpt>
<trkpt lat="49.5233191922307" lon="9.321331959217789">
<ele>336.4</ele>
<time>2024-05-09T09:31:09Z</time>
</trkpt>
<trkpt lat="49.523311564698815" lon="9.321312848478556">
<ele>336.4</ele>
<time>2024-05-09T09:31:10Z</time>
</trkpt>
<trkpt lat="49.523292537778616" lon="9.321299521252511">
<ele>336.4</ele>
<time>2024-05-09T09:31:11Z</time>
</trkpt>
<trkpt lat="49.523273427039385" lon="9.321292815729976">
<ele>336.6</ele>
<time>2024-05-09T09:31:12Z</time>
</trkpt>
<trkpt lat="49.52324668876827" lon="9.321292815729976">
<ele>336.6</ele>
<time>2024-05-09T09:31:13Z</time>
</trkpt>
<trkpt lat="49.523212406784296" lon="9.321299521252511">
<ele>336.6</ele>
<time>2024-05-09T09:31:14Z</time>
</trkpt>
<trkpt lat="49.52317804098129" lon="9.321308070793748">
<ele>336.6</ele>
<time>2024-05-09T09:31:15Z</time>
</trkpt>
<trkpt lat="49.52314375899732" lon="9.321316704154016">
<ele>336.6</ele>
<time>2024-05-09T09:31:16Z</time>
</trkpt>
<trkpt lat="49.52310562133789" lon="9.321326175704598">
<ele>336.6</ele>
<time>2024-05-09T09:31:17Z</time>
</trkpt>
<trkpt lat="49.52307125553489" lon="9.321339586749671">
<ele>336.6</ele>
<time>2024-05-09T09:31:18Z</time>
</trkpt>
<trkpt lat="49.52303688973189" lon="9.321352913975716">
<ele>336.6</ele>
<time>2024-05-09T09:31:19Z</time>
</trkpt>
<trkpt lat="49.52300260774791" lon="9.321372946724296">
<ele>336.6</ele>
<time>2024-05-09T09:31:20Z</time>
</trkpt>
<trkpt lat="49.52296447008848" lon="9.321392057463529">
<ele>336.6</ele>
<time>2024-05-09T09:31:21Z</time>
</trkpt>
<trkpt lat="49.52292624861002" lon="9.321410162374375">
<ele>336.6</ele>
<time>2024-05-09T09:31:22Z</time>
</trkpt>
<trkpt lat="49.52288811095059" lon="9.32142348960042">
<ele>336.6</ele>
<time>2024-05-09T09:31:23Z</time>
</trkpt>
<trkpt lat="49.52286522835493" lon="9.321450227871535">
<ele>336.6</ele>
<time>2024-05-09T09:31:24Z</time>
</trkpt>
<trkpt lat="49.52284997329116" lon="9.321486437693238">
<ele>336.8</ele>
<time>2024-05-09T09:31:25Z</time>
</trkpt>
<trkpt lat="49.52284620143473" lon="9.32152365334332">
<ele>336.8</ele>
<time>2024-05-09T09:31:26Z</time>
</trkpt>
<trkpt lat="49.522861456498504" lon="9.321553157642484">
<ele>336.8</ele>
<time>2024-05-09T09:31:27Z</time>
</trkpt>
<trkpt lat="49.52287671156227" lon="9.321588445454836">
<ele>336.8</ele>
<time>2024-05-09T09:31:28Z</time>
</trkpt>
<trkpt lat="49.52288811095059" lon="9.32161996141076">
<ele>336.8</ele>
<time>2024-05-09T09:31:29Z</time>
</trkpt>
<trkpt lat="49.52290722168982" lon="9.321656171232462">
<ele>336.8</ele>
<time>2024-05-09T09:31:30Z</time>
</trkpt>
<trkpt lat="49.52292624861002" lon="9.321693386882544">
<ele>336.8</ele>
<time>2024-05-09T09:31:31Z</time>
</trkpt>
<trkpt lat="49.522941587492824" lon="9.321728674694896">
<ele>336.8</ele>
<time>2024-05-09T09:31:32Z</time>
</trkpt>
<trkpt lat="49.52296061441302" lon="9.321762956678867">
<ele>336.6</ele>
<time>2024-05-09T09:31:33Z</time>
</trkpt>
<trkpt lat="49.522979725152254" lon="9.321804950013757">
<ele>336.6</ele>
<time>2024-05-09T09:31:34Z</time>
</trkpt>
<trkpt lat="49.522994980216026" lon="9.321847865357997">
<ele>336.6</ele>
<time>2024-05-09T09:31:35Z</time>
</trkpt>
<trkpt lat="49.5230102352798" lon="9.321893630549312">
<ele>336.6</ele>
<time>2024-05-09T09:31:36Z</time>
</trkpt>
<trkpt lat="49.5230292622" lon="9.32193654589355">
<ele>336.6</ele>
<time>2024-05-09T09:31:37Z</time>
</trkpt>
<trkpt lat="49.52304837293923" lon="9.321979461237788">
<ele>336.6</ele>
<time>2024-05-09T09:31:38Z</time>
</trkpt>
<trkpt lat="49.523063628003" lon="9.322019526734948">
<ele>336.6</ele>
<time>2024-05-09T09:31:39Z</time>
</trkpt>
<trkpt lat="49.52307888306677" lon="9.322059592232108">
<ele>336.6</ele>
<time>2024-05-09T09:31:40Z</time>
</trkpt>
<trkpt lat="49.52309790998697" lon="9.322101585566998">
<ele>336.6</ele>
<time>2024-05-09T09:31:41Z</time>
</trkpt>
<trkpt lat="49.52311324886978" lon="9.322138717398047">
<ele>336.6</ele>
<time>2024-05-09T09:31:42Z</time>
</trkpt>
<trkpt lat="49.52312850393355" lon="9.322176855057478">
<ele>336.6</ele>
<time>2024-05-09T09:31:43Z</time>
</trkpt>
<trkpt lat="49.52314753085375" lon="9.32221507653594">
<ele>336.6</ele>
<time>2024-05-09T09:31:44Z</time>
</trkpt>
<trkpt lat="49.52316278591752" lon="9.322255058214068">
<ele>336.6</ele>
<time>2024-05-09T09:31:45Z</time>
</trkpt>
<trkpt lat="49.52317804098129" lon="9.322297051548958">
<ele>336.6</ele>
<time>2024-05-09T09:31:46Z</time>
</trkpt>
<trkpt lat="49.52320092357695" lon="9.322339966893196">
<ele>336.6</ele>
<time>2024-05-09T09:31:47Z</time>
</trkpt>
<trkpt lat="49.52322003431618" lon="9.322380032390356">
<ele>336.6</ele>
<time>2024-05-09T09:31:48Z</time>
</trkpt>
<trkpt lat="49.523235289379954" lon="9.322418170049788">
<ele>336.6</ele>
<time>2024-05-09T09:31:49Z</time>
</trkpt>
<trkpt lat="49.523254316300154" lon="9.32245153002441">
<ele>336.6</ele>
<time>2024-05-09T09:31:50Z</time>
</trkpt>
<trkpt lat="49.523273427039385" lon="9.322480196133256">
<ele>336.6</ele>
<time>2024-05-09T09:31:51Z</time>
</trkpt>
<trkpt lat="49.5233001653105" lon="9.322498301044106">
<ele>336.6</ele>
<time>2024-05-09T09:31:52Z</time>
</trkpt>
<trkpt lat="49.52332681976259" lon="9.322500228881836">
<ele>336.6</ele>
<time>2024-05-09T09:31:53Z</time>
</trkpt>
<trkpt lat="49.523349702358246" lon="9.322484889999032">
<ele>336.6</ele>
<time>2024-05-09T09:31:54Z</time>
</trkpt>
<trkpt lat="49.52337644062936" lon="9.322463013231754">
<ele>336.6</ele>
<time>2024-05-09T09:31:55Z</time>
</trkpt>
<trkpt lat="49.52340309508145" lon="9.322441974654794">
<ele>336.6</ele>
<time>2024-05-09T09:31:56Z</time>
</trkpt>
<trkpt lat="49.523429833352566" lon="9.322422025725244">
<ele>336.6</ele>
<time>2024-05-09T09:31:57Z</time>
</trkpt>
<trkpt lat="49.52346034348011" lon="9.322401992976664">
<ele>336.6</ele>
<time>2024-05-09T09:31:58Z</time>
</trkpt>
<trkpt lat="49.52349470928311" lon="9.322376176714895">
<ele>336.6</ele>
<time>2024-05-09T09:31:59Z</time>
</trkpt>
<trkpt lat="49.52353661879897" lon="9.32235145010054">
<ele>336.6</ele>
<time>2024-05-09T09:32:00Z</time>
</trkpt>
<trkpt lat="49.5235747564584" lon="9.322322783991694">
<ele>336.6</ele>
<time>2024-05-09T09:32:01Z</time>
</trkpt>
<trkpt lat="49.52361674979329" lon="9.322297051548958">
<ele>336.6</ele>
<time>2024-05-09T09:32:02Z</time>
</trkpt>
<trkpt lat="49.52365874312818" lon="9.322268469259145">
<ele>336.6</ele>
<time>2024-05-09T09:32:03Z</time>
</trkpt>
<trkpt lat="49.52370065264404" lon="9.322239803150296">
<ele>336.6</ele>
<time>2024-05-09T09:32:04Z</time>
</trkpt>
<trkpt lat="49.523746417835355" lon="9.322210298851132">
<ele>336.6</ele>
<time>2024-05-09T09:32:05Z</time>
</trkpt>
<trkpt lat="49.523784555494785" lon="9.322181632742286">
<ele>336.6</ele>
<time>2024-05-09T09:32:06Z</time>
</trkpt>
<trkpt lat="49.523826548829675" lon="9.32215112261474">
<ele>336.6</ele>
<time>2024-05-09T09:32:07Z</time>
</trkpt>
<trkpt lat="49.523864686489105" lon="9.322125390172005">
<ele>336.6</ele>
<time>2024-05-09T09:32:08Z</time>
</trkpt>
<trkpt lat="49.52391045168042" lon="9.32209488004446">
<ele>336.6</ele>
<time>2024-05-09T09:32:09Z</time>
</trkpt>
<trkpt lat="49.52394858933985" lon="9.322068141773345">
<ele>336.6</ele>
<time>2024-05-09T09:32:10Z</time>
</trkpt>
<trkpt lat="49.52399058267474" lon="9.322043415158989">
<ele>336.6</ele>
<time>2024-05-09T09:32:11Z</time>
</trkpt>
<trkpt lat="49.524024948477745" lon="9.322019526734948">
<ele>336.6</ele>
<time>2024-05-09T09:32:12Z</time>
</trkpt>
<trkpt lat="49.524063086137176" lon="9.32199664413929">
<ele>336.6</ele>
<time>2024-05-09T09:32:13Z</time>
</trkpt>
<trkpt lat="49.52410499565303" lon="9.32197468355298">
<ele>336.6</ele>
<time>2024-05-09T09:32:14Z</time>
</trkpt>
<trkpt lat="49.52413936145604" lon="9.321960434317589">
<ele>336.6</ele>
<time>2024-05-09T09:32:15Z</time>
</trkpt>
<trkpt lat="49.52417749911547" lon="9.32193847373128">
<ele>336.6</ele>
<time>2024-05-09T09:32:16Z</time>
</trkpt>
<trkpt lat="49.5242156367749" lon="9.321914669126272">
<ele>336.6</ele>
<time>2024-05-09T09:32:17Z</time>
</trkpt>
<trkpt lat="49.52425377443433" lon="9.321893630549312">
<ele>336.6</ele>
<time>2024-05-09T09:32:18Z</time>
</trkpt>
<trkpt lat="49.52429576776922" lon="9.321873597800732">
<ele>336.6</ele>
<time>2024-05-09T09:32:19Z</time>
</trkpt>
<trkpt lat="49.52433776110411" lon="9.321853565052152">
<ele>336.6</ele>
<time>2024-05-09T09:32:20Z</time>
</trkpt>
<trkpt lat="49.524379670619965" lon="9.321833532303572">
<ele>336.8</ele>
<time>2024-05-09T09:32:21Z</time>
</trkpt>
<trkpt lat="49.52441403642297" lon="9.32181542739272">
<ele>336.8</ele>
<time>2024-05-09T09:32:22Z</time>
</trkpt>
<trkpt lat="49.5244521740824" lon="9.321794472634792">
<ele>337</ele>
<time>2024-05-09T09:32:23Z</time>
</trkpt>
<trkpt lat="49.5244865398854" lon="9.321776367723942">
<ele>337</ele>
<time>2024-05-09T09:32:24Z</time>
</trkpt>
<trkpt lat="49.52452467754483" lon="9.321760106831787">
<ele>337.2</ele>
<time>2024-05-09T09:32:25Z</time>
</trkpt>
<trkpt lat="49.5245589595288" lon="9.321740074083207">
<ele>337.2</ele>
<time>2024-05-09T09:32:26Z</time>
</trkpt>
<trkpt lat="49.52458946965635" lon="9.321720041334627">
<ele>337.4</ele>
<time>2024-05-09T09:32:27Z</time>
</trkpt>
<trkpt lat="49.52461997978389" lon="9.32170009240508">
<ele>337.4</ele>
<time>2024-05-09T09:32:28Z</time>
</trkpt>
<trkpt lat="49.524658201262355" lon="9.3216819036752">
<ele>337.6</ele>
<time>2024-05-09T09:32:29Z</time>
</trkpt>
<trkpt lat="49.524696338921785" lon="9.321662876755">
<ele>337.8</ele>
<time>2024-05-09T09:32:30Z</time>
</trkpt>
<trkpt lat="49.52472684904933" lon="9.321646615862846">
<ele>337.8</ele>
<time>2024-05-09T09:32:31Z</time>
</trkpt>
<trkpt lat="49.52476498670876" lon="9.321628510951996">
<ele>338</ele>
<time>2024-05-09T09:32:32Z</time>
</trkpt>
<trkpt lat="49.52479926869273" lon="9.321610406041144">
<ele>338</ele>
<time>2024-05-09T09:32:33Z</time>
</trkpt>
<trkpt lat="49.524833634495735" lon="9.321591295301914">
<ele>338</ele>
<time>2024-05-09T09:32:34Z</time>
</trkpt>
<trkpt lat="49.524871772155166" lon="9.321577968075871">
<ele>338.2</ele>
<time>2024-05-09T09:32:35Z</time>
</trkpt>
<trkpt lat="49.52490990981459" lon="9.321564640849829">
<ele>338.2</ele>
<time>2024-05-09T09:32:36Z</time>
</trkpt>
<trkpt lat="49.52494041994214" lon="9.321555085480211">
<ele>338.4</ele>
<time>2024-05-09T09:32:37Z</time>
</trkpt>
<trkpt lat="49.524974785745144" lon="9.321544608101249">
<ele>338.4</ele>
<time>2024-05-09T09:32:38Z</time>
</trkpt>
<trkpt lat="49.52500529587269" lon="9.321535052731631">
<ele>338.4</ele>
<time>2024-05-09T09:32:39Z</time>
</trkpt>
<trkpt lat="49.52503580600023" lon="9.32152172550559">
<ele>338.6</ele>
<time>2024-05-09T09:32:40Z</time>
</trkpt>
<trkpt lat="49.52506631612778" lon="9.321504542604089">
<ele>338.6</ele>
<time>2024-05-09T09:32:41Z</time>
</trkpt>
<trkpt lat="49.525093054398894" lon="9.321490209549664">
<ele>338.8</ele>
<time>2024-05-09T09:32:42Z</time>
</trkpt>
<trkpt lat="49.52511970885098" lon="9.321473110467196">
<ele>338.8</ele>
<time>2024-05-09T09:32:43Z</time>
</trkpt>
<trkpt lat="49.52514259144664" lon="9.32145969942212">
<ele>338.8</ele>
<time>2024-05-09T09:32:44Z</time>
</trkpt>
<trkpt lat="49.52516555786133" lon="9.32144545018673">
<ele>339</ele>
<time>2024-05-09T09:32:45Z</time>
</trkpt>
<trkpt lat="49.525192212313414" lon="9.321432039141657">
<ele>339</ele>
<time>2024-05-09T09:32:46Z</time>
</trkpt>
<trkpt lat="49.52521895058453" lon="9.321418711915612">
<ele>339</ele>
<time>2024-05-09T09:32:47Z</time>
</trkpt>
<trkpt lat="49.52524183318019" lon="9.321408234536648">
<ele>339.2</ele>
<time>2024-05-09T09:32:48Z</time>
</trkpt>
<trkpt lat="49.525268487632275" lon="9.32140152901411">
<ele>339.2</ele>
<time>2024-05-09T09:32:49Z</time>
</trkpt>
<trkpt lat="49.52529522590339" lon="9.321398679167032">
<ele>339.2</ele>
<time>2024-05-09T09:32:50Z</time>
</trkpt>
<trkpt lat="49.52532950788736" lon="9.321410162374375">
<ele>339.2</ele>
<time>2024-05-09T09:32:51Z</time>
</trkpt>
<trkpt lat="49.52536010183394" lon="9.32144159451127">
<ele>339.2</ele>
<time>2024-05-09T09:32:52Z</time>
</trkpt>
<trkpt lat="49.525386756286025" lon="9.321476882323624">
<ele>339.2</ele>
<time>2024-05-09T09:32:53Z</time>
</trkpt>
<trkpt lat="49.52540963888168" lon="9.321515019983051">
<ele>339.2</ele>
<time>2024-05-09T09:32:54Z</time>
</trkpt>
<trkpt lat="49.5254363771528" lon="9.321557013317944">
<ele>339.2</ele>
<time>2024-05-09T09:32:55Z</time>
</trkpt>
<trkpt lat="49.52545925974846" lon="9.321598000824451">
<ele>339.2</ele>
<time>2024-05-09T09:32:56Z</time>
</trkpt>
<trkpt lat="49.52548214234412" lon="9.32163999415934">
<ele>339.2</ele>
<time>2024-05-09T09:32:57Z</time>
</trkpt>
<trkpt lat="49.525505024939775" lon="9.3216819036752">
<ele>339.2</ele>
<time>2024-05-09T09:32:58Z</time>
</trkpt>
<trkpt lat="49.52552413567901" lon="9.32172297500074">
<ele>339.2</ele>
<time>2024-05-09T09:32:59Z</time>
</trkpt>
<trkpt lat="49.525547018274665" lon="9.321764884516597">
<ele>339.2</ele>
<time>2024-05-09T09:33:00Z</time>
</trkpt>
<trkpt lat="49.52557367272675" lon="9.321803022176027">
<ele>339.2</ele>
<time>2024-05-09T09:33:01Z</time>
</trkpt>
<trkpt lat="49.52560041099787" lon="9.321846943348646">
<ele>339.2</ele>
<time>2024-05-09T09:33:02Z</time>
</trkpt>
<trkpt lat="49.52562706544995" lon="9.321893630549312">
<ele>339.2</ele>
<time>2024-05-09T09:33:03Z</time>
</trkpt>
<trkpt lat="49.52564994804561" lon="9.321943251416087">
<ele>339.2</ele>
<time>2024-05-09T09:33:04Z</time>
</trkpt>
<trkpt lat="49.52567668631673" lon="9.32199664413929">
<ele>339.4</ele>
<time>2024-05-09T09:33:05Z</time>
</trkpt>
<trkpt lat="49.5256919413805" lon="9.3220548145473">
<ele>339.4</ele>
<time>2024-05-09T09:33:06Z</time>
</trkpt>
<trkpt lat="49.52570719644427" lon="9.322119690477848">
<ele>339.6</ele>
<time>2024-05-09T09:33:07Z</time>
</trkpt>
<trkpt lat="49.525726307183504" lon="9.322188338264825">
<ele>339.6</ele>
<time>2024-05-09T09:33:08Z</time>
</trkpt>
<trkpt lat="49.52574156224728" lon="9.322256986051798">
<ele>339.6</ele>
<time>2024-05-09T09:33:09Z</time>
</trkpt>
<trkpt lat="49.52575681731105" lon="9.322324711829424">
<ele>339.6</ele>
<time>2024-05-09T09:33:10Z</time>
</trkpt>
<trkpt lat="49.52577207237482" lon="9.322389587759972">
<ele>339.4</ele>
<time>2024-05-09T09:33:11Z</time>
</trkpt>
<trkpt lat="49.52578732743859" lon="9.322455385699868">
<ele>339.2</ele>
<time>2024-05-09T09:33:12Z</time>
</trkpt>
<trkpt lat="49.52580635435879" lon="9.322521183639765">
<ele>339</ele>
<time>2024-05-09T09:33:13Z</time>
</trkpt>
<trkpt lat="49.525821609422565" lon="9.32258698157966">
<ele>339</ele>
<time>2024-05-09T09:33:14Z</time>
</trkpt>
<trkpt lat="49.52583309262991" lon="9.322654707357287">
<ele>338.8</ele>
<time>2024-05-09T09:33:15Z</time>
</trkpt>
<trkpt lat="49.52584834769368" lon="9.322721427306533">
<ele>338.8</ele>
<time>2024-05-09T09:33:16Z</time>
</trkpt>
<trkpt lat="49.525863602757454" lon="9.32278630323708">
<ele>338.6</ele>
<time>2024-05-09T09:33:17Z</time>
</trkpt>
<trkpt lat="49.5258750859648" lon="9.322851179167628">
<ele>338.6</ele>
<time>2024-05-09T09:33:18Z</time>
</trkpt>
<trkpt lat="49.52589034102857" lon="9.322917899116874">
<ele>338.6</ele>
<time>2024-05-09T09:33:19Z</time>
</trkpt>
<trkpt lat="49.52590559609234" lon="9.32298176921904">
<ele>338.6</ele>
<time>2024-05-09T09:33:20Z</time>
</trkpt>
<trkpt lat="49.52592462301254" lon="9.323046645149589">
<ele>338.6</ele>
<time>2024-05-09T09:33:21Z</time>
</trkpt>
<trkpt lat="49.525939878076315" lon="9.323113365098834">
<ele>338.4</ele>
<time>2024-05-09T09:33:22Z</time>
</trkpt>
<trkpt lat="49.52595513314009" lon="9.32318209670484">
<ele>338.4</ele>
<time>2024-05-09T09:33:23Z</time>
</trkpt>
<trkpt lat="49.52597038820386" lon="9.323247894644735">
<ele>338.4</ele>
<time>2024-05-09T09:33:24Z</time>
</trkpt>
<trkpt lat="49.52598564326763" lon="9.323313692584634">
<ele>338.4</ele>
<time>2024-05-09T09:33:25Z</time>
</trkpt>
<trkpt lat="49.52600089833141" lon="9.32338141836226">
<ele>338.2</ele>
<time>2024-05-09T09:33:26Z</time>
</trkpt>
<trkpt lat="49.526020009070635" lon="9.323448138311504">
<ele>338.2</ele>
<time>2024-05-09T09:33:27Z</time>
</trkpt>
<trkpt lat="49.526039119809866" lon="9.323510164394976">
<ele>338</ele>
<time>2024-05-09T09:33:28Z</time>
</trkpt>
<trkpt lat="49.52606200240552" lon="9.323566406965256">
<ele>337.8</ele>
<time>2024-05-09T09:33:29Z</time>
</trkpt>
<trkpt lat="49.52608102932573" lon="9.323617871850727">
<ele>337.6</ele>
<time>2024-05-09T09:33:30Z</time>
</trkpt>
<trkpt lat="49.526096284389496" lon="9.323671264573932">
<ele>337.6</ele>
<time>2024-05-09T09:33:31Z</time>
</trkpt>
<trkpt lat="49.52611153945327" lon="9.323730440810325">
<ele>337.4</ele>
<time>2024-05-09T09:33:32Z</time>
</trkpt>
<trkpt lat="49.52612679451704" lon="9.323788611218331">
<ele>337.2</ele>
<time>2024-05-09T09:33:33Z</time>
</trkpt>
<trkpt lat="49.526134422048926" lon="9.323849631473422">
<ele>337</ele>
<time>2024-05-09T09:33:34Z</time>
</trkpt>
<trkpt lat="49.526138277724385" lon="9.323903024196625">
<ele>337</ele>
<time>2024-05-09T09:33:35Z</time>
</trkpt>
<trkpt lat="49.52614590525627" lon="9.323958344757555">
<ele>336.8</ele>
<time>2024-05-09T09:33:36Z</time>
</trkpt>
<trkpt lat="49.526157304644585" lon="9.324016515165567">
<ele>336.8</ele>
<time>2024-05-09T09:33:37Z</time>
</trkpt>
<trkpt lat="49.52616493217647" lon="9.324073763564227">
<ele>337</ele>
<time>2024-05-09T09:33:38Z</time>
</trkpt>
<trkpt lat="49.526176415383816" lon="9.32413193397224">
<ele>337</ele>
<time>2024-05-09T09:33:39Z</time>
</trkpt>
<trkpt lat="49.52619167044759" lon="9.324192954227328">
<ele>337.2</ele>
<time>2024-05-09T09:33:40Z</time>
</trkpt>
<trkpt lat="49.526214553043246" lon="9.324253052473068">
<ele>337.4</ele>
<time>2024-05-09T09:33:41Z</time>
</trkpt>
<trkpt lat="49.52624129131436" lon="9.32431030087173">
<ele>337.4</ele>
<time>2024-05-09T09:33:42Z</time>
</trkpt>
<trkpt lat="49.52626794576645" lon="9.32436461560428">
<ele>337.6</ele>
<time>2024-05-09T09:33:43Z</time>
</trkpt>
<trkpt lat="49.52629845589399" lon="9.324417086318135">
<ele>337.8</ele>
<time>2024-05-09T09:33:44Z</time>
</trkpt>
<trkpt lat="49.52632133848965" lon="9.32446477934718">
<ele>338</ele>
<time>2024-05-09T09:33:45Z</time>
</trkpt>
<trkpt lat="49.5263518486172" lon="9.324509538710116">
<ele>338.2</ele>
<time>2024-05-09T09:33:46Z</time>
</trkpt>
<trkpt lat="49.52639007009566" lon="9.324542982503772">
<ele>338.2</ele>
<time>2024-05-09T09:33:47Z</time>
</trkpt>
<trkpt lat="49.52643197961152" lon="9.32456678710878">
<ele>338.4</ele>
<time>2024-05-09T09:33:48Z</time>
</trkpt>
<trkpt lat="49.52648160047829" lon="9.324578270316124">
<ele>338.4</ele>
<time>2024-05-09T09:33:49Z</time>
</trkpt>
<trkpt lat="49.526534993201494" lon="9.324582042172551">
<ele>338.6</ele>
<time>2024-05-09T09:33:50Z</time>
</trkpt>
<trkpt lat="49.5265883859247" lon="9.324582042172551">
<ele>338.8</ele>
<time>2024-05-09T09:33:51Z</time>
</trkpt>
<trkpt lat="49.52663415111601" lon="9.324575420469046">
<ele>339</ele>
<time>2024-05-09T09:33:52Z</time>
</trkpt>
<trkpt lat="49.52667991630733" lon="9.324569636955856">
<ele>339.2</ele>
<time>2024-05-09T09:33:53Z</time>
</trkpt>
<trkpt lat="49.52671813778579" lon="9.32456485927105">
<ele>339.4</ele>
<time>2024-05-09T09:33:54Z</time>
</trkpt>
<trkpt lat="49.52675241976976" lon="9.324560165405272">
<ele>339.4</ele>
<time>2024-05-09T09:33:55Z</time>
</trkpt>
<trkpt lat="49.52678292989731" lon="9.324563015252352">
<ele>339.6</ele>
<time>2024-05-09T09:33:56Z</time>
</trkpt>
<trkpt lat="49.526809668168426" lon="9.324575420469046">
<ele>339.6</ele>
<time>2024-05-09T09:33:57Z</time>
</trkpt>
<trkpt lat="49.52683255076408" lon="9.324598303064704">
<ele>339.4</ele>
<time>2024-05-09T09:33:58Z</time>
</trkpt>
<trkpt lat="49.52685543335974" lon="9.324627807363868">
<ele>339.4</ele>
<time>2024-05-09T09:33:59Z</time>
</trkpt>
<trkpt lat="49.526870688423514" lon="9.32466309517622">
<ele>339.2</ele>
<time>2024-05-09T09:34:00Z</time>
</trkpt>
<trkpt lat="49.52688594348729" lon="9.32470316067338">
<ele>339.2</ele>
<time>2024-05-09T09:34:01Z</time>
</trkpt>
<trkpt lat="49.526908826082945" lon="9.324747081846">
<ele>339</ele>
<time>2024-05-09T09:34:02Z</time>
</trkpt>
<trkpt lat="49.52693556435406" lon="9.324794691056011">
<ele>339</ele>
<time>2024-05-09T09:34:03Z</time>
</trkpt>
<trkpt lat="49.526969846338034" lon="9.324848167598248">
<ele>338.8</ele>
<time>2024-05-09T09:34:04Z</time>
</trkpt>
<trkpt lat="49.527007983997464" lon="9.32490348815918">
<ele>338.6</ele>
<time>2024-05-09T09:34:05Z</time>
</trkpt>
<trkpt lat="49.52704234980047" lon="9.32495872490108">
<ele>338.6</ele>
<time>2024-05-09T09:34:06Z</time>
</trkpt>
<trkpt lat="49.5270804874599" lon="9.3250198289752">
<ele>338.6</ele>
<time>2024-05-09T09:34:07Z</time>
</trkpt>
<trkpt lat="49.52711862511933" lon="9.325083699077368">
<ele>338.6</ele>
<time>2024-05-09T09:34:08Z</time>
</trkpt>
<trkpt lat="49.52716061845422" lon="9.325151424854994">
<ele>338.8</ele>
<time>2024-05-09T09:34:09Z</time>
</trkpt>
<trkpt lat="49.52720252797008" lon="9.325213367119431">
<ele>338.8</ele>
<time>2024-05-09T09:34:10Z</time>
</trkpt>
<trkpt lat="49.52723689377308" lon="9.325268687680364">
<ele>339</ele>
<time>2024-05-09T09:34:11Z</time>
</trkpt>
<trkpt lat="49.52727125957608" lon="9.325324930250645">
<ele>339.2</ele>
<time>2024-05-09T09:34:12Z</time>
</trkpt>
<trkpt lat="49.527305541560054" lon="9.325380250811577">
<ele>339.4</ele>
<time>2024-05-09T09:34:13Z</time>
</trkpt>
<trkpt lat="49.5273360516876" lon="9.325431799516082">
<ele>339.6</ele>
<time>2024-05-09T09:34:14Z</time>
</trkpt>
<trkpt lat="49.52735893428326" lon="9.325481336563826">
<ele>339.8</ele>
<time>2024-05-09T09:34:15Z</time>
</trkpt>
<trkpt lat="49.52739330008626" lon="9.32553481310606">
<ele>340</ele>
<time>2024-05-09T09:34:16Z</time>
</trkpt>
<trkpt lat="49.52742003835738" lon="9.325585355982184">
<ele>340</ele>
<time>2024-05-09T09:34:17Z</time>
</trkpt>
<trkpt lat="49.52745432034135" lon="9.325638748705387">
<ele>340</ele>
<time>2024-05-09T09:34:18Z</time>
</trkpt>
<trkpt lat="49.52748483046889" lon="9.32569021359086">
<ele>340</ele>
<time>2024-05-09T09:34:19Z</time>
</trkpt>
<trkpt lat="49.52751534059644" lon="9.325736984610558">
<ele>340.2</ele>
<time>2024-05-09T09:34:20Z</time>
</trkpt>
<trkpt lat="49.527542078867555" lon="9.325784677639604">
<ele>340.4</ele>
<time>2024-05-09T09:34:21Z</time>
</trkpt>
<trkpt lat="49.52756881713867" lon="9.325833292678">
<ele>340.6</ele>
<time>2024-05-09T09:34:22Z</time>
</trkpt>
<trkpt lat="49.52759547159076" lon="9.325879979878664">
<ele>340.6</ele>
<time>2024-05-09T09:34:23Z</time>
</trkpt>
<trkpt lat="49.527622209861875" lon="9.325922895222902">
<ele>340.6</ele>
<time>2024-05-09T09:34:24Z</time>
</trkpt>
<trkpt lat="49.527656491845846" lon="9.325971594080327">
<ele>340.6</ele>
<time>2024-05-09T09:34:25Z</time>
</trkpt>
<trkpt lat="49.52769085764885" lon="9.326021131128073">
<ele>340.4</ele>
<time>2024-05-09T09:34:26Z</time>
</trkpt>
<trkpt lat="49.52772513963282" lon="9.326078379526734">
<ele>340.4</ele>
<time>2024-05-09T09:34:27Z</time>
</trkpt>
<trkpt lat="49.52776336111128" lon="9.326131772249935">
<ele>340.2</ele>
<time>2024-05-09T09:34:28Z</time>
</trkpt>
<trkpt lat="49.527797643095255" lon="9.32618323713541">
<ele>340</ele>
<time>2024-05-09T09:34:29Z</time>
</trkpt>
<trkpt lat="49.52783200889826" lon="9.326231935992835">
<ele>339.8</ele>
<time>2024-05-09T09:34:30Z</time>
</trkpt>
<trkpt lat="49.52787014655769" lon="9.32628147304058">
<ele>339.8</ele>
<time>2024-05-09T09:34:31Z</time>
</trkpt>
<trkpt lat="49.52790828421712" lon="9.326330171898007">
<ele>339.6</ele>
<time>2024-05-09T09:34:32Z</time>
</trkpt>
<trkpt lat="49.52794265002012" lon="9.326374931260943">
<ele>339.6</ele>
<time>2024-05-09T09:34:33Z</time>
</trkpt>
<trkpt lat="49.52797316014767" lon="9.32642363011837">
<ele>339.4</ele>
<time>2024-05-09T09:34:34Z</time>
</trkpt>
<trkpt lat="49.52800744213164" lon="9.326475095003843">
<ele>339.4</ele>
<time>2024-05-09T09:34:35Z</time>
</trkpt>
<trkpt lat="49.52804180793464" lon="9.32652471587062">
<ele>339.4</ele>
<time>2024-05-09T09:34:36Z</time>
</trkpt>
<trkpt lat="49.528072318062186" lon="9.326568553224206">
<ele>339.4</ele>
<time>2024-05-09T09:34:37Z</time>
</trkpt>
<trkpt lat="49.52810668386519" lon="9.326609540730717">
<ele>339.4</ele>
<time>2024-05-09T09:34:38Z</time>
</trkpt>
<trkpt lat="49.52814096584916" lon="9.326651534065604">
<ele>339.4</ele>
<time>2024-05-09T09:34:39Z</time>
</trkpt>
<trkpt lat="49.528171475976706" lon="9.326691599562764">
<ele>339.4</ele>
<time>2024-05-09T09:34:40Z</time>
</trkpt>
<trkpt lat="49.52820198610425" lon="9.326734514907002">
<ele>339.4</ele>
<time>2024-05-09T09:34:41Z</time>
</trkpt>
<trkpt lat="49.52822872437537" lon="9.326783129945396">
<ele>339.4</ele>
<time>2024-05-09T09:34:42Z</time>
</trkpt>
<trkpt lat="49.52825923450291" lon="9.326831744983792">
<ele>339.4</ele>
<time>2024-05-09T09:34:43Z</time>
</trkpt>
<trkpt lat="49.528289744630456" lon="9.32687851600349">
<ele>339.6</ele>
<time>2024-05-09T09:34:44Z</time>
</trkpt>
<trkpt lat="49.52832411043346" lon="9.326928136870263">
<ele>339.6</ele>
<time>2024-05-09T09:34:45Z</time>
</trkpt>
<trkpt lat="49.52835839241743" lon="9.326985301449897">
<ele>339.8</ele>
<time>2024-05-09T09:34:46Z</time>
</trkpt>
<trkpt lat="49.528392758220434" lon="9.327039700001478">
<ele>340</ele>
<time>2024-05-09T09:34:47Z</time>
</trkpt>
<trkpt lat="49.52842326834798" lon="9.327090242877604">
<ele>340</ele>
<time>2024-05-09T09:34:48Z</time>
</trkpt>
<trkpt lat="49.528450006619096" lon="9.327139779925346">
<ele>340.2</ele>
<time>2024-05-09T09:34:49Z</time>
</trkpt>
<trkpt lat="49.52848051674664" lon="9.32719032280147">
<ele>340.2</ele>
<time>2024-05-09T09:34:50Z</time>
</trkpt>
<trkpt lat="49.52851479873061" lon="9.327239943668246">
<ele>340.4</ele>
<time>2024-05-09T09:34:51Z</time>
</trkpt>
<trkpt lat="49.528549164533615" lon="9.327289564535022">
<ele>340.6</ele>
<time>2024-05-09T09:34:52Z</time>
</trkpt>
<trkpt lat="49.52857967466116" lon="9.327342957258224">
<ele>340.8</ele>
<time>2024-05-09T09:34:53Z</time>
</trkpt>
<trkpt lat="49.528610184788704" lon="9.32739157229662">
<ele>340.8</ele>
<time>2024-05-09T09:34:54Z</time>
</trkpt>
<trkpt lat="49.52864069491625" lon="9.327438343316317">
<ele>340.8</ele>
<time>2024-05-09T09:34:55Z</time>
</trkpt>
<trkpt lat="49.52867883257568" lon="9.32748980820179">
<ele>341</ele>
<time>2024-05-09T09:34:56Z</time>
</trkpt>
<trkpt lat="49.52870934270322" lon="9.327538423240185">
<ele>341</ele>
<time>2024-05-09T09:34:57Z</time>
</trkpt>
<trkpt lat="49.52873985283077" lon="9.327583266422153">
<ele>341.2</ele>
<time>2024-05-09T09:34:58Z</time>
</trkpt>
<trkpt lat="49.52877421863377" lon="9.327625259757042">
<ele>341.2</ele>
<time>2024-05-09T09:34:59Z</time>
</trkpt>
<trkpt lat="49.528808584436774" lon="9.32766624726355">
<ele>341.4</ele>
<time>2024-05-09T09:35:00Z</time>
</trkpt>
<trkpt lat="49.528842866420746" lon="9.327712934464216">
<ele>341.6</ele>
<time>2024-05-09T09:35:01Z</time>
</trkpt>
<trkpt lat="49.52887723222375" lon="9.327759705483912">
<ele>341.6</ele>
<time>2024-05-09T09:35:02Z</time>
</trkpt>
<trkpt lat="49.52891914173961" lon="9.32780639268458">
<ele>341.6</ele>
<time>2024-05-09T09:35:03Z</time>
</trkpt>
<trkpt lat="49.528961135074496" lon="9.327850313857198">
<ele>341.8</ele>
<time>2024-05-09T09:35:04Z</time>
</trkpt>
<trkpt lat="49.52900690026581" lon="9.32788459584117">
<ele>341.8</ele>
<time>2024-05-09T09:35:05Z</time>
</trkpt>
<trkpt lat="49.52904503792524" lon="9.327913261950016">
<ele>341.8</ele>
<time>2024-05-09T09:35:06Z</time>
</trkpt>
<trkpt lat="49.52908703126013" lon="9.327938072383404">
<ele>341.8</ele>
<time>2024-05-09T09:35:07Z</time>
</trkpt>
<trkpt lat="49.52913279645145" lon="9.32796279899776">
<ele>341.8</ele>
<time>2024-05-09T09:35:08Z</time>
</trkpt>
<trkpt lat="49.52917478978634" lon="9.3279866874218">
<ele>341.6</ele>
<time>2024-05-09T09:35:09Z</time>
</trkpt>
<trkpt lat="49.529220554977655" lon="9.328013341873884">
<ele>341.6</ele>
<time>2024-05-09T09:35:10Z</time>
</trkpt>
<trkpt lat="49.52926632016897" lon="9.328036308288574">
<ele>341.4</ele>
<time>2024-05-09T09:35:11Z</time>
</trkpt>
<trkpt lat="49.52930831350386" lon="9.32806296274066">
<ele>341.4</ele>
<time>2024-05-09T09:35:12Z</time>
</trkpt>
<trkpt lat="49.52935407869518" lon="9.3280868511647">
<ele>341.2</ele>
<time>2024-05-09T09:35:13Z</time>
</trkpt>
<trkpt lat="49.529399843886495" lon="9.328111577779056">
<ele>341.2</ele>
<time>2024-05-09T09:35:14Z</time>
</trkpt>
<trkpt lat="49.52944175340235" lon="9.3281402438879">
<ele>341</ele>
<time>2024-05-09T09:35:15Z</time>
</trkpt>
<trkpt lat="49.5294876024127" lon="9.328173603862524">
<ele>341</ele>
<time>2024-05-09T09:35:16Z</time>
</trkpt>
<trkpt lat="49.52952951192856" lon="9.32820025831461">
<ele>340.8</ele>
<time>2024-05-09T09:35:17Z</time>
</trkpt>
<trkpt lat="49.529575277119875" lon="9.328227918595076">
<ele>340.8</ele>
<time>2024-05-09T09:35:18Z</time>
</trkpt>
<trkpt lat="49.529613414779305" lon="9.328251807019114">
<ele>340.6</ele>
<time>2024-05-09T09:35:19Z</time>
</trkpt>
<trkpt lat="49.529659263789654" lon="9.32828038930893">
<ele>340.6</ele>
<time>2024-05-09T09:35:20Z</time>
</trkpt>
<trkpt lat="49.52970502898097" lon="9.328308049589396">
<ele>340.4</ele>
<time>2024-05-09T09:35:21Z</time>
</trkpt>
<trkpt lat="49.52974693849683" lon="9.32833855971694">
<ele>340.4</ele>
<time>2024-05-09T09:35:22Z</time>
</trkpt>
<trkpt lat="49.529792703688145" lon="9.328366219997406">
<ele>340.4</ele>
<time>2024-05-09T09:35:23Z</time>
</trkpt>
<trkpt lat="49.52983855269849" lon="9.328394886106253">
<ele>340.2</ele>
<time>2024-05-09T09:35:24Z</time>
</trkpt>
<trkpt lat="49.52988046221435" lon="9.328421540558338">
<ele>340.2</ele>
<time>2024-05-09T09:35:25Z</time>
</trkpt>
<trkpt lat="49.52992245554924" lon="9.328450122848151">
<ele>340.2</ele>
<time>2024-05-09T09:35:26Z</time>
</trkpt>
<trkpt lat="49.52996822074056" lon="9.32847778312862">
<ele>340.2</ele>
<time>2024-05-09T09:35:27Z</time>
</trkpt>
<trkpt lat="49.530010214075446" lon="9.328499743714929">
<ele>340</ele>
<time>2024-05-09T09:35:28Z</time>
</trkpt>
<trkpt lat="49.53005597926676" lon="9.328524554148316">
<ele>340</ele>
<time>2024-05-09T09:35:29Z</time>
</trkpt>
<trkpt lat="49.53009788878262" lon="9.328550286591051">
<ele>340</ele>
<time>2024-05-09T09:35:30Z</time>
</trkpt>
<trkpt lat="49.53014373779297" lon="9.32857702486217">
<ele>340</ele>
<time>2024-05-09T09:35:31Z</time>
</trkpt>
<trkpt lat="49.53019327484071" lon="9.328603679314256">
<ele>340</ele>
<time>2024-05-09T09:35:32Z</time>
</trkpt>
<trkpt lat="49.53023904003203" lon="9.328630417585371">
<ele>340.2</ele>
<time>2024-05-09T09:35:33Z</time>
</trkpt>
<trkpt lat="49.530284805223346" lon="9.328657072037458">
<ele>340.2</ele>
<time>2024-05-09T09:35:34Z</time>
</trkpt>
<trkpt lat="49.530330654233694" lon="9.328681882470846">
<ele>340.4</ele>
<time>2024-05-09T09:35:35Z</time>
</trkpt>
<trkpt lat="49.53038019128144" lon="9.328706692904234">
<ele>340.4</ele>
<time>2024-05-09T09:35:36Z</time>
</trkpt>
<trkpt lat="49.53042218461633" lon="9.328731503337622">
<ele>340.6</ele>
<time>2024-05-09T09:35:37Z</time>
</trkpt>
<trkpt lat="49.53046794980765" lon="9.328751536086202">
<ele>340.8</ele>
<time>2024-05-09T09:35:38Z</time>
</trkpt>
<trkpt lat="49.530506087467074" lon="9.328771568834782">
<ele>340.8</ele>
<time>2024-05-09T09:35:39Z</time>
</trkpt>
<trkpt lat="49.530544225126505" lon="9.328795373439789">
<ele>341</ele>
<time>2024-05-09T09:35:40Z</time>
</trkpt>
<trkpt lat="49.530582362785935" lon="9.328818256035447">
<ele>341</ele>
<time>2024-05-09T09:35:41Z</time>
</trkpt>
<trkpt lat="49.530620500445366" lon="9.328843066468837">
<ele>341.2</ele>
<time>2024-05-09T09:35:42Z</time>
</trkpt>
<trkpt lat="49.53065872192383" lon="9.328867876902224">
<ele>341.2</ele>
<time>2024-05-09T09:35:43Z</time>
</trkpt>
<trkpt lat="49.53069685958326" lon="9.32889168150723">
<ele>341.4</ele>
<time>2024-05-09T09:35:44Z</time>
</trkpt>
<trkpt lat="49.53073876909912" lon="9.32891364209354">
<ele>341.6</ele>
<time>2024-05-09T09:35:45Z</time>
</trkpt>
<trkpt lat="49.530780762434006" lon="9.328936524689198">
<ele>341.6</ele>
<time>2024-05-09T09:35:46Z</time>
</trkpt>
<trkpt lat="49.53082267194986" lon="9.328960413113236">
<ele>341.8</ele>
<time>2024-05-09T09:35:47Z</time>
</trkpt>
<trkpt lat="49.53086466528475" lon="9.328988073393704">
<ele>341.8</ele>
<time>2024-05-09T09:35:48Z</time>
</trkpt>
<trkpt lat="49.53090665861964" lon="9.329018583521249">
<ele>342</ele>
<time>2024-05-09T09:35:49Z</time>
</trkpt>
<trkpt lat="49.53094479627907" lon="9.329046243801711">
<ele>342</ele>
<time>2024-05-09T09:35:50Z</time>
</trkpt>
<trkpt lat="49.53098670579493" lon="9.329074826091528">
<ele>342.2</ele>
<time>2024-05-09T09:35:51Z</time>
</trkpt>
<trkpt lat="49.53102492727339" lon="9.32910625822842">
<ele>342.2</ele>
<time>2024-05-09T09:35:52Z</time>
</trkpt>
<trkpt lat="49.53106683678925" lon="9.329141546040772">
<ele>342.2</ele>
<time>2024-05-09T09:35:53Z</time>
</trkpt>
<trkpt lat="49.53110497444868" lon="9.329176833853126">
<ele>342.2</ele>
<time>2024-05-09T09:35:54Z</time>
</trkpt>
<trkpt lat="49.53114311210811" lon="9.32921027764678">
<ele>342.4</ele>
<time>2024-05-09T09:35:55Z</time>
</trkpt>
<trkpt lat="49.531177477911115" lon="9.329243637621405">
<ele>342.4</ele>
<time>2024-05-09T09:35:56Z</time>
</trkpt>
<trkpt lat="49.531215615570545" lon="9.329277919605374">
<ele>342.4</ele>
<time>2024-05-09T09:35:57Z</time>
</trkpt>
<trkpt lat="49.531253753229976" lon="9.329313207417728">
<ele>342.4</ele>
<time>2024-05-09T09:35:58Z</time>
</trkpt>
<trkpt lat="49.531291890889406" lon="9.32934665121138">
<ele>342.4</ele>
<time>2024-05-09T09:35:59Z</time>
</trkpt>
<trkpt lat="49.53133002854884" lon="9.329381939023731">
<ele>342.4</ele>
<time>2024-05-09T09:36:00Z</time>
</trkpt>
<trkpt lat="49.5313682500273" lon="9.329416221007705">
<ele>342.4</ele>
<time>2024-05-09T09:36:01Z</time>
</trkpt>
<trkpt lat="49.53140638768673" lon="9.329449580982327">
<ele>342.6</ele>
<time>2024-05-09T09:36:02Z</time>
</trkpt>
<trkpt lat="49.53144452534616" lon="9.329480091109872">
<ele>342.8</ele>
<time>2024-05-09T09:36:03Z</time>
</trkpt>
<trkpt lat="49.53148266300559" lon="9.329506829380987">
<ele>343</ele>
<time>2024-05-09T09:36:04Z</time>
</trkpt>
<trkpt lat="49.531513173133135" lon="9.329531639814377">
<ele>343</ele>
<time>2024-05-09T09:36:05Z</time>
</trkpt>
<trkpt lat="49.53154368326068" lon="9.329556450247765">
<ele>343.2</ele>
<time>2024-05-09T09:36:06Z</time>
</trkpt>
<trkpt lat="49.531574193388224" lon="9.329581260681152">
<ele>343.2</ele>
<time>2024-05-09T09:36:07Z</time>
</trkpt>
<trkpt lat="49.53160093165934" lon="9.329607915133238">
<ele>343.4</ele>
<time>2024-05-09T09:36:08Z</time>
</trkpt>
<trkpt lat="49.53163521364331" lon="9.329640353098512">
<ele>343.6</ele>
<time>2024-05-09T09:36:09Z</time>
</trkpt>
<trkpt lat="49.53167335130274" lon="9.329671785235403">
<ele>343.8</ele>
<time>2024-05-09T09:36:10Z</time>
</trkpt>
<trkpt lat="49.531711572781205" lon="9.3297013733536">
<ele>343.8</ele>
<time>2024-05-09T09:36:11Z</time>
</trkpt>
<trkpt lat="49.53174585476518" lon="9.329729955643415">
<ele>344</ele>
<time>2024-05-09T09:36:12Z</time>
</trkpt>
<trkpt lat="49.53178022056818" lon="9.32976147159934">
<ele>344.2</ele>
<time>2024-05-09T09:36:13Z</time>
</trkpt>
<trkpt lat="49.531810730695724" lon="9.329791981726885">
<ele>344.2</ele>
<time>2024-05-09T09:36:14Z</time>
</trkpt>
<trkpt lat="49.53184124082327" lon="9.329819642007353">
<ele>344.4</ele>
<time>2024-05-09T09:36:15Z</time>
</trkpt>
<trkpt lat="49.53187175095081" lon="9.329848224297166">
<ele>344.4</ele>
<time>2024-05-09T09:36:16Z</time>
</trkpt>
<trkpt lat="49.53189848922193" lon="9.329874962568285">
<ele>344.4</ele>
<time>2024-05-09T09:36:17Z</time>
</trkpt>
<trkpt lat="49.531928999349475" lon="9.32989977300167">
<ele>344.6</ele>
<time>2024-05-09T09:36:18Z</time>
</trkpt>
<trkpt lat="49.53195950947702" lon="9.32992458343506">
<ele>344.6</ele>
<time>2024-05-09T09:36:19Z</time>
</trkpt>
<trkpt lat="49.53199001960456" lon="9.329953165724874">
<ele>344.6</ele>
<time>2024-05-09T09:36:20Z</time>
</trkpt>
<trkpt lat="49.53202052973211" lon="9.329984597861769">
<ele>344.6</ele>
<time>2024-05-09T09:36:21Z</time>
</trkpt>
<trkpt lat="49.53205489553511" lon="9.330010414123535">
<ele>344.8</ele>
<time>2024-05-09T09:36:22Z</time>
</trkpt>
<trkpt lat="49.532085405662656" lon="9.33003706857562">
<ele>344.8</ele>
<time>2024-05-09T09:36:23Z</time>
</trkpt>
<trkpt lat="49.53211968764663" lon="9.330064728856089">
<ele>345</ele>
<time>2024-05-09T09:36:24Z</time>
</trkpt>
<trkpt lat="49.53215405344963" lon="9.330093311145902">
<ele>345.2</ele>
<time>2024-05-09T09:36:25Z</time>
</trkpt>
<trkpt lat="49.532184563577175" lon="9.330121977254748">
<ele>345.2</ele>
<time>2024-05-09T09:36:26Z</time>
</trkpt>
<trkpt lat="49.53221892938018" lon="9.330149637535214">
<ele>345.4</ele>
<time>2024-05-09T09:36:27Z</time>
</trkpt>
<trkpt lat="49.53225321136415" lon="9.33017821982503">
<ele>345.4</ele>
<time>2024-05-09T09:36:28Z</time>
</trkpt>
<trkpt lat="49.53229134902358" lon="9.330208729952574">
<ele>345.4</ele>
<time>2024-05-09T09:36:29Z</time>
</trkpt>
<trkpt lat="49.532325714826584" lon="9.33023831807077">
<ele>345.4</ele>
<time>2024-05-09T09:36:30Z</time>
</trkpt>
<trkpt lat="49.532363852486014" lon="9.330266900360584">
<ele>345.4</ele>
<time>2024-05-09T09:36:31Z</time>
</trkpt>
<trkpt lat="49.53239821828902" lon="9.3302936386317">
<ele>345.2</ele>
<time>2024-05-09T09:36:32Z</time>
</trkpt>
<trkpt lat="49.53243250027299" lon="9.33031844906509">
<ele>345.2</ele>
<time>2024-05-09T09:36:33Z</time>
</trkpt>
<trkpt lat="49.53246686607599" lon="9.330347953364251">
<ele>345</ele>
<time>2024-05-09T09:36:34Z</time>
</trkpt>
<trkpt lat="49.53250500373542" lon="9.330378463491796">
<ele>345</ele>
<time>2024-05-09T09:36:35Z</time>
</trkpt>
<trkpt lat="49.532539285719395" lon="9.330406123772264">
<ele>344.8</ele>
<time>2024-05-09T09:36:36Z</time>
</trkpt>
<trkpt lat="49.53257750719786" lon="9.33043286204338">
<ele>344.6</ele>
<time>2024-05-09T09:36:37Z</time>
</trkpt>
<trkpt lat="49.53261178918183" lon="9.330458594486116">
<ele>344.6</ele>
<time>2024-05-09T09:36:38Z</time>
</trkpt>
<trkpt lat="49.53264615498483" lon="9.330479549244046">
<ele>344.4</ele>
<time>2024-05-09T09:36:39Z</time>
</trkpt>
<trkpt lat="49.532676665112376" lon="9.330505365505816">
<ele>344.4</ele>
<time>2024-05-09T09:36:40Z</time>
</trkpt>
<trkpt lat="49.53270717523992" lon="9.33053009212017">
<ele>344.4</ele>
<time>2024-05-09T09:36:41Z</time>
</trkpt>
<trkpt lat="49.53274154104293" lon="9.330554902553558">
<ele>344.4</ele>
<time>2024-05-09T09:36:42Z</time>
</trkpt>
<trkpt lat="49.53276819549501" lon="9.330581640824676">
<ele>344.6</ele>
<time>2024-05-09T09:36:43Z</time>
</trkpt>
<trkpt lat="49.532798705622554" lon="9.33060829527676">
<ele>344.6</ele>
<time>2024-05-09T09:36:44Z</time>
</trkpt>
<trkpt lat="49.5328292157501" lon="9.330633105710149">
<ele>344.8</ele>
<time>2024-05-09T09:36:45Z</time>
</trkpt>
<trkpt lat="49.53285972587764" lon="9.330656994134188">
<ele>344.8</ele>
<time>2024-05-09T09:36:46Z</time>
</trkpt>
<trkpt lat="49.53289031982422" lon="9.330677948892117">
<ele>345</ele>
<time>2024-05-09T09:36:47Z</time>
</trkpt>
<trkpt lat="49.53292082995176" lon="9.330704687163234">
<ele>345</ele>
<time>2024-05-09T09:36:48Z</time>
</trkpt>
<trkpt lat="49.532955111935735" lon="9.330735197290778">
<ele>345.2</ele>
<time>2024-05-09T09:36:49Z</time>
</trkpt>
<trkpt lat="49.53298562206328" lon="9.330762857571244">
<ele>345.2</ele>
<time>2024-05-09T09:36:50Z</time>
</trkpt>
<trkpt lat="49.53302375972271" lon="9.33079143986106">
<ele>345.2</ele>
<time>2024-05-09T09:36:51Z</time>
</trkpt>
<trkpt lat="49.53306198120117" lon="9.330815244466066">
<ele>345.4</ele>
<time>2024-05-09T09:36:52Z</time>
</trkpt>
<trkpt lat="49.5331001188606" lon="9.330833433195949">
<ele>345.6</ele>
<time>2024-05-09T09:36:53Z</time>
</trkpt>
<trkpt lat="49.53314202837646" lon="9.3308515381068">
<ele>345.6</ele>
<time>2024-05-09T09:36:54Z</time>
</trkpt>
<trkpt lat="49.53318402171135" lon="9.330864865332842">
<ele>345.8</ele>
<time>2024-05-09T09:36:55Z</time>
</trkpt>
<trkpt lat="49.53321830369532" lon="9.330880120396614">
<ele>345.8</ele>
<time>2024-05-09T09:36:56Z</time>
</trkpt>
<trkpt lat="49.53325652517378" lon="9.330893447622657">
<ele>346</ele>
<time>2024-05-09T09:36:57Z</time>
</trkpt>
<trkpt lat="49.533294662833214" lon="9.330904930830002">
<ele>346</ele>
<time>2024-05-09T09:36:58Z</time>
</trkpt>
<trkpt lat="49.53333280049264" lon="9.330920185893774">
<ele>346</ele>
<time>2024-05-09T09:36:59Z</time>
</trkpt>
<trkpt lat="49.5333747100085" lon="9.33092974126339">
<ele>346</ele>
<time>2024-05-09T09:37:00Z</time>
</trkpt>
<trkpt lat="49.533409075811505" lon="9.330938290804625">
<ele>346</ele>
<time>2024-05-09T09:37:01Z</time>
</trkpt>
<trkpt lat="49.533447213470936" lon="9.33094977401197">
<ele>346</ele>
<time>2024-05-09T09:37:02Z</time>
</trkpt>
<trkpt lat="49.533485351130366" lon="9.330958323553205">
<ele>345.8</ele>
<time>2024-05-09T09:37:03Z</time>
</trkpt>
<trkpt lat="49.533527344465256" lon="9.330971650779247">
<ele>345.8</ele>
<time>2024-05-09T09:37:04Z</time>
</trkpt>
<trkpt lat="49.53357310965657" lon="9.33098690584302">
<ele>346</ele>
<time>2024-05-09T09:37:05Z</time>
</trkpt>
<trkpt lat="49.53362273052335" lon="9.331003166735172">
<ele>346</ele>
<time>2024-05-09T09:37:06Z</time>
</trkpt>
<trkpt lat="49.533664640039206" lon="9.331016493961217">
<ele>346</ele>
<time>2024-05-09T09:37:07Z</time>
</trkpt>
<trkpt lat="49.533706633374095" lon="9.33102697134018">
<ele>346</ele>
<time>2024-05-09T09:37:08Z</time>
</trkpt>
<trkpt lat="49.533748626708984" lon="9.331040382385254">
<ele>346</ele>
<time>2024-05-09T09:37:09Z</time>
</trkpt>
<trkpt lat="49.533786764368415" lon="9.331051781773567">
<ele>346</ele>
<time>2024-05-09T09:37:10Z</time>
</trkpt>
<trkpt lat="49.533824902027845" lon="9.33106510899961">
<ele>346</ele>
<time>2024-05-09T09:37:11Z</time>
</trkpt>
<trkpt lat="49.5338668115437" lon="9.331076592206957">
<ele>346</ele>
<time>2024-05-09T09:37:12Z</time>
</trkpt>
<trkpt lat="49.53390880487859" lon="9.33108706958592">
<ele>346</ele>
<time>2024-05-09T09:37:13Z</time>
</trkpt>
<trkpt lat="49.53394694253802" lon="9.331098552793264">
<ele>346</ele>
<time>2024-05-09T09:37:14Z</time>
</trkpt>
<trkpt lat="49.53398508019745" lon="9.33110618032515">
<ele>346</ele>
<time>2024-05-09T09:37:15Z</time>
</trkpt>
<trkpt lat="49.53402321785688" lon="9.331116657704117">
<ele>346</ele>
<time>2024-05-09T09:37:16Z</time>
</trkpt>
<trkpt lat="49.53405758365989" lon="9.331128057092428">
<ele>346</ele>
<time>2024-05-09T09:37:17Z</time>
</trkpt>
<trkpt lat="49.53409572131932" lon="9.331141468137504">
<ele>346</ele>
<time>2024-05-09T09:37:18Z</time>
</trkpt>
<trkpt lat="49.53413008712232" lon="9.331154795363544">
<ele>346</ele>
<time>2024-05-09T09:37:19Z</time>
</trkpt>
<trkpt lat="49.53416822478175" lon="9.331168122589588">
<ele>346.2</ele>
<time>2024-05-09T09:37:20Z</time>
</trkpt>
<trkpt lat="49.53421013429761" lon="9.331179605796931">
<ele>346.2</ele>
<time>2024-05-09T09:37:21Z</time>
</trkpt>
<trkpt lat="49.5342521276325" lon="9.331190083175898">
<ele>346.4</ele>
<time>2024-05-09T09:37:22Z</time>
</trkpt>
<trkpt lat="49.53429026529193" lon="9.331201482564213">
<ele>346.6</ele>
<time>2024-05-09T09:37:23Z</time>
</trkpt>
<trkpt lat="49.53432840295136" lon="9.331212043762209">
<ele>346.6</ele>
<time>2024-05-09T09:37:24Z</time>
</trkpt>
<trkpt lat="49.53436654061079" lon="9.331218665465713">
<ele>346.8</ele>
<time>2024-05-09T09:37:25Z</time>
</trkpt>
<trkpt lat="49.53440467827022" lon="9.33122151531279">
<ele>346.8</ele>
<time>2024-05-09T09:37:26Z</time>
</trkpt>
<trkpt lat="49.5344352722168" lon="9.331218665465713">
<ele>347</ele>
<time>2024-05-09T09:37:27Z</time>
</trkpt>
<trkpt lat="49.53447340987623" lon="9.33120533823967">
<ele>347</ele>
<time>2024-05-09T09:37:28Z</time>
</trkpt>
<trkpt lat="49.53450392000377" lon="9.33118337765336">
<ele>347</ele>
<time>2024-05-09T09:37:29Z</time>
</trkpt>
<trkpt lat="49.53453443013131" lon="9.331148089841008">
<ele>347.2</ele>
<time>2024-05-09T09:37:30Z</time>
</trkpt>
<trkpt lat="49.534557312726974" lon="9.33110517449677">
<ele>347.2</ele>
<time>2024-05-09T09:37:31Z</time>
</trkpt>
<trkpt lat="49.53457256779075" lon="9.33104800991714">
<ele>347.2</ele>
<time>2024-05-09T09:37:32Z</time>
</trkpt>
<trkpt lat="49.53458396717906" lon="9.330991683527827">
<ele>347.2</ele>
<time>2024-05-09T09:37:33Z</time>
</trkpt>
<trkpt lat="49.534595450386405" lon="9.330938290804625">
<ele>347.2</ele>
<time>2024-05-09T09:37:34Z</time>
</trkpt>
<trkpt lat="49.53460693359375" lon="9.330888669937847">
<ele>347.2</ele>
<time>2024-05-09T09:37:35Z</time>
</trkpt>
<trkpt lat="49.53461833298206" lon="9.330838127061725">
<ele>347.2</ele>
<time>2024-05-09T09:37:36Z</time>
</trkpt>
<trkpt lat="49.53462596051395" lon="9.33078951202333">
<ele>347.2</ele>
<time>2024-05-09T09:37:37Z</time>
</trkpt>
<trkpt lat="49.534633588045835" lon="9.330738047137856">
<ele>347.4</ele>
<time>2024-05-09T09:37:38Z</time>
</trkpt>
<trkpt lat="49.53464121557772" lon="9.33068842627108">
<ele>347.4</ele>
<time>2024-05-09T09:37:39Z</time>
</trkpt>
<trkpt lat="49.53464507125318" lon="9.330641739070415">
<ele>347.4</ele>
<time>2024-05-09T09:37:40Z</time>
</trkpt>
<trkpt lat="49.53464507125318" lon="9.330594968050718">
<ele>347.6</ele>
<time>2024-05-09T09:37:41Z</time>
</trkpt>
<trkpt lat="49.53465269878507" lon="9.33055205270648">
<ele>347.8</ele>
<time>2024-05-09T09:37:42Z</time>
</trkpt>
<trkpt lat="49.534656470641494" lon="9.330506287515163">
<ele>348</ele>
<time>2024-05-09T09:37:43Z</time>
</trkpt>
<trkpt lat="49.53466409817338" lon="9.330465300008656">
<ele>348.4</ele>
<time>2024-05-09T09:37:44Z</time>
</trkpt>
<trkpt lat="49.53466795384884" lon="9.330425234511496">
<ele>348.6</ele>
<time>2024-05-09T09:37:45Z</time>
</trkpt>
<trkpt lat="49.534671725705266" lon="9.330380391329529">
<ele>348.8</ele>
<time>2024-05-09T09:37:46Z</time>
</trkpt>
<trkpt lat="49.53467935323715" lon="9.330327920615671">
<ele>348.8</ele>
<time>2024-05-09T09:37:47Z</time>
</trkpt>
<trkpt lat="49.53468698076904" lon="9.33027452789247">
<ele>349</ele>
<time>2024-05-09T09:37:48Z</time>
</trkpt>
<trkpt lat="49.53469846397638" lon="9.33021828532219">
<ele>349.2</ele>
<time>2024-05-09T09:37:49Z</time>
</trkpt>
<trkpt lat="49.5347098633647" lon="9.330162042751908">
<ele>349.2</ele>
<time>2024-05-09T09:37:50Z</time>
</trkpt>
<trkpt lat="49.53472134657204" lon="9.330106722190976">
<ele>349.4</ele>
<time>2024-05-09T09:37:51Z</time>
</trkpt>
<trkpt lat="49.534732745960355" lon="9.330049473792316">
<ele>349.4</ele>
<time>2024-05-09T09:37:52Z</time>
</trkpt>
<trkpt lat="49.53474800102413" lon="9.329995075240731">
<ele>349.4</ele>
<time>2024-05-09T09:37:53Z</time>
</trkpt>
<trkpt lat="49.53475948423147" lon="9.329941682517529">
<ele>349.6</ele>
<time>2024-05-09T09:37:54Z</time>
</trkpt>
<trkpt lat="49.53477473929525" lon="9.329888289794326">
<ele>349.6</ele>
<time>2024-05-09T09:37:55Z</time>
</trkpt>
<trkpt lat="49.534793850034475" lon="9.329843446612358">
<ele>349.6</ele>
<time>2024-05-09T09:37:56Z</time>
</trkpt>
<trkpt lat="49.53482436016202" lon="9.329814864322543">
<ele>349.8</ele>
<time>2024-05-09T09:37:57Z</time>
</trkpt>
<trkpt lat="49.53485487028957" lon="9.32980346493423">
<ele>350</ele>
<time>2024-05-09T09:37:58Z</time>
</trkpt>
<trkpt lat="49.534893007948995" lon="9.329798687249422">
<ele>350</ele>
<time>2024-05-09T09:37:59Z</time>
</trkpt>
<trkpt lat="49.53491966240108" lon="9.329794831573963">
<ele>350.2</ele>
<time>2024-05-09T09:38:00Z</time>
</trkpt>
<trkpt lat="49.534950256347656" lon="9.329796759411693">
<ele>350.2</ele>
<time>2024-05-09T09:38:01Z</time>
</trkpt>
<trkpt lat="49.53497691079974" lon="9.329798687249422">
<ele>350.2</ele>
<time>2024-05-09T09:38:02Z</time>
</trkpt>
<trkpt lat="49.535007420927286" lon="9.32980346493423">
<ele>350.4</ele>
<time>2024-05-09T09:38:03Z</time>
</trkpt>
<trkpt lat="49.535030303522944" lon="9.32982156984508">
<ele>350.4</ele>
<time>2024-05-09T09:38:04Z</time>
</trkpt>
<trkpt lat="49.5350531861186" lon="9.329848224297166">
<ele>350.6</ele>
<time>2024-05-09T09:38:05Z</time>
</trkpt>
<trkpt lat="49.535068441182375" lon="9.32988166809082">
<ele>350.6</ele>
<time>2024-05-09T09:38:06Z</time>
</trkpt>
<trkpt lat="49.535087551921606" lon="9.329921649768949">
<ele>350.6</ele>
<time>2024-05-09T09:38:07Z</time>
</trkpt>
<trkpt lat="49.53510280698538" lon="9.329968420788646">
<ele>350.6</ele>
<time>2024-05-09T09:38:08Z</time>
</trkpt>
<trkpt lat="49.53511420637369" lon="9.330008486285806">
<ele>350.6</ele>
<time>2024-05-09T09:38:09Z</time>
</trkpt>
<trkpt lat="49.535129545256495" lon="9.330044696107509">
<ele>350.6</ele>
<time>2024-05-09T09:38:10Z</time>
</trkpt>
<trkpt lat="49.53514480032027" lon="9.330082833766935">
<ele>350.6</ele>
<time>2024-05-09T09:38:11Z</time>
</trkpt>
<trkpt lat="49.53516005538404" lon="9.330121977254748">
<ele>350.6</ele>
<time>2024-05-09T09:38:12Z</time>
</trkpt>
<trkpt lat="49.53517908230424" lon="9.33015625923872">
<ele>350.6</ele>
<time>2024-05-09T09:38:13Z</time>
</trkpt>
<trkpt lat="49.53519819304347" lon="9.330191547051072">
<ele>350.6</ele>
<time>2024-05-09T09:38:14Z</time>
</trkpt>
<trkpt lat="49.53522107563913" lon="9.330226834863424">
<ele>350.6</ele>
<time>2024-05-09T09:38:15Z</time>
</trkpt>
<trkpt lat="49.53524010255933" lon="9.330261200666428">
<ele>350.8</ele>
<time>2024-05-09T09:38:16Z</time>
</trkpt>
<trkpt lat="49.535262985154986" lon="9.33029841631651">
<ele>350.8</ele>
<time>2024-05-09T09:38:17Z</time>
</trkpt>
<trkpt lat="49.535285867750645" lon="9.33033370412886">
<ele>350.8</ele>
<time>2024-05-09T09:38:18Z</time>
</trkpt>
<trkpt lat="49.535308834165335" lon="9.330367064103484">
<ele>351</ele>
<time>2024-05-09T09:38:19Z</time>
</trkpt>
<trkpt lat="49.53533171676099" lon="9.330400424078109">
<ele>351</ele>
<time>2024-05-09T09:38:20Z</time>
</trkpt>
<trkpt lat="49.53535837121308" lon="9.330436633899808">
<ele>351.2</ele>
<time>2024-05-09T09:38:21Z</time>
</trkpt>
<trkpt lat="49.53538510948419" lon="9.330474771559238">
<ele>351.2</ele>
<time>2024-05-09T09:38:22Z</time>
</trkpt>
<trkpt lat="49.535407992079854" lon="9.33051198720932">
<ele>351.2</ele>
<time>2024-05-09T09:38:23Z</time>
</trkpt>
<trkpt lat="49.53543087467551" lon="9.33055012486875">
<ele>351.2</ele>
<time>2024-05-09T09:38:24Z</time>
</trkpt>
<trkpt lat="49.5354575291276" lon="9.330586418509483">
<ele>351.4</ele>
<time>2024-05-09T09:38:25Z</time>
</trkpt>
<trkpt lat="49.535484267398715" lon="9.330621706321836">
<ele>351.4</ele>
<time>2024-05-09T09:38:26Z</time>
</trkpt>
<trkpt lat="49.53551100566983" lon="9.330659843981266">
<ele>351.4</ele>
<time>2024-05-09T09:38:27Z</time>
</trkpt>
<trkpt lat="49.53553766012192" lon="9.330699909478426">
<ele>351.4</ele>
<time>2024-05-09T09:38:28Z</time>
</trkpt>
<trkpt lat="49.535564398393035" lon="9.330738047137856">
<ele>351.2</ele>
<time>2024-05-09T09:38:29Z</time>
</trkpt>
<trkpt lat="49.53558728098869" lon="9.330778112635016">
<ele>351.2</ele>
<time>2024-05-09T09:38:30Z</time>
</trkpt>
<trkpt lat="49.53561779111624" lon="9.330820022150874">
<ele>351</ele>
<time>2024-05-09T09:38:31Z</time>
</trkpt>
<trkpt lat="49.535640673711896" lon="9.330858159810305">
<ele>351</ele>
<time>2024-05-09T09:38:32Z</time>
</trkpt>
<trkpt lat="49.53566741198301" lon="9.330900153145194">
<ele>351</ele>
<time>2024-05-09T09:38:33Z</time>
</trkpt>
<trkpt lat="49.5356940664351" lon="9.330940218642354">
<ele>351</ele>
<time>2024-05-09T09:38:34Z</time>
</trkpt>
<trkpt lat="49.535720804706216" lon="9.330978356301785">
<ele>350.8</ele>
<time>2024-05-09T09:38:35Z</time>
</trkpt>
<trkpt lat="49.53575131483376" lon="9.331018421798944">
<ele>350.8</ele>
<time>2024-05-09T09:38:36Z</time>
</trkpt>
<trkpt lat="49.535777969285846" lon="9.331056559458377">
<ele>350.6</ele>
<time>2024-05-09T09:38:37Z</time>
</trkpt>
<trkpt lat="49.53580470755696" lon="9.331098552793264">
<ele>350.6</ele>
<time>2024-05-09T09:38:38Z</time>
</trkpt>
<trkpt lat="49.53583521768451" lon="9.331138534471393">
<ele>350.4</ele>
<time>2024-05-09T09:38:39Z</time>
</trkpt>
<trkpt lat="49.535861955955625" lon="9.331174828112124">
<ele>350.2</ele>
<time>2024-05-09T09:38:40Z</time>
</trkpt>
<trkpt lat="49.53588483855128" lon="9.331216737627985">
<ele>350.2</ele>
<time>2024-05-09T09:38:41Z</time>
</trkpt>
<trkpt lat="49.53591149300337" lon="9.331258730962873">
<ele>350.2</ele>
<time>2024-05-09T09:38:42Z</time>
</trkpt>
<trkpt lat="49.53593437559903" lon="9.331297874450684">
<ele>350.2</ele>
<time>2024-05-09T09:38:43Z</time>
</trkpt>
<trkpt lat="49.535961113870144" lon="9.33133978396654">
<ele>350.2</ele>
<time>2024-05-09T09:38:44Z</time>
</trkpt>
<trkpt lat="49.5359839964658" lon="9.33138177730143">
<ele>350.2</ele>
<time>2024-05-09T09:38:45Z</time>
</trkpt>
<trkpt lat="49.53600687906146" lon="9.331423686817288">
<ele>350.2</ele>
<time>2024-05-09T09:38:46Z</time>
</trkpt>
<trkpt lat="49.536037389189005" lon="9.331468529999256">
<ele>350.2</ele>
<time>2024-05-09T09:38:47Z</time>
</trkpt>
<trkpt lat="49.53606789931655" lon="9.331511445343494">
<ele>350.2</ele>
<time>2024-05-09T09:38:48Z</time>
</trkpt>
<trkpt lat="49.536098409444094" lon="9.331558216363192">
<ele>350.2</ele>
<time>2024-05-09T09:38:49Z</time>
</trkpt>
<trkpt lat="49.53612891957164" lon="9.331604903563855">
<ele>350.2</ele>
<time>2024-05-09T09:38:50Z</time>
</trkpt>
<trkpt lat="49.536155657842755" lon="9.331647818908095">
<ele>350.2</ele>
<time>2024-05-09T09:38:51Z</time>
</trkpt>
<trkpt lat="49.5361861679703" lon="9.331694589927793">
<ele>350.2</ele>
<time>2024-05-09T09:38:52Z</time>
</trkpt>
<trkpt lat="49.53621667809784" lon="9.33174035511911">
<ele>350.4</ele>
<time>2024-05-09T09:38:53Z</time>
</trkpt>
<trkpt lat="49.53624341636896" lon="9.331785198301075">
<ele>350.4</ele>
<time>2024-05-09T09:38:54Z</time>
</trkpt>
<trkpt lat="49.53626629896462" lon="9.331832807511091">
<ele>350.6</ele>
<time>2024-05-09T09:38:55Z</time>
</trkpt>
<trkpt lat="49.536292953416705" lon="9.331879578530788">
<ele>350.6</ele>
<time>2024-05-09T09:38:56Z</time>
</trkpt>
<trkpt lat="49.53631969168782" lon="9.331926265731454">
<ele>350.8</ele>
<time>2024-05-09T09:38:57Z</time>
</trkpt>
<trkpt lat="49.53634257428348" lon="9.33197496458888">
<ele>351</ele>
<time>2024-05-09T09:38:58Z</time>
</trkpt>
<trkpt lat="49.53636545687914" lon="9.332023579627275">
<ele>351</ele>
<time>2024-05-09T09:38:59Z</time>
</trkpt>
<trkpt lat="49.5363883394748" lon="9.332070350646973">
<ele>351.2</ele>
<time>2024-05-09T09:39:00Z</time>
</trkpt>
<trkpt lat="49.53640745021403" lon="9.332117959856989">
<ele>351.4</ele>
<time>2024-05-09T09:39:01Z</time>
</trkpt>
<trkpt lat="49.53643033280969" lon="9.332166658714414">
<ele>351.6</ele>
<time>2024-05-09T09:39:02Z</time>
</trkpt>
<trkpt lat="49.536453215405345" lon="9.332215273752809">
<ele>351.6</ele>
<time>2024-05-09T09:39:03Z</time>
</trkpt>
<trkpt lat="49.53647986985743" lon="9.332262966781856">
<ele>351.8</ele>
<time>2024-05-09T09:39:04Z</time>
</trkpt>
<trkpt lat="49.53650283627212" lon="9.33230965398252">
<ele>352</ele>
<time>2024-05-09T09:39:05Z</time>
</trkpt>
<trkpt lat="49.53652186319232" lon="9.332360196858644">
<ele>352</ele>
<time>2024-05-09T09:39:06Z</time>
</trkpt>
<trkpt lat="49.53653711825609" lon="9.332406967878342">
<ele>352.2</ele>
<time>2024-05-09T09:39:07Z</time>
</trkpt>
<trkpt lat="49.53654860146344" lon="9.332453655079007">
<ele>352.2</ele>
<time>2024-05-09T09:39:08Z</time>
</trkpt>
<trkpt lat="49.536552373319864" lon="9.332501348108051">
<ele>352.2</ele>
<time>2024-05-09T09:39:09Z</time>
</trkpt>
<trkpt lat="49.53654474578798" lon="9.33254811912775">
<ele>352</ele>
<time>2024-05-09T09:39:10Z</time>
</trkpt>
<trkpt lat="49.536529490724206" lon="9.332583406940104">
<ele>352</ele>
<time>2024-05-09T09:39:11Z</time>
</trkpt>
<trkpt lat="49.53650660812855" lon="9.332616766914724">
<ele>352</ele>
<time>2024-05-09T09:39:12Z</time>
</trkpt>
<trkpt lat="49.53647986985743" lon="9.33264819905162">
<ele>352</ele>
<time>2024-05-09T09:39:13Z</time>
</trkpt>
<trkpt lat="49.536453215405345" lon="9.332681642845271">
<ele>352</ele>
<time>2024-05-09T09:39:14Z</time>
</trkpt>
<trkpt lat="49.5364227052778" lon="9.332715002819896">
<ele>352</ele>
<time>2024-05-09T09:39:15Z</time>
</trkpt>
<trkpt lat="49.536392195150256" lon="9.332750290632248">
<ele>352</ele>
<time>2024-05-09T09:39:16Z</time>
</trkpt>
<trkpt lat="49.53636168502271" lon="9.33278172276914">
<ele>351.8</ele>
<time>2024-05-09T09:39:17Z</time>
</trkpt>
<trkpt lat="49.53632731921971" lon="9.332817010581492">
<ele>351.8</ele>
<time>2024-05-09T09:39:18Z</time>
</trkpt>
<trkpt lat="49.536292953416705" lon="9.332857076078652">
<ele>351.6</ele>
<time>2024-05-09T09:39:19Z</time>
</trkpt>
<trkpt lat="49.53626244328916" lon="9.332899991422892">
<ele>351.4</ele>
<time>2024-05-09T09:39:20Z</time>
</trkpt>
<trkpt lat="49.53622816130519" lon="9.332940056920052">
<ele>351.2</ele>
<time>2024-05-09T09:39:21Z</time>
</trkpt>
<trkpt lat="49.53619002364576" lon="9.332976266741753">
<ele>351.2</ele>
<time>2024-05-09T09:39:22Z</time>
</trkpt>
<trkpt lat="49.536155657842755" lon="9.333013482391834">
<ele>351</ele>
<time>2024-05-09T09:39:23Z</time>
</trkpt>
<trkpt lat="49.53612129203975" lon="9.333047848194838">
<ele>350.8</ele>
<time>2024-05-09T09:39:24Z</time>
</trkpt>
<trkpt lat="49.53608315438032" lon="9.333084980025887">
<ele>350.8</ele>
<time>2024-05-09T09:39:25Z</time>
</trkpt>
<trkpt lat="49.53604501672089" lon="9.33312026783824">
<ele>350.6</ele>
<time>2024-05-09T09:39:26Z</time>
</trkpt>
<trkpt lat="49.53601073473692" lon="9.333151783794165">
<ele>350.6</ele>
<time>2024-05-09T09:39:27Z</time>
</trkpt>
<trkpt lat="49.53597251325846" lon="9.333185143768787">
<ele>350.6</ele>
<time>2024-05-09T09:39:28Z</time>
</trkpt>
<trkpt lat="49.535938231274486" lon="9.33321850374341">
<ele>350.4</ele>
<time>2024-05-09T09:39:29Z</time>
</trkpt>
<trkpt lat="49.53590386547148" lon="9.33325664140284">
<ele>350.4</ele>
<time>2024-05-09T09:39:30Z</time>
</trkpt>
<trkpt lat="49.535880982875824" lon="9.33329863473773">
<ele>350.4</ele>
<time>2024-05-09T09:39:31Z</time>
</trkpt>
<trkpt lat="49.53586572781205" lon="9.333348255604506">
<ele>350.4</ele>
<time>2024-05-09T09:39:32Z</time>
</trkpt>
<trkpt lat="49.53586572781205" lon="9.3333968706429">
<ele>350.4</ele>
<time>2024-05-09T09:39:33Z</time>
</trkpt>
<trkpt lat="49.53586958348751" lon="9.333441713824868">
<ele>350.4</ele>
<time>2024-05-09T09:39:34Z</time>
</trkpt>
<trkpt lat="49.53588483855128" lon="9.333483623340726">
<ele>350.4</ele>
<time>2024-05-09T09:39:35Z</time>
</trkpt>
<trkpt lat="49.53590772114694" lon="9.333526538684964">
<ele>350.4</ele>
<time>2024-05-09T09:39:36Z</time>
</trkpt>
<trkpt lat="49.5359306037426" lon="9.333568532019854">
<ele>350.4</ele>
<time>2024-05-09T09:39:37Z</time>
</trkpt>
<trkpt lat="49.53595348633826" lon="9.333608597517014">
<ele>350.6</ele>
<time>2024-05-09T09:39:38Z</time>
</trkpt>
<trkpt lat="49.535980224609375" lon="9.333644807338716">
<ele>350.6</ele>
<time>2024-05-09T09:39:39Z</time>
</trkpt>
<trkpt lat="49.53600687906146" lon="9.333682944998143">
<ele>350.8</ele>
<time>2024-05-09T09:39:40Z</time>
</trkpt>
<trkpt lat="49.53603361733258" lon="9.333726866170764">
<ele>350.8</ele>
<time>2024-05-09T09:39:41Z</time>
</trkpt>
<trkpt lat="49.53606027178466" lon="9.3337716255337">
<ele>351</ele>
<time>2024-05-09T09:39:42Z</time>
</trkpt>
<trkpt lat="49.53608701005578" lon="9.333818396553395">
<ele>351</ele>
<time>2024-05-09T09:39:43Z</time>
</trkpt>
<trkpt lat="49.536117520183325" lon="9.333863239735363">
<ele>351.2</ele>
<time>2024-05-09T09:39:44Z</time>
</trkpt>
<trkpt lat="49.53614417463541" lon="9.33390992693603">
<ele>351.2</ele>
<time>2024-05-09T09:39:45Z</time>
</trkpt>
<trkpt lat="49.536174768581986" lon="9.33395192027092">
<ele>351.2</ele>
<time>2024-05-09T09:39:46Z</time>
</trkpt>
<trkpt lat="49.53620142303407" lon="9.333998607471583">
<ele>351.4</ele>
<time>2024-05-09T09:39:47Z</time>
</trkpt>
<trkpt lat="49.53622816130519" lon="9.334045378491282">
<ele>351.4</ele>
<time>2024-05-09T09:39:48Z</time>
</trkpt>
<trkpt lat="49.536254815757275" lon="9.3340911436826">
<ele>351.4</ele>
<time>2024-05-09T09:39:49Z</time>
</trkpt>
<trkpt lat="49.53628155402839" lon="9.334136908873916">
<ele>351.4</ele>
<time>2024-05-09T09:39:50Z</time>
</trkpt>
<trkpt lat="49.53630820848048" lon="9.334179824218154">
<ele>351.4</ele>
<time>2024-05-09T09:39:51Z</time>
</trkpt>
<trkpt lat="49.536334946751595" lon="9.334221817553043">
<ele>351.4</ele>
<time>2024-05-09T09:39:52Z</time>
</trkpt>
<trkpt lat="49.53636545687914" lon="9.334268504753709">
<ele>351.4</ele>
<time>2024-05-09T09:39:53Z</time>
</trkpt>
<trkpt lat="49.53639596700668" lon="9.334311420097947">
<ele>351.4</ele>
<time>2024-05-09T09:39:54Z</time>
</trkpt>
<trkpt lat="49.5364227052778" lon="9.334356263279917">
<ele>351.4</ele>
<time>2024-05-09T09:39:55Z</time>
</trkpt>
<trkpt lat="49.536449359729886" lon="9.334403034299612">
<ele>351.4</ele>
<time>2024-05-09T09:39:56Z</time>
</trkpt>
<trkpt lat="49.536476098001" lon="9.334447793662548">
<ele>351.4</ele>
<time>2024-05-09T09:39:57Z</time>
</trkpt>
<trkpt lat="49.53650660812855" lon="9.334494564682243">
<ele>351.4</ele>
<time>2024-05-09T09:39:58Z</time>
</trkpt>
<trkpt lat="49.536533346399665" lon="9.334540329873562">
<ele>351.6</ele>
<time>2024-05-09T09:39:59Z</time>
</trkpt>
<trkpt lat="49.53656762838364" lon="9.33458517305553">
<ele>351.6</ele>
<time>2024-05-09T09:40:00Z</time>
</trkpt>
<trkpt lat="49.53659813851118" lon="9.334629932418466">
<ele>351.8</ele>
<time>2024-05-09T09:40:01Z</time>
</trkpt>
<trkpt lat="49.536632504314184" lon="9.334672847762704">
<ele>351.8</ele>
<time>2024-05-09T09:40:02Z</time>
</trkpt>
<trkpt lat="49.53666687011719" lon="9.334718696773052">
<ele>352</ele>
<time>2024-05-09T09:40:03Z</time>
</trkpt>
<trkpt lat="49.536689752712846" lon="9.334766305983068">
<ele>352</ele>
<time>2024-05-09T09:40:04Z</time>
</trkpt>
<trkpt lat="49.53671640716493" lon="9.334817854687572">
<ele>352.2</ele>
<time>2024-05-09T09:40:05Z</time>
</trkpt>
<trkpt lat="49.53674314543605" lon="9.334868397563696">
<ele>352.2</ele>
<time>2024-05-09T09:40:06Z</time>
</trkpt>
<trkpt lat="49.536769799888134" lon="9.33491701260209">
<ele>352.4</ele>
<time>2024-05-09T09:40:07Z</time>
</trkpt>
<trkpt lat="49.53680031001568" lon="9.334962777793407">
<ele>352.4</ele>
<time>2024-05-09T09:40:08Z</time>
</trkpt>
<trkpt lat="49.53683082014322" lon="9.335009548813105">
<ele>352.4</ele>
<time>2024-05-09T09:40:09Z</time>
</trkpt>
<trkpt lat="49.5368614140898" lon="9.335053386166692">
<ele>352.6</ele>
<time>2024-05-09T09:40:10Z</time>
</trkpt>
<trkpt lat="49.53689192421734" lon="9.33509822934866">
<ele>352.6</ele>
<time>2024-05-09T09:40:11Z</time>
</trkpt>
<trkpt lat="49.53692243434489" lon="9.335146844387054">
<ele>352.6</ele>
<time>2024-05-09T09:40:12Z</time>
</trkpt>
<trkpt lat="49.53695294447243" lon="9.335193615406752">
<ele>352.6</ele>
<time>2024-05-09T09:40:13Z</time>
</trkpt>
<trkpt lat="49.53698345459998" lon="9.335240302607415">
<ele>352.6</ele>
<time>2024-05-09T09:40:14Z</time>
</trkpt>
<trkpt lat="49.53701396472752" lon="9.335285145789385">
<ele>352.6</ele>
<time>2024-05-09T09:40:15Z</time>
</trkpt>
<trkpt lat="49.53704070299864" lon="9.33533476665616">
<ele>352.6</ele>
<time>2024-05-09T09:40:16Z</time>
</trkpt>
<trkpt lat="49.53707121312618" lon="9.335378604009748">
<ele>352.6</ele>
<time>2024-05-09T09:40:17Z</time>
</trkpt>
<trkpt lat="49.53710172325373" lon="9.335418669506907">
<ele>352.8</ele>
<time>2024-05-09T09:40:18Z</time>
</trkpt>
<trkpt lat="49.53712837770581" lon="9.335456807166338">
<ele>353</ele>
<time>2024-05-09T09:40:19Z</time>
</trkpt>
<trkpt lat="49.53715511597693" lon="9.33549016714096">
<ele>353</ele>
<time>2024-05-09T09:40:20Z</time>
</trkpt>
<trkpt lat="49.53718948177993" lon="9.335526460781692">
<ele>353.2</ele>
<time>2024-05-09T09:40:21Z</time>
</trkpt>
<trkpt lat="49.537223763763905" lon="9.335564598441124">
<ele>353.4</ele>
<time>2024-05-09T09:40:22Z</time>
</trkpt>
<trkpt lat="49.53725812956691" lon="9.335603658109903">
<ele>353.4</ele>
<time>2024-05-09T09:40:23Z</time>
</trkpt>
<trkpt lat="49.53729241155088" lon="9.335641795769334">
<ele>353.6</ele>
<time>2024-05-09T09:40:24Z</time>
</trkpt>
<trkpt lat="49.53732677735388" lon="9.335676161572335">
<ele>353.6</ele>
<time>2024-05-09T09:40:25Z</time>
</trkpt>
<trkpt lat="49.537361143156886" lon="9.33571337722242">
<ele>353.8</ele>
<time>2024-05-09T09:40:26Z</time>
</trkpt>
<trkpt lat="49.53739542514086" lon="9.335748665034773">
<ele>353.8</ele>
<time>2024-05-09T09:40:27Z</time>
</trkpt>
<trkpt lat="49.53742979094386" lon="9.335780097171664">
<ele>353.8</ele>
<time>2024-05-09T09:40:28Z</time>
</trkpt>
<trkpt lat="49.53746792860329" lon="9.33580683544278">
<ele>353.8</ele>
<time>2024-05-09T09:40:29Z</time>
</trkpt>
<trkpt lat="49.53750221058726" lon="9.335833489894869">
<ele>353.8</ele>
<time>2024-05-09T09:40:30Z</time>
</trkpt>
<trkpt lat="49.537540432065725" lon="9.33586684986949">
<ele>354</ele>
<time>2024-05-09T09:40:31Z</time>
</trkpt>
<trkpt lat="49.5375747140497" lon="9.335894510149956">
<ele>354</ele>
<time>2024-05-09T09:40:32Z</time>
</trkpt>
<trkpt lat="49.53761285170913" lon="9.3359250202775">
<ele>354</ele>
<time>2024-05-09T09:40:33Z</time>
</trkpt>
<trkpt lat="49.53764721751213" lon="9.335956536233423">
<ele>354</ele>
<time>2024-05-09T09:40:34Z</time>
</trkpt>
<trkpt lat="49.5376814994961" lon="9.335983274504542">
<ele>354</ele>
<time>2024-05-09T09:40:35Z</time>
</trkpt>
<trkpt lat="49.537715865299106" lon="9.336011856794356">
<ele>354</ele>
<time>2024-05-09T09:40:36Z</time>
</trkpt>
<trkpt lat="49.53774637542665" lon="9.336048066616058">
<ele>354</ele>
<time>2024-05-09T09:40:37Z</time>
</trkpt>
<trkpt lat="49.537776885554194" lon="9.33608528226614">
<ele>354</ele>
<time>2024-05-09T09:40:38Z</time>
</trkpt>
<trkpt lat="49.53780739568174" lon="9.3361253477633">
<ele>354</ele>
<time>2024-05-09T09:40:39Z</time>
</trkpt>
<trkpt lat="49.53784176148474" lon="9.336159629747272">
<ele>354</ele>
<time>2024-05-09T09:40:40Z</time>
</trkpt>
<trkpt lat="49.53787989914417" lon="9.336190223693848">
<ele>354</ele>
<time>2024-05-09T09:40:41Z</time>
</trkpt>
<trkpt lat="49.537914264947176" lon="9.33622165583074">
<ele>353.8</ele>
<time>2024-05-09T09:40:42Z</time>
</trkpt>
<trkpt lat="49.53795240260661" lon="9.336256943643091">
<ele>353.8</ele>
<time>2024-05-09T09:40:43Z</time>
</trkpt>
<trkpt lat="49.53798668459058" lon="9.336290303617716">
<ele>353.8</ele>
<time>2024-05-09T09:40:44Z</time>
</trkpt>
<trkpt lat="49.53802482225001" lon="9.33632366359234">
<ele>353.8</ele>
<time>2024-05-09T09:40:45Z</time>
</trkpt>
<trkpt lat="49.53805918805301" lon="9.336355179548264">
<ele>354</ele>
<time>2024-05-09T09:40:46Z</time>
</trkpt>
<trkpt lat="49.538093553856015" lon="9.336383761838078">
<ele>354</ele>
<time>2024-05-09T09:40:47Z</time>
</trkpt>
<trkpt lat="49.538131691515446" lon="9.336415277794003">
<ele>354.2</ele>
<time>2024-05-09T09:40:48Z</time>
</trkpt>
<trkpt lat="49.53816597349942" lon="9.336441932246087">
<ele>354.2</ele>
<time>2024-05-09T09:40:49Z</time>
</trkpt>
<trkpt lat="49.53820033930242" lon="9.336469592526557">
<ele>354.4</ele>
<time>2024-05-09T09:40:50Z</time>
</trkpt>
<trkpt lat="49.538234705105424" lon="9.336496330797672">
<ele>354.4</ele>
<time>2024-05-09T09:40:51Z</time>
</trkpt>
<trkpt lat="49.53826521523297" lon="9.336522985249758">
<ele>354.4</ele>
<time>2024-05-09T09:40:52Z</time>
</trkpt>
<trkpt lat="49.5383033528924" lon="9.336546873673797">
<ele>354.6</ele>
<time>2024-05-09T09:40:53Z</time>
</trkpt>
<trkpt lat="49.53833763487637" lon="9.336563050746918">
<ele>354.8</ele>
<time>2024-05-09T09:40:54Z</time>
</trkpt>
<trkpt lat="49.538372000679374" lon="9.33658023364842">
<ele>355</ele>
<time>2024-05-09T09:40:55Z</time>
</trkpt>
<trkpt lat="49.5384101383388" lon="9.336593560874462">
<ele>355.2</ele>
<time>2024-05-09T09:40:56Z</time>
</trkpt>
<trkpt lat="49.53844450414181" lon="9.336601188406348">
<ele>355.2</ele>
<time>2024-05-09T09:40:57Z</time>
</trkpt>
<trkpt lat="49.53848264180124" lon="9.336614599451424">
<ele>355.4</ele>
<time>2024-05-09T09:40:58Z</time>
</trkpt>
<trkpt lat="49.53851692378521" lon="9.336627004668117">
<ele>355.6</ele>
<time>2024-05-09T09:40:59Z</time>
</trkpt>
<trkpt lat="49.53855514526367" lon="9.336634632200004">
<ele>355.6</ele>
<time>2024-05-09T09:41:00Z</time>
</trkpt>
<trkpt lat="49.5385932829231" lon="9.336645109578969">
<ele>355.8</ele>
<time>2024-05-09T09:41:01Z</time>
</trkpt>
<trkpt lat="49.53863519243896" lon="9.336653659120202">
<ele>355.8</ele>
<time>2024-05-09T09:41:02Z</time>
</trkpt>
<trkpt lat="49.53867333009839" lon="9.336663214489818">
<ele>355.8</ele>
<time>2024-05-09T09:41:03Z</time>
</trkpt>
<trkpt lat="49.53871146775782" lon="9.336669920012357">
<ele>356</ele>
<time>2024-05-09T09:41:04Z</time>
</trkpt>
<trkpt lat="49.53874968923628" lon="9.336674613878133">
<ele>356</ele>
<time>2024-05-09T09:41:05Z</time>
</trkpt>
<trkpt lat="49.538783971220255" lon="9.33668039739132">
<ele>356.2</ele>
<time>2024-05-09T09:41:06Z</time>
</trkpt>
<trkpt lat="49.538822108879685" lon="9.336683247238398">
<ele>356.2</ele>
<time>2024-05-09T09:41:07Z</time>
</trkpt>
<trkpt lat="49.53886024653912" lon="9.336683247238398">
<ele>356.4</ele>
<time>2024-05-09T09:41:08Z</time>
</trkpt>
<trkpt lat="49.53889846801758" lon="9.336681319400668">
<ele>356.4</ele>
<time>2024-05-09T09:41:09Z</time>
</trkpt>
<trkpt lat="49.53893660567701" lon="9.336687019094825">
<ele>356.6</ele>
<time>2024-05-09T09:41:10Z</time>
</trkpt>
<trkpt lat="49.53896711580455" lon="9.336687019094825">
<ele>356.8</ele>
<time>2024-05-09T09:41:11Z</time>
</trkpt>
<trkpt lat="49.539001397788525" lon="9.336687019094825">
<ele>356.8</ele>
<time>2024-05-09T09:41:12Z</time>
</trkpt>
<trkpt lat="49.53903190791607" lon="9.336689868941903">
<ele>357</ele>
<time>2024-05-09T09:41:13Z</time>
</trkpt>
<trkpt lat="49.53906241804361" lon="9.336689868941903">
<ele>357</ele>
<time>2024-05-09T09:41:14Z</time>
</trkpt>
<trkpt lat="49.53909301199019" lon="9.336691796779633">
<ele>357.2</ele>
<time>2024-05-09T09:41:15Z</time>
</trkpt>
<trkpt lat="49.539119666442275" lon="9.336689868941903">
<ele>357.2</ele>
<time>2024-05-09T09:41:16Z</time>
</trkpt>
<trkpt lat="49.53914254903793" lon="9.336687019094825">
<ele>357.4</ele>
<time>2024-05-09T09:41:17Z</time>
</trkpt>
<trkpt lat="49.53916543163359" lon="9.336685175076129">
<ele>357.4</ele>
<time>2024-05-09T09:41:18Z</time>
</trkpt>
<trkpt lat="49.53918831422925" lon="9.336685175076129">
<ele>357.6</ele>
<time>2024-05-09T09:41:19Z</time>
</trkpt>
<trkpt lat="49.53920742496848" lon="9.336687019094825">
<ele>357.8</ele>
<time>2024-05-09T09:41:20Z</time>
</trkpt>
<trkpt lat="49.53922645188868" lon="9.33667846955359">
<ele>358</ele>
<time>2024-05-09T09:41:21Z</time>
</trkpt>
<trkpt lat="49.53924941830337" lon="9.336661286652088">
<ele>358.4</ele>
<time>2024-05-09T09:41:22Z</time>
</trkpt>
<trkpt lat="49.53926467336714" lon="9.336633626371622">
<ele>358.6</ele>
<time>2024-05-09T09:41:23Z</time>
</trkpt>
<trkpt lat="49.5392875559628" lon="9.336609821766617">
<ele>358.8</ele>
<time>2024-05-09T09:41:24Z</time>
</trkpt>
<trkpt lat="49.53931043855846" lon="9.336594566702844">
<ele>359</ele>
<time>2024-05-09T09:41:25Z</time>
</trkpt>
<trkpt lat="49.53933332115412" lon="9.336585011333227">
<ele>359.2</ele>
<time>2024-05-09T09:41:26Z</time>
</trkpt>
<trkpt lat="49.5393599756062" lon="9.336583083495498">
<ele>359.4</ele>
<time>2024-05-09T09:41:27Z</time>
</trkpt>
<trkpt lat="49.53938285820186" lon="9.336585011333227">
<ele>359.4</ele>
<time>2024-05-09T09:41:28Z</time>
</trkpt>
<trkpt lat="49.53940959647298" lon="9.336591716855764">
<ele>359.6</ele>
<time>2024-05-09T09:41:29Z</time>
</trkpt>
<trkpt lat="49.539436334744096" lon="9.336603116244078">
<ele>359.8</ele>
<time>2024-05-09T09:41:30Z</time>
</trkpt>
<trkpt lat="49.539459217339754" lon="9.336607893928884">
<ele>359.8</ele>
<time>2024-05-09T09:41:31Z</time>
</trkpt>
<trkpt lat="49.53948587179184" lon="9.336613593623042">
<ele>359.8</ele>
<time>2024-05-09T09:41:32Z</time>
</trkpt>
<trkpt lat="49.53951261006296" lon="9.336621221154928">
<ele>359.8</ele>
<time>2024-05-09T09:41:33Z</time>
</trkpt>
<trkpt lat="49.5395431201905" lon="9.336627004668117">
<ele>359.6</ele>
<time>2024-05-09T09:41:34Z</time>
</trkpt>
<trkpt lat="49.53956977464259" lon="9.336633626371622">
<ele>359.6</ele>
<time>2024-05-09T09:41:35Z</time>
</trkpt>
<trkpt lat="49.53960036858916" lon="9.33663840405643">
<ele>359.6</ele>
<time>2024-05-09T09:41:36Z</time>
</trkpt>
<trkpt lat="49.53963087871671" lon="9.336645109578969">
<ele>359.4</ele>
<time>2024-05-09T09:41:37Z</time>
</trkpt>
<trkpt lat="49.53965753316879" lon="9.336651731282473">
<ele>359.4</ele>
<time>2024-05-09T09:41:38Z</time>
</trkpt>
<trkpt lat="49.53968804329634" lon="9.33665843680501">
<ele>359.4</ele>
<time>2024-05-09T09:41:39Z</time>
</trkpt>
<trkpt lat="49.539714781567454" lon="9.336665142327549">
<ele>359.2</ele>
<time>2024-05-09T09:41:40Z</time>
</trkpt>
<trkpt lat="49.539745291695" lon="9.336671764031053">
<ele>359.2</ele>
<time>2024-05-09T09:41:41Z</time>
</trkpt>
<trkpt lat="49.53977580182254" lon="9.33667846955359">
<ele>359.2</ele>
<time>2024-05-09T09:41:42Z</time>
</trkpt>
<trkpt lat="49.53981016762555" lon="9.336688024923204">
<ele>359.2</ele>
<time>2024-05-09T09:41:43Z</time>
</trkpt>
<trkpt lat="49.53983682207763" lon="9.33669657446444">
<ele>359.2</ele>
<time>2024-05-09T09:41:44Z</time>
</trkpt>
<trkpt lat="49.539867332205176" lon="9.336707051843405">
<ele>359.2</ele>
<time>2024-05-09T09:41:45Z</time>
</trkpt>
<trkpt lat="49.53989784233272" lon="9.336713757365942">
<ele>359.2</ele>
<time>2024-05-09T09:41:46Z</time>
</trkpt>
<trkpt lat="49.5399284362793" lon="9.33671853505075">
<ele>359</ele>
<time>2024-05-09T09:41:47Z</time>
</trkpt>
<trkpt lat="49.53995894640684" lon="9.336727084591985">
<ele>359</ele>
<time>2024-05-09T09:41:48Z</time>
</trkpt>
<trkpt lat="49.539989456534386" lon="9.33673856779933">
<ele>359</ele>
<time>2024-05-09T09:41:49Z</time>
</trkpt>
<trkpt lat="49.54001611098647" lon="9.336746195331216">
<ele>359</ele>
<time>2024-05-09T09:41:50Z</time>
</trkpt>
<trkpt lat="49.54004284925759" lon="9.33675281703472">
<ele>359</ele>
<time>2024-05-09T09:41:51Z</time>
</trkpt>
<trkpt lat="49.540069503709674" lon="9.336763378232718">
<ele>359</ele>
<time>2024-05-09T09:41:52Z</time>
</trkpt>
<trkpt lat="49.54010009765625" lon="9.33677477762103">
<ele>359.2</ele>
<time>2024-05-09T09:41:53Z</time>
</trkpt>
<trkpt lat="49.540126752108335" lon="9.336781483143568">
<ele>359.2</ele>
<time>2024-05-09T09:41:54Z</time>
</trkpt>
<trkpt lat="49.54015726223588" lon="9.336791960522532">
<ele>359.2</ele>
<time>2024-05-09T09:41:55Z</time>
</trkpt>
<trkpt lat="49.540187772363424" lon="9.33679958805442">
<ele>359.4</ele>
<time>2024-05-09T09:41:56Z</time>
</trkpt>
<trkpt lat="49.54021828249097" lon="9.336808137595654">
<ele>359.4</ele>
<time>2024-05-09T09:41:57Z</time>
</trkpt>
<trkpt lat="49.54024879261851" lon="9.33681677095592">
<ele>359.6</ele>
<time>2024-05-09T09:41:58Z</time>
</trkpt>
<trkpt lat="49.54028315842152" lon="9.336826242506504">
<ele>359.8</ele>
<time>2024-05-09T09:41:59Z</time>
</trkpt>
<trkpt lat="49.54031366854906" lon="9.3368368037045">
<ele>360</ele>
<time>2024-05-09T09:42:00Z</time>
</trkpt>
<trkpt lat="49.540348034352064" lon="9.336848203092812">
<ele>360.4</ele>
<time>2024-05-09T09:42:01Z</time>
</trkpt>
<trkpt lat="49.54037854447961" lon="9.336861530318856">
<ele>360.8</ele>
<time>2024-05-09T09:42:02Z</time>
</trkpt>
<trkpt lat="49.54041282646358" lon="9.3368730135262">
<ele>361.2</ele>
<time>2024-05-09T09:42:03Z</time>
</trkpt>
<trkpt lat="49.54044719226658" lon="9.336883490905166">
<ele>361.4</ele>
<time>2024-05-09T09:42:04Z</time>
</trkpt>
<trkpt lat="49.54048155806959" lon="9.33689304627478">
<ele>361.6</ele>
<time>2024-05-09T09:42:05Z</time>
</trkpt>
<trkpt lat="49.54051206819713" lon="9.336903523653746">
<ele>361.8</ele>
<time>2024-05-09T09:42:06Z</time>
</trkpt>
<trkpt lat="49.5405463501811" lon="9.33691207319498">
<ele>362</ele>
<time>2024-05-09T09:42:07Z</time>
</trkpt>
<trkpt lat="49.54057686030865" lon="9.336921628564596">
<ele>362.4</ele>
<time>2024-05-09T09:42:08Z</time>
</trkpt>
<trkpt lat="49.54061122611165" lon="9.336931183934212">
<ele>362.6</ele>
<time>2024-05-09T09:42:09Z</time>
</trkpt>
<trkpt lat="49.540641736239195" lon="9.336941661313176">
<ele>362.8</ele>
<time>2024-05-09T09:42:10Z</time>
</trkpt>
<trkpt lat="49.54067224636674" lon="9.33695314452052">
<ele>362.8</ele>
<time>2024-05-09T09:42:11Z</time>
</trkpt>
<trkpt lat="49.54070661216974" lon="9.336964543908834">
<ele>363</ele>
<time>2024-05-09T09:42:12Z</time>
</trkpt>
<trkpt lat="49.54073712229729" lon="9.336976949125528">
<ele>363.2</ele>
<time>2024-05-09T09:42:13Z</time>
</trkpt>
<trkpt lat="49.54077140428126" lon="9.336984576657414">
<ele>363.4</ele>
<time>2024-05-09T09:42:14Z</time>
</trkpt>
<trkpt lat="49.54080962575972" lon="9.336996981874108">
<ele>363.6</ele>
<time>2024-05-09T09:42:15Z</time>
</trkpt>
<trkpt lat="49.54084390774369" lon="9.337006537243724">
<ele>363.8</ele>
<time>2024-05-09T09:42:16Z</time>
</trkpt>
<trkpt lat="49.540878273546696" lon="9.337017014622688">
<ele>364</ele>
<time>2024-05-09T09:42:17Z</time>
</trkpt>
<trkpt lat="49.54090878367424" lon="9.337026569992304">
<ele>364.2</ele>
<time>2024-05-09T09:42:18Z</time>
</trkpt>
<trkpt lat="49.54094306565821" lon="9.337037047371268">
<ele>364.6</ele>
<time>2024-05-09T09:42:19Z</time>
</trkpt>
<trkpt lat="49.540981287136674" lon="9.337046602740884">
<ele>364.8</ele>
<time>2024-05-09T09:42:20Z</time>
</trkpt>
<trkpt lat="49.541015569120646" lon="9.337058002129195">
<ele>365.2</ele>
<time>2024-05-09T09:42:21Z</time>
</trkpt>
<trkpt lat="49.54105370678008" lon="9.337068479508162">
<ele>365.4</ele>
<time>2024-05-09T09:42:22Z</time>
</trkpt>
<trkpt lat="49.54109184443951" lon="9.337076107040048">
<ele>365.6</ele>
<time>2024-05-09T09:42:23Z</time>
</trkpt>
<trkpt lat="49.54112621024251" lon="9.337086668238044">
<ele>365.8</ele>
<time>2024-05-09T09:42:24Z</time>
</trkpt>
<trkpt lat="49.541156720370054" lon="9.337098067626355">
<ele>366</ele>
<time>2024-05-09T09:42:25Z</time>
</trkpt>
<trkpt lat="49.54119108617306" lon="9.337108545005322">
<ele>366.2</ele>
<time>2024-05-09T09:42:26Z</time>
</trkpt>
<trkpt lat="49.54122536815703" lon="9.337118100374935">
<ele>366.4</ele>
<time>2024-05-09T09:42:27Z</time>
</trkpt>
<trkpt lat="49.54125973396003" lon="9.337124805897474">
<ele>366.6</ele>
<time>2024-05-09T09:42:28Z</time>
</trkpt>
<trkpt lat="49.541294015944" lon="9.337136205285788">
<ele>366.8</ele>
<time>2024-05-09T09:42:29Z</time>
</trkpt>
<trkpt lat="49.54132838174701" lon="9.337146682664752">
<ele>366.8</ele>
<time>2024-05-09T09:42:30Z</time>
</trkpt>
<trkpt lat="49.54136274755001" lon="9.33715338818729">
<ele>367</ele>
<time>2024-05-09T09:42:31Z</time>
</trkpt>
<trkpt lat="49.54140088520944" lon="9.337161937728524">
<ele>367.2</ele>
<time>2024-05-09T09:42:32Z</time>
</trkpt>
<trkpt lat="49.54143516719341" lon="9.33716956526041">
<ele>367.2</ele>
<time>2024-05-09T09:42:33Z</time>
</trkpt>
<trkpt lat="49.541469532996416" lon="9.337176270782948">
<ele>367.2</ele>
<time>2024-05-09T09:42:34Z</time>
</trkpt>
<trkpt lat="49.54150389879942" lon="9.337184904143214">
<ele>367.2</ele>
<time>2024-05-09T09:42:35Z</time>
</trkpt>
<trkpt lat="49.54153818078339" lon="9.33719345368445">
<ele>367.2</ele>
<time>2024-05-09T09:42:36Z</time>
</trkpt>
<trkpt lat="49.541572546586394" lon="9.337203009054065">
<ele>367.2</ele>
<time>2024-05-09T09:42:37Z</time>
</trkpt>
<trkpt lat="49.541606828570366" lon="9.33721541427076">
<ele>367.2</ele>
<time>2024-05-09T09:42:38Z</time>
</trkpt>
<trkpt lat="49.54164119437337" lon="9.337226813659072">
<ele>367.2</ele>
<time>2024-05-09T09:42:39Z</time>
</trkpt>
<trkpt lat="49.541671704500914" lon="9.337238296866415">
<ele>367.4</ele>
<time>2024-05-09T09:42:40Z</time>
</trkpt>
<trkpt lat="49.54170221462846" lon="9.337246846407652">
<ele>367.4</ele>
<time>2024-05-09T09:42:41Z</time>
</trkpt>
<trkpt lat="49.54173658043146" lon="9.33725162409246">
<ele>367.2</ele>
<time>2024-05-09T09:42:42Z</time>
</trkpt>
<trkpt lat="49.54176323488355" lon="9.337258329614995">
<ele>367.2</ele>
<time>2024-05-09T09:42:43Z</time>
</trkpt>
<trkpt lat="49.54179374501109" lon="9.337264951318502">
<ele>367.2</ele>
<time>2024-05-09T09:42:44Z</time>
</trkpt>
<trkpt lat="49.541828110814095" lon="9.337274506688118">
<ele>367.2</ele>
<time>2024-05-09T09:42:45Z</time>
</trkpt>
<trkpt lat="49.54185484908521" lon="9.337286911904812">
<ele>367.2</ele>
<time>2024-05-09T09:42:46Z</time>
</trkpt>
<trkpt lat="49.54188913106918" lon="9.337294539436698">
<ele>367.2</ele>
<time>2024-05-09T09:42:47Z</time>
</trkpt>
<trkpt lat="49.54192349687219" lon="9.337305016815662">
<ele>367.2</ele>
<time>2024-05-09T09:42:48Z</time>
</trkpt>
<trkpt lat="49.54195400699973" lon="9.3373117223382">
<ele>367.2</ele>
<time>2024-05-09T09:42:49Z</time>
</trkpt>
<trkpt lat="49.541988372802734" lon="9.337320271879436">
<ele>367.4</ele>
<time>2024-05-09T09:42:50Z</time>
</trkpt>
<trkpt lat="49.54201888293028" lon="9.33733175508678">
<ele>367.4</ele>
<time>2024-05-09T09:42:51Z</time>
</trkpt>
<trkpt lat="49.54205316491425" lon="9.337343154475093">
<ele>367.4</ele>
<time>2024-05-09T09:42:52Z</time>
</trkpt>
<trkpt lat="49.542087530717254" lon="9.337353631854056">
<ele>367.4</ele>
<time>2024-05-09T09:42:53Z</time>
</trkpt>
<trkpt lat="49.542121812701225" lon="9.337367042899132">
<ele>367.4</ele>
<time>2024-05-09T09:42:54Z</time>
</trkpt>
<trkpt lat="49.54215232282877" lon="9.337380370125176">
<ele>367.4</ele>
<time>2024-05-09T09:42:55Z</time>
</trkpt>
<trkpt lat="49.54218668863177" lon="9.33739185333252">
<ele>367.4</ele>
<time>2024-05-09T09:42:56Z</time>
</trkpt>
<trkpt lat="49.542221054434776" lon="9.337405180558562">
<ele>367.4</ele>
<time>2024-05-09T09:42:57Z</time>
</trkpt>
<trkpt lat="49.54225533641875" lon="9.337419429793954">
<ele>367.4</ele>
<time>2024-05-09T09:42:58Z</time>
</trkpt>
<trkpt lat="49.54228970222175" lon="9.337436612695456">
<ele>367.4</ele>
<time>2024-05-09T09:42:59Z</time>
</trkpt>
<trkpt lat="49.54232398420572" lon="9.337456645444036">
<ele>367.4</ele>
<time>2024-05-09T09:43:00Z</time>
</trkpt>
<trkpt lat="49.542358350008726" lon="9.337479528039694">
<ele>367.4</ele>
<time>2024-05-09T09:43:01Z</time>
</trkpt>
<trkpt lat="49.54239271581173" lon="9.33750526048243">
<ele>367.4</ele>
<time>2024-05-09T09:43:02Z</time>
</trkpt>
<trkpt lat="49.542423225939274" lon="9.337531998753548">
<ele>367.4</ele>
<time>2024-05-09T09:43:03Z</time>
</trkpt>
<trkpt lat="49.542457507923245" lon="9.337556809186935">
<ele>367.4</ele>
<time>2024-05-09T09:43:04Z</time>
</trkpt>
<trkpt lat="49.54248801805079" lon="9.33758539147675">
<ele>367.4</ele>
<time>2024-05-09T09:43:05Z</time>
</trkpt>
<trkpt lat="49.542518611997366" lon="9.337614979594946">
<ele>367.4</ele>
<time>2024-05-09T09:43:06Z</time>
</trkpt>
<trkpt lat="49.54255289398134" lon="9.33764356188476">
<ele>367.4</ele>
<time>2024-05-09T09:43:07Z</time>
</trkpt>
<trkpt lat="49.54258340410888" lon="9.337670300155878">
<ele>367.6</ele>
<time>2024-05-09T09:43:08Z</time>
</trkpt>
<trkpt lat="49.542613914236426" lon="9.337696954607964">
<ele>367.6</ele>
<time>2024-05-09T09:43:09Z</time>
</trkpt>
<trkpt lat="49.54264442436397" lon="9.33772654272616">
<ele>367.6</ele>
<time>2024-05-09T09:43:10Z</time>
</trkpt>
<trkpt lat="49.54267501831055" lon="9.337757052853703">
<ele>367.8</ele>
<time>2024-05-09T09:43:11Z</time>
</trkpt>
<trkpt lat="49.54270552843809" lon="9.33778471313417">
<ele>368</ele>
<time>2024-05-09T09:43:12Z</time>
</trkpt>
<trkpt lat="49.54273981042206" lon="9.337813295423985">
<ele>368.2</ele>
<time>2024-05-09T09:43:13Z</time>
</trkpt>
<trkpt lat="49.54277032054961" lon="9.337840033695102">
<ele>368.4</ele>
<time>2024-05-09T09:43:14Z</time>
</trkpt>
<trkpt lat="49.54280083067715" lon="9.33786677196622">
<ele>368.6</ele>
<time>2024-05-09T09:43:15Z</time>
</trkpt>
<trkpt lat="49.542831340804696" lon="9.337895354256034">
<ele>368.6</ele>
<time>2024-05-09T09:43:16Z</time>
</trkpt>
<trkpt lat="49.54286193475127" lon="9.337922092527153">
<ele>368.8</ele>
<time>2024-05-09T09:43:17Z</time>
</trkpt>
<trkpt lat="49.54289244487882" lon="9.33794497512281">
<ele>369</ele>
<time>2024-05-09T09:43:18Z</time>
</trkpt>
<trkpt lat="49.54292672686279" lon="9.337969701737164">
<ele>369</ele>
<time>2024-05-09T09:43:19Z</time>
</trkpt>
<trkpt lat="49.54295723699033" lon="9.337996440008284">
<ele>369.2</ele>
<time>2024-05-09T09:43:20Z</time>
</trkpt>
<trkpt lat="49.54298774711788" lon="9.338025022298098">
<ele>369.2</ele>
<time>2024-05-09T09:43:21Z</time>
</trkpt>
<trkpt lat="49.54302211292088" lon="9.338049832731484">
<ele>369.2</ele>
<time>2024-05-09T09:43:22Z</time>
</trkpt>
<trkpt lat="49.543052623048425" lon="9.338076571002604">
<ele>369.4</ele>
<time>2024-05-09T09:43:23Z</time>
</trkpt>
<trkpt lat="49.54308313317597" lon="9.338103225454688">
<ele>369.4</ele>
<time>2024-05-09T09:43:24Z</time>
</trkpt>
<trkpt lat="49.54311364330351" lon="9.338132813572884">
<ele>369.4</ele>
<time>2024-05-09T09:43:25Z</time>
</trkpt>
<trkpt lat="49.54314415343106" lon="9.3381613958627">
<ele>369.4</ele>
<time>2024-05-09T09:43:26Z</time>
</trkpt>
<trkpt lat="49.5431746635586" lon="9.338190061971543">
<ele>369.4</ele>
<time>2024-05-09T09:43:27Z</time>
</trkpt>
<trkpt lat="49.54320525750518" lon="9.33821864426136">
<ele>369.4</ele>
<time>2024-05-09T09:43:28Z</time>
</trkpt>
<trkpt lat="49.543231911957264" lon="9.338248232379556">
<ele>369.6</ele>
<time>2024-05-09T09:43:29Z</time>
</trkpt>
<trkpt lat="49.54326242208481" lon="9.338279664516447">
<ele>369.6</ele>
<time>2024-05-09T09:43:30Z</time>
</trkpt>
<trkpt lat="49.543289160355926" lon="9.338312102481725">
<ele>369.8</ele>
<time>2024-05-09T09:43:31Z</time>
</trkpt>
<trkpt lat="49.54331967048347" lon="9.338344540446997">
<ele>369.8</ele>
<time>2024-05-09T09:43:32Z</time>
</trkpt>
<trkpt lat="49.543350180611014" lon="9.33837790042162">
<ele>370</ele>
<time>2024-05-09T09:43:33Z</time>
</trkpt>
<trkpt lat="49.54337691888213" lon="9.3384151160717">
<ele>370</ele>
<time>2024-05-09T09:43:34Z</time>
</trkpt>
<trkpt lat="49.54340742900968" lon="9.338450403884051">
<ele>370.2</ele>
<time>2024-05-09T09:43:35Z</time>
</trkpt>
<trkpt lat="49.54343408346176" lon="9.338484685868025">
<ele>370.2</ele>
<time>2024-05-09T09:43:36Z</time>
</trkpt>
<trkpt lat="49.543464593589306" lon="9.33851812966168">
<ele>370.2</ele>
<time>2024-05-09T09:43:37Z</time>
</trkpt>
<trkpt lat="49.54349133186042" lon="9.338551489636302">
<ele>370.2</ele>
<time>2024-05-09T09:43:38Z</time>
</trkpt>
<trkpt lat="49.54351798631251" lon="9.338582921773195">
<ele>370.4</ele>
<time>2024-05-09T09:43:39Z</time>
</trkpt>
<trkpt lat="49.543548580259085" lon="9.338618209585547">
<ele>370.4</ele>
<time>2024-05-09T09:43:40Z</time>
</trkpt>
<trkpt lat="49.54357146285474" lon="9.3386534973979">
<ele>370.6</ele>
<time>2024-05-09T09:43:41Z</time>
</trkpt>
<trkpt lat="49.54360197298229" lon="9.338686941191554">
<ele>370.6</ele>
<time>2024-05-09T09:43:42Z</time>
</trkpt>
<trkpt lat="49.54362862743437" lon="9.338720301166177">
<ele>370.8</ele>
<time>2024-05-09T09:43:43Z</time>
</trkpt>
<trkpt lat="49.54365913756192" lon="9.338754583150148">
<ele>370.8</ele>
<time>2024-05-09T09:43:44Z</time>
</trkpt>
<trkpt lat="49.543685875833035" lon="9.338788026943805">
<ele>371</ele>
<time>2024-05-09T09:43:45Z</time>
</trkpt>
<trkpt lat="49.54371261410415" lon="9.338823314756157">
<ele>371</ele>
<time>2024-05-09T09:43:46Z</time>
</trkpt>
<trkpt lat="49.543743124231696" lon="9.338858602568507">
<ele>371</ele>
<time>2024-05-09T09:43:47Z</time>
</trkpt>
<trkpt lat="49.54376977868378" lon="9.338894812390208">
<ele>371.2</ele>
<time>2024-05-09T09:43:48Z</time>
</trkpt>
<trkpt lat="49.5437965169549" lon="9.33893295004964">
<ele>371.2</ele>
<time>2024-05-09T09:43:49Z</time>
</trkpt>
<trkpt lat="49.543823171406984" lon="9.338972009718418">
<ele>371.2</ele>
<time>2024-05-09T09:43:50Z</time>
</trkpt>
<trkpt lat="49.54385368153453" lon="9.339012075215578">
<ele>371.2</ele>
<time>2024-05-09T09:43:51Z</time>
</trkpt>
<trkpt lat="49.54387664794922" lon="9.33905121870339">
<ele>371.2</ele>
<time>2024-05-09T09:43:52Z</time>
</trkpt>
<trkpt lat="49.543903302401304" lon="9.339093128219249">
<ele>371.2</ele>
<time>2024-05-09T09:43:53Z</time>
</trkpt>
<trkpt lat="49.54393004067242" lon="9.339137049391866">
<ele>371.2</ele>
<time>2024-05-09T09:43:54Z</time>
</trkpt>
<trkpt lat="49.54394906759262" lon="9.339181892573832">
<ele>371.4</ele>
<time>2024-05-09T09:43:55Z</time>
</trkpt>
<trkpt lat="49.54397195018828" lon="9.33922665193677">
<ele>371.6</ele>
<time>2024-05-09T09:43:56Z</time>
</trkpt>
<trkpt lat="49.54399106092751" lon="9.339271495118735">
<ele>371.6</ele>
<time>2024-05-09T09:43:57Z</time>
</trkpt>
<trkpt lat="49.54401008784771" lon="9.339320110157132">
<ele>371.8</ele>
<time>2024-05-09T09:43:58Z</time>
</trkpt>
<trkpt lat="49.54402919858694" lon="9.33936880901456">
<ele>371.8</ele>
<time>2024-05-09T09:43:59Z</time>
</trkpt>
<trkpt lat="49.54404830932617" lon="9.339416502043605">
<ele>372</ele>
<time>2024-05-09T09:44:00Z</time>
</trkpt>
<trkpt lat="49.544063564389944" lon="9.33946704491973">
<ele>372</ele>
<time>2024-05-09T09:44:01Z</time>
</trkpt>
<trkpt lat="49.54408259131014" lon="9.339518509805202">
<ele>372.2</ele>
<time>2024-05-09T09:44:02Z</time>
</trkpt>
<trkpt lat="49.544101702049375" lon="9.339568130671978">
<ele>372.2</ele>
<time>2024-05-09T09:44:03Z</time>
</trkpt>
<trkpt lat="49.54411695711315" lon="9.339619595557451">
<ele>372.2</ele>
<time>2024-05-09T09:44:04Z</time>
</trkpt>
<trkpt lat="49.544139839708805" lon="9.339672066271303">
<ele>372.2</ele>
<time>2024-05-09T09:44:05Z</time>
</trkpt>
<trkpt lat="49.544158866629004" lon="9.339719759300351">
<ele>372.4</ele>
<time>2024-05-09T09:44:06Z</time>
</trkpt>
<trkpt lat="49.54418174922466" lon="9.339768374338746">
<ele>372.4</ele>
<time>2024-05-09T09:44:07Z</time>
</trkpt>
<trkpt lat="49.544200859963894" lon="9.339815061539412">
<ele>372.6</ele>
<time>2024-05-09T09:44:08Z</time>
</trkpt>
<trkpt lat="49.54422374255955" lon="9.33985797688365">
<ele>372.6</ele>
<time>2024-05-09T09:44:09Z</time>
</trkpt>
<trkpt lat="49.54424662515521" lon="9.339901898056269">
<ele>372.6</ele>
<time>2024-05-09T09:44:10Z</time>
</trkpt>
<trkpt lat="49.54427336342633" lon="9.339944813400509">
<ele>372.8</ele>
<time>2024-05-09T09:44:11Z</time>
</trkpt>
<trkpt lat="49.544296246021986" lon="9.339988650754094">
<ele>372.8</ele>
<time>2024-05-09T09:44:12Z</time>
</trkpt>
<trkpt lat="49.54431912861765" lon="9.340031566098332">
<ele>372.8</ele>
<time>2024-05-09T09:44:13Z</time>
</trkpt>
<trkpt lat="49.54434578306973" lon="9.340073559433222">
<ele>372.8</ele>
<time>2024-05-09T09:44:14Z</time>
</trkpt>
<trkpt lat="49.54437252134085" lon="9.34011647477746">
<ele>373</ele>
<time>2024-05-09T09:44:15Z</time>
</trkpt>
<trkpt lat="49.54439925961197" lon="9.340161317959428">
<ele>373</ele>
<time>2024-05-09T09:44:16Z</time>
</trkpt>
<trkpt lat="49.54442214220762" lon="9.340207083150744">
<ele>373.2</ele>
<time>2024-05-09T09:44:17Z</time>
</trkpt>
<trkpt lat="49.54444879665971" lon="9.340248070657251">
<ele>373.2</ele>
<time>2024-05-09T09:44:18Z</time>
</trkpt>
<trkpt lat="49.544475534930825" lon="9.340290063992144">
<ele>373.4</ele>
<time>2024-05-09T09:44:19Z</time>
</trkpt>
<trkpt lat="49.54449841752648" lon="9.340331973508">
<ele>373.6</ele>
<time>2024-05-09T09:44:20Z</time>
</trkpt>
<trkpt lat="49.54452507197857" lon="9.34037296101451">
<ele>373.8</ele>
<time>2024-05-09T09:44:21Z</time>
</trkpt>
<trkpt lat="49.54454795457423" lon="9.34041302651167">
<ele>374</ele>
<time>2024-05-09T09:44:22Z</time>
</trkpt>
<trkpt lat="49.54457092098892" lon="9.34045501984656">
<ele>374.2</ele>
<time>2024-05-09T09:44:23Z</time>
</trkpt>
<trkpt lat="49.54458994790912" lon="9.34049508534372">
<ele>374.4</ele>
<time>2024-05-09T09:44:24Z</time>
</trkpt>
<trkpt lat="49.544616686180234" lon="9.340535150840878">
<ele>374.4</ele>
<time>2024-05-09T09:44:25Z</time>
</trkpt>
<trkpt lat="49.54463956877589" lon="9.340575216338038">
<ele>374.6</ele>
<time>2024-05-09T09:44:26Z</time>
</trkpt>
<trkpt lat="49.54466245137155" lon="9.340615198016168">
<ele>374.8</ele>
<time>2024-05-09T09:44:27Z</time>
</trkpt>
<trkpt lat="49.54468910582363" lon="9.340653419494627">
<ele>375</ele>
<time>2024-05-09T09:44:28Z</time>
</trkpt>
<trkpt lat="49.54470821656287" lon="9.340695329010488">
<ele>375</ele>
<time>2024-05-09T09:44:29Z</time>
</trkpt>
<trkpt lat="49.544734954833984" lon="9.340736316516995">
<ele>375.2</ele>
<time>2024-05-09T09:44:30Z</time>
</trkpt>
<trkpt lat="49.54475783742964" lon="9.340778309851885">
<ele>375.4</ele>
<time>2024-05-09T09:44:31Z</time>
</trkpt>
<trkpt lat="49.5447807200253" lon="9.340821225196123">
<ele>375.4</ele>
<time>2024-05-09T09:44:32Z</time>
</trkpt>
<trkpt lat="49.5447997469455" lon="9.34086506254971">
<ele>375.6</ele>
<time>2024-05-09T09:44:33Z</time>
</trkpt>
<trkpt lat="49.54482262954116" lon="9.340909905731678">
<ele>375.6</ele>
<time>2024-05-09T09:44:34Z</time>
</trkpt>
<trkpt lat="49.54484174028039" lon="9.340956676751375">
<ele>375.6</ele>
<time>2024-05-09T09:44:35Z</time>
</trkpt>
<trkpt lat="49.54486462287605" lon="9.340999592095612">
<ele>375.6</ele>
<time>2024-05-09T09:44:36Z</time>
</trkpt>
<trkpt lat="49.54488364979625" lon="9.3410434294492">
<ele>375.8</ele>
<time>2024-05-09T09:44:37Z</time>
</trkpt>
<trkpt lat="49.54490661621094" lon="9.341088272631168">
<ele>375.8</ele>
<time>2024-05-09T09:44:38Z</time>
</trkpt>
<trkpt lat="49.54492949880659" lon="9.341133115813136">
<ele>375.8</ele>
<time>2024-05-09T09:44:39Z</time>
</trkpt>
<trkpt lat="49.544948525726795" lon="9.341177875176072">
<ele>376</ele>
<time>2024-05-09T09:44:40Z</time>
</trkpt>
<trkpt lat="49.54497140832245" lon="9.341219868510962">
<ele>376</ele>
<time>2024-05-09T09:44:41Z</time>
</trkpt>
<trkpt lat="49.54499814659357" lon="9.341263705864549">
<ele>376.2</ele>
<time>2024-05-09T09:44:42Z</time>
</trkpt>
<trkpt lat="49.54502102918923" lon="9.34130284935236">
<ele>376.2</ele>
<time>2024-05-09T09:44:43Z</time>
</trkpt>
<trkpt lat="49.545047683641315" lon="9.34134291484952">
<ele>376.4</ele>
<time>2024-05-09T09:44:44Z</time>
</trkpt>
<trkpt lat="49.54507442191243" lon="9.34138298034668">
<ele>376.4</ele>
<time>2024-05-09T09:44:45Z</time>
</trkpt>
<trkpt lat="49.54510116018355" lon="9.34142011217773">
<ele>376.6</ele>
<time>2024-05-09T09:44:46Z</time>
</trkpt>
<trkpt lat="49.545127814635634" lon="9.341456405818462">
<ele>376.6</ele>
<time>2024-05-09T09:44:47Z</time>
</trkpt>
<trkpt lat="49.54515455290675" lon="9.341493537649512">
<ele>376.8</ele>
<time>2024-05-09T09:44:48Z</time>
</trkpt>
<trkpt lat="49.54518120735884" lon="9.341529831290243">
<ele>376.8</ele>
<time>2024-05-09T09:44:49Z</time>
</trkpt>
<trkpt lat="49.545207945629954" lon="9.341567968949676">
<ele>376.8</ele>
<time>2024-05-09T09:44:50Z</time>
</trkpt>
<trkpt lat="49.54523460008204" lon="9.341603256762028">
<ele>377</ele>
<time>2024-05-09T09:44:51Z</time>
</trkpt>
<trkpt lat="49.54526133835316" lon="9.34164047241211">
<ele>377</ele>
<time>2024-05-09T09:44:52Z</time>
</trkpt>
<trkpt lat="49.545288076624274" lon="9.34167861007154">
<ele>377.2</ele>
<time>2024-05-09T09:44:53Z</time>
</trkpt>
<trkpt lat="49.54531473107636" lon="9.341719597578049">
<ele>377.2</ele>
<time>2024-05-09T09:44:54Z</time>
</trkpt>
<trkpt lat="49.54533384181559" lon="9.341761507093906">
<ele>377.4</ele>
<time>2024-05-09T09:44:55Z</time>
</trkpt>
<trkpt lat="49.54535672441125" lon="9.341805428266523">
<ele>377.4</ele>
<time>2024-05-09T09:44:56Z</time>
</trkpt>
<trkpt lat="49.54537575133145" lon="9.341850271448491">
<ele>377.4</ele>
<time>2024-05-09T09:44:57Z</time>
</trkpt>
<trkpt lat="49.54539486207068" lon="9.341896958649158">
<ele>377.6</ele>
<time>2024-05-09T09:44:58Z</time>
</trkpt>
<trkpt lat="49.54541388899088" lon="9.341944651678205">
<ele>377.6</ele>
<time>2024-05-09T09:44:59Z</time>
</trkpt>
<trkpt lat="49.54542922787368" lon="9.341995194554327">
<ele>377.8</ele>
<time>2024-05-09T09:45:00Z</time>
</trkpt>
<trkpt lat="49.54544825479388" lon="9.342044815421104">
<ele>377.8</ele>
<time>2024-05-09T09:45:01Z</time>
</trkpt>
<trkpt lat="49.545463509857655" lon="9.3420934304595">
<ele>378</ele>
<time>2024-05-09T09:45:02Z</time>
</trkpt>
<trkpt lat="49.545482620596886" lon="9.342143051326277">
<ele>378</ele>
<time>2024-05-09T09:45:03Z</time>
</trkpt>
<trkpt lat="49.54549787566066" lon="9.34218973852694">
<ele>378</ele>
<time>2024-05-09T09:45:04Z</time>
</trkpt>
<trkpt lat="49.54551690258086" lon="9.342234581708908">
<ele>378.2</ele>
<time>2024-05-09T09:45:05Z</time>
</trkpt>
<trkpt lat="49.54553601332009" lon="9.342278419062495">
<ele>378.2</ele>
<time>2024-05-09T09:45:06Z</time>
</trkpt>
<trkpt lat="49.54555126838386" lon="9.342323262244465">
<ele>378.4</ele>
<time>2024-05-09T09:45:07Z</time>
</trkpt>
<trkpt lat="49.54557029530406" lon="9.34236810542643">
<ele>378.4</ele>
<time>2024-05-09T09:45:08Z</time>
</trkpt>
<trkpt lat="49.54558555036783" lon="9.342412948608398">
<ele>378.6</ele>
<time>2024-05-09T09:45:09Z</time>
</trkpt>
<trkpt lat="49.54560851678252" lon="9.342458713799717">
<ele>378.8</ele>
<time>2024-05-09T09:45:10Z</time>
</trkpt>
<trkpt lat="49.54562754370272" lon="9.342501629143952">
<ele>379</ele>
<time>2024-05-09T09:45:11Z</time>
</trkpt>
<trkpt lat="49.54564665444195" lon="9.34254831634462">
<ele>379.2</ele>
<time>2024-05-09T09:45:12Z</time>
</trkpt>
<trkpt lat="49.54566568136215" lon="9.342595087364316">
<ele>379.2</ele>
<time>2024-05-09T09:45:13Z</time>
</trkpt>
<trkpt lat="49.54568856395781" lon="9.342643702402713">
<ele>379.4</ele>
<time>2024-05-09T09:45:14Z</time>
</trkpt>
<trkpt lat="49.54570767469704" lon="9.342691395431755">
<ele>379.6</ele>
<time>2024-05-09T09:45:15Z</time>
</trkpt>
<trkpt lat="49.54572670161724" lon="9.342740010470152">
<ele>379.8</ele>
<time>2024-05-09T09:45:16Z</time>
</trkpt>
<trkpt lat="49.5457495842129" lon="9.342788625508549">
<ele>379.8</ele>
<time>2024-05-09T09:45:17Z</time>
</trkpt>
<trkpt lat="49.54576869495213" lon="9.342833468690516">
<ele>380</ele>
<time>2024-05-09T09:45:18Z</time>
</trkpt>
<trkpt lat="49.54578780569136" lon="9.342880239710212">
<ele>380</ele>
<time>2024-05-09T09:45:19Z</time>
</trkpt>
<trkpt lat="49.54580683261156" lon="9.342924999073148">
<ele>380.2</ele>
<time>2024-05-09T09:45:20Z</time>
</trkpt>
<trkpt lat="49.54582971520722" lon="9.342969842255116">
<ele>380.2</ele>
<time>2024-05-09T09:45:21Z</time>
</trkpt>
<trkpt lat="49.54584882594645" lon="9.343016613274813">
<ele>380.4</ele>
<time>2024-05-09T09:45:22Z</time>
</trkpt>
<trkpt lat="49.54587170854211" lon="9.343061372637749">
<ele>380.4</ele>
<time>2024-05-09T09:45:23Z</time>
</trkpt>
<trkpt lat="49.54589073546231" lon="9.343105293810368">
<ele>380.6</ele>
<time>2024-05-09T09:45:24Z</time>
</trkpt>
<trkpt lat="49.54590984620154" lon="9.343148209154606">
<ele>380.8</ele>
<time>2024-05-09T09:45:25Z</time>
</trkpt>
<trkpt lat="49.54592887312174" lon="9.343192046508191">
<ele>380.8</ele>
<time>2024-05-09T09:45:26Z</time>
</trkpt>
<trkpt lat="49.54595183953643" lon="9.34323688969016">
<ele>381</ele>
<time>2024-05-09T09:45:27Z</time>
</trkpt>
<trkpt lat="49.54597086645663" lon="9.343283576890826">
<ele>381.2</ele>
<time>2024-05-09T09:45:28Z</time>
</trkpt>
<trkpt lat="49.54598997719586" lon="9.343330347910523">
<ele>381.4</ele>
<time>2024-05-09T09:45:29Z</time>
</trkpt>
<trkpt lat="49.54600900411606" lon="9.343375191092491">
<ele>381.8</ele>
<time>2024-05-09T09:45:30Z</time>
</trkpt>
<trkpt lat="49.54602811485529" lon="9.343421878293157">
<ele>382</ele>
<time>2024-05-09T09:45:31Z</time>
</trkpt>
<trkpt lat="49.54604714177549" lon="9.343468649312854">
<ele>382.2</ele>
<time>2024-05-09T09:45:32Z</time>
</trkpt>
<trkpt lat="49.54606239683926" lon="9.34351340867579">
<ele>382.2</ele>
<time>2024-05-09T09:45:33Z</time>
</trkpt>
<trkpt lat="49.54608150757849" lon="9.343560179695489">
<ele>382.4</ele>
<time>2024-05-09T09:45:34Z</time>
</trkpt>
<trkpt lat="49.546096762642264" lon="9.343607872724531">
<ele>382.6</ele>
<time>2024-05-09T09:45:35Z</time>
</trkpt>
<trkpt lat="49.546115873381495" lon="9.34365171007812">
<ele>382.8</ele>
<time>2024-05-09T09:45:36Z</time>
</trkpt>
<trkpt lat="49.546138755977154" lon="9.343696553260088">
<ele>382.8</ele>
<time>2024-05-09T09:45:37Z</time>
</trkpt>
<trkpt lat="49.54616163857281" lon="9.343741396442056">
<ele>383</ele>
<time>2024-05-09T09:45:38Z</time>
</trkpt>
<trkpt lat="49.54618066549301" lon="9.343785233795645">
<ele>383.2</ele>
<time>2024-05-09T09:45:39Z</time>
</trkpt>
<trkpt lat="49.54620354808867" lon="9.343825299292805">
<ele>383.2</ele>
<time>2024-05-09T09:45:40Z</time>
</trkpt>
<trkpt lat="49.54623028635979" lon="9.343865364789965">
<ele>383.4</ele>
<time>2024-05-09T09:45:41Z</time>
</trkpt>
<trkpt lat="49.54625694081187" lon="9.343901574611664">
<ele>383.4</ele>
<time>2024-05-09T09:45:42Z</time>
</trkpt>
<trkpt lat="49.54628367908299" lon="9.34393116272986">
<ele>383.4</ele>
<time>2024-05-09T09:45:43Z</time>
</trkpt>
<trkpt lat="49.54631041735411" lon="9.343956895172596">
<ele>383.6</ele>
<time>2024-05-09T09:45:44Z</time>
</trkpt>
<trkpt lat="49.54634092748165" lon="9.343976927921176">
<ele>383.6</ele>
<time>2024-05-09T09:45:45Z</time>
</trkpt>
<trkpt lat="49.5463714376092" lon="9.343996960669756">
<ele>383.6</ele>
<time>2024-05-09T09:45:46Z</time>
</trkpt>
<trkpt lat="49.54639809206128" lon="9.344015065580606">
<ele>383.6</ele>
<time>2024-05-09T09:45:47Z</time>
</trkpt>
<trkpt lat="49.546428602188826" lon="9.344037026166916">
<ele>383.6</ele>
<time>2024-05-09T09:45:48Z</time>
</trkpt>
<trkpt lat="49.54646296799183" lon="9.344057980924845">
<ele>383.8</ele>
<time>2024-05-09T09:45:49Z</time>
</trkpt>
<trkpt lat="49.54649347811937" lon="9.344081869348884">
<ele>384</ele>
<time>2024-05-09T09:45:50Z</time>
</trkpt>
<trkpt lat="49.54652398824692" lon="9.344102824106812">
<ele>384.2</ele>
<time>2024-05-09T09:45:51Z</time>
</trkpt>
<trkpt lat="49.54655835404992" lon="9.344124784693122">
<ele>384.4</ele>
<time>2024-05-09T09:45:52Z</time>
</trkpt>
<trkpt lat="49.54659263603389" lon="9.344142889603972">
<ele>384.6</ele>
<time>2024-05-09T09:45:53Z</time>
</trkpt>
<trkpt lat="49.54662322998047" lon="9.344169544056058">
<ele>384.8</ele>
<time>2024-05-09T09:45:54Z</time>
</trkpt>
<trkpt lat="49.54665751196444" lon="9.344200054183602">
<ele>385</ele>
<time>2024-05-09T09:45:55Z</time>
</trkpt>
<trkpt lat="49.546688022091985" lon="9.344233497977257">
<ele>385</ele>
<time>2024-05-09T09:45:56Z</time>
</trkpt>
<trkpt lat="49.5467147603631" lon="9.344268785789607">
<ele>385.2</ele>
<time>2024-05-09T09:45:57Z</time>
</trkpt>
<trkpt lat="49.546745270490646" lon="9.34430499561131">
<ele>385.2</ele>
<time>2024-05-09T09:45:58Z</time>
</trkpt>
<trkpt lat="49.54677192494273" lon="9.344340283423662">
<ele>385.4</ele>
<time>2024-05-09T09:45:59Z</time>
</trkpt>
<trkpt lat="49.54679866321385" lon="9.344378421083093">
<ele>385.4</ele>
<time>2024-05-09T09:46:00Z</time>
</trkpt>
<trkpt lat="49.54682917334139" lon="9.344416558742523">
<ele>385.6</ele>
<time>2024-05-09T09:46:01Z</time>
</trkpt>
<trkpt lat="49.54685205593705" lon="9.344458552077413">
<ele>385.6</ele>
<time>2024-05-09T09:46:02Z</time>
</trkpt>
<trkpt lat="49.54687493853271" lon="9.344498617574573">
<ele>385.8</ele>
<time>2024-05-09T09:46:03Z</time>
</trkpt>
<trkpt lat="49.54690167680383" lon="9.344538683071733">
<ele>385.8</ele>
<time>2024-05-09T09:46:04Z</time>
</trkpt>
<trkpt lat="49.546924559399486" lon="9.34457967057824">
<ele>386</ele>
<time>2024-05-09T09:46:05Z</time>
</trkpt>
<trkpt lat="49.546943586319685" lon="9.344623507931828">
<ele>386</ele>
<time>2024-05-09T09:46:06Z</time>
</trkpt>
<trkpt lat="49.546966552734375" lon="9.344668351113796">
<ele>386</ele>
<time>2024-05-09T09:46:07Z</time>
</trkpt>
<trkpt lat="49.546985579654574" lon="9.344710344448686">
<ele>386.2</ele>
<time>2024-05-09T09:46:08Z</time>
</trkpt>
<trkpt lat="49.54700846225023" lon="9.344751331955194">
<ele>386.2</ele>
<time>2024-05-09T09:46:09Z</time>
</trkpt>
<trkpt lat="49.547027572989464" lon="9.344795169308782">
<ele>386.4</ele>
<time>2024-05-09T09:46:10Z</time>
</trkpt>
<trkpt lat="49.54704659990966" lon="9.34483615681529">
<ele>386.4</ele>
<time>2024-05-09T09:46:11Z</time>
</trkpt>
<trkpt lat="49.54706948250532" lon="9.34487815015018">
<ele>386.6</ele>
<time>2024-05-09T09:46:12Z</time>
</trkpt>
<trkpt lat="49.54708859324455" lon="9.34492014348507">
<ele>386.6</ele>
<time>2024-05-09T09:46:13Z</time>
</trkpt>
<trkpt lat="49.54710762016475" lon="9.344964902848004">
<ele>386.8</ele>
<time>2024-05-09T09:46:14Z</time>
</trkpt>
<trkpt lat="49.54713050276041" lon="9.345007818192244">
<ele>386.8</ele>
<time>2024-05-09T09:46:15Z</time>
</trkpt>
<trkpt lat="49.54714961349964" lon="9.345051739364862">
<ele>386.8</ele>
<time>2024-05-09T09:46:16Z</time>
</trkpt>
<trkpt lat="49.5471724960953" lon="9.34509364888072">
<ele>386.8</ele>
<time>2024-05-09T09:46:17Z</time>
</trkpt>
<trkpt lat="49.54719160683453" lon="9.345136564224958">
<ele>386.8</ele>
<time>2024-05-09T09:46:18Z</time>
</trkpt>
<trkpt lat="49.54721448943019" lon="9.345178557559848">
<ele>387</ele>
<time>2024-05-09T09:46:19Z</time>
</trkpt>
<trkpt lat="49.54723351635039" lon="9.345221472904086">
<ele>387</ele>
<time>2024-05-09T09:46:20Z</time>
</trkpt>
<trkpt lat="49.54725639894605" lon="9.345263466238976">
<ele>387.2</ele>
<time>2024-05-09T09:46:21Z</time>
</trkpt>
<trkpt lat="49.54727550968528" lon="9.345305375754831">
<ele>387.2</ele>
<time>2024-05-09T09:46:22Z</time>
</trkpt>
<trkpt lat="49.547298392280936" lon="9.345346447080374">
<ele>387.2</ele>
<time>2024-05-09T09:46:23Z</time>
</trkpt>
<trkpt lat="49.54731750302017" lon="9.345386428758502">
<ele>387.2</ele>
<time>2024-05-09T09:46:24Z</time>
</trkpt>
<trkpt lat="49.54733652994037" lon="9.34543034993112">
<ele>387.2</ele>
<time>2024-05-09T09:46:25Z</time>
</trkpt>
<trkpt lat="49.54735178500414" lon="9.34547133743763">
<ele>387.4</ele>
<time>2024-05-09T09:46:26Z</time>
</trkpt>
<trkpt lat="49.5473746675998" lon="9.34551140293479">
<ele>387.6</ele>
<time>2024-05-09T09:46:27Z</time>
</trkpt>
<trkpt lat="49.54738992266357" lon="9.345555240288377">
<ele>387.6</ele>
<time>2024-05-09T09:46:28Z</time>
</trkpt>
<trkpt lat="49.5474090334028" lon="9.345596311613916">
<ele>387.8</ele>
<time>2024-05-09T09:46:29Z</time>
</trkpt>
<trkpt lat="49.547428060323" lon="9.345638221129777">
<ele>388</ele>
<time>2024-05-09T09:46:30Z</time>
</trkpt>
<trkpt lat="49.54744331538677" lon="9.345680214464664">
<ele>388</ele>
<time>2024-05-09T09:46:31Z</time>
</trkpt>
<trkpt lat="49.547462426126" lon="9.345723129808905">
<ele>388.2</ele>
<time>2024-05-09T09:46:32Z</time>
</trkpt>
<trkpt lat="49.547481536865234" lon="9.34576503932476">
<ele>388.4</ele>
<time>2024-05-09T09:46:33Z</time>
</trkpt>
<trkpt lat="49.54749679192901" lon="9.345809882506728">
<ele>388.8</ele>
<time>2024-05-09T09:46:34Z</time>
</trkpt>
<trkpt lat="49.54751204699278" lon="9.345854725688696">
<ele>389</ele>
<time>2024-05-09T09:46:35Z</time>
</trkpt>
<trkpt lat="49.54752730205655" lon="9.34590141288936">
<ele>389.2</ele>
<time>2024-05-09T09:46:36Z</time>
</trkpt>
<trkpt lat="49.54754255712032" lon="9.34594533406198">
<ele>389.4</ele>
<time>2024-05-09T09:46:37Z</time>
</trkpt>
<trkpt lat="49.547557812184095" lon="9.345990177243948">
<ele>389.8</ele>
<time>2024-05-09T09:46:38Z</time>
</trkpt>
<trkpt lat="49.54756921157241" lon="9.346036864444612">
<ele>390</ele>
<time>2024-05-09T09:46:39Z</time>
</trkpt>
<trkpt lat="49.547580694779754" lon="9.34608170762658">
<ele>390.2</ele>
<time>2024-05-09T09:46:40Z</time>
</trkpt>
<trkpt lat="49.54759209416807" lon="9.346126550808547">
<ele>390.4</ele>
<time>2024-05-09T09:46:41Z</time>
</trkpt>
<trkpt lat="49.54760357737541" lon="9.346173238009214">
<ele>390.6</ele>
<time>2024-05-09T09:46:42Z</time>
</trkpt>
<trkpt lat="49.547614976763725" lon="9.346218081191182">
<ele>391</ele>
<time>2024-05-09T09:46:43Z</time>
</trkpt>
<trkpt lat="49.54762645997107" lon="9.34626292437315">
<ele>391.2</ele>
<time>2024-05-09T09:46:44Z</time>
</trkpt>
<trkpt lat="49.54764171503484" lon="9.346306761726735">
<ele>391.4</ele>
<time>2024-05-09T09:46:45Z</time>
</trkpt>
<trkpt lat="49.54765319824219" lon="9.346349677070975">
<ele>391.6</ele>
<time>2024-05-09T09:46:46Z</time>
</trkpt>
<trkpt lat="49.54766845330596" lon="9.346389742568135">
<ele>392</ele>
<time>2024-05-09T09:46:47Z</time>
</trkpt>
<trkpt lat="49.54767985269427" lon="9.346431652083991">
<ele>392.2</ele>
<time>2024-05-09T09:46:48Z</time>
</trkpt>
<trkpt lat="49.54769133590162" lon="9.346474567428231">
<ele>392.6</ele>
<time>2024-05-09T09:46:49Z</time>
</trkpt>
<trkpt lat="49.54770273528993" lon="9.34651656076312">
<ele>392.8</ele>
<time>2024-05-09T09:46:50Z</time>
</trkpt>
<trkpt lat="49.54771421849728" lon="9.34655855409801">
<ele>393</ele>
<time>2024-05-09T09:46:51Z</time>
</trkpt>
<trkpt lat="49.54772561788559" lon="9.34659954160452">
<ele>393.4</ele>
<time>2024-05-09T09:46:52Z</time>
</trkpt>
<trkpt lat="49.547737101092935" lon="9.346641534939408">
<ele>393.6</ele>
<time>2024-05-09T09:46:53Z</time>
</trkpt>
<trkpt lat="49.54775235615671" lon="9.346683444455266">
<ele>393.8</ele>
<time>2024-05-09T09:46:54Z</time>
</trkpt>
<trkpt lat="49.54776375554502" lon="9.346725437790155">
<ele>394.2</ele>
<time>2024-05-09T09:46:55Z</time>
</trkpt>
<trkpt lat="49.547775238752365" lon="9.346766425296664">
<ele>394.4</ele>
<time>2024-05-09T09:46:56Z</time>
</trkpt>
<trkpt lat="49.54779049381614" lon="9.346806490793824">
<ele>394.6</ele>
<time>2024-05-09T09:46:57Z</time>
</trkpt>
<trkpt lat="49.54780189320445" lon="9.346846556290984">
<ele>395</ele>
<time>2024-05-09T09:46:58Z</time>
</trkpt>
<trkpt lat="49.54781337641179" lon="9.346886621788144">
<ele>395.2</ele>
<time>2024-05-09T09:46:59Z</time>
</trkpt>
<trkpt lat="49.54782485961914" lon="9.346926687285304">
<ele>395.4</ele>
<time>2024-05-09T09:47:00Z</time>
</trkpt>
<trkpt lat="49.547836259007454" lon="9.346966668963432">
<ele>395.6</ele>
<time>2024-05-09T09:47:01Z</time>
</trkpt>
<trkpt lat="49.5478477422148" lon="9.347006734460592">
<ele>395.8</ele>
<time>2024-05-09T09:47:02Z</time>
</trkpt>
<trkpt lat="49.54785914160311" lon="9.347048727795482">
<ele>396</ele>
<time>2024-05-09T09:47:03Z</time>
</trkpt>
<trkpt lat="49.54787062481046" lon="9.34708971530199">
<ele>396.4</ele>
<time>2024-05-09T09:47:04Z</time>
</trkpt>
<trkpt lat="49.54787825234234" lon="9.34713170863688">
<ele>396.6</ele>
<time>2024-05-09T09:47:05Z</time>
</trkpt>
<trkpt lat="49.54788965173066" lon="9.347173618152738">
<ele>396.8</ele>
<time>2024-05-09T09:47:06Z</time>
</trkpt>
<trkpt lat="49.54789727926254" lon="9.347214689478278">
<ele>397</ele>
<time>2024-05-09T09:47:07Z</time>
</trkpt>
<trkpt lat="49.54790490679443" lon="9.347256598994136">
<ele>397.2</ele>
<time>2024-05-09T09:47:08Z</time>
</trkpt>
<trkpt lat="49.547916390001774" lon="9.347299514338374">
<ele>397.4</ele>
<time>2024-05-09T09:47:09Z</time>
</trkpt>
<trkpt lat="49.54792401753366" lon="9.347343435510991">
<ele>397.4</ele>
<time>2024-05-09T09:47:10Z</time>
</trkpt>
<trkpt lat="49.547931645065546" lon="9.347386350855231">
<ele>397.6</ele>
<time>2024-05-09T09:47:11Z</time>
</trkpt>
<trkpt lat="49.54794304445386" lon="9.347430188208818">
<ele>397.8</ele>
<time>2024-05-09T09:47:12Z</time>
</trkpt>
<trkpt lat="49.547950671985745" lon="9.347473103553057">
<ele>398</ele>
<time>2024-05-09T09:47:13Z</time>
</trkpt>
<trkpt lat="49.54795829951763" lon="9.347515096887946">
<ele>398.2</ele>
<time>2024-05-09T09:47:14Z</time>
</trkpt>
<trkpt lat="49.54796978272498" lon="9.347558012232184">
<ele>398.4</ele>
<time>2024-05-09T09:47:15Z</time>
</trkpt>
<trkpt lat="49.54797741025686" lon="9.347597993910313">
<ele>398.4</ele>
<time>2024-05-09T09:47:16Z</time>
</trkpt>
<trkpt lat="49.54798503778875" lon="9.347639987245202">
<ele>398.6</ele>
<time>2024-05-09T09:47:17Z</time>
</trkpt>
<trkpt lat="49.547996520996094" lon="9.347680052742362">
<ele>398.6</ele>
<time>2024-05-09T09:47:18Z</time>
</trkpt>
<trkpt lat="49.54800414852798" lon="9.347720118239522">
<ele>398.6</ele>
<time>2024-05-09T09:47:19Z</time>
</trkpt>
<trkpt lat="49.54801554791629" lon="9.34776303358376">
<ele>398.6</ele>
<time>2024-05-09T09:47:20Z</time>
</trkpt>
<trkpt lat="49.54802703112364" lon="9.347804943099618">
<ele>398.8</ele>
<time>2024-05-09T09:47:21Z</time>
</trkpt>
<trkpt lat="49.54803843051195" lon="9.347846936434507">
<ele>398.8</ele>
<time>2024-05-09T09:47:22Z</time>
</trkpt>
<trkpt lat="49.5480499137193" lon="9.347887001931667">
<ele>399</ele>
<time>2024-05-09T09:47:23Z</time>
</trkpt>
<trkpt lat="49.54806516878307" lon="9.347927067428827">
<ele>399</ele>
<time>2024-05-09T09:47:24Z</time>
</trkpt>
<trkpt lat="49.54808042384684" lon="9.347963277250528">
<ele>399</ele>
<time>2024-05-09T09:47:25Z</time>
</trkpt>
<trkpt lat="49.54809567891061" lon="9.34800141490996">
<ele>399.2</ele>
<time>2024-05-09T09:47:26Z</time>
</trkpt>
<trkpt lat="49.54811470583081" lon="9.34803955256939">
<ele>399.2</ele>
<time>2024-05-09T09:47:27Z</time>
</trkpt>
<trkpt lat="49.548129960894585" lon="9.3480786960572">
<ele>399.2</ele>
<time>2024-05-09T09:47:28Z</time>
</trkpt>
<trkpt lat="49.54814521595836" lon="9.3481149058789">
<ele>399.4</ele>
<time>2024-05-09T09:47:29Z</time>
</trkpt>
<trkpt lat="49.54816047102213" lon="9.348153043538332">
<ele>399.4</ele>
<time>2024-05-09T09:47:30Z</time>
</trkpt>
<trkpt lat="49.54817580990493" lon="9.348190259188414">
<ele>399.4</ele>
<time>2024-05-09T09:47:31Z</time>
</trkpt>
<trkpt lat="49.54819483682513" lon="9.348228396847844">
<ele>399.4</ele>
<time>2024-05-09T09:47:32Z</time>
</trkpt>
<trkpt lat="49.548210091888905" lon="9.348266534507276">
<ele>399.6</ele>
<time>2024-05-09T09:47:33Z</time>
</trkpt>
<trkpt lat="49.54822534695268" lon="9.348303750157356">
<ele>399.6</ele>
<time>2024-05-09T09:47:34Z</time>
</trkpt>
<trkpt lat="49.54824060201645" lon="9.348339959979056">
<ele>399.8</ele>
<time>2024-05-09T09:47:35Z</time>
</trkpt>
<trkpt lat="49.54825971275568" lon="9.34837818145752">
<ele>400</ele>
<time>2024-05-09T09:47:36Z</time>
</trkpt>
<trkpt lat="49.54827496781945" lon="9.34841531328857">
<ele>400.2</ele>
<time>2024-05-09T09:47:37Z</time>
</trkpt>
<trkpt lat="49.548286367207766" lon="9.348453450948">
<ele>400.4</ele>
<time>2024-05-09T09:47:38Z</time>
</trkpt>
<trkpt lat="49.54830162227154" lon="9.34849158860743">
<ele>400.6</ele>
<time>2024-05-09T09:47:39Z</time>
</trkpt>
<trkpt lat="49.54831687733531" lon="9.348529810085893">
<ele>400.8</ele>
<time>2024-05-09T09:47:40Z</time>
</trkpt>
<trkpt lat="49.54833598807454" lon="9.348567947745323">
<ele>401</ele>
<time>2024-05-09T09:47:41Z</time>
</trkpt>
<trkpt lat="49.54835509881377" lon="9.348605079576371">
<ele>401</ele>
<time>2024-05-09T09:47:42Z</time>
</trkpt>
<trkpt lat="49.548370353877544" lon="9.348643301054835">
<ele>401.2</ele>
<time>2024-05-09T09:47:43Z</time>
</trkpt>
<trkpt lat="49.54838560894132" lon="9.348679510876536">
<ele>401.4</ele>
<time>2024-05-09T09:47:44Z</time>
</trkpt>
<trkpt lat="49.54840463586152" lon="9.348719576373696">
<ele>401.6</ele>
<time>2024-05-09T09:47:45Z</time>
</trkpt>
<trkpt lat="49.54841989092529" lon="9.348756708204746">
<ele>402</ele>
<time>2024-05-09T09:47:46Z</time>
</trkpt>
<trkpt lat="49.54843900166452" lon="9.34879300184548">
<ele>402.2</ele>
<time>2024-05-09T09:47:47Z</time>
</trkpt>
<trkpt lat="49.54845425672829" lon="9.348828289657831">
<ele>402.4</ele>
<time>2024-05-09T09:47:48Z</time>
</trkpt>
<trkpt lat="49.548469511792064" lon="9.348864499479532">
<ele>402.8</ele>
<time>2024-05-09T09:47:49Z</time>
</trkpt>
<trkpt lat="49.54848476685584" lon="9.348903642967343">
<ele>403</ele>
<time>2024-05-09T09:47:50Z</time>
</trkpt>
<trkpt lat="49.54850002191961" lon="9.348941780626774">
<ele>403.2</ele>
<time>2024-05-09T09:47:51Z</time>
</trkpt>
<trkpt lat="49.54851527698338" lon="9.348979918286204">
<ele>403.6</ele>
<time>2024-05-09T09:47:52Z</time>
</trkpt>
<trkpt lat="49.54853053204715" lon="9.349018055945637">
<ele>403.8</ele>
<time>2024-05-09T09:47:53Z</time>
</trkpt>
<trkpt lat="49.548545787110925" lon="9.349055271595716">
<ele>404</ele>
<time>2024-05-09T09:47:54Z</time>
</trkpt>
<trkpt lat="49.54856489785016" lon="9.349091481417418">
<ele>404.2</ele>
<time>2024-05-09T09:47:55Z</time>
</trkpt>
<trkpt lat="49.54858015291393" lon="9.349129619076848">
<ele>404.4</ele>
<time>2024-05-09T09:47:56Z</time>
</trkpt>
<trkpt lat="49.5485954079777" lon="9.34916683472693">
<ele>404.6</ele>
<time>2024-05-09T09:47:57Z</time>
</trkpt>
<trkpt lat="49.54861066304147" lon="9.349201200529931">
<ele>404.8</ele>
<time>2024-05-09T09:47:58Z</time>
</trkpt>
<trkpt lat="49.54862968996167" lon="9.349236488342283">
<ele>405</ele>
<time>2024-05-09T09:47:59Z</time>
</trkpt>
<trkpt lat="49.54864494502544" lon="9.349273620173337">
<ele>405.4</ele>
<time>2024-05-09T09:48:00Z</time>
</trkpt>
<trkpt lat="49.54865642823279" lon="9.349309913814068">
<ele>405.6</ele>
<time>2024-05-09T09:48:01Z</time>
</trkpt>
<trkpt lat="49.54867168329656" lon="9.349347045645118">
<ele>406</ele>
<time>2024-05-09T09:48:02Z</time>
</trkpt>
<trkpt lat="49.54869079403579" lon="9.34938141144812">
<ele>406.2</ele>
<time>2024-05-09T09:48:03Z</time>
</trkpt>
<trkpt lat="49.548702193424106" lon="9.349416699260471">
<ele>406.4</ele>
<time>2024-05-09T09:48:04Z</time>
</trkpt>
<trkpt lat="49.54871744848788" lon="9.349450059235096">
<ele>406.8</ele>
<time>2024-05-09T09:48:05Z</time>
</trkpt>
<trkpt lat="49.54873270355165" lon="9.34948341920972">
<ele>407</ele>
<time>2024-05-09T09:48:06Z</time>
</trkpt>
<trkpt lat="49.54874795861542" lon="9.349516863003371">
<ele>407.2</ele>
<time>2024-05-09T09:48:07Z</time>
</trkpt>
<trkpt lat="49.54876706935465" lon="9.349546367302535">
<ele>407.6</ele>
<time>2024-05-09T09:48:08Z</time>
</trkpt>
<trkpt lat="49.54878995195031" lon="9.349564472213387">
<ele>407.8</ele>
<time>2024-05-09T09:48:09Z</time>
</trkpt>
<trkpt lat="49.54880897887051" lon="9.349570255726576">
<ele>408.2</ele>
<time>2024-05-09T09:48:10Z</time>
</trkpt>
<trkpt lat="49.54882808960974" lon="9.34956162236631">
<ele>408.6</ele>
<time>2024-05-09T09:48:11Z</time>
</trkpt>
<trkpt lat="49.54884711652994" lon="9.34954351745546">
<ele>408.8</ele>
<time>2024-05-09T09:48:12Z</time>
</trkpt>
<trkpt lat="49.54885859973729" lon="9.349519712850451">
<ele>409</ele>
<time>2024-05-09T09:48:13Z</time>
</trkpt>
<trkpt lat="49.54887008294463" lon="9.349494902417064">
<ele>409</ele>
<time>2024-05-09T09:48:14Z</time>
</trkpt>
<trkpt lat="49.548881482332945" lon="9.349472019821404">
<ele>409.2</ele>
<time>2024-05-09T09:48:15Z</time>
</trkpt>
<trkpt lat="49.54889673739672" lon="9.349446287378669">
<ele>409.2</ele>
<time>2024-05-09T09:48:16Z</time>
</trkpt>
<trkpt lat="49.54890822060406" lon="9.34942147694528">
<ele>409.4</ele>
<time>2024-05-09T09:48:17Z</time>
</trkpt>
<trkpt lat="49.54891584813595" lon="9.349391888827084">
<ele>409.6</ele>
<time>2024-05-09T09:48:18Z</time>
</trkpt>
<trkpt lat="49.54892724752426" lon="9.34936137869954">
<ele>409.6</ele>
<time>2024-05-09T09:48:19Z</time>
</trkpt>
<trkpt lat="49.548942502588034" lon="9.349334640428424">
<ele>409.8</ele>
<time>2024-05-09T09:48:20Z</time>
</trkpt>
<trkpt lat="49.548957757651806" lon="9.34930513612926">
<ele>410</ele>
<time>2024-05-09T09:48:21Z</time>
</trkpt>
<trkpt lat="49.54897301271558" lon="9.349273620173337">
<ele>410</ele>
<time>2024-05-09T09:48:22Z</time>
</trkpt>
<trkpt lat="49.54898826777935" lon="9.34924311004579">
<ele>410.2</ele>
<time>2024-05-09T09:48:23Z</time>
</trkpt>
<trkpt lat="49.548999750986695" lon="9.349207822233438">
<ele>410.4</ele>
<time>2024-05-09T09:48:24Z</time>
</trkpt>
<trkpt lat="49.54901115037501" lon="9.349173540249469">
<ele>410.6</ele>
<time>2024-05-09T09:48:25Z</time>
</trkpt>
<trkpt lat="49.549022633582354" lon="9.349140096455812">
<ele>410.6</ele>
<time>2024-05-09T09:48:26Z</time>
</trkpt>
<trkpt lat="49.5490341167897" lon="9.34910866431892">
<ele>410.8</ele>
<time>2024-05-09T09:48:27Z</time>
</trkpt>
<trkpt lat="49.54904551617801" lon="9.349075304344296">
<ele>411</ele>
<time>2024-05-09T09:48:28Z</time>
</trkpt>
<trkpt lat="49.54905699938536" lon="9.349041860550642">
<ele>411</ele>
<time>2024-05-09T09:48:29Z</time>
</trkpt>
<trkpt lat="49.54907225444913" lon="9.34900657273829">
<ele>411</ele>
<time>2024-05-09T09:48:30Z</time>
</trkpt>
<trkpt lat="49.54908365383744" lon="9.348970362916589">
<ele>411.2</ele>
<time>2024-05-09T09:48:31Z</time>
</trkpt>
<trkpt lat="49.54909513704479" lon="9.348935075104237">
<ele>411.4</ele>
<time>2024-05-09T09:48:32Z</time>
</trkpt>
<trkpt lat="49.54911039210856" lon="9.348899787291884">
<ele>411.4</ele>
<time>2024-05-09T09:48:33Z</time>
</trkpt>
<trkpt lat="49.54912179149687" lon="9.348868355154991">
<ele>411.6</ele>
<time>2024-05-09T09:48:34Z</time>
</trkpt>
<trkpt lat="49.549137046560645" lon="9.348836839199066">
<ele>411.8</ele>
<time>2024-05-09T09:48:35Z</time>
</trkpt>
<trkpt lat="49.54914852976799" lon="9.348806329071522">
<ele>411.8</ele>
<time>2024-05-09T09:48:36Z</time>
</trkpt>
<trkpt lat="49.5491599291563" lon="9.348776740953326">
<ele>412</ele>
<time>2024-05-09T09:48:37Z</time>
</trkpt>
<trkpt lat="49.54917141236365" lon="9.348743380978703">
<ele>412</ele>
<time>2024-05-09T09:48:38Z</time>
</trkpt>
<trkpt lat="49.54918281175196" lon="9.34871002100408">
<ele>412.2</ele>
<time>2024-05-09T09:48:39Z</time>
</trkpt>
<trkpt lat="49.54919429495931" lon="9.348674733191729">
<ele>412.2</ele>
<time>2024-05-09T09:48:40Z</time>
</trkpt>
<trkpt lat="49.54920577816665" lon="9.348640367388724">
<ele>412.2</ele>
<time>2024-05-09T09:48:41Z</time>
</trkpt>
<trkpt lat="49.549221033230424" lon="9.348605079576371">
<ele>412.4</ele>
<time>2024-05-09T09:48:42Z</time>
</trkpt>
<trkpt lat="49.54923243261874" lon="9.34856979176402">
<ele>412.4</ele>
<time>2024-05-09T09:48:43Z</time>
</trkpt>
<trkpt lat="49.54924391582608" lon="9.348536431789398">
<ele>412.4</ele>
<time>2024-05-09T09:48:44Z</time>
</trkpt>
<trkpt lat="49.549259170889854" lon="9.348501143977046">
<ele>412.4</ele>
<time>2024-05-09T09:48:45Z</time>
</trkpt>
<trkpt lat="49.54927057027817" lon="9.348468706011772">
<ele>412.4</ele>
<time>2024-05-09T09:48:46Z</time>
</trkpt>
<trkpt lat="49.54928582534194" lon="9.34843534603715">
<ele>412.4</ele>
<time>2024-05-09T09:48:47Z</time>
</trkpt>
<trkpt lat="49.549297308549285" lon="9.348401986062528">
<ele>412.4</ele>
<time>2024-05-09T09:48:48Z</time>
</trkpt>
<trkpt lat="49.5493087079376" lon="9.348368626087904">
<ele>412.6</ele>
<time>2024-05-09T09:48:49Z</time>
</trkpt>
<trkpt lat="49.54932019114494" lon="9.348331410437822">
<ele>412.6</ele>
<time>2024-05-09T09:48:50Z</time>
</trkpt>
<trkpt lat="49.549335446208715" lon="9.34829704463482">
<ele>412.6</ele>
<time>2024-05-09T09:48:51Z</time>
</trkpt>
<trkpt lat="49.54934684559703" lon="9.348259912803767">
<ele>412.6</ele>
<time>2024-05-09T09:48:52Z</time>
</trkpt>
<trkpt lat="49.5493621006608" lon="9.348223619163036">
<ele>412.8</ele>
<time>2024-05-09T09:48:53Z</time>
</trkpt>
<trkpt lat="49.549373583868146" lon="9.348188331350684">
<ele>412.8</ele>
<time>2024-05-09T09:48:54Z</time>
</trkpt>
<trkpt lat="49.54938506707549" lon="9.348153043538332">
<ele>412.8</ele>
<time>2024-05-09T09:48:55Z</time>
</trkpt>
<trkpt lat="49.54940032213926" lon="9.34811968356371">
<ele>412.8</ele>
<time>2024-05-09T09:48:56Z</time>
</trkpt>
<trkpt lat="49.549415577203035" lon="9.348086323589088">
<ele>412.8</ele>
<time>2024-05-09T09:48:57Z</time>
</trkpt>
<trkpt lat="49.54942697659135" lon="9.348051957786083">
<ele>412.8</ele>
<time>2024-05-09T09:48:58Z</time>
</trkpt>
<trkpt lat="49.54944223165512" lon="9.348014825955032">
<ele>413</ele>
<time>2024-05-09T09:48:59Z</time>
</trkpt>
<trkpt lat="49.549453714862466" lon="9.3479785323143">
<ele>413</ele>
<time>2024-05-09T09:49:00Z</time>
</trkpt>
<trkpt lat="49.54946511425078" lon="9.34794131666422">
<ele>413.2</ele>
<time>2024-05-09T09:49:01Z</time>
</trkpt>
<trkpt lat="49.54948036931455" lon="9.347905106842518">
<ele>413.2</ele>
<time>2024-05-09T09:49:02Z</time>
</trkpt>
<trkpt lat="49.549491852521896" lon="9.347867891192436">
<ele>413.4</ele>
<time>2024-05-09T09:49:03Z</time>
</trkpt>
<trkpt lat="49.54950325191021" lon="9.347833609208465">
<ele>413.4</ele>
<time>2024-05-09T09:49:04Z</time>
</trkpt>
<trkpt lat="49.549514735117555" lon="9.347798321396112">
<ele>413.6</ele>
<time>2024-05-09T09:49:05Z</time>
</trkpt>
<trkpt lat="49.54952999018133" lon="9.34776303358376">
<ele>413.6</ele>
<time>2024-05-09T09:49:06Z</time>
</trkpt>
<trkpt lat="49.54954147338867" lon="9.347726739943027">
<ele>413.6</ele>
<time>2024-05-09T09:49:07Z</time>
</trkpt>
<trkpt lat="49.54955672845245" lon="9.347691535949709">
<ele>413.8</ele>
<time>2024-05-09T09:49:08Z</time>
</trkpt>
<trkpt lat="49.54956812784076" lon="9.347655242308974">
<ele>413.8</ele>
<time>2024-05-09T09:49:09Z</time>
</trkpt>
<trkpt lat="49.54958338290453" lon="9.347619954496622">
<ele>413.8</ele>
<time>2024-05-09T09:49:10Z</time>
</trkpt>
<trkpt lat="49.5495986379683" lon="9.347581816837192">
<ele>414</ele>
<time>2024-05-09T09:49:11Z</time>
</trkpt>
<trkpt lat="49.549613893032074" lon="9.34754367917776">
<ele>414.2</ele>
<time>2024-05-09T09:49:12Z</time>
</trkpt>
<trkpt lat="49.549629148095846" lon="9.34750646352768">
<ele>414.4</ele>
<time>2024-05-09T09:49:13Z</time>
</trkpt>
<trkpt lat="49.54964440315962" lon="9.347471175715327">
<ele>414.6</ele>
<time>2024-05-09T09:49:14Z</time>
</trkpt>
<trkpt lat="49.54965965822339" lon="9.347434965893626">
<ele>414.8</ele>
<time>2024-05-09T09:49:15Z</time>
</trkpt>
<trkpt lat="49.54967491328716" lon="9.347398756071923">
<ele>415</ele>
<time>2024-05-09T09:49:16Z</time>
</trkpt>
<trkpt lat="49.549690168350935" lon="9.347359612584114">
<ele>415.2</ele>
<time>2024-05-09T09:49:17Z</time>
</trkpt>
<trkpt lat="49.54970165155828" lon="9.34732524678111">
<ele>415.4</ele>
<time>2024-05-09T09:49:18Z</time>
</trkpt>
<trkpt lat="49.54971690662205" lon="9.34728995896876">
<ele>415.6</ele>
<time>2024-05-09T09:49:19Z</time>
</trkpt>
<trkpt lat="49.549732161685824" lon="9.347253749147058">
<ele>415.8</ele>
<time>2024-05-09T09:49:20Z</time>
</trkpt>
<trkpt lat="49.5497474167496" lon="9.347216533496976">
<ele>416</ele>
<time>2024-05-09T09:49:21Z</time>
</trkpt>
<trkpt lat="49.54976652748883" lon="9.347178395837544">
<ele>416.2</ele>
<time>2024-05-09T09:49:22Z</time>
</trkpt>
<trkpt lat="49.5497817825526" lon="9.347141264006495">
<ele>416.2</ele>
<time>2024-05-09T09:49:23Z</time>
</trkpt>
<trkpt lat="49.54979703761637" lon="9.347104970365764">
<ele>416.4</ele>
<time>2024-05-09T09:49:24Z</time>
</trkpt>
<trkpt lat="49.54981606453657" lon="9.347066832706332">
<ele>416.4</ele>
<time>2024-05-09T09:49:25Z</time>
</trkpt>
<trkpt lat="49.549831319600344" lon="9.347024839371445">
<ele>416.6</ele>
<time>2024-05-09T09:49:26Z</time>
</trkpt>
<trkpt lat="49.54984657466411" lon="9.346984857693316">
<ele>416.6</ele>
<time>2024-05-09T09:49:27Z</time>
</trkpt>
<trkpt lat="49.54986568540335" lon="9.346944792196156">
<ele>416.8</ele>
<time>2024-05-09T09:49:28Z</time>
</trkpt>
<trkpt lat="49.54988479614258" lon="9.346904726698996">
<ele>416.8</ele>
<time>2024-05-09T09:49:29Z</time>
</trkpt>
<trkpt lat="49.54990382306278" lon="9.346866589039564">
<ele>416.8</ele>
<time>2024-05-09T09:49:30Z</time>
</trkpt>
<trkpt lat="49.54992293380201" lon="9.346824595704676">
<ele>416.8</ele>
<time>2024-05-09T09:49:31Z</time>
</trkpt>
<trkpt lat="49.54994196072221" lon="9.346784530207517">
<ele>416.8</ele>
<time>2024-05-09T09:49:32Z</time>
</trkpt>
<trkpt lat="49.549964843317866" lon="9.346744464710357">
<ele>417</ele>
<time>2024-05-09T09:49:33Z</time>
</trkpt>
<trkpt lat="49.54998009838164" lon="9.346705405041575">
<ele>417.2</ele>
<time>2024-05-09T09:49:34Z</time>
</trkpt>
<trkpt lat="49.54999920912087" lon="9.346665339544415">
<ele>417.2</ele>
<time>2024-05-09T09:49:35Z</time>
</trkpt>
<trkpt lat="49.55001823604107" lon="9.346625274047256">
<ele>417.4</ele>
<time>2024-05-09T09:49:36Z</time>
</trkpt>
<trkpt lat="49.55003349110484" lon="9.346586214378476">
<ele>417.4</ele>
<time>2024-05-09T09:49:37Z</time>
</trkpt>
<trkpt lat="49.55004874616861" lon="9.346545143052936">
<ele>417.6</ele>
<time>2024-05-09T09:49:38Z</time>
</trkpt>
<trkpt lat="49.550067856907845" lon="9.346503233537078">
<ele>417.6</ele>
<time>2024-05-09T09:49:39Z</time>
</trkpt>
<trkpt lat="49.55008311197162" lon="9.346461240202188">
<ele>417.8</ele>
<time>2024-05-09T09:49:40Z</time>
</trkpt>
<trkpt lat="49.55010222271085" lon="9.34641639702022">
<ele>418</ele>
<time>2024-05-09T09:49:41Z</time>
</trkpt>
<trkpt lat="49.55012124963105" lon="9.346373481675982">
<ele>418</ele>
<time>2024-05-09T09:49:42Z</time>
</trkpt>
<trkpt lat="49.55013650469482" lon="9.346328722313046">
<ele>418.2</ele>
<time>2024-05-09T09:49:43Z</time>
</trkpt>
<trkpt lat="49.55015175975859" lon="9.34628295712173">
<ele>418.4</ele>
<time>2024-05-09T09:49:44Z</time>
</trkpt>
<trkpt lat="49.55016701482237" lon="9.346238113939762">
<ele>418.4</ele>
<time>2024-05-09T09:49:45Z</time>
</trkpt>
<trkpt lat="49.550186125561595" lon="9.346190420910716">
<ele>418.4</ele>
<time>2024-05-09T09:49:46Z</time>
</trkpt>
<trkpt lat="49.550205152481794" lon="9.34614364989102">
<ele>418.6</ele>
<time>2024-05-09T09:49:47Z</time>
</trkpt>
<trkpt lat="49.55022040754557" lon="9.346097884699702">
<ele>418.6</ele>
<time>2024-05-09T09:49:48Z</time>
</trkpt>
<trkpt lat="49.5502395182848" lon="9.346057819202542">
<ele>418.6</ele>
<time>2024-05-09T09:49:49Z</time>
</trkpt>
<trkpt lat="49.550262400880456" lon="9.346026387065647">
<ele>418.6</ele>
<time>2024-05-09T09:49:50Z</time>
</trkpt>
<trkpt lat="49.550292911008" lon="9.346010126173496">
<ele>418.8</ele>
<time>2024-05-09T09:49:51Z</time>
</trkpt>
<trkpt lat="49.55031964927912" lon="9.34600543230772">
<ele>418.8</ele>
<time>2024-05-09T09:49:52Z</time>
</trkpt>
<trkpt lat="49.550342531874776" lon="9.346012054011226">
<ele>418.8</ele>
<time>2024-05-09T09:49:53Z</time>
</trkpt>
<trkpt lat="49.550361558794975" lon="9.34602353721857">
<ele>418.8</ele>
<time>2024-05-09T09:49:54Z</time>
</trkpt>
<trkpt lat="49.55037681385875" lon="9.346039714291692">
<ele>418.8</ele>
<time>2024-05-09T09:49:55Z</time>
</trkpt>
<trkpt lat="49.55039592459798" lon="9.346051197499037">
<ele>418.8</ele>
<time>2024-05-09T09:49:56Z</time>
</trkpt>
<trkpt lat="49.55041503533721" lon="9.346071230247617">
<ele>418.8</ele>
<time>2024-05-09T09:49:57Z</time>
</trkpt>
<trkpt lat="49.55043791793287" lon="9.346088329330088">
<ele>418.8</ele>
<time>2024-05-09T09:49:58Z</time>
</trkpt>
<trkpt lat="49.550460800528526" lon="9.346095034852624">
<ele>419</ele>
<time>2024-05-09T09:49:59Z</time>
</trkpt>
<trkpt lat="49.550479827448726" lon="9.346088329330088">
<ele>419</ele>
<time>2024-05-09T09:50:00Z</time>
</trkpt>
<trkpt lat="49.55049893818796" lon="9.346073074266316">
<ele>418.8</ele>
<time>2024-05-09T09:50:01Z</time>
</trkpt>
<trkpt lat="49.55051419325173" lon="9.346053041517736">
<ele>418.8</ele>
<time>2024-05-09T09:50:02Z</time>
</trkpt>
<trkpt lat="49.55053322017193" lon="9.346034936606884">
<ele>418.8</ele>
<time>2024-05-09T09:50:03Z</time>
</trkpt>
<trkpt lat="49.55055233091116" lon="9.346010126173496">
<ele>418.6</ele>
<time>2024-05-09T09:50:04Z</time>
</trkpt>
<trkpt lat="49.55057521350682" lon="9.34598154388368">
<ele>418.6</ele>
<time>2024-05-09T09:50:05Z</time>
</trkpt>
<trkpt lat="49.550601951777935" lon="9.345950111746788">
<ele>418.4</ele>
<time>2024-05-09T09:50:06Z</time>
</trkpt>
<trkpt lat="49.55063246190548" lon="9.345916667953134">
<ele>418.2</ele>
<time>2024-05-09T09:50:07Z</time>
</trkpt>
<trkpt lat="49.550662972033024" lon="9.34588330797851">
<ele>418.2</ele>
<time>2024-05-09T09:50:08Z</time>
</trkpt>
<trkpt lat="49.55069348216057" lon="9.34584802016616">
<ele>418.2</ele>
<time>2024-05-09T09:50:09Z</time>
</trkpt>
<trkpt lat="49.55072776414454" lon="9.345811810344458">
<ele>418.2</ele>
<time>2024-05-09T09:50:10Z</time>
</trkpt>
<trkpt lat="49.55075835809112" lon="9.345774594694376">
<ele>418.2</ele>
<time>2024-05-09T09:50:11Z</time>
</trkpt>
<trkpt lat="49.55079264007509" lon="9.345734529197216">
<ele>418.2</ele>
<time>2024-05-09T09:50:12Z</time>
</trkpt>
<trkpt lat="49.55082700587809" lon="9.345694463700056">
<ele>418.4</ele>
<time>2024-05-09T09:50:13Z</time>
</trkpt>
<trkpt lat="49.55086514353752" lon="9.345653476193547">
<ele>418.4</ele>
<time>2024-05-09T09:50:14Z</time>
</trkpt>
<trkpt lat="49.55089942552149" lon="9.34561156667769">
<ele>418.4</ele>
<time>2024-05-09T09:50:15Z</time>
</trkpt>
<trkpt lat="49.550937646999955" lon="9.3455695733428">
<ele>418.4</ele>
<time>2024-05-09T09:50:16Z</time>
</trkpt>
<trkpt lat="49.55097955651581" lon="9.345524730160832">
<ele>418.4</ele>
<time>2024-05-09T09:50:17Z</time>
</trkpt>
<trkpt lat="49.5510215498507" lon="9.345477037131786">
<ele>418.4</ele>
<time>2024-05-09T09:50:18Z</time>
</trkpt>
<trkpt lat="49.55105968751013" lon="9.345428422093391">
<ele>418.4</ele>
<time>2024-05-09T09:50:19Z</time>
</trkpt>
<trkpt lat="49.55110168084502" lon="9.345379807054996">
<ele>418.4</ele>
<time>2024-05-09T09:50:20Z</time>
</trkpt>
<trkpt lat="49.55114359036088" lon="9.345331192016602">
<ele>418.2</ele>
<time>2024-05-09T09:50:21Z</time>
</trkpt>
<trkpt lat="49.55118558369577" lon="9.345279643312097">
<ele>418.2</ele>
<time>2024-05-09T09:50:22Z</time>
</trkpt>
<trkpt lat="49.5512237213552" lon="9.34523002244532">
<ele>418.2</ele>
<time>2024-05-09T09:50:23Z</time>
</trkpt>
<trkpt lat="49.55126948654651" lon="9.345179479569197">
<ele>418.2</ele>
<time>2024-05-09T09:50:24Z</time>
</trkpt>
<trkpt lat="49.551311479881406" lon="9.345129942521451">
<ele>418.2</ele>
<time>2024-05-09T09:50:25Z</time>
</trkpt>
<trkpt lat="49.55135338939726" lon="9.345078393816948">
<ele>418</ele>
<time>2024-05-09T09:50:26Z</time>
</trkpt>
<trkpt lat="49.55139915458858" lon="9.345027850940824">
<ele>418</ele>
<time>2024-05-09T09:50:27Z</time>
</trkpt>
<trkpt lat="49.55144500359893" lon="9.344980157911776">
<ele>417.8</ele>
<time>2024-05-09T09:50:28Z</time>
</trkpt>
<trkpt lat="49.551490768790245" lon="9.344926765188577">
<ele>417.8</ele>
<time>2024-05-09T09:50:29Z</time>
</trkpt>
<trkpt lat="49.55153653398156" lon="9.34487622231245">
<ele>417.8</ele>
<time>2024-05-09T09:50:30Z</time>
</trkpt>
<trkpt lat="49.55158229917288" lon="9.344824757426975">
<ele>417.6</ele>
<time>2024-05-09T09:50:31Z</time>
</trkpt>
<trkpt lat="49.55162429250777" lon="9.344771364703774">
<ele>417.4</ele>
<time>2024-05-09T09:50:32Z</time>
</trkpt>
<trkpt lat="49.55167005769909" lon="9.34471981599927">
<ele>417.2</ele>
<time>2024-05-09T09:50:33Z</time>
</trkpt>
<trkpt lat="49.55171196721494" lon="9.344668351113796">
<ele>417</ele>
<time>2024-05-09T09:50:34Z</time>
</trkpt>
<trkpt lat="49.55175773240626" lon="9.3446197360754">
<ele>416.8</ele>
<time>2024-05-09T09:50:35Z</time>
</trkpt>
<trkpt lat="49.55179972574115" lon="9.344572043046355">
<ele>416.6</ele>
<time>2024-05-09T09:50:36Z</time>
</trkpt>
<trkpt lat="49.55184171907604" lon="9.34452342800796">
<ele>416.2</ele>
<time>2024-05-09T09:50:37Z</time>
</trkpt>
<trkpt lat="49.551883628591895" lon="9.344478584825993">
<ele>416</ele>
<time>2024-05-09T09:50:38Z</time>
</trkpt>
<trkpt lat="49.55192939378321" lon="9.344429969787598">
<ele>415.8</ele>
<time>2024-05-09T09:50:39Z</time>
</trkpt>
<trkpt lat="49.5519713871181" lon="9.344380348920822">
<ele>415.4</ele>
<time>2024-05-09T09:50:40Z</time>
</trkpt>
<trkpt lat="49.55201338045299" lon="9.344329806044698">
<ele>415.2</ele>
<time>2024-05-09T09:50:41Z</time>
</trkpt>
<trkpt lat="49.55205151811242" lon="9.344283035025">
<ele>415</ele>
<time>2024-05-09T09:50:42Z</time>
</trkpt>
<trkpt lat="49.55209342762828" lon="9.344236347824337">
<ele>415</ele>
<time>2024-05-09T09:50:43Z</time>
</trkpt>
<trkpt lat="49.55213164910674" lon="9.344193432480097">
<ele>414.8</ele>
<time>2024-05-09T09:50:44Z</time>
</trkpt>
<trkpt lat="49.55216593109071" lon="9.344153366982937">
<ele>414.8</ele>
<time>2024-05-09T09:50:45Z</time>
</trkpt>
<trkpt lat="49.55220029689371" lon="9.344116151332855">
<ele>414.8</ele>
<time>2024-05-09T09:50:46Z</time>
</trkpt>
<trkpt lat="49.55223457887769" lon="9.344081869348884">
<ele>414.8</ele>
<time>2024-05-09T09:50:47Z</time>
</trkpt>
<trkpt lat="49.55226508900523" lon="9.34405135922134">
<ele>415</ele>
<time>2024-05-09T09:50:48Z</time>
</trkpt>
<trkpt lat="49.55229182727635" lon="9.344026548787951">
<ele>415</ele>
<time>2024-05-09T09:50:49Z</time>
</trkpt>
<trkpt lat="49.55232619307935" lon="9.344015065580606">
<ele>415</ele>
<time>2024-05-09T09:50:50Z</time>
</trkpt>
<trkpt lat="49.5523567032069" lon="9.344024620950222">
<ele>415</ele>
<time>2024-05-09T09:50:51Z</time>
</trkpt>
<trkpt lat="49.55238721333444" lon="9.344057058915496">
<ele>415</ele>
<time>2024-05-09T09:50:52Z</time>
</trkpt>
<trkpt lat="49.55241386778653" lon="9.344097124412656">
<ele>414.8</ele>
<time>2024-05-09T09:50:53Z</time>
</trkpt>
<trkpt lat="49.55244060605765" lon="9.344136184081435">
<ele>414.8</ele>
<time>2024-05-09T09:50:54Z</time>
</trkpt>
<trkpt lat="49.55246734432876" lon="9.344180105254054">
<ele>414.8</ele>
<time>2024-05-09T09:50:55Z</time>
</trkpt>
<trkpt lat="49.55249022692442" lon="9.344228720292447">
<ele>414.8</ele>
<time>2024-05-09T09:50:56Z</time>
</trkpt>
<trkpt lat="49.55252073705197" lon="9.344280185177922">
<ele>414.8</ele>
<time>2024-05-09T09:50:57Z</time>
</trkpt>
<trkpt lat="49.55255124717951" lon="9.344331733882427">
<ele>414.6</ele>
<time>2024-05-09T09:50:58Z</time>
</trkpt>
<trkpt lat="49.55258175730705" lon="9.3443831987679">
<ele>414.6</ele>
<time>2024-05-09T09:50:59Z</time>
</trkpt>
<trkpt lat="49.552616039291024" lon="9.344436591491103">
<ele>414.6</ele>
<time>2024-05-09T09:51:00Z</time>
</trkpt>
<trkpt lat="49.5526466332376" lon="9.344489984214306">
<ele>414.6</ele>
<time>2024-05-09T09:51:01Z</time>
</trkpt>
<trkpt lat="49.55268477089703" lon="9.34454631060362">
<ele>414.6</ele>
<time>2024-05-09T09:51:02Z</time>
</trkpt>
<trkpt lat="49.552719052881" lon="9.344605403020978">
<ele>414.6</ele>
<time>2024-05-09T09:51:03Z</time>
</trkpt>
<trkpt lat="49.55275719054043" lon="9.344664495438336">
<ele>414.4</ele>
<time>2024-05-09T09:51:04Z</time>
</trkpt>
<trkpt lat="49.55279155634344" lon="9.344726521521808">
<ele>414.4</ele>
<time>2024-05-09T09:51:05Z</time>
</trkpt>
<trkpt lat="49.55282969400287" lon="9.344788547605276">
<ele>414.2</ele>
<time>2024-05-09T09:51:06Z</time>
</trkpt>
<trkpt lat="49.55286405980587" lon="9.344849567860363">
<ele>414.2</ele>
<time>2024-05-09T09:51:07Z</time>
</trkpt>
<trkpt lat="49.5529021974653" lon="9.344908660277724">
<ele>414</ele>
<time>2024-05-09T09:51:08Z</time>
</trkpt>
<trkpt lat="49.55294033512473" lon="9.344966830685737">
<ele>414</ele>
<time>2024-05-09T09:51:09Z</time>
</trkpt>
<trkpt lat="49.55297847278416" lon="9.345023073256016">
<ele>413.8</ele>
<time>2024-05-09T09:51:10Z</time>
</trkpt>
<trkpt lat="49.55301661044359" lon="9.345083171501756">
<ele>413.8</ele>
<time>2024-05-09T09:51:11Z</time>
</trkpt>
<trkpt lat="49.553050976246595" lon="9.345143269747496">
<ele>413.8</ele>
<time>2024-05-09T09:51:12Z</time>
</trkpt>
<trkpt lat="49.55308525823057" lon="9.345208145678043">
<ele>413.8</ele>
<time>2024-05-09T09:51:13Z</time>
</trkpt>
<trkpt lat="49.55312339589" lon="9.34527293778956">
<ele>413.6</ele>
<time>2024-05-09T09:51:14Z</time>
</trkpt>
<trkpt lat="49.55316161736846" lon="9.345334963873029">
<ele>413.6</ele>
<time>2024-05-09T09:51:15Z</time>
</trkpt>
<trkpt lat="49.55319975502789" lon="9.345397911965849">
<ele>413.6</ele>
<time>2024-05-09T09:51:16Z</time>
</trkpt>
<trkpt lat="49.55324166454375" lon="9.345461782068014">
<ele>413.6</ele>
<time>2024-05-09T09:51:17Z</time>
</trkpt>
<trkpt lat="49.55327980220318" lon="9.345526657998562">
<ele>413.6</ele>
<time>2024-05-09T09:51:18Z</time>
</trkpt>
<trkpt lat="49.55332179553807" lon="9.34559153392911">
<ele>413.6</ele>
<time>2024-05-09T09:51:19Z</time>
</trkpt>
<trkpt lat="49.5533599331975" lon="9.345656326040626">
<ele>413.6</ele>
<time>2024-05-09T09:51:20Z</time>
</trkpt>
<trkpt lat="49.55340192653239" lon="9.345723129808905">
<ele>413.4</ele>
<time>2024-05-09T09:51:21Z</time>
</trkpt>
<trkpt lat="49.55344006419182" lon="9.345781300216911">
<ele>413.4</ele>
<time>2024-05-09T09:51:22Z</time>
</trkpt>
<trkpt lat="49.55347820185125" lon="9.345841398462651">
<ele>413.2</ele>
<time>2024-05-09T09:51:23Z</time>
</trkpt>
<trkpt lat="49.55351256765425" lon="9.345898563042285">
<ele>413.2</ele>
<time>2024-05-09T09:51:24Z</time>
</trkpt>
<trkpt lat="49.55355070531368" lon="9.345958661288025">
<ele>413</ele>
<time>2024-05-09T09:51:25Z</time>
</trkpt>
<trkpt lat="49.55358884297311" lon="9.34602160938084">
<ele>413</ele>
<time>2024-05-09T09:51:26Z</time>
</trkpt>
<trkpt lat="49.553626980632544" lon="9.34608363546431">
<ele>412.8</ele>
<time>2024-05-09T09:51:27Z</time>
</trkpt>
<trkpt lat="49.55367274582386" lon="9.346148427575828">
<ele>412.8</ele>
<time>2024-05-09T09:51:28Z</time>
</trkpt>
<trkpt lat="49.55371473915875" lon="9.346216153353453">
<ele>412.6</ele>
<time>2024-05-09T09:51:29Z</time>
</trkpt>
<trkpt lat="49.55375664867461" lon="9.346289578825235">
<ele>412.6</ele>
<time>2024-05-09T09:51:30Z</time>
</trkpt>
<trkpt lat="49.5537986420095" lon="9.346364932134748">
<ele>412.6</ele>
<time>2024-05-09T09:51:31Z</time>
</trkpt>
<trkpt lat="49.55384440720081" lon="9.34644028544426">
<ele>412.6</ele>
<time>2024-05-09T09:51:32Z</time>
</trkpt>
<trkpt lat="49.55389017239213" lon="9.346513710916042">
<ele>412.6</ele>
<time>2024-05-09T09:51:33Z</time>
</trkpt>
<trkpt lat="49.553939793258905" lon="9.346588058397174">
<ele>412.6</ele>
<time>2024-05-09T09:51:34Z</time>
</trkpt>
<trkpt lat="49.55398170277476" lon="9.346661567687988">
<ele>412.4</ele>
<time>2024-05-09T09:51:35Z</time>
</trkpt>
<trkpt lat="49.55402755178511" lon="9.346733065322042">
<ele>412.2</ele>
<time>2024-05-09T09:51:36Z</time>
</trkpt>
<trkpt lat="49.55407331697643" lon="9.346801713109016">
<ele>412</ele>
<time>2024-05-09T09:51:37Z</time>
</trkpt>
<trkpt lat="49.554115226492286" lon="9.346870360895991">
<ele>411.8</ele>
<time>2024-05-09T09:51:38Z</time>
</trkpt>
<trkpt lat="49.554157219827175" lon="9.346936158835888">
<ele>411.8</ele>
<time>2024-05-09T09:51:39Z</time>
</trkpt>
<trkpt lat="49.554199213162065" lon="9.347004890441896">
<ele>411.4</ele>
<time>2024-05-09T09:51:40Z</time>
</trkpt>
<trkpt lat="49.554237350821495" lon="9.347074460238218">
<ele>411.2</ele>
<time>2024-05-09T09:51:41Z</time>
</trkpt>
<trkpt lat="49.55427926033735" lon="9.347143108025191">
<ele>411</ele>
<time>2024-05-09T09:51:42Z</time>
</trkpt>
<trkpt lat="49.55432125367224" lon="9.34720798395574">
<ele>410.8</ele>
<time>2024-05-09T09:51:43Z</time>
</trkpt>
<trkpt lat="49.55435939133167" lon="9.347271854057908">
<ele>410.6</ele>
<time>2024-05-09T09:51:44Z</time>
</trkpt>
<trkpt lat="49.55439375713467" lon="9.347334802150726">
<ele>410.4</ele>
<time>2024-05-09T09:51:45Z</time>
</trkpt>
<trkpt lat="49.55443189479411" lon="9.347394900396466">
<ele>410.2</ele>
<time>2024-05-09T09:51:46Z</time>
</trkpt>
<trkpt lat="49.55447003245354" lon="9.347456926479936">
<ele>410</ele>
<time>2024-05-09T09:51:47Z</time>
</trkpt>
<trkpt lat="49.55450817011297" lon="9.347516940906644">
<ele>409.8</ele>
<time>2024-05-09T09:51:48Z</time>
</trkpt>
<trkpt lat="49.55454253591597" lon="9.347578044980764">
<ele>409.6</ele>
<time>2024-05-09T09:51:49Z</time>
</trkpt>
<trkpt lat="49.5545806735754" lon="9.347639987245202">
<ele>409.4</ele>
<time>2024-05-09T09:51:50Z</time>
</trkpt>
<trkpt lat="49.55461495555937" lon="9.347700085490942">
<ele>409.2</ele>
<time>2024-05-09T09:51:51Z</time>
</trkpt>
<trkpt lat="49.5546530932188" lon="9.34776202775538">
<ele>409</ele>
<time>2024-05-09T09:51:52Z</time>
</trkpt>
<trkpt lat="49.554691314697266" lon="9.3478231318295">
<ele>408.8</ele>
<time>2024-05-09T09:51:53Z</time>
</trkpt>
<trkpt lat="49.55472559668124" lon="9.347887923941016">
<ele>408.6</ele>
<time>2024-05-09T09:51:54Z</time>
</trkpt>
<trkpt lat="49.55476373434067" lon="9.347953721880913">
<ele>408.4</ele>
<time>2024-05-09T09:51:55Z</time>
</trkpt>
<trkpt lat="49.5548018720001" lon="9.348014825955032">
<ele>408.2</ele>
<time>2024-05-09T09:51:56Z</time>
</trkpt>
<trkpt lat="49.55484000965953" lon="9.348076768219473">
<ele>408</ele>
<time>2024-05-09T09:51:57Z</time>
</trkpt>
<trkpt lat="49.55487437546253" lon="9.34813879430294">
<ele>407.8</ele>
<time>2024-05-09T09:51:58Z</time>
</trkpt>
<trkpt lat="49.554908741265535" lon="9.34819981455803">
<ele>407.6</ele>
<time>2024-05-09T09:51:59Z</time>
</trkpt>
<trkpt lat="49.55494302324951" lon="9.348263684660196">
<ele>407.4</ele>
<time>2024-05-09T09:52:00Z</time>
</trkpt>
<trkpt lat="49.55497738905251" lon="9.348323782905936">
<ele>407.2</ele>
<time>2024-05-09T09:52:01Z</time>
</trkpt>
<trkpt lat="49.55501167103648" lon="9.348382875323296">
<ele>407</ele>
<time>2024-05-09T09:52:02Z</time>
</trkpt>
<trkpt lat="49.55504226498306" lon="9.348442051559688">
<ele>406.8</ele>
<time>2024-05-09T09:52:03Z</time>
</trkpt>
<trkpt lat="49.55507654696703" lon="9.348496366292238">
<ele>406.8</ele>
<time>2024-05-09T09:52:04Z</time>
</trkpt>
<trkpt lat="49.55511468462646" lon="9.34855168685317">
<ele>406.6</ele>
<time>2024-05-09T09:52:05Z</time>
</trkpt>
<trkpt lat="49.555145194754" lon="9.348608013242483">
<ele>406.6</ele>
<time>2024-05-09T09:52:06Z</time>
</trkpt>
<trkpt lat="49.55517956055701" lon="9.34867188334465">
<ele>406.4</ele>
<time>2024-05-09T09:52:07Z</time>
</trkpt>
<trkpt lat="49.55521007068455" lon="9.348734831437469">
<ele>406.4</ele>
<time>2024-05-09T09:52:08Z</time>
</trkpt>
<trkpt lat="49.555244436487556" lon="9.348796773701906">
<ele>406.4</ele>
<time>2024-05-09T09:52:09Z</time>
</trkpt>
<trkpt lat="49.5552749466151" lon="9.348861649632454">
<ele>406.2</ele>
<time>2024-05-09T09:52:10Z</time>
</trkpt>
<trkpt lat="49.55531308427453" lon="9.348926525563002">
<ele>406.2</ele>
<time>2024-05-09T09:52:11Z</time>
</trkpt>
<trkpt lat="49.5553473662585" lon="9.348990395665169">
<ele>406</ele>
<time>2024-05-09T09:52:12Z</time>
</trkpt>
<trkpt lat="49.555381732061505" lon="9.349053343757989">
<ele>405.8</ele>
<time>2024-05-09T09:52:13Z</time>
</trkpt>
<trkpt lat="49.555419869720936" lon="9.349115369841456">
<ele>405.8</ele>
<time>2024-05-09T09:52:14Z</time>
</trkpt>
<trkpt lat="49.555458007380366" lon="9.349173540249469">
<ele>405.6</ele>
<time>2024-05-09T09:52:15Z</time>
</trkpt>
<trkpt lat="49.55549237318337" lon="9.349233554676175">
<ele>405.4</ele>
<time>2024-05-09T09:52:16Z</time>
</trkpt>
<trkpt lat="49.55552665516734" lon="9.349294658750296">
<ele>405.4</ele>
<time>2024-05-09T09:52:17Z</time>
</trkpt>
<trkpt lat="49.555561020970345" lon="9.349356601014732">
<ele>405.4</ele>
<time>2024-05-09T09:52:18Z</time>
</trkpt>
<trkpt lat="49.555599158629775" lon="9.349419549107552">
<ele>405.2</ele>
<time>2024-05-09T09:52:19Z</time>
</trkpt>
<trkpt lat="49.55563352443278" lon="9.349479647353292">
<ele>405.2</ele>
<time>2024-05-09T09:52:20Z</time>
</trkpt>
<trkpt lat="49.55567166209221" lon="9.34954158961773">
<ele>405.2</ele>
<time>2024-05-09T09:52:21Z</time>
</trkpt>
<trkpt lat="49.55570594407618" lon="9.3496036157012">
<ele>405.2</ele>
<time>2024-05-09T09:52:22Z</time>
</trkpt>
<trkpt lat="49.555740309879184" lon="9.349664635956287">
<ele>405.2</ele>
<time>2024-05-09T09:52:23Z</time>
</trkpt>
<trkpt lat="49.555778447538614" lon="9.349723812192678">
<ele>405</ele>
<time>2024-05-09T09:52:24Z</time>
</trkpt>
<trkpt lat="49.55581281334162" lon="9.349781982600687">
<ele>405</ele>
<time>2024-05-09T09:52:25Z</time>
</trkpt>
<trkpt lat="49.55584709532559" lon="9.3498401530087">
<ele>404.8</ele>
<time>2024-05-09T09:52:26Z</time>
</trkpt>
<trkpt lat="49.55588146112859" lon="9.34989832341671">
<ele>404.8</ele>
<time>2024-05-09T09:52:27Z</time>
</trkpt>
<trkpt lat="49.55591197125614" lon="9.34995649382472">
<ele>404.6</ele>
<time>2024-05-09T09:52:28Z</time>
</trkpt>
<trkpt lat="49.55595010891557" lon="9.35001365840435">
<ele>404.6</ele>
<time>2024-05-09T09:52:29Z</time>
</trkpt>
<trkpt lat="49.55598061904311" lon="9.35007283464074">
<ele>404.4</ele>
<time>2024-05-09T09:52:30Z</time>
</trkpt>
<trkpt lat="49.556014984846115" lon="9.35013293288648">
<ele>404.4</ele>
<time>2024-05-09T09:52:31Z</time>
</trkpt>
<trkpt lat="49.55604549497366" lon="9.350198730826378">
<ele>404.4</ele>
<time>2024-05-09T09:52:32Z</time>
</trkpt>
<trkpt lat="49.5560760051012" lon="9.350264528766274">
<ele>404.2</ele>
<time>2024-05-09T09:52:33Z</time>
</trkpt>
<trkpt lat="49.55610274337232" lon="9.350337954238055">
<ele>404.2</ele>
<time>2024-05-09T09:52:34Z</time>
</trkpt>
<trkpt lat="49.55612562596798" lon="9.350416157394648">
<ele>404.4</ele>
<time>2024-05-09T09:52:35Z</time>
</trkpt>
<trkpt lat="49.55614850856364" lon="9.350500060245396">
<ele>404.4</ele>
<time>2024-05-09T09:52:36Z</time>
</trkpt>
<trkpt lat="49.55616753548384" lon="9.350583041086791">
<ele>404.4</ele>
<time>2024-05-09T09:52:37Z</time>
</trkpt>
<trkpt lat="49.55618664622307" lon="9.35066694393754">
<ele>404.4</ele>
<time>2024-05-09T09:52:38Z</time>
</trkpt>
<trkpt lat="49.55620567314327" lon="9.350747996941209">
<ele>404.4</ele>
<time>2024-05-09T09:52:39Z</time>
</trkpt>
<trkpt lat="49.5562247838825" lon="9.350831983610988">
<ele>404.2</ele>
<time>2024-05-09T09:52:40Z</time>
</trkpt>
<trkpt lat="49.55624003894627" lon="9.350918736308811">
<ele>404.2</ele>
<time>2024-05-09T09:52:41Z</time>
</trkpt>
<trkpt lat="49.55625529401004" lon="9.35100364498794">
<ele>404.2</ele>
<time>2024-05-09T09:52:42Z</time>
</trkpt>
<trkpt lat="49.556274404749274" lon="9.351088469848037">
<ele>404.2</ele>
<time>2024-05-09T09:52:43Z</time>
</trkpt>
<trkpt lat="49.55628965981305" lon="9.351173378527164">
<ele>404.2</ele>
<time>2024-05-09T09:52:44Z</time>
</trkpt>
<trkpt lat="49.55630491487682" lon="9.351256359368564">
<ele>404.2</ele>
<time>2024-05-09T09:52:45Z</time>
</trkpt>
<trkpt lat="49.55632016994059" lon="9.35134026221931">
<ele>404</ele>
<time>2024-05-09T09:52:46Z</time>
</trkpt>
<trkpt lat="49.55633919686079" lon="9.35142131522298">
<ele>403.8</ele>
<time>2024-05-09T09:52:47Z</time>
</trkpt>
<trkpt lat="49.55635830760002" lon="9.351505218073726">
<ele>403.8</ele>
<time>2024-05-09T09:52:48Z</time>
</trkpt>
<trkpt lat="49.556373562663794" lon="9.351588198915124">
<ele>403.6</ele>
<time>2024-05-09T09:52:49Z</time>
</trkpt>
<trkpt lat="49.55639258958399" lon="9.351671179756522">
<ele>403.4</ele>
<time>2024-05-09T09:52:50Z</time>
</trkpt>
<trkpt lat="49.5564079284668" lon="9.351751310750842">
<ele>403.4</ele>
<time>2024-05-09T09:52:51Z</time>
</trkpt>
<trkpt lat="49.55642695538699" lon="9.351829513907433">
<ele>403.2</ele>
<time>2024-05-09T09:52:52Z</time>
</trkpt>
<trkpt lat="49.55644221045077" lon="9.351906711235642">
<ele>403.2</ele>
<time>2024-05-09T09:52:53Z</time>
</trkpt>
<trkpt lat="49.55646132119" lon="9.351984914392231">
<ele>403.2</ele>
<time>2024-05-09T09:52:54Z</time>
</trkpt>
<trkpt lat="49.55647657625377" lon="9.352063117548823">
<ele>403.2</ele>
<time>2024-05-09T09:52:55Z</time>
</trkpt>
<trkpt lat="49.556491831317544" lon="9.352141320705414">
<ele>403</ele>
<time>2024-05-09T09:52:56Z</time>
</trkpt>
<trkpt lat="49.55651085823774" lon="9.352219523862004">
<ele>403</ele>
<time>2024-05-09T09:52:57Z</time>
</trkpt>
<trkpt lat="49.55652611330152" lon="9.352296805009246">
<ele>403</ele>
<time>2024-05-09T09:52:58Z</time>
</trkpt>
<trkpt lat="49.55654136836529" lon="9.352373080328109">
<ele>403</ele>
<time>2024-05-09T09:52:59Z</time>
</trkpt>
<trkpt lat="49.55656047910452" lon="9.352450361475348">
<ele>403</ele>
<time>2024-05-09T09:53:00Z</time>
</trkpt>
<trkpt lat="49.55657573416829" lon="9.352523786947131">
<ele>403</ele>
<time>2024-05-09T09:53:01Z</time>
</trkpt>
<trkpt lat="49.55659098923206" lon="9.352596206590531">
<ele>403</ele>
<time>2024-05-09T09:53:02Z</time>
</trkpt>
<trkpt lat="49.556606244295835" lon="9.352669715881348">
<ele>403</ele>
<time>2024-05-09T09:53:03Z</time>
</trkpt>
<trkpt lat="49.55662149935961" lon="9.35274020768702">
<ele>403</ele>
<time>2024-05-09T09:53:04Z</time>
</trkpt>
<trkpt lat="49.55663675442338" lon="9.352811789140103">
<ele>403</ele>
<time>2024-05-09T09:53:05Z</time>
</trkpt>
<trkpt lat="49.55665586516261" lon="9.35288043692708">
<ele>403</ele>
<time>2024-05-09T09:53:06Z</time>
</trkpt>
<trkpt lat="49.55667112022638" lon="9.352951934561132">
<ele>403</ele>
<time>2024-05-09T09:53:07Z</time>
</trkpt>
<trkpt lat="49.556686375290155" lon="9.353025360032916">
<ele>402.8</ele>
<time>2024-05-09T09:53:08Z</time>
</trkpt>
<trkpt lat="49.55670163035393" lon="9.353096941486">
<ele>402.8</ele>
<time>2024-05-09T09:53:09Z</time>
</trkpt>
<trkpt lat="49.5567168854177" lon="9.353168439120054">
<ele>402.8</ele>
<time>2024-05-09T09:53:10Z</time>
</trkpt>
<trkpt lat="49.55673214048147" lon="9.353239936754107">
<ele>402.8</ele>
<time>2024-05-09T09:53:11Z</time>
</trkpt>
<trkpt lat="49.55674739554525" lon="9.353313446044922">
<ele>402.6</ele>
<time>2024-05-09T09:53:12Z</time>
</trkpt>
<trkpt lat="49.556762650609016" lon="9.353388715535402">
<ele>402.6</ele>
<time>2024-05-09T09:53:13Z</time>
</trkpt>
<trkpt lat="49.55678176134825" lon="9.353461218997836">
<ele>402.6</ele>
<time>2024-05-09T09:53:14Z</time>
</trkpt>
<trkpt lat="49.55679316073656" lon="9.353536572307348">
<ele>402.6</ele>
<time>2024-05-09T09:53:15Z</time>
</trkpt>
<trkpt lat="49.55681227147579" lon="9.35361192561686">
<ele>402.6</ele>
<time>2024-05-09T09:53:16Z</time>
</trkpt>
<trkpt lat="49.55682752653957" lon="9.353686273097992">
<ele>402.6</ele>
<time>2024-05-09T09:53:17Z</time>
</trkpt>
<trkpt lat="49.55684655345976" lon="9.353759698569776">
<ele>402.4</ele>
<time>2024-05-09T09:53:18Z</time>
</trkpt>
<trkpt lat="49.556861808523536" lon="9.35383128002286">
<ele>402.4</ele>
<time>2024-05-09T09:53:19Z</time>
</trkpt>
<trkpt lat="49.55687329173088" lon="9.353901855647564">
<ele>402.2</ele>
<time>2024-05-09T09:53:20Z</time>
</trkpt>
<trkpt lat="49.55689231865108" lon="9.353971425443888">
<ele>402</ele>
<time>2024-05-09T09:53:21Z</time>
</trkpt>
<trkpt lat="49.55690757371485" lon="9.354042001068592">
<ele>402</ele>
<time>2024-05-09T09:53:22Z</time>
</trkpt>
<trkpt lat="49.556922912597656" lon="9.354111654683948">
<ele>401.8</ele>
<time>2024-05-09T09:53:23Z</time>
</trkpt>
<trkpt lat="49.55693431198597" lon="9.354181224480271">
<ele>401.8</ele>
<time>2024-05-09T09:53:24Z</time>
</trkpt>
<trkpt lat="49.55694956704974" lon="9.354253727942703">
<ele>401.8</ele>
<time>2024-05-09T09:53:25Z</time>
</trkpt>
<trkpt lat="49.556964822113514" lon="9.35432338155806">
<ele>401.8</ele>
<time>2024-05-09T09:53:26Z</time>
</trkpt>
<trkpt lat="49.556980077177286" lon="9.354394879192114">
<ele>401.8</ele>
<time>2024-05-09T09:53:27Z</time>
</trkpt>
<trkpt lat="49.55699156038463" lon="9.354466376826169">
<ele>401.6</ele>
<time>2024-05-09T09:53:28Z</time>
</trkpt>
<trkpt lat="49.5570068154484" lon="9.354536952450871">
<ele>401.6</ele>
<time>2024-05-09T09:53:29Z</time>
</trkpt>
<trkpt lat="49.55701821483672" lon="9.354604678228498">
<ele>401.6</ele>
<time>2024-05-09T09:53:30Z</time>
</trkpt>
<trkpt lat="49.55703346990049" lon="9.354669554159043">
<ele>401.6</ele>
<time>2024-05-09T09:53:31Z</time>
</trkpt>
<trkpt lat="49.55704872496426" lon="9.35473627410829">
<ele>401.6</ele>
<time>2024-05-09T09:53:32Z</time>
</trkpt>
<trkpt lat="49.55706783570349" lon="9.354803077876568">
<ele>401.4</ele>
<time>2024-05-09T09:53:33Z</time>
</trkpt>
<trkpt lat="49.557083090767264" lon="9.354867869988084">
<ele>401.4</ele>
<time>2024-05-09T09:53:34Z</time>
</trkpt>
<trkpt lat="49.55709834583104" lon="9.35493651777506">
<ele>401.4</ele>
<time>2024-05-09T09:53:35Z</time>
</trkpt>
<trkpt lat="49.557121228426695" lon="9.355003321543336">
<ele>401.4</ele>
<time>2024-05-09T09:53:36Z</time>
</trkpt>
<trkpt lat="49.557140339165926" lon="9.35507196933031">
<ele>401.4</ele>
<time>2024-05-09T09:53:37Z</time>
</trkpt>
<trkpt lat="49.557163221761584" lon="9.35513684526086">
<ele>401.2</ele>
<time>2024-05-09T09:53:38Z</time>
</trkpt>
<trkpt lat="49.557182248681784" lon="9.355201721191406">
<ele>401.2</ele>
<time>2024-05-09T09:53:39Z</time>
</trkpt>
<trkpt lat="49.5572089869529" lon="9.355264585465193">
<ele>401.2</ele>
<time>2024-05-09T09:53:40Z</time>
</trkpt>
<trkpt lat="49.557235641404986" lon="9.355326611548662">
<ele>401.2</ele>
<time>2024-05-09T09:53:41Z</time>
</trkpt>
<trkpt lat="49.557258524000645" lon="9.355386709794402">
<ele>401.2</ele>
<time>2024-05-09T09:53:42Z</time>
</trkpt>
<trkpt lat="49.55728526227176" lon="9.355446808040142">
<ele>401.2</ele>
<time>2024-05-09T09:53:43Z</time>
</trkpt>
<trkpt lat="49.55731200054288" lon="9.355504978448153">
<ele>401.2</ele>
<time>2024-05-09T09:53:44Z</time>
</trkpt>
<trkpt lat="49.557338654994965" lon="9.355563148856165">
<ele>401.2</ele>
<time>2024-05-09T09:53:45Z</time>
</trkpt>
<trkpt lat="49.55736539326608" lon="9.355621319264174">
<ele>401.2</ele>
<time>2024-05-09T09:53:46Z</time>
</trkpt>
<trkpt lat="49.55739204771817" lon="9.355680411681533">
<ele>401.2</ele>
<time>2024-05-09T09:53:47Z</time>
</trkpt>
<trkpt lat="49.557418785989285" lon="9.355739587917924">
<ele>401.2</ele>
<time>2024-05-09T09:53:48Z</time>
</trkpt>
<trkpt lat="49.5574455242604" lon="9.355798680335283">
<ele>401.2</ele>
<time>2024-05-09T09:53:49Z</time>
</trkpt>
<trkpt lat="49.55747217871249" lon="9.355854922905564">
<ele>401.2</ele>
<time>2024-05-09T09:53:50Z</time>
</trkpt>
<trkpt lat="49.557495061308146" lon="9.355915021151304">
<ele>401.4</ele>
<time>2024-05-09T09:53:51Z</time>
</trkpt>
<trkpt lat="49.55752179957926" lon="9.355975119397044">
<ele>401.4</ele>
<time>2024-05-09T09:53:52Z</time>
</trkpt>
<trkpt lat="49.55754082649946" lon="9.356035217642784">
<ele>401.6</ele>
<time>2024-05-09T09:53:53Z</time>
</trkpt>
<trkpt lat="49.55756370909512" lon="9.356096237897871">
<ele>401.6</ele>
<time>2024-05-09T09:53:54Z</time>
</trkpt>
<trkpt lat="49.55758659169078" lon="9.35616010800004">
<ele>401.6</ele>
<time>2024-05-09T09:53:55Z</time>
</trkpt>
<trkpt lat="49.55760570243001" lon="9.356223056092858">
<ele>401.6</ele>
<time>2024-05-09T09:53:56Z</time>
</trkpt>
<trkpt lat="49.55762858502567" lon="9.356286926195024">
<ele>401.6</ele>
<time>2024-05-09T09:53:57Z</time>
</trkpt>
<trkpt lat="49.557651467621326" lon="9.356351802125571">
<ele>401.4</ele>
<time>2024-05-09T09:53:58Z</time>
</trkpt>
<trkpt lat="49.55767057836056" lon="9.3564195279032">
<ele>401.4</ele>
<time>2024-05-09T09:53:59Z</time>
</trkpt>
<trkpt lat="49.55768960528076" lon="9.356486247852445">
<ele>401.4</ele>
<time>2024-05-09T09:54:00Z</time>
</trkpt>
<trkpt lat="49.55770871601999" lon="9.35655204579234">
<ele>401.4</ele>
<time>2024-05-09T09:54:01Z</time>
</trkpt>
<trkpt lat="49.557731598615646" lon="9.35661792755127">
<ele>401.2</ele>
<time>2024-05-09T09:54:02Z</time>
</trkpt>
<trkpt lat="49.557754481211305" lon="9.356684647500517">
<ele>401.2</ele>
<time>2024-05-09T09:54:03Z</time>
</trkpt>
<trkpt lat="49.55777736380696" lon="9.356748517602682">
<ele>401.2</ele>
<time>2024-05-09T09:54:04Z</time>
</trkpt>
<trkpt lat="49.55780024640262" lon="9.3568114656955">
<ele>401.2</ele>
<time>2024-05-09T09:54:05Z</time>
</trkpt>
<trkpt lat="49.55782312899828" lon="9.356876341626048">
<ele>401.2</ele>
<time>2024-05-09T09:54:06Z</time>
</trkpt>
<trkpt lat="49.5578498672694" lon="9.356941217556596">
<ele>401.2</ele>
<time>2024-05-09T09:54:07Z</time>
</trkpt>
<trkpt lat="49.55787652172148" lon="9.35700793750584">
<ele>401</ele>
<time>2024-05-09T09:54:08Z</time>
</trkpt>
<trkpt lat="49.5579032599926" lon="9.357073735445738">
<ele>401</ele>
<time>2024-05-09T09:54:09Z</time>
</trkpt>
<trkpt lat="49.557933770120144" lon="9.357139533385634">
<ele>401</ele>
<time>2024-05-09T09:54:10Z</time>
</trkpt>
<trkpt lat="49.55796428024769" lon="9.357206337153912">
<ele>401</ele>
<time>2024-05-09T09:54:11Z</time>
</trkpt>
<trkpt lat="49.55799479037523" lon="9.357271129265428">
<ele>400.8</ele>
<time>2024-05-09T09:54:12Z</time>
</trkpt>
<trkpt lat="49.55802152864635" lon="9.357337933033705">
<ele>400.8</ele>
<time>2024-05-09T09:54:13Z</time>
</trkpt>
<trkpt lat="49.558052038773894" lon="9.35740465298295">
<ele>400.6</ele>
<time>2024-05-09T09:54:14Z</time>
</trkpt>
<trkpt lat="49.55808254890144" lon="9.357471456751227">
<ele>400.4</ele>
<time>2024-05-09T09:54:15Z</time>
</trkpt>
<trkpt lat="49.55810920335352" lon="9.357535326853396">
<ele>400.2</ele>
<time>2024-05-09T09:54:16Z</time>
</trkpt>
<trkpt lat="49.5581397973001" lon="9.357598274946213">
<ele>400</ele>
<time>2024-05-09T09:54:17Z</time>
</trkpt>
<trkpt lat="49.558166451752186" lon="9.35766315087676">
<ele>399.8</ele>
<time>2024-05-09T09:54:18Z</time>
</trkpt>
<trkpt lat="49.55819696187973" lon="9.357725093141198">
<ele>399.8</ele>
<time>2024-05-09T09:54:19Z</time>
</trkpt>
<trkpt lat="49.558227472007275" lon="9.357791896909475">
<ele>399.8</ele>
<time>2024-05-09T09:54:20Z</time>
</trkpt>
<trkpt lat="49.55825421027839" lon="9.357854761183262">
<ele>399.8</ele>
<time>2024-05-09T09:54:21Z</time>
</trkpt>
<trkpt lat="49.55828086473048" lon="9.357916787266731">
<ele>399.6</ele>
<time>2024-05-09T09:54:22Z</time>
</trkpt>
<trkpt lat="49.55830383114517" lon="9.357973029837012">
<ele>399.6</ele>
<time>2024-05-09T09:54:23Z</time>
</trkpt>
<trkpt lat="49.55831908620894" lon="9.358030278235674">
<ele>399.6</ele>
<time>2024-05-09T09:54:24Z</time>
</trkpt>
<trkpt lat="49.55833811312914" lon="9.358081743121147">
<ele>399.6</ele>
<time>2024-05-09T09:54:25Z</time>
</trkpt>
<trkpt lat="49.55835722386837" lon="9.358128514140844">
<ele>399.6</ele>
<time>2024-05-09T09:54:26Z</time>
</trkpt>
<trkpt lat="49.55838010646403" lon="9.358169501647351">
<ele>399.6</ele>
<time>2024-05-09T09:54:27Z</time>
</trkpt>
<trkpt lat="49.558406760916114" lon="9.358202861621976">
<ele>399.6</ele>
<time>2024-05-09T09:54:28Z</time>
</trkpt>
<trkpt lat="49.55843349918723" lon="9.35823337174952">
<ele>399.6</ele>
<time>2024-05-09T09:54:29Z</time>
</trkpt>
<trkpt lat="49.55846015363932" lon="9.358264887705444">
<ele>399.6</ele>
<time>2024-05-09T09:54:30Z</time>
</trkpt>
<trkpt lat="49.55848312005401" lon="9.35829346999526">
<ele>399.6</ele>
<time>2024-05-09T09:54:31Z</time>
</trkpt>
<trkpt lat="49.558506002649665" lon="9.358323058113456">
<ele>399.4</ele>
<time>2024-05-09T09:54:32Z</time>
</trkpt>
<trkpt lat="49.55852888524532" lon="9.358353568241">
<ele>399.4</ele>
<time>2024-05-09T09:54:33Z</time>
</trkpt>
<trkpt lat="49.55855176784098" lon="9.358383156359196">
<ele>399.2</ele>
<time>2024-05-09T09:54:34Z</time>
</trkpt>
<trkpt lat="49.55857465043664" lon="9.358414588496087">
<ele>399.2</ele>
<time>2024-05-09T09:54:35Z</time>
</trkpt>
<trkpt lat="49.5585975330323" lon="9.358447948470712">
<ele>399.2</ele>
<time>2024-05-09T09:54:36Z</time>
</trkpt>
<trkpt lat="49.55862041562795" lon="9.358481392264366">
<ele>399.2</ele>
<time>2024-05-09T09:54:37Z</time>
</trkpt>
<trkpt lat="49.558647153899074" lon="9.358514752238989">
<ele>399.2</ele>
<time>2024-05-09T09:54:38Z</time>
</trkpt>
<trkpt lat="49.55867380835116" lon="9.358548112213612">
<ele>399.2</ele>
<time>2024-05-09T09:54:39Z</time>
</trkpt>
<trkpt lat="49.5587043184787" lon="9.358583400025964">
<ele>399.4</ele>
<time>2024-05-09T09:54:40Z</time>
</trkpt>
<trkpt lat="49.55873482860625" lon="9.358616760000588">
<ele>399.4</ele>
<time>2024-05-09T09:54:41Z</time>
</trkpt>
<trkpt lat="49.558761566877365" lon="9.358648275956511">
<ele>399.6</ele>
<time>2024-05-09T09:54:42Z</time>
</trkpt>
<trkpt lat="49.55879207700491" lon="9.358679708093405">
<ele>399.6</ele>
<time>2024-05-09T09:54:43Z</time>
</trkpt>
<trkpt lat="49.558822587132454" lon="9.35871122404933">
<ele>399.6</ele>
<time>2024-05-09T09:54:44Z</time>
</trkpt>
<trkpt lat="49.55885309726" lon="9.358743662014604">
<ele>399.8</ele>
<time>2024-05-09T09:54:45Z</time>
</trkpt>
<trkpt lat="49.55888360738754" lon="9.358777021989226">
<ele>399.8</ele>
<time>2024-05-09T09:54:46Z</time>
</trkpt>
<trkpt lat="49.55891411751509" lon="9.358810381963847">
<ele>399.8</ele>
<time>2024-05-09T09:54:47Z</time>
</trkpt>
<trkpt lat="49.55894462764263" lon="9.358842819929125">
<ele>399.8</ele>
<time>2024-05-09T09:54:48Z</time>
</trkpt>
<trkpt lat="49.558975137770176" lon="9.358873330056667">
<ele>399.8</ele>
<time>2024-05-09T09:54:49Z</time>
</trkpt>
<trkpt lat="49.55900573171675" lon="9.358902918174865">
<ele>400</ele>
<time>2024-05-09T09:54:50Z</time>
</trkpt>
<trkpt lat="49.55904001370072" lon="9.358935356140137">
<ele>400</ele>
<time>2024-05-09T09:54:51Z</time>
</trkpt>
<trkpt lat="49.55907052382827" lon="9.3589648604393">
<ele>400</ele>
<time>2024-05-09T09:54:52Z</time>
</trkpt>
<trkpt lat="49.55910103395581" lon="9.358993526548147">
<ele>400</ele>
<time>2024-05-09T09:54:53Z</time>
</trkpt>
<trkpt lat="49.55913154408336" lon="9.359020181000233">
<ele>400</ele>
<time>2024-05-09T09:54:54Z</time>
</trkpt>
<trkpt lat="49.55916213802993" lon="9.3590478412807">
<ele>400</ele>
<time>2024-05-09T09:54:55Z</time>
</trkpt>
<trkpt lat="49.559196420013905" lon="9.359078351408243">
<ele>400</ele>
<time>2024-05-09T09:54:56Z</time>
</trkpt>
<trkpt lat="49.55922693014145" lon="9.359103161841633">
<ele>400.2</ele>
<time>2024-05-09T09:54:57Z</time>
</trkpt>
<trkpt lat="49.55925744026899" lon="9.359129900112748">
<ele>400.2</ele>
<time>2024-05-09T09:54:58Z</time>
</trkpt>
<trkpt lat="49.559291806072" lon="9.359151776880026">
<ele>400.4</ele>
<time>2024-05-09T09:54:59Z</time>
</trkpt>
<trkpt lat="49.559326171875" lon="9.359173737466335">
<ele>400.4</ele>
<time>2024-05-09T09:55:00Z</time>
</trkpt>
<trkpt lat="49.55936045385897" lon="9.359193770214915">
<ele>400.6</ele>
<time>2024-05-09T09:55:01Z</time>
</trkpt>
<trkpt lat="49.559394819661975" lon="9.359212797135116">
<ele>400.6</ele>
<time>2024-05-09T09:55:02Z</time>
</trkpt>
<trkpt lat="49.559432957321405" lon="9.359229980036616">
<ele>400.8</ele>
<time>2024-05-09T09:55:03Z</time>
</trkpt>
<trkpt lat="49.55946723930538" lon="9.359248084947469">
<ele>400.8</ele>
<time>2024-05-09T09:55:04Z</time>
</trkpt>
<trkpt lat="49.55950546078384" lon="9.359265267848969">
<ele>400.8</ele>
<time>2024-05-09T09:55:05Z</time>
</trkpt>
<trkpt lat="49.55953974276781" lon="9.35928337275982">
<ele>401</ele>
<time>2024-05-09T09:55:06Z</time>
</trkpt>
<trkpt lat="49.55957788042724" lon="9.359299633651972">
<ele>401</ele>
<time>2024-05-09T09:55:07Z</time>
</trkpt>
<trkpt lat="49.55961601808667" lon="9.359318660572171">
<ele>401</ele>
<time>2024-05-09T09:55:08Z</time>
</trkpt>
<trkpt lat="49.5596541557461" lon="9.359336849302052">
<ele>401</ele>
<time>2024-05-09T09:55:09Z</time>
</trkpt>
<trkpt lat="49.559692377224565" lon="9.359353026375176">
<ele>401.2</ele>
<time>2024-05-09T09:55:10Z</time>
</trkpt>
<trkpt lat="49.559730514883995" lon="9.359370209276676">
<ele>401.2</ele>
<time>2024-05-09T09:55:11Z</time>
</trkpt>
<trkpt lat="49.55976479686797" lon="9.359384458512068">
<ele>401.4</ele>
<time>2024-05-09T09:55:12Z</time>
</trkpt>
<trkpt lat="49.559806790202856" lon="9.35940164141357">
<ele>401.4</ele>
<time>2024-05-09T09:55:13Z</time>
</trkpt>
<trkpt lat="49.55984115600586" lon="9.359416896477342">
<ele>401.6</ele>
<time>2024-05-09T09:55:14Z</time>
</trkpt>
<trkpt lat="49.55987929366529" lon="9.359433157369494">
<ele>401.8</ele>
<time>2024-05-09T09:55:15Z</time>
</trkpt>
<trkpt lat="49.55991743132472" lon="9.359450340270996">
<ele>401.8</ele>
<time>2024-05-09T09:55:16Z</time>
</trkpt>
<trkpt lat="49.55995171330869" lon="9.359466517344115">
<ele>402</ele>
<time>2024-05-09T09:55:17Z</time>
</trkpt>
<trkpt lat="49.55998985096812" lon="9.35948370024562">
<ele>402</ele>
<time>2024-05-09T09:55:18Z</time>
</trkpt>
<trkpt lat="49.560024216771126" lon="9.359497027471662">
<ele>402.2</ele>
<time>2024-05-09T09:55:19Z</time>
</trkpt>
<trkpt lat="49.56006235443056" lon="9.359510354697704">
<ele>402.2</ele>
<time>2024-05-09T09:55:20Z</time>
</trkpt>
<trkpt lat="49.56009672023356" lon="9.35952376574278">
<ele>402.4</ele>
<time>2024-05-09T09:55:21Z</time>
</trkpt>
<trkpt lat="49.56013100221753" lon="9.359535165131092">
<ele>402.6</ele>
<time>2024-05-09T09:55:22Z</time>
</trkpt>
<trkpt lat="49.560165368020535" lon="9.359544720500708">
<ele>402.6</ele>
<time>2024-05-09T09:55:23Z</time>
</trkpt>
<trkpt lat="49.56019973382354" lon="9.35955611988902">
<ele>402.8</ele>
<time>2024-05-09T09:55:24Z</time>
</trkpt>
<trkpt lat="49.56023401580751" lon="9.359566681087015">
<ele>403</ele>
<time>2024-05-09T09:55:25Z</time>
</trkpt>
<trkpt lat="49.560264525935054" lon="9.35958000831306">
<ele>403</ele>
<time>2024-05-09T09:55:26Z</time>
</trkpt>
<trkpt lat="49.5602950360626" lon="9.359591407701371">
<ele>403</ele>
<time>2024-05-09T09:55:27Z</time>
</trkpt>
<trkpt lat="49.5603294018656" lon="9.359595263376832">
<ele>403.2</ele>
<time>2024-05-09T09:55:28Z</time>
</trkpt>
<trkpt lat="49.560363767668605" lon="9.35959811322391">
<ele>403.2</ele>
<time>2024-05-09T09:55:29Z</time>
</trkpt>
<trkpt lat="49.56039427779615" lon="9.35959811322391">
<ele>403.2</ele>
<time>2024-05-09T09:55:30Z</time>
</trkpt>
<trkpt lat="49.560424787923694" lon="9.359595263376832">
<ele>403.2</ele>
<time>2024-05-09T09:55:31Z</time>
</trkpt>
<trkpt lat="49.560459069907665" lon="9.359602890908718">
<ele>403.4</ele>
<time>2024-05-09T09:55:32Z</time>
</trkpt>
<trkpt lat="49.56049343571067" lon="9.359608590602877">
<ele>403.4</ele>
<time>2024-05-09T09:55:33Z</time>
</trkpt>
<trkpt lat="49.56052780151367" lon="9.359615296125412">
<ele>403.6</ele>
<time>2024-05-09T09:55:34Z</time>
</trkpt>
<trkpt lat="49.56056208349764" lon="9.35962200164795">
<ele>403.8</ele>
<time>2024-05-09T09:55:35Z</time>
</trkpt>
<trkpt lat="49.56059644930065" lon="9.359626695513724">
<ele>403.8</ele>
<time>2024-05-09T09:55:36Z</time>
</trkpt>
<trkpt lat="49.56062695942819" lon="9.35962200164795">
<ele>404</ele>
<time>2024-05-09T09:55:37Z</time>
</trkpt>
<trkpt lat="49.56066124141216" lon="9.359606662765144">
<ele>404.2</ele>
<time>2024-05-09T09:55:38Z</time>
</trkpt>
<trkpt lat="49.560695607215166" lon="9.359588557854297">
<ele>404.4</ele>
<time>2024-05-09T09:55:39Z</time>
</trkpt>
<trkpt lat="49.56072997301817" lon="9.359569530934095">
<ele>404.6</ele>
<time>2024-05-09T09:55:40Z</time>
</trkpt>
<trkpt lat="49.5607681106776" lon="9.359550420194864">
<ele>404.8</ele>
<time>2024-05-09T09:55:41Z</time>
</trkpt>
<trkpt lat="49.560798620805144" lon="9.359531393274665">
<ele>405</ele>
<time>2024-05-09T09:55:42Z</time>
</trkpt>
<trkpt lat="49.56082913093269" lon="9.35951798222959">
<ele>405.2</ele>
<time>2024-05-09T09:55:43Z</time>
</trkpt>
<trkpt lat="49.56085964106023" lon="9.359504655003548">
<ele>405.4</ele>
<time>2024-05-09T09:55:44Z</time>
</trkpt>
<trkpt lat="49.56089015118778" lon="9.359491327777503">
<ele>405.4</ele>
<time>2024-05-09T09:55:45Z</time>
</trkpt>
<trkpt lat="49.56092451699078" lon="9.35947791673243">
<ele>405.6</ele>
<time>2024-05-09T09:55:46Z</time>
</trkpt>
<trkpt lat="49.560955027118325" lon="9.359464589506388">
<ele>405.6</ele>
<time>2024-05-09T09:55:47Z</time>
</trkpt>
<trkpt lat="49.5609893091023" lon="9.359453190118074">
<ele>405.6</ele>
<time>2024-05-09T09:55:48Z</time>
</trkpt>
<trkpt lat="49.5610236749053" lon="9.35944363474846">
<ele>405.6</ele>
<time>2024-05-09T09:55:49Z</time>
</trkpt>
<trkpt lat="49.5610580407083" lon="9.359431229531763">
<ele>405.6</ele>
<time>2024-05-09T09:55:50Z</time>
</trkpt>
<trkpt lat="49.56108855083585" lon="9.359417902305722">
<ele>405.6</ele>
<time>2024-05-09T09:55:51Z</time>
</trkpt>
<trkpt lat="49.56112283281982" lon="9.359406419098375">
<ele>405.6</ele>
<time>2024-05-09T09:55:52Z</time>
</trkpt>
<trkpt lat="49.56116097047925" lon="9.359395019710064">
<ele>405.6</ele>
<time>2024-05-09T09:55:53Z</time>
</trkpt>
<trkpt lat="49.56119533628225" lon="9.359384458512068">
<ele>405.6</ele>
<time>2024-05-09T09:55:54Z</time>
</trkpt>
<trkpt lat="49.56123347394168" lon="9.359374986961484">
<ele>405.8</ele>
<time>2024-05-09T09:55:55Z</time>
</trkpt>
<trkpt lat="49.56126783974469" lon="9.359365431591868">
<ele>405.8</ele>
<time>2024-05-09T09:55:56Z</time>
</trkpt>
<trkpt lat="49.56130597740412" lon="9.359354954212904">
<ele>405.8</ele>
<time>2024-05-09T09:55:57Z</time>
</trkpt>
<trkpt lat="49.56134025938809" lon="9.359352104365826">
<ele>405.8</ele>
<time>2024-05-09T09:55:58Z</time>
</trkpt>
<trkpt lat="49.56137462519109" lon="9.359354954212904">
<ele>405.8</ele>
<time>2024-05-09T09:55:59Z</time>
</trkpt>
<trkpt lat="49.561408990994096" lon="9.359358726069331">
<ele>406</ele>
<time>2024-05-09T09:56:00Z</time>
</trkpt>
<trkpt lat="49.56144327297807" lon="9.35936157591641">
<ele>406</ele>
<time>2024-05-09T09:56:01Z</time>
</trkpt>
<trkpt lat="49.56147763878107" lon="9.359366353601215">
<ele>406.2</ele>
<time>2024-05-09T09:56:02Z</time>
</trkpt>
<trkpt lat="49.56151192076504" lon="9.359371131286023">
<ele>406.2</ele>
<time>2024-05-09T09:56:03Z</time>
</trkpt>
<trkpt lat="49.561546286568046" lon="9.359378758817911">
<ele>406.4</ele>
<time>2024-05-09T09:56:04Z</time>
</trkpt>
<trkpt lat="49.56157679669559" lon="9.359388314187528">
<ele>406.6</ele>
<time>2024-05-09T09:56:05Z</time>
</trkpt>
<trkpt lat="49.56161116249859" lon="9.35940164141357">
<ele>406.8</ele>
<time>2024-05-09T09:56:06Z</time>
</trkpt>
<trkpt lat="49.56164167262614" lon="9.359415052458644">
<ele>407</ele>
<time>2024-05-09T09:56:07Z</time>
</trkpt>
<trkpt lat="49.56167595461011" lon="9.359430307522416">
<ele>407.2</ele>
<time>2024-05-09T09:56:08Z</time>
</trkpt>
<trkpt lat="49.561706464737654" lon="9.359448412433268">
<ele>407.4</ele>
<time>2024-05-09T09:56:09Z</time>
</trkpt>
<trkpt lat="49.56174083054066" lon="9.359466517344115">
<ele>407.4</ele>
<time>2024-05-09T09:56:10Z</time>
</trkpt>
<trkpt lat="49.5617713406682" lon="9.359486550092695">
<ele>407.6</ele>
<time>2024-05-09T09:56:11Z</time>
</trkpt>
<trkpt lat="49.561801850795746" lon="9.359506582841275">
<ele>407.6</ele>
<time>2024-05-09T09:56:12Z</time>
</trkpt>
<trkpt lat="49.56183621659875" lon="9.359530387446284">
<ele>407.8</ele>
<time>2024-05-09T09:56:13Z</time>
</trkpt>
<trkpt lat="49.561866726726294" lon="9.359555197879672">
<ele>408</ele>
<time>2024-05-09T09:56:14Z</time>
</trkpt>
<trkpt lat="49.5619010925293" lon="9.35957808047533">
<ele>408</ele>
<time>2024-05-09T09:56:15Z</time>
</trkpt>
<trkpt lat="49.56193160265684" lon="9.35959618538618">
<ele>408.2</ele>
<time>2024-05-09T09:56:16Z</time>
</trkpt>
<trkpt lat="49.56196588464081" lon="9.359606662765144">
<ele>408.4</ele>
<time>2024-05-09T09:56:17Z</time>
</trkpt>
<trkpt lat="49.56199639476836" lon="9.359602890908718">
<ele>408.4</ele>
<time>2024-05-09T09:56:18Z</time>
</trkpt>
<trkpt lat="49.562023133039474" lon="9.359589563682675">
<ele>408.6</ele>
<time>2024-05-09T09:56:19Z</time>
</trkpt>
<trkpt lat="49.56204978749156" lon="9.359564753249288">
<ele>408.6</ele>
<time>2024-05-09T09:56:20Z</time>
</trkpt>
<trkpt lat="49.56207652576268" lon="9.35953801497817">
<ele>408.6</ele>
<time>2024-05-09T09:56:21Z</time>
</trkpt>
<trkpt lat="49.562103264033794" lon="9.359510354697704">
<ele>408.8</ele>
<time>2024-05-09T09:56:22Z</time>
</trkpt>
<trkpt lat="49.56212991848588" lon="9.359488477930428">
<ele>408.8</ele>
<time>2024-05-09T09:56:23Z</time>
</trkpt>
<trkpt lat="49.562156656757" lon="9.35947791673243">
<ele>409</ele>
<time>2024-05-09T09:56:24Z</time>
</trkpt>
<trkpt lat="49.562179539352655" lon="9.35948177240789">
<ele>409</ele>
<time>2024-05-09T09:56:25Z</time>
</trkpt>
<trkpt lat="49.562198566272855" lon="9.359497027471662">
<ele>409.2</ele>
<time>2024-05-09T09:56:26Z</time>
</trkpt>
<trkpt lat="49.562217677012086" lon="9.35951798222959">
<ele>409.4</ele>
<time>2024-05-09T09:56:27Z</time>
</trkpt>
<trkpt lat="49.562236703932285" lon="9.359544720500708">
<ele>409.4</ele>
<time>2024-05-09T09:56:28Z</time>
</trkpt>
<trkpt lat="49.56224818713963" lon="9.359573302790524">
<ele>409.6</ele>
<time>2024-05-09T09:56:29Z</time>
</trkpt>
<trkpt lat="49.56225581467152" lon="9.359606662765144">
<ele>409.6</ele>
<time>2024-05-09T09:56:30Z</time>
</trkpt>
<trkpt lat="49.56224818713963" lon="9.35963817872107">
<ele>409.6</ele>
<time>2024-05-09T09:56:31Z</time>
</trkpt>
<trkpt lat="49.562236703932285" lon="9.359664916992188">
<ele>409.8</ele>
<time>2024-05-09T09:56:32Z</time>
</trkpt>
<trkpt lat="49.56222530454397" lon="9.359689643606544">
<ele>409.8</ele>
<time>2024-05-09T09:56:33Z</time>
</trkpt>
<trkpt lat="49.562217677012086" lon="9.35971830971539">
<ele>409.8</ele>
<time>2024-05-09T09:56:34Z</time>
</trkpt>
<trkpt lat="49.56221382133663" lon="9.359746892005203">
<ele>409.8</ele>
<time>2024-05-09T09:56:35Z</time>
</trkpt>
<trkpt lat="49.5622100494802" lon="9.359774552285671">
<ele>409.8</ele>
<time>2024-05-09T09:56:36Z</time>
</trkpt>
<trkpt lat="49.56221382133663" lon="9.359805062413216">
<ele>409.8</ele>
<time>2024-05-09T09:56:37Z</time>
</trkpt>
<trkpt lat="49.562217677012086" lon="9.35983657836914">
<ele>409.8</ele>
<time>2024-05-09T09:56:38Z</time>
</trkpt>
<trkpt lat="49.56222144886851" lon="9.35987178236246">
<ele>409.8</ele>
<time>2024-05-09T09:56:39Z</time>
</trkpt>
<trkpt lat="49.56222530454397" lon="9.359907070174811">
<ele>409.8</ele>
<time>2024-05-09T09:56:40Z</time>
</trkpt>
<trkpt lat="49.562236703932285" lon="9.359941435977817">
<ele>409.8</ele>
<time>2024-05-09T09:56:41Z</time>
</trkpt>
<trkpt lat="49.56224818713963" lon="9.359976723790169">
<ele>409.8</ele>
<time>2024-05-09T09:56:42Z</time>
</trkpt>
<trkpt lat="49.5622634422034" lon="9.36001201160252">
<ele>409.8</ele>
<time>2024-05-09T09:56:43Z</time>
</trkpt>
<trkpt lat="49.562282552942634" lon="9.360048221424222">
<ele>409.8</ele>
<time>2024-05-09T09:56:44Z</time>
</trkpt>
<trkpt lat="49.562297808006406" lon="9.360086359083652">
<ele>409.8</ele>
<time>2024-05-09T09:56:45Z</time>
</trkpt>
<trkpt lat="49.562316834926605" lon="9.360126424580812">
<ele>409.6</ele>
<time>2024-05-09T09:56:46Z</time>
</trkpt>
<trkpt lat="49.56233971752226" lon="9.360164562240245">
<ele>409.6</ele>
<time>2024-05-09T09:56:47Z</time>
</trkpt>
<trkpt lat="49.56236260011792" lon="9.360206555575132">
<ele>409.6</ele>
<time>2024-05-09T09:56:48Z</time>
</trkpt>
<trkpt lat="49.56238548271358" lon="9.360248548910022">
<ele>409.6</ele>
<time>2024-05-09T09:56:49Z</time>
</trkpt>
<trkpt lat="49.56240836530924" lon="9.36028953641653">
<ele>409.6</ele>
<time>2024-05-09T09:56:50Z</time>
</trkpt>
<trkpt lat="49.562438959255815" lon="9.360326752066612">
<ele>409.6</ele>
<time>2024-05-09T09:56:51Z</time>
</trkpt>
<trkpt lat="49.56246946938336" lon="9.360360112041237">
<ele>409.4</ele>
<time>2024-05-09T09:56:52Z</time>
</trkpt>
<trkpt lat="49.56250375136733" lon="9.36038970015943">
<ele>409.4</ele>
<time>2024-05-09T09:56:53Z</time>
</trkpt>
<trkpt lat="49.562538117170334" lon="9.360418282449244">
<ele>409.4</ele>
<time>2024-05-09T09:56:54Z</time>
</trkpt>
<trkpt lat="49.562572399154305" lon="9.360443092882631">
<ele>409.4</ele>
<time>2024-05-09T09:56:55Z</time>
</trkpt>
<trkpt lat="49.56260676495731" lon="9.360463125631211">
<ele>409.6</ele>
<time>2024-05-09T09:56:56Z</time>
</trkpt>
<trkpt lat="49.56264113076031" lon="9.360485002398493">
<ele>409.6</ele>
<time>2024-05-09T09:56:57Z</time>
</trkpt>
<trkpt lat="49.56267541274429" lon="9.360501263290644">
<ele>409.6</ele>
<time>2024-05-09T09:56:58Z</time>
</trkpt>
<trkpt lat="49.562713550403714" lon="9.360521296039224">
<ele>409.6</ele>
<time>2024-05-09T09:56:59Z</time>
</trkpt>
<trkpt lat="49.562751688063145" lon="9.360538478940724">
<ele>409.4</ele>
<time>2024-05-09T09:57:00Z</time>
</trkpt>
<trkpt lat="49.56278605386615" lon="9.360554656013846">
<ele>409.4</ele>
<time>2024-05-09T09:57:01Z</time>
</trkpt>
<trkpt lat="49.56282419152558" lon="9.36056798323989">
<ele>409.4</ele>
<time>2024-05-09T09:57:02Z</time>
</trkpt>
<trkpt lat="49.56286618486047" lon="9.360580388456585">
<ele>409.2</ele>
<time>2024-05-09T09:57:03Z</time>
</trkpt>
<trkpt lat="49.5629043225199" lon="9.360591871663928">
<ele>409.2</ele>
<time>2024-05-09T09:57:04Z</time>
</trkpt>
<trkpt lat="49.56294246017933" lon="9.360601343214512">
<ele>409.2</ele>
<time>2024-05-09T09:57:05Z</time>
</trkpt>
<trkpt lat="49.56297682598233" lon="9.36060997657478">
<ele>409.2</ele>
<time>2024-05-09T09:57:06Z</time>
</trkpt>
<trkpt lat="49.56301496364176" lon="9.360608048737047">
<ele>409</ele>
<time>2024-05-09T09:57:07Z</time>
</trkpt>
<trkpt lat="49.56305310130119" lon="9.360599499195814">
<ele>409</ele>
<time>2024-05-09T09:57:08Z</time>
</trkpt>
<trkpt lat="49.563087383285165" lon="9.36058323830366">
<ele>409</ele>
<time>2024-05-09T09:57:09Z</time>
</trkpt>
<trkpt lat="49.56312174908817" lon="9.360561361536384">
<ele>409</ele>
<time>2024-05-09T09:57:10Z</time>
</trkpt>
<trkpt lat="49.56315225921571" lon="9.360538478940724">
<ele>409</ele>
<time>2024-05-09T09:57:11Z</time>
</trkpt>
<trkpt lat="49.56318276934326" lon="9.360516518354416">
<ele>409</ele>
<time>2024-05-09T09:57:12Z</time>
</trkpt>
<trkpt lat="49.5632132794708" lon="9.36048693023622">
<ele>409</ele>
<time>2024-05-09T09:57:13Z</time>
</trkpt>
<trkpt lat="49.56324001774192" lon="9.36044971458614">
<ele>409</ele>
<time>2024-05-09T09:57:14Z</time>
</trkpt>
<trkpt lat="49.563266672194" lon="9.360413504764438">
<ele>409</ele>
<time>2024-05-09T09:57:15Z</time>
</trkpt>
<trkpt lat="49.56329726614058" lon="9.360384922474625">
<ele>409</ele>
<time>2024-05-09T09:57:16Z</time>
</trkpt>
<trkpt lat="49.56333154812455" lon="9.360364889726045">
<ele>409</ele>
<time>2024-05-09T09:57:17Z</time>
</trkpt>
<trkpt lat="49.563365913927555" lon="9.360360112041237">
<ele>408.8</ele>
<time>2024-05-09T09:57:18Z</time>
</trkpt>
<trkpt lat="49.56340019591153" lon="9.360366817563772">
<ele>408.8</ele>
<time>2024-05-09T09:57:19Z</time>
</trkpt>
<trkpt lat="49.56343456171453" lon="9.360382994636891">
<ele>408.8</ele>
<time>2024-05-09T09:57:20Z</time>
</trkpt>
<trkpt lat="49.56346892751753" lon="9.360403027385471">
<ele>408.6</ele>
<time>2024-05-09T09:57:21Z</time>
</trkpt>
<trkpt lat="49.563503209501505" lon="9.360422054305673">
<ele>408.6</ele>
<time>2024-05-09T09:57:22Z</time>
</trkpt>
<trkpt lat="49.56353757530451" lon="9.360441165044904">
<ele>408.6</ele>
<time>2024-05-09T09:57:23Z</time>
</trkpt>
<trkpt lat="49.56357571296394" lon="9.36046790331602">
<ele>408.6</ele>
<time>2024-05-09T09:57:24Z</time>
</trkpt>
<trkpt lat="49.56360999494791" lon="9.360503191128371">
<ele>408.6</ele>
<time>2024-05-09T09:57:25Z</time>
</trkpt>
<trkpt lat="49.56364821642637" lon="9.3605431728065">
<ele>408.6</ele>
<time>2024-05-09T09:57:26Z</time>
</trkpt>
<trkpt lat="49.5636863540858" lon="9.36058709397912">
<ele>408.6</ele>
<time>2024-05-09T09:57:27Z</time>
</trkpt>
<trkpt lat="49.56371686421335" lon="9.360621375963092">
<ele>408.4</ele>
<time>2024-05-09T09:57:28Z</time>
</trkpt>
<trkpt lat="49.56375500187278" lon="9.360678624361752">
<ele>408.4</ele>
<time>2024-05-09T09:57:29Z</time>
</trkpt>
<trkpt lat="49.56378551200032" lon="9.360739644616842">
<ele>408.4</ele>
<time>2024-05-09T09:57:30Z</time>
</trkpt>
<trkpt lat="49.56381602212787" lon="9.36080452054739">
<ele>408.4</ele>
<time>2024-05-09T09:57:31Z</time>
</trkpt>
<trkpt lat="49.56384653225541" lon="9.360877946019173">
<ele>408.4</ele>
<time>2024-05-09T09:57:32Z</time>
</trkpt>
<trkpt lat="49.56386941485107" lon="9.360956149175763">
<ele>408.4</ele>
<time>2024-05-09T09:57:33Z</time>
</trkpt>
<trkpt lat="49.56389229744673" lon="9.361038208007813">
<ele>408.2</ele>
<time>2024-05-09T09:57:34Z</time>
</trkpt>
<trkpt lat="49.56391140818596" lon="9.361124960705638">
<ele>408.2</ele>
<time>2024-05-09T09:57:35Z</time>
</trkpt>
<trkpt lat="49.56392666324973" lon="9.361209869384766">
<ele>408</ele>
<time>2024-05-09T09:57:36Z</time>
</trkpt>
<trkpt lat="49.56394569016993" lon="9.361294694244862">
<ele>408</ele>
<time>2024-05-09T09:57:37Z</time>
</trkpt>
<trkpt lat="49.563961029052734" lon="9.361374825239182">
<ele>407.8</ele>
<time>2024-05-09T09:57:38Z</time>
</trkpt>
<trkpt lat="49.563980055972934" lon="9.3614549562335">
<ele>407.8</ele>
<time>2024-05-09T09:57:39Z</time>
</trkpt>
<trkpt lat="49.56400293856859" lon="9.361531231552362">
<ele>407.8</ele>
<time>2024-05-09T09:57:40Z</time>
</trkpt>
<trkpt lat="49.56402967683971" lon="9.361603735014796">
<ele>407.6</ele>
<time>2024-05-09T09:57:41Z</time>
</trkpt>
<trkpt lat="49.564056331291795" lon="9.36167330481112">
<ele>407.6</ele>
<time>2024-05-09T09:57:42Z</time>
</trkpt>
<trkpt lat="49.5640906970948" lon="9.36173340305686">
<ele>407.4</ele>
<time>2024-05-09T09:57:43Z</time>
</trkpt>
<trkpt lat="49.56412883475423" lon="9.361783023923635">
<ele>407.2</ele>
<time>2024-05-09T09:57:44Z</time>
</trkpt>
<trkpt lat="49.564174599945545" lon="9.361824933439491">
<ele>407.2</ele>
<time>2024-05-09T09:57:45Z</time>
</trkpt>
<trkpt lat="49.564216593280435" lon="9.361863071098924">
<ele>407</ele>
<time>2024-05-09T09:57:46Z</time>
</trkpt>
<trkpt lat="49.56426235847175" lon="9.361894587054849">
<ele>406.8</ele>
<time>2024-05-09T09:57:47Z</time>
</trkpt>
<trkpt lat="49.56430812366307" lon="9.361925097182391">
<ele>406.8</ele>
<time>2024-05-09T09:57:48Z</time>
</trkpt>
<trkpt lat="49.56435774452984" lon="9.36194990761578">
<ele>406.6</ele>
<time>2024-05-09T09:57:49Z</time>
</trkpt>
<trkpt lat="49.56440350972116" lon="9.36196994036436">
<ele>406.6</ele>
<time>2024-05-09T09:57:50Z</time>
</trkpt>
<trkpt lat="49.56444927491248" lon="9.361983267590404">
<ele>406.6</ele>
<time>2024-05-09T09:57:51Z</time>
</trkpt>
<trkpt lat="49.56449889577925" lon="9.361996594816446">
<ele>406.4</ele>
<time>2024-05-09T09:57:52Z</time>
</trkpt>
<trkpt lat="49.56454466097057" lon="9.362014699727297">
<ele>406.4</ele>
<time>2024-05-09T09:57:53Z</time>
</trkpt>
<trkpt lat="49.564586570486426" lon="9.36203288845718">
<ele>406.4</ele>
<time>2024-05-09T09:57:54Z</time>
</trkpt>
<trkpt lat="49.56463233567774" lon="9.362049987539647">
<ele>406.4</ele>
<time>2024-05-09T09:57:55Z</time>
</trkpt>
<trkpt lat="49.56467432901263" lon="9.362068176269531">
<ele>406.4</ele>
<time>2024-05-09T09:57:56Z</time>
</trkpt>
<trkpt lat="49.56471632234752" lon="9.362083431333303">
<ele>406.2</ele>
<time>2024-05-09T09:57:57Z</time>
</trkpt>
<trkpt lat="49.56475823186338" lon="9.36208812519908">
<ele>406.2</ele>
<time>2024-05-09T09:57:58Z</time>
</trkpt>
<trkpt lat="49.56479636952281" lon="9.362099608406425">
<ele>406.2</ele>
<time>2024-05-09T09:57:59Z</time>
</trkpt>
<trkpt lat="49.5648383628577" lon="9.362112013623118">
<ele>406.2</ele>
<time>2024-05-09T09:58:00Z</time>
</trkpt>
<trkpt lat="49.56487650051713" lon="9.362123413011432">
<ele>406.2</ele>
<time>2024-05-09T09:58:01Z</time>
</trkpt>
<trkpt lat="49.56491849385202" lon="9.362134896218777">
<ele>406</ele>
<time>2024-05-09T09:58:02Z</time>
</trkpt>
<trkpt lat="49.56496040336788" lon="9.36214537359774">
<ele>406</ele>
<time>2024-05-09T09:58:03Z</time>
</trkpt>
<trkpt lat="49.565002396702766" lon="9.362156856805086">
<ele>406.2</ele>
<time>2024-05-09T09:58:04Z</time>
</trkpt>
<trkpt lat="49.5650405343622" lon="9.3621682561934">
<ele>406.2</ele>
<time>2024-05-09T09:58:05Z</time>
</trkpt>
<trkpt lat="49.56507867202163" lon="9.362181583419442">
<ele>406.2</ele>
<time>2024-05-09T09:58:06Z</time>
</trkpt>
<trkpt lat="49.56512066535652" lon="9.362192144617438">
<ele>406.2</ele>
<time>2024-05-09T09:58:07Z</time>
</trkpt>
<trkpt lat="49.56515880301595" lon="9.362204549834132">
<ele>406.2</ele>
<time>2024-05-09T09:58:08Z</time>
</trkpt>
<trkpt lat="49.56519694067538" lon="9.362215027213097">
<ele>406.2</ele>
<time>2024-05-09T09:58:09Z</time>
</trkpt>
<trkpt lat="49.56523507833481" lon="9.36222449876368">
<ele>406.2</ele>
<time>2024-05-09T09:58:10Z</time>
</trkpt>
<trkpt lat="49.56527321599424" lon="9.362233132123947">
<ele>406.2</ele>
<time>2024-05-09T09:58:11Z</time>
</trkpt>
<trkpt lat="49.56531135365367" lon="9.36224453151226">
<ele>406.2</ele>
<time>2024-05-09T09:58:12Z</time>
</trkpt>
<trkpt lat="49.56534957513213" lon="9.362256936728954">
<ele>406.2</ele>
<time>2024-05-09T09:58:13Z</time>
</trkpt>
<trkpt lat="49.56539148464799" lon="9.36226649209857">
<ele>406.2</ele>
<time>2024-05-09T09:58:14Z</time>
</trkpt>
<trkpt lat="49.56542962230742" lon="9.362276969477534">
<ele>406.2</ele>
<time>2024-05-09T09:58:15Z</time>
</trkpt>
<trkpt lat="49.56546775996685" lon="9.36228845268488">
<ele>406.2</ele>
<time>2024-05-09T09:58:16Z</time>
</trkpt>
<trkpt lat="49.56550598144531" lon="9.362299852073193">
<ele>406.2</ele>
<time>2024-05-09T09:58:17Z</time>
</trkpt>
<trkpt lat="49.56554411910474" lon="9.362310329452155">
<ele>406.2</ele>
<time>2024-05-09T09:58:18Z</time>
</trkpt>
<trkpt lat="49.56558225676417" lon="9.362319884821773">
<ele>406.2</ele>
<time>2024-05-09T09:58:19Z</time>
</trkpt>
<trkpt lat="49.5656203944236" lon="9.36232659034431">
<ele>406.2</ele>
<time>2024-05-09T09:58:20Z</time>
</trkpt>
<trkpt lat="49.56566230393946" lon="9.362339917570353">
<ele>406.4</ele>
<time>2024-05-09T09:58:21Z</time>
</trkpt>
<trkpt lat="49.56570429727435" lon="9.362351400777698">
<ele>406.6</ele>
<time>2024-05-09T09:58:22Z</time>
</trkpt>
<trkpt lat="49.56574243493378" lon="9.36236665584147">
<ele>406.6</ele>
<time>2024-05-09T09:58:23Z</time>
</trkpt>
<trkpt lat="49.56578057259321" lon="9.362379983067513">
<ele>406.8</ele>
<time>2024-05-09T09:58:24Z</time>
</trkpt>
<trkpt lat="49.56581871025264" lon="9.362389538437128">
<ele>407</ele>
<time>2024-05-09T09:58:25Z</time>
</trkpt>
<trkpt lat="49.565856931731105" lon="9.362401943653822">
<ele>407.2</ele>
<time>2024-05-09T09:58:26Z</time>
</trkpt>
<trkpt lat="49.565895069390535" lon="9.362413343042135">
<ele>407.4</ele>
<time>2024-05-09T09:58:27Z</time>
</trkpt>
<trkpt lat="49.565933207049966" lon="9.36242289841175">
<ele>407.6</ele>
<time>2024-05-09T09:58:28Z</time>
</trkpt>
<trkpt lat="49.565975116565824" lon="9.362433375790715">
<ele>407.8</ele>
<time>2024-05-09T09:58:29Z</time>
</trkpt>
<trkpt lat="49.56601710990071" lon="9.36244485899806">
<ele>408</ele>
<time>2024-05-09T09:58:30Z</time>
</trkpt>
<trkpt lat="49.56605524756014" lon="9.362455336377025">
<ele>408.2</ele>
<time>2024-05-09T09:58:31Z</time>
</trkpt>
<trkpt lat="49.56609724089503" lon="9.362468663603067">
<ele>408.4</ele>
<time>2024-05-09T09:58:32Z</time>
</trkpt>
<trkpt lat="49.56613915041089" lon="9.36248199082911">
<ele>408.6</ele>
<time>2024-05-09T09:58:33Z</time>
</trkpt>
<trkpt lat="49.56617728807032" lon="9.362493474036455">
<ele>408.6</ele>
<time>2024-05-09T09:58:34Z</time>
</trkpt>
<trkpt lat="49.56621550954878" lon="9.36250302940607">
<ele>408.8</ele>
<time>2024-05-09T09:58:35Z</time>
</trkpt>
<trkpt lat="49.566253647208214" lon="9.362511578947306">
<ele>408.8</ele>
<time>2024-05-09T09:58:36Z</time>
</trkpt>
<trkpt lat="49.56629555672407" lon="9.362524906173348">
<ele>408.8</ele>
<time>2024-05-09T09:58:37Z</time>
</trkpt>
<trkpt lat="49.5663336943835" lon="9.362535467371345">
<ele>408.8</ele>
<time>2024-05-09T09:58:38Z</time>
</trkpt>
<trkpt lat="49.56637191586197" lon="9.362546866759658">
<ele>409</ele>
<time>2024-05-09T09:58:39Z</time>
</trkpt>
<trkpt lat="49.566410053521395" lon="9.362558349967005">
<ele>409.2</ele>
<time>2024-05-09T09:58:40Z</time>
</trkpt>
<trkpt lat="49.566444335505366" lon="9.362567821517588">
<ele>409.2</ele>
<time>2024-05-09T09:58:41Z</time>
</trkpt>
<trkpt lat="49.5664824731648" lon="9.362578382715585">
<ele>409.4</ele>
<time>2024-05-09T09:58:42Z</time>
</trkpt>
<trkpt lat="49.5665168389678" lon="9.362587854266168">
<ele>409.6</ele>
<time>2024-05-09T09:58:43Z</time>
</trkpt>
<trkpt lat="49.56655497662723" lon="9.36260025948286">
<ele>409.8</ele>
<time>2024-05-09T09:58:44Z</time>
</trkpt>
<trkpt lat="49.56659311428666" lon="9.362609814852476">
<ele>410</ele>
<time>2024-05-09T09:58:45Z</time>
</trkpt>
<trkpt lat="49.56663125194609" lon="9.36262129805982">
<ele>410</ele>
<time>2024-05-09T09:58:46Z</time>
</trkpt>
<trkpt lat="49.56666938960552" lon="9.362634625285864">
<ele>410.2</ele>
<time>2024-05-09T09:58:47Z</time>
</trkpt>
<trkpt lat="49.566707611083984" lon="9.362647952511908">
<ele>410.2</ele>
<time>2024-05-09T09:58:48Z</time>
</trkpt>
<trkpt lat="49.56674189306795" lon="9.3626603577286">
<ele>410.2</ele>
<time>2024-05-09T09:58:49Z</time>
</trkpt>
<trkpt lat="49.56678003072739" lon="9.362673684954643">
<ele>410.4</ele>
<time>2024-05-09T09:58:50Z</time>
</trkpt>
<trkpt lat="49.56681816838682" lon="9.362688018009068">
<ele>410.4</ele>
<time>2024-05-09T09:58:51Z</time>
</trkpt>
<trkpt lat="49.566860161721706" lon="9.36270327307284">
<ele>410.6</ele>
<time>2024-05-09T09:58:52Z</time>
</trkpt>
<trkpt lat="49.56690215505659" lon="9.362718528136613">
<ele>410.6</ele>
<time>2024-05-09T09:58:53Z</time>
</trkpt>
<trkpt lat="49.56694406457245" lon="9.362732861191034">
<ele>410.8</ele>
<time>2024-05-09T09:58:54Z</time>
</trkpt>
<trkpt lat="49.56698605790734" lon="9.362746188417075">
<ele>410.8</ele>
<time>2024-05-09T09:58:55Z</time>
</trkpt>
<trkpt lat="49.56703182309866" lon="9.36275951564312">
<ele>411</ele>
<time>2024-05-09T09:58:56Z</time>
</trkpt>
<trkpt lat="49.567077588289976" lon="9.362771920859814">
<ele>411</ele>
<time>2024-05-09T09:58:57Z</time>
</trkpt>
<trkpt lat="49.56712335348129" lon="9.362785331904888">
<ele>411.2</ele>
<time>2024-05-09T09:58:58Z</time>
</trkpt>
<trkpt lat="49.56716534681618" lon="9.36280150897801">
<ele>411.2</ele>
<time>2024-05-09T09:58:59Z</time>
</trkpt>
<trkpt lat="49.56720725633204" lon="9.362814836204052">
<ele>411.2</ele>
<time>2024-05-09T09:59:00Z</time>
</trkpt>
<trkpt lat="49.5672454778105" lon="9.362825313583016">
<ele>411.4</ele>
<time>2024-05-09T09:59:01Z</time>
</trkpt>
<trkpt lat="49.567279759794474" lon="9.362832941114902">
<ele>411.4</ele>
<time>2024-05-09T09:59:02Z</time>
</trkpt>
<trkpt lat="49.56731412559748" lon="9.36283964663744">
<ele>411.4</ele>
<time>2024-05-09T09:59:03Z</time>
</trkpt>
<trkpt lat="49.56734463572502" lon="9.362848279997706">
<ele>411.2</ele>
<time>2024-05-09T09:59:04Z</time>
</trkpt>
<trkpt lat="49.56737891770899" lon="9.36285875737667">
<ele>411.2</ele>
<time>2024-05-09T09:59:05Z</time>
</trkpt>
<trkpt lat="49.567413283512" lon="9.362870156764984">
<ele>411.2</ele>
<time>2024-05-09T09:59:06Z</time>
</trkpt>
<trkpt lat="49.56744379363954" lon="9.3628797121346">
<ele>411</ele>
<time>2024-05-09T09:59:07Z</time>
</trkpt>
<trkpt lat="49.567474303767085" lon="9.362892117351294">
<ele>411.2</ele>
<time>2024-05-09T09:59:08Z</time>
</trkpt>
<trkpt lat="49.56750866957009" lon="9.36289974488318">
<ele>411</ele>
<time>2024-05-09T09:59:09Z</time>
</trkpt>
<trkpt lat="49.56754680722952" lon="9.362904522567987">
<ele>411</ele>
<time>2024-05-09T09:59:10Z</time>
</trkpt>
<trkpt lat="49.56758494488895" lon="9.362911144271491">
<ele>411</ele>
<time>2024-05-09T09:59:11Z</time>
</trkpt>
<trkpt lat="49.56761931069195" lon="9.36291977763176">
<ele>411</ele>
<time>2024-05-09T09:59:12Z</time>
</trkpt>
<trkpt lat="49.56765744835138" lon="9.362931177020071">
<ele>410.8</ele>
<time>2024-05-09T09:59:13Z</time>
</trkpt>
<trkpt lat="49.567695586010814" lon="9.362944588065147">
<ele>410.8</ele>
<time>2024-05-09T09:59:14Z</time>
</trkpt>
<trkpt lat="49.567729867994785" lon="9.36295791529119">
<ele>410.8</ele>
<time>2024-05-09T09:59:15Z</time>
</trkpt>
<trkpt lat="49.56776808947325" lon="9.362971242517231">
<ele>410.8</ele>
<time>2024-05-09T09:59:16Z</time>
</trkpt>
<trkpt lat="49.56780237145722" lon="9.362983647733929">
<ele>410.8</ele>
<time>2024-05-09T09:59:17Z</time>
</trkpt>
<trkpt lat="49.56783673726022" lon="9.36299697495997">
<ele>410.8</ele>
<time>2024-05-09T09:59:18Z</time>
</trkpt>
<trkpt lat="49.56787487491965" lon="9.363011308014393">
<ele>410.6</ele>
<time>2024-05-09T09:59:19Z</time>
</trkpt>
<trkpt lat="49.567909240722656" lon="9.363028490915896">
<ele>410.6</ele>
<time>2024-05-09T09:59:20Z</time>
</trkpt>
<trkpt lat="49.5679397508502" lon="9.363048523664474">
<ele>410.6</ele>
<time>2024-05-09T09:59:21Z</time>
</trkpt>
<trkpt lat="49.567970260977745" lon="9.363061850890515">
<ele>410.6</ele>
<time>2024-05-09T09:59:22Z</time>
</trkpt>
<trkpt lat="49.56800454296172" lon="9.36307517811656">
<ele>410.6</ele>
<time>2024-05-09T09:59:23Z</time>
</trkpt>
<trkpt lat="49.56803890876472" lon="9.363086661323903">
<ele>410.8</ele>
<time>2024-05-09T09:59:24Z</time>
</trkpt>
<trkpt lat="49.56807319074869" lon="9.36309814453125">
<ele>410.8</ele>
<time>2024-05-09T09:59:25Z</time>
</trkpt>
<trkpt lat="49.568111412227154" lon="9.363108621910214">
<ele>411</ele>
<time>2024-05-09T09:59:26Z</time>
</trkpt>
<trkpt lat="49.56815332174301" lon="9.363118093460798">
<ele>411.2</ele>
<time>2024-05-09T09:59:27Z</time>
</trkpt>
<trkpt lat="49.56819145940244" lon="9.363131504505873">
<ele>411.2</ele>
<time>2024-05-09T09:59:28Z</time>
</trkpt>
<trkpt lat="49.56822959706187" lon="9.363144831731915">
<ele>411.4</ele>
<time>2024-05-09T09:59:29Z</time>
</trkpt>
<trkpt lat="49.568267818540335" lon="9.36315631493926">
<ele>411.6</ele>
<time>2024-05-09T09:59:30Z</time>
</trkpt>
<trkpt lat="49.568305956199765" lon="9.363171570003033">
<ele>411.6</ele>
<time>2024-05-09T09:59:31Z</time>
</trkpt>
<trkpt lat="49.5683440938592" lon="9.363184897229075">
<ele>411.6</ele>
<time>2024-05-09T09:59:32Z</time>
</trkpt>
<trkpt lat="49.568382231518626" lon="9.363198224455118">
<ele>411.6</ele>
<time>2024-05-09T09:59:33Z</time>
</trkpt>
<trkpt lat="49.56842036917806" lon="9.36321155168116">
<ele>411.6</ele>
<time>2024-05-09T09:59:34Z</time>
</trkpt>
<trkpt lat="49.56845473498106" lon="9.363222112879155">
<ele>411.6</ele>
<time>2024-05-09T09:59:35Z</time>
</trkpt>
<trkpt lat="49.56848901696503" lon="9.36323351226747">
<ele>411.4</ele>
<time>2024-05-09T09:59:36Z</time>
</trkpt>
<trkpt lat="49.568523382768035" lon="9.363243067637086">
<ele>411.4</ele>
<time>2024-05-09T09:59:37Z</time>
</trkpt>
<trkpt lat="49.56855766475201" lon="9.363249773159623">
<ele>411.4</ele>
<time>2024-05-09T09:59:38Z</time>
</trkpt>
<trkpt lat="49.56859203055501" lon="9.363258322700858">
<ele>411.4</ele>
<time>2024-05-09T09:59:39Z</time>
</trkpt>
<trkpt lat="49.56863016821444" lon="9.363267878070474">
<ele>411.4</ele>
<time>2024-05-09T09:59:40Z</time>
</trkpt>
<trkpt lat="49.56866830587387" lon="9.363280283287168">
<ele>411.4</ele>
<time>2024-05-09T09:59:41Z</time>
</trkpt>
<trkpt lat="49.568702671676874" lon="9.36329453252256">
<ele>411.4</ele>
<time>2024-05-09T09:59:42Z</time>
</trkpt>
<trkpt lat="49.568736953660846" lon="9.363306937739251">
<ele>411.2</ele>
<time>2024-05-09T09:59:43Z</time>
</trkpt>
<trkpt lat="49.56877517513931" lon="9.363316493108869">
<ele>411.2</ele>
<time>2024-05-09T09:59:44Z</time>
</trkpt>
<trkpt lat="49.56880945712328" lon="9.363327976316214">
<ele>411</ele>
<time>2024-05-09T09:59:45Z</time>
</trkpt>
<trkpt lat="49.56884382292628" lon="9.363340297713876">
<ele>411</ele>
<time>2024-05-09T09:59:46Z</time>
</trkpt>
<trkpt lat="49.56888196058571" lon="9.36335178092122">
<ele>410.8</ele>
<time>2024-05-09T09:59:47Z</time>
</trkpt>
<trkpt lat="49.568920098245144" lon="9.363363264128566">
<ele>410.6</ele>
<time>2024-05-09T09:59:48Z</time>
</trkpt>
<trkpt lat="49.568958235904574" lon="9.36337466351688">
<ele>410.4</ele>
<time>2024-05-09T09:59:49Z</time>
</trkpt>
<trkpt lat="49.569000229239464" lon="9.363385140895844">
<ele>410.2</ele>
<time>2024-05-09T09:59:50Z</time>
</trkpt>
<trkpt lat="49.569038366898894" lon="9.36339377425611">
<ele>410.2</ele>
<time>2024-05-09T09:59:51Z</time>
</trkpt>
<trkpt lat="49.56908027641475" lon="9.363403245806694">
<ele>410</ele>
<time>2024-05-09T09:59:52Z</time>
</trkpt>
<trkpt lat="49.56912226974964" lon="9.36341472901404">
<ele>410</ele>
<time>2024-05-09T09:59:53Z</time>
</trkpt>
<trkpt lat="49.56916803494096" lon="9.363428056240082">
<ele>410</ele>
<time>2024-05-09T09:59:54Z</time>
</trkpt>
<trkpt lat="49.56921002827585" lon="9.363439539447429">
<ele>410</ele>
<time>2024-05-09T09:59:55Z</time>
</trkpt>
<trkpt lat="49.56925956532359" lon="9.3634547945112">
<ele>409.8</ele>
<time>2024-05-09T09:59:56Z</time>
</trkpt>
<trkpt lat="49.56930541433394" lon="9.363470049574971">
<ele>409.8</ele>
<time>2024-05-09T09:59:57Z</time>
</trkpt>
<trkpt lat="49.569351179525256" lon="9.363481448963284">
<ele>409.6</ele>
<time>2024-05-09T09:59:58Z</time>
</trkpt>
<trkpt lat="49.569393089041114" lon="9.363490082323551">
<ele>409.6</ele>
<time>2024-05-09T09:59:59Z</time>
</trkpt>
<trkpt lat="49.56943885423243" lon="9.363498631864786">
<ele>409.4</ele>
<time>2024-05-09T10:00:00Z</time>
</trkpt>
<trkpt lat="49.56948084756732" lon="9.363511959090827">
<ele>409.2</ele>
<time>2024-05-09T10:00:01Z</time>
</trkpt>
<trkpt lat="49.56952661275864" lon="9.363526292145252">
<ele>409.2</ele>
<time>2024-05-09T10:00:02Z</time>
</trkpt>
<trkpt lat="49.56956475041807" lon="9.363539619371297">
<ele>409</ele>
<time>2024-05-09T10:00:03Z</time>
</trkpt>
<trkpt lat="49.56960674375296" lon="9.363552024587989">
<ele>409</ele>
<time>2024-05-09T10:00:04Z</time>
</trkpt>
<trkpt lat="49.56965250894427" lon="9.363563507795334">
<ele>408.8</ele>
<time>2024-05-09T10:00:05Z</time>
</trkpt>
<trkpt lat="49.56969450227916" lon="9.363572057336569">
<ele>408.8</ele>
<time>2024-05-09T10:00:06Z</time>
</trkpt>
<trkpt lat="49.56973641179502" lon="9.363579684868457">
<ele>408.8</ele>
<time>2024-05-09T10:00:07Z</time>
</trkpt>
<trkpt lat="49.56977840512991" lon="9.363586390390992">
<ele>408.6</ele>
<time>2024-05-09T10:00:08Z</time>
</trkpt>
<trkpt lat="49.5698203984648" lon="9.363592090085149">
<ele>408.6</ele>
<time>2024-05-09T10:00:09Z</time>
</trkpt>
<trkpt lat="49.569866163656116" lon="9.363597789779304">
<ele>408.6</ele>
<time>2024-05-09T10:00:10Z</time>
</trkpt>
<trkpt lat="49.56990807317197" lon="9.363604495301844">
<ele>408.6</ele>
<time>2024-05-09T10:00:11Z</time>
</trkpt>
<trkpt lat="49.56995006650686" lon="9.363610194996">
<ele>408.6</ele>
<time>2024-05-09T10:00:12Z</time>
</trkpt>
<trkpt lat="49.56999205984175" lon="9.363614972680807">
<ele>408.6</ele>
<time>2024-05-09T10:00:13Z</time>
</trkpt>
<trkpt lat="49.57003019750118" lon="9.363617822527884">
<ele>408.6</ele>
<time>2024-05-09T10:00:14Z</time>
</trkpt>
<trkpt lat="49.57007210701704" lon="9.363621678203344">
<ele>408.6</ele>
<time>2024-05-09T10:00:15Z</time>
</trkpt>
<trkpt lat="49.57011410035193" lon="9.363623606041074">
<ele>408.6</ele>
<time>2024-05-09T10:00:16Z</time>
</trkpt>
<trkpt lat="49.570159865543246" lon="9.363624528050424">
<ele>408.6</ele>
<time>2024-05-09T10:00:17Z</time>
</trkpt>
<trkpt lat="49.570201858878136" lon="9.363624528050424">
<ele>408.6</ele>
<time>2024-05-09T10:00:18Z</time>
</trkpt>
<trkpt lat="49.570239996537566" lon="9.363624528050424">
<ele>408.8</ele>
<time>2024-05-09T10:00:19Z</time>
</trkpt>
<trkpt lat="49.57028576172888" lon="9.36363123357296">
<ele>408.8</ele>
<time>2024-05-09T10:00:20Z</time>
</trkpt>
<trkpt lat="49.57032775506377" lon="9.363636933267117">
<ele>408.6</ele>
<time>2024-05-09T10:00:21Z</time>
</trkpt>
<trkpt lat="49.57036966457963" lon="9.363639783114197">
<ele>408.6</ele>
<time>2024-05-09T10:00:22Z</time>
</trkpt>
<trkpt lat="49.57041165791452" lon="9.363643638789654">
<ele>408.6</ele>
<time>2024-05-09T10:00:23Z</time>
</trkpt>
<trkpt lat="49.57045742310584" lon="9.363644560799004">
<ele>408.6</ele>
<time>2024-05-09T10:00:24Z</time>
</trkpt>
<trkpt lat="49.570499416440725" lon="9.36364833265543">
<ele>408.6</ele>
<time>2024-05-09T10:00:25Z</time>
</trkpt>
<trkpt lat="49.57054518163204" lon="9.36364833265543">
<ele>408.6</ele>
<time>2024-05-09T10:00:26Z</time>
</trkpt>
<trkpt lat="49.5705870911479" lon="9.363653110340238">
<ele>408.6</ele>
<time>2024-05-09T10:00:27Z</time>
</trkpt>
<trkpt lat="49.570632856339216" lon="9.363657888025044">
<ele>408.4</ele>
<time>2024-05-09T10:00:28Z</time>
</trkpt>
<trkpt lat="49.570674849674106" lon="9.363663671538234">
<ele>408.6</ele>
<time>2024-05-09T10:00:29Z</time>
</trkpt>
<trkpt lat="49.570716843008995" lon="9.363664593547584">
<ele>408.6</ele>
<time>2024-05-09T10:00:30Z</time>
</trkpt>
<trkpt lat="49.570754980668426" lon="9.363666521385312">
<ele>408.6</ele>
<time>2024-05-09T10:00:31Z</time>
</trkpt>
<trkpt lat="49.570793118327856" lon="9.36366836540401">
<ele>408.6</ele>
<time>2024-05-09T10:00:32Z</time>
</trkpt>
<trkpt lat="49.570835111662745" lon="9.36367029324174">
<ele>408.6</ele>
<time>2024-05-09T10:00:33Z</time>
</trkpt>
<trkpt lat="49.570873249322176" lon="9.36367029324174">
<ele>408.6</ele>
<time>2024-05-09T10:00:34Z</time>
</trkpt>
<trkpt lat="49.570915158838034" lon="9.36367129907012">
<ele>408.6</ele>
<time>2024-05-09T10:00:35Z</time>
</trkpt>
<trkpt lat="49.57095715217292" lon="9.363676998764277">
<ele>408.8</ele>
<time>2024-05-09T10:00:36Z</time>
</trkpt>
<trkpt lat="49.57099914550781" lon="9.363681776449084">
<ele>408.8</ele>
<time>2024-05-09T10:00:37Z</time>
</trkpt>
<trkpt lat="49.57103728316724" lon="9.363683620467782">
<ele>409.2</ele>
<time>2024-05-09T10:00:38Z</time>
</trkpt>
<trkpt lat="49.5710791926831" lon="9.363683620467782">
<ele>409.2</ele>
<time>2024-05-09T10:00:39Z</time>
</trkpt>
<trkpt lat="49.57112118601799" lon="9.363686554133892">
<ele>409.4</ele>
<time>2024-05-09T10:00:40Z</time>
</trkpt>
<trkpt lat="49.57116309553385" lon="9.36369032599032">
<ele>409.4</ele>
<time>2024-05-09T10:00:41Z</time>
</trkpt>
<trkpt lat="49.57120131701231" lon="9.363703653216362">
<ele>409.6</ele>
<time>2024-05-09T10:00:42Z</time>
</trkpt>
<trkpt lat="49.57123945467174" lon="9.363706586882472">
<ele>409.6</ele>
<time>2024-05-09T10:00:43Z</time>
</trkpt>
<trkpt lat="49.57127759233117" lon="9.3637103587389">
<ele>409.6</ele>
<time>2024-05-09T10:00:44Z</time>
</trkpt>
<trkpt lat="49.5713157299906" lon="9.363711280748248">
<ele>409.6</ele>
<time>2024-05-09T10:00:45Z</time>
</trkpt>
<trkpt lat="49.57135386765003" lon="9.363717986270784">
<ele>409.6</ele>
<time>2024-05-09T10:00:46Z</time>
</trkpt>
<trkpt lat="49.57139200530946" lon="9.363719914108517">
<ele>409.8</ele>
<time>2024-05-09T10:00:47Z</time>
</trkpt>
<trkpt lat="49.57143014296889" lon="9.363721841946244">
<ele>409.8</ele>
<time>2024-05-09T10:00:48Z</time>
</trkpt>
<trkpt lat="49.57147213630378" lon="9.363724691793324">
<ele>410</ele>
<time>2024-05-09T10:00:49Z</time>
</trkpt>
<trkpt lat="49.57151027396321" lon="9.363723685964942">
<ele>410</ele>
<time>2024-05-09T10:00:50Z</time>
</trkpt>
<trkpt lat="49.57154841162264" lon="9.363721841946244">
<ele>410</ele>
<time>2024-05-09T10:00:51Z</time>
</trkpt>
<trkpt lat="49.57158277742565" lon="9.363719914108517">
<ele>410.2</ele>
<time>2024-05-09T10:00:52Z</time>
</trkpt>
<trkpt lat="49.57162091508508" lon="9.363717986270784">
<ele>410.2</ele>
<time>2024-05-09T10:00:53Z</time>
</trkpt>
<trkpt lat="49.57165905274451" lon="9.363717064261436">
<ele>410.2</ele>
<time>2024-05-09T10:00:54Z</time>
</trkpt>
<trkpt lat="49.57169719040394" lon="9.363717986270784">
<ele>410.2</ele>
<time>2024-05-09T10:00:55Z</time>
</trkpt>
<trkpt lat="49.57173532806337" lon="9.363719914108517">
<ele>410.4</ele>
<time>2024-05-09T10:00:56Z</time>
</trkpt>
<trkpt lat="49.5717734657228" lon="9.363721841946244">
<ele>410.4</ele>
<time>2024-05-09T10:00:57Z</time>
</trkpt>
<trkpt lat="49.57181160338223" lon="9.363723685964942">
<ele>410.6</ele>
<time>2024-05-09T10:00:58Z</time>
</trkpt>
<trkpt lat="49.57184974104166" lon="9.363724691793324">
<ele>410.8</ele>
<time>2024-05-09T10:00:59Z</time>
</trkpt>
<trkpt lat="49.57188796252012" lon="9.36373039148748">
<ele>411</ele>
<time>2024-05-09T10:01:00Z</time>
</trkpt>
<trkpt lat="49.57192610017955" lon="9.363733241334558">
<ele>411</ele>
<time>2024-05-09T10:01:01Z</time>
</trkpt>
<trkpt lat="49.57196800969541" lon="9.363735169172289">
<ele>411.2</ele>
<time>2024-05-09T10:01:02Z</time>
</trkpt>
<trkpt lat="49.57200614735484" lon="9.363737097010016">
<ele>411.2</ele>
<time>2024-05-09T10:01:03Z</time>
</trkpt>
<trkpt lat="49.572040513157845" lon="9.363741874694824">
<ele>411.4</ele>
<time>2024-05-09T10:01:04Z</time>
</trkpt>
<trkpt lat="49.572078650817275" lon="9.363739946857097">
<ele>411.4</ele>
<time>2024-05-09T10:01:05Z</time>
</trkpt>
<trkpt lat="49.57212064415216" lon="9.363738019019364">
<ele>411.6</ele>
<time>2024-05-09T10:01:06Z</time>
</trkpt>
<trkpt lat="49.572158781811595" lon="9.363738019019364">
<ele>411.6</ele>
<time>2024-05-09T10:01:07Z</time>
</trkpt>
<trkpt lat="49.572196919471025" lon="9.363738019019364">
<ele>411.6</ele>
<time>2024-05-09T10:01:08Z</time>
</trkpt>
<trkpt lat="49.572238912805915" lon="9.363738019019364">
<ele>411.8</ele>
<time>2024-05-09T10:01:09Z</time>
</trkpt>
<trkpt lat="49.572277050465345" lon="9.363741874694824">
<ele>412</ele>
<time>2024-05-09T10:01:10Z</time>
</trkpt>
<trkpt lat="49.572315188124776" lon="9.363743718713522">
<ele>412.2</ele>
<time>2024-05-09T10:01:11Z</time>
</trkpt>
<trkpt lat="49.572357097640634" lon="9.363744724541904">
<ele>412.2</ele>
<time>2024-05-09T10:01:12Z</time>
</trkpt>
<trkpt lat="49.572395319119096" lon="9.36375042423606">
<ele>412.4</ele>
<time>2024-05-09T10:01:13Z</time>
</trkpt>
<trkpt lat="49.572433456778526" lon="9.363755201920869">
<ele>412.4</ele>
<time>2024-05-09T10:01:14Z</time>
</trkpt>
<trkpt lat="49.572475366294384" lon="9.363758051767944">
<ele>412.6</ele>
<time>2024-05-09T10:01:15Z</time>
</trkpt>
<trkpt lat="49.572513503953815" lon="9.363761823624372">
<ele>412.6</ele>
<time>2024-05-09T10:01:16Z</time>
</trkpt>
<trkpt lat="49.57255172543228" lon="9.363761823624372">
<ele>412.8</ele>
<time>2024-05-09T10:01:17Z</time>
</trkpt>
<trkpt lat="49.57258986309171" lon="9.363759979605677">
<ele>412.8</ele>
<time>2024-05-09T10:01:18Z</time>
</trkpt>
<trkpt lat="49.57262800075114" lon="9.363756123930216">
<ele>413</ele>
<time>2024-05-09T10:01:19Z</time>
</trkpt>
<trkpt lat="49.57266228273511" lon="9.363755201920869">
<ele>413.2</ele>
<time>2024-05-09T10:01:20Z</time>
</trkpt>
<trkpt lat="49.57269664853811" lon="9.363759979605677">
<ele>413.2</ele>
<time>2024-05-09T10:01:21Z</time>
</trkpt>
<trkpt lat="49.57273101434112" lon="9.363763751462102">
<ele>413.4</ele>
<time>2024-05-09T10:01:22Z</time>
</trkpt>
<trkpt lat="49.57276915200055" lon="9.36376852914691">
<ele>413.4</ele>
<time>2024-05-09T10:01:23Z</time>
</trkpt>
<trkpt lat="49.57280728965998" lon="9.363780012354256">
<ele>413.2</ele>
<time>2024-05-09T10:01:24Z</time>
</trkpt>
<trkpt lat="49.57284157164395" lon="9.36378948390484">
<ele>413.4</ele>
<time>2024-05-09T10:01:25Z</time>
</trkpt>
<trkpt lat="49.57287970930338" lon="9.363798117265103">
<ele>413.4</ele>
<time>2024-05-09T10:01:26Z</time>
</trkpt>
<trkpt lat="49.57291407510638" lon="9.36380473896861">
<ele>413.4</ele>
<time>2024-05-09T10:01:27Z</time>
</trkpt>
<trkpt lat="49.572948440909386" lon="9.36380951665342">
<ele>413.6</ele>
<time>2024-05-09T10:01:28Z</time>
</trkpt>
<trkpt lat="49.572986578568816" lon="9.363815300166609">
<ele>413.6</ele>
<time>2024-05-09T10:01:29Z</time>
</trkpt>
<trkpt lat="49.57302471622825" lon="9.363822927698491">
<ele>413.6</ele>
<time>2024-05-09T10:01:30Z</time>
</trkpt>
<trkpt lat="49.57306285388768" lon="9.363829549402">
<ele>413.8</ele>
<time>2024-05-09T10:01:31Z</time>
</trkpt>
<trkpt lat="49.57310099154711" lon="9.363836254924536">
<ele>413.8</ele>
<time>2024-05-09T10:01:32Z</time>
</trkpt>
<trkpt lat="49.573146756738424" lon="9.36384866014123">
<ele>413.8</ele>
<time>2024-05-09T10:01:33Z</time>
</trkpt>
<trkpt lat="49.573184894397855" lon="9.363860059529545">
<ele>414</ele>
<time>2024-05-09T10:01:34Z</time>
</trkpt>
<trkpt lat="49.573226887732744" lon="9.363875314593315">
<ele>414</ele>
<time>2024-05-09T10:01:35Z</time>
</trkpt>
<trkpt lat="49.573268881067634" lon="9.36388679780066">
<ele>414.2</ele>
<time>2024-05-09T10:01:36Z</time>
</trkpt>
<trkpt lat="49.57331079058349" lon="9.363900125026705">
<ele>414.2</ele>
<time>2024-05-09T10:01:37Z</time>
</trkpt>
<trkpt lat="49.57335655577481" lon="9.363915380090477">
<ele>414.4</ele>
<time>2024-05-09T10:01:38Z</time>
</trkpt>
<trkpt lat="49.5733985491097" lon="9.363931640982628">
<ele>414.4</ele>
<time>2024-05-09T10:01:39Z</time>
</trkpt>
<trkpt lat="49.573444314301014" lon="9.363951673731208">
<ele>414.4</ele>
<time>2024-05-09T10:01:40Z</time>
</trkpt>
<trkpt lat="49.57349007949233" lon="9.363976400345564">
<ele>414.2</ele>
<time>2024-05-09T10:01:41Z</time>
</trkpt>
<trkpt lat="49.57353207282722" lon="9.364001210778952">
<ele>414.2</ele>
<time>2024-05-09T10:01:42Z</time>
</trkpt>
<trkpt lat="49.57357406616211" lon="9.36402509920299">
<ele>414</ele>
<time>2024-05-09T10:01:43Z</time>
</trkpt>
<trkpt lat="49.57361597567797" lon="9.36404320411384">
<ele>413.8</ele>
<time>2024-05-09T10:01:44Z</time>
</trkpt>
<trkpt lat="49.57365796901286" lon="9.364058459177611">
<ele>413.6</ele>
<time>2024-05-09T10:01:45Z</time>
</trkpt>
<trkpt lat="49.573699878528714" lon="9.364069858565928">
<ele>413.4</ele>
<time>2024-05-09T10:01:46Z</time>
</trkpt>
<trkpt lat="49.57373038865626" lon="9.364080419763924">
<ele>413.2</ele>
<time>2024-05-09T10:01:47Z</time>
</trkpt>
<trkpt lat="49.573760982602835" lon="9.364091819152236">
<ele>413</ele>
<time>2024-05-09T10:01:48Z</time>
</trkpt>
<trkpt lat="49.57378763705492" lon="9.364101374521852">
<ele>412.8</ele>
<time>2024-05-09T10:01:49Z</time>
</trkpt>
<trkpt lat="49.57381437532604" lon="9.364114701747894">
<ele>412.6</ele>
<time>2024-05-09T10:01:50Z</time>
</trkpt>
<trkpt lat="49.57384102977812" lon="9.364129956811666">
<ele>412.4</ele>
<time>2024-05-09T10:01:51Z</time>
</trkpt>
<trkpt lat="49.57387153990567" lon="9.364149989560246">
<ele>412.2</ele>
<time>2024-05-09T10:01:52Z</time>
</trkpt>
<trkpt lat="49.573898278176785" lon="9.364172872155905">
<ele>412</ele>
<time>2024-05-09T10:01:53Z</time>
</trkpt>
<trkpt lat="49.57393264397979" lon="9.36419860459864">
<ele>411.8</ele>
<time>2024-05-09T10:01:54Z</time>
</trkpt>
<trkpt lat="49.57397078163922" lon="9.364221571013331">
<ele>411.6</ele>
<time>2024-05-09T10:01:55Z</time>
</trkpt>
<trkpt lat="49.57400891929865" lon="9.364248225465415">
<ele>411.4</ele>
<time>2024-05-09T10:01:56Z</time>
</trkpt>
<trkpt lat="49.574054684489965" lon="9.364270186051726">
<ele>411.2</ele>
<time>2024-05-09T10:01:57Z</time>
</trkpt>
<trkpt lat="49.574096677824855" lon="9.364290218800306">
<ele>411.2</ele>
<time>2024-05-09T10:01:58Z</time>
</trkpt>
<trkpt lat="49.57413858734071" lon="9.364311173558235">
<ele>411</ele>
<time>2024-05-09T10:01:59Z</time>
</trkpt>
<trkpt lat="49.57418435253203" lon="9.364334978163242">
<ele>411</ele>
<time>2024-05-09T10:02:00Z</time>
</trkpt>
<trkpt lat="49.57422634586692" lon="9.364356938749552">
<ele>410.8</ele>
<time>2024-05-09T10:02:01Z</time>
</trkpt>
<trkpt lat="49.574272111058235" lon="9.36437789350748">
<ele>410.8</ele>
<time>2024-05-09T10:02:02Z</time>
</trkpt>
<trkpt lat="49.574314104393125" lon="9.36439985409379">
<ele>410.8</ele>
<time>2024-05-09T10:02:03Z</time>
</trkpt>
<trkpt lat="49.57435601390898" lon="9.36441988684237">
<ele>410.8</ele>
<time>2024-05-09T10:02:04Z</time>
</trkpt>
<trkpt lat="49.57439415156841" lon="9.36443799175322">
<ele>410.8</ele>
<time>2024-05-09T10:02:05Z</time>
</trkpt>
<trkpt lat="49.574432373046875" lon="9.364456096664073">
<ele>410.6</ele>
<time>2024-05-09T10:02:06Z</time>
</trkpt>
<trkpt lat="49.574470510706306" lon="9.364471435546877">
<ele>410.6</ele>
<time>2024-05-09T10:02:07Z</time>
</trkpt>
<trkpt lat="49.574508648365736" lon="9.364482834935188">
<ele>410.6</ele>
<time>2024-05-09T10:02:08Z</time>
</trkpt>
<trkpt lat="49.574550557881594" lon="9.36450001783669">
<ele>410.6</ele>
<time>2024-05-09T10:02:09Z</time>
</trkpt>
<trkpt lat="49.574588695541024" lon="9.36451812274754">
<ele>410.6</ele>
<time>2024-05-09T10:02:10Z</time>
</trkpt>
<trkpt lat="49.57462306134403" lon="9.364542933180928">
<ele>410.8</ele>
<time>2024-05-09T10:02:11Z</time>
</trkpt>
<trkpt lat="49.57465357147157" lon="9.364582998678088">
<ele>410.8</ele>
<time>2024-05-09T10:02:12Z</time>
</trkpt>
<trkpt lat="49.57468408159912" lon="9.364631613716483">
<ele>410.8</ele>
<time>2024-05-09T10:02:13Z</time>
</trkpt>
<trkpt lat="49.57470319233835" lon="9.364683078601956">
<ele>410.6</ele>
<time>2024-05-09T10:02:14Z</time>
</trkpt>
<trkpt lat="49.57473370246589" lon="9.364725071936846">
<ele>410.6</ele>
<time>2024-05-09T10:02:15Z</time>
</trkpt>
<trkpt lat="49.57476421259344" lon="9.364745104685426">
<ele>410.6</ele>
<time>2024-05-09T10:02:16Z</time>
</trkpt>
<trkpt lat="49.57479857839644" lon="9.364743176847696">
<ele>410.4</ele>
<time>2024-05-09T10:02:17Z</time>
</trkpt>
<trkpt lat="49.5748214609921" lon="9.36471459455788">
<ele>410.4</ele>
<time>2024-05-09T10:02:18Z</time>
</trkpt>
<trkpt lat="49.57483671605587" lon="9.364671679213645">
<ele>410.4</ele>
<time>2024-05-09T10:02:19Z</time>
</trkpt>
<trkpt lat="49.574829088523984" lon="9.364620130509138">
<ele>410.2</ele>
<time>2024-05-09T10:02:20Z</time>
</trkpt>
<trkpt lat="49.57480997778475" lon="9.364586770534515">
<ele>410.2</ele>
<time>2024-05-09T10:02:21Z</time>
</trkpt>
<trkpt lat="49.57479472272098" lon="9.364566737785935">
<ele>410.2</ele>
<time>2024-05-09T10:02:22Z</time>
</trkpt>
<trkpt lat="49.57477569580078" lon="9.364555338397622">
<ele>410</ele>
<time>2024-05-09T10:02:23Z</time>
</trkpt>
<trkpt lat="49.57476035691798" lon="9.364555338397622">
<ele>410</ele>
<time>2024-05-09T10:02:24Z</time>
</trkpt>
<trkpt lat="49.574748957529664" lon="9.364556260406973">
<ele>410</ele>
<time>2024-05-09T10:02:25Z</time>
</trkpt>
<trkpt lat="49.57473747432232" lon="9.364561960101128">
<ele>410</ele>
<time>2024-05-09T10:02:26Z</time>
</trkpt>
<trkpt lat="49.57472984679043" lon="9.364571515470743">
<ele>410</ele>
<time>2024-05-09T10:02:27Z</time>
</trkpt>
<trkpt lat="49.574726074934006" lon="9.364591548219323">
<ele>409.8</ele>
<time>2024-05-09T10:02:28Z</time>
</trkpt>
<trkpt lat="49.57471844740212" lon="9.364628763869405">
<ele>409.8</ele>
<time>2024-05-09T10:02:29Z</time>
</trkpt>
<trkpt lat="49.57472221925855" lon="9.364671679213645">
<ele>409.8</ele>
<time>2024-05-09T10:02:30Z</time>
</trkpt>
<trkpt lat="49.574745101854205" lon="9.364711744710805">
<ele>409.8</ele>
<time>2024-05-09T10:02:31Z</time>
</trkpt>
<trkpt lat="49.57477569580078" lon="9.364738399162889">
<ele>409.6</ele>
<time>2024-05-09T10:02:32Z</time>
</trkpt>
<trkpt lat="49.57481760531664" lon="9.364743176847696">
<ele>409.6</ele>
<time>2024-05-09T10:02:33Z</time>
</trkpt>
<trkpt lat="49.57485959865153" lon="9.364731777459385">
<ele>409.4</ele>
<time>2024-05-09T10:02:34Z</time>
</trkpt>
<trkpt lat="49.574901508167386" lon="9.36471652239561">
<ele>409.4</ele>
<time>2024-05-09T10:02:35Z</time>
</trkpt>
<trkpt lat="49.574943501502275" lon="9.364707889035344">
<ele>409.2</ele>
<time>2024-05-09T10:02:36Z</time>
</trkpt>
<trkpt lat="49.57498926669359" lon="9.364709816873074">
<ele>409.2</ele>
<time>2024-05-09T10:02:37Z</time>
</trkpt>
<trkpt lat="49.57502740435302" lon="9.364720294252038">
<ele>409.2</ele>
<time>2024-05-09T10:02:38Z</time>
</trkpt>
<trkpt lat="49.575061770156026" lon="9.364740327000618">
<ele>409.2</ele>
<time>2024-05-09T10:02:39Z</time>
</trkpt>
<trkpt lat="49.575099907815456" lon="9.36475650407374">
<ele>409</ele>
<time>2024-05-09T10:02:40Z</time>
</trkpt>
<trkpt lat="49.57513804547489" lon="9.364778464660048">
<ele>409</ele>
<time>2024-05-09T10:02:41Z</time>
</trkpt>
<trkpt lat="49.57517618313432" lon="9.364798497408628">
<ele>409</ele>
<time>2024-05-09T10:02:42Z</time>
</trkpt>
<trkpt lat="49.57521432079375" lon="9.36481660231948">
<ele>409</ele>
<time>2024-05-09T10:02:43Z</time>
</trkpt>
<trkpt lat="49.57525245845318" lon="9.36483470723033">
<ele>409</ele>
<time>2024-05-09T10:02:44Z</time>
</trkpt>
<trkpt lat="49.57529067993164" lon="9.36485473997891">
<ele>409</ele>
<time>2024-05-09T10:02:45Z</time>
</trkpt>
<trkpt lat="49.57532881759107" lon="9.364871922880411">
<ele>409</ele>
<time>2024-05-09T10:02:46Z</time>
</trkpt>
<trkpt lat="49.57536309957504" lon="9.364883406087756">
<ele>409</ele>
<time>2024-05-09T10:02:47Z</time>
</trkpt>
<trkpt lat="49.57540123723447" lon="9.3648967333138">
<ele>409</ele>
<time>2024-05-09T10:02:48Z</time>
</trkpt>
<trkpt lat="49.57543560303748" lon="9.36491676606238">
<ele>409</ele>
<time>2024-05-09T10:02:49Z</time>
</trkpt>
<trkpt lat="49.57547374069691" lon="9.364939648658035">
<ele>409</ele>
<time>2024-05-09T10:02:50Z</time>
</trkpt>
<trkpt lat="49.57550810649991" lon="9.364963453263044">
<ele>409.2</ele>
<time>2024-05-09T10:02:51Z</time>
</trkpt>
<trkpt lat="49.57555001601577" lon="9.364984491840003">
<ele>409.2</ele>
<time>2024-05-09T10:02:52Z</time>
</trkpt>
<trkpt lat="49.5755881536752" lon="9.365008296445012">
<ele>409.4</ele>
<time>2024-05-09T10:02:53Z</time>
</trkpt>
<trkpt lat="49.575637774541974" lon="9.365026401355864">
<ele>409.6</ele>
<time>2024-05-09T10:02:54Z</time>
</trkpt>
<trkpt lat="49.57567976787686" lon="9.365044590085745">
<ele>409.6</ele>
<time>2024-05-09T10:02:55Z</time>
</trkpt>
<trkpt lat="49.57572167739272" lon="9.365063617005944">
<ele>409.8</ele>
<time>2024-05-09T10:02:56Z</time>
</trkpt>
<trkpt lat="49.57575981505215" lon="9.365083649754524">
<ele>409.8</ele>
<time>2024-05-09T10:02:57Z</time>
</trkpt>
<trkpt lat="49.57580180838704" lon="9.365104604512451">
<ele>409.8</ele>
<time>2024-05-09T10:02:58Z</time>
</trkpt>
<trkpt lat="49.57584757357836" lon="9.365126565098764">
<ele>410</ele>
<time>2024-05-09T10:02:59Z</time>
</trkpt>
<trkpt lat="49.57588956691325" lon="9.365148525685072">
<ele>410</ele>
<time>2024-05-09T10:03:00Z</time>
</trkpt>
<trkpt lat="49.575931476429105" lon="9.365168558433652">
<ele>410</ele>
<time>2024-05-09T10:03:01Z</time>
</trkpt>
<trkpt lat="49.575973469763994" lon="9.365184735506771">
<ele>410</ele>
<time>2024-05-09T10:03:02Z</time>
</trkpt>
<trkpt lat="49.57601546309888" lon="9.365204768255351">
<ele>410</ele>
<time>2024-05-09T10:03:03Z</time>
</trkpt>
<trkpt lat="49.5760612282902" lon="9.365224801003931">
<ele>409.8</ele>
<time>2024-05-09T10:03:04Z</time>
</trkpt>
<trkpt lat="49.57610313780606" lon="9.365242905914783">
<ele>409.8</ele>
<time>2024-05-09T10:03:05Z</time>
</trkpt>
<trkpt lat="49.576148986816406" lon="9.365262938663363">
<ele>409.6</ele>
<time>2024-05-09T10:03:06Z</time>
</trkpt>
<trkpt lat="49.57619475200772" lon="9.365282971411943">
<ele>409.6</ele>
<time>2024-05-09T10:03:07Z</time>
</trkpt>
<trkpt lat="49.57624051719904" lon="9.365304931998253">
<ele>409.6</ele>
<time>2024-05-09T10:03:08Z</time>
</trkpt>
<trkpt lat="49.57629005424678" lon="9.36532873660326">
<ele>409.4</ele>
<time>2024-05-09T10:03:09Z</time>
</trkpt>
<trkpt lat="49.57633590325713" lon="9.365351619198918">
<ele>409.4</ele>
<time>2024-05-09T10:03:10Z</time>
</trkpt>
<trkpt lat="49.57638166844845" lon="9.365376429632306">
<ele>409.4</ele>
<time>2024-05-09T10:03:11Z</time>
</trkpt>
<trkpt lat="49.576423577964306" lon="9.365400234237311">
<ele>409.4</ele>
<time>2024-05-09T10:03:12Z</time>
</trkpt>
<trkpt lat="49.576465571299195" lon="9.365420266985891">
<ele>409.2</ele>
<time>2024-05-09T10:03:13Z</time>
</trkpt>
<trkpt lat="49.57651519216597" lon="9.36544507741928">
<ele>409.2</ele>
<time>2024-05-09T10:03:14Z</time>
</trkpt>
<trkpt lat="49.576564729213715" lon="9.365481371060014">
<ele>409.2</ele>
<time>2024-05-09T10:03:15Z</time>
</trkpt>
<trkpt lat="49.57661812193692" lon="9.36550517566502">
<ele>409</ele>
<time>2024-05-09T10:03:16Z</time>
</trkpt>
<trkpt lat="49.57667537033558" lon="9.365532835945489">
<ele>408.8</ele>
<time>2024-05-09T10:03:17Z</time>
</trkpt>
<trkpt lat="49.576724991202354" lon="9.36556527391076">
<ele>408.8</ele>
<time>2024-05-09T10:03:18Z</time>
</trkpt>
<trkpt lat="49.576763128861785" lon="9.365599555894732">
<ele>408.6</ele>
<time>2024-05-09T10:03:19Z</time>
</trkpt>
<trkpt lat="49.57680503837764" lon="9.365621516481042">
<ele>408.6</ele>
<time>2024-05-09T10:03:20Z</time>
</trkpt>
<trkpt lat="49.57685088738799" lon="9.365643477067351">
<ele>408.6</ele>
<time>2024-05-09T10:03:21Z</time>
</trkpt>
<trkpt lat="49.57689665257931" lon="9.365658732131124">
<ele>408.2</ele>
<time>2024-05-09T10:03:22Z</time>
</trkpt>
<trkpt lat="49.57693479023874" lon="9.365676837041974">
<ele>408</ele>
<time>2024-05-09T10:03:23Z</time>
</trkpt>
<trkpt lat="49.57697669975459" lon="9.365699719637632">
<ele>408</ele>
<time>2024-05-09T10:03:24Z</time>
</trkpt>
<trkpt lat="49.57701492123306" lon="9.365717824548485">
<ele>407.8</ele>
<time>2024-05-09T10:03:25Z</time>
</trkpt>
<trkpt lat="49.57705305889249" lon="9.365733079612257">
<ele>407.8</ele>
<time>2024-05-09T10:03:26Z</time>
</trkpt>
<trkpt lat="49.57708734087646" lon="9.365751184523106">
<ele>407.8</ele>
<time>2024-05-09T10:03:27Z</time>
</trkpt>
<trkpt lat="49.57712170667946" lon="9.36576459556818">
<ele>407.8</ele>
<time>2024-05-09T10:03:28Z</time>
</trkpt>
<trkpt lat="49.577155988663435" lon="9.365775072947145">
<ele>408</ele>
<time>2024-05-09T10:03:29Z</time>
</trkpt>
<trkpt lat="49.57719798199832" lon="9.365793177857997">
<ele>408</ele>
<time>2024-05-09T10:03:30Z</time>
</trkpt>
<trkpt lat="49.57724374718964" lon="9.365817066282034">
<ele>408</ele>
<time>2024-05-09T10:03:31Z</time>
</trkpt>
<trkpt lat="49.57729336805642" lon="9.36584372073412">
<ele>408</ele>
<time>2024-05-09T10:03:32Z</time>
</trkpt>
<trkpt lat="49.57734290510416" lon="9.365868531167507">
<ele>408</ele>
<time>2024-05-09T10:03:33Z</time>
</trkpt>
<trkpt lat="49.57738489843905" lon="9.365893341600897">
<ele>408</ele>
<time>2024-05-09T10:03:34Z</time>
</trkpt>
<trkpt lat="49.577434519305825" lon="9.365916224196551">
<ele>408</ele>
<time>2024-05-09T10:03:35Z</time>
</trkpt>
<trkpt lat="49.57748405635357" lon="9.36594195663929">
<ele>408</ele>
<time>2024-05-09T10:03:36Z</time>
</trkpt>
<trkpt lat="49.57752990536392" lon="9.365966767072678">
<ele>408</ele>
<time>2024-05-09T10:03:37Z</time>
</trkpt>
<trkpt lat="49.577575670555234" lon="9.365989649668336">
<ele>408</ele>
<time>2024-05-09T10:03:38Z</time>
</trkpt>
<trkpt lat="49.57762143574655" lon="9.366013454273345">
<ele>408</ele>
<time>2024-05-09T10:03:39Z</time>
</trkpt>
<trkpt lat="49.57766720093787" lon="9.366035414859653">
<ele>408</ele>
<time>2024-05-09T10:03:40Z</time>
</trkpt>
<trkpt lat="49.577712966129184" lon="9.366054525598884">
<ele>408</ele>
<time>2024-05-09T10:03:41Z</time>
</trkpt>
<trkpt lat="49.57775495946407" lon="9.366074558347464">
<ele>408</ele>
<time>2024-05-09T10:03:42Z</time>
</trkpt>
<trkpt lat="49.57779686897993" lon="9.36609643511474">
<ele>408.2</ele>
<time>2024-05-09T10:03:43Z</time>
</trkpt>
<trkpt lat="49.57783886231482" lon="9.366121245548127">
<ele>408.2</ele>
<time>2024-05-09T10:03:44Z</time>
</trkpt>
<trkpt lat="49.57788085564971" lon="9.36614320613444">
<ele>408.2</ele>
<time>2024-05-09T10:03:45Z</time>
</trkpt>
<trkpt lat="49.57791899330914" lon="9.366163238883018">
<ele>408.4</ele>
<time>2024-05-09T10:03:46Z</time>
</trkpt>
<trkpt lat="49.57795713096857" lon="9.366183271631598">
<ele>408.4</ele>
<time>2024-05-09T10:03:47Z</time>
</trkpt>
<trkpt lat="49.57799904048443" lon="9.366203304380178">
<ele>408.6</ele>
<time>2024-05-09T10:03:48Z</time>
</trkpt>
<trkpt lat="49.57804103381932" lon="9.366221409291027">
<ele>408.8</ele>
<time>2024-05-09T10:03:49Z</time>
</trkpt>
<trkpt lat="49.57808302715421" lon="9.366241442039607">
<ele>408.8</ele>
<time>2024-05-09T10:03:50Z</time>
</trkpt>
<trkpt lat="49.578124936670065" lon="9.36625954695046">
<ele>409</ele>
<time>2024-05-09T10:03:51Z</time>
</trkpt>
<trkpt lat="49.578163074329495" lon="9.366283351555468">
<ele>409.2</ele>
<time>2024-05-09T10:03:52Z</time>
</trkpt>
<trkpt lat="49.5781974401325" lon="9.366305312141776">
<ele>409.4</ele>
<time>2024-05-09T10:03:53Z</time>
</trkpt>
<trkpt lat="49.5782318059355" lon="9.366323417052628">
<ele>409.6</ele>
<time>2024-05-09T10:03:54Z</time>
</trkpt>
<trkpt lat="49.57826231606305" lon="9.36633674427867">
<ele>409.8</ele>
<time>2024-05-09T10:03:55Z</time>
</trkpt>
<trkpt lat="49.57829282619059" lon="9.366348227486014">
<ele>410</ele>
<time>2024-05-09T10:03:56Z</time>
</trkpt>
<trkpt lat="49.578323336318135" lon="9.366366332396863">
<ele>410.2</ele>
<time>2024-05-09T10:03:57Z</time>
</trkpt>
<trkpt lat="49.57834999077022" lon="9.366383515298368">
<ele>410.2</ele>
<time>2024-05-09T10:03:58Z</time>
</trkpt>
<trkpt lat="49.57837287336588" lon="9.366399692371488">
<ele>410.2</ele>
<time>2024-05-09T10:03:59Z</time>
</trkpt>
<trkpt lat="49.57839583978057" lon="9.36641494743526">
<ele>410.2</ele>
<time>2024-05-09T10:04:00Z</time>
</trkpt>
<trkpt lat="49.57841872237623" lon="9.366426430642605">
<ele>410.2</ele>
<time>2024-05-09T10:04:01Z</time>
</trkpt>
<trkpt lat="49.57843397744" lon="9.36643498018384">
<ele>410.2</ele>
<time>2024-05-09T10:04:02Z</time>
</trkpt>
<trkpt lat="49.5784530043602" lon="9.366441685706375">
<ele>410.2</ele>
<time>2024-05-09T10:04:03Z</time>
</trkpt>
<trkpt lat="49.57847211509943" lon="9.366448391228914">
<ele>410.2</ele>
<time>2024-05-09T10:04:04Z</time>
</trkpt>
<trkpt lat="49.57849499769509" lon="9.366457862779498">
<ele>410</ele>
<time>2024-05-09T10:04:05Z</time>
</trkpt>
<trkpt lat="49.57851788029075" lon="9.366475045681">
<ele>410</ele>
<time>2024-05-09T10:04:06Z</time>
</trkpt>
<trkpt lat="49.57854453474283" lon="9.366497928276658">
<ele>409.8</ele>
<time>2024-05-09T10:04:07Z</time>
</trkpt>
<trkpt lat="49.57857512868941" lon="9.366528438404202">
<ele>409.8</ele>
<time>2024-05-09T10:04:08Z</time>
</trkpt>
<trkpt lat="49.57860563881695" lon="9.366558026522398">
<ele>409.6</ele>
<time>2024-05-09T10:04:09Z</time>
</trkpt>
<trkpt lat="49.57864754833281" lon="9.366578059270978">
<ele>409.6</ele>
<time>2024-05-09T10:04:10Z</time>
</trkpt>
<trkpt lat="49.57869331352413" lon="9.366586608812211">
<ele>409.4</ele>
<time>2024-05-09T10:04:11Z</time>
</trkpt>
<trkpt lat="49.578739162534475" lon="9.366589542478325">
<ele>409.4</ele>
<time>2024-05-09T10:04:12Z</time>
</trkpt>
<trkpt lat="49.57878492772579" lon="9.36659331433475">
<ele>409.4</ele>
<time>2024-05-09T10:04:13Z</time>
</trkpt>
<trkpt lat="49.578834464773536" lon="9.366600019857287">
<ele>409.4</ele>
<time>2024-05-09T10:04:14Z</time>
</trkpt>
<trkpt lat="49.578876458108425" lon="9.3666114192456">
<ele>409.2</ele>
<time>2024-05-09T10:04:15Z</time>
</trkpt>
<trkpt lat="49.57892222329974" lon="9.366628602147102">
<ele>409.2</ele>
<time>2024-05-09T10:04:16Z</time>
</trkpt>
<trkpt lat="49.57896421663463" lon="9.366648634895682">
<ele>409.2</ele>
<time>2024-05-09T10:04:17Z</time>
</trkpt>
<trkpt lat="49.57900998182595" lon="9.36667151749134">
<ele>409.2</ele>
<time>2024-05-09T10:04:18Z</time>
</trkpt>
<trkpt lat="49.57904811948538" lon="9.366695322096348">
<ele>409.2</ele>
<time>2024-05-09T10:04:19Z</time>
</trkpt>
<trkpt lat="49.57908625714481" lon="9.366716360673308">
<ele>409.2</ele>
<time>2024-05-09T10:04:20Z</time>
</trkpt>
<trkpt lat="49.57912439480424" lon="9.366735387593508">
<ele>409.4</ele>
<time>2024-05-09T10:04:21Z</time>
</trkpt>
<trkpt lat="49.57916253246367" lon="9.36675164848566">
<ele>409.4</ele>
<time>2024-05-09T10:04:22Z</time>
</trkpt>
<trkpt lat="49.57920452579856" lon="9.366767825558782">
<ele>409.6</ele>
<time>2024-05-09T10:04:23Z</time>
</trkpt>
<trkpt lat="49.57924266345799" lon="9.366789786145093">
<ele>409.8</ele>
<time>2024-05-09T10:04:24Z</time>
</trkpt>
<trkpt lat="49.57928080111742" lon="9.3668117467314">
<ele>409.8</ele>
<time>2024-05-09T10:04:25Z</time>
</trkpt>
<trkpt lat="49.57932279445231" lon="9.366833623498678">
<ele>410.2</ele>
<time>2024-05-09T10:04:26Z</time>
</trkpt>
<trkpt lat="49.57936093211174" lon="9.36685466207564">
<ele>410.4</ele>
<time>2024-05-09T10:04:27Z</time>
</trkpt>
<trkpt lat="49.5794028416276" lon="9.36687469482422">
<ele>410.8</ele>
<time>2024-05-09T10:04:28Z</time>
</trkpt>
<trkpt lat="49.57944483496249" lon="9.366889949887993">
<ele>411</ele>
<time>2024-05-09T10:04:29Z</time>
</trkpt>
<trkpt lat="49.57947920076549" lon="9.36690805479884">
<ele>411.2</ele>
<time>2024-05-09T10:04:30Z</time>
</trkpt>
<trkpt lat="49.57952111028135" lon="9.366923309862614">
<ele>411.6</ele>
<time>2024-05-09T10:04:31Z</time>
</trkpt>
<trkpt lat="49.57956310361624" lon="9.366938564926386">
<ele>411.8</ele>
<time>2024-05-09T10:04:32Z</time>
</trkpt>
<trkpt lat="49.57960509695113" lon="9.366954741999509">
<ele>412.2</ele>
<time>2024-05-09T10:04:33Z</time>
</trkpt>
<trkpt lat="49.57965086214245" lon="9.366974774748089">
<ele>412.4</ele>
<time>2024-05-09T10:04:34Z</time>
</trkpt>
<trkpt lat="49.5796927716583" lon="9.366994807496669">
<ele>412.6</ele>
<time>2024-05-09T10:04:35Z</time>
</trkpt>
<trkpt lat="49.57973476499319" lon="9.367019617930056">
<ele>412.8</ele>
<time>2024-05-09T10:04:36Z</time>
</trkpt>
<trkpt lat="49.57977675832808" lon="9.367038644850254">
<ele>413</ele>
<time>2024-05-09T10:04:37Z</time>
</trkpt>
<trkpt lat="49.57981489598751" lon="9.367054905742409">
<ele>413</ele>
<time>2024-05-09T10:04:38Z</time>
</trkpt>
<trkpt lat="49.57985680550337" lon="9.367074938490989">
<ele>413</ele>
<time>2024-05-09T10:04:39Z</time>
</trkpt>
<trkpt lat="49.5798949431628" lon="9.367096899077296">
<ele>413</ele>
<time>2024-05-09T10:04:40Z</time>
</trkpt>
<trkpt lat="49.57993316464126" lon="9.367116848006845">
<ele>413</ele>
<time>2024-05-09T10:04:41Z</time>
</trkpt>
<trkpt lat="49.57997507415712" lon="9.367136880755424">
<ele>413</ele>
<time>2024-05-09T10:04:42Z</time>
</trkpt>
<trkpt lat="49.58001321181655" lon="9.367157919332383">
<ele>413.2</ele>
<time>2024-05-09T10:04:43Z</time>
</trkpt>
<trkpt lat="49.58004757761955" lon="9.367181723937392">
<ele>413.2</ele>
<time>2024-05-09T10:04:44Z</time>
</trkpt>
<trkpt lat="49.58008571527898" lon="9.367196979001164">
<ele>413.4</ele>
<time>2024-05-09T10:04:45Z</time>
</trkpt>
<trkpt lat="49.580123852938414" lon="9.36720653437078">
<ele>413.4</ele>
<time>2024-05-09T10:04:46Z</time>
</trkpt>
<trkpt lat="49.58015821874142" lon="9.367221789434552">
<ele>413.4</ele>
<time>2024-05-09T10:04:47Z</time>
</trkpt>
<trkpt lat="49.580200128257275" lon="9.367239894345404">
<ele>413.6</ele>
<time>2024-05-09T10:04:48Z</time>
</trkpt>
<trkpt lat="49.580238265916705" lon="9.367261854931712">
<ele>413.6</ele>
<time>2024-05-09T10:04:49Z</time>
</trkpt>
<trkpt lat="49.58027648739517" lon="9.367278032004831">
<ele>413.6</ele>
<time>2024-05-09T10:04:50Z</time>
</trkpt>
<trkpt lat="49.580318396911025" lon="9.367296136915684">
<ele>413.6</ele>
<time>2024-05-09T10:04:51Z</time>
</trkpt>
<trkpt lat="49.580356534570456" lon="9.367315247654917">
<ele>413.6</ele>
<time>2024-05-09T10:04:52Z</time>
</trkpt>
<trkpt lat="49.580394672229886" lon="9.367333352565764">
<ele>413.8</ele>
<time>2024-05-09T10:04:53Z</time>
</trkpt>
<trkpt lat="49.580436665564775" lon="9.367353385314344">
<ele>413.8</ele>
<time>2024-05-09T10:04:54Z</time>
</trkpt>
<trkpt lat="49.580474803224206" lon="9.367371490225196">
<ele>413.8</ele>
<time>2024-05-09T10:04:55Z</time>
</trkpt>
<trkpt lat="49.58050916902721" lon="9.367391522973776">
<ele>413.8</ele>
<time>2024-05-09T10:04:56Z</time>
</trkpt>
<trkpt lat="49.580539679154754" lon="9.367409627884626">
<ele>413.8</ele>
<time>2024-05-09T10:04:57Z</time>
</trkpt>
<trkpt lat="49.580573961138725" lon="9.367426810786128">
<ele>413.8</ele>
<time>2024-05-09T10:04:58Z</time>
</trkpt>
<trkpt lat="49.58060832694173" lon="9.36744307167828">
<ele>413.8</ele>
<time>2024-05-09T10:04:59Z</time>
</trkpt>
<trkpt lat="49.58064646460116" lon="9.367456398904324">
<ele>413.8</ele>
<time>2024-05-09T10:05:00Z</time>
</trkpt>
<trkpt lat="49.58068083040416" lon="9.367467798292637">
<ele>414</ele>
<time>2024-05-09T10:05:01Z</time>
</trkpt>
<trkpt lat="49.580715112388134" lon="9.367481209337711">
<ele>414</ele>
<time>2024-05-09T10:05:02Z</time>
</trkpt>
<trkpt lat="49.58074947819114" lon="9.367498392239211">
<ele>414.2</ele>
<time>2024-05-09T10:05:03Z</time>
</trkpt>
<trkpt lat="49.58078761585057" lon="9.367511719465256">
<ele>414.2</ele>
<time>2024-05-09T10:05:04Z</time>
</trkpt>
<trkpt lat="49.58081812597811" lon="9.367527896538377">
<ele>414.4</ele>
<time>2024-05-09T10:05:05Z</time>
</trkpt>
<trkpt lat="49.58084863610566" lon="9.367541307583451">
<ele>414.4</ele>
<time>2024-05-09T10:05:06Z</time>
</trkpt>
<trkpt lat="49.580875374376774" lon="9.367551784962416">
<ele>414.4</ele>
<time>2024-05-09T10:05:07Z</time>
</trkpt>
<trkpt lat="49.580909656360745" lon="9.36756033450365">
<ele>414.4</ele>
<time>2024-05-09T10:05:08Z</time>
</trkpt>
<trkpt lat="49.58094016648829" lon="9.367569889873266">
<ele>414.4</ele>
<time>2024-05-09T10:05:09Z</time>
</trkpt>
<trkpt lat="49.58097838796675" lon="9.367583217099307">
<ele>414.4</ele>
<time>2024-05-09T10:05:10Z</time>
</trkpt>
<trkpt lat="49.58101266995072" lon="9.367589922621846">
<ele>414.4</ele>
<time>2024-05-09T10:05:11Z</time>
</trkpt>
<trkpt lat="49.58104703575373" lon="9.36760040000081">
<ele>414.4</ele>
<time>2024-05-09T10:05:12Z</time>
</trkpt>
<trkpt lat="49.5810813177377" lon="9.367613727226852">
<ele>414.4</ele>
<time>2024-05-09T10:05:13Z</time>
</trkpt>
<trkpt lat="49.5811156835407" lon="9.367636609822512">
<ele>414.4</ele>
<time>2024-05-09T10:05:14Z</time>
</trkpt>
<trkpt lat="49.581150049343705" lon="9.36765949241817">
<ele>414.2</ele>
<time>2024-05-09T10:05:15Z</time>
</trkpt>
<trkpt lat="49.58118055947125" lon="9.36768145300448">
<ele>414.2</ele>
<time>2024-05-09T10:05:16Z</time>
</trkpt>
<trkpt lat="49.581211069598794" lon="9.367703413590789">
<ele>414.2</ele>
<time>2024-05-09T10:05:17Z</time>
</trkpt>
<trkpt lat="49.58124157972634" lon="9.367723446339369">
<ele>414</ele>
<time>2024-05-09T10:05:18Z</time>
</trkpt>
<trkpt lat="49.581268234178424" lon="9.367745323106648">
<ele>413.8</ele>
<time>2024-05-09T10:05:19Z</time>
</trkpt>
<trkpt lat="49.58129111677408" lon="9.367776839062572">
<ele>413.8</ele>
<time>2024-05-09T10:05:20Z</time>
</trkpt>
<trkpt lat="49.5813178550452" lon="9.367796871811152">
<ele>413.6</ele>
<time>2024-05-09T10:05:21Z</time>
</trkpt>
<trkpt lat="49.58134459331632" lon="9.367808271199465">
<ele>413.4</ele>
<time>2024-05-09T10:05:22Z</time>
</trkpt>
<trkpt lat="49.581367475911975" lon="9.367826459929349">
<ele>413.4</ele>
<time>2024-05-09T10:05:23Z</time>
</trkpt>
<trkpt lat="49.58139035850763" lon="9.367844564840198">
<ele>413.2</ele>
<time>2024-05-09T10:05:24Z</time>
</trkpt>
<trkpt lat="49.581405613571405" lon="9.36785981990397">
<ele>413</ele>
<time>2024-05-09T10:05:25Z</time>
</trkpt>
<trkpt lat="49.581428496167064" lon="9.367871219292285">
<ele>412.8</ele>
<time>2024-05-09T10:05:26Z</time>
</trkpt>
<trkpt lat="49.58145137876272" lon="9.367886474356055">
<ele>412.6</ele>
<time>2024-05-09T10:05:27Z</time>
</trkpt>
<trkpt lat="49.58147811703384" lon="9.36789988540113">
<ele>412.4</ele>
<time>2024-05-09T10:05:28Z</time>
</trkpt>
<trkpt lat="49.581504771485925" lon="9.367915140464902">
<ele>412.2</ele>
<time>2024-05-09T10:05:29Z</time>
</trkpt>
<trkpt lat="49.58153528161347" lon="9.367930395528674">
<ele>412.2</ele>
<time>2024-05-09T10:05:30Z</time>
</trkpt>
<trkpt lat="49.581562019884586" lon="9.367944644764066">
<ele>412</ele>
<time>2024-05-09T10:05:31Z</time>
</trkpt>
<trkpt lat="49.58159253001213" lon="9.367964677512646">
<ele>411.8</ele>
<time>2024-05-09T10:05:32Z</time>
</trkpt>
<trkpt lat="49.581619184464216" lon="9.367982782423496">
<ele>411.6</ele>
<time>2024-05-09T10:05:33Z</time>
</trkpt>
<trkpt lat="49.58164592273533" lon="9.36799619346857">
<ele>411.4</ele>
<time>2024-05-09T10:05:34Z</time>
</trkpt>
<trkpt lat="49.58167266100645" lon="9.368013376370072">
<ele>411.4</ele>
<time>2024-05-09T10:05:35Z</time>
</trkpt>
<trkpt lat="49.58169554360211" lon="9.368028631433845">
<ele>411.2</ele>
<time>2024-05-09T10:05:36Z</time>
</trkpt>
<trkpt lat="49.581722198054194" lon="9.368044808506966">
<ele>411</ele>
<time>2024-05-09T10:05:37Z</time>
</trkpt>
<trkpt lat="49.58174508064985" lon="9.368061991408467">
<ele>411</ele>
<time>2024-05-09T10:05:38Z</time>
</trkpt>
<trkpt lat="49.58177181892097" lon="9.36807632446289">
<ele>411</ele>
<time>2024-05-09T10:05:39Z</time>
</trkpt>
<trkpt lat="49.581802329048514" lon="9.368086801841857">
<ele>410.8</ele>
<time>2024-05-09T10:05:40Z</time>
</trkpt>
<trkpt lat="49.58183669485152" lon="9.368109684437512">
<ele>410.8</ele>
<time>2024-05-09T10:05:41Z</time>
</trkpt>
<trkpt lat="49.58187097683549" lon="9.368124939501286">
<ele>410.6</ele>
<time>2024-05-09T10:05:42Z</time>
</trkpt>
<trkpt lat="49.581901486963034" lon="9.368143044412136">
<ele>410.6</ele>
<time>2024-05-09T10:05:43Z</time>
</trkpt>
<trkpt lat="49.58192822523415" lon="9.368160227313638">
<ele>410.4</ele>
<time>2024-05-09T10:05:44Z</time>
</trkpt>
<trkpt lat="49.58195110782981" lon="9.36817355453968">
<ele>410.4</ele>
<time>2024-05-09T10:05:45Z</time>
</trkpt>
<trkpt lat="49.58197013475001" lon="9.368185037747024">
<ele>410.4</ele>
<time>2024-05-09T10:05:46Z</time>
</trkpt>
<trkpt lat="49.5819931011647" lon="9.36819450929761">
<ele>410.4</ele>
<time>2024-05-09T10:05:47Z</time>
</trkpt>
<trkpt lat="49.5820121280849" lon="9.368206914514303">
<ele>410.4</ele>
<time>2024-05-09T10:05:48Z</time>
</trkpt>
<trkpt lat="49.582038866356015" lon="9.368218397721648">
<ele>410.4</ele>
<time>2024-05-09T10:05:49Z</time>
</trkpt>
<trkpt lat="49.5820655208081" lon="9.368229797109962">
<ele>410.4</ele>
<time>2024-05-09T10:05:50Z</time>
</trkpt>
<trkpt lat="49.582096030935645" lon="9.368240274488926">
<ele>410.4</ele>
<time>2024-05-09T10:05:51Z</time>
</trkpt>
<trkpt lat="49.58212276920676" lon="9.368251757696273">
<ele>410.4</ele>
<time>2024-05-09T10:05:52Z</time>
</trkpt>
<trkpt lat="49.58215327933431" lon="9.36826986260712">
<ele>410.4</ele>
<time>2024-05-09T10:05:53Z</time>
</trkpt>
<trkpt lat="49.582180017605424" lon="9.36829375103116">
<ele>410.2</ele>
<time>2024-05-09T10:05:54Z</time>
</trkpt>
<trkpt lat="49.58221052773297" lon="9.36831185594201">
<ele>410.2</ele>
<time>2024-05-09T10:05:55Z</time>
</trkpt>
<trkpt lat="49.58223341032863" lon="9.36833473853767">
<ele>410</ele>
<time>2024-05-09T10:05:56Z</time>
</trkpt>
<trkpt lat="49.58226006478071" lon="9.368363320827484">
<ele>410</ele>
<time>2024-05-09T10:05:57Z</time>
</trkpt>
<trkpt lat="49.582294430583715" lon="9.3683728761971">
<ele>409.8</ele>
<time>2024-05-09T10:05:58Z</time>
</trkpt>
<trkpt lat="49.58232494071126" lon="9.368388131260872">
<ele>409.8</ele>
<time>2024-05-09T10:05:59Z</time>
</trkpt>
<trkpt lat="49.58235167898238" lon="9.368408164009452">
<ele>409.8</ele>
<time>2024-05-09T10:06:00Z</time>
</trkpt>
<trkpt lat="49.58238596096635" lon="9.368426268920302">
<ele>409.8</ele>
<time>2024-05-09T10:06:01Z</time>
</trkpt>
<trkpt lat="49.58241647109389" lon="9.368439596146343">
<ele>409.6</ele>
<time>2024-05-09T10:06:02Z</time>
</trkpt>
<trkpt lat="49.58244320936501" lon="9.368459628894923">
<ele>409.6</ele>
<time>2024-05-09T10:06:03Z</time>
</trkpt>
<trkpt lat="49.58248134702444" lon="9.36847303994">
<ele>409.6</ele>
<time>2024-05-09T10:06:04Z</time>
</trkpt>
<trkpt lat="49.58250045776367" lon="9.36849013902247">
<ele>409.4</ele>
<time>2024-05-09T10:06:05Z</time>
</trkpt>
<trkpt lat="49.58251948468387" lon="9.36851017177105">
<ele>409.4</ele>
<time>2024-05-09T10:06:06Z</time>
</trkpt>
<trkpt lat="49.58253473974764" lon="9.36853020451963">
<ele>409.2</ele>
<time>2024-05-09T10:06:07Z</time>
</trkpt>
<trkpt lat="49.582549994811416" lon="9.36855023726821">
<ele>409</ele>
<time>2024-05-09T10:06:08Z</time>
</trkpt>
<trkpt lat="49.58256147801876" lon="9.36856834217906">
<ele>408.8</ele>
<time>2024-05-09T10:06:09Z</time>
</trkpt>
<trkpt lat="49.58257673308253" lon="9.368581753224134">
<ele>408.6</ele>
<time>2024-05-09T10:06:10Z</time>
</trkpt>
<trkpt lat="49.58258436061442" lon="9.36859130859375">
<ele>408.6</ele>
<time>2024-05-09T10:06:11Z</time>
</trkpt>
<trkpt lat="49.58259576000273" lon="9.368597930297256">
<ele>408.4</ele>
<time>2024-05-09T10:06:12Z</time>
</trkpt>
<trkpt lat="49.58260338753462" lon="9.368603629991412">
<ele>408.2</ele>
<time>2024-05-09T10:06:13Z</time>
</trkpt>
<trkpt lat="49.58261487074196" lon="9.368606563657522">
<ele>408</ele>
<time>2024-05-09T10:06:14Z</time>
</trkpt>
<trkpt lat="49.58262627013028" lon="9.36861033551395">
<ele>407.8</ele>
<time>2024-05-09T10:06:15Z</time>
</trkpt>
<trkpt lat="49.58263389766216" lon="9.368617963045835">
<ele>407.6</ele>
<time>2024-05-09T10:06:16Z</time>
</trkpt>
<trkpt lat="49.58264152519405" lon="9.368623662739992">
<ele>407.4</ele>
<time>2024-05-09T10:06:17Z</time>
</trkpt>
<trkpt lat="49.582653008401394" lon="9.368617963045835">
<ele>407.2</ele>
<time>2024-05-09T10:06:18Z</time>
</trkpt>
<trkpt lat="49.582653008401394" lon="9.368617041036488">
<ele>407</ele>
<time>2024-05-09T10:06:19Z</time>
</trkpt>
<trkpt lat="49.582653008401394" lon="9.368615113198755">
<ele>406.8</ele>
<time>2024-05-09T10:06:20Z</time>
</trkpt>
<trkpt lat="49.582653008401394" lon="9.368613185361028">
<ele>406.6</ele>
<time>2024-05-09T10:06:21Z</time>
</trkpt>
<trkpt lat="49.582653008401394" lon="9.368611257523298">
<ele>406.4</ele>
<time>2024-05-09T10:06:22Z</time>
</trkpt>
<trkpt lat="49.582653008401394" lon="9.36861033551395">
<ele>406.2</ele>
<time>2024-05-09T10:06:24Z</time>
</trkpt>
<trkpt lat="49.58265678025782" lon="9.36860840767622">
<ele>406</ele>
<time>2024-05-09T10:06:26Z</time>
</trkpt>
<trkpt lat="49.582653008401394" lon="9.368606563657522">
<ele>406</ele>
<time>2024-05-09T10:06:27Z</time>
</trkpt>
<trkpt lat="49.582653008401394" lon="9.368604635819793">
<ele>405.8</ele>
<time>2024-05-09T10:06:28Z</time>
</trkpt>
<trkpt lat="49.58265678025782" lon="9.368604635819793">
<ele>405.8</ele>
<time>2024-05-09T10:06:35Z</time>
</trkpt>
<trkpt lat="49.58266063593328" lon="9.36861033551395">
<ele>405.6</ele>
<time>2024-05-09T10:06:36Z</time>
</trkpt>
<trkpt lat="49.582668263465166" lon="9.368617041036488">
<ele>405.4</ele>
<time>2024-05-09T10:06:37Z</time>
</trkpt>
<trkpt lat="49.58267589099705" lon="9.368624668568373">
<ele>405.2</ele>
<time>2024-05-09T10:06:38Z</time>
</trkpt>
<trkpt lat="49.5826873742044" lon="9.368631290271878">
<ele>405.2</ele>
<time>2024-05-09T10:06:39Z</time>
</trkpt>
<trkpt lat="49.58269877359271" lon="9.368635145947335">
<ele>405</ele>
<time>2024-05-09T10:06:40Z</time>
</trkpt>
<trkpt lat="49.582710256800056" lon="9.368637995794415">
<ele>405</ele>
<time>2024-05-09T10:06:41Z</time>
</trkpt>
<trkpt lat="49.58272165618837" lon="9.368637995794415">
<ele>405</ele>
<time>2024-05-09T10:06:42Z</time>
</trkpt>
<trkpt lat="49.582729283720255" lon="9.368639923632143">
<ele>404.8</ele>
<time>2024-05-09T10:06:43Z</time>
</trkpt>
<trkpt lat="49.582733139395714" lon="9.36864654533565">
<ele>404.8</ele>
<time>2024-05-09T10:06:44Z</time>
</trkpt>
<trkpt lat="49.5827407669276" lon="9.36864654533565">
<ele>404.8</ele>
<time>2024-05-09T10:06:45Z</time>
</trkpt>
<trkpt lat="49.582748394459486" lon="9.368653250858188">
<ele>404.8</ele>
<time>2024-05-09T10:06:46Z</time>
</trkpt>
<trkpt lat="49.58275602199137" lon="9.368655178695915">
<ele>404.6</ele>
<time>2024-05-09T10:06:47Z</time>
</trkpt>
<trkpt lat="49.5827597938478" lon="9.368659956380723">
<ele>404.6</ele>
<time>2024-05-09T10:06:48Z</time>
</trkpt>
<trkpt lat="49.58277504891157" lon="9.368661800399424">
<ele>404.4</ele>
<time>2024-05-09T10:06:49Z</time>
</trkpt>
<trkpt lat="49.58278267644346" lon="9.368661800399424">
<ele>404.4</ele>
<time>2024-05-09T10:06:50Z</time>
</trkpt>
<trkpt lat="49.58279793150723" lon="9.368657106533648">
<ele>404.2</ele>
<time>2024-05-09T10:06:51Z</time>
</trkpt>
<trkpt lat="49.582813186571" lon="9.36865040101111">
<ele>404.2</ele>
<time>2024-05-09T10:06:52Z</time>
</trkpt>
<trkpt lat="49.58282466977835" lon="9.36864847317338">
<ele>404.2</ele>
<time>2024-05-09T10:06:53Z</time>
</trkpt>
<trkpt lat="49.58283992484212" lon="9.36864847317338">
<ele>404.2</ele>
<time>2024-05-09T10:06:54Z</time>
</trkpt>
<trkpt lat="49.582847552374005" lon="9.36865040101111">
<ele>404.2</ele>
<time>2024-05-09T10:06:55Z</time>
</trkpt>
<trkpt lat="49.58285517990589" lon="9.368651323020458">
<ele>404.2</ele>
<time>2024-05-09T10:06:56Z</time>
</trkpt>
<trkpt lat="49.582870434969664" lon="9.368653250858188">
<ele>404.2</ele>
<time>2024-05-09T10:06:57Z</time>
</trkpt>
<trkpt lat="49.58290094509721" lon="9.368595080450175">
<ele>404.2</ele>
<time>2024-05-09T10:06:58Z</time>
</trkpt>
<trkpt lat="49.58292005583644" lon="9.368553087115288">
<ele>404.2</ele>
<time>2024-05-09T10:06:59Z</time>
</trkpt>
<trkpt lat="49.58293531090021" lon="9.368534982204435">
<ele>404.2</ele>
<time>2024-05-09T10:07:00Z</time>
</trkpt>
<trkpt lat="49.58295819349587" lon="9.368519727140663">
<ele>404</ele>
<time>2024-05-09T10:07:01Z</time>
</trkpt>
<trkpt lat="49.58297344855964" lon="9.368503550067544">
<ele>404</ele>
<time>2024-05-09T10:07:02Z</time>
</trkpt>
<trkpt lat="49.582984847947955" lon="9.36849013902247">
<ele>404</ele>
<time>2024-05-09T10:07:03Z</time>
</trkpt>
<trkpt lat="49.58300010301173" lon="9.368481589481236">
<ele>404</ele>
<time>2024-05-09T10:07:04Z</time>
</trkpt>
<trkpt lat="49.58301158621907" lon="9.368476811796429">
<ele>404</ele>
<time>2024-05-09T10:07:05Z</time>
</trkpt>
<trkpt lat="49.58301158621907" lon="9.36847303994">
<ele>404</ele>
<time>2024-05-09T10:07:06Z</time>
</trkpt>
<trkpt lat="49.58301544189453" lon="9.36847303994">
<ele>404</ele>
<time>2024-05-09T10:07:07Z</time>
</trkpt>
<trkpt lat="49.58301544189453" lon="9.368474883958696">
<ele>404</ele>
<time>2024-05-09T10:07:08Z</time>
</trkpt>
<trkpt lat="49.58301921375096" lon="9.36847303994">
<ele>404</ele>
<time>2024-05-09T10:07:09Z</time>
</trkpt>
<trkpt lat="49.58302306942642" lon="9.36847203411162">
<ele>404</ele>
<time>2024-05-09T10:07:11Z</time>
</trkpt>
<trkpt lat="49.58302306942642" lon="9.36847303994">
<ele>404</ele>
<time>2024-05-09T10:07:12Z</time>
</trkpt>
<trkpt lat="49.58302306942642" lon="9.368474883958696">
<ele>404</ele>
<time>2024-05-09T10:07:13Z</time>
</trkpt>
<trkpt lat="49.583026841282845" lon="9.368476811796429">
<ele>404</ele>
<time>2024-05-09T10:07:14Z</time>
</trkpt>
<trkpt lat="49.583026841282845" lon="9.368478739634156">
<ele>404</ele>
<time>2024-05-09T10:07:15Z</time>
</trkpt>
<trkpt lat="49.5830306969583" lon="9.368478739634156">
<ele>404</ele>
<time>2024-05-09T10:07:16Z</time>
</trkpt>
<trkpt lat="49.5830306969583" lon="9.368476811796429">
<ele>404</ele>
<time>2024-05-09T10:07:17Z</time>
</trkpt>
<trkpt lat="49.5830306969583" lon="9.368474883958696">
<ele>404</ele>
<time>2024-05-09T10:07:18Z</time>
</trkpt>
<trkpt lat="49.58303446881473" lon="9.368474883958696">
<ele>403.8</ele>
<time>2024-05-09T10:07:19Z</time>
</trkpt>
<trkpt lat="49.58303832449019" lon="9.36847303994">
<ele>403.8</ele>
<time>2024-05-09T10:07:21Z</time>
</trkpt>
<trkpt lat="49.58303832449019" lon="9.368474883958696">
<ele>403.6</ele>
<time>2024-05-09T10:07:26Z</time>
</trkpt>
<trkpt lat="49.58304209634662" lon="9.368474883958696">
<ele>403.4</ele>
<time>2024-05-09T10:07:27Z</time>
</trkpt>
<trkpt lat="49.58304209634662" lon="9.368476811796429">
<ele>403.4</ele>
<time>2024-05-09T10:07:28Z</time>
</trkpt>
<trkpt lat="49.58304209634662" lon="9.368478739634156">
<ele>403.2</ele>
<time>2024-05-09T10:07:32Z</time>
</trkpt>
<trkpt lat="49.58304209634662" lon="9.368479661643503">
<ele>403</ele>
<time>2024-05-09T10:07:34Z</time>
</trkpt>
<trkpt lat="49.58304209634662" lon="9.368478739634156">
<ele>402.8</ele>
<time>2024-05-09T10:07:37Z</time>
</trkpt>
<trkpt lat="49.58304595202208" lon="9.368481589481236">
<ele>402.6</ele>
<time>2024-05-09T10:07:39Z</time>
</trkpt>
<trkpt lat="49.58305357955396" lon="9.368478739634156">
<ele>402.2</ele>
<time>2024-05-09T10:07:40Z</time>
</trkpt>
<trkpt lat="49.583064978942275" lon="9.36847303994">
<ele>402</ele>
<time>2024-05-09T10:07:41Z</time>
</trkpt>
<trkpt lat="49.58309171721339" lon="9.36847303994">
<ele>401.8</ele>
<time>2024-05-09T10:07:42Z</time>
</trkpt>
<trkpt lat="49.58311459980905" lon="9.368466334417462">
<ele>401.6</ele>
<time>2024-05-09T10:07:43Z</time>
</trkpt>
<trkpt lat="49.583141254261136" lon="9.36845200136304">
<ele>401.6</ele>
<time>2024-05-09T10:07:44Z</time>
</trkpt>
<trkpt lat="49.583164136856794" lon="9.368434902280567">
<ele>401.4</ele>
<time>2024-05-09T10:07:45Z</time>
</trkpt>
<trkpt lat="49.58318710327149" lon="9.368419647216797">
<ele>401.2</ele>
<time>2024-05-09T10:07:46Z</time>
</trkpt>
<trkpt lat="49.58320998586714" lon="9.368399614468215">
<ele>401.2</ele>
<time>2024-05-09T10:07:47Z</time>
</trkpt>
<trkpt lat="49.5832328684628" lon="9.36839198693633">
<ele>401.2</ele>
<time>2024-05-09T10:07:48Z</time>
</trkpt>
<trkpt lat="49.583251895383" lon="9.368383353576064">
<ele>401</ele>
<time>2024-05-09T10:07:49Z</time>
</trkpt>
<trkpt lat="49.58326715044677" lon="9.36837195418775">
<ele>401</ele>
<time>2024-05-09T10:07:50Z</time>
</trkpt>
<trkpt lat="49.58327863365412" lon="9.368359548971055">
<ele>401</ele>
<time>2024-05-09T10:07:51Z</time>
</trkpt>
<trkpt lat="49.58329003304243" lon="9.368348065763712">
<ele>401</ele>
<time>2024-05-09T10:07:52Z</time>
</trkpt>
<trkpt lat="49.58330914378166" lon="9.368339516222475">
<ele>400.8</ele>
<time>2024-05-09T10:07:53Z</time>
</trkpt>
<trkpt lat="49.583324398845434" lon="9.368328033015132">
<ele>400.8</ele>
<time>2024-05-09T10:07:54Z</time>
</trkpt>
<trkpt lat="49.583339653909206" lon="9.36831378377974">
<ele>400.6</ele>
<time>2024-05-09T10:07:55Z</time>
</trkpt>
<trkpt lat="49.58335876464844" lon="9.368300372734666">
<ele>400.6</ele>
<time>2024-05-09T10:07:56Z</time>
</trkpt>
<trkpt lat="49.583381647244096" lon="9.368281345814466">
<ele>400.6</ele>
<time>2024-05-09T10:07:57Z</time>
</trkpt>
<trkpt lat="49.583400674164295" lon="9.368258463218808">
<ele>400.6</ele>
<time>2024-05-09T10:07:58Z</time>
</trkpt>
<trkpt lat="49.583419784903526" lon="9.36823365278542">
<ele>400.6</ele>
<time>2024-05-09T10:07:59Z</time>
</trkpt>
<trkpt lat="49.583442667499185" lon="9.368207920342684">
<ele>400.8</ele>
<time>2024-05-09T10:08:00Z</time>
</trkpt>
<trkpt lat="49.58346932195127" lon="9.368189731612802">
<ele>400.8</ele>
<time>2024-05-09T10:08:01Z</time>
</trkpt>
<trkpt lat="49.58349220454693" lon="9.368167854845524">
<ele>400.8</ele>
<time>2024-05-09T10:08:02Z</time>
</trkpt>
<trkpt lat="49.583518942818046" lon="9.368146816268563">
<ele>400.8</ele>
<time>2024-05-09T10:08:03Z</time>
</trkpt>
<trkpt lat="49.58355330862105" lon="9.368123011663556">
<ele>400.6</ele>
<time>2024-05-09T10:08:04Z</time>
</trkpt>
<trkpt lat="49.583579963073134" lon="9.368111528456213">
<ele>400.6</ele>
<time>2024-05-09T10:08:05Z</time>
</trkpt>
<trkpt lat="49.58361047320068" lon="9.36809627339244">
<ele>400.6</ele>
<time>2024-05-09T10:08:06Z</time>
</trkpt>
<trkpt lat="49.58363335579634" lon="9.368071546778085">
<ele>400.6</ele>
<time>2024-05-09T10:08:07Z</time>
</trkpt>
<trkpt lat="49.58366386592388" lon="9.368049586191772">
<ele>400.6</ele>
<time>2024-05-09T10:08:08Z</time>
</trkpt>
<trkpt lat="49.583698231726885" lon="9.368019998073578">
<ele>400.6</ele>
<time>2024-05-09T10:08:09Z</time>
</trkpt>
<trkpt lat="49.583724969998" lon="9.367988565936685">
<ele>400.8</ele>
<time>2024-05-09T10:08:10Z</time>
</trkpt>
<trkpt lat="49.583759251981974" lon="9.36795704998076">
<ele>400.8</ele>
<time>2024-05-09T10:08:11Z</time>
</trkpt>
<trkpt lat="49.58378976210952" lon="9.367921762168407">
<ele>401</ele>
<time>2024-05-09T10:08:12Z</time>
</trkpt>
<trkpt lat="49.58382027223706" lon="9.367883624508975">
<ele>401.2</ele>
<time>2024-05-09T10:08:13Z</time>
</trkpt>
<trkpt lat="49.58385078236461" lon="9.367855042219162">
<ele>401.2</ele>
<time>2024-05-09T10:08:14Z</time>
</trkpt>
<trkpt lat="49.58387752063573" lon="9.367835009470582">
<ele>401.4</ele>
<time>2024-05-09T10:08:15Z</time>
</trkpt>
<trkpt lat="49.58390425890684" lon="9.367811121046543">
<ele>401.4</ele>
<time>2024-05-09T10:08:16Z</time>
</trkpt>
<trkpt lat="49.58392328582704" lon="9.367785388603806">
<ele>401.4</ele>
<time>2024-05-09T10:08:17Z</time>
</trkpt>
<trkpt lat="49.58393854089081" lon="9.36775965616107">
<ele>401.4</ele>
<time>2024-05-09T10:08:18Z</time>
</trkpt>
<trkpt lat="49.58395765163005" lon="9.367736773565412">
<ele>401.2</ele>
<time>2024-05-09T10:08:19Z</time>
</trkpt>
<trkpt lat="49.58397667855024" lon="9.367714812979102">
<ele>401.2</ele>
<time>2024-05-09T10:08:20Z</time>
</trkpt>
<trkpt lat="49.5839995611459" lon="9.367696708068252">
<ele>401.2</ele>
<time>2024-05-09T10:08:21Z</time>
</trkpt>
<trkpt lat="49.584014816209674" lon="9.367674747481942">
<ele>401</ele>
<time>2024-05-09T10:08:22Z</time>
</trkpt>
<trkpt lat="49.58403769880533" lon="9.367648093029857">
<ele>401</ele>
<time>2024-05-09T10:08:23Z</time>
</trkpt>
<trkpt lat="49.58405680954456" lon="9.367614733055234">
<ele>400.8</ele>
<time>2024-05-09T10:08:24Z</time>
</trkpt>
<trkpt lat="49.58408354781568" lon="9.367596544325352">
<ele>400.8</ele>
<time>2024-05-09T10:08:25Z</time>
</trkpt>
<trkpt lat="49.58412168547511" lon="9.36758036725223">
<ele>400.8</ele>
<time>2024-05-09T10:08:26Z</time>
</trkpt>
<trkpt lat="49.58414456807077" lon="9.367561340332031">
<ele>400.6</ele>
<time>2024-05-09T10:08:27Z</time>
</trkpt>
<trkpt lat="49.58416745066643" lon="9.367553628981112">
<ele>400.6</ele>
<time>2024-05-09T10:08:28Z</time>
</trkpt>
<trkpt lat="49.58418647758663" lon="9.36754030175507">
<ele>400.4</ele>
<time>2024-05-09T10:08:29Z</time>
</trkpt>
<trkpt lat="49.5842017326504" lon="9.36752026900649">
<ele>400.2</ele>
<time>2024-05-09T10:08:30Z</time>
</trkpt>
<trkpt lat="49.58422084338963" lon="9.367496464401484">
<ele>400.2</ele>
<time>2024-05-09T10:08:31Z</time>
</trkpt>
<trkpt lat="49.584232326596975" lon="9.367471653968096">
<ele>400</ele>
<time>2024-05-09T10:08:32Z</time>
</trkpt>
<trkpt lat="49.58424758166075" lon="9.367448771372436">
<ele>400</ele>
<time>2024-05-09T10:08:33Z</time>
</trkpt>
<trkpt lat="49.58426283672452" lon="9.367429660633206">
<ele>400</ele>
<time>2024-05-09T10:08:34Z</time>
</trkpt>
<trkpt lat="49.58427423611283" lon="9.367408705875278">
<ele>400</ele>
<time>2024-05-09T10:08:35Z</time>
</trkpt>
<trkpt lat="49.584293346852064" lon="9.367389678955078">
<ele>400</ele>
<time>2024-05-09T10:08:36Z</time>
</trkpt>
<trkpt lat="49.58432000130415" lon="9.367366712540388">
<ele>399.8</ele>
<time>2024-05-09T10:08:37Z</time>
</trkpt>
<trkpt lat="49.58434673957527" lon="9.367341985926032">
<ele>399.8</ele>
<time>2024-05-09T10:08:38Z</time>
</trkpt>
<trkpt lat="49.584369622170925" lon="9.367313319817184">
<ele>399.8</ele>
<time>2024-05-09T10:08:39Z</time>
</trkpt>
<trkpt lat="49.58438873291016" lon="9.36728473752737">
<ele>399.6</ele>
<time>2024-05-09T10:08:40Z</time>
</trkpt>
<trkpt lat="49.58440775983035" lon="9.367255149409177">
<ele>399.6</ele>
<time>2024-05-09T10:08:41Z</time>
</trkpt>
<trkpt lat="49.58442301489413" lon="9.367230338975787">
<ele>399.4</ele>
<time>2024-05-09T10:08:42Z</time>
</trkpt>
<trkpt lat="49.58443449810147" lon="9.367203684523702">
<ele>399.2</ele>
<time>2024-05-09T10:08:43Z</time>
</trkpt>
<trkpt lat="49.584449753165245" lon="9.36718457378447">
<ele>399</ele>
<time>2024-05-09T10:08:44Z</time>
</trkpt>
<trkpt lat="49.58446500822902" lon="9.36716646887362">
<ele>399</ele>
<time>2024-05-09T10:08:45Z</time>
</trkpt>
<trkpt lat="49.5844726357609" lon="9.367136880755424">
<ele>398.8</ele>
<time>2024-05-09T10:08:46Z</time>
</trkpt>
<trkpt lat="49.58448026329279" lon="9.36711022630334">
<ele>398.8</ele>
<time>2024-05-09T10:08:47Z</time>
</trkpt>
<trkpt lat="49.5844916626811" lon="9.367083488032222">
<ele>398.6</ele>
<time>2024-05-09T10:08:48Z</time>
</trkpt>
<trkpt lat="49.584506917744875" lon="9.367052977904676">
<ele>398.6</ele>
<time>2024-05-09T10:08:49Z</time>
</trkpt>
<trkpt lat="49.58452217280865" lon="9.36703009530902">
<ele>398.8</ele>
<time>2024-05-09T10:08:50Z</time>
</trkpt>
<trkpt lat="49.58453742787242" lon="9.367006290704012">
<ele>399</ele>
<time>2024-05-09T10:08:51Z</time>
</trkpt>
<trkpt lat="49.58455653861165" lon="9.366979552432896">
<ele>399</ele>
<time>2024-05-09T10:08:52Z</time>
</trkpt>
<trkpt lat="49.58457564935088" lon="9.366954741999509">
<ele>399.2</ele>
<time>2024-05-09T10:08:53Z</time>
</trkpt>
<trkpt lat="49.584606159478426" lon="9.36691283248365">
<ele>399.4</ele>
<time>2024-05-09T10:08:54Z</time>
</trkpt>
<trkpt lat="49.5846214145422" lon="9.366880394518375">
<ele>399.4</ele>
<time>2024-05-09T10:08:55Z</time>
</trkpt>
<trkpt lat="49.58463666960597" lon="9.366845106706023">
<ele>399.6</ele>
<time>2024-05-09T10:08:56Z</time>
</trkpt>
<trkpt lat="49.58464806899429" lon="9.366807891055942">
<ele>400</ele>
<time>2024-05-09T10:08:57Z</time>
</trkpt>
<trkpt lat="49.584663324058056" lon="9.366767825558782">
<ele>400.2</ele>
<time>2024-05-09T10:08:58Z</time>
</trkpt>
<trkpt lat="49.5846748072654" lon="9.3667115829885">
<ele>400.6</ele>
<time>2024-05-09T10:08:59Z</time>
</trkpt>
<trkpt lat="49.58469006232917" lon="9.36665341258049">
<ele>401</ele>
<time>2024-05-09T10:09:00Z</time>
</trkpt>
<trkpt lat="49.58471294492483" lon="9.366600019857287">
<ele>401.2</ele>
<time>2024-05-09T10:09:01Z</time>
</trkpt>
<trkpt lat="49.58472057245672" lon="9.366550398990512">
<ele>401.6</ele>
<time>2024-05-09T10:09:02Z</time>
</trkpt>
<trkpt lat="49.58473582752049" lon="9.366491306573153">
<ele>402</ele>
<time>2024-05-09T10:09:03Z</time>
</trkpt>
<trkpt lat="49.584743455052376" lon="9.366439757868648">
<ele>402.2</ele>
<time>2024-05-09T10:09:04Z</time>
</trkpt>
<trkpt lat="49.584747310727835" lon="9.366386365145445">
<ele>402.6</ele>
<time>2024-05-09T10:09:05Z</time>
</trkpt>
<trkpt lat="49.58475108258426" lon="9.36633674427867">
<ele>402.8</ele>
<time>2024-05-09T10:09:06Z</time>
</trkpt>
<trkpt lat="49.58475108258426" lon="9.366288129240274">
<ele>403</ele>
<time>2024-05-09T10:09:07Z</time>
</trkpt>
<trkpt lat="49.58475871011615" lon="9.366246219724417">
<ele>403.4</ele>
<time>2024-05-09T10:09:08Z</time>
</trkpt>
<trkpt lat="49.58476256579161" lon="9.366203304380178">
<ele>403.6</ele>
<time>2024-05-09T10:09:09Z</time>
</trkpt>
<trkpt lat="49.58476256579161" lon="9.36615846119821">
<ele>403.8</ele>
<time>2024-05-09T10:09:10Z</time>
</trkpt>
<trkpt lat="49.58475493825972" lon="9.366111690178514">
<ele>404.2</ele>
<time>2024-05-09T10:09:11Z</time>
</trkpt>
<trkpt lat="49.58475108258426" lon="9.366067852824926">
<ele>404.4</ele>
<time>2024-05-09T10:09:12Z</time>
</trkpt>
<trkpt lat="49.584743455052376" lon="9.366026865318418">
<ele>404.6</ele>
<time>2024-05-09T10:09:13Z</time>
</trkpt>
<trkpt lat="49.58473968319595" lon="9.3659829441458">
<ele>404.6</ele>
<time>2024-05-09T10:09:14Z</time>
</trkpt>
<trkpt lat="49.58473205566406" lon="9.365935251116753">
<ele>404.8</ele>
<time>2024-05-09T10:09:15Z</time>
</trkpt>
<trkpt lat="49.584724344313145" lon="9.365896191447971">
<ele>404.8</ele>
<time>2024-05-09T10:09:16Z</time>
</trkpt>
<trkpt lat="49.58471671678126" lon="9.36586182564497">
<ele>404.8</ele>
<time>2024-05-09T10:09:17Z</time>
</trkpt>
<trkpt lat="49.58470908924937" lon="9.365826537832618">
<ele>405</ele>
<time>2024-05-09T10:09:18Z</time>
</trkpt>
<trkpt lat="49.584701461717486" lon="9.365788400173187">
<ele>405</ele>
<time>2024-05-09T10:09:19Z</time>
</trkpt>
<trkpt lat="49.5846938341856" lon="9.365748334676027">
<ele>405.2</ele>
<time>2024-05-09T10:09:20Z</time>
</trkpt>
<trkpt lat="49.58469006232917" lon="9.365716902539134">
<ele>405.2</ele>
<time>2024-05-09T10:09:21Z</time>
</trkpt>
<trkpt lat="49.58468243479729" lon="9.36568446457386">
<ele>405.4</ele>
<time>2024-05-09T10:09:22Z</time>
</trkpt>
<trkpt lat="49.5846748072654" lon="9.365653032436969">
<ele>405.6</ele>
<time>2024-05-09T10:09:23Z</time>
</trkpt>
<trkpt lat="49.584667179733515" lon="9.365621516481042">
<ele>405.6</ele>
<time>2024-05-09T10:09:24Z</time>
</trkpt>
<trkpt lat="49.584667179733515" lon="9.365581450983882">
<ele>405.8</ele>
<time>2024-05-09T10:09:25Z</time>
</trkpt>
<trkpt lat="49.584667179733515" lon="9.365551946684718">
<ele>405.8</ele>
<time>2024-05-09T10:09:26Z</time>
</trkpt>
<trkpt lat="49.584663324058056" lon="9.365536607801914">
<ele>406</ele>
<time>2024-05-09T10:09:27Z</time>
</trkpt>
<trkpt lat="49.58465569652617" lon="9.36552805826068">
<ele>406</ele>
<time>2024-05-09T10:09:28Z</time>
</trkpt>
<trkpt lat="49.58464806899429" lon="9.3655252084136">
<ele>406</ele>
<time>2024-05-09T10:09:29Z</time>
</trkpt>
<trkpt lat="49.5846404414624" lon="9.365523280575871">
<ele>406.2</ele>
<time>2024-05-09T10:09:30Z</time>
</trkpt>
<trkpt lat="49.58463281393051" lon="9.365534763783216">
<ele>406.2</ele>
<time>2024-05-09T10:09:31Z</time>
</trkpt>
<trkpt lat="49.584625186398625" lon="9.365532835945489">
<ele>406.2</ele>
<time>2024-05-09T10:09:32Z</time>
</trkpt>
<trkpt lat="49.584625186398625" lon="9.365531913936138">
<ele>406.4</ele>
<time>2024-05-09T10:09:34Z</time>
</trkpt>
<trkpt lat="49.584625186398625" lon="9.36552805826068">
<ele>406.4</ele>
<time>2024-05-09T10:09:35Z</time>
</trkpt>
<trkpt lat="49.584625186398625" lon="9.36552613042295">
<ele>406.2</ele>
<time>2024-05-09T10:09:38Z</time>
</trkpt>
<trkpt lat="49.584625186398625" lon="9.3655252084136">
<ele>406.2</ele>
<time>2024-05-09T10:09:42Z</time>
</trkpt>
<trkpt lat="49.584625186398625" lon="9.36552613042295">
<ele>406.2</ele>
<time>2024-05-09T10:09:44Z</time>
</trkpt>
<trkpt lat="49.584625186398625" lon="9.3655252084136">
<ele>406</ele>
<time>2024-05-09T10:09:45Z</time>
</trkpt>
<trkpt lat="49.584625186398625" lon="9.365523280575871">
<ele>405.8</ele>
<time>2024-05-09T10:09:46Z</time>
</trkpt>
<trkpt lat="49.584625186398625" lon="9.365521352738142">
<ele>405.8</ele>
<time>2024-05-09T10:09:48Z</time>
</trkpt>
<trkpt lat="49.584625186398625" lon="9.365520430728791">
<ele>405.6</ele>
<time>2024-05-09T10:09:50Z</time>
</trkpt>
<trkpt lat="49.5846214145422" lon="9.365512803196909">
<ele>405.6</ele>
<time>2024-05-09T10:09:51Z</time>
</trkpt>
<trkpt lat="49.5846214145422" lon="9.3655080255121">
<ele>405.4</ele>
<time>2024-05-09T10:09:52Z</time>
</trkpt>
<trkpt lat="49.5846214145422" lon="9.36550710350275">
<ele>405.4</ele>
<time>2024-05-09T10:09:54Z</time>
</trkpt>
<trkpt lat="49.5846214145422" lon="9.3655080255121">
<ele>405.4</ele>
<time>2024-05-09T10:09:55Z</time>
</trkpt>
<trkpt lat="49.5846214145422" lon="9.365509953349829">
<ele>405.2</ele>
<time>2024-05-09T10:09:58Z</time>
</trkpt>
<trkpt lat="49.58461755886674" lon="9.365511881187558">
<ele>405.2</ele>
<time>2024-05-09T10:09:59Z</time>
</trkpt>
<trkpt lat="49.58461378701031" lon="9.365516658872366">
<ele>405</ele>
<time>2024-05-09T10:10:00Z</time>
</trkpt>
<trkpt lat="49.58461378701031" lon="9.365514731034636">
<ele>405</ele>
<time>2024-05-09T10:10:01Z</time>
</trkpt>
<trkpt lat="49.58461378701031" lon="9.365516658872366">
<ele>404.8</ele>
<time>2024-05-09T10:10:02Z</time>
</trkpt>
<trkpt lat="49.58461378701031" lon="9.365518502891064">
<ele>404.8</ele>
<time>2024-05-09T10:10:03Z</time>
</trkpt>
<trkpt lat="49.58461378701031" lon="9.365520430728791">
<ele>404.6</ele>
<time>2024-05-09T10:10:05Z</time>
</trkpt>
<trkpt lat="49.58461755886674" lon="9.365521352738142">
<ele>404.6</ele>
<time>2024-05-09T10:10:07Z</time>
</trkpt>
<trkpt lat="49.58461755886674" lon="9.365523280575871">
<ele>404.4</ele>
<time>2024-05-09T10:10:08Z</time>
</trkpt>
<trkpt lat="49.58461755886674" lon="9.3655252084136">
<ele>404.4</ele>
<time>2024-05-09T10:10:10Z</time>
</trkpt>
<trkpt lat="49.58461755886674" lon="9.36552613042295">
<ele>404.4</ele>
<time>2024-05-09T10:10:12Z</time>
</trkpt>
<trkpt lat="49.58461378701031" lon="9.36552805826068">
<ele>404.2</ele>
<time>2024-05-09T10:10:13Z</time>
</trkpt>
<trkpt lat="49.58461755886674" lon="9.36552805826068">
<ele>404.2</ele>
<time>2024-05-09T10:10:14Z</time>
</trkpt>
<trkpt lat="49.58461755886674" lon="9.365529986098409">
<ele>404</ele>
<time>2024-05-09T10:10:16Z</time>
</trkpt>
<trkpt lat="49.58461755886674" lon="9.365531913936138">
<ele>404</ele>
<time>2024-05-09T10:10:21Z</time>
</trkpt>
<trkpt lat="49.5846214145422" lon="9.365531913936138">
<ele>403.8</ele>
<time>2024-05-09T10:10:25Z</time>
</trkpt>
<trkpt lat="49.5846214145422" lon="9.365529986098409">
<ele>403.8</ele>
<time>2024-05-09T10:10:29Z</time>
</trkpt>
<trkpt lat="49.5846214145422" lon="9.36552805826068">
<ele>403.8</ele>
<time>2024-05-09T10:10:32Z</time>
</trkpt>
<trkpt lat="49.5846214145422" lon="9.36552613042295">
<ele>403.8</ele>
<time>2024-05-09T10:10:34Z</time>
</trkpt>
<trkpt lat="49.5846214145422" lon="9.3655252084136">
<ele>403.8</ele>
<time>2024-05-09T10:10:39Z</time>
</trkpt>
<trkpt lat="49.5846214145422" lon="9.365523280575871">
<ele>403.8</ele>
<time>2024-05-09T10:10:41Z</time>
</trkpt>
<trkpt lat="49.5846214145422" lon="9.365521352738142">
<ele>403.8</ele>
<time>2024-05-09T10:10:42Z</time>
</trkpt>
<trkpt lat="49.5846214145422" lon="9.365520430728791">
<ele>403.8</ele>
<time>2024-05-09T10:10:45Z</time>
</trkpt>
<trkpt lat="49.5846214145422" lon="9.365518502891064">
<ele>404</ele>
<time>2024-05-09T10:10:48Z</time>
</trkpt>
<trkpt lat="49.58461755886674" lon="9.365518502891064">
<ele>404</ele>
<time>2024-05-09T10:10:52Z</time>
</trkpt>
<trkpt lat="49.58461378701031" lon="9.365518502891064">
<ele>404</ele>
<time>2024-05-09T10:10:57Z</time>
</trkpt>
<trkpt lat="49.58460993133485" lon="9.365518502891064">
<ele>404.2</ele>
<time>2024-05-09T10:11:03Z</time>
</trkpt>
<trkpt lat="49.58460993133485" lon="9.365516658872366">
<ele>404.2</ele>
<time>2024-05-09T10:11:07Z</time>
</trkpt>
<trkpt lat="49.58460993133485" lon="9.365514731034636">
<ele>404.4</ele>
<time>2024-05-09T10:11:09Z</time>
</trkpt>
<trkpt lat="49.58460993133485" lon="9.365516658872366">
<ele>404.4</ele>
<time>2024-05-09T10:11:12Z</time>
</trkpt>
<trkpt lat="49.58460993133485" lon="9.365514731034636">
<ele>404.4</ele>
<time>2024-05-09T10:11:18Z</time>
</trkpt>
<trkpt lat="49.58460993133485" lon="9.365516658872366">
<ele>404.4</ele>
<time>2024-05-09T10:11:19Z</time>
</trkpt>
<trkpt lat="49.58461378701031" lon="9.365516658872366">
<ele>404.4</ele>
<time>2024-05-09T10:11:28Z</time>
</trkpt>
<trkpt lat="49.58461378701031" lon="9.365518502891064">
<ele>404.4</ele>
<time>2024-05-09T10:11:33Z</time>
</trkpt>
<trkpt lat="49.58461378701031" lon="9.365520430728791">
<ele>404.6</ele>
<time>2024-05-09T10:11:36Z</time>
</trkpt>
<trkpt lat="49.58461378701031" lon="9.365521352738142">
<ele>404.6</ele>
<time>2024-05-09T10:11:40Z</time>
</trkpt>
<trkpt lat="49.58461378701031" lon="9.365523280575871">
<ele>404.6</ele>
<time>2024-05-09T10:11:42Z</time>
</trkpt>
<trkpt lat="49.58461378701031" lon="9.3655252084136">
<ele>404.6</ele>
<time>2024-05-09T10:11:44Z</time>
</trkpt>
<trkpt lat="49.58461755886674" lon="9.3655252084136">
<ele>404.8</ele>
<time>2024-05-09T10:11:47Z</time>
</trkpt>
<trkpt lat="49.58461378701031" lon="9.3655252084136">
<ele>405</ele>
<time>2024-05-09T10:11:50Z</time>
</trkpt>
<trkpt lat="49.58461378701031" lon="9.36552613042295">
<ele>405</ele>
<time>2024-05-09T10:11:51Z</time>
</trkpt>
<trkpt lat="49.58461755886674" lon="9.36552613042295">
<ele>405.2</ele>
<time>2024-05-09T10:11:52Z</time>
</trkpt>
<trkpt lat="49.58461755886674" lon="9.36552805826068">
<ele>405.2</ele>
<time>2024-05-09T10:11:54Z</time>
</trkpt>
<trkpt lat="49.58461755886674" lon="9.365529986098409">
<ele>405.2</ele>
<time>2024-05-09T10:11:57Z</time>
</trkpt>
<trkpt lat="49.58461378701031" lon="9.365529986098409">
<ele>405.2</ele>
<time>2024-05-09T10:12:00Z</time>
</trkpt>
<trkpt lat="49.58461755886674" lon="9.365531913936138">
<ele>405.2</ele>
<time>2024-05-09T10:12:04Z</time>
</trkpt>
<trkpt lat="49.58461755886674" lon="9.365532835945489">
<ele>405.2</ele>
<time>2024-05-09T10:12:08Z</time>
</trkpt>
<trkpt lat="49.58461755886674" lon="9.365534763783216">
<ele>405.4</ele>
<time>2024-05-09T10:12:13Z</time>
</trkpt>
<trkpt lat="49.58461755886674" lon="9.365536607801914">
<ele>405.4</ele>
<time>2024-05-09T10:12:29Z</time>
</trkpt>
<trkpt lat="49.58461755886674" lon="9.365538535639644">
<ele>405.4</ele>
<time>2024-05-09T10:12:32Z</time>
</trkpt>
<trkpt lat="49.58461378701031" lon="9.365538535639644">
<ele>405.4</ele>
<time>2024-05-09T10:12:45Z</time>
</trkpt>
<trkpt lat="49.58461378701031" lon="9.365539541468024">
<ele>405.4</ele>
<time>2024-05-09T10:12:46Z</time>
</trkpt>
<trkpt lat="49.58461378701031" lon="9.365541385486722">
<ele>405.4</ele>
<time>2024-05-09T10:12:50Z</time>
</trkpt>
<trkpt lat="49.58460993133485" lon="9.365541385486722">
<ele>405.2</ele>
<time>2024-05-09T10:12:53Z</time>
</trkpt>
<trkpt lat="49.58460993133485" lon="9.365543313324451">
<ele>405.2</ele>
<time>2024-05-09T10:12:54Z</time>
</trkpt>
<trkpt lat="49.58460993133485" lon="9.365541385486722">
<ele>405</ele>
<time>2024-05-09T10:12:58Z</time>
</trkpt>
<trkpt lat="49.58460993133485" lon="9.365543313324451">
<ele>405</ele>
<time>2024-05-09T10:12:59Z</time>
</trkpt>
<trkpt lat="49.58460993133485" lon="9.365541385486722">
<ele>404.8</ele>
<time>2024-05-09T10:13:03Z</time>
</trkpt>
<trkpt lat="49.58460993133485" lon="9.365539541468024">
<ele>404.8</ele>
<time>2024-05-09T10:13:12Z</time>
</trkpt>
<trkpt lat="49.58460993133485" lon="9.365538535639644">
<ele>404.6</ele>
<time>2024-05-09T10:13:16Z</time>
</trkpt>
<trkpt lat="49.58460993133485" lon="9.365536607801914">
<ele>404.6</ele>
<time>2024-05-09T10:13:18Z</time>
</trkpt>
<trkpt lat="49.58460993133485" lon="9.365534763783216">
<ele>404.4</ele>
<time>2024-05-09T10:13:21Z</time>
</trkpt>
<trkpt lat="49.58460993133485" lon="9.365536607801914">
<ele>404.4</ele>
<time>2024-05-09T10:13:23Z</time>
</trkpt>
<trkpt lat="49.58460993133485" lon="9.365534763783216">
<ele>404.2</ele>
<time>2024-05-09T10:13:30Z</time>
</trkpt>
<trkpt lat="49.58461378701031" lon="9.365534763783216">
<ele>404.2</ele>
<time>2024-05-09T10:13:33Z</time>
</trkpt>
<trkpt lat="49.58461378701031" lon="9.365532835945489">
<ele>404.2</ele>
<time>2024-05-09T10:13:36Z</time>
</trkpt>
<trkpt lat="49.58461755886674" lon="9.365532835945489">
<ele>404.2</ele>
<time>2024-05-09T10:13:39Z</time>
</trkpt>
<trkpt lat="49.5846214145422" lon="9.365532835945489">
<ele>404.2</ele>
<time>2024-05-09T10:13:44Z</time>
</trkpt>
<trkpt lat="49.5846214145422" lon="9.365534763783216">
<ele>404.4</ele>
<time>2024-05-09T10:13:53Z</time>
</trkpt>
<trkpt lat="49.5846214145422" lon="9.365532835945489">
<ele>404.6</ele>
<time>2024-05-09T10:14:02Z</time>
</trkpt>
<trkpt lat="49.584625186398625" lon="9.365532835945489">
<ele>404.8</ele>
<time>2024-05-09T10:14:04Z</time>
</trkpt>
<trkpt lat="49.584625186398625" lon="9.365531913936138">
<ele>404.8</ele>
<time>2024-05-09T10:14:05Z</time>
</trkpt>
<trkpt lat="49.5846214145422" lon="9.365532835945489">
<ele>405</ele>
<time>2024-05-09T10:14:08Z</time>
</trkpt>
<trkpt lat="49.58461755886674" lon="9.365534763783216">
<ele>405</ele>
<time>2024-05-09T10:14:22Z</time>
</trkpt>
<trkpt lat="49.58461755886674" lon="9.365536607801914">
<ele>405.2</ele>
<time>2024-05-09T10:14:25Z</time>
</trkpt>
<trkpt lat="49.58461755886674" lon="9.365538535639644">
<ele>405.2</ele>
<time>2024-05-09T10:14:29Z</time>
</trkpt>
<trkpt lat="49.58461755886674" lon="9.365539541468024">
<ele>405.4</ele>
<time>2024-05-09T10:14:43Z</time>
</trkpt>
<trkpt lat="49.58461378701031" lon="9.365539541468024">
<ele>405.4</ele>
<time>2024-05-09T10:14:44Z</time>
</trkpt>
<trkpt lat="49.58461378701031" lon="9.365541385486722">
<ele>405.4</ele>
<time>2024-05-09T10:14:47Z</time>
</trkpt>
<trkpt lat="49.58461378701031" lon="9.365543313324451">
<ele>405.4</ele>
<time>2024-05-09T10:14:52Z</time>
</trkpt>
<trkpt lat="49.58461378701031" lon="9.36554524116218">
<ele>405.4</ele>
<time>2024-05-09T10:14:55Z</time>
</trkpt>
<trkpt lat="49.58460993133485" lon="9.36554524116218">
<ele>405.4</ele>
<time>2024-05-09T10:14:56Z</time>
</trkpt>
<trkpt lat="49.58460993133485" lon="9.36554616317153">
<ele>405.6</ele>
<time>2024-05-09T10:14:57Z</time>
</trkpt>
<trkpt lat="49.584606159478426" lon="9.36554616317153">
<ele>405.6</ele>
<time>2024-05-09T10:15:08Z</time>
</trkpt>
<trkpt lat="49.584606159478426" lon="9.36554809100926">
<ele>405.6</ele>
<time>2024-05-09T10:15:12Z</time>
</trkpt>
<trkpt lat="49.58460230380297" lon="9.365550018846989">
<ele>405.6</ele>
<time>2024-05-09T10:15:20Z</time>
</trkpt>
<trkpt lat="49.58460230380297" lon="9.365551946684718">
<ele>405.6</ele>
<time>2024-05-09T10:15:26Z</time>
</trkpt>
<trkpt lat="49.58459853194654" lon="9.365551946684718">
<ele>405.6</ele>
<time>2024-05-09T10:15:27Z</time>
</trkpt>
<trkpt lat="49.58459853194654" lon="9.365552868694069">
<ele>405.6</ele>
<time>2024-05-09T10:15:30Z</time>
</trkpt>
<trkpt lat="49.58459853194654" lon="9.365554796531796">
<ele>405.6</ele>
<time>2024-05-09T10:15:34Z</time>
</trkpt>
<trkpt lat="49.58459853194654" lon="9.365556640550494">
<ele>405.6</ele>
<time>2024-05-09T10:15:39Z</time>
</trkpt>
<trkpt lat="49.58459853194654" lon="9.365558568388224">
<ele>405.6</ele>
<time>2024-05-09T10:15:44Z</time>
</trkpt>
<trkpt lat="49.58460230380297" lon="9.365559574216604">
<ele>405.6</ele>
<time>2024-05-09T10:15:49Z</time>
</trkpt>
<trkpt lat="49.58460230380297" lon="9.365561418235302">
<ele>405.6</ele>
<time>2024-05-09T10:15:53Z</time>
</trkpt>
<trkpt lat="49.584606159478426" lon="9.365563346073031">
<ele>405.6</ele>
<time>2024-05-09T10:15:57Z</time>
</trkpt>
<trkpt lat="49.584606159478426" lon="9.36556527391076">
<ele>405.4</ele>
<time>2024-05-09T10:16:03Z</time>
</trkpt>
<trkpt lat="49.584606159478426" lon="9.36556619592011">
<ele>405.4</ele>
<time>2024-05-09T10:16:09Z</time>
</trkpt>
<trkpt lat="49.58460993133485" lon="9.36556619592011">
<ele>405.4</ele>
<time>2024-05-09T10:16:11Z</time>
</trkpt>
<trkpt lat="49.58460993133485" lon="9.36556812375784">
<ele>405.4</ele>
<time>2024-05-09T10:16:15Z</time>
</trkpt>
<trkpt lat="49.58460993133485" lon="9.36556619592011">
<ele>405.4</ele>
<time>2024-05-09T10:16:22Z</time>
</trkpt>
<trkpt lat="49.58460993133485" lon="9.36556527391076">
<ele>405.4</ele>
<time>2024-05-09T10:16:28Z</time>
</trkpt>
<trkpt lat="49.58460993133485" lon="9.36556619592011">
<ele>405.4</ele>
<time>2024-05-09T10:16:47Z</time>
</trkpt>
<trkpt lat="49.58460993133485" lon="9.36556812375784">
<ele>405.4</ele>
<time>2024-05-09T10:16:50Z</time>
</trkpt>
<trkpt lat="49.58461378701031" lon="9.36556812375784">
<ele>405.4</ele>
<time>2024-05-09T10:16:56Z</time>
</trkpt>
<trkpt lat="49.58461378701031" lon="9.365570051595569">
<ele>405.4</ele>
<time>2024-05-09T10:16:57Z</time>
</trkpt>
<trkpt lat="49.58461378701031" lon="9.36556812375784">
<ele>405.4</ele>
<time>2024-05-09T10:16:58Z</time>
</trkpt>
<trkpt lat="49.58461378701031" lon="9.365570051595569">
<ele>405.4</ele>
<time>2024-05-09T10:17:00Z</time>
</trkpt>
<trkpt lat="49.58461755886674" lon="9.36556812375784">
<ele>405.4</ele>
<time>2024-05-09T10:17:01Z</time>
</trkpt>
<trkpt lat="49.58461755886674" lon="9.36556619592011">
<ele>405.4</ele>
<time>2024-05-09T10:17:04Z</time>
</trkpt>
<trkpt lat="49.58461755886674" lon="9.36556527391076">
<ele>405.4</ele>
<time>2024-05-09T10:17:08Z</time>
</trkpt>
<trkpt lat="49.58461378701031" lon="9.36556527391076">
<ele>405.4</ele>
<time>2024-05-09T10:17:27Z</time>
</trkpt>
<trkpt lat="49.58461378701031" lon="9.36556619592011">
<ele>405.4</ele>
<time>2024-05-09T10:17:34Z</time>
</trkpt>
<trkpt lat="49.58461378701031" lon="9.36556527391076">
<ele>405.4</ele>
<time>2024-05-09T10:17:35Z</time>
</trkpt>
<trkpt lat="49.58461378701031" lon="9.36556619592011">
<ele>405.4</ele>
<time>2024-05-09T10:17:36Z</time>
</trkpt>
<trkpt lat="49.58461378701031" lon="9.36556527391076">
<ele>405.4</ele>
<time>2024-05-09T10:17:37Z</time>
</trkpt>
<trkpt lat="49.58461378701031" lon="9.36556619592011">
<ele>405.4</ele>
<time>2024-05-09T10:17:38Z</time>
</trkpt>
<trkpt lat="49.58460993133485" lon="9.36556619592011">
<ele>405.4</ele>
<time>2024-05-09T10:17:40Z</time>
</trkpt>
<trkpt lat="49.58461378701031" lon="9.36556527391076">
<ele>405.4</ele>
<time>2024-05-09T10:17:42Z</time>
</trkpt>
<trkpt lat="49.58460993133485" lon="9.36556527391076">
<ele>405.4</ele>
<time>2024-05-09T10:17:45Z</time>
</trkpt>
<trkpt lat="49.58460993133485" lon="9.36556619592011">
<ele>405.4</ele>
<time>2024-05-09T10:18:33Z</time>
</trkpt>
<trkpt lat="49.584606159478426" lon="9.36556619592011">
<ele>405.4</ele>
<time>2024-05-09T10:18:36Z</time>
</trkpt>
<trkpt lat="49.584606159478426" lon="9.36556812375784">
<ele>405.4</ele>
<time>2024-05-09T10:18:40Z</time>
</trkpt>
<trkpt lat="49.584606159478426" lon="9.36556619592011">
<ele>405.4</ele>
<time>2024-05-09T10:18:45Z</time>
</trkpt>
<trkpt lat="49.584606159478426" lon="9.36556527391076">
<ele>405.4</ele>
<time>2024-05-09T10:18:49Z</time>
</trkpt>
<trkpt lat="49.584606159478426" lon="9.365563346073031">
<ele>405.4</ele>
<time>2024-05-09T10:18:52Z</time>
</trkpt>
<trkpt lat="49.584606159478426" lon="9.365561418235302">
<ele>405.4</ele>
<time>2024-05-09T10:18:54Z</time>
</trkpt>
<trkpt lat="49.58460993133485" lon="9.365561418235302">
<ele>405.4</ele>
<time>2024-05-09T10:18:55Z</time>
</trkpt>
<trkpt lat="49.58460993133485" lon="9.365559574216604">
<ele>405.4</ele>
<time>2024-05-09T10:18:57Z</time>
</trkpt>
<trkpt lat="49.58460993133485" lon="9.365558568388224">
<ele>405.4</ele>
<time>2024-05-09T10:19:06Z</time>
</trkpt>
<trkpt lat="49.58460993133485" lon="9.365559574216604">
<ele>405.4</ele>
<time>2024-05-09T10:19:09Z</time>
</trkpt>
<trkpt lat="49.58461378701031" lon="9.365559574216604">
<ele>405.4</ele>
<time>2024-05-09T10:19:14Z</time>
</trkpt>
<trkpt lat="49.58461378701031" lon="9.365561418235302">
<ele>405.4</ele>
<time>2024-05-09T10:19:15Z</time>
</trkpt>
<trkpt lat="49.58461378701031" lon="9.365563346073031">
<ele>405.4</ele>
<time>2024-05-09T10:19:18Z</time>
</trkpt>
<trkpt lat="49.58461755886674" lon="9.365563346073031">
<ele>405.4</ele>
<time>2024-05-09T10:19:24Z</time>
</trkpt>
<trkpt lat="49.58461755886674" lon="9.36556527391076">
<ele>405.4</ele>
<time>2024-05-09T10:19:27Z</time>
</trkpt>
<trkpt lat="49.58461755886674" lon="9.365563346073031">
<ele>405.4</ele>
<time>2024-05-09T10:19:29Z</time>
</trkpt>
<trkpt lat="49.58461755886674" lon="9.36556527391076">
<ele>405.4</ele>
<time>2024-05-09T10:19:31Z</time>
</trkpt>
<trkpt lat="49.58461755886674" lon="9.36556619592011">
<ele>405.4</ele>
<time>2024-05-09T10:19:38Z</time>
</trkpt>
<trkpt lat="49.58461755886674" lon="9.36556527391076">
<ele>405.4</ele>
<time>2024-05-09T10:19:48Z</time>
</trkpt>
<trkpt lat="49.58461755886674" lon="9.365563346073031">
<ele>405.4</ele>
<time>2024-05-09T10:19:56Z</time>
</trkpt>
<trkpt lat="49.58461755886674" lon="9.36556527391076">
<ele>405.4</ele>
<time>2024-05-09T10:20:15Z</time>
</trkpt>
<trkpt lat="49.58461755886674" lon="9.365563346073031">
<ele>405.4</ele>
<time>2024-05-09T10:20:16Z</time>
</trkpt>
<trkpt lat="49.58461755886674" lon="9.365561418235302">
<ele>405.4</ele>
<time>2024-05-09T10:20:19Z</time>
</trkpt>
<trkpt lat="49.58461755886674" lon="9.365563346073031">
<ele>405.4</ele>
<time>2024-05-09T10:20:20Z</time>
</trkpt>
<trkpt lat="49.5846214145422" lon="9.365563346073031">
<ele>405.4</ele>
<time>2024-05-09T10:20:25Z</time>
</trkpt>
<trkpt lat="49.5846214145422" lon="9.365561418235302">
<ele>405.4</ele>
<time>2024-05-09T10:20:26Z</time>
</trkpt>
<trkpt lat="49.58461755886674" lon="9.365561418235302">
<ele>405.4</ele>
<time>2024-05-09T10:20:28Z</time>
</trkpt>
<trkpt lat="49.58461755886674" lon="9.365559574216604">
<ele>405.4</ele>
<time>2024-05-09T10:20:33Z</time>
</trkpt>
<trkpt lat="49.5846214145422" lon="9.365561418235302">
<ele>405.4</ele>
<time>2024-05-09T10:20:34Z</time>
</trkpt>
<trkpt lat="49.5846214145422" lon="9.365563346073031">
<ele>405.4</ele>
<time>2024-05-09T10:20:37Z</time>
</trkpt>
<trkpt lat="49.5846214145422" lon="9.365561418235302">
<ele>405.4</ele>
<time>2024-05-09T10:20:38Z</time>
</trkpt>
<trkpt lat="49.5846214145422" lon="9.365563346073031">
<ele>405.4</ele>
<time>2024-05-09T10:20:40Z</time>
</trkpt>
<trkpt lat="49.5846214145422" lon="9.365561418235302">
<ele>405.4</ele>
<time>2024-05-09T10:20:41Z</time>
</trkpt>
<trkpt lat="49.5846214145422" lon="9.365563346073031">
<ele>405.4</ele>
<time>2024-05-09T10:20:55Z</time>
</trkpt>
<trkpt lat="49.5846214145422" lon="9.36556527391076">
<ele>405.4</ele>
<time>2024-05-09T10:21:03Z</time>
</trkpt>
<trkpt lat="49.58461755886674" lon="9.36556619592011">
<ele>405.4</ele>
<time>2024-05-09T10:21:04Z</time>
</trkpt>
<trkpt lat="49.5846214145422" lon="9.36556619592011">
<ele>405.4</ele>
<time>2024-05-09T10:21:06Z</time>
</trkpt>
<trkpt lat="49.5846214145422" lon="9.36556812375784">
<ele>405.4</ele>
<time>2024-05-09T10:21:08Z</time>
</trkpt>
<trkpt lat="49.5846214145422" lon="9.365570051595569">
<ele>405.4</ele>
<time>2024-05-09T10:21:13Z</time>
</trkpt>
<trkpt lat="49.584625186398625" lon="9.365570051595569">
<ele>405.4</ele>
<time>2024-05-09T10:21:15Z</time>
</trkpt>
<trkpt lat="49.584625186398625" lon="9.365571895614266">
<ele>405.4</ele>
<time>2024-05-09T10:21:26Z</time>
</trkpt>
<trkpt lat="49.584625186398625" lon="9.365572901442649">
<ele>405.4</ele>
<time>2024-05-09T10:21:33Z</time>
</trkpt>
<trkpt lat="49.584625186398625" lon="9.365571895614266">
<ele>405.4</ele>
<time>2024-05-09T10:21:34Z</time>
</trkpt>
<trkpt lat="49.584625186398625" lon="9.365570051595569">
<ele>405.4</ele>
<time>2024-05-09T10:21:43Z</time>
</trkpt>
<trkpt lat="49.584625186398625" lon="9.36556812375784">
<ele>405.4</ele>
<time>2024-05-09T10:21:50Z</time>
</trkpt>
<trkpt lat="49.584625186398625" lon="9.365570051595569">
<ele>405.4</ele>
<time>2024-05-09T10:21:54Z</time>
</trkpt>
<trkpt lat="49.584625186398625" lon="9.36556812375784">
<ele>405.4</ele>
<time>2024-05-09T10:22:08Z</time>
</trkpt>
<trkpt lat="49.584625186398625" lon="9.36556619592011">
<ele>405.4</ele>
<time>2024-05-09T10:22:10Z</time>
</trkpt>
<trkpt lat="49.584625186398625" lon="9.36556527391076">
<ele>405.4</ele>
<time>2024-05-09T10:22:13Z</time>
</trkpt>
<trkpt lat="49.584625186398625" lon="9.365563346073031">
<ele>405.4</ele>
<time>2024-05-09T10:22:17Z</time>
</trkpt>
<trkpt lat="49.584625186398625" lon="9.365561418235302">
<ele>405.4</ele>
<time>2024-05-09T10:22:20Z</time>
</trkpt>
<trkpt lat="49.584625186398625" lon="9.365559574216604">
<ele>405.4</ele>
<time>2024-05-09T10:22:22Z</time>
</trkpt>
<trkpt lat="49.584625186398625" lon="9.365558568388224">
<ele>405.4</ele>
<time>2024-05-09T10:22:23Z</time>
</trkpt>
<trkpt lat="49.584625186398625" lon="9.365556640550494">
<ele>405.4</ele>
<time>2024-05-09T10:22:25Z</time>
</trkpt>
<trkpt lat="49.584625186398625" lon="9.365554796531796">
<ele>405.4</ele>
<time>2024-05-09T10:22:28Z</time>
</trkpt>
<trkpt lat="49.584625186398625" lon="9.365552868694069">
<ele>405.4</ele>
<time>2024-05-09T10:22:31Z</time>
</trkpt>
<trkpt lat="49.584625186398625" lon="9.365551946684718">
<ele>405.4</ele>
<time>2024-05-09T10:22:34Z</time>
</trkpt>
<trkpt lat="49.5846214145422" lon="9.365551946684718">
<ele>405.4</ele>
<time>2024-05-09T10:22:35Z</time>
</trkpt>
<trkpt lat="49.5846214145422" lon="9.365550018846989">
<ele>405.4</ele>
<time>2024-05-09T10:22:36Z</time>
</trkpt>
<trkpt lat="49.5846214145422" lon="9.36554809100926">
<ele>405.4</ele>
<time>2024-05-09T10:22:38Z</time>
</trkpt>
<trkpt lat="49.5846214145422" lon="9.36554616317153">
<ele>405.4</ele>
<time>2024-05-09T10:22:48Z</time>
</trkpt>
<trkpt lat="49.5846214145422" lon="9.36554524116218">
<ele>405.4</ele>
<time>2024-05-09T10:22:56Z</time>
</trkpt>
<trkpt lat="49.584625186398625" lon="9.365543313324451">
<ele>405.4</ele>
<time>2024-05-09T10:23:00Z</time>
</trkpt>
<trkpt lat="49.584625186398625" lon="9.36554524116218">
<ele>405.4</ele>
<time>2024-05-09T10:23:03Z</time>
</trkpt>
<trkpt lat="49.584625186398625" lon="9.365543313324451">
<ele>405.4</ele>
<time>2024-05-09T10:23:17Z</time>
</trkpt>
<trkpt lat="49.584625186398625" lon="9.365541385486722">
<ele>405.4</ele>
<time>2024-05-09T10:23:19Z</time>
</trkpt>
<trkpt lat="49.584625186398625" lon="9.365539541468024">
<ele>405.4</ele>
<time>2024-05-09T10:23:23Z</time>
</trkpt>
<trkpt lat="49.584625186398625" lon="9.365538535639644">
<ele>405.4</ele>
<time>2024-05-09T10:23:27Z</time>
</trkpt>
<trkpt lat="49.584625186398625" lon="9.365536607801914">
<ele>405.4</ele>
<time>2024-05-09T10:23:30Z</time>
</trkpt>
<trkpt lat="49.58462904207408" lon="9.365536607801914">
<ele>405.4</ele>
<time>2024-05-09T10:23:34Z</time>
</trkpt>
<trkpt lat="49.584625186398625" lon="9.365536607801914">
<ele>405.4</ele>
<time>2024-05-09T10:23:38Z</time>
</trkpt>
<trkpt lat="49.584625186398625" lon="9.365534763783216">
<ele>405.4</ele>
<time>2024-05-09T10:23:41Z</time>
</trkpt>
<trkpt lat="49.584625186398625" lon="9.365532835945489">
<ele>405.4</ele>
<time>2024-05-09T10:23:47Z</time>
</trkpt>
<trkpt lat="49.58462904207408" lon="9.365532835945489">
<ele>405.4</ele>
<time>2024-05-09T10:23:51Z</time>
</trkpt>
<trkpt lat="49.58462904207408" lon="9.365531913936138">
<ele>405.4</ele>
<time>2024-05-09T10:23:53Z</time>
</trkpt>
<trkpt lat="49.58462904207408" lon="9.365529986098409">
<ele>405.4</ele>
<time>2024-05-09T10:24:00Z</time>
</trkpt>
<trkpt lat="49.58462904207408" lon="9.365531913936138">
<ele>405.4</ele>
<time>2024-05-09T10:24:03Z</time>
</trkpt>
<trkpt lat="49.584625186398625" lon="9.365531913936138">
<ele>405.4</ele>
<time>2024-05-09T10:24:10Z</time>
</trkpt>
<trkpt lat="49.584625186398625" lon="9.365529986098409">
<ele>405.4</ele>
<time>2024-05-09T10:24:18Z</time>
</trkpt>
<trkpt lat="49.584625186398625" lon="9.36552805826068">
<ele>405.4</ele>
<time>2024-05-09T10:24:26Z</time>
</trkpt>
<trkpt lat="49.584625186398625" lon="9.36552613042295">
<ele>405.4</ele>
<time>2024-05-09T10:24:33Z</time>
</trkpt>
<trkpt lat="49.584625186398625" lon="9.3655252084136">
<ele>405.4</ele>
<time>2024-05-09T10:24:37Z</time>
</trkpt>
<trkpt lat="49.5846214145422" lon="9.3655252084136">
<ele>405.4</ele>
<time>2024-05-09T10:24:41Z</time>
</trkpt>
<trkpt lat="49.5846214145422" lon="9.36552613042295">
<ele>405.4</ele>
<time>2024-05-09T10:24:48Z</time>
</trkpt>
<trkpt lat="49.58461755886674" lon="9.36552613042295">
<ele>405.4</ele>
<time>2024-05-09T10:24:50Z</time>
</trkpt>
<trkpt lat="49.58461755886674" lon="9.3655252084136">
<ele>405.4</ele>
<time>2024-05-09T10:24:54Z</time>
</trkpt>
<trkpt lat="49.58461755886674" lon="9.365523280575871">
<ele>405.4</ele>
<time>2024-05-09T10:24:58Z</time>
</trkpt>
<trkpt lat="49.58461378701031" lon="9.365523280575871">
<ele>405.4</ele>
<time>2024-05-09T10:25:02Z</time>
</trkpt>
<trkpt lat="49.58460993133485" lon="9.365523280575871">
<ele>405.4</ele>
<time>2024-05-09T10:25:21Z</time>
</trkpt>
<trkpt lat="49.58460993133485" lon="9.365521352738142">
<ele>405.4</ele>
<time>2024-05-09T10:25:23Z</time>
</trkpt>
<trkpt lat="49.58460993133485" lon="9.365523280575871">
<ele>405.4</ele>
<time>2024-05-09T10:25:24Z</time>
</trkpt>
<trkpt lat="49.58460993133485" lon="9.365521352738142">
<ele>405.4</ele>
<time>2024-05-09T10:25:25Z</time>
</trkpt>
<trkpt lat="49.58460993133485" lon="9.365523280575871">
<ele>405.4</ele>
<time>2024-05-09T10:25:36Z</time>
</trkpt>
<trkpt lat="49.584606159478426" lon="9.365523280575871">
<ele>405.4</ele>
<time>2024-05-09T10:25:37Z</time>
</trkpt>
<trkpt lat="49.584606159478426" lon="9.3655252084136">
<ele>405.4</ele>
<time>2024-05-09T10:25:44Z</time>
</trkpt>
<trkpt lat="49.584606159478426" lon="9.36552613042295">
<ele>405.4</ele>
<time>2024-05-09T10:25:49Z</time>
</trkpt>
<trkpt lat="49.584606159478426" lon="9.36552805826068">
<ele>405.4</ele>
<time>2024-05-09T10:25:52Z</time>
</trkpt>
<trkpt lat="49.584606159478426" lon="9.365529986098409">
<ele>405.4</ele>
<time>2024-05-09T10:25:56Z</time>
</trkpt>
<trkpt lat="49.584606159478426" lon="9.365531913936138">
<ele>405.4</ele>
<time>2024-05-09T10:26:06Z</time>
</trkpt>
<trkpt lat="49.584606159478426" lon="9.365529986098409">
<ele>405.4</ele>
<time>2024-05-09T10:26:08Z</time>
</trkpt>
<trkpt lat="49.58460230380297" lon="9.365529986098409">
<ele>405.4</ele>
<time>2024-05-09T10:26:10Z</time>
</trkpt>
<trkpt lat="49.58460230380297" lon="9.36552805826068">
<ele>405.4</ele>
<time>2024-05-09T10:26:17Z</time>
</trkpt>
<trkpt lat="49.58460230380297" lon="9.365529986098409">
<ele>405.4</ele>
<time>2024-05-09T10:26:20Z</time>
</trkpt>
<trkpt lat="49.58460230380297" lon="9.36552805826068">
<ele>405.4</ele>
<time>2024-05-09T10:26:35Z</time>
</trkpt>
<trkpt lat="49.58460230380297" lon="9.365529986098409">
<ele>405.4</ele>
<time>2024-05-09T10:26:36Z</time>
</trkpt>
<trkpt lat="49.58460230380297" lon="9.36552805826068">
<ele>405.4</ele>
<time>2024-05-09T10:26:37Z</time>
</trkpt>
<trkpt lat="49.584606159478426" lon="9.36552805826068">
<ele>405.4</ele>
<time>2024-05-09T10:26:39Z</time>
</trkpt>
<trkpt lat="49.584606159478426" lon="9.36552613042295">
<ele>405.4</ele>
<time>2024-05-09T10:26:42Z</time>
</trkpt>
<trkpt lat="49.584606159478426" lon="9.3655252084136">
<ele>405.4</ele>
<time>2024-05-09T10:26:48Z</time>
</trkpt>
<trkpt lat="49.584606159478426" lon="9.365523280575871">
<ele>405.4</ele>
<time>2024-05-09T10:26:55Z</time>
</trkpt>
<trkpt lat="49.584606159478426" lon="9.3655252084136">
<ele>405.4</ele>
<time>2024-05-09T10:27:01Z</time>
</trkpt>
<trkpt lat="49.584606159478426" lon="9.36552613042295">
<ele>405.4</ele>
<time>2024-05-09T10:27:05Z</time>
</trkpt>
<trkpt lat="49.584606159478426" lon="9.36552805826068">
<ele>405.4</ele>
<time>2024-05-09T10:27:09Z</time>
</trkpt>
<trkpt lat="49.584606159478426" lon="9.365529986098409">
<ele>405.4</ele>
<time>2024-05-09T10:27:14Z</time>
</trkpt>
<trkpt lat="49.58460993133485" lon="9.365529986098409">
<ele>405.4</ele>
<time>2024-05-09T10:27:22Z</time>
</trkpt>
<trkpt lat="49.58460993133485" lon="9.36552805826068">
<ele>405.4</ele>
<time>2024-05-09T10:27:32Z</time>
</trkpt>
<trkpt lat="49.58460993133485" lon="9.365529986098409">
<ele>405.4</ele>
<time>2024-05-09T10:27:42Z</time>
</trkpt>
<trkpt lat="49.58460993133485" lon="9.365531913936138">
<ele>405.4</ele>
<time>2024-05-09T10:27:47Z</time>
</trkpt>
<trkpt lat="49.58460993133485" lon="9.365532835945489">
<ele>405.4</ele>
<time>2024-05-09T10:27:50Z</time>
</trkpt>
<trkpt lat="49.58460993133485" lon="9.365534763783216">
<ele>405.4</ele>
<time>2024-05-09T10:27:55Z</time>
</trkpt>
<trkpt lat="49.58460993133485" lon="9.365536607801914">
<ele>405.4</ele>
<time>2024-05-09T10:28:01Z</time>
</trkpt>
<trkpt lat="49.58460993133485" lon="9.365538535639644">
<ele>405.4</ele>
<time>2024-05-09T10:28:11Z</time>
</trkpt>
<trkpt lat="49.58460993133485" lon="9.365539541468024">
<ele>405.4</ele>
<time>2024-05-09T10:28:15Z</time>
</trkpt>
<trkpt lat="49.58460993133485" lon="9.365541385486722">
<ele>405.4</ele>
<time>2024-05-09T10:28:19Z</time>
</trkpt>
<trkpt lat="49.58460993133485" lon="9.365539541468024">
<ele>405.4</ele>
<time>2024-05-09T10:28:20Z</time>
</trkpt>
<trkpt lat="49.58460993133485" lon="9.365538535639644">
<ele>405.4</ele>
<time>2024-05-09T10:28:28Z</time>
</trkpt>
<trkpt lat="49.58460993133485" lon="9.365536607801914">
<ele>405.4</ele>
<time>2024-05-09T10:28:33Z</time>
</trkpt>
<trkpt lat="49.58460993133485" lon="9.365534763783216">
<ele>405.4</ele>
<time>2024-05-09T10:28:41Z</time>
</trkpt>
<trkpt lat="49.58460993133485" lon="9.365532835945489">
<ele>405.4</ele>
<time>2024-05-09T10:28:48Z</time>
</trkpt>
<trkpt lat="49.58460993133485" lon="9.365531913936138">
<ele>405.4</ele>
<time>2024-05-09T10:28:53Z</time>
</trkpt>
<trkpt lat="49.58460993133485" lon="9.365529986098409">
<ele>405.4</ele>
<time>2024-05-09T10:28:57Z</time>
</trkpt>
<trkpt lat="49.58460993133485" lon="9.36552805826068">
<ele>405.4</ele>
<time>2024-05-09T10:29:02Z</time>
</trkpt>
<trkpt lat="49.58460993133485" lon="9.365529986098409">
<ele>405.4</ele>
<time>2024-05-09T10:29:03Z</time>
</trkpt>
<trkpt lat="49.584606159478426" lon="9.365529986098409">
<ele>405.4</ele>
<time>2024-05-09T10:29:04Z</time>
</trkpt>
<trkpt lat="49.584606159478426" lon="9.36552805826068">
<ele>405.4</ele>
<time>2024-05-09T10:29:05Z</time>
</trkpt>
<trkpt lat="49.584606159478426" lon="9.365529986098409">
<ele>405.4</ele>
<time>2024-05-09T10:29:15Z</time>
</trkpt>
<trkpt lat="49.584606159478426" lon="9.365531913936138">
<ele>405.4</ele>
<time>2024-05-09T10:29:18Z</time>
</trkpt>
<trkpt lat="49.584606159478426" lon="9.365532835945489">
<ele>405.4</ele>
<time>2024-05-09T10:29:21Z</time>
</trkpt>
<trkpt lat="49.58460993133485" lon="9.365532835945489">
<ele>405.4</ele>
<time>2024-05-09T10:29:23Z</time>
</trkpt>
<trkpt lat="49.58460993133485" lon="9.365534763783216">
<ele>405.4</ele>
<time>2024-05-09T10:29:26Z</time>
</trkpt>
<trkpt lat="49.58461378701031" lon="9.365534763783216">
<ele>405.4</ele>
<time>2024-05-09T10:29:33Z</time>
</trkpt>
<trkpt lat="49.58461378701031" lon="9.365532835945489">
<ele>405.4</ele>
<time>2024-05-09T10:29:34Z</time>
</trkpt>
<trkpt lat="49.58461378701031" lon="9.365531913936138">
<ele>405.4</ele>
<time>2024-05-09T10:29:38Z</time>
</trkpt>
<trkpt lat="49.58461755886674" lon="9.365531913936138">
<ele>405.4</ele>
<time>2024-05-09T10:29:40Z</time>
</trkpt>
<trkpt lat="49.58461755886674" lon="9.365529986098409">
<ele>405.4</ele>
<time>2024-05-09T10:29:41Z</time>
</trkpt>
<trkpt lat="49.58461755886674" lon="9.36552805826068">
<ele>405.4</ele>
<time>2024-05-09T10:29:43Z</time>
</trkpt>
<trkpt lat="49.5846214145422" lon="9.36552805826068">
<ele>405.4</ele>
<time>2024-05-09T10:29:46Z</time>
</trkpt>
<trkpt lat="49.5846214145422" lon="9.365529986098409">
<ele>405.4</ele>
<time>2024-05-09T10:29:53Z</time>
</trkpt>
<trkpt lat="49.5846214145422" lon="9.365531913936138">
<ele>405.4</ele>
<time>2024-05-09T10:30:06Z</time>
</trkpt>
<trkpt lat="49.5846214145422" lon="9.365529986098409">
<ele>405.4</ele>
<time>2024-05-09T10:30:09Z</time>
</trkpt>
<trkpt lat="49.5846214145422" lon="9.36552805826068">
<ele>405.4</ele>
<time>2024-05-09T10:30:18Z</time>
</trkpt>
<trkpt lat="49.5846214145422" lon="9.36552613042295">
<ele>405.4</ele>
<time>2024-05-09T10:30:21Z</time>
</trkpt>
<trkpt lat="49.5846214145422" lon="9.3655252084136">
<ele>405.4</ele>
<time>2024-05-09T10:30:27Z</time>
</trkpt>
<trkpt lat="49.5846214145422" lon="9.365523280575871">
<ele>405.4</ele>
<time>2024-05-09T10:30:31Z</time>
</trkpt>
<trkpt lat="49.5846214145422" lon="9.365521352738142">
<ele>405.4</ele>
<time>2024-05-09T10:30:33Z</time>
</trkpt>
<trkpt lat="49.584625186398625" lon="9.365521352738142">
<ele>405.4</ele>
<time>2024-05-09T10:30:36Z</time>
</trkpt>
<trkpt lat="49.584625186398625" lon="9.365520430728791">
<ele>405.4</ele>
<time>2024-05-09T10:30:38Z</time>
</trkpt>
<trkpt lat="49.584625186398625" lon="9.365518502891064">
<ele>405.4</ele>
<time>2024-05-09T10:30:41Z</time>
</trkpt>
<trkpt lat="49.584625186398625" lon="9.365520430728791">
<ele>405.4</ele>
<time>2024-05-09T10:30:56Z</time>
</trkpt>
<trkpt lat="49.584625186398625" lon="9.365521352738142">
<ele>405.4</ele>
<time>2024-05-09T10:31:00Z</time>
</trkpt>
<trkpt lat="49.584625186398625" lon="9.365520430728791">
<ele>405.4</ele>
<time>2024-05-09T10:31:02Z</time>
</trkpt>
<trkpt lat="49.58462904207408" lon="9.365518502891064">
<ele>405.4</ele>
<time>2024-05-09T10:31:13Z</time>
</trkpt>
<trkpt lat="49.58462904207408" lon="9.365516658872366">
<ele>405.4</ele>
<time>2024-05-09T10:31:18Z</time>
</trkpt>
<trkpt lat="49.58462904207408" lon="9.365514731034636">
<ele>405.4</ele>
<time>2024-05-09T10:31:21Z</time>
</trkpt>
<trkpt lat="49.58462904207408" lon="9.365512803196909">
<ele>405.4</ele>
<time>2024-05-09T10:31:26Z</time>
</trkpt>
<trkpt lat="49.584625186398625" lon="9.365512803196909">
<ele>405.4</ele>
<time>2024-05-09T10:31:34Z</time>
</trkpt>
<trkpt lat="49.584625186398625" lon="9.365514731034636">
<ele>405.4</ele>
<time>2024-05-09T10:31:40Z</time>
</trkpt>
<trkpt lat="49.584625186398625" lon="9.365512803196909">
<ele>405.4</ele>
<time>2024-05-09T10:31:45Z</time>
</trkpt>
<trkpt lat="49.584625186398625" lon="9.365511881187558">
<ele>405.4</ele>
<time>2024-05-09T10:31:59Z</time>
</trkpt>
<trkpt lat="49.58462904207408" lon="9.365511881187558">
<ele>405.4</ele>
<time>2024-05-09T10:32:09Z</time>
</trkpt>
<trkpt lat="49.58462904207408" lon="9.365512803196909">
<ele>405.4</ele>
<time>2024-05-09T10:32:15Z</time>
</trkpt>
<trkpt lat="49.58462904207408" lon="9.365514731034636">
<ele>405.4</ele>
<time>2024-05-09T10:32:21Z</time>
</trkpt>
<trkpt lat="49.584625186398625" lon="9.365514731034636">
<ele>405.4</ele>
<time>2024-05-09T10:32:29Z</time>
</trkpt>
<trkpt lat="49.5846214145422" lon="9.365514731034636">
<ele>405.4</ele>
<time>2024-05-09T10:32:35Z</time>
</trkpt>
<trkpt lat="49.584625186398625" lon="9.365514731034636">
<ele>405.4</ele>
<time>2024-05-09T10:32:37Z</time>
</trkpt>
<trkpt lat="49.584625186398625" lon="9.365512803196909">
<ele>405.4</ele>
<time>2024-05-09T10:32:40Z</time>
</trkpt>
<trkpt lat="49.5846214145422" lon="9.365512803196909">
<ele>405.4</ele>
<time>2024-05-09T10:32:42Z</time>
</trkpt>
<trkpt lat="49.5846214145422" lon="9.365511881187558">
<ele>405.4</ele>
<time>2024-05-09T10:32:47Z</time>
</trkpt>
<trkpt lat="49.5846214145422" lon="9.365512803196909">
<ele>405.4</ele>
<time>2024-05-09T10:32:55Z</time>
</trkpt>
<trkpt lat="49.5846214145422" lon="9.365511881187558">
<ele>405.4</ele>
<time>2024-05-09T10:32:57Z</time>
</trkpt>
<trkpt lat="49.584625186398625" lon="9.365511881187558">
<ele>405.4</ele>
<time>2024-05-09T10:32:58Z</time>
</trkpt>
<trkpt lat="49.584625186398625" lon="9.365512803196909">
<ele>405.4</ele>
<time>2024-05-09T10:32:59Z</time>
</trkpt>
<trkpt lat="49.584625186398625" lon="9.365514731034636">
<ele>405.4</ele>
<time>2024-05-09T10:33:05Z</time>
</trkpt>
<trkpt lat="49.584625186398625" lon="9.365512803196909">
<ele>405.4</ele>
<time>2024-05-09T10:33:14Z</time>
</trkpt>
<trkpt lat="49.584625186398625" lon="9.365511881187558">
<ele>405.4</ele>
<time>2024-05-09T10:33:21Z</time>
</trkpt>
<trkpt lat="49.584625186398625" lon="9.365509953349829">
<ele>405.4</ele>
<time>2024-05-09T10:33:30Z</time>
</trkpt>
<trkpt lat="49.58462904207408" lon="9.365509953349829">
<ele>405.4</ele>
<time>2024-05-09T10:33:32Z</time>
</trkpt>
<trkpt lat="49.58462904207408" lon="9.365511881187558">
<ele>405.4</ele>
<time>2024-05-09T10:33:33Z</time>
</trkpt>
<trkpt lat="49.58462904207408" lon="9.365512803196909">
<ele>405.4</ele>
<time>2024-05-09T10:33:45Z</time>
</trkpt>
<trkpt lat="49.58462904207408" lon="9.365511881187558">
<ele>405.4</ele>
<time>2024-05-09T10:33:54Z</time>
</trkpt>
<trkpt lat="49.584625186398625" lon="9.365509953349829">
<ele>405.4</ele>
<time>2024-05-09T10:34:01Z</time>
</trkpt>
<trkpt lat="49.584625186398625" lon="9.3655080255121">
<ele>405.4</ele>
<time>2024-05-09T10:34:12Z</time>
</trkpt>
<trkpt lat="49.584625186398625" lon="9.365509953349829">
<ele>405.4</ele>
<time>2024-05-09T10:34:17Z</time>
</trkpt>
<trkpt lat="49.584625186398625" lon="9.3655080255121">
<ele>405.4</ele>
<time>2024-05-09T10:34:19Z</time>
</trkpt>
<trkpt lat="49.584625186398625" lon="9.36550710350275">
<ele>405.4</ele>
<time>2024-05-09T10:34:23Z</time>
</trkpt>
<trkpt lat="49.584625186398625" lon="9.36550517566502">
<ele>405.4</ele>
<time>2024-05-09T10:34:30Z</time>
</trkpt>
<trkpt lat="49.5846214145422" lon="9.36550517566502">
<ele>405.4</ele>
<time>2024-05-09T10:34:33Z</time>
</trkpt>
<trkpt lat="49.5846214145422" lon="9.36550710350275">
<ele>405.4</ele>
<time>2024-05-09T10:34:34Z</time>
</trkpt>
<trkpt lat="49.5846214145422" lon="9.36550517566502">
<ele>405.4</ele>
<time>2024-05-09T10:34:37Z</time>
</trkpt>
<trkpt lat="49.5846214145422" lon="9.36550710350275">
<ele>405.4</ele>
<time>2024-05-09T10:34:44Z</time>
</trkpt>
<trkpt lat="49.5846214145422" lon="9.3655080255121">
<ele>405.4</ele>
<time>2024-05-09T10:34:56Z</time>
</trkpt>
<trkpt lat="49.5846214145422" lon="9.36550710350275">
<ele>405.4</ele>
<time>2024-05-09T10:34:57Z</time>
</trkpt>
<trkpt lat="49.5846214145422" lon="9.3655080255121">
<ele>405.4</ele>
<time>2024-05-09T10:34:59Z</time>
</trkpt>
<trkpt lat="49.5846214145422" lon="9.36550710350275">
<ele>405.4</ele>
<time>2024-05-09T10:35:00Z</time>
</trkpt>
<trkpt lat="49.5846214145422" lon="9.3655080255121">
<ele>405.4</ele>
<time>2024-05-09T10:35:01Z</time>
</trkpt>
<trkpt lat="49.5846214145422" lon="9.365509953349829">
<ele>405.4</ele>
<time>2024-05-09T10:35:07Z</time>
</trkpt>
<trkpt lat="49.5846214145422" lon="9.3655080255121">
<ele>405.4</ele>
<time>2024-05-09T10:35:10Z</time>
</trkpt>
<trkpt lat="49.58461755886674" lon="9.3655080255121">
<ele>405.4</ele>
<time>2024-05-09T10:35:16Z</time>
</trkpt>
<trkpt lat="49.58461755886674" lon="9.365509953349829">
<ele>405.4</ele>
<time>2024-05-09T10:35:38Z</time>
</trkpt>
<trkpt lat="49.5846214145422" lon="9.3655080255121">
<ele>405.4</ele>
<time>2024-05-09T10:35:42Z</time>
</trkpt>
<trkpt lat="49.58461755886674" lon="9.3655080255121">
<ele>405.4</ele>
<time>2024-05-09T10:35:53Z</time>
</trkpt>
<trkpt lat="49.58461755886674" lon="9.365509953349829">
<ele>405.4</ele>
<time>2024-05-09T10:35:54Z</time>
</trkpt>
<trkpt lat="49.58461755886674" lon="9.365511881187558">
<ele>405.4</ele>
<time>2024-05-09T10:35:57Z</time>
</trkpt>
<trkpt lat="49.58461755886674" lon="9.365509953349829">
<ele>405.4</ele>
<time>2024-05-09T10:36:01Z</time>
</trkpt>
<trkpt lat="49.58461755886674" lon="9.365511881187558">
<ele>405.4</ele>
<time>2024-05-09T10:36:04Z</time>
</trkpt>
<trkpt lat="49.58461755886674" lon="9.365509953349829">
<ele>405.4</ele>
<time>2024-05-09T10:36:05Z</time>
</trkpt>
<trkpt lat="49.58461378701031" lon="9.365511881187558">
<ele>405.4</ele>
<time>2024-05-09T10:36:06Z</time>
</trkpt>
<trkpt lat="49.58461378701031" lon="9.365512803196909">
<ele>405.4</ele>
<time>2024-05-09T10:36:08Z</time>
</trkpt>
<trkpt lat="49.58461378701031" lon="9.365514731034636">
<ele>405.4</ele>
<time>2024-05-09T10:36:10Z</time>
</trkpt>
<trkpt lat="49.58460993133485" lon="9.365514731034636">
<ele>405.4</ele>
<time>2024-05-09T10:36:14Z</time>
</trkpt>
<trkpt lat="49.58460993133485" lon="9.365516658872366">
<ele>405.4</ele>
<time>2024-05-09T10:36:29Z</time>
</trkpt>
<trkpt lat="49.58460993133485" lon="9.365514731034636">
<ele>405.4</ele>
<time>2024-05-09T10:36:36Z</time>
</trkpt>
<trkpt lat="49.58460993133485" lon="9.365516658872366">
<ele>405.4</ele>
<time>2024-05-09T10:36:41Z</time>
</trkpt>
<trkpt lat="49.58461378701031" lon="9.365516658872366">
<ele>405.4</ele>
<time>2024-05-09T10:36:44Z</time>
</trkpt>
<trkpt lat="49.58461378701031" lon="9.365514731034636">
<ele>405.4</ele>
<time>2024-05-09T10:36:47Z</time>
</trkpt>
<trkpt lat="49.58461378701031" lon="9.365512803196909">
<ele>405.4</ele>
<time>2024-05-09T10:36:53Z</time>
</trkpt>
<trkpt lat="49.58461755886674" lon="9.365514731034636">
<ele>405.4</ele>
<time>2024-05-09T10:37:00Z</time>
</trkpt>
<trkpt lat="49.58461755886674" lon="9.365516658872366">
<ele>405.4</ele>
<time>2024-05-09T10:37:06Z</time>
</trkpt>
<trkpt lat="49.5846214145422" lon="9.365516658872366">
<ele>405.4</ele>
<time>2024-05-09T10:37:10Z</time>
</trkpt>
<trkpt lat="49.5846214145422" lon="9.365518502891064">
<ele>405.4</ele>
<time>2024-05-09T10:37:11Z</time>
</trkpt>
<trkpt lat="49.5846214145422" lon="9.365520430728791">
<ele>405.4</ele>
<time>2024-05-09T10:37:14Z</time>
</trkpt>
<trkpt lat="49.5846214145422" lon="9.365521352738142">
<ele>405.4</ele>
<time>2024-05-09T10:37:21Z</time>
</trkpt>
<trkpt lat="49.5846214145422" lon="9.365523280575871">
<ele>405.4</ele>
<time>2024-05-09T10:37:27Z</time>
</trkpt>
<trkpt lat="49.58461755886674" lon="9.365523280575871">
<ele>405.4</ele>
<time>2024-05-09T10:37:40Z</time>
</trkpt>
<trkpt lat="49.58461755886674" lon="9.3655252084136">
<ele>405.4</ele>
<time>2024-05-09T10:37:41Z</time>
</trkpt>
<trkpt lat="49.58461755886674" lon="9.36552613042295">
<ele>405.4</ele>
<time>2024-05-09T10:37:43Z</time>
</trkpt>
<trkpt lat="49.58461378701031" lon="9.36552613042295">
<ele>405.4</ele>
<time>2024-05-09T10:37:49Z</time>
</trkpt>
<trkpt lat="49.58461378701031" lon="9.36552805826068">
<ele>405.4</ele>
<time>2024-05-09T10:37:50Z</time>
</trkpt>
<trkpt lat="49.58461378701031" lon="9.365529986098409">
<ele>405.4</ele>
<time>2024-05-09T10:37:53Z</time>
</trkpt>
<trkpt lat="49.58461378701031" lon="9.36552805826068">
<ele>405.4</ele>
<time>2024-05-09T10:37:58Z</time>
</trkpt>
<trkpt lat="49.58460993133485" lon="9.36552805826068">
<ele>405.4</ele>
<time>2024-05-09T10:38:03Z</time>
</trkpt>
<trkpt lat="49.58460993133485" lon="9.365529986098409">
<ele>405.4</ele>
<time>2024-05-09T10:38:04Z</time>
</trkpt>
<trkpt lat="49.58461378701031" lon="9.365529986098409">
<ele>405.4</ele>
<time>2024-05-09T10:38:05Z</time>
</trkpt>
<trkpt lat="49.58461378701031" lon="9.36552805826068">
<ele>405.4</ele>
<time>2024-05-09T10:38:18Z</time>
</trkpt>
<trkpt lat="49.58461378701031" lon="9.365529986098409">
<ele>405.4</ele>
<time>2024-05-09T10:38:19Z</time>
</trkpt>
<trkpt lat="49.58461378701031" lon="9.36552805826068">
<ele>405.4</ele>
<time>2024-05-09T10:38:22Z</time>
</trkpt>
<trkpt lat="49.58461378701031" lon="9.365529986098409">
<ele>405.4</ele>
<time>2024-05-09T10:38:29Z</time>
</trkpt>
<trkpt lat="49.58461755886674" lon="9.365529986098409">
<ele>405.4</ele>
<time>2024-05-09T10:38:33Z</time>
</trkpt>
<trkpt lat="49.58461755886674" lon="9.365531913936138">
<ele>405.4</ele>
<time>2024-05-09T10:38:39Z</time>
</trkpt>
<trkpt lat="49.58461378701031" lon="9.365531913936138">
<ele>405.4</ele>
<time>2024-05-09T10:38:49Z</time>
</trkpt>
<trkpt lat="49.58461378701031" lon="9.365532835945489">
<ele>405.4</ele>
<time>2024-05-09T10:38:53Z</time>
</trkpt>
<trkpt lat="49.58461378701031" lon="9.365534763783216">
<ele>405.4</ele>
<time>2024-05-09T10:38:58Z</time>
</trkpt>
<trkpt lat="49.58461378701031" lon="9.365532835945489">
<ele>405.4</ele>
<time>2024-05-09T10:39:00Z</time>
</trkpt>
<trkpt lat="49.58461378701031" lon="9.365534763783216">
<ele>405.4</ele>
<time>2024-05-09T10:39:01Z</time>
</trkpt>
<trkpt lat="49.58461378701031" lon="9.365536607801914">
<ele>405.4</ele>
<time>2024-05-09T10:39:08Z</time>
</trkpt>
<trkpt lat="49.58461378701031" lon="9.365534763783216">
<ele>405.4</ele>
<time>2024-05-09T10:39:14Z</time>
</trkpt>
<trkpt lat="49.58460993133485" lon="9.365532835945489">
<ele>405.4</ele>
<time>2024-05-09T10:39:17Z</time>
</trkpt>
<trkpt lat="49.58461378701031" lon="9.365532835945489">
<ele>405.4</ele>
<time>2024-05-09T10:39:21Z</time>
</trkpt>
<trkpt lat="49.58460993133485" lon="9.365532835945489">
<ele>405.4</ele>
<time>2024-05-09T10:39:22Z</time>
</trkpt>
<trkpt lat="49.58460993133485" lon="9.365531913936138">
<ele>405.4</ele>
<time>2024-05-09T10:39:24Z</time>
</trkpt>
<trkpt lat="49.58460993133485" lon="9.365529986098409">
<ele>405.4</ele>
<time>2024-05-09T10:39:28Z</time>
</trkpt>
<trkpt lat="49.58460993133485" lon="9.365531913936138">
<ele>405.4</ele>
<time>2024-05-09T10:39:29Z</time>
</trkpt>
<trkpt lat="49.58461378701031" lon="9.365536607801914">
<ele>405.4</ele>
<time>2024-05-09T10:39:31Z</time>
</trkpt>
<trkpt lat="49.58460993133485" lon="9.365539541468024">
<ele>405.4</ele>
<time>2024-05-09T10:39:32Z</time>
</trkpt>
<trkpt lat="49.58460993133485" lon="9.365541385486722">
<ele>405.4</ele>
<time>2024-05-09T10:39:33Z</time>
</trkpt>
<trkpt lat="49.58460993133485" lon="9.365539541468024">
<ele>405.4</ele>
<time>2024-05-09T10:39:36Z</time>
</trkpt>
<trkpt lat="49.58460993133485" lon="9.365538535639644">
<ele>405.4</ele>
<time>2024-05-09T10:39:44Z</time>
</trkpt>
<trkpt lat="49.58460993133485" lon="9.365536607801914">
<ele>405.4</ele>
<time>2024-05-09T10:39:52Z</time>
</trkpt>
<trkpt lat="49.58460993133485" lon="9.365534763783216">
<ele>405.4</ele>
<time>2024-05-09T10:39:58Z</time>
</trkpt>
<trkpt lat="49.58460993133485" lon="9.365532835945489">
<ele>405.4</ele>
<time>2024-05-09T10:40:03Z</time>
</trkpt>
<trkpt lat="49.584606159478426" lon="9.365532835945489">
<ele>405.4</ele>
<time>2024-05-09T10:40:05Z</time>
</trkpt>
<trkpt lat="49.584606159478426" lon="9.365531913936138">
<ele>405.4</ele>
<time>2024-05-09T10:40:06Z</time>
</trkpt>
<trkpt lat="49.584606159478426" lon="9.365529986098409">
<ele>405.4</ele>
<time>2024-05-09T10:40:09Z</time>
</trkpt>
<trkpt lat="49.584606159478426" lon="9.36552805826068">
<ele>405.4</ele>
<time>2024-05-09T10:40:10Z</time>
</trkpt>
<trkpt lat="49.584606159478426" lon="9.36552613042295">
<ele>405.4</ele>
<time>2024-05-09T10:40:12Z</time>
</trkpt>
<trkpt lat="49.58460230380297" lon="9.36552613042295">
<ele>405.4</ele>
<time>2024-05-09T10:40:14Z</time>
</trkpt>
<trkpt lat="49.584606159478426" lon="9.3655252084136">
<ele>405.4</ele>
<time>2024-05-09T10:40:15Z</time>
</trkpt>
<trkpt lat="49.584606159478426" lon="9.365523280575871">
<ele>405.4</ele>
<time>2024-05-09T10:40:17Z</time>
</trkpt>
<trkpt lat="49.584606159478426" lon="9.365521352738142">
<ele>405.4</ele>
<time>2024-05-09T10:40:18Z</time>
</trkpt>
<trkpt lat="49.584606159478426" lon="9.365523280575871">
<ele>405.4</ele>
<time>2024-05-09T10:40:22Z</time>
</trkpt>
<trkpt lat="49.584606159478426" lon="9.3655252084136">
<ele>405.4</ele>
<time>2024-05-09T10:40:25Z</time>
</trkpt>
<trkpt lat="49.584606159478426" lon="9.365523280575871">
<ele>405.4</ele>
<time>2024-05-09T10:40:26Z</time>
</trkpt>
<trkpt lat="49.584606159478426" lon="9.3655252084136">
<ele>405.4</ele>
<time>2024-05-09T10:40:27Z</time>
</trkpt>
<trkpt lat="49.584606159478426" lon="9.365523280575871">
<ele>405.4</ele>
<time>2024-05-09T10:40:28Z</time>
</trkpt>
<trkpt lat="49.584606159478426" lon="9.365521352738142">
<ele>405.4</ele>
<time>2024-05-09T10:40:32Z</time>
</trkpt>
<trkpt lat="49.584606159478426" lon="9.365523280575871">
<ele>405.4</ele>
<time>2024-05-09T10:40:33Z</time>
</trkpt>
<trkpt lat="49.58461755886674" lon="9.36552805826068">
<ele>405.4</ele>
<time>2024-05-09T10:40:34Z</time>
</trkpt>
<trkpt lat="49.5846214145422" lon="9.365541385486722">
<ele>405.4</ele>
<time>2024-05-09T10:40:35Z</time>
</trkpt>
<trkpt lat="49.5846214145422" lon="9.365570051595569">
<ele>405.4</ele>
<time>2024-05-09T10:40:36Z</time>
</trkpt>
<trkpt lat="49.584625186398625" lon="9.365590084344149">
<ele>405.4</ele>
<time>2024-05-09T10:40:37Z</time>
</trkpt>
<trkpt lat="49.58463666960597" lon="9.365614810958505">
<ele>405.4</ele>
<time>2024-05-09T10:40:38Z</time>
</trkpt>
<trkpt lat="49.58464429713786" lon="9.365638699382544">
<ele>405.4</ele>
<time>2024-05-09T10:40:39Z</time>
</trkpt>
<trkpt lat="49.58465192466974" lon="9.365661581978202">
<ele>405.4</ele>
<time>2024-05-09T10:40:40Z</time>
</trkpt>
<trkpt lat="49.584663324058056" lon="9.36568639241159">
<ele>405.4</ele>
<time>2024-05-09T10:40:41Z</time>
</trkpt>
<trkpt lat="49.5846748072654" lon="9.36570642516017">
<ele>405.4</ele>
<time>2024-05-09T10:40:42Z</time>
</trkpt>
<trkpt lat="49.58468243479729" lon="9.365737857297065">
<ele>405.4</ele>
<time>2024-05-09T10:40:43Z</time>
</trkpt>
<trkpt lat="49.58469006232917" lon="9.365771217271686">
<ele>405.4</ele>
<time>2024-05-09T10:40:44Z</time>
</trkpt>
<trkpt lat="49.584705317392945" lon="9.365806505084038">
<ele>405.4</ele>
<time>2024-05-09T10:40:45Z</time>
</trkpt>
<trkpt lat="49.58471671678126" lon="9.365846570581198">
<ele>405.4</ele>
<time>2024-05-09T10:40:46Z</time>
</trkpt>
<trkpt lat="49.58472819998861" lon="9.36588286422193">
<ele>405.4</ele>
<time>2024-05-09T10:40:47Z</time>
</trkpt>
<trkpt lat="49.584743455052376" lon="9.365911446511744">
<ele>405.4</ele>
<time>2024-05-09T10:40:48Z</time>
</trkpt>
<trkpt lat="49.58475493825972" lon="9.36594287864864">
<ele>405.4</ele>
<time>2024-05-09T10:40:49Z</time>
</trkpt>
<trkpt lat="49.58475871011615" lon="9.36598009429872">
<ele>405.4</ele>
<time>2024-05-09T10:40:50Z</time>
</trkpt>
<trkpt lat="49.58476256579161" lon="9.36602015979588">
<ele>405.4</ele>
<time>2024-05-09T10:40:51Z</time>
</trkpt>
<trkpt lat="49.58476256579161" lon="9.366054525598884">
<ele>405.4</ele>
<time>2024-05-09T10:40:52Z</time>
</trkpt>
<trkpt lat="49.584766337648034" lon="9.366093585267665">
<ele>405.4</ele>
<time>2024-05-09T10:40:53Z</time>
</trkpt>
<trkpt lat="49.58476256579161" lon="9.366129795089364">
<ele>405.4</ele>
<time>2024-05-09T10:40:54Z</time>
</trkpt>
<trkpt lat="49.58476256579161" lon="9.366169860586524">
<ele>405.4</ele>
<time>2024-05-09T10:40:55Z</time>
</trkpt>
<trkpt lat="49.58476256579161" lon="9.366205148398876">
<ele>405.4</ele>
<time>2024-05-09T10:40:56Z</time>
</trkpt>
<trkpt lat="49.584766337648034" lon="9.36623951420188">
<ele>405.4</ele>
<time>2024-05-09T10:40:57Z</time>
</trkpt>
<trkpt lat="49.584766337648034" lon="9.36627857387066">
<ele>405.4</ele>
<time>2024-05-09T10:40:58Z</time>
</trkpt>
<trkpt lat="49.584766337648034" lon="9.366312939673662">
<ele>405.4</ele>
<time>2024-05-09T10:40:59Z</time>
</trkpt>
<trkpt lat="49.58475871011615" lon="9.366348227486014">
<ele>405.4</ele>
<time>2024-05-09T10:41:00Z</time>
</trkpt>
<trkpt lat="49.58475493825972" lon="9.366385443136096">
<ele>405.4</ele>
<time>2024-05-09T10:41:01Z</time>
</trkpt>
<trkpt lat="49.584747310727835" lon="9.366421652957795">
<ele>405.4</ele>
<time>2024-05-09T10:41:02Z</time>
</trkpt>
<trkpt lat="49.58475493825972" lon="9.36645501293242">
<ele>405.4</ele>
<time>2024-05-09T10:41:03Z</time>
</trkpt>
<trkpt lat="49.584743455052376" lon="9.366490300744772">
<ele>405.4</ele>
<time>2024-05-09T10:41:04Z</time>
</trkpt>
<trkpt lat="49.58473582752049" lon="9.366530366241932">
<ele>405.4</ele>
<time>2024-05-09T10:41:05Z</time>
</trkpt>
<trkpt lat="49.58472819998861" lon="9.366568503901362">
<ele>405.4</ele>
<time>2024-05-09T10:41:06Z</time>
</trkpt>
<trkpt lat="49.58470908924937" lon="9.366600019857287">
<ele>405.4</ele>
<time>2024-05-09T10:41:07Z</time>
</trkpt>
<trkpt lat="49.58469006232917" lon="9.366628602147102">
<ele>405.4</ele>
<time>2024-05-09T10:41:08Z</time>
</trkpt>
<trkpt lat="49.58467095158994" lon="9.366658190265298">
<ele>405.4</ele>
<time>2024-05-09T10:41:09Z</time>
</trkpt>
<trkpt lat="49.58465192466974" lon="9.366686772555113">
<ele>405.4</ele>
<time>2024-05-09T10:41:10Z</time>
</trkpt>
<trkpt lat="49.58463666960597" lon="9.366720132529736">
<ele>405.4</ele>
<time>2024-05-09T10:41:11Z</time>
</trkpt>
<trkpt lat="49.584625186398625" lon="9.36675357632339">
<ele>405.4</ele>
<time>2024-05-09T10:41:12Z</time>
</trkpt>
<trkpt lat="49.58460993133485" lon="9.366787858307362">
<ele>405.4</ele>
<time>2024-05-09T10:41:13Z</time>
</trkpt>
<trkpt lat="49.58459853194654" lon="9.366820296272635">
<ele>405.4</ele>
<time>2024-05-09T10:41:14Z</time>
</trkpt>
<trkpt lat="49.58459467627108" lon="9.366838401183486">
<ele>405.4</ele>
<time>2024-05-09T10:41:15Z</time>
</trkpt>
<trkpt lat="49.584590904414654" lon="9.366856506094337">
<ele>405.4</ele>
<time>2024-05-09T10:41:16Z</time>
</trkpt>
<trkpt lat="49.584587048739195" lon="9.366865139454603">
<ele>405.4</ele>
<time>2024-05-09T10:41:17Z</time>
</trkpt>
<trkpt lat="49.584590904414654" lon="9.366860361769795">
<ele>405.4</ele>
<time>2024-05-09T10:41:18Z</time>
</trkpt>
<trkpt lat="49.584590904414654" lon="9.366858433932066">
<ele>405.4</ele>
<time>2024-05-09T10:41:19Z</time>
</trkpt>
<trkpt lat="49.584590904414654" lon="9.366860361769795">
<ele>405.4</ele>
<time>2024-05-09T10:41:20Z</time>
</trkpt>
<trkpt lat="49.584590904414654" lon="9.366867989301682">
<ele>405.4</ele>
<time>2024-05-09T10:41:21Z</time>
</trkpt>
<trkpt lat="49.584590904414654" lon="9.36687469482422">
<ele>405.4</ele>
<time>2024-05-09T10:41:22Z</time>
</trkpt>
<trkpt lat="49.58459467627108" lon="9.366876538842916">
<ele>405.4</ele>
<time>2024-05-09T10:41:23Z</time>
</trkpt>
<trkpt lat="49.58459853194654" lon="9.366893721744418">
<ele>405.4</ele>
<time>2024-05-09T10:41:24Z</time>
</trkpt>
<trkpt lat="49.584587048739195" lon="9.36690805479884">
<ele>405.4</ele>
<time>2024-05-09T10:41:25Z</time>
</trkpt>
<trkpt lat="49.58457942120731" lon="9.366926159709692">
<ele>405.4</ele>
<time>2024-05-09T10:41:26Z</time>
</trkpt>
<trkpt lat="49.58456416614354" lon="9.366952814161776">
<ele>405.4</ele>
<time>2024-05-09T10:41:27Z</time>
</trkpt>
<trkpt lat="49.584545055404305" lon="9.366981480270624">
<ele>405.4</ele>
<time>2024-05-09T10:41:28Z</time>
</trkpt>
<trkpt lat="49.58452980034053" lon="9.367012912407516">
<ele>405.4</ele>
<time>2024-05-09T10:41:29Z</time>
</trkpt>
<trkpt lat="49.58451840095222" lon="9.367043422535062">
<ele>405.4</ele>
<time>2024-05-09T10:41:30Z</time>
</trkpt>
<trkpt lat="49.58451454527676" lon="9.36707016080618">
<ele>405.4</ele>
<time>2024-05-09T10:41:31Z</time>
</trkpt>
<trkpt lat="49.58451840095222" lon="9.367099748924376">
<ele>405.4</ele>
<time>2024-05-09T10:41:32Z</time>
</trkpt>
<trkpt lat="49.58452980034053" lon="9.367116848006845">
<ele>405.4</ele>
<time>2024-05-09T10:41:33Z</time>
</trkpt>
<trkpt lat="49.58453365601599" lon="9.367121625691652">
<ele>405.4</ele>
<time>2024-05-09T10:41:34Z</time>
</trkpt>
<trkpt lat="49.58455268293619" lon="9.367153141647576">
<ele>405.4</ele>
<time>2024-05-09T10:41:35Z</time>
</trkpt>
<trkpt lat="49.58456039428711" lon="9.36716646887362">
<ele>405.4</ele>
<time>2024-05-09T10:41:36Z</time>
</trkpt>
<trkpt lat="49.58457179367542" lon="9.36717032454908">
<ele>405.4</ele>
<time>2024-05-09T10:41:37Z</time>
</trkpt>
<trkpt lat="49.584568021818995" lon="9.367171246558428">
<ele>405.4</ele>
<time>2024-05-09T10:41:38Z</time>
</trkpt>
<trkpt lat="49.58457179367542" lon="9.367175102233888">
<ele>405.4</ele>
<time>2024-05-09T10:41:39Z</time>
</trkpt>
<trkpt lat="49.58457179367542" lon="9.367176946252584">
<ele>405.4</ele>
<time>2024-05-09T10:41:40Z</time>
</trkpt>
<trkpt lat="49.58457179367542" lon="9.367177952080963">
<ele>405.4</ele>
<time>2024-05-09T10:41:41Z</time>
</trkpt>
<trkpt lat="49.58457942120731" lon="9.3671865016222">
<ele>405.4</ele>
<time>2024-05-09T10:41:42Z</time>
</trkpt>
<trkpt lat="49.58459467627108" lon="9.367193207144735">
<ele>405.4</ele>
<time>2024-05-09T10:41:43Z</time>
</trkpt>
<trkpt lat="49.58460993133485" lon="9.36720460653305">
<ele>405.4</ele>
<time>2024-05-09T10:41:44Z</time>
</trkpt>
<trkpt lat="49.58462904207408" lon="9.36720653437078">
<ele>405.4</ele>
<time>2024-05-09T10:41:45Z</time>
</trkpt>
<trkpt lat="49.58464429713786" lon="9.367211312055588">
<ele>405.4</ele>
<time>2024-05-09T10:41:46Z</time>
</trkpt>
<trkpt lat="49.58465569652617" lon="9.367218017578123">
<ele>405.4</ele>
<time>2024-05-09T10:41:47Z</time>
</trkpt>
<trkpt lat="49.5846748072654" lon="9.367215083912017">
<ele>405.4</ele>
<time>2024-05-09T10:41:48Z</time>
</trkpt>
<trkpt lat="49.58469006232917" lon="9.36720846220851">
<ele>405.4</ele>
<time>2024-05-09T10:41:49Z</time>
</trkpt>
<trkpt lat="49.584701461717486" lon="9.367201756685972">
<ele>405.4</ele>
<time>2024-05-09T10:41:50Z</time>
</trkpt>
<trkpt lat="49.58472057245672" lon="9.367191279307008">
<ele>405.4</ele>
<time>2024-05-09T10:41:51Z</time>
</trkpt>
<trkpt lat="49.58473582752049" lon="9.367177952080963">
<ele>405.4</ele>
<time>2024-05-09T10:41:52Z</time>
</trkpt>
<trkpt lat="49.58475871011615" lon="9.367163619026542">
<ele>405.4</ele>
<time>2024-05-09T10:41:53Z</time>
</trkpt>
<trkpt lat="49.584781592711806" lon="9.36714643612504">
<ele>405.4</ele>
<time>2024-05-09T10:41:54Z</time>
</trkpt>
<trkpt lat="49.584804475307465" lon="9.36712640337646">
<ele>405.4</ele>
<time>2024-05-09T10:41:55Z</time>
</trkpt>
<trkpt lat="49.58481973037124" lon="9.36711022630334">
<ele>405.4</ele>
<time>2024-05-09T10:41:56Z</time>
</trkpt>
<trkpt lat="49.58483498543501" lon="9.367092121392488">
<ele>405.4</ele>
<time>2024-05-09T10:41:57Z</time>
</trkpt>
<trkpt lat="49.58485409617424" lon="9.367073010653256">
<ele>405.4</ele>
<time>2024-05-09T10:41:58Z</time>
</trkpt>
<trkpt lat="49.58487312309444" lon="9.367056833580136">
<ele>405.4</ele>
<time>2024-05-09T10:41:59Z</time>
</trkpt>
<trkpt lat="49.58488837815821" lon="9.367039650678636">
<ele>405.4</ele>
<time>2024-05-09T10:42:00Z</time>
</trkpt>
<trkpt lat="49.584903717041016" lon="9.367021545767784">
<ele>405.4</ele>
<time>2024-05-09T10:42:01Z</time>
</trkpt>
<trkpt lat="49.584922743961215" lon="9.367003440856934">
<ele>405.4</ele>
<time>2024-05-09T10:42:02Z</time>
</trkpt>
<trkpt lat="49.584941854700446" lon="9.366985252127051">
<ele>405.4</ele>
<time>2024-05-09T10:42:03Z</time>
</trkpt>
<trkpt lat="49.58495710976422" lon="9.366959519684317">
<ele>405.4</ele>
<time>2024-05-09T10:42:04Z</time>
</trkpt>
<trkpt lat="49.58497613668442" lon="9.36692993156612">
<ele>405.4</ele>
<time>2024-05-09T10:42:05Z</time>
</trkpt>
<trkpt lat="49.58499524742365" lon="9.366901349276304">
<ele>405.4</ele>
<time>2024-05-09T10:42:06Z</time>
</trkpt>
<trkpt lat="49.58501050248742" lon="9.366869917139413">
<ele>405.4</ele>
<time>2024-05-09T10:42:07Z</time>
</trkpt>
<trkpt lat="49.58503338508308" lon="9.366836473345757">
<ele>405.4</ele>
<time>2024-05-09T10:42:08Z</time>
</trkpt>
<trkpt lat="49.58504864014685" lon="9.366803113371134">
<ele>405.4</ele>
<time>2024-05-09T10:42:09Z</time>
</trkpt>
<trkpt lat="49.58507152274251" lon="9.36677453108132">
<ele>405.4</ele>
<time>2024-05-09T10:42:10Z</time>
</trkpt>
<trkpt lat="49.58509063348174" lon="9.366748798638582">
<ele>405.4</ele>
<time>2024-05-09T10:42:11Z</time>
</trkpt>
<trkpt lat="49.58510966040194" lon="9.366722982376814">
<ele>405.4</ele>
<time>2024-05-09T10:42:12Z</time>
</trkpt>
<trkpt lat="49.58512877114117" lon="9.366695322096348">
<ele>405.4</ele>
<time>2024-05-09T10:42:13Z</time>
</trkpt>
<trkpt lat="49.58515165373683" lon="9.366669589653611">
<ele>405.4</ele>
<time>2024-05-09T10:42:14Z</time>
</trkpt>
<trkpt lat="49.5851669088006" lon="9.366648634895682">
<ele>405.4</ele>
<time>2024-05-09T10:42:15Z</time>
</trkpt>
<trkpt lat="49.5851859357208" lon="9.366626674309371">
<ele>405.4</ele>
<time>2024-05-09T10:42:16Z</time>
</trkpt>
<trkpt lat="49.585201190784574" lon="9.366606641560791">
<ele>405.4</ele>
<time>2024-05-09T10:42:17Z</time>
</trkpt>
<trkpt lat="49.585216445848346" lon="9.366589542478325">
<ele>405.4</ele>
<time>2024-05-09T10:42:18Z</time>
</trkpt>
<trkpt lat="49.585239328444" lon="9.366579987108707">
<ele>405.4</ele>
<time>2024-05-09T10:42:19Z</time>
</trkpt>
<trkpt lat="49.585258439183235" lon="9.36657135374844">
<ele>405.4</ele>
<time>2024-05-09T10:42:20Z</time>
</trkpt>
<trkpt lat="49.585277549922466" lon="9.366563726216556">
<ele>405.4</ele>
<time>2024-05-09T10:42:21Z</time>
</trkpt>
<trkpt lat="49.585296576842666" lon="9.366546627134085">
<ele>405.4</ele>
<time>2024-05-09T10:42:22Z</time>
</trkpt>
<trkpt lat="49.58532331511378" lon="9.366531372070313">
<ele>405.4</ele>
<time>2024-05-09T10:42:23Z</time>
</trkpt>
<trkpt lat="49.58534619770944" lon="9.366511339321733">
<ele>405.4</ele>
<time>2024-05-09T10:42:24Z</time>
</trkpt>
<trkpt lat="49.5853690803051" lon="9.366491306573153">
<ele>405.4</ele>
<time>2024-05-09T10:42:25Z</time>
</trkpt>
<trkpt lat="49.58539196290076" lon="9.366471273824573">
<ele>405.4</ele>
<time>2024-05-09T10:42:26Z</time>
</trkpt>
<trkpt lat="49.585414845496416" lon="9.36645501293242">
<ele>405.4</ele>
<time>2024-05-09T10:42:27Z</time>
</trkpt>
<trkpt lat="49.58543395623565" lon="9.36643690802157">
<ele>405.4</ele>
<time>2024-05-09T10:42:28Z</time>
</trkpt>
<trkpt lat="49.585456838831306" lon="9.366421652957795">
<ele>405.4</ele>
<time>2024-05-09T10:42:29Z</time>
</trkpt>
<trkpt lat="49.58547972142696" lon="9.366410253569484">
<ele>405.4</ele>
<time>2024-05-09T10:42:30Z</time>
</trkpt>
<trkpt lat="49.58550637587905" lon="9.366399692371488">
<ele>405.4</ele>
<time>2024-05-09T10:42:31Z</time>
</trkpt>
<trkpt lat="49.58553311415017" lon="9.366385443136096">
<ele>405.4</ele>
<time>2024-05-09T10:42:32Z</time>
</trkpt>
<trkpt lat="49.58556362427771" lon="9.366366332396863">
<ele>405.4</ele>
<time>2024-05-09T10:42:33Z</time>
</trkpt>
<trkpt lat="49.58559036254883" lon="9.366353005170822">
<ele>405.4</ele>
<time>2024-05-09T10:42:34Z</time>
</trkpt>
<trkpt lat="49.5856246445328" lon="9.36633674427867">
<ele>405.4</ele>
<time>2024-05-09T10:42:35Z</time>
</trkpt>
<trkpt lat="49.5856590103358" lon="9.36631679534912">
<ele>405.4</ele>
<time>2024-05-09T10:42:36Z</time>
</trkpt>
<trkpt lat="49.585693292319775" lon="9.36629676260054">
<ele>405.4</ele>
<time>2024-05-09T10:42:37Z</time>
</trkpt>
<trkpt lat="49.585735285654664" lon="9.366274802014232">
<ele>405.2</ele>
<time>2024-05-09T10:42:38Z</time>
</trkpt>
<trkpt lat="49.585773423314095" lon="9.36625669710338">
<ele>405.2</ele>
<time>2024-05-09T10:42:39Z</time>
</trkpt>
<trkpt lat="49.585811560973525" lon="9.366241442039607">
<ele>405</ele>
<time>2024-05-09T10:42:40Z</time>
</trkpt>
<trkpt lat="49.58584969863296" lon="9.366225181147456">
<ele>405</ele>
<time>2024-05-09T10:42:41Z</time>
</trkpt>
<trkpt lat="49.585887836292386" lon="9.36619852669537">
<ele>404.8</ele>
<time>2024-05-09T10:42:42Z</time>
</trkpt>
<trkpt lat="49.58592597395182" lon="9.366174638271332">
<ele>404.6</ele>
<time>2024-05-09T10:42:43Z</time>
</trkpt>
<trkpt lat="49.585967967286706" lon="9.366151755675672">
<ele>404.4</ele>
<time>2024-05-09T10:42:44Z</time>
</trkpt>
<trkpt lat="49.586009960621595" lon="9.366126945242286">
<ele>404.4</ele>
<time>2024-05-09T10:42:45Z</time>
</trkpt>
<trkpt lat="49.586048098281026" lon="9.36610314063728">
<ele>404.2</ele>
<time>2024-05-09T10:42:46Z</time>
</trkpt>
<trkpt lat="49.58609000779688" lon="9.36607640236616">
<ele>404</ele>
<time>2024-05-09T10:42:47Z</time>
</trkpt>
<trkpt lat="49.58613200113177" lon="9.366048742085695">
<ele>403.8</ele>
<time>2024-05-09T10:42:48Z</time>
</trkpt>
<trkpt lat="49.58617399446666" lon="9.36602300964296">
<ele>403.8</ele>
<time>2024-05-09T10:42:49Z</time>
</trkpt>
<trkpt lat="49.58621975965798" lon="9.36599819920957">
<ele>403.6</ele>
<time>2024-05-09T10:42:50Z</time>
</trkpt>
<trkpt lat="49.586265524849296" lon="9.365976322442291">
<ele>403.6</ele>
<time>2024-05-09T10:42:51Z</time>
</trkpt>
<trkpt lat="49.58631514571607" lon="9.36596006155014">
<ele>403.4</ele>
<time>2024-05-09T10:42:52Z</time>
</trkpt>
<trkpt lat="49.58636091090739" lon="9.36594002880156">
<ele>403.4</ele>
<time>2024-05-09T10:42:53Z</time>
</trkpt>
<trkpt lat="49.586406676098704" lon="9.365918152034284">
<ele>403.4</ele>
<time>2024-05-09T10:42:54Z</time>
</trkpt>
<trkpt lat="49.586448669433594" lon="9.365893341600897">
<ele>403.2</ele>
<time>2024-05-09T10:42:55Z</time>
</trkpt>
<trkpt lat="49.58649443462491" lon="9.365871381014584">
<ele>403.2</ele>
<time>2024-05-09T10:42:56Z</time>
</trkpt>
<trkpt lat="49.58653634414077" lon="9.365851348266006">
<ele>403.2</ele>
<time>2024-05-09T10:42:57Z</time>
</trkpt>
<trkpt lat="49.58657833747566" lon="9.365830393508077">
<ele>403.2</ele>
<time>2024-05-09T10:42:58Z</time>
</trkpt>
<trkpt lat="49.58661647513509" lon="9.365810360759497">
<ele>403.2</ele>
<time>2024-05-09T10:42:59Z</time>
</trkpt>
<trkpt lat="49.58665461279452" lon="9.365788400173187">
<ele>403.2</ele>
<time>2024-05-09T10:43:00Z</time>
</trkpt>
<trkpt lat="49.58668897859752" lon="9.3657635897398">
<ele>403.2</ele>
<time>2024-05-09T10:43:01Z</time>
</trkpt>
<trkpt lat="49.58672326058149" lon="9.365736935287714">
<ele>403.2</ele>
<time>2024-05-09T10:43:02Z</time>
</trkpt>
<trkpt lat="49.5867576263845" lon="9.365711202844976">
<ele>403.2</ele>
<time>2024-05-09T10:43:03Z</time>
</trkpt>
<trkpt lat="49.5867919921875" lon="9.36568832024932">
<ele>403.2</ele>
<time>2024-05-09T10:43:04Z</time>
</trkpt>
<trkpt lat="49.58682627417147" lon="9.365661581978202">
<ele>403.2</ele>
<time>2024-05-09T10:43:05Z</time>
</trkpt>
<trkpt lat="49.586860639974475" lon="9.365630149841309">
<ele>403.2</ele>
<time>2024-05-09T10:43:06Z</time>
</trkpt>
<trkpt lat="49.58689492195845" lon="9.365596706047654">
<ele>403.2</ele>
<time>2024-05-09T10:43:07Z</time>
</trkpt>
<trkpt lat="49.58692928776145" lon="9.365563346073031">
<ele>403.2</ele>
<time>2024-05-09T10:43:08Z</time>
</trkpt>
<trkpt lat="49.58697128109634" lon="9.3655252084136">
<ele>403.2</ele>
<time>2024-05-09T10:43:09Z</time>
</trkpt>
<trkpt lat="49.58700556308031" lon="9.36548799276352">
<ele>403</ele>
<time>2024-05-09T10:43:10Z</time>
</trkpt>
<trkpt lat="49.587039928883314" lon="9.365453710779548">
<ele>403</ele>
<time>2024-05-09T10:43:11Z</time>
</trkpt>
<trkpt lat="49.58708183839917" lon="9.365420266985891">
<ele>402.8</ele>
<time>2024-05-09T10:43:12Z</time>
</trkpt>
<trkpt lat="49.5871199760586" lon="9.365387912839653">
<ele>402.6</ele>
<time>2024-05-09T10:43:13Z</time>
</trkpt>
<trkpt lat="49.587154341861606" lon="9.365356396883726">
<ele>402.6</ele>
<time>2024-05-09T10:43:14Z</time>
</trkpt>
<trkpt lat="49.58719247952104" lon="9.365324964746833">
<ele>402.6</ele>
<time>2024-05-09T10:43:15Z</time>
</trkpt>
<trkpt lat="49.58722684532404" lon="9.36528967693448">
<ele>402.6</ele>
<time>2024-05-09T10:43:16Z</time>
</trkpt>
<trkpt lat="49.58726498298347" lon="9.365253383293748">
<ele>402.4</ele>
<time>2024-05-09T10:43:17Z</time>
</trkpt>
<trkpt lat="49.5873031206429" lon="9.365215245634316">
<ele>402.4</ele>
<time>2024-05-09T10:43:18Z</time>
</trkpt>
<trkpt lat="49.58734125830233" lon="9.365177107974889">
<ele>402.4</ele>
<time>2024-05-09T10:43:19Z</time>
</trkpt>
<trkpt lat="49.58737939596176" lon="9.365139892324803">
<ele>402.2</ele>
<time>2024-05-09T10:43:20Z</time>
</trkpt>
<trkpt lat="49.58742138929665" lon="9.365103682503104">
<ele>402.2</ele>
<time>2024-05-09T10:43:21Z</time>
</trkpt>
<trkpt lat="49.58746715448797" lon="9.365064539015291">
<ele>402.2</ele>
<time>2024-05-09T10:43:22Z</time>
</trkpt>
<trkpt lat="49.58751677535474" lon="9.365024557337165">
<ele>402.2</ele>
<time>2024-05-09T10:43:23Z</time>
</trkpt>
<trkpt lat="49.5875586848706" lon="9.364983486011624">
<ele>402</ele>
<time>2024-05-09T10:43:24Z</time>
</trkpt>
<trkpt lat="49.587608305737376" lon="9.364939648658035">
<ele>402</ele>
<time>2024-05-09T10:43:25Z</time>
</trkpt>
<trkpt lat="49.58765407092869" lon="9.364898661151528">
<ele>401.8</ele>
<time>2024-05-09T10:43:26Z</time>
</trkpt>
<trkpt lat="49.58769983612001" lon="9.364858595654368">
<ele>401.8</ele>
<time>2024-05-09T10:43:27Z</time>
</trkpt>
<trkpt lat="49.587749456986785" lon="9.36481475830078">
<ele>401.8</ele>
<time>2024-05-09T10:43:28Z</time>
</trkpt>
<trkpt lat="49.58779899403453" lon="9.364771842956545">
<ele>401.6</ele>
<time>2024-05-09T10:43:29Z</time>
</trkpt>
<trkpt lat="49.58785247057676" lon="9.364727921783924">
<ele>401.4</ele>
<time>2024-05-09T10:43:30Z</time>
</trkpt>
<trkpt lat="49.58790200762451" lon="9.364685006439686">
<ele>401.2</ele>
<time>2024-05-09T10:43:31Z</time>
</trkpt>
<trkpt lat="49.58795540034771" lon="9.3646411690861">
<ele>401.2</ele>
<time>2024-05-09T10:43:32Z</time>
</trkpt>
<trkpt lat="49.588008876889944" lon="9.364595403894782">
<ele>401.2</ele>
<time>2024-05-09T10:43:33Z</time>
</trkpt>
<trkpt lat="49.58806226961315" lon="9.364542933180928">
<ele>401.2</ele>
<time>2024-05-09T10:43:34Z</time>
</trkpt>
<trkpt lat="49.58811566233635" lon="9.364489540457726">
<ele>401</ele>
<time>2024-05-09T10:43:35Z</time>
</trkpt>
<trkpt lat="49.588165283203125" lon="9.36443991959095">
<ele>400.8</ele>
<time>2024-05-09T10:43:36Z</time>
</trkpt>
<trkpt lat="49.58821867592633" lon="9.364386526867747">
<ele>400.6</ele>
<time>2024-05-09T10:43:37Z</time>
</trkpt>
<trkpt lat="49.58827206864953" lon="9.364334978163242">
<ele>400.4</ele>
<time>2024-05-09T10:43:38Z</time>
</trkpt>
<trkpt lat="49.58832546137273" lon="9.364283513277767">
<ele>400.2</ele>
<time>2024-05-09T10:43:39Z</time>
</trkpt>
<trkpt lat="49.58837122656405" lon="9.364228192716835">
<ele>400</ele>
<time>2024-05-09T10:43:40Z</time>
</trkpt>
<trkpt lat="49.588420847430825" lon="9.364171950146556">
<ele>400</ele>
<time>2024-05-09T10:43:41Z</time>
</trkpt>
<trkpt lat="49.58847038447857" lon="9.364109924063088">
<ele>399.6</ele>
<time>2024-05-09T10:43:42Z</time>
</trkpt>
<trkpt lat="49.588520005345345" lon="9.36404513195157">
<ele>399.4</ele>
<time>2024-05-09T10:43:43Z</time>
</trkpt>
<trkpt lat="49.58856577053666" lon="9.363978328183292">
<ele>399.2</ele>
<time>2024-05-09T10:43:44Z</time>
</trkpt>
<trkpt lat="49.58861153572798" lon="9.36390875838697">
<ele>399</ele>
<time>2024-05-09T10:43:45Z</time>
</trkpt>
<trkpt lat="49.58866115659475" lon="9.363838182762263">
<ele>398.8</ele>
<time>2024-05-09T10:43:46Z</time>
</trkpt>
<trkpt lat="49.58871077746153" lon="9.36376852914691">
<ele>398.6</ele>
<time>2024-05-09T10:43:47Z</time>
</trkpt>
<trkpt lat="49.588756542652845" lon="9.363695103675129">
<ele>398.6</ele>
<time>2024-05-09T10:43:48Z</time>
</trkpt>
<trkpt lat="49.58880230784416" lon="9.363619750365617">
<ele>398.6</ele>
<time>2024-05-09T10:43:49Z</time>
</trkpt>
<trkpt lat="49.58884421736002" lon="9.363546324893832">
<ele>398.4</ele>
<time>2024-05-09T10:43:50Z</time>
</trkpt>
<trkpt lat="49.58888621069491" lon="9.3634719774127">
<ele>398.4</ele>
<time>2024-05-09T10:43:51Z</time>
</trkpt>
<trkpt lat="49.5889282040298" lon="9.36339469626546">
<ele>398.4</ele>
<time>2024-05-09T10:43:52Z</time>
</trkpt>
<trkpt lat="49.588973969221115" lon="9.363320348784328">
<ele>398.2</ele>
<time>2024-05-09T10:43:53Z</time>
</trkpt>
<trkpt lat="49.58901973441243" lon="9.363244995474815">
<ele>398</ele>
<time>2024-05-09T10:43:54Z</time>
</trkpt>
<trkpt lat="49.589073127135634" lon="9.363171570003033">
<ele>397.8</ele>
<time>2024-05-09T10:43:55Z</time>
</trkpt>
<trkpt lat="49.58912274800241" lon="9.363101916387675">
<ele>397.6</ele>
<time>2024-05-09T10:43:56Z</time>
</trkpt>
<trkpt lat="49.58917614072561" lon="9.363035196438432">
<ele>397.4</ele>
<time>2024-05-09T10:43:57Z</time>
</trkpt>
<trkpt lat="49.589229533448815" lon="9.362975098192692">
<ele>397.4</ele>
<time>2024-05-09T10:43:58Z</time>
</trkpt>
<trkpt lat="49.58928678184748" lon="9.36291692778468">
<ele>397.2</ele>
<time>2024-05-09T10:43:59Z</time>
</trkpt>
<trkpt lat="49.58934017457068" lon="9.362865379080176">
<ele>397</ele>
<time>2024-05-09T10:44:00Z</time>
</trkpt>
<trkpt lat="49.58940119482577" lon="9.36281676404178">
<ele>397</ele>
<time>2024-05-09T10:44:01Z</time>
</trkpt>
<trkpt lat="49.58946221508086" lon="9.362768149003386">
<ele>396.6</ele>
<time>2024-05-09T10:44:02Z</time>
</trkpt>
<trkpt lat="49.589523235335946" lon="9.362725233659148">
<ele>396.4</ele>
<time>2024-05-09T10:44:03Z</time>
</trkpt>
<trkpt lat="49.589588111266494" lon="9.362678462639453">
<ele>396.2</ele>
<time>2024-05-09T10:44:04Z</time>
</trkpt>
<trkpt lat="49.58964913152158" lon="9.362629847601056">
<ele>396</ele>
<time>2024-05-09T10:44:05Z</time>
</trkpt>
<trkpt lat="49.58971400745213" lon="9.36258123256266">
<ele>395.8</ele>
<time>2024-05-09T10:44:06Z</time>
</trkpt>
<trkpt lat="49.58977502770722" lon="9.362524906173348">
<ele>395.8</ele>
<time>2024-05-09T10:44:07Z</time>
</trkpt>
<trkpt lat="49.58983604796231" lon="9.362466735765338">
<ele>395.6</ele>
<time>2024-05-09T10:44:08Z</time>
</trkpt>
<trkpt lat="49.58989329636097" lon="9.36240672133863">
<ele>395.4</ele>
<time>2024-05-09T10:44:09Z</time>
</trkpt>
<trkpt lat="49.58995054475963" lon="9.362341845408082">
<ele>395.2</ele>
<time>2024-05-09T10:44:10Z</time>
</trkpt>
<trkpt lat="49.590003937482834" lon="9.362273197621109">
<ele>395</ele>
<time>2024-05-09T10:44:11Z</time>
</trkpt>
<trkpt lat="49.59005355834961" lon="9.362203544005752">
<ele>394.6</ele>
<time>2024-05-09T10:44:12Z</time>
</trkpt>
<trkpt lat="49.59010309539735" lon="9.36212819069624">
<ele>394.2</ele>
<time>2024-05-09T10:44:13Z</time>
</trkpt>
<trkpt lat="49.59014508873224" lon="9.362048143520951">
<ele>394</ele>
<time>2024-05-09T10:44:14Z</time>
</trkpt>
<trkpt lat="49.5901869982481" lon="9.36196700669825">
<ele>393.6</ele>
<time>2024-05-09T10:44:15Z</time>
</trkpt>
<trkpt lat="49.59022899158299" lon="9.361883103847504">
<ele>393.2</ele>
<time>2024-05-09T10:44:16Z</time>
</trkpt>
<trkpt lat="49.59027098491788" lon="9.361800123006104">
<ele>393</ele>
<time>2024-05-09T10:44:17Z</time>
</trkpt>
<trkpt lat="49.59031289443374" lon="9.36171529814601">
<ele>392.6</ele>
<time>2024-05-09T10:44:18Z</time>
</trkpt>
<trkpt lat="49.590354887768626" lon="9.361626617610456">
<ele>392.4</ele>
<time>2024-05-09T10:44:19Z</time>
</trkpt>
<trkpt lat="49.59039688110352" lon="9.361539781093596">
<ele>392</ele>
<time>2024-05-09T10:44:20Z</time>
</trkpt>
<trkpt lat="49.59043879061937" lon="9.3614568002522">
<ele>391.8</ele>
<time>2024-05-09T10:44:21Z</time>
</trkpt>
<trkpt lat="49.59048078395426" lon="9.361374825239182">
<ele>391.8</ele>
<time>2024-05-09T10:44:22Z</time>
</trkpt>
<trkpt lat="49.59051892161369" lon="9.36129854992032">
<ele>391.8</ele>
<time>2024-05-09T10:44:23Z</time>
</trkpt>
<trkpt lat="49.59055705927312" lon="9.361225124448538">
<ele>391.8</ele>
<time>2024-05-09T10:44:24Z</time>
</trkpt>
<trkpt lat="49.590595196932554" lon="9.361154548823832">
<ele>391.8</ele>
<time>2024-05-09T10:44:25Z</time>
</trkpt>
<trkpt lat="49.590633334591985" lon="9.361086823046207">
<ele>391.8</ele>
<time>2024-05-09T10:44:26Z</time>
</trkpt>
<trkpt lat="49.590671472251415" lon="9.361024796962738">
<ele>391.6</ele>
<time>2024-05-09T10:44:27Z</time>
</trkpt>
<trkpt lat="49.590709609910846" lon="9.36096377670765">
<ele>391.6</ele>
<time>2024-05-09T10:44:28Z</time>
</trkpt>
<trkpt lat="49.59074783138931" lon="9.360906528308988">
<ele>391.6</ele>
<time>2024-05-09T10:44:29Z</time>
</trkpt>
<trkpt lat="49.59078596904874" lon="9.360853135585783">
<ele>391.6</ele>
<time>2024-05-09T10:44:30Z</time>
</trkpt>
<trkpt lat="49.59081647917628" lon="9.360797815024853">
<ele>391.6</ele>
<time>2024-05-09T10:44:31Z</time>
</trkpt>
<trkpt lat="49.59084313362837" lon="9.3607435002923">
<ele>391.4</ele>
<time>2024-05-09T10:44:32Z</time>
</trkpt>
<trkpt lat="49.590869871899486" lon="9.360688179731367">
<ele>391.4</ele>
<time>2024-05-09T10:44:33Z</time>
</trkpt>
<trkpt lat="49.59090038202703" lon="9.360634787008166">
<ele>391.2</ele>
<time>2024-05-09T10:44:34Z</time>
</trkpt>
<trkpt lat="49.590930892154574" lon="9.360591871663928">
<ele>391.2</ele>
<time>2024-05-09T10:44:35Z</time>
</trkpt>
<trkpt lat="49.590969029814005" lon="9.36056320555508">
<ele>391</ele>
<time>2024-05-09T10:44:36Z</time>
</trkpt>
<trkpt lat="49.59101479500532" lon="9.36054987832904">
<ele>391</ele>
<time>2024-05-09T10:44:37Z</time>
</trkpt>
<trkpt lat="49.59106818772853" lon="9.36054510064423">
<ele>390.8</ele>
<time>2024-05-09T10:44:38Z</time>
</trkpt>
<trkpt lat="49.591125436127186" lon="9.3605431728065">
<ele>390.6</ele>
<time>2024-05-09T10:44:39Z</time>
</trkpt>
<trkpt lat="49.591186456382275" lon="9.360540322959425">
<ele>390.4</ele>
<time>2024-05-09T10:44:40Z</time>
</trkpt>
<trkpt lat="49.591243704780936" lon="9.360533701255918">
<ele>390.2</ele>
<time>2024-05-09T10:44:41Z</time>
</trkpt>
<trkpt lat="49.591304725036025" lon="9.360520290210845">
<ele>390</ele>
<time>2024-05-09T10:44:42Z</time>
</trkpt>
<trkpt lat="49.591365745291114" lon="9.360511740669608">
<ele>389.6</ele>
<time>2024-05-09T10:44:43Z</time>
</trkpt>
<trkpt lat="49.591422993689775" lon="9.36050788499415">
<ele>389.4</ele>
<time>2024-05-09T10:44:44Z</time>
</trkpt>
<trkpt lat="49.59148024208844" lon="9.3605069629848">
<ele>389.2</ele>
<time>2024-05-09T10:44:45Z</time>
</trkpt>
<trkpt lat="49.59153363481164" lon="9.360511740669608">
<ele>388.8</ele>
<time>2024-05-09T10:44:46Z</time>
</trkpt>
<trkpt lat="49.59158702753484" lon="9.360516518354416">
<ele>388.4</ele>
<time>2024-05-09T10:44:47Z</time>
</trkpt>
<trkpt lat="49.591640420258045" lon="9.360523223876951">
<ele>388.2</ele>
<time>2024-05-09T10:44:48Z</time>
</trkpt>
<trkpt lat="49.59169381298125" lon="9.360533701255918">
<ele>387.8</ele>
<time>2024-05-09T10:44:49Z</time>
</trkpt>
<trkpt lat="49.59174343384802" lon="9.36054510064423">
<ele>387.6</ele>
<time>2024-05-09T10:44:50Z</time>
</trkpt>
<trkpt lat="49.591796826571226" lon="9.360556583851576">
<ele>387.2</ele>
<time>2024-05-09T10:44:51Z</time>
</trkpt>
<trkpt lat="49.59184259176254" lon="9.36056706123054">
<ele>387</ele>
<time>2024-05-09T10:44:52Z</time>
</trkpt>
<trkpt lat="49.59189221262932" lon="9.360578460618854">
<ele>386.8</ele>
<time>2024-05-09T10:44:53Z</time>
</trkpt>
<trkpt lat="49.591937977820635" lon="9.360594721511006">
<ele>386.6</ele>
<time>2024-05-09T10:44:54Z</time>
</trkpt>
<trkpt lat="49.59197997115552" lon="9.360614754259586">
<ele>386.4</ele>
<time>2024-05-09T10:44:55Z</time>
</trkpt>
<trkpt lat="49.592018108814955" lon="9.360641408711672">
<ele>386.4</ele>
<time>2024-05-09T10:44:56Z</time>
</trkpt>
<trkpt lat="49.59204476326704" lon="9.360674852505326">
<ele>386.2</ele>
<time>2024-05-09T10:44:57Z</time>
</trkpt>
<trkpt lat="49.592075273394585" lon="9.360710140317678">
<ele>386.2</ele>
<time>2024-05-09T10:44:58Z</time>
</trkpt>
<trkpt lat="49.5921020116657" lon="9.360748277977107">
<ele>386.2</ele>
<time>2024-05-09T10:44:59Z</time>
</trkpt>
<trkpt lat="49.59212112240493" lon="9.36078448779881">
<ele>386</ele>
<time>2024-05-09T10:45:00Z</time>
</trkpt>
<trkpt lat="49.59214014932513" lon="9.360821703448892">
<ele>386</ele>
<time>2024-05-09T10:45:01Z</time>
</trkpt>
<trkpt lat="49.59215926006436" lon="9.36086361296475">
<ele>386</ele>
<time>2024-05-09T10:45:02Z</time>
</trkpt>
<trkpt lat="49.59217828698456" lon="9.36090468429029">
<ele>386.2</ele>
<time>2024-05-09T10:45:03Z</time>
</trkpt>
<trkpt lat="49.592193542048335" lon="9.360944665968418">
<ele>386.2</ele>
<time>2024-05-09T10:45:04Z</time>
</trkpt>
<trkpt lat="49.59221642464399" lon="9.360988587141035">
<ele>386.4</ele>
<time>2024-05-09T10:45:05Z</time>
</trkpt>
<trkpt lat="49.592235535383224" lon="9.361035274341702">
<ele>386.4</ele>
<time>2024-05-09T10:45:06Z</time>
</trkpt>
<trkpt lat="49.59225841797888" lon="9.3610820453614">
<ele>386.6</ele>
<time>2024-05-09T10:45:07Z</time>
</trkpt>
<trkpt lat="49.59228515625" lon="9.361126888543367">
<ele>386.6</ele>
<time>2024-05-09T10:45:08Z</time>
</trkpt>
<trkpt lat="49.59230803884566" lon="9.361166954040527">
<ele>386.8</ele>
<time>2024-05-09T10:45:09Z</time>
</trkpt>
<trkpt lat="49.592334693297744" lon="9.361203163862228">
<ele>386.8</ele>
<time>2024-05-09T10:45:10Z</time>
</trkpt>
<trkpt lat="49.59236143156886" lon="9.361234595999122">
<ele>386.8</ele>
<time>2024-05-09T10:45:11Z</time>
</trkpt>
<trkpt lat="49.592391941696405" lon="9.361263262107968">
<ele>386.8</ele>
<time>2024-05-09T10:45:12Z</time>
</trkpt>
<trkpt lat="49.59242245182395" lon="9.361289916560054">
<ele>386.8</ele>
<time>2024-05-09T10:45:13Z</time>
</trkpt>
<trkpt lat="49.592452961951494" lon="9.361314726993442">
<ele>387</ele>
<time>2024-05-09T10:45:14Z</time>
</trkpt>
<trkpt lat="49.59248347207904" lon="9.361332831904292">
<ele>387</ele>
<time>2024-05-09T10:45:15Z</time>
</trkpt>
<trkpt lat="49.59251398220658" lon="9.361350014805794">
<ele>387.2</ele>
<time>2024-05-09T10:45:16Z</time>
</trkpt>
<trkpt lat="49.592548348009586" lon="9.361358564347029">
<ele>387.2</ele>
<time>2024-05-09T10:45:17Z</time>
</trkpt>
<trkpt lat="49.59257500246167" lon="9.36136149801314">
<ele>387.4</ele>
<time>2024-05-09T10:45:18Z</time>
</trkpt>
<trkpt lat="49.5926131401211" lon="9.36135957017541">
<ele>387.6</ele>
<time>2024-05-09T10:45:19Z</time>
</trkpt>
<trkpt lat="49.592647505924106" lon="9.361356720328333">
<ele>387.8</ele>
<time>2024-05-09T10:45:20Z</time>
</trkpt>
<trkpt lat="49.59268187172711" lon="9.361351942643523">
<ele>388.2</ele>
<time>2024-05-09T10:45:21Z</time>
</trkpt>
<trkpt lat="49.59271615371108" lon="9.36134146526456">
<ele>388.6</ele>
<time>2024-05-09T10:45:22Z</time>
</trkpt>
<trkpt lat="49.592746663838625" lon="9.361328054219484">
<ele>388.8</ele>
<time>2024-05-09T10:45:23Z</time>
</trkpt>
<trkpt lat="49.59278102964163" lon="9.361308021470904">
<ele>389.2</ele>
<time>2024-05-09T10:45:24Z</time>
</trkpt>
<trkpt lat="49.59281153976917" lon="9.361285138875246">
<ele>389.4</ele>
<time>2024-05-09T10:45:25Z</time>
</trkpt>
<trkpt lat="49.592845905572176" lon="9.36126041226089">
<ele>389.8</ele>
<time>2024-05-09T10:45:26Z</time>
</trkpt>
<trkpt lat="49.59287641569972" lon="9.361231746152043">
<ele>390</ele>
<time>2024-05-09T10:45:27Z</time>
</trkpt>
<trkpt lat="49.592906925827265" lon="9.3612012360245">
<ele>390.4</ele>
<time>2024-05-09T10:45:28Z</time>
</trkpt>
<trkpt lat="49.59294120781123" lon="9.361174581572412">
<ele>390.6</ele>
<time>2024-05-09T10:45:29Z</time>
</trkpt>
<trkpt lat="49.59297180175781" lon="9.361146921291947">
<ele>390.8</ele>
<time>2024-05-09T10:45:30Z</time>
</trkpt>
<trkpt lat="49.593006083741784" lon="9.3611182551831">
<ele>391</ele>
<time>2024-05-09T10:45:31Z</time>
</trkpt>
<trkpt lat="49.59303659386933" lon="9.361089672893286">
<ele>391.4</ele>
<time>2024-05-09T10:45:32Z</time>
</trkpt>
<trkpt lat="49.59306710399687" lon="9.36106008477509">
<ele>391.6</ele>
<time>2024-05-09T10:45:33Z</time>
</trkpt>
<trkpt lat="49.59309761412442" lon="9.361031502485275">
<ele>391.8</ele>
<time>2024-05-09T10:45:34Z</time>
</trkpt>
<trkpt lat="49.59312812425196" lon="9.36099998652935">
<ele>392.2</ele>
<time>2024-05-09T10:45:35Z</time>
</trkpt>
<trkpt lat="49.59315486252308" lon="9.360969476401806">
<ele>392.4</ele>
<time>2024-05-09T10:45:36Z</time>
</trkpt>
<trkpt lat="49.59318537265062" lon="9.360939972102642">
<ele>392.6</ele>
<time>2024-05-09T10:45:37Z</time>
</trkpt>
<trkpt lat="49.59321588277817" lon="9.360908456146715">
<ele>392.8</ele>
<time>2024-05-09T10:45:38Z</time>
</trkpt>
<trkpt lat="49.59324639290571" lon="9.360877024009824">
<ele>393</ele>
<time>2024-05-09T10:45:39Z</time>
</trkpt>
<trkpt lat="49.59327313117683" lon="9.36084358021617">
<ele>393.2</ele>
<time>2024-05-09T10:45:40Z</time>
</trkpt>
<trkpt lat="49.593303641304374" lon="9.360817847773433">
<ele>393.4</ele>
<time>2024-05-09T10:45:41Z</time>
</trkpt>
<trkpt lat="49.59333415143192" lon="9.360788343474267">
<ele>393.6</ele>
<time>2024-05-09T10:45:42Z</time>
</trkpt>
<trkpt lat="49.59336466155946" lon="9.360758755356072">
<ele>393.8</ele>
<time>2024-05-09T10:45:43Z</time>
</trkpt>
<trkpt lat="49.59339517168701" lon="9.36072539538145">
<ele>394</ele>
<time>2024-05-09T10:45:44Z</time>
</trkpt>
<trkpt lat="49.59342568181455" lon="9.360694885253906">
<ele>394</ele>
<time>2024-05-09T10:45:45Z</time>
</trkpt>
<trkpt lat="49.593456191942096" lon="9.360661441460252">
<ele>394.2</ele>
<time>2024-05-09T10:45:46Z</time>
</trkpt>
<trkpt lat="49.59348293021321" lon="9.360632859170437">
<ele>394.4</ele>
<time>2024-05-09T10:45:47Z</time>
</trkpt>
<trkpt lat="49.59351344034076" lon="9.36060327105224">
<ele>394.4</ele>
<time>2024-05-09T10:45:48Z</time>
</trkpt>
<trkpt lat="49.593540178611875" lon="9.360571838915348">
<ele>394.6</ele>
<time>2024-05-09T10:45:49Z</time>
</trkpt>
<trkpt lat="49.59357068873942" lon="9.3605431728065">
<ele>394.8</ele>
<time>2024-05-09T10:45:50Z</time>
</trkpt>
<trkpt lat="49.593597343191504" lon="9.360513668507338">
<ele>395</ele>
<time>2024-05-09T10:45:51Z</time>
</trkpt>
<trkpt lat="49.59362785331905" lon="9.360483158379791">
<ele>395.2</ele>
<time>2024-05-09T10:45:52Z</time>
</trkpt>
<trkpt lat="49.593658447265625" lon="9.36044787056744">
<ele>395.4</ele>
<time>2024-05-09T10:45:53Z</time>
</trkpt>
<trkpt lat="49.59368510171771" lon="9.360416354611516">
<ele>395.6</ele>
<time>2024-05-09T10:45:54Z</time>
</trkpt>
<trkpt lat="49.593715611845255" lon="9.360384922474625">
<ele>395.6</ele>
<time>2024-05-09T10:45:55Z</time>
</trkpt>
<trkpt lat="49.5937461219728" lon="9.360355334356427">
<ele>395.8</ele>
<time>2024-05-09T10:45:56Z</time>
</trkpt>
<trkpt lat="49.593776632100344" lon="9.360324824228885">
<ele>396</ele>
<time>2024-05-09T10:45:57Z</time>
</trkpt>
<trkpt lat="49.59381099790335" lon="9.360296241939068">
<ele>396.2</ele>
<time>2024-05-09T10:45:58Z</time>
</trkpt>
<trkpt lat="49.59384150803089" lon="9.360266653820872">
<ele>396.2</ele>
<time>2024-05-09T10:45:59Z</time>
</trkpt>
<trkpt lat="49.59387201815843" lon="9.36023329384625">
<ele>396.2</ele>
<time>2024-05-09T10:46:00Z</time>
</trkpt>
<trkpt lat="49.59390252828598" lon="9.360199850052595">
<ele>396.4</ele>
<time>2024-05-09T10:46:01Z</time>
</trkpt>
<trkpt lat="49.593933038413525" lon="9.360168417915702">
<ele>396.4</ele>
<time>2024-05-09T10:46:02Z</time>
</trkpt>
<trkpt lat="49.59396354854107" lon="9.360137907788156">
<ele>396.4</ele>
<time>2024-05-09T10:46:03Z</time>
</trkpt>
<trkpt lat="49.59399405866861" lon="9.360110247507691">
<ele>396.6</ele>
<time>2024-05-09T10:46:04Z</time>
</trkpt>
<trkpt lat="49.59402465261519" lon="9.360084515064957">
<ele>396.6</ele>
<time>2024-05-09T10:46:05Z</time>
</trkpt>
<trkpt lat="49.594055162742734" lon="9.360058782622218">
<ele>396.8</ele>
<time>2024-05-09T10:46:06Z</time>
</trkpt>
<trkpt lat="49.59408567287028" lon="9.3600320443511">
<ele>397</ele>
<time>2024-05-09T10:46:07Z</time>
</trkpt>
<trkpt lat="49.59411995485425" lon="9.360006311908364">
<ele>397.2</ele>
<time>2024-05-09T10:46:08Z</time>
</trkpt>
<trkpt lat="49.594150464981794" lon="9.359979573637249">
<ele>397.4</ele>
<time>2024-05-09T10:46:09Z</time>
</trkpt>
<trkpt lat="49.59418105892837" lon="9.359956691041589">
<ele>397.6</ele>
<time>2024-05-09T10:46:10Z</time>
</trkpt>
<trkpt lat="49.594211569055915" lon="9.359932886436582">
<ele>397.8</ele>
<time>2024-05-09T10:46:11Z</time>
</trkpt>
<trkpt lat="49.59424585103989" lon="9.35991184785962">
<ele>398</ele>
<time>2024-05-09T10:46:12Z</time>
</trkpt>
<trkpt lat="49.59427636116743" lon="9.359888043254614">
<ele>398.4</ele>
<time>2024-05-09T10:46:13Z</time>
</trkpt>
<trkpt lat="49.594306871294975" lon="9.359867088496683">
<ele>398.6</ele>
<time>2024-05-09T10:46:14Z</time>
</trkpt>
<trkpt lat="49.59434123709798" lon="9.359847055748103">
<ele>398.8</ele>
<time>2024-05-09T10:46:15Z</time>
</trkpt>
<trkpt lat="49.59437174722552" lon="9.359827022999523">
<ele>398.8</ele>
<time>2024-05-09T10:46:16Z</time>
</trkpt>
<trkpt lat="49.594406113028526" lon="9.359807912260294">
<ele>399</ele>
<time>2024-05-09T10:46:17Z</time>
</trkpt>
<trkpt lat="49.5944403950125" lon="9.359793663024902">
<ele>399.2</ele>
<time>2024-05-09T10:46:18Z</time>
</trkpt>
<trkpt lat="49.5944747608155" lon="9.3597764801234">
<ele>399.4</ele>
<time>2024-05-09T10:46:19Z</time>
</trkpt>
<trkpt lat="49.59450904279947" lon="9.359761225059628">
<ele>399.8</ele>
<time>2024-05-09T10:46:20Z</time>
</trkpt>
<trkpt lat="49.59454340860248" lon="9.359749741852283">
<ele>400</ele>
<time>2024-05-09T10:46:21Z</time>
</trkpt>
<trkpt lat="49.59457777440548" lon="9.359743036329746">
<ele>400.4</ele>
<time>2024-05-09T10:46:22Z</time>
</trkpt>
<trkpt lat="49.59461205638945" lon="9.359731636941431">
<ele>400.6</ele>
<time>2024-05-09T10:46:23Z</time>
</trkpt>
<trkpt lat="49.594646422192454" lon="9.35971638187766">
<ele>400.8</ele>
<time>2024-05-09T10:46:24Z</time>
</trkpt>
<trkpt lat="49.59467693232" lon="9.359704898670316">
<ele>401</ele>
<time>2024-05-09T10:46:25Z</time>
</trkpt>
<trkpt lat="49.59471506997943" lon="9.35969634912908">
<ele>401.2</ele>
<time>2024-05-09T10:46:26Z</time>
</trkpt>
<trkpt lat="49.59474943578243" lon="9.359691571444271">
<ele>401.4</ele>
<time>2024-05-09T10:46:27Z</time>
</trkpt>
<trkpt lat="49.59478757344186" lon="9.359686793759463">
<ele>401.6</ele>
<time>2024-05-09T10:46:28Z</time>
</trkpt>
<trkpt lat="49.594821855425835" lon="9.359682016074656">
<ele>401.8</ele>
<time>2024-05-09T10:46:29Z</time>
</trkpt>
<trkpt lat="49.59485622122884" lon="9.3596763163805">
<ele>402</ele>
<time>2024-05-09T10:46:30Z</time>
</trkpt>
<trkpt lat="49.59489058703184" lon="9.359671538695691">
<ele>402.2</ele>
<time>2024-05-09T10:46:31Z</time>
</trkpt>
<trkpt lat="49.59492872469127" lon="9.359666761010883">
<ele>402.4</ele>
<time>2024-05-09T10:46:32Z</time>
</trkpt>
<trkpt lat="49.59496300667524" lon="9.35966013930738">
<ele>402.6</ele>
<time>2024-05-09T10:46:33Z</time>
</trkpt>
<trkpt lat="49.59499351680279" lon="9.359653433784842">
<ele>402.6</ele>
<time>2024-05-09T10:46:34Z</time>
</trkpt>
<trkpt lat="49.59503173828125" lon="9.359646728262303">
<ele>402.8</ele>
<time>2024-05-09T10:46:35Z</time>
</trkpt>
<trkpt lat="49.59506602026522" lon="9.3596401065588">
<ele>402.8</ele>
<time>2024-05-09T10:46:36Z</time>
</trkpt>
<trkpt lat="49.59510415792465" lon="9.35963625088334">
<ele>403</ele>
<time>2024-05-09T10:46:37Z</time>
</trkpt>
<trkpt lat="49.595138523727655" lon="9.359635328873992">
<ele>403.4</ele>
<time>2024-05-09T10:46:38Z</time>
</trkpt>
<trkpt lat="49.595176661387086" lon="9.359631473198531">
<ele>403.6</ele>
<time>2024-05-09T10:46:39Z</time>
</trkpt>
<trkpt lat="49.59521102719009" lon="9.359624851495028">
<ele>403.8</ele>
<time>2024-05-09T10:46:40Z</time>
</trkpt>
<trkpt lat="49.59524530917406" lon="9.35961814597249">
<ele>404</ele>
<time>2024-05-09T10:46:41Z</time>
</trkpt>
<trkpt lat="49.59528344683349" lon="9.359615296125412">
<ele>404.2</ele>
<time>2024-05-09T10:46:42Z</time>
</trkpt>
<trkpt lat="49.59532158449292" lon="9.359611440449951">
<ele>404.6</ele>
<time>2024-05-09T10:46:43Z</time>
</trkpt>
<trkpt lat="49.59535972215235" lon="9.359608590602877">
<ele>404.8</ele>
<time>2024-05-09T10:46:44Z</time>
</trkpt>
<trkpt lat="49.595397943630815" lon="9.35960196889937">
<ele>405</ele>
<time>2024-05-09T10:46:45Z</time>
</trkpt>
<trkpt lat="49.595436081290245" lon="9.359595263376832">
<ele>405.2</ele>
<time>2024-05-09T10:46:46Z</time>
</trkpt>
<trkpt lat="49.59547036327422" lon="9.359589563682675">
<ele>405.4</ele>
<time>2024-05-09T10:46:47Z</time>
</trkpt>
<trkpt lat="49.59550472907722" lon="9.359589563682675">
<ele>405.6</ele>
<time>2024-05-09T10:46:48Z</time>
</trkpt>
<trkpt lat="49.59553901106119" lon="9.359589563682675">
<ele>406</ele>
<time>2024-05-09T10:46:49Z</time>
</trkpt>
<trkpt lat="49.59556960500777" lon="9.359593335539104">
<ele>406.2</ele>
<time>2024-05-09T10:46:50Z</time>
</trkpt>
<trkpt lat="49.59560388699174" lon="9.359593335539104">
<ele>406.4</ele>
<time>2024-05-09T10:46:51Z</time>
</trkpt>
<trkpt lat="49.59563825279474" lon="9.359588557854297">
<ele>406.6</ele>
<time>2024-05-09T10:46:52Z</time>
</trkpt>
<trkpt lat="49.59566490724683" lon="9.359584785997868">
<ele>406.8</ele>
<time>2024-05-09T10:46:53Z</time>
</trkpt>
<trkpt lat="49.595691645517945" lon="9.359575230628252">
<ele>407</ele>
<time>2024-05-09T10:46:54Z</time>
</trkpt>
<trkpt lat="49.59571838378906" lon="9.359571374952791">
<ele>407.2</ele>
<time>2024-05-09T10:46:55Z</time>
</trkpt>
<trkpt lat="49.59574503824115" lon="9.359564753249288">
<ele>407.4</ele>
<time>2024-05-09T10:46:56Z</time>
</trkpt>
<trkpt lat="49.59578317590058" lon="9.35955997556448">
<ele>407.4</ele>
<time>2024-05-09T10:46:57Z</time>
</trkpt>
<trkpt lat="49.59582131356001" lon="9.35955611988902">
<ele>407.6</ele>
<time>2024-05-09T10:46:58Z</time>
</trkpt>
<trkpt lat="49.59585567936301" lon="9.359555197879672">
<ele>407.8</ele>
<time>2024-05-09T10:46:59Z</time>
</trkpt>
<trkpt lat="49.595890045166016" lon="9.359551426023245">
<ele>408</ele>
<time>2024-05-09T10:47:00Z</time>
</trkpt>
<trkpt lat="49.59592432714999" lon="9.359550420194864">
<ele>408</ele>
<time>2024-05-09T10:47:01Z</time>
</trkpt>
<trkpt lat="49.59595869295299" lon="9.359542792662978">
<ele>408.2</ele>
<time>2024-05-09T10:47:02Z</time>
</trkpt>
<trkpt lat="49.59599297493696" lon="9.35954187065363">
<ele>408.2</ele>
<time>2024-05-09T10:47:03Z</time>
</trkpt>
<trkpt lat="49.596027340739965" lon="9.35953801497817">
<ele>408.2</ele>
<time>2024-05-09T10:47:04Z</time>
</trkpt>
<trkpt lat="49.59606170654297" lon="9.359537092968822">
<ele>408.4</ele>
<time>2024-05-09T10:47:05Z</time>
</trkpt>
<trkpt lat="49.59609598852694" lon="9.359537092968822">
<ele>408.4</ele>
<time>2024-05-09T10:47:06Z</time>
</trkpt>
<trkpt lat="49.596126498654485" lon="9.359526615589855">
<ele>408.6</ele>
<time>2024-05-09T10:47:07Z</time>
</trkpt>
<trkpt lat="49.59616086445749" lon="9.359517060220242">
<ele>408.6</ele>
<time>2024-05-09T10:47:08Z</time>
</trkpt>
<trkpt lat="49.59619900211692" lon="9.359510354697704">
<ele>408.6</ele>
<time>2024-05-09T10:47:09Z</time>
</trkpt>
<trkpt lat="49.596248622983694" lon="9.3595037329942">
<ele>408.6</ele>
<time>2024-05-09T10:47:10Z</time>
</trkpt>
<trkpt lat="49.59629053249955" lon="9.359491327777503">
<ele>408.8</ele>
<time>2024-05-09T10:47:11Z</time>
</trkpt>
<trkpt lat="49.59633629769087" lon="9.359488477930428">
<ele>408.6</ele>
<time>2024-05-09T10:47:12Z</time>
</trkpt>
<trkpt lat="49.59637829102576" lon="9.35947791673243">
<ele>408.6</ele>
<time>2024-05-09T10:47:13Z</time>
</trkpt>
<trkpt lat="49.59642028436065" lon="9.359468445181848">
<ele>408.6</ele>
<time>2024-05-09T10:47:14Z</time>
</trkpt>
<trkpt lat="49.59646604955197" lon="9.35946366749704">
<ele>408.4</ele>
<time>2024-05-09T10:47:15Z</time>
</trkpt>
<trkpt lat="49.59651181474328" lon="9.359453190118074">
<ele>408.4</ele>
<time>2024-05-09T10:47:16Z</time>
</trkpt>
<trkpt lat="49.59655372425914" lon="9.35944363474846">
<ele>408.4</ele>
<time>2024-05-09T10:47:17Z</time>
</trkpt>
<trkpt lat="49.59659571759403" lon="9.359430307522416">
<ele>408.2</ele>
<time>2024-05-09T10:47:18Z</time>
</trkpt>
<trkpt lat="49.596641482785344" lon="9.359416896477342">
<ele>408</ele>
<time>2024-05-09T10:47:19Z</time>
</trkpt>
<trkpt lat="49.596698731184006" lon="9.359406419098375">
<ele>408</ele>
<time>2024-05-09T10:47:20Z</time>
</trkpt>
<trkpt lat="49.59675212390721" lon="9.359404491260648">
<ele>407.8</ele>
<time>2024-05-09T10:47:21Z</time>
</trkpt>
<trkpt lat="49.59680551663041" lon="9.359406419098375">
<ele>407.6</ele>
<time>2024-05-09T10:47:22Z</time>
</trkpt>
<trkpt lat="49.5968475099653" lon="9.35939971357584">
<ele>407.4</ele>
<time>2024-05-09T10:47:23Z</time>
</trkpt>
<trkpt lat="49.59689327515662" lon="9.359393091872334">
<ele>407</ele>
<time>2024-05-09T10:47:24Z</time>
</trkpt>
<trkpt lat="49.596958151087165" lon="9.359391164034603">
<ele>406.8</ele>
<time>2024-05-09T10:47:25Z</time>
</trkpt>
<trkpt lat="49.597019171342254" lon="9.359378758817911">
<ele>406.4</ele>
<time>2024-05-09T10:47:26Z</time>
</trkpt>
<trkpt lat="49.59709167480469" lon="9.359370209276676">
<ele>406.2</ele>
<time>2024-05-09T10:47:27Z</time>
</trkpt>
<trkpt lat="49.59716032259166" lon="9.359354954212904">
<ele>406</ele>
<time>2024-05-09T10:47:28Z</time>
</trkpt>
<trkpt lat="49.59722897037864" lon="9.359338693320751">
<ele>405.8</ele>
<time>2024-05-09T10:47:29Z</time>
</trkpt>
<trkpt lat="49.597289990633726" lon="9.35932159423828">
<ele>405.6</ele>
<time>2024-05-09T10:47:30Z</time>
</trkpt>
<trkpt lat="49.59736626595259" lon="9.3593034055084">
<ele>405.4</ele>
<time>2024-05-09T10:47:31Z</time>
</trkpt>
<trkpt lat="49.59744639694691" lon="9.35928337275982">
<ele>405.4</ele>
<time>2024-05-09T10:47:32Z</time>
</trkpt>
<trkpt lat="49.59751890040934" lon="9.359248084947469">
<ele>405.2</ele>
<time>2024-05-09T10:47:33Z</time>
</trkpt>
<trkpt lat="49.59758754819632" lon="9.359214724972844">
<ele>405.2</ele>
<time>2024-05-09T10:47:34Z</time>
</trkpt>
<trkpt lat="49.59765242412686" lon="9.359178515151145">
<ele>405</ele>
<time>2024-05-09T10:47:35Z</time>
</trkpt>
<trkpt lat="49.59771344438195" lon="9.35914129950106">
<ele>405</ele>
<time>2024-05-09T10:47:36Z</time>
</trkpt>
<trkpt lat="49.597766837105155" lon="9.35910701751709">
<ele>404.8</ele>
<time>2024-05-09T10:47:37Z</time>
</trkpt>
<trkpt lat="49.59781645797193" lon="9.359074579551816">
<ele>404.6</ele>
<time>2024-05-09T10:47:38Z</time>
</trkpt>
<trkpt lat="49.597865995019674" lon="9.359031664207578">
<ele>404.4</ele>
<time>2024-05-09T10:47:39Z</time>
</trkpt>
<trkpt lat="49.59791176021099" lon="9.358991598710418">
<ele>404.2</ele>
<time>2024-05-09T10:47:40Z</time>
</trkpt>
<trkpt lat="49.59795375354588" lon="9.3589648604393">
<ele>404.2</ele>
<time>2024-05-09T10:47:41Z</time>
</trkpt>
<trkpt lat="49.59799574688077" lon="9.358929572626948">
<ele>404.2</ele>
<time>2024-05-09T10:47:42Z</time>
</trkpt>
<trkpt lat="49.5980338845402" lon="9.358891434967518">
<ele>404.2</ele>
<time>2024-05-09T10:47:43Z</time>
</trkpt>
<trkpt lat="49.59807579405606" lon="9.358855225145817">
<ele>404.2</ele>
<time>2024-05-09T10:47:44Z</time>
</trkpt>
<trkpt lat="49.59811393171549" lon="9.358817087486386">
<ele>404.4</ele>
<time>2024-05-09T10:47:45Z</time>
</trkpt>
<trkpt lat="49.59815215319395" lon="9.358777021989226">
<ele>404.4</ele>
<time>2024-05-09T10:47:46Z</time>
</trkpt>
<trkpt lat="49.59819406270981" lon="9.358737878501415">
<ele>404.6</ele>
<time>2024-05-09T10:47:47Z</time>
</trkpt>
<trkpt lat="49.59823220036924" lon="9.358701668679714">
<ele>404.6</ele>
<time>2024-05-09T10:47:48Z</time>
</trkpt>
<trkpt lat="49.59827419370413" lon="9.358668308705091">
<ele>404.6</ele>
<time>2024-05-09T10:47:49Z</time>
</trkpt>
<trkpt lat="49.59831233136356" lon="9.358636792749166">
<ele>404.8</ele>
<time>2024-05-09T10:47:50Z</time>
</trkpt>
<trkpt lat="49.59835432469845" lon="9.358606282621622">
<ele>404.8</ele>
<time>2024-05-09T10:47:51Z</time>
</trkpt>
<trkpt lat="49.59839246235788" lon="9.358585327863691">
<ele>405</ele>
<time>2024-05-09T10:47:52Z</time>
</trkpt>
<trkpt lat="49.59843060001731" lon="9.358566217124462">
<ele>405</ele>
<time>2024-05-09T10:47:53Z</time>
</trkpt>
<trkpt lat="49.5984725933522" lon="9.358543334528804">
<ele>405.2</ele>
<time>2024-05-09T10:47:54Z</time>
</trkpt>
<trkpt lat="49.59850687533617" lon="9.358523301780224">
<ele>405.4</ele>
<time>2024-05-09T10:47:55Z</time>
</trkpt>
<trkpt lat="49.5985450129956" lon="9.358499497175217">
<ele>405.4</ele>
<time>2024-05-09T10:47:56Z</time>
</trkpt>
<trkpt lat="49.59858315065503" lon="9.358480386435986">
<ele>405.6</ele>
<time>2024-05-09T10:47:57Z</time>
</trkpt>
<trkpt lat="49.59862514398992" lon="9.358454653993247">
<ele>405.6</ele>
<time>2024-05-09T10:47:58Z</time>
</trkpt>
<trkpt lat="49.59865950979293" lon="9.35843177139759">
<ele>405.8</ele>
<time>2024-05-09T10:47:59Z</time>
</trkpt>
<trkpt lat="49.598697647452354" lon="9.358406960964205">
<ele>405.8</ele>
<time>2024-05-09T10:48:00Z</time>
</trkpt>
<trkpt lat="49.598735785111785" lon="9.358387934044003">
<ele>405.8</ele>
<time>2024-05-09T10:48:01Z</time>
</trkpt>
<trkpt lat="49.59877769462764" lon="9.358367901295424">
<ele>405.8</ele>
<time>2024-05-09T10:48:02Z</time>
</trkpt>
<trkpt lat="49.598815916106105" lon="9.358345018699763">
<ele>406</ele>
<time>2024-05-09T10:48:03Z</time>
</trkpt>
<trkpt lat="49.59885782562196" lon="9.358323058113456">
<ele>406.2</ele>
<time>2024-05-09T10:48:04Z</time>
</trkpt>
<trkpt lat="49.59889981895685" lon="9.358304953202603">
<ele>406.4</ele>
<time>2024-05-09T10:48:05Z</time>
</trkpt>
<trkpt lat="49.59893795661628" lon="9.358286848291756">
<ele>406.4</ele>
<time>2024-05-09T10:48:06Z</time>
</trkpt>
<trkpt lat="49.59897609427571" lon="9.358266815543177">
<ele>406.6</ele>
<time>2024-05-09T10:48:07Z</time>
</trkpt>
<trkpt lat="49.5990180876106" lon="9.358244854956864">
<ele>406.8</ele>
<time>2024-05-09T10:48:08Z</time>
</trkpt>
<trkpt lat="49.59905999712646" lon="9.358228677883744">
<ele>406.8</ele>
<time>2024-05-09T10:48:09Z</time>
</trkpt>
<trkpt lat="49.59909813478589" lon="9.358211494982244">
<ele>407</ele>
<time>2024-05-09T10:48:10Z</time>
</trkpt>
<trkpt lat="49.59914012812078" lon="9.358193390071392">
<ele>407.2</ele>
<time>2024-05-09T10:48:11Z</time>
</trkpt>
<trkpt lat="49.59918212145567" lon="9.358173357322812">
<ele>407.4</ele>
<time>2024-05-09T10:48:12Z</time>
</trkpt>
<trkpt lat="49.59922403097153" lon="9.35815617442131">
<ele>407.6</ele>
<time>2024-05-09T10:48:13Z</time>
</trkpt>
<trkpt lat="49.59926602430642" lon="9.358139913529158">
<ele>408</ele>
<time>2024-05-09T10:48:14Z</time>
</trkpt>
<trkpt lat="49.59930416196585" lon="9.358121808618307">
<ele>408.2</ele>
<time>2024-05-09T10:48:15Z</time>
</trkpt>
<trkpt lat="49.59934992715717" lon="9.358101775869727">
<ele>408.6</ele>
<time>2024-05-09T10:48:16Z</time>
</trkpt>
<trkpt lat="49.599388064816594" lon="9.358083670958877">
<ele>408.8</ele>
<time>2024-05-09T10:48:17Z</time>
</trkpt>
<trkpt lat="49.59943383000791" lon="9.358064644038675">
<ele>409</ele>
<time>2024-05-09T10:48:18Z</time>
</trkpt>
<trkpt lat="49.59947959519923" lon="9.358044611290095">
<ele>409.2</ele>
<time>2024-05-09T10:48:19Z</time>
</trkpt>
<trkpt lat="49.59951781667769" lon="9.358024578541515">
<ele>409.4</ele>
<time>2024-05-09T10:48:20Z</time>
</trkpt>
<trkpt lat="49.599563581869006" lon="9.358003539964557">
<ele>409.6</ele>
<time>2024-05-09T10:48:21Z</time>
</trkpt>
<trkpt lat="49.599643629044294" lon="9.3579788133502">
<ele>410</ele>
<time>2024-05-09T10:48:23Z</time>
</trkpt>
<trkpt lat="49.599685622379184" lon="9.3579616304487">
<ele>410.2</ele>
<time>2024-05-09T10:48:24Z</time>
</trkpt>
<trkpt lat="49.59972761571407" lon="9.35794159770012">
<ele>410.4</ele>
<time>2024-05-09T10:48:25Z</time>
</trkpt>
<trkpt lat="49.59976952522993" lon="9.35791963711381">
<ele>410.8</ele>
<time>2024-05-09T10:48:26Z</time>
</trkpt>
<trkpt lat="49.59981151856482" lon="9.357896754518151">
<ele>411</ele>
<time>2024-05-09T10:48:27Z</time>
</trkpt>
<trkpt lat="49.59985351189971" lon="9.357871944084764">
<ele>411</ele>
<time>2024-05-09T10:48:28Z</time>
</trkpt>
<trkpt lat="49.59989164955914" lon="9.357850067317486">
<ele>411.2</ele>
<time>2024-05-09T10:48:29Z</time>
</trkpt>
<trkpt lat="49.59992978721857" lon="9.357830034568906">
<ele>411.4</ele>
<time>2024-05-09T10:48:30Z</time>
</trkpt>
<trkpt lat="49.599967924878" lon="9.357812851667404">
<ele>411.4</ele>
<time>2024-05-09T10:48:31Z</time>
</trkpt>
<trkpt lat="49.60000991821289" lon="9.35779952444136">
<ele>411.6</ele>
<time>2024-05-09T10:48:32Z</time>
</trkpt>
<trkpt lat="49.60004420019686" lon="9.357783263549209">
<ele>411.6</ele>
<time>2024-05-09T10:48:33Z</time>
</trkpt>
<trkpt lat="49.60008233785629" lon="9.3577613029629">
<ele>411.6</ele>
<time>2024-05-09T10:48:34Z</time>
</trkpt>
<trkpt lat="49.60012047551572" lon="9.35774034820497">
<ele>411.6</ele>
<time>2024-05-09T10:48:35Z</time>
</trkpt>
<trkpt lat="49.60015484131873" lon="9.357714615762234">
<ele>411.8</ele>
<time>2024-05-09T10:48:36Z</time>
</trkpt>
<trkpt lat="49.60019297897816" lon="9.357686955481768">
<ele>411.8</ele>
<time>2024-05-09T10:48:37Z</time>
</trkpt>
<trkpt lat="49.60023111663759" lon="9.357664994895458">
<ele>411.8</ele>
<time>2024-05-09T10:48:38Z</time>
</trkpt>
<trkpt lat="49.60026925429702" lon="9.357647895812988">
<ele>411.8</ele>
<time>2024-05-09T10:48:39Z</time>
</trkpt>
<trkpt lat="49.600315019488335" lon="9.357626857236028">
<ele>411.8</ele>
<time>2024-05-09T10:48:40Z</time>
</trkpt>
<trkpt lat="49.6003532409668" lon="9.357606824487448">
<ele>411.6</ele>
<time>2024-05-09T10:48:41Z</time>
</trkpt>
<trkpt lat="49.60039137862623" lon="9.357580170035362">
<ele>411.6</ele>
<time>2024-05-09T10:48:42Z</time>
</trkpt>
<trkpt lat="49.600433288142085" lon="9.357558209449053">
<ele>411.8</ele>
<time>2024-05-09T10:48:43Z</time>
</trkpt>
<trkpt lat="49.60047142580152" lon="9.357536248862743">
<ele>411.8</ele>
<time>2024-05-09T10:48:44Z</time>
</trkpt>
<trkpt lat="49.600513419136405" lon="9.357515294104816">
<ele>411.8</ele>
<time>2024-05-09T10:48:45Z</time>
</trkpt>
<trkpt lat="49.600551556795835" lon="9.357496183365583">
<ele>411.8</ele>
<time>2024-05-09T10:48:46Z</time>
</trkpt>
<trkpt lat="49.600589694455266" lon="9.357478078454731">
<ele>411.8</ele>
<time>2024-05-09T10:48:47Z</time>
</trkpt>
<trkpt lat="49.600631687790155" lon="9.357456201687455">
<ele>411.8</ele>
<time>2024-05-09T10:48:48Z</time>
</trkpt>
<trkpt lat="49.600669825449586" lon="9.357433319091797">
<ele>411.8</ele>
<time>2024-05-09T10:48:49Z</time>
</trkpt>
<trkpt lat="49.600707963109016" lon="9.357411358505487">
<ele>411.8</ele>
<time>2024-05-09T10:48:50Z</time>
</trkpt>
<trkpt lat="49.60074610076845" lon="9.35738847590983">
<ele>411.8</ele>
<time>2024-05-09T10:48:51Z</time>
</trkpt>
<trkpt lat="49.60078423842788" lon="9.35736651532352">
<ele>411.8</ele>
<time>2024-05-09T10:48:52Z</time>
</trkpt>
<trkpt lat="49.60081860423088" lon="9.35734455473721">
<ele>411.8</ele>
<time>2024-05-09T10:48:53Z</time>
</trkpt>
<trkpt lat="49.60085674189031" lon="9.35732359997928">
<ele>412</ele>
<time>2024-05-09T10:48:54Z</time>
</trkpt>
<trkpt lat="49.60089487954974" lon="9.357301639392972">
<ele>412</ele>
<time>2024-05-09T10:48:55Z</time>
</trkpt>
<trkpt lat="49.600929245352745" lon="9.357278756797314">
<ele>412</ele>
<time>2024-05-09T10:48:56Z</time>
</trkpt>
<trkpt lat="49.60096352733672" lon="9.357253024354575">
<ele>412.2</ele>
<time>2024-05-09T10:48:57Z</time>
</trkpt>
<trkpt lat="49.60100166499615" lon="9.357232069596648">
<ele>412.4</ele>
<time>2024-05-09T10:48:58Z</time>
</trkpt>
<trkpt lat="49.60104365833104" lon="9.35721010901034">
<ele>412.4</ele>
<time>2024-05-09T10:48:59Z</time>
</trkpt>
<trkpt lat="49.60108179599047" lon="9.357181526720524">
<ele>412.6</ele>
<time>2024-05-09T10:49:00Z</time>
</trkpt>
<trkpt lat="49.60112378932536" lon="9.357152860611675">
<ele>412.8</ele>
<time>2024-05-09T10:49:01Z</time>
</trkpt>
<trkpt lat="49.60116192698479" lon="9.357121428474784">
<ele>412.8</ele>
<time>2024-05-09T10:49:02Z</time>
</trkpt>
<trkpt lat="49.60119620896876" lon="9.357086140662432">
<ele>413</ele>
<time>2024-05-09T10:49:03Z</time>
</trkpt>
<trkpt lat="49.60123443044722" lon="9.357058480381966">
<ele>413.2</ele>
<time>2024-05-09T10:49:04Z</time>
</trkpt>
<trkpt lat="49.60126871243119" lon="9.357023192569612">
<ele>413.2</ele>
<time>2024-05-09T10:49:05Z</time>
</trkpt>
<trkpt lat="49.60130685009062" lon="9.356986982747912">
<ele>413.4</ele>
<time>2024-05-09T10:49:06Z</time>
</trkpt>
<trkpt lat="49.60134884342551" lon="9.356956472620368">
<ele>413.4</ele>
<time>2024-05-09T10:49:07Z</time>
</trkpt>
<trkpt lat="49.60139460861683" lon="9.356923028826714">
<ele>413.4</ele>
<time>2024-05-09T10:49:08Z</time>
</trkpt>
<trkpt lat="49.60143660195172" lon="9.356888746842742">
<ele>413.4</ele>
<time>2024-05-09T10:49:09Z</time>
</trkpt>
<trkpt lat="49.601478511467576" lon="9.35685345903039">
<ele>413.6</ele>
<time>2024-05-09T10:49:10Z</time>
</trkpt>
<trkpt lat="49.601520504802465" lon="9.356816243380308">
<ele>413.6</ele>
<time>2024-05-09T10:49:11Z</time>
</trkpt>
<trkpt lat="49.601562498137355" lon="9.356781877577305">
<ele>413.6</ele>
<time>2024-05-09T10:49:12Z</time>
</trkpt>
<trkpt lat="49.60160826332867" lon="9.356750445440412">
<ele>413.6</ele>
<time>2024-05-09T10:49:13Z</time>
</trkpt>
<trkpt lat="49.60165017284453" lon="9.356717085465789">
<ele>413.8</ele>
<time>2024-05-09T10:49:14Z</time>
</trkpt>
<trkpt lat="49.601695938035846" lon="9.356683725491166">
<ele>413.8</ele>
<time>2024-05-09T10:49:15Z</time>
</trkpt>
<trkpt lat="49.601741787046194" lon="9.356651287525892">
<ele>414</ele>
<time>2024-05-09T10:49:16Z</time>
</trkpt>
<trkpt lat="49.60178755223751" lon="9.356621699407697">
<ele>414</ele>
<time>2024-05-09T10:49:17Z</time>
</trkpt>
<trkpt lat="49.60183331742883" lon="9.356591189280152">
<ele>414.2</ele>
<time>2024-05-09T10:49:18Z</time>
</trkpt>
<trkpt lat="49.601875226944685" lon="9.356563528999686">
<ele>414.2</ele>
<time>2024-05-09T10:49:19Z</time>
</trkpt>
<trkpt lat="49.601917220279574" lon="9.356533018872142">
<ele>414.4</ele>
<time>2024-05-09T10:49:20Z</time>
</trkpt>
<trkpt lat="49.601959213614464" lon="9.356503430753946">
<ele>414.6</ele>
<time>2024-05-09T10:49:21Z</time>
</trkpt>
<trkpt lat="49.60200497880578" lon="9.356470070779324">
<ele>414.6</ele>
<time>2024-05-09T10:49:22Z</time>
</trkpt>
<trkpt lat="49.60204688832164" lon="9.356434782966971">
<ele>414.8</ele>
<time>2024-05-09T10:49:23Z</time>
</trkpt>
<trkpt lat="49.602092737331986" lon="9.35639664530754">
<ele>415</ele>
<time>2024-05-09T10:49:24Z</time>
</trkpt>
<trkpt lat="49.60213464684784" lon="9.356361357495189">
<ele>415</ele>
<time>2024-05-09T10:49:25Z</time>
</trkpt>
<trkpt lat="49.60217664018273" lon="9.356325147673488">
<ele>415.2</ele>
<time>2024-05-09T10:49:26Z</time>
</trkpt>
<trkpt lat="49.60221477784216" lon="9.356287932023406">
<ele>415.2</ele>
<time>2024-05-09T10:49:27Z</time>
</trkpt>
<trkpt lat="49.60225677117705" lon="9.356253566220404">
<ele>415.2</ele>
<time>2024-05-09T10:49:28Z</time>
</trkpt>
<trkpt lat="49.60229868069291" lon="9.35621827840805">
<ele>415.4</ele>
<time>2024-05-09T10:49:29Z</time>
</trkpt>
<trkpt lat="49.6023406740278" lon="9.35618206858635">
<ele>415.4</ele>
<time>2024-05-09T10:49:30Z</time>
</trkpt>
<trkpt lat="49.60238643921912" lon="9.356144852936268">
<ele>415.4</ele>
<time>2024-05-09T10:49:31Z</time>
</trkpt>
<trkpt lat="49.60242843255401" lon="9.35610294342041">
<ele>415.4</ele>
<time>2024-05-09T10:49:32Z</time>
</trkpt>
<trkpt lat="49.60247419774532" lon="9.356055250391364">
<ele>415.6</ele>
<time>2024-05-09T10:49:33Z</time>
</trkpt>
<trkpt lat="49.602512335404754" lon="9.356017112731934">
<ele>415.6</ele>
<time>2024-05-09T10:49:34Z</time>
</trkpt>
<trkpt lat="49.60255424492061" lon="9.355973191559317">
<ele>415.8</ele>
<time>2024-05-09T10:49:35Z</time>
</trkpt>
<trkpt lat="49.6025962382555" lon="9.355931282043455">
<ele>416</ele>
<time>2024-05-09T10:49:36Z</time>
</trkpt>
<trkpt lat="49.60263437591493" lon="9.35588451102376">
<ele>416</ele>
<time>2024-05-09T10:49:37Z</time>
</trkpt>
<trkpt lat="49.602668741717935" lon="9.35584545135498">
<ele>416.2</ele>
<time>2024-05-09T10:49:38Z</time>
</trkpt>
<trkpt lat="49.60269925184548" lon="9.3558082357049">
<ele>416.2</ele>
<time>2024-05-09T10:49:39Z</time>
</trkpt>
<trkpt lat="49.60273353382945" lon="9.35576532036066">
<ele>416.2</ele>
<time>2024-05-09T10:49:40Z</time>
</trkpt>
<trkpt lat="49.602767899632454" lon="9.355718549340963">
<ele>416.4</ele>
<time>2024-05-09T10:49:41Z</time>
</trkpt>
<trkpt lat="49.60279840976" lon="9.355661384761332">
<ele>416.4</ele>
<time>2024-05-09T10:49:42Z</time>
</trkpt>
<trkpt lat="49.60283654741943" lon="9.355601286515594">
<ele>416.4</ele>
<time>2024-05-09T10:49:43Z</time>
</trkpt>
<trkpt lat="49.60287091322243" lon="9.355538338422775">
<ele>416.6</ele>
<time>2024-05-09T10:49:44Z</time>
</trkpt>
<trkpt lat="49.6029051952064" lon="9.355480168014765">
<ele>416.6</ele>
<time>2024-05-09T10:49:45Z</time>
</trkpt>
<trkpt lat="49.60293956100941" lon="9.355420069769025">
<ele>416.6</ele>
<time>2024-05-09T10:49:46Z</time>
</trkpt>
<trkpt lat="49.60297007113695" lon="9.355361899361014">
<ele>416.6</ele>
<time>2024-05-09T10:49:47Z</time>
</trkpt>
<trkpt lat="49.603004436939955" lon="9.355301801115274">
<ele>416.4</ele>
<time>2024-05-09T10:49:48Z</time>
</trkpt>
<trkpt lat="49.6030349470675" lon="9.355244636535645">
<ele>416.4</ele>
<time>2024-05-09T10:49:49Z</time>
</trkpt>
<trkpt lat="49.60306545719504" lon="9.355186382308602">
<ele>416.4</ele>
<time>2024-05-09T10:49:50Z</time>
</trkpt>
<trkpt lat="49.60309596732259" lon="9.355126367881894">
<ele>416.4</ele>
<time>2024-05-09T10:49:51Z</time>
</trkpt>
<trkpt lat="49.60312647745013" lon="9.355065263807774">
<ele>416.4</ele>
<time>2024-05-09T10:49:52Z</time>
</trkpt>
<trkpt lat="49.603160843253136" lon="9.355006171390414">
<ele>416.4</ele>
<time>2024-05-09T10:49:53Z</time>
</trkpt>
<trkpt lat="49.60319135338068" lon="9.354947078973057">
<ele>416.4</ele>
<time>2024-05-09T10:49:54Z</time>
</trkpt>
<trkpt lat="49.603221863508224" lon="9.354886980727317">
<ele>416.4</ele>
<time>2024-05-09T10:49:55Z</time>
</trkpt>
<trkpt lat="49.60325614549219" lon="9.354827804490924">
<ele>416.4</ele>
<time>2024-05-09T10:49:56Z</time>
</trkpt>
<trkpt lat="49.60328673943877" lon="9.354769634082912">
<ele>416.4</ele>
<time>2024-05-09T10:49:57Z</time>
</trkpt>
<trkpt lat="49.6033248770982" lon="9.354706685990095">
<ele>416.4</ele>
<time>2024-05-09T10:49:58Z</time>
</trkpt>
<trkpt lat="49.60335153155029" lon="9.354644743725656">
<ele>416.4</ele>
<time>2024-05-09T10:49:59Z</time>
</trkpt>
<trkpt lat="49.60338589735329" lon="9.35458179563284">
<ele>416.4</ele>
<time>2024-05-09T10:50:00Z</time>
</trkpt>
<trkpt lat="49.60341255180538" lon="9.354516919702291">
<ele>416.2</ele>
<time>2024-05-09T10:50:01Z</time>
</trkpt>
<trkpt lat="49.60344314575195" lon="9.354453049600124">
<ele>416.2</ele>
<time>2024-05-09T10:50:02Z</time>
</trkpt>
<trkpt lat="49.603477427735925" lon="9.354399656876922">
<ele>416.2</ele>
<time>2024-05-09T10:50:03Z</time>
</trkpt>
<trkpt lat="49.60350793786347" lon="9.35434626415372">
<ele>416.2</ele>
<time>2024-05-09T10:50:04Z</time>
</trkpt>
<trkpt lat="49.60353844799101" lon="9.354291865602136">
<ele>416</ele>
<time>2024-05-09T10:50:05Z</time>
</trkpt>
<trkpt lat="49.60356895811856" lon="9.354234617203474">
<ele>416</ele>
<time>2024-05-09T10:50:06Z</time>
</trkpt>
<trkpt lat="49.6035994682461" lon="9.354178374633191">
<ele>415.8</ele>
<time>2024-05-09T10:50:07Z</time>
</trkpt>
<trkpt lat="49.60363006219268" lon="9.354118276387451">
<ele>415.8</ele>
<time>2024-05-09T10:50:08Z</time>
</trkpt>
<trkpt lat="49.60365671664477" lon="9.35406681150198">
<ele>415.6</ele>
<time>2024-05-09T10:50:09Z</time>
</trkpt>
<trkpt lat="49.60367959924042" lon="9.354009563103318">
<ele>415.6</ele>
<time>2024-05-09T10:50:10Z</time>
</trkpt>
<trkpt lat="49.60369870997965" lon="9.3539466150105">
<ele>415.4</ele>
<time>2024-05-09T10:50:11Z</time>
</trkpt>
<trkpt lat="49.60372159257531" lon="9.353879895061256">
<ele>415.4</ele>
<time>2024-05-09T10:50:12Z</time>
</trkpt>
<trkpt lat="49.60374447517097" lon="9.353815019130709">
<ele>415.2</ele>
<time>2024-05-09T10:50:13Z</time>
</trkpt>
<trkpt lat="49.60376735776663" lon="9.35375022701919">
<ele>415.2</ele>
<time>2024-05-09T10:50:14Z</time>
</trkpt>
<trkpt lat="49.60378646850586" lon="9.353685351088645">
<ele>415.2</ele>
<time>2024-05-09T10:50:15Z</time>
</trkpt>
<trkpt lat="49.60380549542606" lon="9.35361284762621">
<ele>415.2</ele>
<time>2024-05-09T10:50:16Z</time>
</trkpt>
<trkpt lat="49.60382460616529" lon="9.353541349992156">
<ele>415</ele>
<time>2024-05-09T10:50:17Z</time>
</trkpt>
<trkpt lat="49.6038360055536" lon="9.3534716963768">
<ele>415</ele>
<time>2024-05-09T10:50:18Z</time>
</trkpt>
<trkpt lat="49.60384748876095" lon="9.35339349322021">
<ele>415</ele>
<time>2024-05-09T10:50:19Z</time>
</trkpt>
<trkpt lat="49.60385888814926" lon="9.353308668360114">
<ele>415</ele>
<time>2024-05-09T10:50:20Z</time>
</trkpt>
<trkpt lat="49.60385888814926" lon="9.35321805998683">
<ele>415</ele>
<time>2024-05-09T10:50:21Z</time>
</trkpt>
<trkpt lat="49.60386651568115" lon="9.353153184056282">
<ele>415</ele>
<time>2024-05-09T10:50:22Z</time>
</trkpt>
<trkpt lat="49.60387037135661" lon="9.353088308125734">
<ele>415</ele>
<time>2024-05-09T10:50:23Z</time>
</trkpt>
<trkpt lat="49.603874143213034" lon="9.353026365861297">
<ele>415</ele>
<time>2024-05-09T10:50:24Z</time>
</trkpt>
<trkpt lat="49.60388177074492" lon="9.352966267615557">
<ele>415</ele>
<time>2024-05-09T10:50:25Z</time>
</trkpt>
<trkpt lat="49.60388177074492" lon="9.352908097207546">
<ele>414.8</ele>
<time>2024-05-09T10:50:26Z</time>
</trkpt>
<trkpt lat="49.60388562642038" lon="9.352851854637263">
<ele>414.8</ele>
<time>2024-05-09T10:50:27Z</time>
</trkpt>
<trkpt lat="49.60388562642038" lon="9.352791756391523">
<ele>414.8</ele>
<time>2024-05-09T10:50:28Z</time>
</trkpt>
<trkpt lat="49.60388562642038" lon="9.352734507992864">
<ele>414.6</ele>
<time>2024-05-09T10:50:29Z</time>
</trkpt>
<trkpt lat="49.60388177074492" lon="9.352673487737777">
<ele>414.6</ele>
<time>2024-05-09T10:50:30Z</time>
</trkpt>
<trkpt lat="49.60387799888849" lon="9.352615317329764">
<ele>414.6</ele>
<time>2024-05-09T10:50:31Z</time>
</trkpt>
<trkpt lat="49.603874143213034" lon="9.352559996768832">
<ele>414.6</ele>
<time>2024-05-09T10:50:32Z</time>
</trkpt>
<trkpt lat="49.603874143213034" lon="9.3525046762079">
<ele>414.6</ele>
<time>2024-05-09T10:50:33Z</time>
</trkpt>
<trkpt lat="49.603874143213034" lon="9.35244843363762">
<ele>414.6</ele>
<time>2024-05-09T10:50:34Z</time>
</trkpt>
<trkpt lat="49.603874143213034" lon="9.352391185238956">
<ele>414.6</ele>
<time>2024-05-09T10:50:35Z</time>
</trkpt>
<trkpt lat="49.60387799888849" lon="9.352334942668676">
<ele>414.8</ele>
<time>2024-05-09T10:50:36Z</time>
</trkpt>
<trkpt lat="49.60387799888849" lon="9.352278700098395">
<ele>414.8</ele>
<time>2024-05-09T10:50:37Z</time>
</trkpt>
<trkpt lat="49.60388177074492" lon="9.352223379537463">
<ele>414.8</ele>
<time>2024-05-09T10:50:38Z</time>
</trkpt>
<trkpt lat="49.60388177074492" lon="9.35216705314815">
<ele>414.8</ele>
<time>2024-05-09T10:50:39Z</time>
</trkpt>
<trkpt lat="49.60388177074492" lon="9.35211181640625">
<ele>415</ele>
<time>2024-05-09T10:50:40Z</time>
</trkpt>
<trkpt lat="49.60388562642038" lon="9.352060267701743">
<ele>415.2</ele>
<time>2024-05-09T10:50:41Z</time>
</trkpt>
<trkpt lat="49.603889398276806" lon="9.352008802816272">
<ele>415.4</ele>
<time>2024-05-09T10:50:42Z</time>
</trkpt>
<trkpt lat="49.603893253952265" lon="9.351963037624955">
<ele>415.6</ele>
<time>2024-05-09T10:50:43Z</time>
</trkpt>
<trkpt lat="49.60390465334058" lon="9.351918194442987">
<ele>415.6</ele>
<time>2024-05-09T10:50:44Z</time>
</trkpt>
<trkpt lat="49.60390850901604" lon="9.35187335126102">
<ele>415.8</ele>
<time>2024-05-09T10:50:45Z</time>
</trkpt>
<trkpt lat="49.60391613654792" lon="9.351829513907433">
<ele>416</ele>
<time>2024-05-09T10:50:46Z</time>
</trkpt>
<trkpt lat="49.60392376407981" lon="9.351783748716116">
<ele>416</ele>
<time>2024-05-09T10:50:47Z</time>
</trkpt>
<trkpt lat="49.603931391611695" lon="9.35173504985869">
<ele>416.2</ele>
<time>2024-05-09T10:50:48Z</time>
</trkpt>
<trkpt lat="49.60393516346812" lon="9.351686434820294">
<ele>416.4</ele>
<time>2024-05-09T10:50:49Z</time>
</trkpt>
<trkpt lat="49.60394279100001" lon="9.351638741791248">
<ele>416.6</ele>
<time>2024-05-09T10:50:50Z</time>
</trkpt>
<trkpt lat="49.603954274207354" lon="9.351590126752852">
<ele>416.8</ele>
<time>2024-05-09T10:50:51Z</time>
</trkpt>
<trkpt lat="49.60396190173924" lon="9.351538578048348">
<ele>417</ele>
<time>2024-05-09T10:50:52Z</time>
</trkpt>
<trkpt lat="49.603973384946585" lon="9.351489963009952">
<ele>417.4</ele>
<time>2024-05-09T10:50:53Z</time>
</trkpt>
<trkpt lat="49.6039847843349" lon="9.35144042596221">
<ele>417.6</ele>
<time>2024-05-09T10:50:54Z</time>
</trkpt>
<trkpt lat="49.603992411866784" lon="9.351389883086084">
<ele>417.8</ele>
<time>2024-05-09T10:50:55Z</time>
</trkpt>
<trkpt lat="49.60400389507413" lon="9.351331628859043">
<ele>418.2</ele>
<time>2024-05-09T10:50:56Z</time>
</trkpt>
<trkpt lat="49.604011522606015" lon="9.35128016397357">
<ele>418.4</ele>
<time>2024-05-09T10:50:57Z</time>
</trkpt>
<trkpt lat="49.60402292199433" lon="9.35124009847641">
<ele>418.8</ele>
<time>2024-05-09T10:50:58Z</time>
</trkpt>
<trkpt lat="49.60403440520167" lon="9.351206738501787">
<ele>419</ele>
<time>2024-05-09T10:50:59Z</time>
</trkpt>
<trkpt lat="49.60404580458999" lon="9.351169522851706">
<ele>419.4</ele>
<time>2024-05-09T10:51:00Z</time>
</trkpt>
<trkpt lat="49.60406105965376" lon="9.351135240867734">
<ele>420</ele>
<time>2024-05-09T10:51:01Z</time>
</trkpt>
<trkpt lat="49.60407631471753" lon="9.351098025217652">
<ele>420.4</ele>
<time>2024-05-09T10:51:02Z</time>
</trkpt>
<trkpt lat="49.60408394224942" lon="9.351061815395951">
<ele>420.8</ele>
<time>2024-05-09T10:51:03Z</time>
</trkpt>
<trkpt lat="49.60409919731319" lon="9.351030299440026">
<ele>421.2</ele>
<time>2024-05-09T10:51:04Z</time>
</trkpt>
<trkpt lat="49.60411830805242" lon="9.350996939465404">
<ele>421.6</ele>
<time>2024-05-09T10:51:05Z</time>
</trkpt>
<trkpt lat="49.60413356311619" lon="9.350961651653051">
<ele>422</ele>
<time>2024-05-09T10:51:06Z</time>
</trkpt>
<trkpt lat="49.604148818179965" lon="9.3509263638407">
<ele>422.4</ele>
<time>2024-05-09T10:51:07Z</time>
</trkpt>
<trkpt lat="49.60416407324374" lon="9.350890154018998">
<ele>422.8</ele>
<time>2024-05-09T10:51:08Z</time>
</trkpt>
<trkpt lat="49.60417932830751" lon="9.350854866206646">
<ele>423.2</ele>
<time>2024-05-09T10:51:09Z</time>
</trkpt>
<trkpt lat="49.604190811514854" lon="9.350818572565911">
<ele>423.6</ele>
<time>2024-05-09T10:51:10Z</time>
</trkpt>
<trkpt lat="49.60420606657863" lon="9.35078328475356">
<ele>424</ele>
<time>2024-05-09T10:51:11Z</time>
</trkpt>
<trkpt lat="49.604225093498826" lon="9.350747996941209">
<ele>424.6</ele>
<time>2024-05-09T10:51:12Z</time>
</trkpt>
<trkpt lat="49.60423657670617" lon="9.350714636966586">
<ele>425</ele>
<time>2024-05-09T10:51:13Z</time>
</trkpt>
<trkpt lat="49.60425560362637" lon="9.350681276991963">
<ele>425.4</ele>
<time>2024-05-09T10:51:14Z</time>
</trkpt>
<trkpt lat="49.60427085869014" lon="9.35064691118896">
<ele>426</ele>
<time>2024-05-09T10:51:15Z</time>
</trkpt>
<trkpt lat="49.604289969429374" lon="9.35060977935791">
<ele>426.4</ele>
<time>2024-05-09T10:51:16Z</time>
</trkpt>
<trkpt lat="49.60431285202503" lon="9.350573485717176">
<ele>427</ele>
<time>2024-05-09T10:51:17Z</time>
</trkpt>
<trkpt lat="49.60433196276426" lon="9.350538197904823">
<ele>427.4</ele>
<time>2024-05-09T10:51:18Z</time>
</trkpt>
<trkpt lat="49.60435098968446" lon="9.350504837930202">
<ele>427.8</ele>
<time>2024-05-09T10:51:19Z</time>
</trkpt>
<trkpt lat="49.604370100423694" lon="9.350462844595311">
<ele>428.4</ele>
<time>2024-05-09T10:51:20Z</time>
</trkpt>
<trkpt lat="49.60438912734389" lon="9.35042948462069">
<ele>428.8</ele>
<time>2024-05-09T10:51:21Z</time>
</trkpt>
<trkpt lat="49.60440823808312" lon="9.350397046655416">
<ele>429.2</ele>
<time>2024-05-09T10:51:22Z</time>
</trkpt>
<trkpt lat="49.60442726500333" lon="9.3503512814641">
<ele>429.6</ele>
<time>2024-05-09T10:51:23Z</time>
</trkpt>
<trkpt lat="49.604442520067096" lon="9.350317921489475">
<ele>430</ele>
<time>2024-05-09T10:51:24Z</time>
</trkpt>
<trkpt lat="49.60445777513087" lon="9.350284561514854">
<ele>430.4</ele>
<time>2024-05-09T10:51:25Z</time>
</trkpt>
<trkpt lat="49.6044768858701" lon="9.350256901234388">
<ele>430.6</ele>
<time>2024-05-09T10:51:26Z</time>
</trkpt>
<trkpt lat="49.60449214093387" lon="9.350226391106844">
<ele>431</ele>
<time>2024-05-09T10:51:27Z</time>
</trkpt>
<trkpt lat="49.6045112516731" lon="9.350198730826378">
<ele>431.2</ele>
<time>2024-05-09T10:51:28Z</time>
</trkpt>
<trkpt lat="49.60453413426876" lon="9.350168220698832">
<ele>431.6</ele>
<time>2024-05-09T10:51:29Z</time>
</trkpt>
<trkpt lat="49.60455316118896" lon="9.350139554589989">
<ele>431.8</ele>
<time>2024-05-09T10:51:30Z</time>
</trkpt>
<trkpt lat="49.60457989946008" lon="9.3501129001379">
<ele>432</ele>
<time>2024-05-09T10:51:31Z</time>
</trkpt>
<trkpt lat="49.60459892638028" lon="9.350081384181976">
<ele>432.2</ele>
<time>2024-05-09T10:51:32Z</time>
</trkpt>
<trkpt lat="49.604621808975935" lon="9.350049952045085">
<ele>432.6</ele>
<time>2024-05-09T10:51:33Z</time>
</trkpt>
<trkpt lat="49.604644775390625" lon="9.350021285936236">
<ele>432.8</ele>
<time>2024-05-09T10:51:34Z</time>
</trkpt>
<trkpt lat="49.604663802310824" lon="9.349987003952265">
<ele>433</ele>
<time>2024-05-09T10:51:35Z</time>
</trkpt>
<trkpt lat="49.60468668490648" lon="9.34995649382472">
<ele>433.4</ele>
<time>2024-05-09T10:51:36Z</time>
</trkpt>
<trkpt lat="49.60470956750214" lon="9.349929755553603">
<ele>433.6</ele>
<time>2024-05-09T10:51:37Z</time>
</trkpt>
<trkpt lat="49.6047324500978" lon="9.34989639557898">
<ele>433.8</ele>
<time>2024-05-09T10:51:38Z</time>
</trkpt>
<trkpt lat="49.60475533269346" lon="9.34986018575728">
<ele>433.8</ele>
<time>2024-05-09T10:51:39Z</time>
</trkpt>
<trkpt lat="49.60477821528912" lon="9.349826741963623">
<ele>434</ele>
<time>2024-05-09T10:51:40Z</time>
</trkpt>
<trkpt lat="49.604801097884774" lon="9.349793381989002">
<ele>434.2</ele>
<time>2024-05-09T10:51:41Z</time>
</trkpt>
<trkpt lat="49.60482783615589" lon="9.349762871861458">
<ele>434.2</ele>
<time>2024-05-09T10:51:42Z</time>
</trkpt>
<trkpt lat="49.60485071875155" lon="9.349735211580992">
<ele>434.4</ele>
<time>2024-05-09T10:51:43Z</time>
</trkpt>
<trkpt lat="49.60486982949078" lon="9.349706629291177">
<ele>434.6</ele>
<time>2024-05-09T10:51:44Z</time>
</trkpt>
<trkpt lat="49.60489271208644" lon="9.349673269316554">
<ele>434.8</ele>
<time>2024-05-09T10:51:45Z</time>
</trkpt>
<trkpt lat="49.6049155946821" lon="9.349641753360627">
<ele>434.8</ele>
<time>2024-05-09T10:51:46Z</time>
</trkpt>
<trkpt lat="49.60493847727776" lon="9.349610321223736">
<ele>435</ele>
<time>2024-05-09T10:51:47Z</time>
</trkpt>
<trkpt lat="49.604961359873414" lon="9.34957687743008">
<ele>435</ele>
<time>2024-05-09T10:51:48Z</time>
</trkpt>
<trkpt lat="49.60498038679361" lon="9.349546367302535">
<ele>435.2</ele>
<time>2024-05-09T10:51:49Z</time>
</trkpt>
<trkpt lat="49.6050033532083" lon="9.349513007327914">
<ele>435.4</ele>
<time>2024-05-09T10:51:50Z</time>
</trkpt>
<trkpt lat="49.60503000766039" lon="9.34948157519102">
<ele>435.6</ele>
<time>2024-05-09T10:51:51Z</time>
</trkpt>
<trkpt lat="49.60504911839962" lon="9.349448131397368">
<ele>435.8</ele>
<time>2024-05-09T10:51:52Z</time>
</trkpt>
<trkpt lat="49.605075772851706" lon="9.349418627098204">
<ele>436</ele>
<time>2024-05-09T10:51:53Z</time>
</trkpt>
<trkpt lat="49.60510251112282" lon="9.349385183304548">
<ele>436</ele>
<time>2024-05-09T10:51:54Z</time>
</trkpt>
<trkpt lat="49.60512539371848" lon="9.349349895492196">
<ele>436.2</ele>
<time>2024-05-09T10:51:55Z</time>
</trkpt>
<trkpt lat="49.60515204817057" lon="9.349316535517572">
<ele>436.4</ele>
<time>2024-05-09T10:51:56Z</time>
</trkpt>
<trkpt lat="49.60517878644168" lon="9.349280325695872">
<ele>436.4</ele>
<time>2024-05-09T10:51:57Z</time>
</trkpt>
<trkpt lat="49.6052055247128" lon="9.34924311004579">
<ele>436.4</ele>
<time>2024-05-09T10:51:58Z</time>
</trkpt>
<trkpt lat="49.605236034840345" lon="9.34920497238636">
<ele>436.6</ele>
<time>2024-05-09T10:51:59Z</time>
</trkpt>
<trkpt lat="49.60526654496789" lon="9.3491649068892">
<ele>436.6</ele>
<time>2024-05-09T10:52:00Z</time>
</trkpt>
<trkpt lat="49.605293199419975" lon="9.349122997373344">
<ele>436.6</ele>
<time>2024-05-09T10:52:01Z</time>
</trkpt>
<trkpt lat="49.60532370954752" lon="9.349080082029104">
<ele>436.6</ele>
<time>2024-05-09T10:52:02Z</time>
</trkpt>
<trkpt lat="49.605354303494096" lon="9.349036160856484">
<ele>436.4</ele>
<time>2024-05-09T10:52:03Z</time>
</trkpt>
<trkpt lat="49.60538481362164" lon="9.348995173349977">
<ele>436.4</ele>
<time>2024-05-09T10:52:04Z</time>
</trkpt>
<trkpt lat="49.605411468073726" lon="9.348957035690546">
<ele>436.4</ele>
<time>2024-05-09T10:52:05Z</time>
</trkpt>
<trkpt lat="49.60543820634484" lon="9.348916970193386">
<ele>436.4</ele>
<time>2024-05-09T10:52:06Z</time>
</trkpt>
<trkpt lat="49.60546871647239" lon="9.348876904696226">
<ele>436.4</ele>
<time>2024-05-09T10:52:07Z</time>
</trkpt>
<trkpt lat="49.60549922659993" lon="9.348836839199066">
<ele>436.4</ele>
<time>2024-05-09T10:52:08Z</time>
</trkpt>
<trkpt lat="49.60552973672747" lon="9.348796773701906">
<ele>436.2</ele>
<time>2024-05-09T10:52:09Z</time>
</trkpt>
<trkpt lat="49.60556024685502" lon="9.348754864186049">
<ele>436.2</ele>
<time>2024-05-09T10:52:10Z</time>
</trkpt>
<trkpt lat="49.605594612658024" lon="9.348716726526618">
<ele>436.2</ele>
<time>2024-05-09T10:52:11Z</time>
</trkpt>
<trkpt lat="49.60562512278557" lon="9.348676661029458">
<ele>436.2</ele>
<time>2024-05-09T10:52:12Z</time>
</trkpt>
<trkpt lat="49.60565563291311" lon="9.348638523370028">
<ele>436</ele>
<time>2024-05-09T10:52:13Z</time>
</trkpt>
<trkpt lat="49.60568614304066" lon="9.348600385710595">
<ele>436</ele>
<time>2024-05-09T10:52:14Z</time>
</trkpt>
<trkpt lat="49.6057166531682" lon="9.348560320213435">
<ele>435.8</ele>
<time>2024-05-09T10:52:15Z</time>
</trkpt>
<trkpt lat="49.605751018971205" lon="9.34851455502212">
<ele>435.8</ele>
<time>2024-05-09T10:52:16Z</time>
</trkpt>
<trkpt lat="49.605785300955176" lon="9.348471639677882">
<ele>435.6</ele>
<time>2024-05-09T10:52:17Z</time>
</trkpt>
<trkpt lat="49.60581966675818" lon="9.348428724333644">
<ele>435.6</ele>
<time>2024-05-09T10:52:18Z</time>
</trkpt>
<trkpt lat="49.60585780441761" lon="9.348388658836484">
<ele>435.4</ele>
<time>2024-05-09T10:52:19Z</time>
</trkpt>
<trkpt lat="49.60589594207704" lon="9.348349515348673">
<ele>435.4</ele>
<time>2024-05-09T10:52:20Z</time>
</trkpt>
<trkpt lat="49.60593793541193" lon="9.348310455679892">
<ele>435.2</ele>
<time>2024-05-09T10:52:21Z</time>
</trkpt>
<trkpt lat="49.60598370060325" lon="9.348266534507276">
<ele>435.2</ele>
<time>2024-05-09T10:52:22Z</time>
</trkpt>
<trkpt lat="49.60602946579456" lon="9.34822177514434">
<ele>435.2</ele>
<time>2024-05-09T10:52:23Z</time>
</trkpt>
<trkpt lat="49.60607523098588" lon="9.348173076286912">
<ele>435</ele>
<time>2024-05-09T10:52:24Z</time>
</trkpt>
<trkpt lat="49.606124851852655" lon="9.348123539239168">
<ele>435</ele>
<time>2024-05-09T10:52:25Z</time>
</trkpt>
<trkpt lat="49.60617824457586" lon="9.348071990534663">
<ele>434.8</ele>
<time>2024-05-09T10:52:26Z</time>
</trkpt>
<trkpt lat="49.60623926483095" lon="9.348014825955032">
<ele>434.6</ele>
<time>2024-05-09T10:52:27Z</time>
</trkpt>
<trkpt lat="49.60630028508603" lon="9.347954727709292">
<ele>434.4</ele>
<time>2024-05-09T10:52:28Z</time>
</trkpt>
<trkpt lat="49.60636516101658" lon="9.347887923941016">
<ele>434.2</ele>
<time>2024-05-09T10:52:29Z</time>
</trkpt>
<trkpt lat="49.60643766447902" lon="9.347816426306965">
<ele>434</ele>
<time>2024-05-09T10:52:30Z</time>
</trkpt>
<trkpt lat="49.60651008412242" lon="9.34774300083518">
<ele>433.6</ele>
<time>2024-05-09T10:52:31Z</time>
</trkpt>
<trkpt lat="49.60658644326031" lon="9.347669575363398">
<ele>433.4</ele>
<time>2024-05-09T10:52:32Z</time>
</trkpt>
<trkpt lat="49.6066664904356" lon="9.347593300044537">
<ele>433</ele>
<time>2024-05-09T10:52:33Z</time>
</trkpt>
<trkpt lat="49.60675047710538" lon="9.347508391365407">
<ele>432.6</ele>
<time>2024-05-09T10:52:34Z</time>
</trkpt>
<trkpt lat="49.60684200748801" lon="9.347418705001472">
<ele>432.2</ele>
<time>2024-05-09T10:52:35Z</time>
</trkpt>
<trkpt lat="49.60692976601422" lon="9.34732818044722">
<ele>431.8</ele>
<time>2024-05-09T10:52:36Z</time>
</trkpt>
<trkpt lat="49.60702129639685" lon="9.347234722226858">
<ele>431.6</ele>
<time>2024-05-09T10:52:37Z</time>
</trkpt>
<trkpt lat="49.607112826779485" lon="9.347143108025191">
<ele>431.2</ele>
<time>2024-05-09T10:52:38Z</time>
</trkpt>
<trkpt lat="49.60720821283758" lon="9.34704964980483">
<ele>430.8</ele>
<time>2024-05-09T10:52:39Z</time>
</trkpt>
<trkpt lat="49.60729974322021" lon="9.34695141389966">
<ele>430.4</ele>
<time>2024-05-09T10:52:40Z</time>
</trkpt>
<trkpt lat="49.607391357421875" lon="9.346846556290984">
<ele>429.6</ele>
<time>2024-05-09T10:52:41Z</time>
</trkpt>
<trkpt lat="49.60747903212905" lon="9.346731137484312">
<ele>429</ele>
<time>2024-05-09T10:52:42Z</time>
</trkpt>
<trkpt lat="49.60756301879883" lon="9.346612868830562">
<ele>428.2</ele>
<time>2024-05-09T10:52:43Z</time>
</trkpt>
<trkpt lat="49.60764306597411" lon="9.346489906311035">
<ele>427.4</ele>
<time>2024-05-09T10:52:44Z</time>
</trkpt>
<trkpt lat="49.60772319696843" lon="9.346364932134748">
<ele>426.6</ele>
<time>2024-05-09T10:52:45Z</time>
</trkpt>
<trkpt lat="49.60779570043087" lon="9.346235264092684">
<ele>425.8</ele>
<time>2024-05-09T10:52:46Z</time>
</trkpt>
<trkpt lat="49.607864348217845" lon="9.34610366821289">
<ele>425</ele>
<time>2024-05-09T10:52:47Z</time>
</trkpt>
<trkpt lat="49.60792159661651" lon="9.345966288819907">
<ele>424.4</ele>
<time>2024-05-09T10:52:48Z</time>
</trkpt>
<trkpt lat="49.60797113366425" lon="9.34582798741758">
<ele>424</ele>
<time>2024-05-09T10:52:49Z</time>
</trkpt>
<trkpt lat="49.608020754531026" lon="9.345694463700056">
<ele>423.4</ele>
<time>2024-05-09T10:52:50Z</time>
</trkpt>
<trkpt lat="49.60806651972234" lon="9.345566723495722">
<ele>422.8</ele>
<time>2024-05-09T10:52:51Z</time>
</trkpt>
<trkpt lat="49.60810851305723" lon="9.345446527004242">
<ele>422.4</ele>
<time>2024-05-09T10:52:52Z</time>
</trkpt>
<trkpt lat="49.60814665071666" lon="9.3453330360353">
<ele>422</ele>
<time>2024-05-09T10:52:53Z</time>
</trkpt>
<trkpt lat="49.608180932700634" lon="9.345236727967858">
<ele>421.8</ele>
<time>2024-05-09T10:52:54Z</time>
</trkpt>
<trkpt lat="49.60821144282818" lon="9.345148047432303">
<ele>421.6</ele>
<time>2024-05-09T10:52:55Z</time>
</trkpt>
<trkpt lat="49.60824195295572" lon="9.345066994428636">
<ele>421.4</ele>
<time>2024-05-09T10:52:56Z</time>
</trkpt>
<trkpt lat="49.60826869122684" lon="9.3449944909662">
<ele>421.4</ele>
<time>2024-05-09T10:52:57Z</time>
</trkpt>
<trkpt lat="49.60829542949796" lon="9.344924921169875">
<ele>421.4</ele>
<time>2024-05-09T10:52:58Z</time>
</trkpt>
<trkpt lat="49.608318312093616" lon="9.344866750761868">
<ele>421.4</ele>
<time>2024-05-09T10:52:59Z</time>
</trkpt>
<trkpt lat="49.608337339013815" lon="9.344810424372554">
<ele>421.6</ele>
<time>2024-05-09T10:53:00Z</time>
</trkpt>
<trkpt lat="49.60835259407759" lon="9.3447579536587">
<ele>421.6</ele>
<time>2024-05-09T10:53:01Z</time>
</trkpt>
<trkpt lat="49.60836784914136" lon="9.344711266458036">
<ele>421.8</ele>
<time>2024-05-09T10:53:02Z</time>
</trkpt>
<trkpt lat="49.60838310420513" lon="9.344670278951526">
<ele>422</ele>
<time>2024-05-09T10:53:03Z</time>
</trkpt>
<trkpt lat="49.608398359268904" lon="9.344625435769558">
<ele>422.2</ele>
<time>2024-05-09T10:53:04Z</time>
</trkpt>
<trkpt lat="49.60840984247625" lon="9.34458159841597">
<ele>422.4</ele>
<time>2024-05-09T10:53:05Z</time>
</trkpt>
<trkpt lat="49.60842895321548" lon="9.34454153291881">
<ele>422.6</ele>
<time>2024-05-09T10:53:06Z</time>
</trkpt>
<trkpt lat="49.60844420827925" lon="9.34450146742165">
<ele>422.8</ele>
<time>2024-05-09T10:53:07Z</time>
</trkpt>
<trkpt lat="49.60846323519945" lon="9.34445947408676">
<ele>422.8</ele>
<time>2024-05-09T10:53:08Z</time>
</trkpt>
<trkpt lat="49.60848234593868" lon="9.344413708895445">
<ele>423</ele>
<time>2024-05-09T10:53:09Z</time>
</trkpt>
<trkpt lat="49.608497601002455" lon="9.344369871541858">
<ele>423.2</ele>
<time>2024-05-09T10:53:10Z</time>
</trkpt>
<trkpt lat="49.60851285606623" lon="9.344321172684433">
<ele>423.2</ele>
<time>2024-05-09T10:53:11Z</time>
</trkpt>
<trkpt lat="49.60852811113" lon="9.344278257340193">
<ele>423.4</ele>
<time>2024-05-09T10:53:12Z</time>
</trkpt>
<trkpt lat="49.60854336619377" lon="9.344233497977257">
<ele>423.6</ele>
<time>2024-05-09T10:53:13Z</time>
</trkpt>
<trkpt lat="49.608558621257544" lon="9.344188654795287">
<ele>423.8</ele>
<time>2024-05-09T10:53:14Z</time>
</trkpt>
<trkpt lat="49.60857387632131" lon="9.344142889603972">
<ele>424</ele>
<time>2024-05-09T10:53:15Z</time>
</trkpt>
<trkpt lat="49.60859298706055" lon="9.344097124412656">
<ele>424.2</ele>
<time>2024-05-09T10:53:16Z</time>
</trkpt>
<trkpt lat="49.60860824212432" lon="9.34405135922134">
<ele>424.2</ele>
<time>2024-05-09T10:53:17Z</time>
</trkpt>
<trkpt lat="49.60862349718809" lon="9.3440084438771">
<ele>424.4</ele>
<time>2024-05-09T10:53:18Z</time>
</trkpt>
<trkpt lat="49.60864252410829" lon="9.343964522704482">
<ele>424.4</ele>
<time>2024-05-09T10:53:19Z</time>
</trkpt>
<trkpt lat="49.60865777917206" lon="9.343917835503817">
<ele>424.6</ele>
<time>2024-05-09T10:53:20Z</time>
</trkpt>
<trkpt lat="49.608673034235835" lon="9.343874920159578">
<ele>424.8</ele>
<time>2024-05-09T10:53:21Z</time>
</trkpt>
<trkpt lat="49.60868828929961" lon="9.343838626518846">
<ele>425</ele>
<time>2024-05-09T10:53:22Z</time>
</trkpt>
<trkpt lat="49.60869977250695" lon="9.343803338706492">
<ele>425.2</ele>
<time>2024-05-09T10:53:23Z</time>
</trkpt>
<trkpt lat="49.60871502757072" lon="9.34376805089414">
<ele>425.2</ele>
<time>2024-05-09T10:53:24Z</time>
</trkpt>
<trkpt lat="49.60872642695904" lon="9.343734690919518">
<ele>425.4</ele>
<time>2024-05-09T10:53:25Z</time>
</trkpt>
<trkpt lat="49.60874168202281" lon="9.343696553260088">
<ele>425.6</ele>
<time>2024-05-09T10:53:26Z</time>
</trkpt>
<trkpt lat="49.608753165230155" lon="9.343656487762928">
<ele>425.8</ele>
<time>2024-05-09T10:53:27Z</time>
</trkpt>
<trkpt lat="49.60876842029393" lon="9.343618350103498">
<ele>426</ele>
<time>2024-05-09T10:53:28Z</time>
</trkpt>
<trkpt lat="49.6087836753577" lon="9.343576356768608">
<ele>426</ele>
<time>2024-05-09T10:53:29Z</time>
</trkpt>
<trkpt lat="49.60879893042147" lon="9.34353637509048">
<ele>426</ele>
<time>2024-05-09T10:53:30Z</time>
</trkpt>
<trkpt lat="49.60881418548525" lon="9.343491531908512">
<ele>426.2</ele>
<time>2024-05-09T10:53:31Z</time>
</trkpt>
<trkpt lat="49.608829440549016" lon="9.343446688726544">
<ele>426.2</ele>
<time>2024-05-09T10:53:32Z</time>
</trkpt>
<trkpt lat="49.60884469561279" lon="9.343402851372955">
<ele>426.2</ele>
<time>2024-05-09T10:53:33Z</time>
</trkpt>
<trkpt lat="49.60885995067656" lon="9.34335993602872">
<ele>426.2</ele>
<time>2024-05-09T10:53:34Z</time>
</trkpt>
<trkpt lat="49.60887906141579" lon="9.34331794269383">
<ele>426.2</ele>
<time>2024-05-09T10:53:35Z</time>
</trkpt>
<trkpt lat="49.60889431647957" lon="9.343275027349591">
<ele>426.4</ele>
<time>2024-05-09T10:53:36Z</time>
</trkpt>
<trkpt lat="49.60891334339976" lon="9.343230184167624">
<ele>426.4</ele>
<time>2024-05-09T10:53:37Z</time>
</trkpt>
<trkpt lat="49.608928598463535" lon="9.343185424804688">
<ele>426.6</ele>
<time>2024-05-09T10:53:38Z</time>
</trkpt>
<trkpt lat="49.608947709202766" lon="9.34313957579434">
<ele>426.6</ele>
<time>2024-05-09T10:53:39Z</time>
</trkpt>
<trkpt lat="49.608966819942" lon="9.3430966604501">
<ele>426.8</ele>
<time>2024-05-09T10:53:40Z</time>
</trkpt>
<trkpt lat="49.60898207500577" lon="9.343049973249435">
<ele>426.8</ele>
<time>2024-05-09T10:53:41Z</time>
</trkpt>
<trkpt lat="49.60899733006954" lon="9.343003202229738">
<ele>427</ele>
<time>2024-05-09T10:53:42Z</time>
</trkpt>
<trkpt lat="49.609012585133314" lon="9.342954587191343">
<ele>427</ele>
<time>2024-05-09T10:53:43Z</time>
</trkpt>
<trkpt lat="49.60902398452163" lon="9.342907899990678">
<ele>427</ele>
<time>2024-05-09T10:53:44Z</time>
</trkpt>
<trkpt lat="49.6090392395854" lon="9.34286305680871">
<ele>427</ele>
<time>2024-05-09T10:53:45Z</time>
</trkpt>
<trkpt lat="49.60905835032463" lon="9.342816285789011">
<ele>427.2</ele>
<time>2024-05-09T10:53:46Z</time>
</trkpt>
<trkpt lat="49.6090736053884" lon="9.342768592759969">
<ele>427.2</ele>
<time>2024-05-09T10:53:47Z</time>
</trkpt>
<trkpt lat="49.6090926323086" lon="9.342719977721572">
<ele>427.2</ele>
<time>2024-05-09T10:53:48Z</time>
</trkpt>
<trkpt lat="49.609107971191406" lon="9.342673290520906">
<ele>427.2</ele>
<time>2024-05-09T10:53:49Z</time>
</trkpt>
<trkpt lat="49.609126998111606" lon="9.34262651950121">
<ele>427.2</ele>
<time>2024-05-09T10:53:50Z</time>
</trkpt>
<trkpt lat="49.60914610885084" lon="9.342576898634434">
<ele>427.2</ele>
<time>2024-05-09T10:53:51Z</time>
</trkpt>
<trkpt lat="49.60916136391461" lon="9.34252543374896">
<ele>427.2</ele>
<time>2024-05-09T10:53:52Z</time>
</trkpt>
<trkpt lat="49.60918039083481" lon="9.342478746548297">
<ele>427.2</ele>
<time>2024-05-09T10:53:53Z</time>
</trkpt>
<trkpt lat="49.60919950157404" lon="9.342431975528598">
<ele>427.2</ele>
<time>2024-05-09T10:53:54Z</time>
</trkpt>
<trkpt lat="49.60921475663781" lon="9.342385288327932">
<ele>427.2</ele>
<time>2024-05-09T10:53:55Z</time>
</trkpt>
<trkpt lat="49.60923378355801" lon="9.342340445145965">
<ele>427.4</ele>
<time>2024-05-09T10:53:56Z</time>
</trkpt>
<trkpt lat="49.60925289429724" lon="9.342296523973346">
<ele>427.4</ele>
<time>2024-05-09T10:53:57Z</time>
</trkpt>
<trkpt lat="49.60927192121744" lon="9.34224790893495">
<ele>427.4</ele>
<time>2024-05-09T10:53:58Z</time>
</trkpt>
<trkpt lat="49.60929103195667" lon="9.342200215905905">
<ele>427.6</ele>
<time>2024-05-09T10:53:59Z</time>
</trkpt>
<trkpt lat="49.609310142695904" lon="9.342155456542969">
<ele>427.6</ele>
<time>2024-05-09T10:54:00Z</time>
</trkpt>
<trkpt lat="49.60933302529156" lon="9.34211346320808">
<ele>427.6</ele>
<time>2024-05-09T10:54:01Z</time>
</trkpt>
<trkpt lat="49.60935590788722" lon="9.342066692188382">
<ele>427.4</ele>
<time>2024-05-09T10:54:02Z</time>
</trkpt>
<trkpt lat="49.60937493480742" lon="9.342015227302907">
<ele>427.4</ele>
<time>2024-05-09T10:54:03Z</time>
</trkpt>
<trkpt lat="49.60939781740308" lon="9.341968456283212">
<ele>427.4</ele>
<time>2024-05-09T10:54:04Z</time>
</trkpt>
<trkpt lat="49.60941692814231" lon="9.341921769082546">
<ele>427.4</ele>
<time>2024-05-09T10:54:05Z</time>
</trkpt>
<trkpt lat="49.60943981073797" lon="9.341883631423116">
<ele>427.4</ele>
<time>2024-05-09T10:54:06Z</time>
</trkpt>
<trkpt lat="49.609462693333626" lon="9.3418378662318">
<ele>427.4</ele>
<time>2024-05-09T10:54:07Z</time>
</trkpt>
<trkpt lat="49.60948557592928" lon="9.341783467680216">
<ele>427.4</ele>
<time>2024-05-09T10:54:08Z</time>
</trkpt>
<trkpt lat="49.609504686668515" lon="9.341723369434476">
<ele>427.4</ele>
<time>2024-05-09T10:54:09Z</time>
</trkpt>
<trkpt lat="49.60951994173229" lon="9.341661427170038">
<ele>427.4</ele>
<time>2024-05-09T10:54:10Z</time>
</trkpt>
<trkpt lat="49.60953896865249" lon="9.341603256762028">
<ele>427.6</ele>
<time>2024-05-09T10:54:11Z</time>
</trkpt>
<trkpt lat="49.609561851248145" lon="9.341545086354015">
<ele>427.8</ele>
<time>2024-05-09T10:54:12Z</time>
</trkpt>
<trkpt lat="49.6095847338438" lon="9.341491693630816">
<ele>427.8</ele>
<time>2024-05-09T10:54:13Z</time>
</trkpt>
<trkpt lat="49.60961147211492" lon="9.34143821708858">
<ele>427.8</ele>
<time>2024-05-09T10:54:14Z</time>
</trkpt>
<trkpt lat="49.60963435471058" lon="9.3413819745183">
<ele>427.8</ele>
<time>2024-05-09T10:54:15Z</time>
</trkpt>
<trkpt lat="49.609661092981696" lon="9.34132187627256">
<ele>427.8</ele>
<time>2024-05-09T10:54:16Z</time>
</trkpt>
<trkpt lat="49.609683975577354" lon="9.34125993400812">
<ele>427.8</ele>
<time>2024-05-09T10:54:17Z</time>
</trkpt>
<trkpt lat="49.609703002497554" lon="9.341196985915303">
<ele>427.8</ele>
<time>2024-05-09T10:54:18Z</time>
</trkpt>
<trkpt lat="49.60972974076867" lon="9.341133115813136">
<ele>427.6</ele>
<time>2024-05-09T10:54:19Z</time>
</trkpt>
<trkpt lat="49.60974876768887" lon="9.341068239882588">
<ele>427.6</ele>
<time>2024-05-09T10:54:20Z</time>
</trkpt>
<trkpt lat="49.60977165028453" lon="9.34100621379912">
<ele>427.6</ele>
<time>2024-05-09T10:54:21Z</time>
</trkpt>
<trkpt lat="49.60979461669922" lon="9.340941421687605">
<ele>427.6</ele>
<time>2024-05-09T10:54:22Z</time>
</trkpt>
<trkpt lat="49.60981749929488" lon="9.340880317613482">
<ele>427.6</ele>
<time>2024-05-09T10:54:23Z</time>
</trkpt>
<trkpt lat="49.609840381890535" lon="9.340823153033853">
<ele>427.6</ele>
<time>2024-05-09T10:54:24Z</time>
</trkpt>
<trkpt lat="49.609863264486194" lon="9.340764982625842">
<ele>427.6</ele>
<time>2024-05-09T10:54:25Z</time>
</trkpt>
<trkpt lat="49.609878519549966" lon="9.340704884380102">
<ele>427.6</ele>
<time>2024-05-09T10:54:26Z</time>
</trkpt>
<trkpt lat="49.609901402145624" lon="9.340646713972092">
<ele>427.6</ele>
<time>2024-05-09T10:54:27Z</time>
</trkpt>
<trkpt lat="49.60992428474128" lon="9.34058854356408">
<ele>427.8</ele>
<time>2024-05-09T10:54:28Z</time>
</trkpt>
<trkpt lat="49.60994716733694" lon="9.34052844531834">
<ele>427.8</ele>
<time>2024-05-09T10:54:29Z</time>
</trkpt>
<trkpt lat="49.6099700499326" lon="9.340473124757407">
<ele>427.8</ele>
<time>2024-05-09T10:54:30Z</time>
</trkpt>
<trkpt lat="49.60998916067183" lon="9.3404149543494">
<ele>427.8</ele>
<time>2024-05-09T10:54:31Z</time>
</trkpt>
<trkpt lat="49.61000818759203" lon="9.340356783941388">
<ele>427.8</ele>
<time>2024-05-09T10:54:32Z</time>
</trkpt>
<trkpt lat="49.61003107018769" lon="9.340299535542728">
<ele>428</ele>
<time>2024-05-09T10:54:33Z</time>
</trkpt>
<trkpt lat="49.61005018092692" lon="9.340243292972444">
<ele>428.2</ele>
<time>2024-05-09T10:54:34Z</time>
</trkpt>
<trkpt lat="49.61006920784712" lon="9.340185122564437">
<ele>428.2</ele>
<time>2024-05-09T10:54:35Z</time>
</trkpt>
<trkpt lat="49.61008831858635" lon="9.340123096480966">
<ele>428.4</ele>
<time>2024-05-09T10:54:36Z</time>
</trkpt>
<trkpt lat="49.61010734550655" lon="9.340064926072955">
<ele>428.6</ele>
<time>2024-05-09T10:54:37Z</time>
</trkpt>
<trkpt lat="49.61012645624578" lon="9.340001977980137">
<ele>428.8</ele>
<time>2024-05-09T10:54:38Z</time>
</trkpt>
<trkpt lat="49.61014933884144" lon="9.339944813400509">
<ele>428.8</ele>
<time>2024-05-09T10:54:39Z</time>
</trkpt>
<trkpt lat="49.61017607711256" lon="9.339889492839577">
<ele>429</ele>
<time>2024-05-09T10:54:40Z</time>
</trkpt>
<trkpt lat="49.610198959708214" lon="9.339831322431564">
<ele>429</ele>
<time>2024-05-09T10:54:41Z</time>
</trkpt>
<trkpt lat="49.61022184230387" lon="9.339773152023554">
<ele>429</ele>
<time>2024-05-09T10:54:42Z</time>
</trkpt>
<trkpt lat="49.61024472489953" lon="9.339712131768463">
<ele>429</ele>
<time>2024-05-09T10:54:43Z</time>
</trkpt>
<trkpt lat="49.610271379351616" lon="9.339652033522723">
<ele>429</ele>
<time>2024-05-09T10:54:44Z</time>
</trkpt>
<trkpt lat="49.610294261947274" lon="9.339585229754448">
<ele>428.8</ele>
<time>2024-05-09T10:54:45Z</time>
</trkpt>
<trkpt lat="49.61031722836197" lon="9.33952521532774">
<ele>428.8</ele>
<time>2024-05-09T10:54:46Z</time>
</trkpt>
<trkpt lat="49.61034388281405" lon="9.339467966929078">
<ele>428.8</ele>
<time>2024-05-09T10:54:47Z</time>
</trkpt>
<trkpt lat="49.61036676540971" lon="9.339414574205875">
<ele>428.8</ele>
<time>2024-05-09T10:54:48Z</time>
</trkpt>
<trkpt lat="49.610393503680825" lon="9.339360175654292">
<ele>428.8</ele>
<time>2024-05-09T10:54:49Z</time>
</trkpt>
<trkpt lat="49.61042015813291" lon="9.339302005246282">
<ele>428.8</ele>
<time>2024-05-09T10:54:50Z</time>
</trkpt>
<trkpt lat="49.61044304072857" lon="9.339242912828922">
<ele>429</ele>
<time>2024-05-09T10:54:51Z</time>
</trkpt>
<trkpt lat="49.610469778999686" lon="9.339184742420912">
<ele>429</ele>
<time>2024-05-09T10:54:52Z</time>
</trkpt>
<trkpt lat="49.6104965172708" lon="9.3391265720129">
<ele>429</ele>
<time>2024-05-09T10:54:53Z</time>
</trkpt>
<trkpt lat="49.61052317172289" lon="9.339064545929432">
<ele>429</ele>
<time>2024-05-09T10:54:54Z</time>
</trkpt>
<trkpt lat="49.610549909994006" lon="9.339004447683692">
<ele>429.2</ele>
<time>2024-05-09T10:54:55Z</time>
</trkpt>
<trkpt lat="49.61058042012155" lon="9.338945355266333">
<ele>429.2</ele>
<time>2024-05-09T10:54:56Z</time>
</trkpt>
<trkpt lat="49.61060707457363" lon="9.338883329182863">
<ele>429.2</ele>
<time>2024-05-09T10:54:57Z</time>
</trkpt>
<trkpt lat="49.61063758470118" lon="9.338821386918426">
<ele>429.2</ele>
<time>2024-05-09T10:54:58Z</time>
</trkpt>
<trkpt lat="49.61066817864776" lon="9.338756510987878">
<ele>429.2</ele>
<time>2024-05-09T10:54:59Z</time>
</trkpt>
<trkpt lat="49.61070246063173" lon="9.338687863200905">
<ele>429.2</ele>
<time>2024-05-09T10:55:00Z</time>
</trkpt>
<trkpt lat="49.61073682643473" lon="9.338622065261006">
<ele>429.2</ele>
<time>2024-05-09T10:55:01Z</time>
</trkpt>
<trkpt lat="49.61076348088682" lon="9.33855526149273">
<ele>429</ele>
<time>2024-05-09T10:55:02Z</time>
</trkpt>
<trkpt lat="49.61079784668982" lon="9.33849524706602">
<ele>429</ele>
<time>2024-05-09T10:55:03Z</time>
</trkpt>
<trkpt lat="49.610828356817365" lon="9.338433220982552">
<ele>428.8</ele>
<time>2024-05-09T10:55:04Z</time>
</trkpt>
<trkpt lat="49.61086272262037" lon="9.338368345052004">
<ele>428.6</ele>
<time>2024-05-09T10:55:05Z</time>
</trkpt>
<trkpt lat="49.61089700460434" lon="9.33829684741795">
<ele>428.4</ele>
<time>2024-05-09T10:55:06Z</time>
</trkpt>
<trkpt lat="49.61093137040734" lon="9.338228199630976">
<ele>428.2</ele>
<time>2024-05-09T10:55:07Z</time>
</trkpt>
<trkpt lat="49.610965652391315" lon="9.3381613958627">
<ele>428</ele>
<time>2024-05-09T10:55:08Z</time>
</trkpt>
<trkpt lat="49.61099624633789" lon="9.338089898228644">
<ele>428</ele>
<time>2024-05-09T10:55:09Z</time>
</trkpt>
<trkpt lat="49.611026756465435" lon="9.3380231782794">
<ele>427.8</ele>
<time>2024-05-09T10:55:10Z</time>
</trkpt>
<trkpt lat="49.61106103844941" lon="9.337956374511124">
<ele>427.8</ele>
<time>2024-05-09T10:55:11Z</time>
</trkpt>
<trkpt lat="49.61109540425241" lon="9.337888648733497">
<ele>427.6</ele>
<time>2024-05-09T10:55:12Z</time>
</trkpt>
<trkpt lat="49.61112968623638" lon="9.337820000946522">
<ele>427.6</ele>
<time>2024-05-09T10:55:13Z</time>
</trkpt>
<trkpt lat="49.611164052039385" lon="9.337753280997276">
<ele>427.4</ele>
<time>2024-05-09T10:55:14Z</time>
</trkpt>
<trkpt lat="49.61119841784239" lon="9.337686477229">
<ele>427.4</ele>
<time>2024-05-09T10:55:15Z</time>
</trkpt>
<trkpt lat="49.61123269982636" lon="9.337617829442024">
<ele>427.2</ele>
<time>2024-05-09T10:55:16Z</time>
</trkpt>
<trkpt lat="49.61125943809748" lon="9.337543481960893">
<ele>427.2</ele>
<time>2024-05-09T10:55:17Z</time>
</trkpt>
<trkpt lat="49.61128994822502" lon="9.337474750354886">
<ele>427</ele>
<time>2024-05-09T10:55:18Z</time>
</trkpt>
<trkpt lat="49.61131660267711" lon="9.337413730099795">
<ele>427</ele>
<time>2024-05-09T10:55:19Z</time>
</trkpt>
<trkpt lat="49.61134719662368" lon="9.33734985999763">
<ele>427</ele>
<time>2024-05-09T10:55:20Z</time>
</trkpt>
<trkpt lat="49.61137385107577" lon="9.337284984067082">
<ele>427</ele>
<time>2024-05-09T10:55:21Z</time>
</trkpt>
<trkpt lat="49.61140436120331" lon="9.337216336280107">
<ele>427</ele>
<time>2024-05-09T10:55:22Z</time>
</trkpt>
<trkpt lat="49.61143487133086" lon="9.337146682664752">
<ele>426.8</ele>
<time>2024-05-09T10:55:23Z</time>
</trkpt>
<trkpt lat="49.6114653814584" lon="9.337071413174272">
<ele>426.8</ele>
<time>2024-05-09T10:55:24Z</time>
</trkpt>
<trkpt lat="49.611495891585946" lon="9.336999831721188">
<ele>426.8</ele>
<time>2024-05-09T10:55:25Z</time>
</trkpt>
<trkpt lat="49.61152648553252" lon="9.33693311177194">
<ele>426.8</ele>
<time>2024-05-09T10:55:26Z</time>
</trkpt>
<trkpt lat="49.61155699566007" lon="9.336866308003664">
<ele>426.8</ele>
<time>2024-05-09T10:55:27Z</time>
</trkpt>
<trkpt lat="49.61158750578761" lon="9.33679673820734">
<ele>426.8</ele>
<time>2024-05-09T10:55:28Z</time>
</trkpt>
<trkpt lat="49.61162178777158" lon="9.336731862276793">
<ele>426.8</ele>
<time>2024-05-09T10:55:29Z</time>
</trkpt>
<trkpt lat="49.61165229789913" lon="9.336673691868782">
<ele>426.8</ele>
<time>2024-05-09T10:55:30Z</time>
</trkpt>
<trkpt lat="49.61168666370213" lon="9.336613593623042">
<ele>426.8</ele>
<time>2024-05-09T10:55:31Z</time>
</trkpt>
<trkpt lat="49.61171340197325" lon="9.336556429043412">
<ele>426.8</ele>
<time>2024-05-09T10:55:32Z</time>
</trkpt>
<trkpt lat="49.61174768395722" lon="9.336502030491827">
<ele>426.8</ele>
<time>2024-05-09T10:55:33Z</time>
</trkpt>
<trkpt lat="49.61177819408476" lon="9.336446709930897">
<ele>426.8</ele>
<time>2024-05-09T10:55:34Z</time>
</trkpt>
<trkpt lat="49.61180493235588" lon="9.336383761838078">
<ele>426.6</ele>
<time>2024-05-09T10:55:35Z</time>
</trkpt>
<trkpt lat="49.611831586807966" lon="9.336326597258449">
<ele>426.6</ele>
<time>2024-05-09T10:55:36Z</time>
</trkpt>
<trkpt lat="49.61185832507908" lon="9.336271276697516">
<ele>426.6</ele>
<time>2024-05-09T10:55:37Z</time>
</trkpt>
<trkpt lat="49.61188883520663" lon="9.336213106289506">
<ele>426.8</ele>
<time>2024-05-09T10:55:38Z</time>
</trkpt>
<trkpt lat="49.61192320100963" lon="9.336154935881495">
<ele>426.8</ele>
<time>2024-05-09T10:55:39Z</time>
</trkpt>
<trkpt lat="49.61194985546172" lon="9.336098609492185">
<ele>426.8</ele>
<time>2024-05-09T10:55:40Z</time>
</trkpt>
<trkpt lat="49.61198422126472" lon="9.336041444912553">
<ele>427</ele>
<time>2024-05-09T10:55:41Z</time>
</trkpt>
<trkpt lat="49.612014731392264" lon="9.33598704636097">
<ele>427</ele>
<time>2024-05-09T10:55:42Z</time>
</trkpt>
<trkpt lat="49.61204909719527" lon="9.335931725800036">
<ele>427.2</ele>
<time>2024-05-09T10:55:43Z</time>
</trkpt>
<trkpt lat="49.61208337917924" lon="9.335874477401376">
<ele>427.2</ele>
<time>2024-05-09T10:55:44Z</time>
</trkpt>
<trkpt lat="49.612113889306784" lon="9.335820162668824">
<ele>427.4</ele>
<time>2024-05-09T10:55:45Z</time>
</trkpt>
<trkpt lat="49.612152026966214" lon="9.335762914270164">
<ele>427.4</ele>
<time>2024-05-09T10:55:46Z</time>
</trkpt>
<trkpt lat="49.61218639276922" lon="9.33571144938469">
<ele>427.4</ele>
<time>2024-05-09T10:55:47Z</time>
</trkpt>
<trkpt lat="49.61222453042865" lon="9.335662834346294">
<ele>427.6</ele>
<time>2024-05-09T10:55:48Z</time>
</trkpt>
<trkpt lat="49.61225504055619" lon="9.33561321347952">
<ele>427.6</ele>
<time>2024-05-09T10:55:49Z</time>
</trkpt>
<trkpt lat="49.6122894063592" lon="9.335566442459822">
<ele>427.6</ele>
<time>2024-05-09T10:55:50Z</time>
</trkpt>
<trkpt lat="49.61231606081128" lon="9.335528304800391">
<ele>427.6</ele>
<time>2024-05-09T10:55:51Z</time>
</trkpt>
<trkpt lat="49.612350426614285" lon="9.33549016714096">
<ele>427.6</ele>
<time>2024-05-09T10:55:52Z</time>
</trkpt>
<trkpt lat="49.612388564273715" lon="9.335448257625105">
<ele>427.6</ele>
<time>2024-05-09T10:55:53Z</time>
</trkpt>
<trkpt lat="49.612426701933146" lon="9.33541003614664">
<ele>427.6</ele>
<time>2024-05-09T10:55:54Z</time>
</trkpt>
<trkpt lat="49.61246106773615" lon="9.335370054468513">
<ele>427.6</ele>
<time>2024-05-09T10:55:55Z</time>
</trkpt>
<trkpt lat="49.61249534972012" lon="9.335325211286545">
<ele>427.6</ele>
<time>2024-05-09T10:55:56Z</time>
</trkpt>
<trkpt lat="49.61253348737955" lon="9.33527659624815">
<ele>427.6</ele>
<time>2024-05-09T10:55:57Z</time>
</trkpt>
<trkpt lat="49.612567853182554" lon="9.335229825228453">
<ele>427.6</ele>
<time>2024-05-09T10:55:58Z</time>
</trkpt>
<trkpt lat="49.61260984651744" lon="9.335186909884214">
<ele>427.6</ele>
<time>2024-05-09T10:55:59Z</time>
</trkpt>
<trkpt lat="49.612647984176874" lon="9.335140222683547">
<ele>427.6</ele>
<time>2024-05-09T10:56:00Z</time>
</trkpt>
<trkpt lat="49.612686121836305" lon="9.33509630151093">
<ele>427.6</ele>
<time>2024-05-09T10:56:01Z</time>
</trkpt>
<trkpt lat="49.61272048763931" lon="9.335044836625457">
<ele>427.8</ele>
<time>2024-05-09T10:56:02Z</time>
</trkpt>
<trkpt lat="49.61275862529874" lon="9.33500192128122">
<ele>427.8</ele>
<time>2024-05-09T10:56:03Z</time>
</trkpt>
<trkpt lat="49.61280053481459" lon="9.33496185578406">
<ele>427.8</ele>
<time>2024-05-09T10:56:04Z</time>
</trkpt>
<trkpt lat="49.612842528149486" lon="9.3349217902869">
<ele>428</ele>
<time>2024-05-09T10:56:05Z</time>
</trkpt>
<trkpt lat="49.61288066580891" lon="9.33487979695201">
<ele>428</ele>
<time>2024-05-09T10:56:06Z</time>
</trkpt>
<trkpt lat="49.61291880346835" lon="9.334837887436152">
<ele>428.2</ele>
<time>2024-05-09T10:56:07Z</time>
</trkpt>
<trkpt lat="49.61294931359589" lon="9.334796899929644">
<ele>428.4</ele>
<time>2024-05-09T10:56:08Z</time>
</trkpt>
<trkpt lat="49.612983679398894" lon="9.334748201072216">
<ele>428.4</ele>
<time>2024-05-09T10:56:09Z</time>
</trkpt>
<trkpt lat="49.613017961382866" lon="9.33470151387155">
<ele>428.6</ele>
<time>2024-05-09T10:56:10Z</time>
</trkpt>
<trkpt lat="49.61305232718587" lon="9.334654742851852">
<ele>428.6</ele>
<time>2024-05-09T10:56:11Z</time>
</trkpt>
<trkpt lat="49.6130904648453" lon="9.334607049822807">
<ele>428.6</ele>
<time>2024-05-09T10:56:12Z</time>
</trkpt>
<trkpt lat="49.61312860250473" lon="9.33456128463149">
<ele>428.6</ele>
<time>2024-05-09T10:56:13Z</time>
</trkpt>
<trkpt lat="49.61316674016416" lon="9.334514597430823">
<ele>428.8</ele>
<time>2024-05-09T10:56:14Z</time>
</trkpt>
<trkpt lat="49.61320110596717" lon="9.334469754248856">
<ele>428.8</ele>
<time>2024-05-09T10:56:15Z</time>
</trkpt>
<trkpt lat="49.61323547177017" lon="9.33442491106689">
<ele>429</ele>
<time>2024-05-09T10:56:16Z</time>
</trkpt>
<trkpt lat="49.61326975375414" lon="9.334378223866224">
<ele>429</ele>
<time>2024-05-09T10:56:17Z</time>
</trkpt>
<trkpt lat="49.61330411955714" lon="9.334333380684257">
<ele>429</ele>
<time>2024-05-09T10:56:18Z</time>
</trkpt>
<trkpt lat="49.613338401541114" lon="9.334288537502289">
<ele>429</ele>
<time>2024-05-09T10:56:19Z</time>
</trkpt>
<trkpt lat="49.613376539200544" lon="9.334244700148702">
<ele>429</ele>
<time>2024-05-09T10:56:20Z</time>
</trkpt>
<trkpt lat="49.61341090500355" lon="9.334199856966734">
<ele>429</ele>
<time>2024-05-09T10:56:21Z</time>
</trkpt>
<trkpt lat="49.61344904266298" lon="9.334150236099958">
<ele>429</ele>
<time>2024-05-09T10:56:22Z</time>
</trkpt>
<trkpt lat="49.61348718032241" lon="9.334099693223834">
<ele>429</ele>
<time>2024-05-09T10:56:23Z</time>
</trkpt>
<trkpt lat="49.6135291736573" lon="9.334056777879596">
<ele>429</ele>
<time>2024-05-09T10:56:24Z</time>
</trkpt>
<trkpt lat="49.61356731131673" lon="9.334016796201468">
<ele>428.8</ele>
<time>2024-05-09T10:56:25Z</time>
</trkpt>
<trkpt lat="49.61360544897616" lon="9.333974802866578">
<ele>428.8</ele>
<time>2024-05-09T10:56:26Z</time>
</trkpt>
<trkpt lat="49.61363981477916" lon="9.333923337981105">
<ele>428.6</ele>
<time>2024-05-09T10:56:27Z</time>
</trkpt>
<trkpt lat="49.613674096763134" lon="9.333876566961408">
<ele>428.6</ele>
<time>2024-05-09T10:56:28Z</time>
</trkpt>
<trkpt lat="49.613712234422565" lon="9.333827951923013">
<ele>428.4</ele>
<time>2024-05-09T10:56:29Z</time>
</trkpt>
<trkpt lat="49.61374660022557" lon="9.333783108741043">
<ele>428.4</ele>
<time>2024-05-09T10:56:30Z</time>
</trkpt>
<trkpt lat="49.613784737885" lon="9.33373348787427">
<ele>428.2</ele>
<time>2024-05-09T10:56:31Z</time>
</trkpt>
<trkpt lat="49.61382287554443" lon="9.333691578358412">
<ele>428.2</ele>
<time>2024-05-09T10:56:32Z</time>
</trkpt>
<trkpt lat="49.61385724134743" lon="9.33365344069898">
<ele>428.2</ele>
<time>2024-05-09T10:56:33Z</time>
</trkpt>
<trkpt lat="49.61389152333141" lon="9.333611447364092">
<ele>428.2</ele>
<time>2024-05-09T10:56:34Z</time>
</trkpt>
<trkpt lat="49.613929744809866" lon="9.33355520479381">
<ele>428.2</ele>
<time>2024-05-09T10:56:35Z</time>
</trkpt>
<trkpt lat="49.61397165432573" lon="9.333511283621192">
<ele>428.2</ele>
<time>2024-05-09T10:56:36Z</time>
</trkpt>
<trkpt lat="49.614009791985154" lon="9.333463590592146">
<ele>428.4</ele>
<time>2024-05-09T10:56:37Z</time>
</trkpt>
<trkpt lat="49.614047929644585" lon="9.333413047716022">
<ele>428.6</ele>
<time>2024-05-09T10:56:38Z</time>
</trkpt>
<trkpt lat="49.614089922979474" lon="9.333372060209513">
<ele>428.6</ele>
<time>2024-05-09T10:56:39Z</time>
</trkpt>
<trkpt lat="49.614128060638905" lon="9.333333000540732">
<ele>428.8</ele>
<time>2024-05-09T10:56:40Z</time>
</trkpt>
<trkpt lat="49.614166198298335" lon="9.333292935043572">
<ele>429.2</ele>
<time>2024-05-09T10:56:41Z</time>
</trkpt>
<trkpt lat="49.614204335957766" lon="9.33325664140284">
<ele>429.6</ele>
<time>2024-05-09T10:56:42Z</time>
</trkpt>
<trkpt lat="49.61423870176077" lon="9.333216659724712">
<ele>429.8</ele>
<time>2024-05-09T10:56:43Z</time>
</trkpt>
<trkpt lat="49.61427306756377" lon="9.33317843824625">
<ele>429.8</ele>
<time>2024-05-09T10:56:44Z</time>
</trkpt>
<trkpt lat="49.61431497707963" lon="9.33314030058682">
<ele>430</ele>
<time>2024-05-09T10:56:45Z</time>
</trkpt>
<trkpt lat="49.61435697041452" lon="9.333098391070962">
<ele>430</ele>
<time>2024-05-09T10:56:46Z</time>
</trkpt>
<trkpt lat="49.61439887993038" lon="9.333054469898345">
<ele>430.2</ele>
<time>2024-05-09T10:56:47Z</time>
</trkpt>
<trkpt lat="49.614440873265266" lon="9.333008704707026">
<ele>430.2</ele>
<time>2024-05-09T10:56:48Z</time>
</trkpt>
<trkpt lat="49.61448663845658" lon="9.332966795191169">
<ele>430.2</ele>
<time>2024-05-09T10:56:49Z</time>
</trkpt>
<trkpt lat="49.61452863179147" lon="9.332926729694009">
<ele>430.2</ele>
<time>2024-05-09T10:56:50Z</time>
</trkpt>
<trkpt lat="49.61457054130733" lon="9.332889514043927">
<ele>430.4</ele>
<time>2024-05-09T10:56:51Z</time>
</trkpt>
<trkpt lat="49.61461639031768" lon="9.332853304222226">
<ele>430.4</ele>
<time>2024-05-09T10:56:52Z</time>
</trkpt>
<trkpt lat="49.614658299833536" lon="9.332813238725066">
<ele>430.4</ele>
<time>2024-05-09T10:56:53Z</time>
</trkpt>
<trkpt lat="49.61469643749297" lon="9.332776945084332">
<ele>430.4</ele>
<time>2024-05-09T10:56:54Z</time>
</trkpt>
<trkpt lat="49.614738430827856" lon="9.33274165727198">
<ele>430.6</ele>
<time>2024-05-09T10:56:55Z</time>
</trkpt>
<trkpt lat="49.61477656848729" lon="9.33270829729736">
<ele>430.6</ele>
<time>2024-05-09T10:56:56Z</time>
</trkpt>
<trkpt lat="49.614818561822176" lon="9.332673009485006">
<ele>430.8</ele>
<time>2024-05-09T10:56:57Z</time>
</trkpt>
<trkpt lat="49.61485669948161" lon="9.332630094140768">
<ele>431</ele>
<time>2024-05-09T10:56:58Z</time>
</trkpt>
<trkpt lat="49.614898608997464" lon="9.332583406940104">
<ele>431</ele>
<time>2024-05-09T10:56:59Z</time>
</trkpt>
<trkpt lat="49.61494445800781" lon="9.332538563758137">
<ele>431.2</ele>
<time>2024-05-09T10:57:00Z</time>
</trkpt>
<trkpt lat="49.61498259566724" lon="9.332491792738438">
<ele>431.2</ele>
<time>2024-05-09T10:57:01Z</time>
</trkpt>
<trkpt lat="49.615016877651215" lon="9.332443177700045">
<ele>431.4</ele>
<time>2024-05-09T10:57:02Z</time>
</trkpt>
<trkpt lat="49.615055015310645" lon="9.33239171281457">
<ele>431.4</ele>
<time>2024-05-09T10:57:03Z</time>
</trkpt>
<trkpt lat="49.61508938111365" lon="9.332334464415908">
<ele>431.4</ele>
<time>2024-05-09T10:57:04Z</time>
</trkpt>
<trkpt lat="49.61512374691665" lon="9.332280149683356">
<ele>431.4</ele>
<time>2024-05-09T10:57:05Z</time>
</trkpt>
<trkpt lat="49.61516188457608" lon="9.332222901284696">
<ele>431.4</ele>
<time>2024-05-09T10:57:06Z</time>
</trkpt>
<trkpt lat="49.61520002223551" lon="9.33217328041792">
<ele>431.2</ele>
<time>2024-05-09T10:57:07Z</time>
</trkpt>
<trkpt lat="49.61523815989494" lon="9.332126593217254">
<ele>431.2</ele>
<time>2024-05-09T10:57:08Z</time>
</trkpt>
<trkpt lat="49.615272441878915" lon="9.33205794543028">
<ele>431</ele>
<time>2024-05-09T10:57:09Z</time>
</trkpt>
<trkpt lat="49.61531066335738" lon="9.33199784718454">
<ele>431</ele>
<time>2024-05-09T10:57:10Z</time>
</trkpt>
<trkpt lat="49.61534880101681" lon="9.331932971253991">
<ele>430.8</ele>
<time>2024-05-09T10:57:11Z</time>
</trkpt>
<trkpt lat="49.61538693867624" lon="9.331868095323443">
<ele>430.8</ele>
<time>2024-05-09T10:57:12Z</time>
</trkpt>
<trkpt lat="49.61542122066021" lon="9.331809924915431">
<ele>430.6</ele>
<time>2024-05-09T10:57:13Z</time>
</trkpt>
<trkpt lat="49.615451730787754" lon="9.331749910488725">
<ele>430.6</ele>
<time>2024-05-09T10:57:14Z</time>
</trkpt>
<trkpt lat="49.615489952266216" lon="9.331687884405255">
<ele>430.4</ele>
<time>2024-05-09T10:57:15Z</time>
</trkpt>
<trkpt lat="49.61552423425019" lon="9.331623008474708">
<ele>430.2</ele>
<time>2024-05-09T10:57:16Z</time>
</trkpt>
<trkpt lat="49.61556622758508" lon="9.331553438678384">
<ele>430.2</ele>
<time>2024-05-09T10:57:17Z</time>
</trkpt>
<trkpt lat="49.615608137100935" lon="9.331484790891407">
<ele>430</ele>
<time>2024-05-09T10:57:18Z</time>
</trkpt>
<trkpt lat="49.61565398611128" lon="9.331415137276052">
<ele>430</ele>
<time>2024-05-09T10:57:19Z</time>
</trkpt>
<trkpt lat="49.61569589562714" lon="9.331348417326808">
<ele>429.8</ele>
<time>2024-05-09T10:57:20Z</time>
</trkpt>
<trkpt lat="49.61574551649392" lon="9.331277841702104">
<ele>429.6</ele>
<time>2024-05-09T10:57:21Z</time>
</trkpt>
<trkpt lat="49.61579890921712" lon="9.331214893609284">
<ele>429.4</ele>
<time>2024-05-09T10:57:22Z</time>
</trkpt>
<trkpt lat="49.61585230194032" lon="9.331151945516469">
<ele>429</ele>
<time>2024-05-09T10:57:23Z</time>
</trkpt>
<trkpt lat="49.615905694663525" lon="9.331093775108457">
<ele>428.8</ele>
<time>2024-05-09T10:57:24Z</time>
</trkpt>
<trkpt lat="49.61595908738673" lon="9.331034598872066">
<ele>428.6</ele>
<time>2024-05-09T10:57:25Z</time>
</trkpt>
<trkpt lat="49.61601256392896" lon="9.330983133986592">
<ele>428.4</ele>
<time>2024-05-09T10:57:26Z</time>
</trkpt>
<trkpt lat="49.61606972850859" lon="9.330934518948196">
<ele>428.2</ele>
<time>2024-05-09T10:57:27Z</time>
</trkpt>
<trkpt lat="49.61611934937537" lon="9.330884898081422">
<ele>428</ele>
<time>2024-05-09T10:57:28Z</time>
</trkpt>
<trkpt lat="49.61617274209857" lon="9.330840054899454">
<ele>427.8</ele>
<time>2024-05-09T10:57:29Z</time>
</trkpt>
<trkpt lat="49.61622613482177" lon="9.330795211717486">
<ele>427.6</ele>
<time>2024-05-09T10:57:30Z</time>
</trkpt>
<trkpt lat="49.616279527544975" lon="9.330753302201629">
<ele>427.4</ele>
<time>2024-05-09T10:57:31Z</time>
</trkpt>
<trkpt lat="49.61632914841175" lon="9.33071130886674">
<ele>427.2</ele>
<time>2024-05-09T10:57:32Z</time>
</trkpt>
<trkpt lat="49.61637491360307" lon="9.330675099045038">
<ele>427</ele>
<time>2024-05-09T10:57:33Z</time>
</trkpt>
<trkpt lat="49.61642453446984" lon="9.330644588917494">
<ele>426.8</ele>
<time>2024-05-09T10:57:34Z</time>
</trkpt>
<trkpt lat="49.6164664439857" lon="9.330606451258063">
<ele>426.8</ele>
<time>2024-05-09T10:57:35Z</time>
</trkpt>
<trkpt lat="49.61650843732059" lon="9.330563535913823">
<ele>426.6</ele>
<time>2024-05-09T10:57:36Z</time>
</trkpt>
<trkpt lat="49.61655043065548" lon="9.330523470416663">
<ele>426.6</ele>
<time>2024-05-09T10:57:37Z</time>
</trkpt>
<trkpt lat="49.6165961958468" lon="9.330486254766583">
<ele>426.6</ele>
<time>2024-05-09T10:57:38Z</time>
</trkpt>
<trkpt lat="49.616638105362654" lon="9.33045289479196">
<ele>426.4</ele>
<time>2024-05-09T10:57:39Z</time>
</trkpt>
<trkpt lat="49.61668009869754" lon="9.330419534817338">
<ele>426.4</ele>
<time>2024-05-09T10:57:40Z</time>
</trkpt>
<trkpt lat="49.61672209203243" lon="9.330385169014336">
<ele>426.4</ele>
<time>2024-05-09T10:57:41Z</time>
</trkpt>
<trkpt lat="49.61676400154829" lon="9.330349881201982">
<ele>426.4</ele>
<time>2024-05-09T10:57:42Z</time>
</trkpt>
<trkpt lat="49.61680976673961" lon="9.33031652122736">
<ele>426.2</ele>
<time>2024-05-09T10:57:43Z</time>
</trkpt>
<trkpt lat="49.616851760074496" lon="9.330286933109164">
<ele>426.2</ele>
<time>2024-05-09T10:57:44Z</time>
</trkpt>
<trkpt lat="49.61688989773393" lon="9.33025449514389">
<ele>426.2</ele>
<time>2024-05-09T10:57:45Z</time>
</trkpt>
<trkpt lat="49.61693566292524" lon="9.330228762701154">
<ele>426.4</ele>
<time>2024-05-09T10:57:46Z</time>
</trkpt>
<trkpt lat="49.61697765626013" lon="9.330204958096148">
<ele>426.4</ele>
<time>2024-05-09T10:57:47Z</time>
</trkpt>
<trkpt lat="49.61701579391956" lon="9.33018014766276">
<ele>426.4</ele>
<time>2024-05-09T10:57:48Z</time>
</trkpt>
<trkpt lat="49.617053931578994" lon="9.33016011491418">
<ele>426.6</ele>
<time>2024-05-09T10:57:49Z</time>
</trkpt>
<trkpt lat="49.61709592491388" lon="9.330142010003328">
<ele>426.6</ele>
<time>2024-05-09T10:57:50Z</time>
</trkpt>
<trkpt lat="49.6171416901052" lon="9.33012004941702">
<ele>426.6</ele>
<time>2024-05-09T10:57:51Z</time>
</trkpt>
<trkpt lat="49.61718745529651" lon="9.330102866515515">
<ele>426.6</ele>
<time>2024-05-09T10:57:52Z</time>
</trkpt>
<trkpt lat="49.61723322048783" lon="9.330089539289474">
<ele>426.4</ele>
<time>2024-05-09T10:57:53Z</time>
</trkpt>
<trkpt lat="49.61728284135461" lon="9.33007998391986">
<ele>426.4</ele>
<time>2024-05-09T10:57:54Z</time>
</trkpt>
<trkpt lat="49.617328606545925" lon="9.33005802333355">
<ele>426.4</ele>
<time>2024-05-09T10:57:55Z</time>
</trkpt>
<trkpt lat="49.61738585494459" lon="9.330031368881464">
<ele>426.2</ele>
<time>2024-05-09T10:57:56Z</time>
</trkpt>
<trkpt lat="49.61744687519968" lon="9.330010414123535">
<ele>426</ele>
<time>2024-05-09T10:57:57Z</time>
</trkpt>
<trkpt lat="49.61750789545477" lon="9.32997982017696">
<ele>425.8</ele>
<time>2024-05-09T10:57:58Z</time>
</trkpt>
<trkpt lat="49.61757277138531" lon="9.32995794340968">
<ele>425.6</ele>
<time>2024-05-09T10:57:59Z</time>
</trkpt>
<trkpt lat="49.61762993596494" lon="9.329933132976294">
<ele>425.6</ele>
<time>2024-05-09T10:58:00Z</time>
</trkpt>
<trkpt lat="49.61769104003906" lon="9.329906394705176">
<ele>425.2</ele>
<time>2024-05-09T10:58:01Z</time>
</trkpt>
<trkpt lat="49.61774820461869" lon="9.329883512109518">
<ele>424.8</ele>
<time>2024-05-09T10:58:02Z</time>
</trkpt>
<trkpt lat="49.61780922487378" lon="9.329854929819705">
<ele>424.6</ele>
<time>2024-05-09T10:58:03Z</time>
</trkpt>
<trkpt lat="49.61787410080433" lon="9.329832047224045">
<ele>424.2</ele>
<time>2024-05-09T10:58:04Z</time>
</trkpt>
<trkpt lat="49.61793897673488" lon="9.329812936484814">
<ele>423.8</ele>
<time>2024-05-09T10:58:05Z</time>
</trkpt>
<trkpt lat="49.617999996989965" lon="9.32978343218565">
<ele>423.4</ele>
<time>2024-05-09T10:58:06Z</time>
</trkpt>
<trkpt lat="49.61806487292051" lon="9.329756693914533">
<ele>422.8</ele>
<time>2024-05-09T10:58:07Z</time>
</trkpt>
<trkpt lat="49.61812966503203" lon="9.329729955643415">
<ele>422.4</ele>
<time>2024-05-09T10:58:08Z</time>
</trkpt>
<trkpt lat="49.61819831281901" lon="9.32970522902906">
<ele>422</ele>
<time>2024-05-09T10:58:09Z</time>
</trkpt>
<trkpt lat="49.61826704442501" lon="9.329673713073134">
<ele>421.6</ele>
<time>2024-05-09T10:58:10Z</time>
</trkpt>
<trkpt lat="49.618335692211986" lon="9.329651752486823">
<ele>421.2</ele>
<time>2024-05-09T10:58:11Z</time>
</trkpt>
<trkpt lat="49.61840819567442" lon="9.329636497423053">
<ele>420.8</ele>
<time>2024-05-09T10:58:12Z</time>
</trkpt>
<trkpt lat="49.61848447099328" lon="9.329613614827394">
<ele>420.2</ele>
<time>2024-05-09T10:58:13Z</time>
</trkpt>
<trkpt lat="49.618556974455714" lon="9.329589810222387">
<ele>420</ele>
<time>2024-05-09T10:58:14Z</time>
</trkpt>
<trkpt lat="49.61862939409912" lon="9.32956307195127">
<ele>419.4</ele>
<time>2024-05-09T10:58:15Z</time>
</trkpt>
<trkpt lat="49.61870566941798" lon="9.329533567652106">
<ele>419</ele>
<time>2024-05-09T10:58:16Z</time>
</trkpt>
<trkpt lat="49.6187858004123" lon="9.329500123858452">
<ele>418.4</ele>
<time>2024-05-09T10:58:17Z</time>
</trkpt>
<trkpt lat="49.61886207573116" lon="9.329476319253445">
<ele>417.8</ele>
<time>2024-05-09T10:58:18Z</time>
</trkpt>
<trkpt lat="49.61894220672548" lon="9.329449580982327">
<ele>416.8</ele>
<time>2024-05-09T10:58:19Z</time>
</trkpt>
<trkpt lat="49.61901471018791" lon="9.32942192070186">
<ele>416.2</ele>
<time>2024-05-09T10:58:20Z</time>
</trkpt>
<trkpt lat="49.619087213650346" lon="9.32938856072724">
<ele>415.4</ele>
<time>2024-05-09T10:58:21Z</time>
</trkpt>
<trkpt lat="49.61916348896921" lon="9.329357128590344">
<ele>414.6</ele>
<time>2024-05-09T10:58:22Z</time>
</trkpt>
<trkpt lat="49.61923976428807" lon="9.329321840777991">
<ele>413.8</ele>
<time>2024-05-09T10:58:23Z</time>
</trkpt>
<trkpt lat="49.61931603960693" lon="9.32928848080337">
<ele>413.2</ele>
<time>2024-05-09T10:58:24Z</time>
</trkpt>
<trkpt lat="49.61938854306936" lon="9.329256964847444">
<ele>412.6</ele>
<time>2024-05-09T10:58:25Z</time>
</trkpt>
<trkpt lat="49.6194610465318" lon="9.329221677035092">
<ele>412</ele>
<time>2024-05-09T10:58:26Z</time>
</trkpt>
<trkpt lat="49.6195334661752" lon="9.32918831706047">
<ele>411.6</ele>
<time>2024-05-09T10:58:27Z</time>
</trkpt>
<trkpt lat="49.61960982531309" lon="9.329153029248118">
<ele>411</ele>
<time>2024-05-09T10:58:28Z</time>
</trkpt>
<trkpt lat="49.61968610063195" lon="9.329116819426416">
<ele>410.4</ele>
<time>2024-05-09T10:58:29Z</time>
</trkpt>
<trkpt lat="49.619758604094386" lon="9.329085303470492">
<ele>409.6</ele>
<time>2024-05-09T10:58:30Z</time>
</trkpt>
<trkpt lat="49.61983487941325" lon="9.32905286550522">
<ele>409</ele>
<time>2024-05-09T10:58:31Z</time>
</trkpt>
<trkpt lat="49.61990729905665" lon="9.329021433368323">
<ele>408.2</ele>
<time>2024-05-09T10:58:32Z</time>
</trkpt>
<trkpt lat="49.61999128572643" lon="9.32899276725948">
<ele>407.4</ele>
<time>2024-05-09T10:58:33Z</time>
</trkpt>
<trkpt lat="49.6200789604336" lon="9.328958485275509">
<ele>406.6</ele>
<time>2024-05-09T10:58:34Z</time>
</trkpt>
<trkpt lat="49.62015909142792" lon="9.328925125300884">
<ele>405.8</ele>
<time>2024-05-09T10:58:35Z</time>
</trkpt>
<trkpt lat="49.62024299427867" lon="9.32889360934496">
<ele>405</ele>
<time>2024-05-09T10:58:36Z</time>
</trkpt>
<trkpt lat="49.62032312527299" lon="9.32885454967618">
<ele>404.2</ele>
<time>2024-05-09T10:58:37Z</time>
</trkpt>
<trkpt lat="49.62040325626731" lon="9.32881641201675">
<ele>403.6</ele>
<time>2024-05-09T10:58:38Z</time>
</trkpt>
<trkpt lat="49.620487159118056" lon="9.328780118376017">
<ele>402.6</ele>
<time>2024-05-09T10:58:39Z</time>
</trkpt>
<trkpt lat="49.62058254517615" lon="9.328740052878857">
<ele>401.6</ele>
<time>2024-05-09T10:58:40Z</time>
</trkpt>
<trkpt lat="49.620666448026896" lon="9.328702921047809">
<ele>400.8</ele>
<time>2024-05-09T10:58:41Z</time>
</trkpt>
<trkpt lat="49.62075797840953" lon="9.328661849722266">
<ele>400</ele>
<time>2024-05-09T10:58:42Z</time>
</trkpt>
<trkpt lat="49.620845736935735" lon="9.32861709035933">
<ele>399</ele>
<time>2024-05-09T10:58:43Z</time>
</trkpt>
<trkpt lat="49.62093349546194" lon="9.328571241348982">
<ele>398.2</ele>
<time>2024-05-09T10:58:44Z</time>
</trkpt>
<trkpt lat="49.62102125398815" lon="9.328521704301238">
<ele>397.4</ele>
<time>2024-05-09T10:58:45Z</time>
</trkpt>
<trkpt lat="49.621105156838894" lon="9.32847493328154">
<ele>396.6</ele>
<time>2024-05-09T10:58:46Z</time>
</trkpt>
<trkpt lat="49.6211929153651" lon="9.328439645469189">
<ele>396</ele>
<time>2024-05-09T10:58:47Z</time>
</trkpt>
<trkpt lat="49.62128821760416" lon="9.328383402898908">
<ele>395.2</ele>
<time>2024-05-09T10:58:48Z</time>
</trkpt>
<trkpt lat="49.621375976130366" lon="9.328332860022783">
<ele>394.4</ele>
<time>2024-05-09T10:58:49Z</time>
</trkpt>
<trkpt lat="49.62146759033203" lon="9.3282784614712">
<ele>393.6</ele>
<time>2024-05-09T10:58:50Z</time>
</trkpt>
<trkpt lat="49.621555265039206" lon="9.3282232247293">
<ele>393</ele>
<time>2024-05-09T10:58:51Z</time>
</trkpt>
<trkpt lat="49.62164302356541" lon="9.328173603862524">
<ele>392.2</ele>
<time>2024-05-09T10:58:52Z</time>
</trkpt>
<trkpt lat="49.62172315455973" lon="9.328118283301592">
<ele>391.4</ele>
<time>2024-05-09T10:58:53Z</time>
</trkpt>
<trkpt lat="49.62180320173502" lon="9.32806296274066">
<ele>390.8</ele>
<time>2024-05-09T10:58:54Z</time>
</trkpt>
<trkpt lat="49.6218871884048" lon="9.328013341873884">
<ele>390.2</ele>
<time>2024-05-09T10:58:55Z</time>
</trkpt>
<trkpt lat="49.62196346372366" lon="9.327971432358028">
<ele>389.6</ele>
<time>2024-05-09T10:58:56Z</time>
</trkpt>
<trkpt lat="49.62204359471798" lon="9.327919883653522">
<ele>389</ele>
<time>2024-05-09T10:58:57Z</time>
</trkpt>
<trkpt lat="49.62212364189327" lon="9.327876968309283">
<ele>388.6</ele>
<time>2024-05-09T10:58:58Z</time>
</trkpt>
<trkpt lat="49.62220377288759" lon="9.327830281108618">
<ele>388</ele>
<time>2024-05-09T10:58:59Z</time>
</trkpt>
<trkpt lat="49.62228004820645" lon="9.327781666070225">
<ele>387.4</ele>
<time>2024-05-09T10:59:00Z</time>
</trkpt>
<trkpt lat="49.62236017920077" lon="9.327732045203447">
<ele>386.8</ele>
<time>2024-05-09T10:59:01Z</time>
</trkpt>
<trkpt lat="49.6224326826632" lon="9.327681502327325">
<ele>386.2</ele>
<time>2024-05-09T10:59:02Z</time>
</trkpt>
<trkpt lat="49.62250518612563" lon="9.327631881460547">
<ele>385.6</ele>
<time>2024-05-09T10:59:03Z</time>
</trkpt>
<trkpt lat="49.62257760576904" lon="9.327583266422153">
<ele>385</ele>
<time>2024-05-09T10:59:04Z</time>
</trkpt>
<trkpt lat="49.62265010923147" lon="9.32752987369895">
<ele>384.2</ele>
<time>2024-05-09T10:59:05Z</time>
</trkpt>
<trkpt lat="49.62271498516202" lon="9.327481258660557">
<ele>383.6</ele>
<time>2024-05-09T10:59:06Z</time>
</trkpt>
<trkpt lat="49.622779777273536" lon="9.327440187335014">
<ele>383</ele>
<time>2024-05-09T10:59:07Z</time>
</trkpt>
<trkpt lat="49.62284850887954" lon="9.327402049675584">
<ele>382.6</ele>
<time>2024-05-09T10:59:08Z</time>
</trkpt>
<trkpt lat="49.62290952913463" lon="9.327362990006804">
<ele>382.2</ele>
<time>2024-05-09T10:59:09Z</time>
</trkpt>
<trkpt lat="49.62297054938972" lon="9.327326696366072">
<ele>381.8</ele>
<time>2024-05-09T10:59:10Z</time>
</trkpt>
<trkpt lat="49.62302779778838" lon="9.327293336391447">
<ele>381.4</ele>
<time>2024-05-09T10:59:11Z</time>
</trkpt>
<trkpt lat="49.62308496236801" lon="9.327258048579097">
<ele>381.2</ele>
<time>2024-05-09T10:59:12Z</time>
</trkpt>
<trkpt lat="49.623138355091214" lon="9.327228544279931">
<ele>380.8</ele>
<time>2024-05-09T10:59:13Z</time>
</trkpt>
<trkpt lat="49.62318797595799" lon="9.327197950333357">
<ele>380.6</ele>
<time>2024-05-09T10:59:14Z</time>
</trkpt>
<trkpt lat="49.623237596824765" lon="9.32717029005289">
<ele>380.6</ele>
<time>2024-05-09T10:59:15Z</time>
</trkpt>
<trkpt lat="49.62328336201608" lon="9.327139779925346">
<ele>380.4</ele>
<time>2024-05-09T10:59:16Z</time>
</trkpt>
<trkpt lat="49.623332899063826" lon="9.32711312547326">
<ele>380.2</ele>
<time>2024-05-09T10:59:17Z</time>
</trkpt>
<trkpt lat="49.623378748074174" lon="9.327088315039871">
<ele>380.2</ele>
<time>2024-05-09T10:59:18Z</time>
</trkpt>
<trkpt lat="49.62342451326549" lon="9.327063504606484">
<ele>380</ele>
<time>2024-05-09T10:59:19Z</time>
</trkpt>
<trkpt lat="49.62347027845681" lon="9.327043471857904">
<ele>380</ele>
<time>2024-05-09T10:59:20Z</time>
</trkpt>
<trkpt lat="49.623512187972665" lon="9.327021595090628">
<ele>380</ele>
<time>2024-05-09T10:59:21Z</time>
</trkpt>
<trkpt lat="49.62355803698301" lon="9.327001562342048">
<ele>380.2</ele>
<time>2024-05-09T10:59:22Z</time>
</trkpt>
<trkpt lat="49.62359994649887" lon="9.326981529593468">
<ele>380.2</ele>
<time>2024-05-09T10:59:23Z</time>
</trkpt>
<trkpt lat="49.62364571169019" lon="9.326963424682615">
<ele>380.4</ele>
<time>2024-05-09T10:59:24Z</time>
</trkpt>
<trkpt lat="49.62373347021639" lon="9.326929980888965">
<ele>380.4</ele>
<time>2024-05-09T10:59:26Z</time>
</trkpt>
<trkpt lat="49.62377546355128" lon="9.32691279798746">
<ele>380.6</ele>
<time>2024-05-09T10:59:27Z</time>
</trkpt>
<trkpt lat="49.6238212287426" lon="9.32689854875207">
<ele>380.6</ele>
<time>2024-05-09T10:59:28Z</time>
</trkpt>
<trkpt lat="49.62386313825846" lon="9.326881365850568">
<ele>380.8</ele>
<time>2024-05-09T10:59:29Z</time>
</trkpt>
<trkpt lat="49.62390135973692" lon="9.326867032796144">
<ele>381</ele>
<time>2024-05-09T10:59:30Z</time>
</trkpt>
<trkpt lat="49.62393564172089" lon="9.326848005875943">
<ele>381</ele>
<time>2024-05-09T10:59:31Z</time>
</trkpt>
<trkpt lat="49.623970007523894" lon="9.326833672821522">
<ele>381.2</ele>
<time>2024-05-09T10:59:32Z</time>
</trkpt>
<trkpt lat="49.624004289507866" lon="9.326827973127363">
<ele>381.4</ele>
<time>2024-05-09T10:59:33Z</time>
</trkpt>
<trkpt lat="49.62403865531087" lon="9.32682034559548">
<ele>381.6</ele>
<time>2024-05-09T10:59:34Z</time>
</trkpt>
<trkpt lat="49.6240767929703" lon="9.326813640072942">
<ele>381.6</ele>
<time>2024-05-09T10:59:35Z</time>
</trkpt>
<trkpt lat="49.62411493062973" lon="9.326803162693976">
<ele>381.6</ele>
<time>2024-05-09T10:59:36Z</time>
</trkpt>
<trkpt lat="49.62415692396462" lon="9.326791763305664">
<ele>381.6</ele>
<time>2024-05-09T10:59:37Z</time>
</trkpt>
<trkpt lat="49.62419883348048" lon="9.326785057783129">
<ele>381.8</ele>
<time>2024-05-09T10:59:38Z</time>
</trkpt>
<trkpt lat="49.62424082681537" lon="9.326774580404162">
<ele>381.8</ele>
<time>2024-05-09T10:59:39Z</time>
</trkpt>
<trkpt lat="49.624282820150256" lon="9.326763097196816">
<ele>381.8</ele>
<time>2024-05-09T10:59:40Z</time>
</trkpt>
<trkpt lat="49.624324729666114" lon="9.326756475493312">
<ele>382</ele>
<time>2024-05-09T10:59:41Z</time>
</trkpt>
<trkpt lat="49.624366723001" lon="9.326751697808504">
<ele>382</ele>
<time>2024-05-09T10:59:42Z</time>
</trkpt>
<trkpt lat="49.624404860660434" lon="9.326744992285969">
<ele>382</ele>
<time>2024-05-09T10:59:43Z</time>
</trkpt>
<trkpt lat="49.62444685399532" lon="9.32673828676343">
<ele>382.2</ele>
<time>2024-05-09T10:59:44Z</time>
</trkpt>
<trkpt lat="49.62448876351118" lon="9.326736442744732">
<ele>382.2</ele>
<time>2024-05-09T10:59:45Z</time>
</trkpt>
<trkpt lat="49.6245345287025" lon="9.326731665059924">
<ele>382.4</ele>
<time>2024-05-09T10:59:46Z</time>
</trkpt>
<trkpt lat="49.62457652203739" lon="9.326729737222196">
<ele>382.4</ele>
<time>2024-05-09T10:59:47Z</time>
</trkpt>
<trkpt lat="49.62461851537227" lon="9.326726887375116">
<ele>382.6</ele>
<time>2024-05-09T10:59:48Z</time>
</trkpt>
<trkpt lat="49.62466428056359" lon="9.326724959537389">
<ele>382.6</ele>
<time>2024-05-09T10:59:49Z</time>
</trkpt>
<trkpt lat="49.62471004575491" lon="9.32672018185258">
<ele>382.8</ele>
<time>2024-05-09T10:59:50Z</time>
</trkpt>
<trkpt lat="49.62474818341434" lon="9.326713560149074">
<ele>382.8</ele>
<time>2024-05-09T10:59:51Z</time>
</trkpt>
<trkpt lat="49.62479017674923" lon="9.326708782464266">
<ele>382.8</ele>
<time>2024-05-09T10:59:52Z</time>
</trkpt>
<trkpt lat="49.62483208626509" lon="9.326702998951076">
<ele>382.8</ele>
<time>2024-05-09T10:59:53Z</time>
</trkpt>
<trkpt lat="49.62487022392452" lon="9.326708782464266">
<ele>383</ele>
<time>2024-05-09T10:59:54Z</time>
</trkpt>
<trkpt lat="49.62491221725941" lon="9.326704926788809">
<ele>383</ele>
<time>2024-05-09T10:59:55Z</time>
</trkpt>
<trkpt lat="49.6249542105943" lon="9.326706854626536">
<ele>383</ele>
<time>2024-05-09T10:59:56Z</time>
</trkpt>
<trkpt lat="49.62499234825373" lon="9.326708782464266">
<ele>383</ele>
<time>2024-05-09T10:59:57Z</time>
</trkpt>
<trkpt lat="49.625034257769585" lon="9.326711632311344">
<ele>383</ele>
<time>2024-05-09T10:59:58Z</time>
</trkpt>
<trkpt lat="49.62506862357259" lon="9.326715404167771">
<ele>383</ele>
<time>2024-05-09T10:59:59Z</time>
</trkpt>
<trkpt lat="49.62511061690748" lon="9.326715404167771">
<ele>383</ele>
<time>2024-05-09T11:00:00Z</time>
</trkpt>
<trkpt lat="49.62514875456691" lon="9.326715404167771">
<ele>383</ele>
<time>2024-05-09T11:00:01Z</time>
</trkpt>
<trkpt lat="49.62518689222634" lon="9.326715404167771">
<ele>383</ele>
<time>2024-05-09T11:00:02Z</time>
</trkpt>
<trkpt lat="49.62522880174219" lon="9.32671825401485">
<ele>383</ele>
<time>2024-05-09T11:00:03Z</time>
</trkpt>
<trkpt lat="49.62526702322066" lon="9.32672118768096">
<ele>383</ele>
<time>2024-05-09T11:00:04Z</time>
</trkpt>
<trkpt lat="49.62530893273651" lon="9.326726887375116">
<ele>383</ele>
<time>2024-05-09T11:00:05Z</time>
</trkpt>
<trkpt lat="49.625350926071405" lon="9.326729737222196">
<ele>383</ele>
<time>2024-05-09T11:00:06Z</time>
</trkpt>
<trkpt lat="49.62539283558726" lon="9.326736442744732">
<ele>383</ele>
<time>2024-05-09T11:00:07Z</time>
</trkpt>
<trkpt lat="49.62543482892215" lon="9.326741136610508">
<ele>383</ele>
<time>2024-05-09T11:00:08Z</time>
</trkpt>
<trkpt lat="49.62548059411347" lon="9.326746920123696">
<ele>383</ele>
<time>2024-05-09T11:00:09Z</time>
</trkpt>
<trkpt lat="49.625526359304786" lon="9.326747842133043">
<ele>383</ele>
<time>2024-05-09T11:00:10Z</time>
</trkpt>
<trkpt lat="49.6255721244961" lon="9.326751697808504">
<ele>383</ele>
<time>2024-05-09T11:00:11Z</time>
</trkpt>
<trkpt lat="49.62561797350645" lon="9.326756475493312">
<ele>383</ele>
<time>2024-05-09T11:00:12Z</time>
</trkpt>
<trkpt lat="49.625667510554194" lon="9.32675831951201">
<ele>383</ele>
<time>2024-05-09T11:00:13Z</time>
</trkpt>
<trkpt lat="49.62571327574551" lon="9.32675831951201">
<ele>383</ele>
<time>2024-05-09T11:00:14Z</time>
</trkpt>
<trkpt lat="49.62576289661229" lon="9.32675831951201">
<ele>383</ele>
<time>2024-05-09T11:00:15Z</time>
</trkpt>
<trkpt lat="49.6258086618036" lon="9.326756475493312">
<ele>383</ele>
<time>2024-05-09T11:00:16Z</time>
</trkpt>
<trkpt lat="49.62585828267038" lon="9.326753541827202">
<ele>383</ele>
<time>2024-05-09T11:00:17Z</time>
</trkpt>
<trkpt lat="49.62590781971812" lon="9.326749769970776">
<ele>383</ele>
<time>2024-05-09T11:00:18Z</time>
</trkpt>
<trkpt lat="49.6259574405849" lon="9.326749769970776">
<ele>382.8</ele>
<time>2024-05-09T11:00:19Z</time>
</trkpt>
<trkpt lat="49.62600706145167" lon="9.326743064448236">
<ele>382.8</ele>
<time>2024-05-09T11:00:20Z</time>
</trkpt>
<trkpt lat="49.62605659849942" lon="9.32673828676343">
<ele>382.6</ele>
<time>2024-05-09T11:00:21Z</time>
</trkpt>
<trkpt lat="49.62610621936619" lon="9.326726887375116">
<ele>382.6</ele>
<time>2024-05-09T11:00:22Z</time>
</trkpt>
<trkpt lat="49.62615584023297" lon="9.326715404167771">
<ele>382.4</ele>
<time>2024-05-09T11:00:23Z</time>
</trkpt>
<trkpt lat="49.626201605424285" lon="9.326702998951076">
<ele>382.4</ele>
<time>2024-05-09T11:00:24Z</time>
</trkpt>
<trkpt lat="49.62625114247203" lon="9.326686821877956">
<ele>382.2</ele>
<time>2024-05-09T11:00:25Z</time>
</trkpt>
<trkpt lat="49.62629699148238" lon="9.326671566814184">
<ele>382.2</ele>
<time>2024-05-09T11:00:26Z</time>
</trkpt>
<trkpt lat="49.62634652853012" lon="9.326656311750412">
<ele>382</ele>
<time>2024-05-09T11:00:27Z</time>
</trkpt>
<trkpt lat="49.626396149396896" lon="9.326641978695989">
<ele>382</ele>
<time>2024-05-09T11:00:28Z</time>
</trkpt>
<trkpt lat="49.62644577026367" lon="9.32662295177579">
<ele>381.8</ele>
<time>2024-05-09T11:00:29Z</time>
</trkpt>
<trkpt lat="49.62649153545499" lon="9.32660291902721">
<ele>381.6</ele>
<time>2024-05-09T11:00:30Z</time>
</trkpt>
<trkpt lat="49.62654492817819" lon="9.32658481411636">
<ele>381.6</ele>
<time>2024-05-09T11:00:31Z</time>
</trkpt>
<trkpt lat="49.626594465225935" lon="9.32656285353005">
<ele>381.4</ele>
<time>2024-05-09T11:00:32Z</time>
</trkpt>
<trkpt lat="49.62664031423628" lon="9.326538043096662">
<ele>381.4</ele>
<time>2024-05-09T11:00:33Z</time>
</trkpt>
<trkpt lat="49.62668985128403" lon="9.326510382816195">
<ele>381.4</ele>
<time>2024-05-09T11:00:34Z</time>
</trkpt>
<trkpt lat="49.6267394721508" lon="9.326483644545078">
<ele>381.4</ele>
<time>2024-05-09T11:00:35Z</time>
</trkpt>
<trkpt lat="49.62678909301758" lon="9.326453134417534">
<ele>381.6</ele>
<time>2024-05-09T11:00:36Z</time>
</trkpt>
<trkpt lat="49.62683863006532" lon="9.32642363011837">
<ele>381.6</ele>
<time>2024-05-09T11:00:37Z</time>
</trkpt>
<trkpt lat="49.62688439525664" lon="9.326391192153096">
<ele>381.6</ele>
<time>2024-05-09T11:00:38Z</time>
</trkpt>
<trkpt lat="49.626930160447955" lon="9.326358754187822">
<ele>381.6</ele>
<time>2024-05-09T11:00:39Z</time>
</trkpt>
<trkpt lat="49.62697978131473" lon="9.326328244060278">
<ele>381.6</ele>
<time>2024-05-09T11:00:40Z</time>
</trkpt>
<trkpt lat="49.62702554650605" lon="9.326298655942082">
<ele>381.8</ele>
<time>2024-05-09T11:00:41Z</time>
</trkpt>
<trkpt lat="49.62707131169736" lon="9.326266217976809">
<ele>381.8</ele>
<time>2024-05-09T11:00:42Z</time>
</trkpt>
<trkpt lat="49.62711707688868" lon="9.326232858002186">
<ele>381.8</ele>
<time>2024-05-09T11:00:43Z</time>
</trkpt>
<trkpt lat="49.62716292589903" lon="9.326198576018214">
<ele>381.8</ele>
<time>2024-05-09T11:00:44Z</time>
</trkpt>
<trkpt lat="49.62720483541489" lon="9.326167982071638">
<ele>381.8</ele>
<time>2024-05-09T11:00:45Z</time>
</trkpt>
<trkpt lat="49.6272506006062" lon="9.326134622097015">
<ele>381.8</ele>
<time>2024-05-09T11:00:46Z</time>
</trkpt>
<trkpt lat="49.62729636579752" lon="9.326101262122393">
<ele>381.8</ele>
<time>2024-05-09T11:00:47Z</time>
</trkpt>
<trkpt lat="49.62733835913241" lon="9.32606689631939">
<ele>381.8</ele>
<time>2024-05-09T11:00:48Z</time>
</trkpt>
<trkpt lat="49.627384124323726" lon="9.326031608507035">
<ele>381.8</ele>
<time>2024-05-09T11:00:49Z</time>
</trkpt>
<trkpt lat="49.62742988951504" lon="9.325998248532414">
<ele>381.8</ele>
<time>2024-05-09T11:00:50Z</time>
</trkpt>
<trkpt lat="49.62747573852539" lon="9.325962960720062">
<ele>381.8</ele>
<time>2024-05-09T11:00:51Z</time>
</trkpt>
<trkpt lat="49.62752150371671" lon="9.32592867873609">
<ele>381.8</ele>
<time>2024-05-09T11:00:52Z</time>
</trkpt>
<trkpt lat="49.627567268908024" lon="9.325893390923738">
<ele>381.8</ele>
<time>2024-05-09T11:00:53Z</time>
</trkpt>
<trkpt lat="49.62761680595577" lon="9.325858103111386">
<ele>381.8</ele>
<time>2024-05-09T11:00:54Z</time>
</trkpt>
<trkpt lat="49.62766265496611" lon="9.325823737308385">
<ele>381.8</ele>
<time>2024-05-09T11:00:55Z</time>
</trkpt>
<trkpt lat="49.62771219201386" lon="9.32579037733376">
<ele>382</ele>
<time>2024-05-09T11:00:56Z</time>
</trkpt>
<trkpt lat="49.627761812880635" lon="9.325757017359138">
<ele>382</ele>
<time>2024-05-09T11:00:57Z</time>
</trkpt>
<trkpt lat="49.62780757807195" lon="9.325723573565485">
<ele>382.2</ele>
<time>2024-05-09T11:00:58Z</time>
</trkpt>
<trkpt lat="49.62785334326327" lon="9.325688285753133">
<ele>382.4</ele>
<time>2024-05-09T11:00:59Z</time>
</trkpt>
<trkpt lat="49.627899108454585" lon="9.32565299794078">
<ele>382.4</ele>
<time>2024-05-09T11:01:00Z</time>
</trkpt>
<trkpt lat="49.6279448736459" lon="9.325618715956807">
<ele>382.6</ele>
<time>2024-05-09T11:01:01Z</time>
</trkpt>
<trkpt lat="49.62799072265625" lon="9.325583428144457">
<ele>382.6</ele>
<time>2024-05-09T11:01:02Z</time>
</trkpt>
<trkpt lat="49.62803648784757" lon="9.325546212494372">
<ele>382.8</ele>
<time>2024-05-09T11:01:03Z</time>
</trkpt>
<trkpt lat="49.62808602489531" lon="9.32551285251975">
<ele>382.8</ele>
<time>2024-05-09T11:01:04Z</time>
</trkpt>
<trkpt lat="49.62813179008663" lon="9.325480414554477">
<ele>383</ele>
<time>2024-05-09T11:01:05Z</time>
</trkpt>
<trkpt lat="49.6281814109534" lon="9.325447976589205">
<ele>383</ele>
<time>2024-05-09T11:01:06Z</time>
</trkpt>
<trkpt lat="49.62822717614472" lon="9.325411766767502">
<ele>383</ele>
<time>2024-05-09T11:01:07Z</time>
</trkpt>
<trkpt lat="49.62827294133603" lon="9.32537647895515">
<ele>383.2</ele>
<time>2024-05-09T11:01:08Z</time>
</trkpt>
<trkpt lat="49.628314934670925" lon="9.325341191142796">
<ele>383.4</ele>
<time>2024-05-09T11:01:09Z</time>
</trkpt>
<trkpt lat="49.62836069986224" lon="9.325309675186872">
<ele>383.6</ele>
<time>2024-05-09T11:01:10Z</time>
</trkpt>
<trkpt lat="49.62840646505356" lon="9.32527824304998">
<ele>383.6</ele>
<time>2024-05-09T11:01:11Z</time>
</trkpt>
<trkpt lat="49.628452230244875" lon="9.325246810913086">
<ele>383.8</ele>
<time>2024-05-09T11:01:12Z</time>
</trkpt>
<trkpt lat="49.62849422357976" lon="9.32521529495716">
<ele>384</ele>
<time>2024-05-09T11:01:13Z</time>
</trkpt>
<trkpt lat="49.62853998877108" lon="9.325180007144809">
<ele>384.2</ele>
<time>2024-05-09T11:01:14Z</time>
</trkpt>
<trkpt lat="49.62858198210597" lon="9.325148575007915">
<ele>384.4</ele>
<time>2024-05-09T11:01:15Z</time>
</trkpt>
<trkpt lat="49.62862774729729" lon="9.325119908899069">
<ele>384.4</ele>
<time>2024-05-09T11:01:16Z</time>
</trkpt>
<trkpt lat="49.628669656813145" lon="9.325091326609254">
<ele>384.6</ele>
<time>2024-05-09T11:01:17Z</time>
</trkpt>
<trkpt lat="49.62871550582349" lon="9.325061738491058">
<ele>384.6</ele>
<time>2024-05-09T11:01:18Z</time>
</trkpt>
<trkpt lat="49.62875741533935" lon="9.325028378516436">
<ele>384.6</ele>
<time>2024-05-09T11:01:19Z</time>
</trkpt>
<trkpt lat="49.62880318053067" lon="9.324993090704083">
<ele>384.6</ele>
<time>2024-05-09T11:01:20Z</time>
</trkpt>
<trkpt lat="49.628849029541016" lon="9.32495973072946">
<ele>384.8</ele>
<time>2024-05-09T11:01:21Z</time>
</trkpt>
<trkpt lat="49.62889479473233" lon="9.324928214773536">
<ele>384.8</ele>
<time>2024-05-09T11:01:22Z</time>
</trkpt>
<trkpt lat="49.62893670424819" lon="9.324894854798911">
<ele>384.8</ele>
<time>2024-05-09T11:01:23Z</time>
</trkpt>
<trkpt lat="49.62898246943951" lon="9.32486149482429">
<ele>384.8</ele>
<time>2024-05-09T11:01:24Z</time>
</trkpt>
<trkpt lat="49.629028318449855" lon="9.324826207011938">
<ele>384.8</ele>
<time>2024-05-09T11:01:25Z</time>
</trkpt>
<trkpt lat="49.6290778554976" lon="9.324792847037315">
<ele>384.8</ele>
<time>2024-05-09T11:01:26Z</time>
</trkpt>
<trkpt lat="49.62911984883249" lon="9.32476133108139">
<ele>384.8</ele>
<time>2024-05-09T11:01:27Z</time>
</trkpt>
<trkpt lat="49.629165614023805" lon="9.324727971106768">
<ele>385</ele>
<time>2024-05-09T11:01:28Z</time>
</trkpt>
<trkpt lat="49.62921137921512" lon="9.324696538969874">
<ele>385</ele>
<time>2024-05-09T11:01:29Z</time>
</trkpt>
<trkpt lat="49.62925714440644" lon="9.32466309517622">
<ele>385</ele>
<time>2024-05-09T11:01:30Z</time>
</trkpt>
<trkpt lat="49.62930676527321" lon="9.324629735201595">
<ele>385</ele>
<time>2024-05-09T11:01:31Z</time>
</trkpt>
<trkpt lat="49.62934867478907" lon="9.324596375226974">
<ele>385</ele>
<time>2024-05-09T11:01:32Z</time>
</trkpt>
<trkpt lat="49.62939452379942" lon="9.32456485927105">
<ele>385.2</ele>
<time>2024-05-09T11:01:33Z</time>
</trkpt>
<trkpt lat="49.629440288990736" lon="9.324529571458696">
<ele>385.2</ele>
<time>2024-05-09T11:01:34Z</time>
</trkpt>
<trkpt lat="49.62948605418205" lon="9.324495289474726">
<ele>385.2</ele>
<time>2024-05-09T11:01:35Z</time>
</trkpt>
<trkpt lat="49.62953181937337" lon="9.324460001662374">
<ele>385.4</ele>
<time>2024-05-09T11:01:36Z</time>
</trkpt>
<trkpt lat="49.62957381270826" lon="9.32442471385002">
<ele>385.4</ele>
<time>2024-05-09T11:01:37Z</time>
</trkpt>
<trkpt lat="49.62961572222411" lon="9.3243913538754">
<ele>385.4</ele>
<time>2024-05-09T11:01:38Z</time>
</trkpt>
<trkpt lat="49.62966148741543" lon="9.324355060234666">
<ele>385.6</ele>
<time>2024-05-09T11:01:39Z</time>
</trkpt>
<trkpt lat="49.62970348075032" lon="9.324316922575235">
<ele>385.6</ele>
<time>2024-05-09T11:01:40Z</time>
</trkpt>
<trkpt lat="49.62974547408521" lon="9.324276857078075">
<ele>385.6</ele>
<time>2024-05-09T11:01:41Z</time>
</trkpt>
<trkpt lat="49.62978738360107" lon="9.324236791580915">
<ele>385.6</ele>
<time>2024-05-09T11:01:42Z</time>
</trkpt>
<trkpt lat="49.62982937693596" lon="9.324194882065058">
<ele>385.6</ele>
<time>2024-05-09T11:01:43Z</time>
</trkpt>
<trkpt lat="49.62987128645182" lon="9.32415196672082">
<ele>385.6</ele>
<time>2024-05-09T11:01:44Z</time>
</trkpt>
<trkpt lat="49.629913279786706" lon="9.3241080455482">
<ele>385.6</ele>
<time>2024-05-09T11:01:45Z</time>
</trkpt>
<trkpt lat="49.62995141744614" lon="9.324065130203962">
<ele>385.6</ele>
<time>2024-05-09T11:01:46Z</time>
</trkpt>
<trkpt lat="49.62998955510557" lon="9.324023220688105">
<ele>385.6</ele>
<time>2024-05-09T11:01:47Z</time>
</trkpt>
<trkpt lat="49.630027692765" lon="9.323981227353215">
<ele>385.8</ele>
<time>2024-05-09T11:01:48Z</time>
</trkpt>
<trkpt lat="49.630058286711574" lon="9.323940239846706">
<ele>385.8</ele>
<time>2024-05-09T11:01:49Z</time>
</trkpt>
<trkpt lat="49.63009642437101" lon="9.323898246511815">
<ele>386</ele>
<time>2024-05-09T11:01:50Z</time>
</trkpt>
<trkpt lat="49.630130706354976" lon="9.32385348714888">
<ele>386</ele>
<time>2024-05-09T11:01:51Z</time>
</trkpt>
<trkpt lat="49.63016507215798" lon="9.323809565976262">
<ele>386.2</ele>
<time>2024-05-09T11:01:52Z</time>
</trkpt>
<trkpt lat="49.63019935414195" lon="9.323764722794294">
<ele>386.2</ele>
<time>2024-05-09T11:01:53Z</time>
</trkpt>
<trkpt lat="49.630233719944954" lon="9.323721807450056">
<ele>386.4</ele>
<time>2024-05-09T11:01:54Z</time>
</trkpt>
<trkpt lat="49.630271857604384" lon="9.323677970096467">
<ele>386.4</ele>
<time>2024-05-09T11:01:55Z</time>
</trkpt>
<trkpt lat="49.63030622340739" lon="9.32363698258996">
<ele>386.4</ele>
<time>2024-05-09T11:01:56Z</time>
</trkpt>
<trkpt lat="49.63033673353493" lon="9.3235969170928">
<ele>386.4</ele>
<time>2024-05-09T11:01:57Z</time>
</trkpt>
<trkpt lat="49.63037487119436" lon="9.323553079739211">
<ele>386.6</ele>
<time>2024-05-09T11:01:58Z</time>
</trkpt>
<trkpt lat="49.630409236997366" lon="9.323510164394976">
<ele>386.6</ele>
<time>2024-05-09T11:01:59Z</time>
</trkpt>
<trkpt lat="49.6304473746568" lon="9.323466243222356">
<ele>386.6</ele>
<time>2024-05-09T11:02:00Z</time>
</trkpt>
<trkpt lat="49.63048165664077" lon="9.323425255715849">
<ele>386.6</ele>
<time>2024-05-09T11:02:01Z</time>
</trkpt>
<trkpt lat="49.6305197943002" lon="9.323383262380958">
<ele>386.6</ele>
<time>2024-05-09T11:02:02Z</time>
</trkpt>
<trkpt lat="49.63055793195963" lon="9.323343196883798">
<ele>386.6</ele>
<time>2024-05-09T11:02:03Z</time>
</trkpt>
<trkpt lat="49.63059615343809" lon="9.32330128736794">
<ele>386.6</ele>
<time>2024-05-09T11:02:04Z</time>
</trkpt>
<trkpt lat="49.63063043542206" lon="9.323258372023702">
<ele>386.8</ele>
<time>2024-05-09T11:02:05Z</time>
</trkpt>
<trkpt lat="49.630664801225066" lon="9.323215456679463">
<ele>386.8</ele>
<time>2024-05-09T11:02:06Z</time>
</trkpt>
<trkpt lat="49.6307029388845" lon="9.323169691488149">
<ele>386.8</ele>
<time>2024-05-09T11:02:07Z</time>
</trkpt>
<trkpt lat="49.63074107654393" lon="9.323126776143909">
<ele>386.8</ele>
<time>2024-05-09T11:02:08Z</time>
</trkpt>
<trkpt lat="49.63077921420336" lon="9.32308285497129">
<ele>386.8</ele>
<time>2024-05-09T11:02:09Z</time>
</trkpt>
<trkpt lat="49.63081735186279" lon="9.32304379530251">
<ele>386.8</ele>
<time>2024-05-09T11:02:10Z</time>
</trkpt>
<trkpt lat="49.63085548952222" lon="9.322999874129891">
<ele>387</ele>
<time>2024-05-09T11:02:11Z</time>
</trkpt>
<trkpt lat="49.63088985532522" lon="9.322955114766955">
<ele>387</ele>
<time>2024-05-09T11:02:12Z</time>
</trkpt>
<trkpt lat="49.63092799298465" lon="9.322910271584988">
<ele>387.2</ele>
<time>2024-05-09T11:02:13Z</time>
</trkpt>
<trkpt lat="49.63096613064408" lon="9.322868278250098">
<ele>387.2</ele>
<time>2024-05-09T11:02:14Z</time>
</trkpt>
<trkpt lat="49.631000496447086" lon="9.322828212752938">
<ele>387.2</ele>
<time>2024-05-09T11:02:15Z</time>
</trkpt>
<trkpt lat="49.631042405962944" lon="9.32278630323708">
<ele>387.4</ele>
<time>2024-05-09T11:02:16Z</time>
</trkpt>
<trkpt lat="49.63107677176595" lon="9.322745315730572">
<ele>387.4</ele>
<time>2024-05-09T11:02:17Z</time>
</trkpt>
<trkpt lat="49.63111490942538" lon="9.322703322395682">
<ele>387.4</ele>
<time>2024-05-09T11:02:18Z</time>
</trkpt>
<trkpt lat="49.63115304708481" lon="9.322661329060791">
<ele>387.4</ele>
<time>2024-05-09T11:02:19Z</time>
</trkpt>
<trkpt lat="49.63118741288781" lon="9.322620341554284">
<ele>387.4</ele>
<time>2024-05-09T11:02:20Z</time>
</trkpt>
<trkpt lat="49.63122555054724" lon="9.322580276057124">
<ele>387.4</ele>
<time>2024-05-09T11:02:21Z</time>
</trkpt>
<trkpt lat="49.63126368820667" lon="9.322538366541266">
<ele>387.4</ele>
<time>2024-05-09T11:02:22Z</time>
</trkpt>
<trkpt lat="49.6313018258661" lon="9.322495451197028">
<ele>387.6</ele>
<time>2024-05-09T11:02:23Z</time>
</trkpt>
<trkpt lat="49.631339963525534" lon="9.32245153002441">
<ele>387.6</ele>
<time>2024-05-09T11:02:24Z</time>
</trkpt>
<trkpt lat="49.63137432932854" lon="9.322409620508552">
<ele>387.6</ele>
<time>2024-05-09T11:02:25Z</time>
</trkpt>
<trkpt lat="49.63141246698797" lon="9.322368549183013">
<ele>387.6</ele>
<time>2024-05-09T11:02:26Z</time>
</trkpt>
<trkpt lat="49.6314506046474" lon="9.322326639667152">
<ele>387.6</ele>
<time>2024-05-09T11:02:27Z</time>
</trkpt>
<trkpt lat="49.63148874230683" lon="9.322283724322917">
<ele>387.6</ele>
<time>2024-05-09T11:02:28Z</time>
</trkpt>
<trkpt lat="49.63152687996626" lon="9.322239803150296">
<ele>387.8</ele>
<time>2024-05-09T11:02:29Z</time>
</trkpt>
<trkpt lat="49.63156501762569" lon="9.32219504378736">
<ele>387.8</ele>
<time>2024-05-09T11:02:30Z</time>
</trkpt>
<trkpt lat="49.63160323910415" lon="9.32215112261474">
<ele>387.8</ele>
<time>2024-05-09T11:02:31Z</time>
</trkpt>
<trkpt lat="49.63164514862001" lon="9.322108207270505">
<ele>388</ele>
<time>2024-05-09T11:02:32Z</time>
</trkpt>
<trkpt lat="49.63167951442301" lon="9.322066297754644">
<ele>388</ele>
<time>2024-05-09T11:02:33Z</time>
</trkpt>
<trkpt lat="49.63171765208244" lon="9.322025226429105">
<ele>388.2</ele>
<time>2024-05-09T11:02:34Z</time>
</trkpt>
<trkpt lat="49.631755789741874" lon="9.321983316913249">
<ele>388.2</ele>
<time>2024-05-09T11:02:35Z</time>
</trkpt>
<trkpt lat="49.63179015554488" lon="9.321940401569009">
<ele>388.4</ele>
<time>2024-05-09T11:02:36Z</time>
</trkpt>
<trkpt lat="49.63182829320431" lon="9.32189648039639">
<ele>388.6</ele>
<time>2024-05-09T11:02:37Z</time>
</trkpt>
<trkpt lat="49.63186643086374" lon="9.321854570880532">
<ele>388.8</ele>
<time>2024-05-09T11:02:38Z</time>
</trkpt>
<trkpt lat="49.6319083403796" lon="9.321813583374023">
<ele>389</ele>
<time>2024-05-09T11:02:39Z</time>
</trkpt>
<trkpt lat="49.63194656185806" lon="9.321769662201405">
<ele>389</ele>
<time>2024-05-09T11:02:40Z</time>
</trkpt>
<trkpt lat="49.63198084384203" lon="9.321728674694896">
<ele>389.2</ele>
<time>2024-05-09T11:02:41Z</time>
</trkpt>
<trkpt lat="49.63201898150146" lon="9.321686681360006">
<ele>389.4</ele>
<time>2024-05-09T11:02:42Z</time>
</trkpt>
<trkpt lat="49.63205711916089" lon="9.321644771844149">
<ele>389.4</ele>
<time>2024-05-09T11:02:43Z</time>
</trkpt>
<trkpt lat="49.632091484963894" lon="9.32160185649991">
<ele>389.4</ele>
<time>2024-05-09T11:02:44Z</time>
</trkpt>
<trkpt lat="49.63212962262333" lon="9.321557935327291">
<ele>389.6</ele>
<time>2024-05-09T11:02:45Z</time>
</trkpt>
<trkpt lat="49.632167760282755" lon="9.321516947820784">
<ele>389.6</ele>
<time>2024-05-09T11:02:46Z</time>
</trkpt>
<trkpt lat="49.63220212608576" lon="9.321476882323624">
<ele>389.6</ele>
<time>2024-05-09T11:02:47Z</time>
</trkpt>
<trkpt lat="49.63224026374519" lon="9.32143966667354">
<ele>389.6</ele>
<time>2024-05-09T11:02:48Z</time>
</trkpt>
<trkpt lat="49.63227840140462" lon="9.321399684995413">
<ele>389.8</ele>
<time>2024-05-09T11:02:49Z</time>
</trkpt>
<trkpt lat="49.63231653906405" lon="9.321359619498253">
<ele>389.8</ele>
<time>2024-05-09T11:02:50Z</time>
</trkpt>
<trkpt lat="49.63235467672348" lon="9.321318548172712">
<ele>389.8</ele>
<time>2024-05-09T11:02:51Z</time>
</trkpt>
<trkpt lat="49.63238904252648" lon="9.321278566494584">
<ele>390</ele>
<time>2024-05-09T11:02:52Z</time>
</trkpt>
<trkpt lat="49.632423324510455" lon="9.321241350844502">
<ele>390</ele>
<time>2024-05-09T11:02:53Z</time>
</trkpt>
<trkpt lat="49.63246154598892" lon="9.321203213185072">
<ele>390.2</ele>
<time>2024-05-09T11:02:54Z</time>
</trkpt>
<trkpt lat="49.632503455504775" lon="9.32116507552564">
<ele>390.2</ele>
<time>2024-05-09T11:02:55Z</time>
</trkpt>
<trkpt lat="49.632541593164206" lon="9.321126937866213">
<ele>390.4</ele>
<time>2024-05-09T11:02:56Z</time>
</trkpt>
<trkpt lat="49.63257973082363" lon="9.321086872369053">
<ele>390.6</ele>
<time>2024-05-09T11:02:57Z</time>
</trkpt>
<trkpt lat="49.63261409662664" lon="9.321044879034162">
<ele>390.6</ele>
<time>2024-05-09T11:02:58Z</time>
</trkpt>
<trkpt lat="49.63265223428607" lon="9.321002885699272">
<ele>390.8</ele>
<time>2024-05-09T11:02:59Z</time>
</trkpt>
<trkpt lat="49.6326903719455" lon="9.320961898192763">
<ele>390.8</ele>
<time>2024-05-09T11:03:00Z</time>
</trkpt>
<trkpt lat="49.63272850960493" lon="9.320919988676906">
<ele>391</ele>
<time>2024-05-09T11:03:01Z</time>
</trkpt>
<trkpt lat="49.63277050293982" lon="9.320877995342016">
<ele>391</ele>
<time>2024-05-09T11:03:02Z</time>
</trkpt>
<trkpt lat="49.63280864059925" lon="9.320837007835507">
<ele>391</ele>
<time>2024-05-09T11:03:03Z</time>
</trkpt>
<trkpt lat="49.63285063393414" lon="9.320795014500618">
<ele>391.2</ele>
<time>2024-05-09T11:03:04Z</time>
</trkpt>
<trkpt lat="49.63288877159357" lon="9.320753021165729">
<ele>391.2</ele>
<time>2024-05-09T11:03:05Z</time>
</trkpt>
<trkpt lat="49.632926909253" lon="9.32071203365922">
<ele>391.2</ele>
<time>2024-05-09T11:03:06Z</time>
</trkpt>
<trkpt lat="49.63296890258789" lon="9.32067196816206">
<ele>391.2</ele>
<time>2024-05-09T11:03:07Z</time>
</trkpt>
<trkpt lat="49.63300704024732" lon="9.3206319026649">
<ele>391.4</ele>
<time>2024-05-09T11:03:08Z</time>
</trkpt>
<trkpt lat="49.63304894976318" lon="9.32059284299612">
<ele>391.4</ele>
<time>2024-05-09T11:03:09Z</time>
</trkpt>
<trkpt lat="49.63308708742261" lon="9.320551855489612">
<ele>391.4</ele>
<time>2024-05-09T11:03:10Z</time>
</trkpt>
<trkpt lat="49.6331290807575" lon="9.320511789992452">
<ele>391.6</ele>
<time>2024-05-09T11:03:11Z</time>
</trkpt>
<trkpt lat="49.63316721841693" lon="9.320469796657562">
<ele>391.8</ele>
<time>2024-05-09T11:03:12Z</time>
</trkpt>
<trkpt lat="49.63320535607636" lon="9.320427887141705">
<ele>391.8</ele>
<time>2024-05-09T11:03:13Z</time>
</trkpt>
<trkpt lat="49.63324349373579" lon="9.320388743653892">
<ele>392</ele>
<time>2024-05-09T11:03:14Z</time>
</trkpt>
<trkpt lat="49.63328163139522" lon="9.320351528003812">
<ele>392</ele>
<time>2024-05-09T11:03:15Z</time>
</trkpt>
<trkpt lat="49.63331985287368" lon="9.32031624019146">
<ele>392</ele>
<time>2024-05-09T11:03:16Z</time>
</trkpt>
<trkpt lat="49.63336176238954" lon="9.320281958207488">
<ele>392</ele>
<time>2024-05-09T11:03:17Z</time>
</trkpt>
<trkpt lat="49.63339990004897" lon="9.320246670395136">
<ele>392</ele>
<time>2024-05-09T11:03:18Z</time>
</trkpt>
<trkpt lat="49.6334380377084" lon="9.320215154439213">
<ele>392.2</ele>
<time>2024-05-09T11:03:19Z</time>
</trkpt>
<trkpt lat="49.63347617536783" lon="9.320184644311666">
<ele>392.2</ele>
<time>2024-05-09T11:03:20Z</time>
</trkpt>
<trkpt lat="49.63351816870272" lon="9.3201569840312">
<ele>392.2</ele>
<time>2024-05-09T11:03:21Z</time>
</trkpt>
<trkpt lat="49.63356016203761" lon="9.320128401741384">
<ele>392.4</ele>
<time>2024-05-09T11:03:22Z</time>
</trkpt>
<trkpt lat="49.63359829969704" lon="9.320101663470268">
<ele>392.4</ele>
<time>2024-05-09T11:03:23Z</time>
</trkpt>
<trkpt lat="49.63363643735647" lon="9.320075009018185">
<ele>392.4</ele>
<time>2024-05-09T11:03:24Z</time>
</trkpt>
<trkpt lat="49.63367843069136" lon="9.320051120594144">
<ele>392.2</ele>
<time>2024-05-09T11:03:25Z</time>
</trkpt>
<trkpt lat="49.63372034020722" lon="9.320026393979788">
<ele>392.2</ele>
<time>2024-05-09T11:03:26Z</time>
</trkpt>
<trkpt lat="49.633766105398536" lon="9.320003427565098">
<ele>392.2</ele>
<time>2024-05-09T11:03:27Z</time>
</trkpt>
<trkpt lat="49.633808098733425" lon="9.31997962296009">
<ele>392</ele>
<time>2024-05-09T11:03:28Z</time>
</trkpt>
<trkpt lat="49.633850092068315" lon="9.319952884688972">
<ele>392</ele>
<time>2024-05-09T11:03:29Z</time>
</trkpt>
<trkpt lat="49.63389585725963" lon="9.319926230236888">
<ele>392</ele>
<time>2024-05-09T11:03:30Z</time>
</trkpt>
<trkpt lat="49.63393776677549" lon="9.31989949196577">
<ele>391.8</ele>
<time>2024-05-09T11:03:31Z</time>
</trkpt>
<trkpt lat="49.63397976011038" lon="9.319876609370112">
<ele>391.8</ele>
<time>2024-05-09T11:03:32Z</time>
</trkpt>
<trkpt lat="49.634025525301695" lon="9.319854732602836">
<ele>391.8</ele>
<time>2024-05-09T11:03:33Z</time>
</trkpt>
<trkpt lat="49.63407129049301" lon="9.319829922169449">
<ele>391.8</ele>
<time>2024-05-09T11:03:34Z</time>
</trkpt>
<trkpt lat="49.6341132838279" lon="9.31980511173606">
<ele>391.8</ele>
<time>2024-05-09T11:03:35Z</time>
</trkpt>
<trkpt lat="49.63415519334376" lon="9.31978122331202">
<ele>391.6</ele>
<time>2024-05-09T11:03:36Z</time>
</trkpt>
<trkpt lat="49.63420104235411" lon="9.319758340716362">
<ele>391.6</ele>
<time>2024-05-09T11:03:37Z</time>
</trkpt>
<trkpt lat="49.634242951869965" lon="9.319733614102006">
<ele>391.6</ele>
<time>2024-05-09T11:03:38Z</time>
</trkpt>
<trkpt lat="49.634284945204854" lon="9.319707797840238">
<ele>391.6</ele>
<time>2024-05-09T11:03:39Z</time>
</trkpt>
<trkpt lat="49.63432685472071" lon="9.319686843082309">
<ele>391.6</ele>
<time>2024-05-09T11:03:40Z</time>
</trkpt>
<trkpt lat="49.6343688480556" lon="9.319663038477302">
<ele>391.6</ele>
<time>2024-05-09T11:03:41Z</time>
</trkpt>
<trkpt lat="49.63441084139049" lon="9.319640155881643">
<ele>391.6</ele>
<time>2024-05-09T11:03:42Z</time>
</trkpt>
<trkpt lat="49.63445275090635" lon="9.319618195295334">
<ele>391.6</ele>
<time>2024-05-09T11:03:43Z</time>
</trkpt>
<trkpt lat="49.634498516097665" lon="9.319595312699676">
<ele>391.6</ele>
<time>2024-05-09T11:03:44Z</time>
</trkpt>
<trkpt lat="49.634540509432554" lon="9.319571424275637">
<ele>391.6</ele>
<time>2024-05-09T11:03:45Z</time>
</trkpt>
<trkpt lat="49.63458250276744" lon="9.319548541679978">
<ele>391.6</ele>
<time>2024-05-09T11:03:46Z</time>
</trkpt>
<trkpt lat="49.63462826795876" lon="9.319524737074971">
<ele>391.6</ele>
<time>2024-05-09T11:03:47Z</time>
</trkpt>
<trkpt lat="49.63467017747462" lon="9.319504704326391">
<ele>391.6</ele>
<time>2024-05-09T11:03:48Z</time>
</trkpt>
<trkpt lat="49.634716026484966" lon="9.319484671577811">
<ele>391.6</ele>
<time>2024-05-09T11:03:49Z</time>
</trkpt>
<trkpt lat="49.63476179167628" lon="9.319463716819882">
<ele>391.6</ele>
<time>2024-05-09T11:03:50Z</time>
</trkpt>
<trkpt lat="49.63480370119214" lon="9.319441756233571">
<ele>391.6</ele>
<time>2024-05-09T11:03:51Z</time>
</trkpt>
<trkpt lat="49.63484946638346" lon="9.319421723484991">
<ele>391.6</ele>
<time>2024-05-09T11:03:52Z</time>
</trkpt>
<trkpt lat="49.63489145971835" lon="9.319401690736411">
<ele>391.6</ele>
<time>2024-05-09T11:03:53Z</time>
</trkpt>
<trkpt lat="49.63493345305323" lon="9.319381657987831">
<ele>391.6</ele>
<time>2024-05-09T11:03:54Z</time>
</trkpt>
<trkpt lat="49.63497921824455" lon="9.319363553076982">
<ele>391.6</ele>
<time>2024-05-09T11:03:55Z</time>
</trkpt>
<trkpt lat="49.63502498343587" lon="9.31934829801321">
<ele>391.6</ele>
<time>2024-05-09T11:03:56Z</time>
</trkpt>
<trkpt lat="49.63506697677076" lon="9.31933019310236">
<ele>391.6</ele>
<time>2024-05-09T11:03:57Z</time>
</trkpt>
<trkpt lat="49.6351165138185" lon="9.319314938038588">
<ele>391.6</ele>
<time>2024-05-09T11:03:58Z</time>
</trkpt>
<trkpt lat="49.63516227900982" lon="9.319298677146437">
<ele>391.6</ele>
<time>2024-05-09T11:03:59Z</time>
</trkpt>
<trkpt lat="49.63520812802017" lon="9.31928819976747">
<ele>391.6</ele>
<time>2024-05-09T11:04:00Z</time>
</trkpt>
<trkpt lat="49.63525389321149" lon="9.319276800379155">
<ele>391.6</ele>
<time>2024-05-09T11:04:01Z</time>
</trkpt>
<trkpt lat="49.6352996584028" lon="9.31926623918116">
<ele>391.6</ele>
<time>2024-05-09T11:04:02Z</time>
</trkpt>
<trkpt lat="49.63534542359412" lon="9.319254839792848">
<ele>391.6</ele>
<time>2024-05-09T11:04:03Z</time>
</trkpt>
<trkpt lat="49.635391188785434" lon="9.319243356585504">
<ele>391.6</ele>
<time>2024-05-09T11:04:04Z</time>
</trkpt>
<trkpt lat="49.63543318212032" lon="9.319234807044268">
<ele>391.6</ele>
<time>2024-05-09T11:04:05Z</time>
</trkpt>
<trkpt lat="49.63547894731164" lon="9.31922810152173">
<ele>391.6</ele>
<time>2024-05-09T11:04:06Z</time>
</trkpt>
<trkpt lat="49.63552471250296" lon="9.319223323836924">
<ele>391.6</ele>
<time>2024-05-09T11:04:07Z</time>
</trkpt>
<trkpt lat="49.63557047769427" lon="9.319216702133415">
<ele>391.6</ele>
<time>2024-05-09T11:04:08Z</time>
</trkpt>
<trkpt lat="49.63561624288559" lon="9.31920806877315">
<ele>391.8</ele>
<time>2024-05-09T11:04:09Z</time>
</trkpt>
<trkpt lat="49.63565823622048" lon="9.319203374907374">
<ele>391.8</ele>
<time>2024-05-09T11:04:10Z</time>
</trkpt>
<trkpt lat="49.63570400141179" lon="9.319196669384835">
<ele>392</ele>
<time>2024-05-09T11:04:11Z</time>
</trkpt>
<trkpt lat="49.635745994746685" lon="9.3191899638623">
<ele>392</ele>
<time>2024-05-09T11:04:12Z</time>
</trkpt>
<trkpt lat="49.635791759938" lon="9.319178564473988">
<ele>392.2</ele>
<time>2024-05-09T11:04:13Z</time>
</trkpt>
<trkpt lat="49.63582989759743" lon="9.319165153428912">
<ele>392.2</ele>
<time>2024-05-09T11:04:14Z</time>
</trkpt>
<trkpt lat="49.63587566278875" lon="9.31914989836514">
<ele>392.2</ele>
<time>2024-05-09T11:04:15Z</time>
</trkpt>
<trkpt lat="49.63591765612364" lon="9.319134643301368">
<ele>392.4</ele>
<time>2024-05-09T11:04:16Z</time>
</trkpt>
<trkpt lat="49.635959565639496" lon="9.319118466228248">
<ele>392.4</ele>
<time>2024-05-09T11:04:17Z</time>
</trkpt>
<trkpt lat="49.636001558974385" lon="9.319098433479668">
<ele>392.4</ele>
<time>2024-05-09T11:04:18Z</time>
</trkpt>
<trkpt lat="49.63604346849024" lon="9.319076472893356">
<ele>392.4</ele>
<time>2024-05-09T11:04:19Z</time>
</trkpt>
<trkpt lat="49.63608931750059" lon="9.3190535902977">
<ele>392.4</ele>
<time>2024-05-09T11:04:20Z</time>
</trkpt>
<trkpt lat="49.63613122701645" lon="9.319029785692692">
<ele>392.4</ele>
<time>2024-05-09T11:04:21Z</time>
</trkpt>
<trkpt lat="49.636176992207766" lon="9.319003047421576">
<ele>392.4</ele>
<time>2024-05-09T11:04:22Z</time>
</trkpt>
<trkpt lat="49.63622275739908" lon="9.318976392969487">
<ele>392.4</ele>
<time>2024-05-09T11:04:23Z</time>
</trkpt>
<trkpt lat="49.63626860640943" lon="9.318949654698372">
<ele>392.4</ele>
<time>2024-05-09T11:04:24Z</time>
</trkpt>
<trkpt lat="49.63631437160075" lon="9.318924844264984">
<ele>392.4</ele>
<time>2024-05-09T11:04:25Z</time>
</trkpt>
<trkpt lat="49.636360136792064" lon="9.31889626197517">
<ele>392.4</ele>
<time>2024-05-09T11:04:26Z</time>
</trkpt>
<trkpt lat="49.63640590198338" lon="9.318866673856974">
<ele>392.4</ele>
<time>2024-05-09T11:04:27Z</time>
</trkpt>
<trkpt lat="49.6364516671747" lon="9.31883524172008">
<ele>392.4</ele>
<time>2024-05-09T11:04:28Z</time>
</trkpt>
<trkpt lat="49.63649743236601" lon="9.318801797926426">
<ele>392.4</ele>
<time>2024-05-09T11:04:29Z</time>
</trkpt>
<trkpt lat="49.63654319755733" lon="9.318771287798882">
<ele>392.4</ele>
<time>2024-05-09T11:04:30Z</time>
</trkpt>
<trkpt lat="49.63658904656768" lon="9.318739855661988">
<ele>392.4</ele>
<time>2024-05-09T11:04:31Z</time>
</trkpt>
<trkpt lat="49.636634811758995" lon="9.318701718002558">
<ele>392.4</ele>
<time>2024-05-09T11:04:32Z</time>
</trkpt>
<trkpt lat="49.63668434880674" lon="9.318659724667668">
<ele>392.4</ele>
<time>2024-05-09T11:04:33Z</time>
</trkpt>
<trkpt lat="49.63672634214163" lon="9.31861873716116">
<ele>392.2</ele>
<time>2024-05-09T11:04:34Z</time>
</trkpt>
<trkpt lat="49.636772107332945" lon="9.318572971969845">
<ele>392.2</ele>
<time>2024-05-09T11:04:35Z</time>
</trkpt>
<trkpt lat="49.636814100667834" lon="9.318525278940797">
<ele>392</ele>
<time>2024-05-09T11:04:36Z</time>
</trkpt>
<trkpt lat="49.63685986585915" lon="9.318473814055324">
<ele>392</ele>
<time>2024-05-09T11:04:37Z</time>
</trkpt>
<trkpt lat="49.63690563105047" lon="9.31842134334147">
<ele>391.8</ele>
<time>2024-05-09T11:04:38Z</time>
</trkpt>
<trkpt lat="49.63695525191724" lon="9.318367950618269">
<ele>391.6</ele>
<time>2024-05-09T11:04:39Z</time>
</trkpt>
<trkpt lat="49.6369971614331" lon="9.318314474076033">
<ele>391.4</ele>
<time>2024-05-09T11:04:40Z</time>
</trkpt>
<trkpt lat="49.63704678229987" lon="9.318256303668022">
<ele>391.2</ele>
<time>2024-05-09T11:04:41Z</time>
</trkpt>
<trkpt lat="49.63709640316665" lon="9.318196289241314">
<ele>391</ele>
<time>2024-05-09T11:04:42Z</time>
</trkpt>
<trkpt lat="49.6371459402144" lon="9.318138118833303">
<ele>390.8</ele>
<time>2024-05-09T11:04:43Z</time>
</trkpt>
<trkpt lat="49.63719556108117" lon="9.31808372028172">
<ele>390.4</ele>
<time>2024-05-09T11:04:44Z</time>
</trkpt>
<trkpt lat="49.637245098128915" lon="9.31802647188306">
<ele>390.2</ele>
<time>2024-05-09T11:04:45Z</time>
</trkpt>
<trkpt lat="49.63729471899569" lon="9.317970229312778">
<ele>390</ele>
<time>2024-05-09T11:04:46Z</time>
</trkpt>
<trkpt lat="49.637344339862466" lon="9.317912980914116">
<ele>390</ele>
<time>2024-05-09T11:04:47Z</time>
</trkpt>
<trkpt lat="49.63739773258567" lon="9.317861516028644">
<ele>389.8</ele>
<time>2024-05-09T11:04:48Z</time>
</trkpt>
<trkpt lat="49.63745498098433" lon="9.317814745008944">
<ele>389.8</ele>
<time>2024-05-09T11:04:49Z</time>
</trkpt>
<trkpt lat="49.63751600123942" lon="9.31776805780828">
<ele>389.6</ele>
<time>2024-05-09T11:04:50Z</time>
</trkpt>
<trkpt lat="49.63757702149451" lon="9.31772799231112">
<ele>389.4</ele>
<time>2024-05-09T11:04:51Z</time>
</trkpt>
<trkpt lat="49.6376380417496" lon="9.31769178248942">
<ele>389.2</ele>
<time>2024-05-09T11:04:52Z</time>
</trkpt>
<trkpt lat="49.637702917680144" lon="9.317661272361876">
<ele>389.2</ele>
<time>2024-05-09T11:04:53Z</time>
</trkpt>
<trkpt lat="49.63776393793523" lon="9.317636461928489">
<ele>389</ele>
<time>2024-05-09T11:04:54Z</time>
</trkpt>
<trkpt lat="49.63783258572221" lon="9.317607879638672">
<ele>388.8</ele>
<time>2024-05-09T11:04:55Z</time>
</trkpt>
<trkpt lat="49.63789746165275" lon="9.317583069205284">
<ele>388.8</ele>
<time>2024-05-09T11:04:56Z</time>
</trkpt>
<trkpt lat="49.63796610943973" lon="9.317560186609626">
<ele>388.6</ele>
<time>2024-05-09T11:04:57Z</time>
</trkpt>
<trkpt lat="49.63803098537028" lon="9.317541997879744">
<ele>388.4</ele>
<time>2024-05-09T11:04:58Z</time>
</trkpt>
<trkpt lat="49.638095777481794" lon="9.317522970959544">
<ele>388.2</ele>
<time>2024-05-09T11:04:59Z</time>
</trkpt>
<trkpt lat="49.63816065341234" lon="9.317504866048694">
<ele>388</ele>
<time>2024-05-09T11:05:00Z</time>
</trkpt>
<trkpt lat="49.63822552934289" lon="9.31748860515654">
<ele>387.8</ele>
<time>2024-05-09T11:05:01Z</time>
</trkpt>
<trkpt lat="49.638294177129865" lon="9.31747142225504">
<ele>387.6</ele>
<time>2024-05-09T11:05:02Z</time>
</trkpt>
<trkpt lat="49.63835905306041" lon="9.317455245181918">
<ele>387.4</ele>
<time>2024-05-09T11:05:03Z</time>
</trkpt>
<trkpt lat="49.6384200733155" lon="9.317439990118146">
<ele>387.2</ele>
<time>2024-05-09T11:05:04Z</time>
</trkpt>
<trkpt lat="49.63848494924605" lon="9.317424735054374">
<ele>386.8</ele>
<time>2024-05-09T11:05:05Z</time>
</trkpt>
<trkpt lat="49.63854596950114" lon="9.317409479990602">
<ele>386.6</ele>
<time>2024-05-09T11:05:06Z</time>
</trkpt>
<trkpt lat="49.638610761612654" lon="9.317395146936178">
<ele>386.4</ele>
<time>2024-05-09T11:05:07Z</time>
</trkpt>
<trkpt lat="49.6386756375432" lon="9.317381819710135">
<ele>386</ele>
<time>2024-05-09T11:05:08Z</time>
</trkpt>
<trkpt lat="49.63873665779829" lon="9.317366564646363">
<ele>385.8</ele>
<time>2024-05-09T11:05:09Z</time>
</trkpt>
<trkpt lat="49.63880153372884" lon="9.31735323742032">
<ele>385.8</ele>
<time>2024-05-09T11:05:10Z</time>
</trkpt>
<trkpt lat="49.63886255398393" lon="9.317341754212976">
<ele>385.6</ele>
<time>2024-05-09T11:05:11Z</time>
</trkpt>
<trkpt lat="49.638923574239016" lon="9.317331276834013">
<ele>385.4</ele>
<time>2024-05-09T11:05:12Z</time>
</trkpt>
<trkpt lat="49.638984678313136" lon="9.317319793626666">
<ele>385.4</ele>
<time>2024-05-09T11:05:13Z</time>
</trkpt>
<trkpt lat="49.639041842892766" lon="9.317310322076082">
<ele>385.2</ele>
<time>2024-05-09T11:05:14Z</time>
</trkpt>
<trkpt lat="49.639102863147855" lon="9.317297916859388">
<ele>385.2</ele>
<time>2024-05-09T11:05:15Z</time>
</trkpt>
<trkpt lat="49.63916011154651" lon="9.317288361489773">
<ele>385.2</ele>
<time>2024-05-09T11:05:16Z</time>
</trkpt>
<trkpt lat="49.639221131801605" lon="9.317276878282428">
<ele>385.2</ele>
<time>2024-05-09T11:05:17Z</time>
</trkpt>
<trkpt lat="49.63927838020027" lon="9.317266400903463">
<ele>385.2</ele>
<time>2024-05-09T11:05:18Z</time>
</trkpt>
<trkpt lat="49.63933562859893" lon="9.317256845533848">
<ele>385.2</ele>
<time>2024-05-09T11:05:19Z</time>
</trkpt>
<trkpt lat="49.63939279317856" lon="9.317245446145536">
<ele>385</ele>
<time>2024-05-09T11:05:20Z</time>
</trkpt>
<trkpt lat="49.63945004157722" lon="9.317232118919492">
<ele>385</ele>
<time>2024-05-09T11:05:21Z</time>
</trkpt>
<trkpt lat="49.63950343430042" lon="9.317221641540527">
<ele>384.8</ele>
<time>2024-05-09T11:05:22Z</time>
</trkpt>
<trkpt lat="49.63956068269909" lon="9.317212086170912">
<ele>384.8</ele>
<time>2024-05-09T11:05:23Z</time>
</trkpt>
<trkpt lat="49.639617847278714" lon="9.317199680954218">
<ele>384.8</ele>
<time>2024-05-09T11:05:24Z</time>
</trkpt>
<trkpt lat="49.639675095677376" lon="9.317188197746871">
<ele>384.8</ele>
<time>2024-05-09T11:05:25Z</time>
</trkpt>
<trkpt lat="49.63972848840058" lon="9.317179648205638">
<ele>384.8</ele>
<time>2024-05-09T11:05:26Z</time>
</trkpt>
<trkpt lat="49.63978573679924" lon="9.3171729426831">
<ele>384.8</ele>
<time>2024-05-09T11:05:27Z</time>
</trkpt>
<trkpt lat="49.63983912952244" lon="9.317165315151216">
<ele>384.8</ele>
<time>2024-05-09T11:05:28Z</time>
</trkpt>
<trkpt lat="49.639896377921104" lon="9.31715676560998">
<ele>384.8</ele>
<time>2024-05-09T11:05:29Z</time>
</trkpt>
<trkpt lat="49.63994977064431" lon="9.317146288231015">
<ele>384.8</ele>
<time>2024-05-09T11:05:30Z</time>
</trkpt>
<trkpt lat="49.64000701904297" lon="9.3171367328614">
<ele>384.8</ele>
<time>2024-05-09T11:05:31Z</time>
</trkpt>
<trkpt lat="49.64006041176617" lon="9.317126255482435">
<ele>384.8</ele>
<time>2024-05-09T11:05:32Z</time>
</trkpt>
<trkpt lat="49.6401175763458" lon="9.31711670011282">
<ele>385</ele>
<time>2024-05-09T11:05:33Z</time>
</trkpt>
<trkpt lat="49.64017096906901" lon="9.317106222733855">
<ele>385</ele>
<time>2024-05-09T11:05:34Z</time>
</trkpt>
<trkpt lat="49.64022444561124" lon="9.31709666736424">
<ele>385</ele>
<time>2024-05-09T11:05:35Z</time>
</trkpt>
<trkpt lat="49.64028161019087" lon="9.317085184156896">
<ele>385</ele>
<time>2024-05-09T11:05:36Z</time>
</trkpt>
<trkpt lat="49.64033500291407" lon="9.31707470677793">
<ele>385</ele>
<time>2024-05-09T11:05:37Z</time>
</trkpt>
<trkpt lat="49.640388479456306" lon="9.317065235227346">
<ele>385</ele>
<time>2024-05-09T11:05:38Z</time>
</trkpt>
<trkpt lat="49.64044187217951" lon="9.31705660186708">
<ele>385</ele>
<time>2024-05-09T11:05:39Z</time>
</trkpt>
<trkpt lat="49.64049140922725" lon="9.317048052325845">
<ele>385</ele>
<time>2024-05-09T11:05:40Z</time>
</trkpt>
<trkpt lat="49.640548657625914" lon="9.31703849695623">
<ele>385</ele>
<time>2024-05-09T11:05:41Z</time>
</trkpt>
<trkpt lat="49.64060205034912" lon="9.317028019577265">
<ele>385.2</ele>
<time>2024-05-09T11:05:42Z</time>
</trkpt>
<trkpt lat="49.64065544307232" lon="9.31702039204538">
<ele>385.2</ele>
<time>2024-05-09T11:05:43Z</time>
</trkpt>
<trkpt lat="49.64070891961455" lon="9.317009914666414">
<ele>385.2</ele>
<time>2024-05-09T11:05:44Z</time>
</trkpt>
<trkpt lat="49.64076231233776" lon="9.317001281306148">
<ele>385.4</ele>
<time>2024-05-09T11:05:45Z</time>
</trkpt>
<trkpt lat="49.64081570506096" lon="9.316991725936532">
<ele>385.4</ele>
<time>2024-05-09T11:05:46Z</time>
</trkpt>
<trkpt lat="49.64086909778416" lon="9.316981248557568">
<ele>385.6</ele>
<time>2024-05-09T11:05:47Z</time>
</trkpt>
<trkpt lat="49.64092249050736" lon="9.316969849169254">
<ele>385.6</ele>
<time>2024-05-09T11:05:48Z</time>
</trkpt>
<trkpt lat="49.64097211137414" lon="9.31695836596191">
<ele>385.6</ele>
<time>2024-05-09T11:05:49Z</time>
</trkpt>
<trkpt lat="49.64102164842189" lon="9.316946966573596">
<ele>385.8</ele>
<time>2024-05-09T11:05:50Z</time>
</trkpt>
<trkpt lat="49.64107512496412" lon="9.316934561356902">
<ele>385.8</ele>
<time>2024-05-09T11:05:51Z</time>
</trkpt>
<trkpt lat="49.64112851768732" lon="9.316925005987288">
<ele>386</ele>
<time>2024-05-09T11:05:52Z</time>
</trkpt>
<trkpt lat="49.64118568226695" lon="9.316914528608322">
<ele>386</ele>
<time>2024-05-09T11:05:53Z</time>
</trkpt>
<trkpt lat="49.641235303133726" lon="9.316904973238708">
<ele>386</ele>
<time>2024-05-09T11:05:54Z</time>
</trkpt>
<trkpt lat="49.64128869585693" lon="9.316893573850392">
<ele>386</ele>
<time>2024-05-09T11:05:55Z</time>
</trkpt>
<trkpt lat="49.641338316723704" lon="9.316884940490128">
<ele>385.8</ele>
<time>2024-05-09T11:05:56Z</time>
</trkpt>
<trkpt lat="49.64139170944691" lon="9.316873541101812">
<ele>385.6</ele>
<time>2024-05-09T11:05:57Z</time>
</trkpt>
<trkpt lat="49.64144133031368" lon="9.316856358200312">
<ele>385.6</ele>
<time>2024-05-09T11:05:58Z</time>
</trkpt>
<trkpt lat="49.641490867361426" lon="9.316843030974267">
<ele>385.6</ele>
<time>2024-05-09T11:05:59Z</time>
</trkpt>
<trkpt lat="49.6415404882282" lon="9.316831547766924">
<ele>385.6</ele>
<time>2024-05-09T11:06:00Z</time>
</trkpt>
<trkpt lat="49.64159010909498" lon="9.31681822054088">
<ele>385.6</ele>
<time>2024-05-09T11:06:01Z</time>
</trkpt>
<trkpt lat="49.64163964614272" lon="9.316804809495808">
<ele>385.6</ele>
<time>2024-05-09T11:06:02Z</time>
</trkpt>
<trkpt lat="49.6416892670095" lon="9.316789554432034">
<ele>385.6</ele>
<time>2024-05-09T11:06:03Z</time>
</trkpt>
<trkpt lat="49.64173888787627" lon="9.31677815504372">
<ele>385.6</ele>
<time>2024-05-09T11:06:04Z</time>
</trkpt>
<trkpt lat="49.641788424924016" lon="9.316764827817678">
<ele>385.4</ele>
<time>2024-05-09T11:06:05Z</time>
</trkpt>
<trkpt lat="49.64184181764722" lon="9.316749572753906">
<ele>385.4</ele>
<time>2024-05-09T11:06:06Z</time>
</trkpt>
<trkpt lat="49.64189529418945" lon="9.316733311861752">
<ele>385.4</ele>
<time>2024-05-09T11:06:07Z</time>
</trkpt>
<trkpt lat="49.641948686912656" lon="9.31671998463571">
<ele>385.2</ele>
<time>2024-05-09T11:06:08Z</time>
</trkpt>
<trkpt lat="49.6419982239604" lon="9.31670472957194">
<ele>385.2</ele>
<time>2024-05-09T11:06:09Z</time>
</trkpt>
<trkpt lat="49.642047844827175" lon="9.316688468679786">
<ele>385.2</ele>
<time>2024-05-09T11:06:10Z</time>
</trkpt>
<trkpt lat="49.64210123755038" lon="9.316670363768935">
<ele>385</ele>
<time>2024-05-09T11:06:11Z</time>
</trkpt>
<trkpt lat="49.64215463027358" lon="9.316650331020355">
<ele>385</ele>
<time>2024-05-09T11:06:12Z</time>
</trkpt>
<trkpt lat="49.64220425114035" lon="9.316630298271775">
<ele>385</ele>
<time>2024-05-09T11:06:13Z</time>
</trkpt>
<trkpt lat="49.64225387200713" lon="9.316608421504498">
<ele>385</ele>
<time>2024-05-09T11:06:14Z</time>
</trkpt>
<trkpt lat="49.642303409054875" lon="9.316588388755918">
<ele>384.8</ele>
<time>2024-05-09T11:06:15Z</time>
</trkpt>
<trkpt lat="49.64235302992165" lon="9.316568356007338">
<ele>384.8</ele>
<time>2024-05-09T11:06:16Z</time>
</trkpt>
<trkpt lat="49.64239879511297" lon="9.316550251096489">
<ele>384.8</ele>
<time>2024-05-09T11:06:17Z</time>
</trkpt>
<trkpt lat="49.64244841597974" lon="9.316532062366605">
<ele>384.8</ele>
<time>2024-05-09T11:06:18Z</time>
</trkpt>
<trkpt lat="49.64249418117106" lon="9.316512029618025">
<ele>384.8</ele>
<time>2024-05-09T11:06:19Z</time>
</trkpt>
<trkpt lat="49.642539946362376" lon="9.316488225013018">
<ele>384.8</ele>
<time>2024-05-09T11:06:20Z</time>
</trkpt>
<trkpt lat="49.64258956722915" lon="9.31646534241736">
<ele>384.8</ele>
<time>2024-05-09T11:06:21Z</time>
</trkpt>
<trkpt lat="49.642639104276896" lon="9.31644530966878">
<ele>384.8</ele>
<time>2024-05-09T11:06:22Z</time>
</trkpt>
<trkpt lat="49.64268872514367" lon="9.316421505063772">
<ele>384.8</ele>
<time>2024-05-09T11:06:23Z</time>
</trkpt>
<trkpt lat="49.642738262191415" lon="9.316396694630384">
<ele>385</ele>
<time>2024-05-09T11:06:24Z</time>
</trkpt>
<trkpt lat="49.64278411120176" lon="9.316371884196997">
<ele>385</ele>
<time>2024-05-09T11:06:25Z</time>
</trkpt>
<trkpt lat="49.64282987639308" lon="9.316347073763607">
<ele>385.2</ele>
<time>2024-05-09T11:06:26Z</time>
</trkpt>
<trkpt lat="49.642879413440824" lon="9.3163251131773">
<ele>385</ele>
<time>2024-05-09T11:06:27Z</time>
</trkpt>
<trkpt lat="49.64292140677571" lon="9.31630508042872">
<ele>385</ele>
<time>2024-05-09T11:06:28Z</time>
</trkpt>
<trkpt lat="49.64297102764249" lon="9.316285131499171">
<ele>385</ele>
<time>2024-05-09T11:06:29Z</time>
</trkpt>
<trkpt lat="49.643012937158346" lon="9.316263170912862">
<ele>385</ele>
<time>2024-05-09T11:06:30Z</time>
</trkpt>
<trkpt lat="49.64305870234966" lon="9.316240288317204">
<ele>385</ele>
<time>2024-05-09T11:06:31Z</time>
</trkpt>
<trkpt lat="49.64310455136001" lon="9.316218327730894">
<ele>385.2</ele>
<time>2024-05-09T11:06:32Z</time>
</trkpt>
<trkpt lat="49.64314646087587" lon="9.316200222820044">
<ele>385.2</ele>
<time>2024-05-09T11:06:33Z</time>
</trkpt>
<trkpt lat="49.643192226067185" lon="9.316180190071464">
<ele>385.2</ele>
<time>2024-05-09T11:06:34Z</time>
</trkpt>
<trkpt lat="49.6432379912585" lon="9.316158229485154">
<ele>385.4</ele>
<time>2024-05-09T11:06:35Z</time>
</trkpt>
<trkpt lat="49.64327998459339" lon="9.316136352717876">
<ele>385.4</ele>
<time>2024-05-09T11:06:36Z</time>
</trkpt>
<trkpt lat="49.64332197792828" lon="9.316116319969296">
<ele>385.6</ele>
<time>2024-05-09T11:06:37Z</time>
</trkpt>
<trkpt lat="49.6433677431196" lon="9.316096287220716">
<ele>385.6</ele>
<time>2024-05-09T11:06:38Z</time>
</trkpt>
<trkpt lat="49.643413508310914" lon="9.316075248643756">
<ele>385.6</ele>
<time>2024-05-09T11:06:39Z</time>
</trkpt>
<trkpt lat="49.6434555016458" lon="9.31604859419167">
<ele>385.6</ele>
<time>2024-05-09T11:06:40Z</time>
</trkpt>
<trkpt lat="49.64350126683712" lon="9.316024705767632">
<ele>385.8</ele>
<time>2024-05-09T11:06:41Z</time>
</trkpt>
<trkpt lat="49.64354317635298" lon="9.316003751009704">
<ele>385.8</ele>
<time>2024-05-09T11:06:42Z</time>
</trkpt>
<trkpt lat="49.64358516968787" lon="9.315983718261124">
<ele>386</ele>
<time>2024-05-09T11:06:43Z</time>
</trkpt>
<trkpt lat="49.643630934879184" lon="9.315963685512545">
<ele>386.2</ele>
<time>2024-05-09T11:06:44Z</time>
</trkpt>
<trkpt lat="49.64367292821407" lon="9.315944658592343">
<ele>386.2</ele>
<time>2024-05-09T11:06:45Z</time>
</trkpt>
<trkpt lat="49.64371483772993" lon="9.315921775996683">
<ele>386.4</ele>
<time>2024-05-09T11:06:46Z</time>
</trkpt>
<trkpt lat="49.64376060292125" lon="9.315897887572646">
<ele>386.6</ele>
<time>2024-05-09T11:06:47Z</time>
</trkpt>
<trkpt lat="49.64380259625614" lon="9.315873077139258">
<ele>386.6</ele>
<time>2024-05-09T11:06:48Z</time>
</trkpt>
<trkpt lat="49.64384836144745" lon="9.3158501945436">
<ele>386.8</ele>
<time>2024-05-09T11:06:49Z</time>
</trkpt>
<trkpt lat="49.64389035478234" lon="9.315826389938591">
<ele>386.8</ele>
<time>2024-05-09T11:06:50Z</time>
</trkpt>
<trkpt lat="49.64393611997366" lon="9.315803507342936">
<ele>386.8</ele>
<time>2024-05-09T11:06:51Z</time>
</trkpt>
<trkpt lat="49.643981885164976" lon="9.315778696909549">
<ele>387</ele>
<time>2024-05-09T11:06:52Z</time>
</trkpt>
<trkpt lat="49.644023878499866" lon="9.315754808485508">
<ele>387</ele>
<time>2024-05-09T11:06:53Z</time>
</trkpt>
<trkpt lat="49.64406964369118" lon="9.315728154033422">
<ele>387</ele>
<time>2024-05-09T11:06:54Z</time>
</trkpt>
<trkpt lat="49.64411155320704" lon="9.315701415762303">
<ele>387</ele>
<time>2024-05-09T11:06:55Z</time>
</trkpt>
<trkpt lat="49.64415740221739" lon="9.31567668914795">
<ele>387</ele>
<time>2024-05-09T11:06:56Z</time>
</trkpt>
<trkpt lat="49.644203167408705" lon="9.31565187871456">
<ele>387</ele>
<time>2024-05-09T11:06:57Z</time>
</trkpt>
<trkpt lat="49.64424893260002" lon="9.315627068281174">
<ele>387</ele>
<time>2024-05-09T11:06:58Z</time>
</trkpt>
<trkpt lat="49.64429469779134" lon="9.315600330010056">
<ele>387</ele>
<time>2024-05-09T11:06:59Z</time>
</trkpt>
<trkpt lat="49.64433669112623" lon="9.315573675557973">
<ele>387</ele>
<time>2024-05-09T11:07:00Z</time>
</trkpt>
<trkpt lat="49.644382456317544" lon="9.315546937286854">
<ele>387</ele>
<time>2024-05-09T11:07:01Z</time>
</trkpt>
<trkpt lat="49.6444243658334" lon="9.31551642715931">
<ele>387</ele>
<time>2024-05-09T11:07:02Z</time>
</trkpt>
<trkpt lat="49.64447021484375" lon="9.315486839041114">
<ele>387</ele>
<time>2024-05-09T11:07:03Z</time>
</trkpt>
<trkpt lat="49.64450835250318" lon="9.31545632891357">
<ele>387</ele>
<time>2024-05-09T11:07:04Z</time>
</trkpt>
<trkpt lat="49.64455026201904" lon="9.315426824614406">
<ele>387</ele>
<time>2024-05-09T11:07:05Z</time>
</trkpt>
<trkpt lat="49.644596027210355" lon="9.31539530865848">
<ele>387</ele>
<time>2024-05-09T11:07:06Z</time>
</trkpt>
<trkpt lat="49.64463802054525" lon="9.315360020846128">
<ele>387</ele>
<time>2024-05-09T11:07:07Z</time>
</trkpt>
<trkpt lat="49.644676158204675" lon="9.315321883186698">
<ele>387</ele>
<time>2024-05-09T11:07:08Z</time>
</trkpt>
<trkpt lat="49.644714295864105" lon="9.315283745527267">
<ele>387</ele>
<time>2024-05-09T11:07:09Z</time>
</trkpt>
<trkpt lat="49.644752433523536" lon="9.315243680030107">
<ele>387</ele>
<time>2024-05-09T11:07:10Z</time>
</trkpt>
<trkpt lat="49.64478679932654" lon="9.315201686695218">
<ele>387</ele>
<time>2024-05-09T11:07:11Z</time>
</trkpt>
<trkpt lat="49.64482493698597" lon="9.315157849341633">
<ele>387</ele>
<time>2024-05-09T11:07:12Z</time>
</trkpt>
<trkpt lat="49.644855447113514" lon="9.315112084150314">
<ele>387.2</ele>
<time>2024-05-09T11:07:13Z</time>
</trkpt>
<trkpt lat="49.64488981291652" lon="9.315065313130615">
<ele>387.2</ele>
<time>2024-05-09T11:07:14Z</time>
</trkpt>
<trkpt lat="49.64492032304406" lon="9.315014770254493">
<ele>387.4</ele>
<time>2024-05-09T11:07:15Z</time>
</trkpt>
<trkpt lat="49.644950833171606" lon="9.31496330536902">
<ele>387.4</ele>
<time>2024-05-09T11:07:16Z</time>
</trkpt>
<trkpt lat="49.64498134329915" lon="9.314911840483546">
<ele>387.4</ele>
<time>2024-05-09T11:07:17Z</time>
</trkpt>
<trkpt lat="49.64500808157027" lon="9.314853586256504">
<ele>387.6</ele>
<time>2024-05-09T11:07:18Z</time>
</trkpt>
<trkpt lat="49.645030964165926" lon="9.314793571829796">
<ele>387.6</ele>
<time>2024-05-09T11:07:19Z</time>
</trkpt>
<trkpt lat="49.645053846761584" lon="9.314735401421784">
<ele>387.8</ele>
<time>2024-05-09T11:07:20Z</time>
</trkpt>
<trkpt lat="49.64507672935724" lon="9.314673375338316">
<ele>387.8</ele>
<time>2024-05-09T11:07:21Z</time>
</trkpt>
<trkpt lat="49.6450996119529" lon="9.314611433073878">
<ele>388</ele>
<time>2024-05-09T11:07:22Z</time>
</trkpt>
<trkpt lat="49.6451186388731" lon="9.31454655714333">
<ele>388.2</ele>
<time>2024-05-09T11:07:23Z</time>
</trkpt>
<trkpt lat="49.64514152146876" lon="9.314479753375052">
<ele>388.2</ele>
<time>2024-05-09T11:07:24Z</time>
</trkpt>
<trkpt lat="49.64515686035156" lon="9.31441211141646">
<ele>388.4</ele>
<time>2024-05-09T11:07:25Z</time>
</trkpt>
<trkpt lat="49.64517588727176" lon="9.314339607954023">
<ele>388.4</ele>
<time>2024-05-09T11:07:26Z</time>
</trkpt>
<trkpt lat="49.645191142335534" lon="9.314268110319972">
<ele>388.6</ele>
<time>2024-05-09T11:07:27Z</time>
</trkpt>
<trkpt lat="49.645210253074765" lon="9.314196528866889">
<ele>388.8</ele>
<time>2024-05-09T11:07:28Z</time>
</trkpt>
<trkpt lat="49.64522550813854" lon="9.314126959070563">
<ele>389</ele>
<time>2024-05-09T11:07:29Z</time>
</trkpt>
<trkpt lat="49.64524076320231" lon="9.314055377617478">
<ele>389.2</ele>
<time>2024-05-09T11:07:30Z</time>
</trkpt>
<trkpt lat="49.64525979012251" lon="9.313986729830503">
<ele>389.4</ele>
<time>2024-05-09T11:07:31Z</time>
</trkpt>
<trkpt lat="49.64527504518628" lon="9.313920009881258">
<ele>389.6</ele>
<time>2024-05-09T11:07:32Z</time>
</trkpt>
<trkpt lat="49.64529030025005" lon="9.313850356265904">
<ele>389.8</ele>
<time>2024-05-09T11:07:33Z</time>
</trkpt>
<trkpt lat="49.645305555313826" lon="9.313779780641198">
<ele>389.8</ele>
<time>2024-05-09T11:07:34Z</time>
</trkpt>
<trkpt lat="49.64532466605306" lon="9.313712054863572">
<ele>390</ele>
<time>2024-05-09T11:07:35Z</time>
</trkpt>
<trkpt lat="49.64533992111683" lon="9.313643407076595">
<ele>390</ele>
<time>2024-05-09T11:07:36Z</time>
</trkpt>
<trkpt lat="49.6453551761806" lon="9.313574759289622">
<ele>390.2</ele>
<time>2024-05-09T11:07:37Z</time>
</trkpt>
<trkpt lat="49.64537428691983" lon="9.313507033511996">
<ele>390.2</ele>
<time>2024-05-09T11:07:38Z</time>
</trkpt>
<trkpt lat="49.6453895419836" lon="9.313436457887292">
<ele>390.2</ele>
<time>2024-05-09T11:07:39Z</time>
</trkpt>
<trkpt lat="49.64540856890381" lon="9.31336496025324">
<ele>390.2</ele>
<time>2024-05-09T11:07:40Z</time>
</trkpt>
<trkpt lat="49.645423823967576" lon="9.313293378800154">
<ele>390.2</ele>
<time>2024-05-09T11:07:41Z</time>
</trkpt>
<trkpt lat="49.64543907903135" lon="9.31322280317545">
<ele>390.2</ele>
<time>2024-05-09T11:07:42Z</time>
</trkpt>
<trkpt lat="49.64545433409512" lon="9.313158011063932">
<ele>390.2</ele>
<time>2024-05-09T11:07:43Z</time>
</trkpt>
<trkpt lat="49.64546958915889" lon="9.313096990808845">
<ele>390.2</ele>
<time>2024-05-09T11:07:44Z</time>
</trkpt>
<trkpt lat="49.645484844222665" lon="9.313036892563105">
<ele>390.2</ele>
<time>2024-05-09T11:07:45Z</time>
</trkpt>
<trkpt lat="49.645503954961896" lon="9.312976794317365">
<ele>390</ele>
<time>2024-05-09T11:07:46Z</time>
</trkpt>
<trkpt lat="49.64551921002567" lon="9.312914768233895">
<ele>390</ele>
<time>2024-05-09T11:07:47Z</time>
</trkpt>
<trkpt lat="49.6455383207649" lon="9.312856597825885">
<ele>389.8</ele>
<time>2024-05-09T11:07:48Z</time>
</trkpt>
<trkpt lat="49.64555357582867" lon="9.312798427417874">
<ele>389.8</ele>
<time>2024-05-09T11:07:49Z</time>
</trkpt>
<trkpt lat="49.64557260274887" lon="9.312738412991166">
<ele>389.8</ele>
<time>2024-05-09T11:07:50Z</time>
</trkpt>
<trkpt lat="49.6455917134881" lon="9.312680242583156">
<ele>389.8</ele>
<time>2024-05-09T11:07:51Z</time>
</trkpt>
<trkpt lat="49.6456107404083" lon="9.312622994184494">
<ele>389.8</ele>
<time>2024-05-09T11:07:52Z</time>
</trkpt>
<trkpt lat="49.64563362300396" lon="9.31256859563291">
<ele>390</ele>
<time>2024-05-09T11:07:53Z</time>
</trkpt>
<trkpt lat="49.64565650559962" lon="9.312516208738089">
<ele>390</ele>
<time>2024-05-09T11:07:54Z</time>
</trkpt>
<trkpt lat="49.645683243870735" lon="9.312468515709044">
<ele>390</ele>
<time>2024-05-09T11:07:55Z</time>
</trkpt>
<trkpt lat="49.64570612646639" lon="9.312419816851616">
<ele>390.2</ele>
<time>2024-05-09T11:07:56Z</time>
</trkpt>
<trkpt lat="49.64573286473751" lon="9.31237120181322">
<ele>390.2</ele>
<time>2024-05-09T11:07:57Z</time>
</trkpt>
<trkpt lat="49.645763374865055" lon="9.312328286468984">
<ele>390.4</ele>
<time>2024-05-09T11:07:58Z</time>
</trkpt>
<trkpt lat="49.6457938849926" lon="9.312290148809552">
<ele>390.6</ele>
<time>2024-05-09T11:07:59Z</time>
</trkpt>
<trkpt lat="49.64582816697657" lon="9.3122548609972">
<ele>391</ele>
<time>2024-05-09T11:08:00Z</time>
</trkpt>
<trkpt lat="49.64585876092315" lon="9.312221501022576">
<ele>391.2</ele>
<time>2024-05-09T11:08:01Z</time>
</trkpt>
<trkpt lat="49.64589304290712" lon="9.312191912904382">
<ele>391.6</ele>
<time>2024-05-09T11:08:02Z</time>
</trkpt>
<trkpt lat="49.64592355303466" lon="9.312161402776836">
<ele>391.8</ele>
<time>2024-05-09T11:08:03Z</time>
</trkpt>
<trkpt lat="49.64595791883767" lon="9.31213852018118">
<ele>392.2</ele>
<time>2024-05-09T11:08:04Z</time>
</trkpt>
<trkpt lat="49.64599220082164" lon="9.312111781910062">
<ele>392.6</ele>
<time>2024-05-09T11:08:05Z</time>
</trkpt>
<trkpt lat="49.64602656662464" lon="9.312087977305056">
<ele>392.8</ele>
<time>2024-05-09T11:08:06Z</time>
</trkpt>
<trkpt lat="49.646060932427645" lon="9.312069872394204">
<ele>393.2</ele>
<time>2024-05-09T11:08:07Z</time>
</trkpt>
<trkpt lat="49.646095214411616" lon="9.312051767483354">
<ele>393.6</ele>
<time>2024-05-09T11:08:08Z</time>
</trkpt>
<trkpt lat="49.64613335207105" lon="9.31203651241958">
<ele>394</ele>
<time>2024-05-09T11:08:09Z</time>
</trkpt>
<trkpt lat="49.64616771787405" lon="9.312020251527429">
<ele>394.2</ele>
<time>2024-05-09T11:08:10Z</time>
</trkpt>
<trkpt lat="49.64620208367705" lon="9.312003068625929">
<ele>394.6</ele>
<time>2024-05-09T11:08:11Z</time>
</trkpt>
<trkpt lat="49.646236365661025" lon="9.311986891552806">
<ele>394.8</ele>
<time>2024-05-09T11:08:12Z</time>
</trkpt>
<trkpt lat="49.64626687578857" lon="9.311967780813577">
<ele>395.2</ele>
<time>2024-05-09T11:08:13Z</time>
</trkpt>
<trkpt lat="49.646297385916114" lon="9.31195638142526">
<ele>395.4</ele>
<time>2024-05-09T11:08:14Z</time>
</trkpt>
<trkpt lat="49.64633175171912" lon="9.31194305419922">
<ele>395.6</ele>
<time>2024-05-09T11:08:15Z</time>
</trkpt>
<trkpt lat="49.64636226184666" lon="9.311929643154144">
<ele>395.8</ele>
<time>2024-05-09T11:08:16Z</time>
</trkpt>
<trkpt lat="49.646396627649665" lon="9.311911538243294">
<ele>395.8</ele>
<time>2024-05-09T11:08:17Z</time>
</trkpt>
<trkpt lat="49.64642328210175" lon="9.311895361170173">
<ele>396</ele>
<time>2024-05-09T11:08:18Z</time>
</trkpt>
<trkpt lat="49.646457647904754" lon="9.311876250430942">
<ele>396</ele>
<time>2024-05-09T11:08:19Z</time>
</trkpt>
<trkpt lat="49.6464881580323" lon="9.311861917376518">
<ele>396</ele>
<time>2024-05-09T11:08:20Z</time>
</trkpt>
<trkpt lat="49.64652244001627" lon="9.311844818294048">
<ele>396.2</ele>
<time>2024-05-09T11:08:21Z</time>
</trkpt>
<trkpt lat="49.646553033962846" lon="9.311831407248974">
<ele>396.4</ele>
<time>2024-05-09T11:08:22Z</time>
</trkpt>
<trkpt lat="49.64658354409039" lon="9.311815230175853">
<ele>396.4</ele>
<time>2024-05-09T11:08:23Z</time>
</trkpt>
<trkpt lat="49.64661782607436" lon="9.311795197427273">
<ele>396.6</ele>
<time>2024-05-09T11:08:24Z</time>
</trkpt>
<trkpt lat="49.646648336201906" lon="9.311778014525771">
<ele>396.6</ele>
<time>2024-05-09T11:08:25Z</time>
</trkpt>
<trkpt lat="49.64667884632945" lon="9.311766615137458">
<ele>396.8</ele>
<time>2024-05-09T11:08:26Z</time>
</trkpt>
<trkpt lat="49.64670944027603" lon="9.311750354245303">
<ele>396.8</ele>
<time>2024-05-09T11:08:27Z</time>
</trkpt>
<trkpt lat="49.64673995040357" lon="9.311731327325106">
<ele>397</ele>
<time>2024-05-09T11:08:28Z</time>
</trkpt>
<trkpt lat="49.64676660485566" lon="9.31171984411776">
<ele>397</ele>
<time>2024-05-09T11:08:29Z</time>
</trkpt>
<trkpt lat="49.6467971149832" lon="9.311704589053988">
<ele>397.2</ele>
<time>2024-05-09T11:08:30Z</time>
</trkpt>
<trkpt lat="49.646827625110745" lon="9.311684556305408">
<ele>397.4</ele>
<time>2024-05-09T11:08:31Z</time>
</trkpt>
<trkpt lat="49.64685813523829" lon="9.311670223250983">
<ele>397.6</ele>
<time>2024-05-09T11:08:32Z</time>
</trkpt>
<trkpt lat="49.646888729184866" lon="9.311650274321437">
<ele>397.8</ele>
<time>2024-05-09T11:08:33Z</time>
</trkpt>
<trkpt lat="49.64691923931241" lon="9.311634935438631">
<ele>398</ele>
<time>2024-05-09T11:08:34Z</time>
</trkpt>
<trkpt lat="49.646949749439955" lon="9.311616830527782">
<ele>398.2</ele>
<time>2024-05-09T11:08:35Z</time>
</trkpt>
<trkpt lat="49.6469802595675" lon="9.311596797779202">
<ele>398.6</ele>
<time>2024-05-09T11:08:36Z</time>
</trkpt>
<trkpt lat="49.64701454155147" lon="9.311572993174195">
<ele>398.8</ele>
<time>2024-05-09T11:08:37Z</time>
</trkpt>
<trkpt lat="49.64704513549805" lon="9.311552038416266">
<ele>399.2</ele>
<time>2024-05-09T11:08:38Z</time>
</trkpt>
<trkpt lat="49.64707564562559" lon="9.311528149992228">
<ele>399.4</ele>
<time>2024-05-09T11:08:39Z</time>
</trkpt>
<trkpt lat="49.647106155753136" lon="9.311506189405918">
<ele>399.8</ele>
<time>2024-05-09T11:08:40Z</time>
</trkpt>
<trkpt lat="49.64713666588068" lon="9.31148523464799">
<ele>400</ele>
<time>2024-05-09T11:08:41Z</time>
</trkpt>
<trkpt lat="49.647163320332766" lon="9.31146327406168">
<ele>400.2</ele>
<time>2024-05-09T11:08:42Z</time>
</trkpt>
<trkpt lat="49.64719005860388" lon="9.311443325132132">
<ele>400.4</ele>
<time>2024-05-09T11:08:43Z</time>
</trkpt>
<trkpt lat="49.647216796875" lon="9.311420358717442">
<ele>400.6</ele>
<time>2024-05-09T11:08:44Z</time>
</trkpt>
<trkpt lat="49.647243451327085" lon="9.311394626274703">
<ele>400.8</ele>
<time>2024-05-09T11:08:45Z</time>
</trkpt>
<trkpt lat="49.6472701895982" lon="9.31136797182262">
<ele>400.8</ele>
<time>2024-05-09T11:08:46Z</time>
</trkpt>
<trkpt lat="49.64729307219386" lon="9.311343161389232">
<ele>401</ele>
<time>2024-05-09T11:08:47Z</time>
</trkpt>
<trkpt lat="49.64731972664595" lon="9.311318350955844">
<ele>401.2</ele>
<time>2024-05-09T11:08:48Z</time>
</trkpt>
<trkpt lat="49.647346464917064" lon="9.311293540522456">
<ele>401.4</ele>
<time>2024-05-09T11:08:49Z</time>
</trkpt>
<trkpt lat="49.64737311936915" lon="9.31126780807972">
<ele>401.6</ele>
<time>2024-05-09T11:08:50Z</time>
</trkpt>
<trkpt lat="49.647399857640266" lon="9.311242997646332">
<ele>401.8</ele>
<time>2024-05-09T11:08:51Z</time>
</trkpt>
<trkpt lat="49.647426595911384" lon="9.311216343194246">
<ele>402</ele>
<time>2024-05-09T11:08:52Z</time>
</trkpt>
<trkpt lat="49.64745325036347" lon="9.31118868291378">
<ele>402.2</ele>
<time>2024-05-09T11:08:53Z</time>
</trkpt>
<trkpt lat="49.64747613295913" lon="9.311156244948506">
<ele>402.4</ele>
<time>2024-05-09T11:08:54Z</time>
</trkpt>
<trkpt lat="49.64750664308667" lon="9.31112472899258">
<ele>402.6</ele>
<time>2024-05-09T11:08:55Z</time>
</trkpt>
<trkpt lat="49.64753338135779" lon="9.311100002378224">
<ele>402.8</ele>
<time>2024-05-09T11:08:56Z</time>
</trkpt>
<trkpt lat="49.647560119628906" lon="9.31107041426003">
<ele>402.8</ele>
<time>2024-05-09T11:08:57Z</time>
</trkpt>
<trkpt lat="49.64758677408099" lon="9.311044681817291">
<ele>403</ele>
<time>2024-05-09T11:08:58Z</time>
</trkpt>
<trkpt lat="49.64761351235211" lon="9.311017943546176">
<ele>403.2</ele>
<time>2024-05-09T11:08:59Z</time>
</trkpt>
<trkpt lat="49.647640166804194" lon="9.31099120527506">
<ele>403.4</ele>
<time>2024-05-09T11:09:00Z</time>
</trkpt>
<trkpt lat="49.64767067693174" lon="9.310964550822971">
<ele>403.6</ele>
<time>2024-05-09T11:09:01Z</time>
</trkpt>
<trkpt lat="49.64770118705928" lon="9.310939740389584">
<ele>403.8</ele>
<time>2024-05-09T11:09:02Z</time>
</trkpt>
<trkpt lat="49.6477279253304" lon="9.3109130859375">
<ele>404</ele>
<time>2024-05-09T11:09:03Z</time>
</trkpt>
<trkpt lat="49.64775466360152" lon="9.310886347666385">
<ele>404.2</ele>
<time>2024-05-09T11:09:04Z</time>
</trkpt>
<trkpt lat="49.6477813180536" lon="9.310858687385917">
<ele>404.4</ele>
<time>2024-05-09T11:09:05Z</time>
</trkpt>
<trkpt lat="49.64780420064926" lon="9.3108319491148">
<ele>404.6</ele>
<time>2024-05-09T11:09:06Z</time>
</trkpt>
<trkpt lat="49.64782708324492" lon="9.310805294662714">
<ele>404.8</ele>
<time>2024-05-09T11:09:07Z</time>
</trkpt>
<trkpt lat="49.64785382151604" lon="9.310778556391597">
<ele>405</ele>
<time>2024-05-09T11:09:08Z</time>
</trkpt>
<trkpt lat="49.64788047596812" lon="9.310751901939511">
<ele>405.4</ele>
<time>2024-05-09T11:09:09Z</time>
</trkpt>
<trkpt lat="49.64790344238281" lon="9.310728013515472">
<ele>405.6</ele>
<time>2024-05-09T11:09:10Z</time>
</trkpt>
<trkpt lat="49.6479300968349" lon="9.310703203082085">
<ele>405.8</ele>
<time>2024-05-09T11:09:11Z</time>
</trkpt>
<trkpt lat="49.647956835106015" lon="9.310678476467729">
<ele>406</ele>
<time>2024-05-09T11:09:12Z</time>
</trkpt>
<trkpt lat="49.64797971770167" lon="9.31065366603434">
<ele>406</ele>
<time>2024-05-09T11:09:13Z</time>
</trkpt>
<trkpt lat="49.64800260029733" lon="9.310629777610302">
<ele>406.2</ele>
<time>2024-05-09T11:09:14Z</time>
</trkpt>
<trkpt lat="49.64802925474942" lon="9.310603123158216">
<ele>406.4</ele>
<time>2024-05-09T11:09:15Z</time>
</trkpt>
<trkpt lat="49.64805213734507" lon="9.310578312724829">
<ele>406.6</ele>
<time>2024-05-09T11:09:16Z</time>
</trkpt>
<trkpt lat="49.64807887561619" lon="9.310551574453712">
<ele>406.6</ele>
<time>2024-05-09T11:09:17Z</time>
</trkpt>
<trkpt lat="49.64810561388731" lon="9.310526847839355">
<ele>407</ele>
<time>2024-05-09T11:09:18Z</time>
</trkpt>
<trkpt lat="49.648132268339396" lon="9.310502037405968">
<ele>407.2</ele>
<time>2024-05-09T11:09:19Z</time>
</trkpt>
<trkpt lat="49.64815900661051" lon="9.310471527278423">
<ele>407.4</ele>
<time>2024-05-09T11:09:20Z</time>
</trkpt>
<trkpt lat="49.64818951673806" lon="9.310442861169577">
<ele>407.6</ele>
<time>2024-05-09T11:09:21Z</time>
</trkpt>
<trkpt lat="49.64821617119014" lon="9.310413356870413">
<ele>407.8</ele>
<time>2024-05-09T11:09:22Z</time>
</trkpt>
<trkpt lat="49.64824290946126" lon="9.310382762923837">
<ele>408</ele>
<time>2024-05-09T11:09:23Z</time>
</trkpt>
<trkpt lat="49.64826964773238" lon="9.310353258624671">
<ele>408.2</ele>
<time>2024-05-09T11:09:24Z</time>
</trkpt>
<trkpt lat="49.64829630218446" lon="9.310326520353556">
<ele>408.2</ele>
<time>2024-05-09T11:09:25Z</time>
</trkpt>
<trkpt lat="49.64832681231201" lon="9.31029793806374">
<ele>408.4</ele>
<time>2024-05-09T11:09:26Z</time>
</trkpt>
<trkpt lat="49.64835355058312" lon="9.310268349945543">
<ele>408.4</ele>
<time>2024-05-09T11:09:27Z</time>
</trkpt>
<trkpt lat="49.64838020503521" lon="9.310237839818">
<ele>408.6</ele>
<time>2024-05-09T11:09:28Z</time>
</trkpt>
<trkpt lat="49.648410715162754" lon="9.310206407681108">
<ele>408.6</ele>
<time>2024-05-09T11:09:29Z</time>
</trkpt>
<trkpt lat="49.64844130910933" lon="9.310176819562912">
<ele>408.8</ele>
<time>2024-05-09T11:09:30Z</time>
</trkpt>
<trkpt lat="49.648471819236875" lon="9.310145303606989">
<ele>409</ele>
<time>2024-05-09T11:09:31Z</time>
</trkpt>
<trkpt lat="49.64850232936442" lon="9.310114793479444">
<ele>409</ele>
<time>2024-05-09T11:09:32Z</time>
</trkpt>
<trkpt lat="49.64853283949196" lon="9.31008528918028">
<ele>409.2</ele>
<time>2024-05-09T11:09:33Z</time>
</trkpt>
<trkpt lat="49.64856334961951" lon="9.310052851215003">
<ele>409.2</ele>
<time>2024-05-09T11:09:34Z</time>
</trkpt>
<trkpt lat="49.64859385974705" lon="9.31002326309681">
<ele>409.2</ele>
<time>2024-05-09T11:09:35Z</time>
</trkpt>
<trkpt lat="49.6486243698746" lon="9.309991830959916">
<ele>409.4</ele>
<time>2024-05-09T11:09:36Z</time>
</trkpt>
<trkpt lat="49.64865488000214" lon="9.30996123701334">
<ele>409.4</ele>
<time>2024-05-09T11:09:37Z</time>
</trkpt>
<trkpt lat="49.648685390129685" lon="9.309929804876449">
<ele>409.6</ele>
<time>2024-05-09T11:09:38Z</time>
</trkpt>
<trkpt lat="49.64871590025723" lon="9.309898372739552">
<ele>409.8</ele>
<time>2024-05-09T11:09:39Z</time>
</trkpt>
<trkpt lat="49.64875026606023" lon="9.309869706630709">
<ele>409.8</ele>
<time>2024-05-09T11:09:40Z</time>
</trkpt>
<trkpt lat="49.64878077618778" lon="9.309840202331545">
<ele>410</ele>
<time>2024-05-09T11:09:41Z</time>
</trkpt>
<trkpt lat="49.64881128631532" lon="9.309808686375618">
<ele>410</ele>
<time>2024-05-09T11:09:42Z</time>
</trkpt>
<trkpt lat="49.648845652118325" lon="9.309775326400995">
<ele>410.2</ele>
<time>2024-05-09T11:09:43Z</time>
</trkpt>
<trkpt lat="49.64887616224587" lon="9.309738110750914">
<ele>410.2</ele>
<time>2024-05-09T11:09:44Z</time>
</trkpt>
<trkpt lat="49.648906672373414" lon="9.309704750776293">
<ele>410.4</ele>
<time>2024-05-09T11:09:45Z</time>
</trkpt>
<trkpt lat="49.64894103817642" lon="9.309671390801668">
<ele>410.6</ele>
<time>2024-05-09T11:09:46Z</time>
</trkpt>
<trkpt lat="49.64897154830396" lon="9.309639874845743">
<ele>410.8</ele>
<time>2024-05-09T11:09:47Z</time>
</trkpt>
<trkpt lat="49.64899820275605" lon="9.30960844270885">
<ele>410.8</ele>
<time>2024-05-09T11:09:48Z</time>
</trkpt>
<trkpt lat="49.64902871288359" lon="9.309577932581306">
<ele>411</ele>
<time>2024-05-09T11:09:49Z</time>
</trkpt>
<trkpt lat="49.64905545115471" lon="9.30955027230084">
<ele>411</ele>
<time>2024-05-09T11:09:50Z</time>
</trkpt>
<trkpt lat="49.649082105606794" lon="9.309519762173297">
<ele>411.2</ele>
<time>2024-05-09T11:09:51Z</time>
</trkpt>
<trkpt lat="49.64910884387791" lon="9.3094901740551">
<ele>411.2</ele>
<time>2024-05-09T11:09:52Z</time>
</trkpt>
<trkpt lat="49.649139354005456" lon="9.309461591765285">
<ele>411.4</ele>
<time>2024-05-09T11:09:53Z</time>
</trkpt>
<trkpt lat="49.64916609227657" lon="9.309432925656438">
<ele>411.4</ele>
<time>2024-05-09T11:09:54Z</time>
</trkpt>
<trkpt lat="49.64919660240412" lon="9.309406271204352">
<ele>411.6</ele>
<time>2024-05-09T11:09:55Z</time>
</trkpt>
<trkpt lat="49.6492232568562" lon="9.309379532933235">
<ele>411.8</ele>
<time>2024-05-09T11:09:56Z</time>
</trkpt>
<trkpt lat="49.64924999512732" lon="9.309351872652767">
<ele>411.8</ele>
<time>2024-05-09T11:09:57Z</time>
</trkpt>
<trkpt lat="49.649280505254865" lon="9.30932706221938">
<ele>411.8</ele>
<time>2024-05-09T11:09:58Z</time>
</trkpt>
<trkpt lat="49.64931487105787" lon="9.309300407767296">
<ele>412</ele>
<time>2024-05-09T11:09:59Z</time>
</trkpt>
<trkpt lat="49.64934538118541" lon="9.309276519343255">
<ele>412</ele>
<time>2024-05-09T11:10:00Z</time>
</trkpt>
<trkpt lat="49.649379663169384" lon="9.309256486594675">
<ele>412</ele>
<time>2024-05-09T11:10:01Z</time>
</trkpt>
<trkpt lat="49.64941402897239" lon="9.309236453846095">
<ele>412.2</ele>
<time>2024-05-09T11:10:02Z</time>
</trkpt>
<trkpt lat="49.64945216663182" lon="9.309221198782325">
<ele>412.2</ele>
<time>2024-05-09T11:10:03Z</time>
</trkpt>
<trkpt lat="49.64949030429125" lon="9.309206949546931">
<ele>412.2</ele>
<time>2024-05-09T11:10:04Z</time>
</trkpt>
<trkpt lat="49.64952844195068" lon="9.30919169448316">
<ele>412.2</ele>
<time>2024-05-09T11:10:05Z</time>
</trkpt>
<trkpt lat="49.64956657961011" lon="9.309176439419389">
<ele>412.2</ele>
<time>2024-05-09T11:10:06Z</time>
</trkpt>
<trkpt lat="49.64960471726954" lon="9.309164956212044">
<ele>412.2</ele>
<time>2024-05-09T11:10:07Z</time>
</trkpt>
<trkpt lat="49.64964671060443" lon="9.30915355682373">
<ele>412.2</ele>
<time>2024-05-09T11:10:08Z</time>
</trkpt>
<trkpt lat="49.64968484826386" lon="9.309144923463464">
<ele>412.2</ele>
<time>2024-05-09T11:10:09Z</time>
</trkpt>
<trkpt lat="49.64972684159875" lon="9.309138217940928">
<ele>412.2</ele>
<time>2024-05-09T11:10:10Z</time>
</trkpt>
<trkpt lat="49.64976875111461" lon="9.309129668399692">
<ele>412.2</ele>
<time>2024-05-09T11:10:11Z</time>
</trkpt>
<trkpt lat="49.649814600124955" lon="9.309122040867804">
<ele>412.2</ele>
<time>2024-05-09T11:10:12Z</time>
</trkpt>
<trkpt lat="49.64985650964081" lon="9.30911156348884">
<ele>412.2</ele>
<time>2024-05-09T11:10:13Z</time>
</trkpt>
<trkpt lat="49.6498985029757" lon="9.309102008119226">
<ele>412.2</ele>
<time>2024-05-09T11:10:14Z</time>
</trkpt>
<trkpt lat="49.64994426816702" lon="9.309095302596688">
<ele>412</ele>
<time>2024-05-09T11:10:15Z</time>
</trkpt>
<trkpt lat="49.64998626150191" lon="9.309082981199026">
<ele>412</ele>
<time>2024-05-09T11:10:16Z</time>
</trkpt>
<trkpt lat="49.650028171017766" lon="9.30907342582941">
<ele>412</ele>
<time>2024-05-09T11:10:17Z</time>
</trkpt>
<trkpt lat="49.65007393620908" lon="9.309064792469144">
<ele>412</ele>
<time>2024-05-09T11:10:18Z</time>
</trkpt>
<trkpt lat="49.6501197014004" lon="9.309056242927907">
<ele>412</ele>
<time>2024-05-09T11:10:19Z</time>
</trkpt>
<trkpt lat="49.65016169473529" lon="9.309048615396025">
<ele>412</ele>
<time>2024-05-09T11:10:20Z</time>
</trkpt>
<trkpt lat="49.650207459926605" lon="9.309040065854788">
<ele>412</ele>
<time>2024-05-09T11:10:21Z</time>
</trkpt>
<trkpt lat="49.65025322511792" lon="9.30903143249452">
<ele>412</ele>
<time>2024-05-09T11:10:22Z</time>
</trkpt>
<trkpt lat="49.6503028459847" lon="9.309021877124906">
<ele>412</ele>
<time>2024-05-09T11:10:23Z</time>
</trkpt>
<trkpt lat="49.650348611176014" lon="9.30901139974594">
<ele>412</ele>
<time>2024-05-09T11:10:24Z</time>
</trkpt>
<trkpt lat="49.65039437636733" lon="9.309004778042436">
<ele>412</ele>
<time>2024-05-09T11:10:25Z</time>
</trkpt>
<trkpt lat="49.650443997234106" lon="9.308998072519898">
<ele>412.2</ele>
<time>2024-05-09T11:10:26Z</time>
</trkpt>
<trkpt lat="49.65048976242542" lon="9.308988517150285">
<ele>412.2</ele>
<time>2024-05-09T11:10:27Z</time>
</trkpt>
<trkpt lat="49.65053552761674" lon="9.30897711776197">
<ele>412.4</ele>
<time>2024-05-09T11:10:28Z</time>
</trkpt>
<trkpt lat="49.650585148483515" lon="9.308966556563972">
<ele>412.4</ele>
<time>2024-05-09T11:10:29Z</time>
</trkpt>
<trkpt lat="49.65062705799937" lon="9.30895515717566">
<ele>412.6</ele>
<time>2024-05-09T11:10:30Z</time>
</trkpt>
<trkpt lat="49.65067667886615" lon="9.308944679796696">
<ele>412.8</ele>
<time>2024-05-09T11:10:31Z</time>
</trkpt>
<trkpt lat="49.650722444057465" lon="9.30893512442708">
<ele>413</ele>
<time>2024-05-09T11:10:32Z</time>
</trkpt>
<trkpt lat="49.65077206492424" lon="9.308926574885843">
<ele>413</ele>
<time>2024-05-09T11:10:33Z</time>
</trkpt>
<trkpt lat="49.65081783011556" lon="9.30891701951623">
<ele>413</ele>
<time>2024-05-09T11:10:34Z</time>
</trkpt>
<trkpt lat="49.65086745098233" lon="9.308908386155965">
<ele>413.2</ele>
<time>2024-05-09T11:10:35Z</time>
</trkpt>
<trkpt lat="49.65091321617365" lon="9.308897908777">
<ele>413.2</ele>
<time>2024-05-09T11:10:36Z</time>
</trkpt>
<trkpt lat="49.650958981364965" lon="9.308888353407385">
<ele>413.2</ele>
<time>2024-05-09T11:10:37Z</time>
</trkpt>
<trkpt lat="49.65100474655628" lon="9.30887695401907">
<ele>413.2</ele>
<time>2024-05-09T11:10:38Z</time>
</trkpt>
<trkpt lat="49.6510505117476" lon="9.308868404477836">
<ele>413.4</ele>
<time>2024-05-09T11:10:39Z</time>
</trkpt>
<trkpt lat="49.651100132614374" lon="9.30885784327984">
<ele>413.4</ele>
<time>2024-05-09T11:10:40Z</time>
</trkpt>
<trkpt lat="49.65114589780569" lon="9.308848371729256">
<ele>413.6</ele>
<time>2024-05-09T11:10:41Z</time>
</trkpt>
<trkpt lat="49.651195518672466" lon="9.30883688852191">
<ele>413.8</ele>
<time>2024-05-09T11:10:42Z</time>
</trkpt>
<trkpt lat="49.65124128386378" lon="9.308826411142944">
<ele>413.8</ele>
<time>2024-05-09T11:10:43Z</time>
</trkpt>
<trkpt lat="49.6512870490551" lon="9.308813083916904">
<ele>414</ele>
<time>2024-05-09T11:10:44Z</time>
</trkpt>
<trkpt lat="49.651332814246416" lon="9.308801600709558">
<ele>414</ele>
<time>2024-05-09T11:10:45Z</time>
</trkpt>
<trkpt lat="49.65137857943773" lon="9.308793051168324">
<ele>414</ele>
<time>2024-05-09T11:10:46Z</time>
</trkpt>
<trkpt lat="49.65142820030451" lon="9.308785423636436">
<ele>414</ele>
<time>2024-05-09T11:10:47Z</time>
</trkpt>
<trkpt lat="49.651470109820366" lon="9.3087787181139">
<ele>414</ele>
<time>2024-05-09T11:10:48Z</time>
</trkpt>
<trkpt lat="49.651512103155255" lon="9.308772012591362">
<ele>413.8</ele>
<time>2024-05-09T11:10:49Z</time>
</trkpt>
<trkpt lat="49.651554096490145" lon="9.308763463050129">
<ele>413.8</ele>
<time>2024-05-09T11:10:50Z</time>
</trkpt>
<trkpt lat="49.651596006006" lon="9.308754913508892">
<ele>413.6</ele>
<time>2024-05-09T11:10:51Z</time>
</trkpt>
<trkpt lat="49.65163799934089" lon="9.308745358139277">
<ele>413.6</ele>
<time>2024-05-09T11:10:52Z</time>
</trkpt>
<trkpt lat="49.65167999267578" lon="9.308732952922584">
<ele>413.4</ele>
<time>2024-05-09T11:10:53Z</time>
</trkpt>
<trkpt lat="49.65171813033521" lon="9.308721469715238">
<ele>413.2</ele>
<time>2024-05-09T11:10:54Z</time>
</trkpt>
<trkpt lat="49.65176003985107" lon="9.308708142489197">
<ele>413</ele>
<time>2024-05-09T11:10:55Z</time>
</trkpt>
<trkpt lat="49.65180203318596" lon="9.308696743100882">
<ele>413</ele>
<time>2024-05-09T11:10:56Z</time>
</trkpt>
<trkpt lat="49.651847798377275" lon="9.308686181902884">
<ele>413</ele>
<time>2024-05-09T11:10:57Z</time>
</trkpt>
<trkpt lat="49.651889791712165" lon="9.308678554371">
<ele>413</ele>
<time>2024-05-09T11:10:58Z</time>
</trkpt>
<trkpt lat="49.65193170122802" lon="9.308674782514572">
<ele>412.8</ele>
<time>2024-05-09T11:10:59Z</time>
</trkpt>
<trkpt lat="49.65197369456291" lon="9.308676710352302">
<ele>412.8</ele>
<time>2024-05-09T11:11:00Z</time>
</trkpt>
<trkpt lat="49.65201560407877" lon="9.308672854676844">
<ele>412.6</ele>
<time>2024-05-09T11:11:01Z</time>
</trkpt>
<trkpt lat="49.65206145308912" lon="9.308665227144957">
<ele>412.6</ele>
<time>2024-05-09T11:11:02Z</time>
</trkpt>
<trkpt lat="49.652103362604976" lon="9.3086595274508">
<ele>412.4</ele>
<time>2024-05-09T11:11:03Z</time>
</trkpt>
<trkpt lat="49.652145355939865" lon="9.308649972081184">
<ele>412.4</ele>
<time>2024-05-09T11:11:04Z</time>
</trkpt>
<trkpt lat="49.65219112113118" lon="9.30864142253995">
<ele>412.2</ele>
<time>2024-05-09T11:11:05Z</time>
</trkpt>
<trkpt lat="49.65223311446607" lon="9.308643266558647">
<ele>412.2</ele>
<time>2024-05-09T11:11:06Z</time>
</trkpt>
<trkpt lat="49.65227887965739" lon="9.308645194396377">
<ele>412.2</ele>
<time>2024-05-09T11:11:07Z</time>
</trkpt>
<trkpt lat="49.652320789173245" lon="9.308645194396377">
<ele>412</ele>
<time>2024-05-09T11:11:08Z</time>
</trkpt>
<trkpt lat="49.65235892683267" lon="9.308638572692873">
<ele>412</ele>
<time>2024-05-09T11:11:09Z</time>
</trkpt>
<trkpt lat="49.652400920167565" lon="9.308623233810067">
<ele>412.2</ele>
<time>2024-05-09T11:11:10Z</time>
</trkpt>
<trkpt lat="49.65243905782699" lon="9.30860135704279">
<ele>412.2</ele>
<time>2024-05-09T11:11:11Z</time>
</trkpt>
<trkpt lat="49.652481051161885" lon="9.308589873835444">
<ele>412.4</ele>
<time>2024-05-09T11:11:12Z</time>
</trkpt>
<trkpt lat="49.65252296067774" lon="9.308585096150637">
<ele>412.4</ele>
<time>2024-05-09T11:11:13Z</time>
</trkpt>
<trkpt lat="49.65256880968809" lon="9.308576546609402">
<ele>412.6</ele>
<time>2024-05-09T11:11:14Z</time>
</trkpt>
<trkpt lat="49.65261071920395" lon="9.30856129154563">
<ele>412.6</ele>
<time>2024-05-09T11:11:15Z</time>
</trkpt>
<trkpt lat="49.65265271253884" lon="9.30856036953628">
<ele>412.8</ele>
<time>2024-05-09T11:11:16Z</time>
</trkpt>
<trkpt lat="49.652694622054696" lon="9.308566991239786">
<ele>412.8</ele>
<time>2024-05-09T11:11:17Z</time>
</trkpt>
<trkpt lat="49.652736615389585" lon="9.308567997068169">
<ele>413</ele>
<time>2024-05-09T11:11:18Z</time>
</trkpt>
<trkpt lat="49.65278623625636" lon="9.308567997068169">
<ele>413.2</ele>
<time>2024-05-09T11:11:19Z</time>
</trkpt>
<trkpt lat="49.65282437391579" lon="9.308556513860822">
<ele>413.4</ele>
<time>2024-05-09T11:11:20Z</time>
</trkpt>
<trkpt lat="49.65286251157522" lon="9.30854318663478">
<ele>413.6</ele>
<time>2024-05-09T11:11:21Z</time>
</trkpt>
<trkpt lat="49.65290450491011" lon="9.308533631265163">
<ele>413.8</ele>
<time>2024-05-09T11:11:22Z</time>
</trkpt>
<trkpt lat="49.65294641442597" lon="9.30852122604847">
<ele>414.2</ele>
<time>2024-05-09T11:11:23Z</time>
</trkpt>
<trkpt lat="49.65298840776086" lon="9.308514520525932">
<ele>414.4</ele>
<time>2024-05-09T11:11:24Z</time>
</trkpt>
<trkpt lat="49.653034172952175" lon="9.308507898822429">
<ele>414.6</ele>
<time>2024-05-09T11:11:25Z</time>
</trkpt>
<trkpt lat="49.653076166287065" lon="9.308505048975348">
<ele>414.6</ele>
<time>2024-05-09T11:11:26Z</time>
</trkpt>
<trkpt lat="49.65311807580292" lon="9.308498343452811">
<ele>414.6</ele>
<time>2024-05-09T11:11:27Z</time>
</trkpt>
<trkpt lat="49.65316006913781" lon="9.308493565768003">
<ele>414.6</ele>
<time>2024-05-09T11:11:28Z</time>
</trkpt>
<trkpt lat="49.65320197865367" lon="9.308493565768003">
<ele>414.8</ele>
<time>2024-05-09T11:11:29Z</time>
</trkpt>
<trkpt lat="49.65324782766402" lon="9.308489793911576">
<ele>414.8</ele>
<time>2024-05-09T11:11:30Z</time>
</trkpt>
<trkpt lat="49.653289737179875" lon="9.30848308838904">
<ele>414.8</ele>
<time>2024-05-09T11:11:31Z</time>
</trkpt>
<trkpt lat="49.653331730514765" lon="9.308473533019423">
<ele>414.8</ele>
<time>2024-05-09T11:11:32Z</time>
</trkpt>
<trkpt lat="49.653369868174195" lon="9.30846305564046">
<ele>414.8</ele>
<time>2024-05-09T11:11:33Z</time>
</trkpt>
<trkpt lat="49.653411861509085" lon="9.308453500270844">
<ele>414.8</ele>
<time>2024-05-09T11:11:34Z</time>
</trkpt>
<trkpt lat="49.653449999168515" lon="9.308444950729609">
<ele>414.8</ele>
<time>2024-05-09T11:11:35Z</time>
</trkpt>
<trkpt lat="49.65349190868437" lon="9.3084401730448">
<ele>414.8</ele>
<time>2024-05-09T11:11:36Z</time>
</trkpt>
<trkpt lat="49.6535300463438" lon="9.308431623503566">
<ele>414.8</ele>
<time>2024-05-09T11:11:37Z</time>
</trkpt>
<trkpt lat="49.653568267822266" lon="9.30842206813395">
<ele>414.8</ele>
<time>2024-05-09T11:11:38Z</time>
</trkpt>
<trkpt lat="49.65361017733812" lon="9.308416284620762">
<ele>414.8</ele>
<time>2024-05-09T11:11:39Z</time>
</trkpt>
<trkpt lat="49.653648314997554" lon="9.308416284620762">
<ele>414.8</ele>
<time>2024-05-09T11:11:40Z</time>
</trkpt>
<trkpt lat="49.653686452656984" lon="9.308413434773684">
<ele>415</ele>
<time>2024-05-09T11:11:41Z</time>
</trkpt>
<trkpt lat="49.653724590316415" lon="9.308408657088876">
<ele>415</ele>
<time>2024-05-09T11:11:42Z</time>
</trkpt>
<trkpt lat="49.65376281179488" lon="9.30840295739472">
<ele>415.2</ele>
<time>2024-05-09T11:11:43Z</time>
</trkpt>
<trkpt lat="49.65379709377885" lon="9.308396335691214">
<ele>415.2</ele>
<time>2024-05-09T11:11:44Z</time>
</trkpt>
<trkpt lat="49.65383523143828" lon="9.308395329862831">
<ele>415.4</ele>
<time>2024-05-09T11:11:45Z</time>
</trkpt>
<trkpt lat="49.65387336909771" lon="9.308391558006406">
<ele>415.4</ele>
<time>2024-05-09T11:11:46Z</time>
</trkpt>
<trkpt lat="49.65390773490071" lon="9.308386780321598">
<ele>415.4</ele>
<time>2024-05-09T11:11:47Z</time>
</trkpt>
<trkpt lat="49.65394587256014" lon="9.30838292464614">
<ele>415.6</ele>
<time>2024-05-09T11:11:48Z</time>
</trkpt>
<trkpt lat="49.65397638268769" lon="9.308378146961331">
<ele>415.6</ele>
<time>2024-05-09T11:11:49Z</time>
</trkpt>
<trkpt lat="49.65401074849069" lon="9.308371525257826">
<ele>415.6</ele>
<time>2024-05-09T11:11:50Z</time>
</trkpt>
<trkpt lat="49.65404503047466" lon="9.308368675410748">
<ele>415.6</ele>
<time>2024-05-09T11:11:51Z</time>
</trkpt>
<trkpt lat="49.654083251953125" lon="9.30836196988821">
<ele>415.8</ele>
<time>2024-05-09T11:11:52Z</time>
</trkpt>
<trkpt lat="49.65412138961256" lon="9.308356270194054">
<ele>415.8</ele>
<time>2024-05-09T11:11:53Z</time>
</trkpt>
<trkpt lat="49.65415567159653" lon="9.308355264365671">
<ele>416</ele>
<time>2024-05-09T11:11:54Z</time>
</trkpt>
<trkpt lat="49.65419003739953" lon="9.308351492509246">
<ele>416.2</ele>
<time>2024-05-09T11:11:55Z</time>
</trkpt>
<trkpt lat="49.65422817505896" lon="9.308348642662168">
<ele>416.2</ele>
<time>2024-05-09T11:11:56Z</time>
</trkpt>
<trkpt lat="49.65426254086197" lon="9.30834285914898">
<ele>416.4</ele>
<time>2024-05-09T11:11:57Z</time>
</trkpt>
<trkpt lat="49.654296822845936" lon="9.3083400093019">
<ele>416.6</ele>
<time>2024-05-09T11:11:58Z</time>
</trkpt>
<trkpt lat="49.65433118864894" lon="9.308336237445474">
<ele>416.6</ele>
<time>2024-05-09T11:11:59Z</time>
</trkpt>
<trkpt lat="49.65436547063291" lon="9.308331459760666">
<ele>416.8</ele>
<time>2024-05-09T11:12:00Z</time>
</trkpt>
<trkpt lat="49.654399836435914" lon="9.308328609913588">
<ele>417</ele>
<time>2024-05-09T11:12:01Z</time>
</trkpt>
<trkpt lat="49.654437974095345" lon="9.30832190439105">
<ele>417.2</ele>
<time>2024-05-09T11:12:02Z</time>
</trkpt>
<trkpt lat="49.65447233989835" lon="9.308316204696894">
<ele>417.2</ele>
<time>2024-05-09T11:12:03Z</time>
</trkpt>
<trkpt lat="49.65451047755778" lon="9.308309499174356">
<ele>417.4</ele>
<time>2024-05-09T11:12:04Z</time>
</trkpt>
<trkpt lat="49.65454475954175" lon="9.308308577165008">
<ele>417.8</ele>
<time>2024-05-09T11:12:05Z</time>
</trkpt>
<trkpt lat="49.65457912534475" lon="9.308304721489549">
<ele>418</ele>
<time>2024-05-09T11:12:06Z</time>
</trkpt>
<trkpt lat="49.65461349114776" lon="9.308302877470853">
<ele>418.2</ele>
<time>2024-05-09T11:12:07Z</time>
</trkpt>
<trkpt lat="49.65464777313173" lon="9.30830187164247">
<ele>418.4</ele>
<time>2024-05-09T11:12:08Z</time>
</trkpt>
<trkpt lat="49.65468213893473" lon="9.308296171948314">
<ele>418.6</ele>
<time>2024-05-09T11:12:09Z</time>
</trkpt>
<trkpt lat="49.6547164209187" lon="9.308290472254155">
<ele>418.8</ele>
<time>2024-05-09T11:12:10Z</time>
</trkpt>
<trkpt lat="49.65474693104625" lon="9.308282844722273">
<ele>419</ele>
<time>2024-05-09T11:12:11Z</time>
</trkpt>
<trkpt lat="49.65478515252471" lon="9.308275217190385">
<ele>419.2</ele>
<time>2024-05-09T11:12:12Z</time>
</trkpt>
<trkpt lat="49.65482329018414" lon="9.30826373398304">
<ele>419.4</ele>
<time>2024-05-09T11:12:13Z</time>
</trkpt>
<trkpt lat="49.65486142784357" lon="9.308251328766346">
<ele>419.6</ele>
<time>2024-05-09T11:12:14Z</time>
</trkpt>
<trkpt lat="49.654899565503" lon="9.308230374008415">
<ele>419.8</ele>
<time>2024-05-09T11:12:15Z</time>
</trkpt>
<trkpt lat="49.65493770316243" lon="9.308211263269186">
<ele>420</ele>
<time>2024-05-09T11:12:16Z</time>
</trkpt>
<trkpt lat="49.654972068965435" lon="9.308191230520606">
<ele>420.2</ele>
<time>2024-05-09T11:12:17Z</time>
</trkpt>
<trkpt lat="49.655010206624866" lon="9.308170275762675">
<ele>420.4</ele>
<time>2024-05-09T11:12:18Z</time>
</trkpt>
<trkpt lat="49.65505211614072" lon="9.308153092861176">
<ele>420.6</ele>
<time>2024-05-09T11:12:19Z</time>
</trkpt>
<trkpt lat="49.655090253800154" lon="9.308133060112596">
<ele>420.6</ele>
<time>2024-05-09T11:12:20Z</time>
</trkpt>
<trkpt lat="49.655128475278616" lon="9.308118810877204">
<ele>420.8</ele>
<time>2024-05-09T11:12:21Z</time>
</trkpt>
<trkpt lat="49.65516661293805" lon="9.308103555813432">
<ele>420.8</ele>
<time>2024-05-09T11:12:22Z</time>
</trkpt>
<trkpt lat="49.65520475059748" lon="9.30808637291193">
<ele>421</ele>
<time>2024-05-09T11:12:23Z</time>
</trkpt>
<trkpt lat="49.655246660113335" lon="9.308070112019776">
<ele>421</ele>
<time>2024-05-09T11:12:24Z</time>
</trkpt>
<trkpt lat="49.655288653448224" lon="9.308053012937307">
<ele>421</ele>
<time>2024-05-09T11:12:25Z</time>
</trkpt>
<trkpt lat="49.655326791107655" lon="9.308038679882884">
<ele>421</ele>
<time>2024-05-09T11:12:26Z</time>
</trkpt>
<trkpt lat="49.655368784442544" lon="9.308019569143651">
<ele>421</ele>
<time>2024-05-09T11:12:27Z</time>
</trkpt>
<trkpt lat="49.655406922101974" lon="9.308003392070532">
<ele>421</ele>
<time>2024-05-09T11:12:28Z</time>
</trkpt>
<trkpt lat="49.655445059761405" lon="9.30798620916903">
<ele>421</ele>
<time>2024-05-09T11:12:29Z</time>
</trkpt>
<trkpt lat="49.655483197420835" lon="9.30796810425818">
<ele>421.2</ele>
<time>2024-05-09T11:12:30Z</time>
</trkpt>
<trkpt lat="49.655521335080266" lon="9.30794999934733">
<ele>421.2</ele>
<time>2024-05-09T11:12:31Z</time>
</trkpt>
<trkpt lat="49.6555594727397" lon="9.307933738455176">
<ele>421.4</ele>
<time>2024-05-09T11:12:32Z</time>
</trkpt>
<trkpt lat="49.65559761039913" lon="9.307916639372706">
<ele>421.4</ele>
<time>2024-05-09T11:12:33Z</time>
</trkpt>
<trkpt lat="49.65563583187759" lon="9.307896606624126">
<ele>421.6</ele>
<time>2024-05-09T11:12:34Z</time>
</trkpt>
<trkpt lat="49.65567396953702" lon="9.307880345731974">
<ele>421.6</ele>
<time>2024-05-09T11:12:35Z</time>
</trkpt>
<trkpt lat="49.65571210719645" lon="9.307863162830472">
<ele>421.8</ele>
<time>2024-05-09T11:12:36Z</time>
</trkpt>
<trkpt lat="49.65575024485588" lon="9.307846985757353">
<ele>422</ele>
<time>2024-05-09T11:12:37Z</time>
</trkpt>
<trkpt lat="49.65578838251531" lon="9.30782502517104">
<ele>422</ele>
<time>2024-05-09T11:12:38Z</time>
</trkpt>
<trkpt lat="49.65582652017474" lon="9.307806920260193">
<ele>422.2</ele>
<time>2024-05-09T11:12:39Z</time>
</trkpt>
<trkpt lat="49.65586851350963" lon="9.30778973735869">
<ele>422.2</ele>
<time>2024-05-09T11:12:40Z</time>
</trkpt>
<trkpt lat="49.65590665116906" lon="9.30777163244784">
<ele>422.4</ele>
<time>2024-05-09T11:12:41Z</time>
</trkpt>
<trkpt lat="49.65594856068492" lon="9.307756377384068">
<ele>422.4</ele>
<time>2024-05-09T11:12:42Z</time>
</trkpt>
<trkpt lat="49.65598678216338" lon="9.307740200310946">
<ele>422.6</ele>
<time>2024-05-09T11:12:43Z</time>
</trkpt>
<trkpt lat="49.65602869167924" lon="9.307722011581063">
<ele>422.6</ele>
<time>2024-05-09T11:12:44Z</time>
</trkpt>
<trkpt lat="49.65606682933867" lon="9.307702062651517">
<ele>422.8</ele>
<time>2024-05-09T11:12:45Z</time>
</trkpt>
<trkpt lat="49.6561049669981" lon="9.307682951912284">
<ele>422.8</ele>
<time>2024-05-09T11:12:46Z</time>
</trkpt>
<trkpt lat="49.65614696033299" lon="9.307664847001432">
<ele>422.8</ele>
<time>2024-05-09T11:12:47Z</time>
</trkpt>
<trkpt lat="49.65618895366788" lon="9.307646742090585">
<ele>423</ele>
<time>2024-05-09T11:12:48Z</time>
</trkpt>
<trkpt lat="49.65622709132731" lon="9.3076285533607">
<ele>423</ele>
<time>2024-05-09T11:12:49Z</time>
</trkpt>
<trkpt lat="49.65626900084317" lon="9.307608604431152">
<ele>423</ele>
<time>2024-05-09T11:12:50Z</time>
</trkpt>
<trkpt lat="49.6563071385026" lon="9.307588571682572">
<ele>423.2</ele>
<time>2024-05-09T11:12:51Z</time>
</trkpt>
<trkpt lat="49.65634535998106" lon="9.30757038295269">
<ele>423.2</ele>
<time>2024-05-09T11:12:52Z</time>
</trkpt>
<trkpt lat="49.65638726949692" lon="9.30755328387022">
<ele>423.4</ele>
<time>2024-05-09T11:12:53Z</time>
</trkpt>
<trkpt lat="49.65642926283181" lon="9.307537022978067">
<ele>423.4</ele>
<time>2024-05-09T11:12:54Z</time>
</trkpt>
<trkpt lat="49.656471172347665" lon="9.307519840076566">
<ele>423.6</ele>
<time>2024-05-09T11:12:55Z</time>
</trkpt>
<trkpt lat="49.656513165682554" lon="9.307503663003445">
<ele>423.6</ele>
<time>2024-05-09T11:12:56Z</time>
</trkpt>
<trkpt lat="49.656551303341985" lon="9.307483630254865">
<ele>423.8</ele>
<time>2024-05-09T11:12:57Z</time>
</trkpt>
<trkpt lat="49.656589441001415" lon="9.307463597506285">
<ele>423.8</ele>
<time>2024-05-09T11:12:58Z</time>
</trkpt>
<trkpt lat="49.656627578660846" lon="9.307443564757705">
<ele>423.8</ele>
<time>2024-05-09T11:12:59Z</time>
</trkpt>
<trkpt lat="49.65666194446385" lon="9.307423532009125">
<ele>423.8</ele>
<time>2024-05-09T11:13:00Z</time>
</trkpt>
<trkpt lat="49.65670008212328" lon="9.307403499260545">
<ele>423.8</ele>
<time>2024-05-09T11:13:01Z</time>
</trkpt>
<trkpt lat="49.65673444792628" lon="9.307381622493269">
<ele>424</ele>
<time>2024-05-09T11:13:02Z</time>
</trkpt>
<trkpt lat="49.656768729910254" lon="9.307358739897609">
<ele>424</ele>
<time>2024-05-09T11:13:03Z</time>
</trkpt>
<trkpt lat="49.65680309571326" lon="9.30733485147357">
<ele>424</ele>
<time>2024-05-09T11:13:04Z</time>
</trkpt>
<trkpt lat="49.6568336058408" lon="9.307311968877912">
<ele>424</ele>
<time>2024-05-09T11:13:05Z</time>
</trkpt>
<trkpt lat="49.656867971643806" lon="9.307283386588097">
<ele>424</ele>
<time>2024-05-09T11:13:06Z</time>
</trkpt>
<trkpt lat="49.65689848177135" lon="9.30725472047925">
<ele>424</ele>
<time>2024-05-09T11:13:07Z</time>
</trkpt>
<trkpt lat="49.65693276375532" lon="9.307226138189437">
<ele>424</ele>
<time>2024-05-09T11:13:08Z</time>
</trkpt>
<trkpt lat="49.656967129558325" lon="9.307198477908967">
<ele>424</ele>
<time>2024-05-09T11:13:09Z</time>
</trkpt>
<trkpt lat="49.65700149536133" lon="9.307169895619154">
<ele>424</ele>
<time>2024-05-09T11:13:10Z</time>
</trkpt>
<trkpt lat="49.65703200548887" lon="9.307141229510307">
<ele>424</ele>
<time>2024-05-09T11:13:11Z</time>
</trkpt>
<trkpt lat="49.65706628747285" lon="9.30711356922984">
<ele>424.2</ele>
<time>2024-05-09T11:13:12Z</time>
</trkpt>
<trkpt lat="49.65710065327585" lon="9.307084986940026">
<ele>424.2</ele>
<time>2024-05-09T11:13:13Z</time>
</trkpt>
<trkpt lat="49.65713116340339" lon="9.307053554803131">
<ele>424.2</ele>
<time>2024-05-09T11:13:14Z</time>
</trkpt>
<trkpt lat="49.657161673530936" lon="9.307023044675589">
<ele>424.4</ele>
<time>2024-05-09T11:13:15Z</time>
</trkpt>
<trkpt lat="49.65719603933394" lon="9.306996306404471">
<ele>424.4</ele>
<time>2024-05-09T11:13:16Z</time>
</trkpt>
<trkpt lat="49.65722654946149" lon="9.306969568133354">
<ele>424.6</ele>
<time>2024-05-09T11:13:17Z</time>
</trkpt>
<trkpt lat="49.65725705958903" lon="9.306942913681269">
<ele>424.6</ele>
<time>2024-05-09T11:13:18Z</time>
</trkpt>
<trkpt lat="49.657283714041114" lon="9.306916175410151">
<ele>424.8</ele>
<time>2024-05-09T11:13:19Z</time>
</trkpt>
<trkpt lat="49.65731422416866" lon="9.306891364976764">
<ele>425</ele>
<time>2024-05-09T11:13:20Z</time>
</trkpt>
<trkpt lat="49.657340962439775" lon="9.306864710524678">
<ele>425.2</ele>
<time>2024-05-09T11:13:21Z</time>
</trkpt>
<trkpt lat="49.65737147256732" lon="9.30683797225356">
<ele>425.4</ele>
<time>2024-05-09T11:13:22Z</time>
</trkpt>
<trkpt lat="49.65739821083844" lon="9.306813161820171">
<ele>425.6</ele>
<time>2024-05-09T11:13:23Z</time>
</trkpt>
<trkpt lat="49.65742872096598" lon="9.306788435205815">
<ele>425.8</ele>
<time>2024-05-09T11:13:24Z</time>
</trkpt>
<trkpt lat="49.657459231093526" lon="9.30676362477243">
<ele>426</ele>
<time>2024-05-09T11:13:25Z</time>
</trkpt>
<trkpt lat="49.65748588554561" lon="9.30674166418612">
<ele>426.2</ele>
<time>2024-05-09T11:13:26Z</time>
</trkpt>
<trkpt lat="49.65751647949219" lon="9.306717859581113">
<ele>426.2</ele>
<time>2024-05-09T11:13:27Z</time>
</trkpt>
<trkpt lat="49.65754313394427" lon="9.306697826832533">
<ele>426.4</ele>
<time>2024-05-09T11:13:28Z</time>
</trkpt>
<trkpt lat="49.65757749974728" lon="9.306676788255572">
<ele>426.6</ele>
<time>2024-05-09T11:13:29Z</time>
</trkpt>
<trkpt lat="49.65760800987482" lon="9.306656755506992">
<ele>426.8</ele>
<time>2024-05-09T11:13:30Z</time>
</trkpt>
<trkpt lat="49.65764229185879" lon="9.306636806577444">
<ele>427</ele>
<time>2024-05-09T11:13:31Z</time>
</trkpt>
<trkpt lat="49.65767280198634" lon="9.306618617847562">
<ele>427.2</ele>
<time>2024-05-09T11:13:32Z</time>
</trkpt>
<trkpt lat="49.65770339593291" lon="9.306601518765092">
<ele>427.4</ele>
<time>2024-05-09T11:13:33Z</time>
</trkpt>
<trkpt lat="49.65773767791688" lon="9.30658525787294">
<ele>427.6</ele>
<time>2024-05-09T11:13:34Z</time>
</trkpt>
<trkpt lat="49.65776818804443" lon="9.306570002809169">
<ele>427.8</ele>
<time>2024-05-09T11:13:35Z</time>
</trkpt>
<trkpt lat="49.65779869817197" lon="9.306556675583124">
<ele>428.2</ele>
<time>2024-05-09T11:13:36Z</time>
</trkpt>
<trkpt lat="49.65782920829952" lon="9.30654519237578">
<ele>428.4</ele>
<time>2024-05-09T11:13:37Z</time>
</trkpt>
<trkpt lat="49.65786357410252" lon="9.306533792987466">
<ele>428.6</ele>
<time>2024-05-09T11:13:38Z</time>
</trkpt>
<trkpt lat="49.657894084230065" lon="9.3065233156085">
<ele>428.8</ele>
<time>2024-05-09T11:13:39Z</time>
</trkpt>
<trkpt lat="49.65792845003307" lon="9.306513760238886">
<ele>429</ele>
<time>2024-05-09T11:13:40Z</time>
</trkpt>
<trkpt lat="49.65796273201704" lon="9.30650328285992">
<ele>429.2</ele>
<time>2024-05-09T11:13:41Z</time>
</trkpt>
<trkpt lat="49.657993242144585" lon="9.306494649499657">
<ele>429.4</ele>
<time>2024-05-09T11:13:42Z</time>
</trkpt>
<trkpt lat="49.65803146362305" lon="9.306487021967769">
<ele>429.6</ele>
<time>2024-05-09T11:13:43Z</time>
</trkpt>
<trkpt lat="49.65806197375059" lon="9.306478472426534">
<ele>429.8</ele>
<time>2024-05-09T11:13:44Z</time>
</trkpt>
<trkpt lat="49.65809625573456" lon="9.30646799504757">
<ele>430</ele>
<time>2024-05-09T11:13:45Z</time>
</trkpt>
<trkpt lat="49.65812676586211" lon="9.30646321736276">
<ele>430.2</ele>
<time>2024-05-09T11:13:46Z</time>
</trkpt>
<trkpt lat="49.65815727598965" lon="9.30646321736276">
<ele>430.4</ele>
<time>2024-05-09T11:13:47Z</time>
</trkpt>
<trkpt lat="49.658191641792655" lon="9.306465145200493">
<ele>430.8</ele>
<time>2024-05-09T11:13:48Z</time>
</trkpt>
<trkpt lat="49.6582221519202" lon="9.306465145200493">
<ele>431</ele>
<time>2024-05-09T11:13:49Z</time>
</trkpt>
<trkpt lat="49.6582565177232" lon="9.306465145200493">
<ele>431.2</ele>
<time>2024-05-09T11:13:50Z</time>
</trkpt>
<trkpt lat="49.65828702785075" lon="9.30646799504757">
<ele>431.4</ele>
<time>2024-05-09T11:13:51Z</time>
</trkpt>
<trkpt lat="49.65832130983472" lon="9.306469839066269">
<ele>431.6</ele>
<time>2024-05-09T11:13:52Z</time>
</trkpt>
<trkpt lat="49.65835181996226" lon="9.306473694741726">
<ele>432</ele>
<time>2024-05-09T11:13:53Z</time>
</trkpt>
<trkpt lat="49.658386185765266" lon="9.306478472426534">
<ele>432.2</ele>
<time>2024-05-09T11:13:54Z</time>
</trkpt>
<trkpt lat="49.65841669589281" lon="9.30648325011134">
<ele>432.4</ele>
<time>2024-05-09T11:13:55Z</time>
</trkpt>
<trkpt lat="49.658447206020355" lon="9.306494649499657">
<ele>432.6</ele>
<time>2024-05-09T11:13:56Z</time>
</trkpt>
<trkpt lat="49.65848157182336" lon="9.306501355022192">
<ele>432.8</ele>
<time>2024-05-09T11:13:57Z</time>
</trkpt>
<trkpt lat="49.6585120819509" lon="9.30650806054473">
<ele>433</ele>
<time>2024-05-09T11:13:58Z</time>
</trkpt>
<trkpt lat="49.65854259207845" lon="9.306518537923694">
<ele>433.2</ele>
<time>2024-05-09T11:13:59Z</time>
</trkpt>
<trkpt lat="49.65857310220599" lon="9.306531865149736">
<ele>433.4</ele>
<time>2024-05-09T11:14:00Z</time>
</trkpt>
<trkpt lat="49.658603612333536" lon="9.306548042222856">
<ele>433.6</ele>
<time>2024-05-09T11:14:01Z</time>
</trkpt>
<trkpt lat="49.65863412246108" lon="9.306568074971436">
<ele>433.8</ele>
<time>2024-05-09T11:14:02Z</time>
</trkpt>
<trkpt lat="49.658664632588625" lon="9.30658626370132">
<ele>434.2</ele>
<time>2024-05-09T11:14:03Z</time>
</trkpt>
<trkpt lat="49.65869899839163" lon="9.30660336278379">
<ele>434.4</ele>
<time>2024-05-09T11:14:04Z</time>
</trkpt>
<trkpt lat="49.65873336419463" lon="9.306621551513672">
<ele>434.6</ele>
<time>2024-05-09T11:14:05Z</time>
</trkpt>
<trkpt lat="49.658763874322176" lon="9.30664150044322">
<ele>434.8</ele>
<time>2024-05-09T11:14:06Z</time>
</trkpt>
<trkpt lat="49.65879815630615" lon="9.306658683344722">
<ele>435.2</ele>
<time>2024-05-09T11:14:07Z</time>
</trkpt>
<trkpt lat="49.65883252210915" lon="9.306674944236876">
<ele>435.2</ele>
<time>2024-05-09T11:14:08Z</time>
</trkpt>
<trkpt lat="49.65886680409312" lon="9.306692043319345">
<ele>435.6</ele>
<time>2024-05-09T11:14:09Z</time>
</trkpt>
<trkpt lat="49.658901169896126" lon="9.306708304211496">
<ele>435.8</ele>
<time>2024-05-09T11:14:10Z</time>
</trkpt>
<trkpt lat="49.65893168002367" lon="9.30672355927527">
<ele>436</ele>
<time>2024-05-09T11:14:11Z</time>
</trkpt>
<trkpt lat="49.65896604582667" lon="9.30673973634839">
<ele>436</ele>
<time>2024-05-09T11:14:12Z</time>
</trkpt>
<trkpt lat="49.659000327810645" lon="9.306757925078273">
<ele>436.2</ele>
<time>2024-05-09T11:14:13Z</time>
</trkpt>
<trkpt lat="49.65903083793819" lon="9.306776951998472">
<ele>436.4</ele>
<time>2024-05-09T11:14:14Z</time>
</trkpt>
<trkpt lat="49.65906520374119" lon="9.306793212890623">
<ele>436.6</ele>
<time>2024-05-09T11:14:15Z</time>
</trkpt>
<trkpt lat="49.65909571386874" lon="9.306810311973097">
<ele>436.8</ele>
<time>2024-05-09T11:14:16Z</time>
</trkpt>
<trkpt lat="49.65913007967174" lon="9.306826572865248">
<ele>437</ele>
<time>2024-05-09T11:14:17Z</time>
</trkpt>
<trkpt lat="49.65916436165571" lon="9.30684182792902">
<ele>437.2</ele>
<time>2024-05-09T11:14:18Z</time>
</trkpt>
<trkpt lat="49.659198727458715" lon="9.306855155155064">
<ele>437.4</ele>
<time>2024-05-09T11:14:19Z</time>
</trkpt>
<trkpt lat="49.65923309326172" lon="9.306871332228184">
<ele>437.6</ele>
<time>2024-05-09T11:14:20Z</time>
</trkpt>
<trkpt lat="49.65927123092115" lon="9.306891364976764">
<ele>437.8</ele>
<time>2024-05-09T11:14:21Z</time>
</trkpt>
<trkpt lat="49.659301741048694" lon="9.306909553706646">
<ele>438</ele>
<time>2024-05-09T11:14:22Z</time>
</trkpt>
<trkpt lat="49.65933987870813" lon="9.30692003108561">
<ele>438</ele>
<time>2024-05-09T11:14:23Z</time>
</trkpt>
<trkpt lat="49.659374160692096" lon="9.306929586455226">
<ele>438.2</ele>
<time>2024-05-09T11:14:24Z</time>
</trkpt>
<trkpt lat="49.6594085264951" lon="9.30694006383419">
<ele>438.4</ele>
<time>2024-05-09T11:14:25Z</time>
</trkpt>
<trkpt lat="49.65944666415453" lon="9.306948613375424">
<ele>438.4</ele>
<time>2024-05-09T11:14:26Z</time>
</trkpt>
<trkpt lat="49.65948102995753" lon="9.306956240907311">
<ele>438.6</ele>
<time>2024-05-09T11:14:27Z</time>
</trkpt>
<trkpt lat="49.659515311941504" lon="9.306962946429849">
<ele>438.6</ele>
<time>2024-05-09T11:14:28Z</time>
</trkpt>
<trkpt lat="49.659553449600935" lon="9.306969568133354">
<ele>438.8</ele>
<time>2024-05-09T11:14:29Z</time>
</trkpt>
<trkpt lat="49.65958404354751" lon="9.30698012933135">
<ele>439</ele>
<time>2024-05-09T11:14:30Z</time>
</trkpt>
<trkpt lat="49.65961832553148" lon="9.306986751034856">
<ele>439.2</ele>
<time>2024-05-09T11:14:31Z</time>
</trkpt>
<trkpt lat="49.65965646319091" lon="9.306993456557391">
<ele>439.2</ele>
<time>2024-05-09T11:14:32Z</time>
</trkpt>
<trkpt lat="49.65969082899392" lon="9.3070000782609">
<ele>439.4</ele>
<time>2024-05-09T11:14:33Z</time>
</trkpt>
<trkpt lat="49.65972896665335" lon="9.307004855945706">
<ele>439.4</ele>
<time>2024-05-09T11:14:34Z</time>
</trkpt>
<trkpt lat="49.65976333245635" lon="9.307011561468244">
<ele>439.6</ele>
<time>2024-05-09T11:14:35Z</time>
</trkpt>
<trkpt lat="49.65979761444032" lon="9.307016339153051">
<ele>439.6</ele>
<time>2024-05-09T11:14:36Z</time>
</trkpt>
<trkpt lat="49.65983575209975" lon="9.307026816532016">
<ele>439.8</ele>
<time>2024-05-09T11:14:37Z</time>
</trkpt>
<trkpt lat="49.65987011790275" lon="9.30703829973936">
<ele>439.8</ele>
<time>2024-05-09T11:14:38Z</time>
</trkpt>
<trkpt lat="49.65990439988673" lon="9.307049699127674">
<ele>440</ele>
<time>2024-05-09T11:14:39Z</time>
</trkpt>
<trkpt lat="49.65993876568973" lon="9.30706017650664">
<ele>440.2</ele>
<time>2024-05-09T11:14:40Z</time>
</trkpt>
<trkpt lat="49.659973131492734" lon="9.307067804038525">
<ele>440.4</ele>
<time>2024-05-09T11:14:41Z</time>
</trkpt>
<trkpt lat="49.660007413476706" lon="9.307074509561062">
<ele>440.6</ele>
<time>2024-05-09T11:14:42Z</time>
</trkpt>
<trkpt lat="49.66004177927971" lon="9.307083059102297">
<ele>440.8</ele>
<time>2024-05-09T11:14:43Z</time>
</trkpt>
<trkpt lat="49.66007991693914" lon="9.307091692462564">
<ele>441</ele>
<time>2024-05-09T11:14:44Z</time>
</trkpt>
<trkpt lat="49.66011805459857" lon="9.30710124783218">
<ele>441.2</ele>
<time>2024-05-09T11:14:45Z</time>
</trkpt>
<trkpt lat="49.660156192258" lon="9.307111725211143">
<ele>441.4</ele>
<time>2024-05-09T11:14:46Z</time>
</trkpt>
<trkpt lat="49.66019055806101" lon="9.307121196761727">
<ele>441.6</ele>
<time>2024-05-09T11:14:47Z</time>
</trkpt>
<trkpt lat="49.660228695720434" lon="9.307129830121994">
<ele>441.8</ele>
<time>2024-05-09T11:14:48Z</time>
</trkpt>
<trkpt lat="49.660266833379865" lon="9.307140307500958">
<ele>441.8</ele>
<time>2024-05-09T11:14:49Z</time>
</trkpt>
<trkpt lat="49.660304971039295" lon="9.307147935032845">
<ele>442</ele>
<time>2024-05-09T11:14:50Z</time>
</trkpt>
<trkpt lat="49.660343108698726" lon="9.30715648457408">
<ele>442</ele>
<time>2024-05-09T11:14:51Z</time>
</trkpt>
<trkpt lat="49.66037747450173" lon="9.307163190096617">
<ele>442.2</ele>
<time>2024-05-09T11:14:52Z</time>
</trkpt>
<trkpt lat="49.66041561216116" lon="9.307171739637852">
<ele>442.2</ele>
<time>2024-05-09T11:14:53Z</time>
</trkpt>
<trkpt lat="49.66044997796416" lon="9.307180372998118">
<ele>442.4</ele>
<time>2024-05-09T11:14:54Z</time>
</trkpt>
<trkpt lat="49.66048811562359" lon="9.307185150682926">
<ele>442.6</ele>
<time>2024-05-09T11:14:55Z</time>
</trkpt>
<trkpt lat="49.660526253283024" lon="9.307187078520656">
<ele>442.4</ele>
<time>2024-05-09T11:14:56Z</time>
</trkpt>
<trkpt lat="49.660564390942454" lon="9.307189928367734">
<ele>442.4</ele>
<time>2024-05-09T11:14:57Z</time>
</trkpt>
<trkpt lat="49.660602528601885" lon="9.30719370022416">
<ele>442.4</ele>
<time>2024-05-09T11:14:58Z</time>
</trkpt>
<trkpt lat="49.660640666261315" lon="9.307200405746698">
<ele>442.6</ele>
<time>2024-05-09T11:14:59Z</time>
</trkpt>
<trkpt lat="49.660678803920746" lon="9.307205183431506">
<ele>442.6</ele>
<time>2024-05-09T11:15:00Z</time>
</trkpt>
<trkpt lat="49.66071316972375" lon="9.307208033278584">
<ele>442.8</ele>
<time>2024-05-09T11:15:01Z</time>
</trkpt>
<trkpt lat="49.66075507923961" lon="9.307208033278584">
<ele>443</ele>
<time>2024-05-09T11:15:02Z</time>
</trkpt>
<trkpt lat="49.66078944504261" lon="9.307207027450204">
<ele>443</ele>
<time>2024-05-09T11:15:03Z</time>
</trkpt>
<trkpt lat="49.66082758270204" lon="9.307205183431506">
<ele>443.2</ele>
<time>2024-05-09T11:15:04Z</time>
</trkpt>
<trkpt lat="49.66086572036147" lon="9.307201327756047">
<ele>443.2</ele>
<time>2024-05-09T11:15:05Z</time>
</trkpt>
<trkpt lat="49.660900086164474" lon="9.30719655007124">
<ele>443.4</ele>
<time>2024-05-09T11:15:06Z</time>
</trkpt>
<trkpt lat="49.660934368148446" lon="9.307189928367734">
<ele>443.6</ele>
<time>2024-05-09T11:15:07Z</time>
</trkpt>
<trkpt lat="49.66096496209502" lon="9.307183222845197">
<ele>444</ele>
<time>2024-05-09T11:15:08Z</time>
</trkpt>
<trkpt lat="49.66099547222257" lon="9.307174673303962">
<ele>444.2</ele>
<time>2024-05-09T11:15:09Z</time>
</trkpt>
<trkpt lat="49.66102975420654" lon="9.307167967781425">
<ele>444.4</ele>
<time>2024-05-09T11:15:10Z</time>
</trkpt>
<trkpt lat="49.66106026433408" lon="9.307160340249538">
<ele>444.8</ele>
<time>2024-05-09T11:15:11Z</time>
</trkpt>
<trkpt lat="49.66109077446163" lon="9.307147935032845">
<ele>445</ele>
<time>2024-05-09T11:15:12Z</time>
</trkpt>
<trkpt lat="49.66112514026463" lon="9.307136535644531">
<ele>445.2</ele>
<time>2024-05-09T11:15:13Z</time>
</trkpt>
<trkpt lat="49.661159506067634" lon="9.307125052437186">
<ele>445.4</ele>
<time>2024-05-09T11:15:14Z</time>
</trkpt>
<trkpt lat="49.66119001619518" lon="9.307109797373414">
<ele>445.4</ele>
<time>2024-05-09T11:15:15Z</time>
</trkpt>
<trkpt lat="49.66121667064726" lon="9.307094542309642">
<ele>445.6</ele>
<time>2024-05-09T11:15:16Z</time>
</trkpt>
<trkpt lat="49.66124718077481" lon="9.3070812150836">
<ele>445.8</ele>
<time>2024-05-09T11:15:17Z</time>
</trkpt>
<trkpt lat="49.66127769090235" lon="9.307066882029176">
<ele>446</ele>
<time>2024-05-09T11:15:18Z</time>
</trkpt>
<trkpt lat="49.66130828484893" lon="9.307051626965404">
<ele>446.2</ele>
<time>2024-05-09T11:15:19Z</time>
</trkpt>
<trkpt lat="49.661334939301014" lon="9.307036371901631">
<ele>446.6</ele>
<time>2024-05-09T11:15:20Z</time>
</trkpt>
<trkpt lat="49.66136930510402" lon="9.30702011100948">
<ele>446.8</ele>
<time>2024-05-09T11:15:21Z</time>
</trkpt>
<trkpt lat="49.6613959595561" lon="9.3069982342422">
<ele>447</ele>
<time>2024-05-09T11:15:22Z</time>
</trkpt>
<trkpt lat="49.66142646968365" lon="9.30697820149362">
<ele>447.2</ele>
<time>2024-05-09T11:15:23Z</time>
</trkpt>
<trkpt lat="49.66145697981119" lon="9.306956240907311">
<ele>447.2</ele>
<time>2024-05-09T11:15:24Z</time>
</trkpt>
<trkpt lat="49.66148757375777" lon="9.306933358311651">
<ele>447.4</ele>
<time>2024-05-09T11:15:25Z</time>
</trkpt>
<trkpt lat="49.66151808388531" lon="9.306909553706646">
<ele>447.6</ele>
<time>2024-05-09T11:15:26Z</time>
</trkpt>
<trkpt lat="49.6615447383374" lon="9.306888515129684">
<ele>447.8</ele>
<time>2024-05-09T11:15:27Z</time>
</trkpt>
<trkpt lat="49.661571476608515" lon="9.306863704696298">
<ele>448</ele>
<time>2024-05-09T11:15:28Z</time>
</trkpt>
<trkpt lat="49.6615981310606" lon="9.30683990009129">
<ele>448.2</ele>
<time>2024-05-09T11:15:29Z</time>
</trkpt>
<trkpt lat="49.66162101365626" lon="9.306815089657904">
<ele>448.4</ele>
<time>2024-05-09T11:15:30Z</time>
</trkpt>
<trkpt lat="49.661647751927376" lon="9.306791285052896">
<ele>448.6</ele>
<time>2024-05-09T11:15:31Z</time>
</trkpt>
<trkpt lat="49.66167826205492" lon="9.306768402457235">
<ele>448.6</ele>
<time>2024-05-09T11:15:32Z</time>
</trkpt>
<trkpt lat="49.66170500032604" lon="9.306746441870928">
<ele>448.8</ele>
<time>2024-05-09T11:15:33Z</time>
</trkpt>
<trkpt lat="49.66173165477812" lon="9.306724481284618">
<ele>449</ele>
<time>2024-05-09T11:15:34Z</time>
</trkpt>
<trkpt lat="49.66175839304924" lon="9.30670352652669">
<ele>449</ele>
<time>2024-05-09T11:15:35Z</time>
</trkpt>
<trkpt lat="49.661785047501326" lon="9.30668349377811">
<ele>449.2</ele>
<time>2024-05-09T11:15:36Z</time>
</trkpt>
<trkpt lat="49.66181178577244" lon="9.306658683344722">
<ele>449.4</ele>
<time>2024-05-09T11:15:37Z</time>
</trkpt>
<trkpt lat="49.66183852404356" lon="9.306632950901983">
<ele>449.8</ele>
<time>2024-05-09T11:15:38Z</time>
</trkpt>
<trkpt lat="49.661865178495646" lon="9.306606212630868">
<ele>450</ele>
<time>2024-05-09T11:15:39Z</time>
</trkpt>
<trkpt lat="49.66189191676676" lon="9.306581486016512">
<ele>450.2</ele>
<time>2024-05-09T11:15:40Z</time>
</trkpt>
<trkpt lat="49.66191857121885" lon="9.306554747745396">
<ele>450.4</ele>
<time>2024-05-09T11:15:41Z</time>
</trkpt>
<trkpt lat="49.661945309489965" lon="9.306529937312009">
<ele>450.6</ele>
<time>2024-05-09T11:15:42Z</time>
</trkpt>
<trkpt lat="49.661968192085624" lon="9.306501355022192">
<ele>450.8</ele>
<time>2024-05-09T11:15:43Z</time>
</trkpt>
<trkpt lat="49.66199493035674" lon="9.306474616751077">
<ele>451</ele>
<time>2024-05-09T11:15:44Z</time>
</trkpt>
<trkpt lat="49.662025440484285" lon="9.306446956470609">
<ele>451.2</ele>
<time>2024-05-09T11:15:45Z</time>
</trkpt>
<trkpt lat="49.66205595061183" lon="9.306418374180794">
<ele>451.4</ele>
<time>2024-05-09T11:15:46Z</time>
</trkpt>
<trkpt lat="49.662086460739374" lon="9.306391635909677">
<ele>451.6</ele>
<time>2024-05-09T11:15:47Z</time>
</trkpt>
<trkpt lat="49.66211311519146" lon="9.306363053619862">
<ele>451.8</ele>
<time>2024-05-09T11:15:48Z</time>
</trkpt>
<trkpt lat="49.66214362531901" lon="9.306335393339396">
<ele>452</ele>
<time>2024-05-09T11:15:49Z</time>
</trkpt>
<trkpt lat="49.66217036359012" lon="9.30630873888731">
<ele>452</ele>
<time>2024-05-09T11:15:50Z</time>
</trkpt>
<trkpt lat="49.662200873717666" lon="9.306282000616193">
<ele>452.2</ele>
<time>2024-05-09T11:15:51Z</time>
</trkpt>
<trkpt lat="49.66223138384521" lon="9.306256268173456">
<ele>452.2</ele>
<time>2024-05-09T11:15:52Z</time>
</trkpt>
<trkpt lat="49.66225812211633" lon="9.30622952990234">
<ele>452.4</ele>
<time>2024-05-09T11:15:53Z</time>
</trkpt>
<trkpt lat="49.6622924041003" lon="9.306202875450252">
<ele>452.4</ele>
<time>2024-05-09T11:15:54Z</time>
</trkpt>
<trkpt lat="49.662322998046875" lon="9.306178065016866">
<ele>452.6</ele>
<time>2024-05-09T11:15:55Z</time>
</trkpt>
<trkpt lat="49.66235350817442" lon="9.306153254583478">
<ele>452.8</ele>
<time>2024-05-09T11:15:56Z</time>
</trkpt>
<trkpt lat="49.66237639077008" lon="9.30613037198782">
<ele>453</ele>
<time>2024-05-09T11:15:57Z</time>
</trkpt>
<trkpt lat="49.66240690089762" lon="9.306111261248589">
<ele>453.2</ele>
<time>2024-05-09T11:15:58Z</time>
</trkpt>
<trkpt lat="49.66243355534971" lon="9.306095084175467">
<ele>453.4</ele>
<time>2024-05-09T11:15:59Z</time>
</trkpt>
<trkpt lat="49.66246792115271" lon="9.306077901273966">
<ele>453.6</ele>
<time>2024-05-09T11:16:00Z</time>
</trkpt>
<trkpt lat="49.662498431280255" lon="9.306059796363115">
<ele>453.8</ele>
<time>2024-05-09T11:16:01Z</time>
</trkpt>
<trkpt lat="49.6625289414078" lon="9.306041691452265">
<ele>454</ele>
<time>2024-05-09T11:16:02Z</time>
</trkpt>
<trkpt lat="49.66255567967892" lon="9.306021658703685">
<ele>454</ele>
<time>2024-05-09T11:16:03Z</time>
</trkpt>
<trkpt lat="49.66258996166289" lon="9.306003553792834">
<ele>454.2</ele>
<time>2024-05-09T11:16:04Z</time>
</trkpt>
<trkpt lat="49.662616699934006" lon="9.305983521044254">
<ele>454.4</ele>
<time>2024-05-09T11:16:05Z</time>
</trkpt>
<trkpt lat="49.66265098191798" lon="9.305963488295674">
<ele>454.4</ele>
<time>2024-05-09T11:16:06Z</time>
</trkpt>
<trkpt lat="49.66268157586455" lon="9.305946305394173">
<ele>454.6</ele>
<time>2024-05-09T11:16:07Z</time>
</trkpt>
<trkpt lat="49.662715857848525" lon="9.305930128321052">
<ele>454.8</ele>
<time>2024-05-09T11:16:08Z</time>
</trkpt>
<trkpt lat="49.66275022365153" lon="9.30591294541955">
<ele>454.8</ele>
<time>2024-05-09T11:16:09Z</time>
</trkpt>
<trkpt lat="49.66278073377907" lon="9.3058948405087">
<ele>455</ele>
<time>2024-05-09T11:16:10Z</time>
</trkpt>
<trkpt lat="49.66281501576304" lon="9.30587480776012">
<ele>455</ele>
<time>2024-05-09T11:16:11Z</time>
</trkpt>
<trkpt lat="49.66284938156605" lon="9.30585284717381">
<ele>455.2</ele>
<time>2024-05-09T11:16:12Z</time>
</trkpt>
<trkpt lat="49.66287989169359" lon="9.305829964578152">
<ele>455.2</ele>
<time>2024-05-09T11:16:13Z</time>
</trkpt>
<trkpt lat="49.662914257496595" lon="9.305805154144764">
<ele>455.4</ele>
<time>2024-05-09T11:16:14Z</time>
</trkpt>
<trkpt lat="49.66294476762414" lon="9.305776571854947">
<ele>455.4</ele>
<time>2024-05-09T11:16:15Z</time>
</trkpt>
<trkpt lat="49.66297527775168" lon="9.305746983736752">
<ele>455.4</ele>
<time>2024-05-09T11:16:16Z</time>
</trkpt>
<trkpt lat="49.66300578787923" lon="9.30571840144694">
<ele>455.4</ele>
<time>2024-05-09T11:16:17Z</time>
</trkpt>
<trkpt lat="49.66303629800677" lon="9.305687891319394">
<ele>455.4</ele>
<time>2024-05-09T11:16:18Z</time>
</trkpt>
<trkpt lat="49.66306303627789" lon="9.30565444752574">
<ele>455.6</ele>
<time>2024-05-09T11:16:19Z</time>
</trkpt>
<trkpt lat="49.663089690729976" lon="9.30561630986631">
<ele>455.6</ele>
<time>2024-05-09T11:16:20Z</time>
</trkpt>
<trkpt lat="49.66311642900109" lon="9.30557624436915">
<ele>455.4</ele>
<time>2024-05-09T11:16:21Z</time>
</trkpt>
<trkpt lat="49.66314308345318" lon="9.30553525686264">
<ele>455.4</ele>
<time>2024-05-09T11:16:22Z</time>
</trkpt>
<trkpt lat="49.66316219419241" lon="9.305491419509051">
<ele>455.4</ele>
<time>2024-05-09T11:16:23Z</time>
</trkpt>
<trkpt lat="49.66318507678807" lon="9.305444648489356">
<ele>455.4</ele>
<time>2024-05-09T11:16:24Z</time>
</trkpt>
<trkpt lat="49.663211815059185" lon="9.30539695546031">
<ele>455.4</ele>
<time>2024-05-09T11:16:25Z</time>
</trkpt>
<trkpt lat="49.66323469765484" lon="9.305350268259645">
<ele>455.4</ele>
<time>2024-05-09T11:16:26Z</time>
</trkpt>
<trkpt lat="49.66325372457504" lon="9.30530165322125">
<ele>455.6</ele>
<time>2024-05-09T11:16:27Z</time>
</trkpt>
<trkpt lat="49.6632766071707" lon="9.305248260498049">
<ele>455.8</ele>
<time>2024-05-09T11:16:28Z</time>
</trkpt>
<trkpt lat="49.66329948976636" lon="9.305198639631271">
<ele>456</ele>
<time>2024-05-09T11:16:29Z</time>
</trkpt>
<trkpt lat="49.66332622803748" lon="9.305150024592876">
<ele>456.2</ele>
<time>2024-05-09T11:16:30Z</time>
</trkpt>
<trkpt lat="49.663349110633135" lon="9.30510132573545">
<ele>456.4</ele>
<time>2024-05-09T11:16:31Z</time>
</trkpt>
<trkpt lat="49.66337199322879" lon="9.305053632706404">
<ele>456.6</ele>
<time>2024-05-09T11:16:32Z</time>
</trkpt>
<trkpt lat="49.66339487582445" lon="9.305006945505738">
<ele>456.8</ele>
<time>2024-05-09T11:16:33Z</time>
</trkpt>
<trkpt lat="49.66342161409557" lon="9.304958330467343">
<ele>457</ele>
<time>2024-05-09T11:16:34Z</time>
</trkpt>
<trkpt lat="49.66344449669123" lon="9.304909631609917">
<ele>457.2</ele>
<time>2024-05-09T11:16:35Z</time>
</trkpt>
<trkpt lat="49.663467379286885" lon="9.304862022399902">
<ele>457.6</ele>
<time>2024-05-09T11:16:36Z</time>
</trkpt>
<trkpt lat="49.663490261882544" lon="9.304813323542476">
<ele>457.8</ele>
<time>2024-05-09T11:16:37Z</time>
</trkpt>
<trkpt lat="49.6635131444782" lon="9.30476470850408">
<ele>458</ele>
<time>2024-05-09T11:16:38Z</time>
</trkpt>
<trkpt lat="49.66353602707386" lon="9.304717937484384">
<ele>458</ele>
<time>2024-05-09T11:16:39Z</time>
</trkpt>
<trkpt lat="49.66355890966952" lon="9.30467032827437">
<ele>458.2</ele>
<time>2024-05-09T11:16:40Z</time>
</trkpt>
<trkpt lat="49.66358179226518" lon="9.304621629416944">
<ele>458.4</ele>
<time>2024-05-09T11:16:41Z</time>
</trkpt>
<trkpt lat="49.663604674860835" lon="9.304573014378548">
<ele>458.4</ele>
<time>2024-05-09T11:16:42Z</time>
</trkpt>
<trkpt lat="49.66362755745649" lon="9.304523393511772">
<ele>458.6</ele>
<time>2024-05-09T11:16:43Z</time>
</trkpt>
<trkpt lat="49.663646668195724" lon="9.304474778473375">
<ele>458.8</ele>
<time>2024-05-09T11:16:44Z</time>
</trkpt>
<trkpt lat="49.66367332264781" lon="9.304425157606602">
<ele>459</ele>
<time>2024-05-09T11:16:45Z</time>
</trkpt>
<trkpt lat="49.6636962890625" lon="9.304376542568209">
<ele>459</ele>
<time>2024-05-09T11:16:46Z</time>
</trkpt>
<trkpt lat="49.66371917165816" lon="9.30432985536754">
<ele>459.2</ele>
<time>2024-05-09T11:16:47Z</time>
</trkpt>
<trkpt lat="49.66373819857836" lon="9.304280234500766">
<ele>459.4</ele>
<time>2024-05-09T11:16:48Z</time>
</trkpt>
<trkpt lat="49.663764936849475" lon="9.30423161946237">
<ele>459.6</ele>
<time>2024-05-09T11:16:49Z</time>
</trkpt>
<trkpt lat="49.66378781944513" lon="9.304183004423976">
<ele>459.8</ele>
<time>2024-05-09T11:16:50Z</time>
</trkpt>
<trkpt lat="49.66381070204079" lon="9.304138161242008">
<ele>460</ele>
<time>2024-05-09T11:16:51Z</time>
</trkpt>
<trkpt lat="49.66383735649288" lon="9.30409331806004">
<ele>460</ele>
<time>2024-05-09T11:16:52Z</time>
</trkpt>
<trkpt lat="49.663864094763994" lon="9.30405325256288">
<ele>460.2</ele>
<time>2024-05-09T11:16:53Z</time>
</trkpt>
<trkpt lat="49.66389083303511" lon="9.304011343047025">
<ele>460.4</ele>
<time>2024-05-09T11:16:54Z</time>
</trkpt>
<trkpt lat="49.663921343162656" lon="9.303970271721482">
<ele>460.4</ele>
<time>2024-05-09T11:16:55Z</time>
</trkpt>
<trkpt lat="49.6639518532902" lon="9.303930206224322">
<ele>460.4</ele>
<time>2024-05-09T11:16:56Z</time>
</trkpt>
<trkpt lat="49.663982363417745" lon="9.303888296708465">
<ele>460.6</ele>
<time>2024-05-09T11:16:57Z</time>
</trkpt>
<trkpt lat="49.66401287354529" lon="9.303848231211305">
<ele>460.8</ele>
<time>2024-05-09T11:16:58Z</time>
</trkpt>
<trkpt lat="49.66404338367283" lon="9.303810093551874">
<ele>461</ele>
<time>2024-05-09T11:16:59Z</time>
</trkpt>
<trkpt lat="49.664081521332264" lon="9.303770028054714">
<ele>461</ele>
<time>2024-05-09T11:17:00Z</time>
</trkpt>
<trkpt lat="49.66411588713527" lon="9.303731890395284">
<ele>461.2</ele>
<time>2024-05-09T11:17:01Z</time>
</trkpt>
<trkpt lat="49.6641540247947" lon="9.30369853042066">
<ele>461.4</ele>
<time>2024-05-09T11:17:02Z</time>
</trkpt>
<trkpt lat="49.664195934310555" lon="9.303663242608309">
<ele>461.4</ele>
<time>2024-05-09T11:17:03Z</time>
</trkpt>
<trkpt lat="49.66423415578902" lon="9.303629798814654">
<ele>461.6</ele>
<time>2024-05-09T11:17:04Z</time>
</trkpt>
<trkpt lat="49.664276065304875" lon="9.30360121652484">
<ele>461.6</ele>
<time>2024-05-09T11:17:05Z</time>
</trkpt>
<trkpt lat="49.664318058639765" lon="9.303574562072754">
<ele>461.6</ele>
<time>2024-05-09T11:17:06Z</time>
</trkpt>
<trkpt lat="49.66435996815562" lon="9.303549751639366">
<ele>461.8</ele>
<time>2024-05-09T11:17:07Z</time>
</trkpt>
<trkpt lat="49.66440196149051" lon="9.303524941205978">
<ele>461.6</ele>
<time>2024-05-09T11:17:08Z</time>
</trkpt>
<trkpt lat="49.66444009914994" lon="9.30350013077259">
<ele>461.6</ele>
<time>2024-05-09T11:17:09Z</time>
</trkpt>
<trkpt lat="49.66448209248483" lon="9.303475320339205">
<ele>461.6</ele>
<time>2024-05-09T11:17:10Z</time>
</trkpt>
<trkpt lat="49.66452023014426" lon="9.303451515734196">
<ele>461.4</ele>
<time>2024-05-09T11:17:11Z</time>
</trkpt>
<trkpt lat="49.66456222347915" lon="9.303429555147886">
<ele>461.4</ele>
<time>2024-05-09T11:17:12Z</time>
</trkpt>
<trkpt lat="49.66460413299501" lon="9.303409522399306">
<ele>461.2</ele>
<time>2024-05-09T11:17:13Z</time>
</trkpt>
<trkpt lat="49.664649898186326" lon="9.303391417488456">
<ele>461.2</ele>
<time>2024-05-09T11:17:14Z</time>
</trkpt>
<trkpt lat="49.664691891521215" lon="9.303375240415336">
<ele>461</ele>
<time>2024-05-09T11:17:15Z</time>
</trkpt>
<trkpt lat="49.664733884856105" lon="9.303357051685452">
<ele>461</ele>
<time>2024-05-09T11:17:16Z</time>
</trkpt>
<trkpt lat="49.66477965004742" lon="9.30334372445941">
<ele>460.8</ele>
<time>2024-05-09T11:17:17Z</time>
</trkpt>
<trkpt lat="49.66482541523874" lon="9.303328469395638">
<ele>460.8</ele>
<time>2024-05-09T11:17:18Z</time>
</trkpt>
<trkpt lat="49.664871180430055" lon="9.303313214331864">
<ele>460.8</ele>
<time>2024-05-09T11:17:19Z</time>
</trkpt>
<trkpt lat="49.664913173764944" lon="9.303297959268091">
<ele>460.6</ele>
<time>2024-05-09T11:17:20Z</time>
</trkpt>
<trkpt lat="49.6649550832808" lon="9.30328362621367">
<ele>460.6</ele>
<time>2024-05-09T11:17:21Z</time>
</trkpt>
<trkpt lat="49.66500084847212" lon="9.303270298987629">
<ele>460.4</ele>
<time>2024-05-09T11:17:22Z</time>
</trkpt>
<trkpt lat="49.66504284180701" lon="9.303253116086124">
<ele>460.4</ele>
<time>2024-05-09T11:17:23Z</time>
</trkpt>
<trkpt lat="49.6650848351419" lon="9.303239788860084">
<ele>460.2</ele>
<time>2024-05-09T11:17:24Z</time>
</trkpt>
<trkpt lat="49.665126744657755" lon="9.30322646163404">
<ele>460</ele>
<time>2024-05-09T11:17:25Z</time>
</trkpt>
<trkpt lat="49.66517250984907" lon="9.303213050588964">
<ele>460</ele>
<time>2024-05-09T11:17:26Z</time>
</trkpt>
<trkpt lat="49.66521827504039" lon="9.303201651200652">
<ele>459.8</ele>
<time>2024-05-09T11:17:27Z</time>
</trkpt>
<trkpt lat="49.665264124050736" lon="9.303190167993307">
<ele>459.8</ele>
<time>2024-05-09T11:17:28Z</time>
</trkpt>
<trkpt lat="49.66530988924205" lon="9.303178768604994">
<ele>459.8</ele>
<time>2024-05-09T11:17:29Z</time>
</trkpt>
<trkpt lat="49.66535565443337" lon="9.3031663633883">
<ele>459.6</ele>
<time>2024-05-09T11:17:30Z</time>
</trkpt>
<trkpt lat="49.665401419624686" lon="9.303154880180957">
<ele>459.6</ele>
<time>2024-05-09T11:17:31Z</time>
</trkpt>
<trkpt lat="49.665443412959576" lon="9.30314825847745">
<ele>459.6</ele>
<time>2024-05-09T11:17:32Z</time>
</trkpt>
<trkpt lat="49.66549295000732" lon="9.303145408630373">
<ele>459.6</ele>
<time>2024-05-09T11:17:33Z</time>
</trkpt>
<trkpt lat="49.66553494334221" lon="9.30314633063972">
<ele>459.4</ele>
<time>2024-05-09T11:17:34Z</time>
</trkpt>
<trkpt lat="49.66557685285807" lon="9.303153036162255">
<ele>459.4</ele>
<time>2024-05-09T11:17:35Z</time>
</trkpt>
<trkpt lat="49.665622701868415" lon="9.303163513541222">
<ele>459.4</ele>
<time>2024-05-09T11:17:36Z</time>
</trkpt>
<trkpt lat="49.66566461138427" lon="9.303181618452072">
<ele>459.4</ele>
<time>2024-05-09T11:17:37Z</time>
</trkpt>
<trkpt lat="49.66571037657559" lon="9.303201651200652">
<ele>459.4</ele>
<time>2024-05-09T11:17:38Z</time>
</trkpt>
<trkpt lat="49.66575622558594" lon="9.30322453379631">
<ele>459.4</ele>
<time>2024-05-09T11:17:39Z</time>
</trkpt>
<trkpt lat="49.665798135101795" lon="9.303248338401318">
<ele>459.4</ele>
<time>2024-05-09T11:17:40Z</time>
</trkpt>
<trkpt lat="49.66584390029311" lon="9.303271220996976">
<ele>459.4</ele>
<time>2024-05-09T11:17:41Z</time>
</trkpt>
<trkpt lat="49.66588966548443" lon="9.303293181583284">
<ele>459.4</ele>
<time>2024-05-09T11:17:42Z</time>
</trkpt>
<trkpt lat="49.66593165881932" lon="9.303315142169597">
<ele>459.6</ele>
<time>2024-05-09T11:17:43Z</time>
</trkpt>
<trkpt lat="49.66597365215421" lon="9.303335174918177">
<ele>459.6</ele>
<time>2024-05-09T11:17:44Z</time>
</trkpt>
<trkpt lat="49.66601941734552" lon="9.303355207666756">
<ele>459.8</ele>
<time>2024-05-09T11:17:45Z</time>
</trkpt>
<trkpt lat="49.66606518253684" lon="9.303373312577603">
<ele>460</ele>
<time>2024-05-09T11:17:46Z</time>
</trkpt>
<trkpt lat="49.66610717587173" lon="9.303389489650726">
<ele>460</ele>
<time>2024-05-09T11:17:47Z</time>
</trkpt>
<trkpt lat="49.66615294106305" lon="9.30339996702969">
<ele>460.2</ele>
<time>2024-05-09T11:17:48Z</time>
</trkpt>
<trkpt lat="49.666194850578904" lon="9.303413378074763">
<ele>460.2</ele>
<time>2024-05-09T11:17:49Z</time>
</trkpt>
<trkpt lat="49.666236843913794" lon="9.303429555147886">
<ele>460.2</ele>
<time>2024-05-09T11:17:50Z</time>
</trkpt>
<trkpt lat="49.66628260910511" lon="9.303446738049388">
<ele>460.2</ele>
<time>2024-05-09T11:17:51Z</time>
</trkpt>
<trkpt lat="49.66632460244" lon="9.3034581374377">
<ele>460.2</ele>
<time>2024-05-09T11:17:52Z</time>
</trkpt>
<trkpt lat="49.66636651195586" lon="9.303469620645046">
<ele>460.2</ele>
<time>2024-05-09T11:17:53Z</time>
</trkpt>
<trkpt lat="49.666412277147174" lon="9.30348202586174">
<ele>460.2</ele>
<time>2024-05-09T11:17:54Z</time>
</trkpt>
<trkpt lat="49.66645427048206" lon="9.30349820293486">
<ele>460.4</ele>
<time>2024-05-09T11:17:55Z</time>
</trkpt>
<trkpt lat="49.66650003567338" lon="9.303515385836365">
<ele>460.4</ele>
<time>2024-05-09T11:17:56Z</time>
</trkpt>
<trkpt lat="49.6665458008647" lon="9.303531646728516">
<ele>460.4</ele>
<time>2024-05-09T11:17:57Z</time>
</trkpt>
<trkpt lat="49.66659542173147" lon="9.303544973954558">
<ele>460.6</ele>
<time>2024-05-09T11:17:58Z</time>
</trkpt>
<trkpt lat="49.66664504259825" lon="9.303565006703138">
<ele>460.6</ele>
<time>2024-05-09T11:17:59Z</time>
</trkpt>
<trkpt lat="49.66669080778957" lon="9.30358026176691">
<ele>460.8</ele>
<time>2024-05-09T11:18:00Z</time>
</trkpt>
<trkpt lat="49.66674034483731" lon="9.303594511002302">
<ele>461</ele>
<time>2024-05-09T11:18:01Z</time>
</trkpt>
<trkpt lat="49.66678996570408" lon="9.303606916218996">
<ele>461.2</ele>
<time>2024-05-09T11:18:02Z</time>
</trkpt>
<trkpt lat="49.66683195903897" lon="9.30361839942634">
<ele>461.2</ele>
<time>2024-05-09T11:18:03Z</time>
</trkpt>
<trkpt lat="49.66688149608672" lon="9.303633654490111">
<ele>461.4</ele>
<time>2024-05-09T11:18:04Z</time>
</trkpt>
<trkpt lat="49.666923489421606" lon="9.303646981716156">
<ele>461.6</ele>
<time>2024-05-09T11:18:05Z</time>
</trkpt>
<trkpt lat="49.666965482756495" lon="9.3036584649235">
<ele>461.6</ele>
<time>2024-05-09T11:18:06Z</time>
</trkpt>
<trkpt lat="49.66701124794781" lon="9.303669864311814">
<ele>461.8</ele>
<time>2024-05-09T11:18:07Z</time>
</trkpt>
<trkpt lat="49.66705315746367" lon="9.30368134751916">
<ele>461.8</ele>
<time>2024-05-09T11:18:08Z</time>
</trkpt>
<trkpt lat="49.667098922654986" lon="9.303691824898124">
<ele>461.8</ele>
<time>2024-05-09T11:18:09Z</time>
</trkpt>
<trkpt lat="49.667144771665335" lon="9.303707079961896">
<ele>462</ele>
<time>2024-05-09T11:18:10Z</time>
</trkpt>
<trkpt lat="49.66719430871308" lon="9.30372141301632">
<ele>462</ele>
<time>2024-05-09T11:18:11Z</time>
</trkpt>
<trkpt lat="49.667240073904395" lon="9.303734740242362">
<ele>462</ele>
<time>2024-05-09T11:18:12Z</time>
</trkpt>
<trkpt lat="49.66728969477117" lon="9.303746223449709">
<ele>462.2</ele>
<time>2024-05-09T11:18:13Z</time>
</trkpt>
<trkpt lat="49.66733545996249" lon="9.30375854484737">
<ele>462.2</ele>
<time>2024-05-09T11:18:14Z</time>
</trkpt>
<trkpt lat="49.66738508082926" lon="9.303770028054714">
<ele>462.4</ele>
<time>2024-05-09T11:18:15Z</time>
</trkpt>
<trkpt lat="49.66743461787701" lon="9.303788132965565">
<ele>462.4</ele>
<time>2024-05-09T11:18:16Z</time>
</trkpt>
<trkpt lat="49.66748423874378" lon="9.303806237876415">
<ele>462.4</ele>
<time>2024-05-09T11:18:17Z</time>
</trkpt>
<trkpt lat="49.66752623207867" lon="9.303823420777915">
<ele>462.6</ele>
<time>2024-05-09T11:18:18Z</time>
</trkpt>
<trkpt lat="49.66756814159453" lon="9.30383968167007">
<ele>462.6</ele>
<time>2024-05-09T11:18:19Z</time>
</trkpt>
<trkpt lat="49.66760627925396" lon="9.303858708590267">
<ele>462.6</ele>
<time>2024-05-09T11:18:20Z</time>
</trkpt>
<trkpt lat="49.66764827258885" lon="9.30387681350112">
<ele>462.8</ele>
<time>2024-05-09T11:18:21Z</time>
</trkpt>
<trkpt lat="49.66769026592374" lon="9.303903551772237">
<ele>462.8</ele>
<time>2024-05-09T11:18:22Z</time>
</trkpt>
<trkpt lat="49.6677321754396" lon="9.30391788482666">
<ele>462.8</ele>
<time>2024-05-09T11:18:23Z</time>
</trkpt>
<trkpt lat="49.667774168774486" lon="9.303939761593938">
<ele>463</ele>
<time>2024-05-09T11:18:24Z</time>
</trkpt>
<trkpt lat="49.667816162109375" lon="9.303957866504788">
<ele>463</ele>
<time>2024-05-09T11:18:25Z</time>
</trkpt>
<trkpt lat="49.66786192730069" lon="9.30397697724402">
<ele>463</ele>
<time>2024-05-09T11:18:26Z</time>
</trkpt>
<trkpt lat="49.66790769249201" lon="9.303988376632333">
<ele>463</ele>
<time>2024-05-09T11:18:27Z</time>
</trkpt>
<trkpt lat="49.667953457683325" lon="9.303999859839678">
<ele>463</ele>
<time>2024-05-09T11:18:28Z</time>
</trkpt>
<trkpt lat="49.66799922287464" lon="9.30401511490345">
<ele>463</ele>
<time>2024-05-09T11:18:29Z</time>
</trkpt>
<trkpt lat="49.66804498806596" lon="9.304021820425987">
<ele>463</ele>
<time>2024-05-09T11:18:30Z</time>
</trkpt>
<trkpt lat="49.668090753257275" lon="9.304030369967222">
<ele>463</ele>
<time>2024-05-09T11:18:31Z</time>
</trkpt>
<trkpt lat="49.668148001655936" lon="9.304051324725153">
<ele>463</ele>
<time>2024-05-09T11:18:32Z</time>
</trkpt>
<trkpt lat="49.66819762252271" lon="9.304064735770226">
<ele>463</ele>
<time>2024-05-09T11:18:33Z</time>
</trkpt>
<trkpt lat="49.66825478710234" lon="9.304078062996268">
<ele>462.8</ele>
<time>2024-05-09T11:18:34Z</time>
</trkpt>
<trkpt lat="49.66830440796912" lon="9.304089546203612">
<ele>462.8</ele>
<time>2024-05-09T11:18:35Z</time>
</trkpt>
<trkpt lat="49.66835402883589" lon="9.30409331806004">
<ele>462.6</ele>
<time>2024-05-09T11:18:36Z</time>
</trkpt>
<trkpt lat="49.66841119341552" lon="9.304106645286083">
<ele>462.6</ele>
<time>2024-05-09T11:18:37Z</time>
</trkpt>
<trkpt lat="49.6684608142823" lon="9.30411335080862">
<ele>462.6</ele>
<time>2024-05-09T11:18:38Z</time>
</trkpt>
<trkpt lat="49.6685142070055" lon="9.3041162006557">
<ele>462.6</ele>
<time>2024-05-09T11:18:39Z</time>
</trkpt>
<trkpt lat="49.6685675997287" lon="9.304122906178236">
<ele>462.6</ele>
<time>2024-05-09T11:18:40Z</time>
</trkpt>
<trkpt lat="49.668620992451906" lon="9.30413531139493">
<ele>462.8</ele>
<time>2024-05-09T11:18:41Z</time>
</trkpt>
<trkpt lat="49.66867824085057" lon="9.304141933098435">
<ele>462.8</ele>
<time>2024-05-09T11:18:42Z</time>
</trkpt>
<trkpt lat="49.66873163357377" lon="9.304146710783243">
<ele>462.8</ele>
<time>2024-05-09T11:18:43Z</time>
</trkpt>
<trkpt lat="49.66878888197243" lon="9.304149560630322">
<ele>462.8</ele>
<time>2024-05-09T11:18:44Z</time>
</trkpt>
<trkpt lat="49.668846130371094" lon="9.30415341630578">
<ele>462.8</ele>
<time>2024-05-09T11:18:45Z</time>
</trkpt>
<trkpt lat="49.66890329495072" lon="9.30415534414351">
<ele>462.8</ele>
<time>2024-05-09T11:18:46Z</time>
</trkpt>
<trkpt lat="49.668956687673926" lon="9.30415341630578">
<ele>462.8</ele>
<time>2024-05-09T11:18:47Z</time>
</trkpt>
<trkpt lat="49.66901393607259" lon="9.30415534414351">
<ele>462.8</ele>
<time>2024-05-09T11:18:48Z</time>
</trkpt>
<trkpt lat="49.66907118447125" lon="9.30415626615286">
<ele>462.8</ele>
<time>2024-05-09T11:18:49Z</time>
</trkpt>
<trkpt lat="49.66912834905088" lon="9.304158193990588">
<ele>462.8</ele>
<time>2024-05-09T11:18:50Z</time>
</trkpt>
<trkpt lat="49.66918174177408" lon="9.304158193990588">
<ele>462.8</ele>
<time>2024-05-09T11:18:51Z</time>
</trkpt>
<trkpt lat="49.669238990172744" lon="9.304158193990588">
<ele>462.8</ele>
<time>2024-05-09T11:18:52Z</time>
</trkpt>
<trkpt lat="49.669296238571405" lon="9.304161965847015">
<ele>463</ele>
<time>2024-05-09T11:18:53Z</time>
</trkpt>
<trkpt lat="49.66934963129461" lon="9.304166743531823">
<ele>463</ele>
<time>2024-05-09T11:18:54Z</time>
</trkpt>
<trkpt lat="49.66940687969327" lon="9.304171521216633">
<ele>463</ele>
<time>2024-05-09T11:18:55Z</time>
</trkpt>
<trkpt lat="49.6694640442729" lon="9.30417344905436">
<ele>463.2</ele>
<time>2024-05-09T11:18:56Z</time>
</trkpt>
<trkpt lat="49.6695174369961" lon="9.30417629890144">
<ele>463.4</ele>
<time>2024-05-09T11:18:57Z</time>
</trkpt>
<trkpt lat="49.66957854107022" lon="9.304178226739168">
<ele>463.4</ele>
<time>2024-05-09T11:18:58Z</time>
</trkpt>
<trkpt lat="49.669631933793426" lon="9.304184848442674">
<ele>463.4</ele>
<time>2024-05-09T11:18:59Z</time>
</trkpt>
<trkpt lat="49.669689098373055" lon="9.304191553965213">
<ele>463.6</ele>
<time>2024-05-09T11:19:00Z</time>
</trkpt>
<trkpt lat="49.66974257491529" lon="9.304195325821638">
<ele>463.6</ele>
<time>2024-05-09T11:19:01Z</time>
</trkpt>
<trkpt lat="49.66979596763849" lon="9.304202031344175">
<ele>463.8</ele>
<time>2024-05-09T11:19:02Z</time>
</trkpt>
<trkpt lat="49.66985313221812" lon="9.304208736866713">
<ele>463.8</ele>
<time>2024-05-09T11:19:03Z</time>
</trkpt>
<trkpt lat="49.66990660876036" lon="9.3042163643986">
<ele>463.8</ele>
<time>2024-05-09T11:19:04Z</time>
</trkpt>
<trkpt lat="49.66996377333999" lon="9.304220136255026">
<ele>463.8</ele>
<time>2024-05-09T11:19:05Z</time>
</trkpt>
<trkpt lat="49.67002102173865" lon="9.304224913939834">
<ele>464</ele>
<time>2024-05-09T11:19:06Z</time>
</trkpt>
<trkpt lat="49.67007827013731" lon="9.30423161946237">
<ele>464</ele>
<time>2024-05-09T11:19:07Z</time>
</trkpt>
<trkpt lat="49.67013166286051" lon="9.30423639714718">
<ele>464</ele>
<time>2024-05-09T11:19:08Z</time>
</trkpt>
<trkpt lat="49.670185055583715" lon="9.304238241165876">
<ele>464</ele>
<time>2024-05-09T11:19:09Z</time>
</trkpt>
<trkpt lat="49.67024230398238" lon="9.304240169003606">
<ele>463.8</ele>
<time>2024-05-09T11:19:10Z</time>
</trkpt>
<trkpt lat="49.67029569670558" lon="9.304244946688414">
<ele>463.8</ele>
<time>2024-05-09T11:19:11Z</time>
</trkpt>
<trkpt lat="49.67034523375333" lon="9.304241174831986">
<ele>463.8</ele>
<time>2024-05-09T11:19:12Z</time>
</trkpt>
<trkpt lat="49.6703948546201" lon="9.3042335473001">
<ele>463.8</ele>
<time>2024-05-09T11:19:13Z</time>
</trkpt>
<trkpt lat="49.67043684795499" lon="9.304228769615293">
<ele>463.8</ele>
<time>2024-05-09T11:19:14Z</time>
</trkpt>
<trkpt lat="49.67048638500273" lon="9.30422969162464">
<ele>463.8</ele>
<time>2024-05-09T11:19:15Z</time>
</trkpt>
<trkpt lat="49.670539777725935" lon="9.30422969162464">
<ele>463.6</ele>
<time>2024-05-09T11:19:16Z</time>
</trkpt>
<trkpt lat="49.67059325426817" lon="9.304241174831986">
<ele>463.6</ele>
<time>2024-05-09T11:19:17Z</time>
</trkpt>
<trkpt lat="49.670639019459486" lon="9.30425165221095">
<ele>463.6</ele>
<time>2024-05-09T11:19:18Z</time>
</trkpt>
<trkpt lat="49.67069241218269" lon="9.30425642989576">
<ele>463.6</ele>
<time>2024-05-09T11:19:19Z</time>
</trkpt>
<trkpt lat="49.670742033049464" lon="9.304261207580566">
<ele>463.6</ele>
<time>2024-05-09T11:19:20Z</time>
</trkpt>
<trkpt lat="49.67079542577267" lon="9.304267829284072">
<ele>463.6</ele>
<time>2024-05-09T11:19:21Z</time>
</trkpt>
<trkpt lat="49.67086784541607" lon="9.30429456755519">
<ele>463.6</ele>
<time>2024-05-09T11:19:22Z</time>
</trkpt>
<trkpt lat="49.67092894949019" lon="9.30430982261896">
<ele>463.6</ele>
<time>2024-05-09T11:19:23Z</time>
</trkpt>
<trkpt lat="49.67098611406982" lon="9.304327005520465">
<ele>463.6</ele>
<time>2024-05-09T11:19:24Z</time>
</trkpt>
<trkpt lat="49.67103950679302" lon="9.304343182593584">
<ele>463.6</ele>
<time>2024-05-09T11:19:25Z</time>
</trkpt>
<trkpt lat="49.6710891276598" lon="9.304358437657356">
<ele>463.6</ele>
<time>2024-05-09T11:19:26Z</time>
</trkpt>
<trkpt lat="49.671142520383" lon="9.304376542568209">
<ele>463.8</ele>
<time>2024-05-09T11:19:27Z</time>
</trkpt>
<trkpt lat="49.671192141249776" lon="9.30439179763198">
<ele>464</ele>
<time>2024-05-09T11:19:28Z</time>
</trkpt>
<trkpt lat="49.67124167829752" lon="9.304407052695751">
<ele>464</ele>
<time>2024-05-09T11:19:29Z</time>
</trkpt>
<trkpt lat="49.671291299164295" lon="9.304420463740826">
<ele>464.2</ele>
<time>2024-05-09T11:19:30Z</time>
</trkpt>
<trkpt lat="49.671333292499185" lon="9.304433790966868">
<ele>464.2</ele>
<time>2024-05-09T11:19:31Z</time>
</trkpt>
<trkpt lat="49.67136757448315" lon="9.30443186312914">
<ele>464.4</ele>
<time>2024-05-09T11:19:32Z</time>
</trkpt>
<trkpt lat="49.67139431275427" lon="9.30441283620894">
<ele>464.4</ele>
<time>2024-05-09T11:19:33Z</time>
</trkpt>
<trkpt lat="49.67142482288182" lon="9.30439179763198">
<ele>464.6</ele>
<time>2024-05-09T11:19:34Z</time>
</trkpt>
<trkpt lat="49.671451561152935" lon="9.304373692721128">
<ele>464.6</ele>
<time>2024-05-09T11:19:35Z</time>
</trkpt>
<trkpt lat="49.67148207128048" lon="9.304358437657356">
<ele>464.6</ele>
<time>2024-05-09T11:19:36Z</time>
</trkpt>
<trkpt lat="49.67151635326445" lon="9.304356509819629">
<ele>464.4</ele>
<time>2024-05-09T11:19:37Z</time>
</trkpt>
<trkpt lat="49.67155449092388" lon="9.304367993026972">
<ele>464.4</ele>
<time>2024-05-09T11:19:38Z</time>
</trkpt>
<trkpt lat="49.671585001051426" lon="9.304376542568209">
<ele>464.4</ele>
<time>2024-05-09T11:19:39Z</time>
</trkpt>
<trkpt lat="49.67161173932254" lon="9.304388025775552">
<ele>464.4</ele>
<time>2024-05-09T11:19:40Z</time>
</trkpt>
<trkpt lat="49.67163847759366" lon="9.304403280839324">
<ele>464.2</ele>
<time>2024-05-09T11:19:41Z</time>
</trkpt>
<trkpt lat="49.671668987721205" lon="9.304414680227636">
<ele>464.2</ele>
<time>2024-05-09T11:19:42Z</time>
</trkpt>
<trkpt lat="49.67169949784875" lon="9.304423313587904">
<ele>464.2</ele>
<time>2024-05-09T11:19:43Z</time>
</trkpt>
<trkpt lat="49.67172238044441" lon="9.304421385750176">
<ele>464.2</ele>
<time>2024-05-09T11:19:44Z</time>
</trkpt>
<trkpt lat="49.671745263040066" lon="9.304405208677052">
<ele>464</ele>
<time>2024-05-09T11:19:45Z</time>
</trkpt>
<trkpt lat="49.67176051810384" lon="9.304396575316789">
<ele>463.8</ele>
<time>2024-05-09T11:19:46Z</time>
</trkpt>
<trkpt lat="49.67177200131118" lon="9.304388025775552">
<ele>463.4</ele>
<time>2024-05-09T11:19:47Z</time>
</trkpt>
<trkpt lat="49.671783400699496" lon="9.304388025775552">
<ele>463.2</ele>
<time>2024-05-09T11:19:48Z</time>
</trkpt>
<trkpt lat="49.67180251143873" lon="9.304381320253016">
<ele>463</ele>
<time>2024-05-09T11:19:49Z</time>
</trkpt>
<trkpt lat="49.67181391082704" lon="9.3043717648834">
<ele>463</ele>
<time>2024-05-09T11:19:50Z</time>
</trkpt>
<trkpt lat="49.671825394034386" lon="9.304354665800927">
<ele>462.8</ele>
<time>2024-05-09T11:19:51Z</time>
</trkpt>
<trkpt lat="49.67183302156627" lon="9.304353659972548">
<ele>462.8</ele>
<time>2024-05-09T11:19:52Z</time>
</trkpt>
<trkpt lat="49.6718367934227" lon="9.304353659972548">
<ele>462.6</ele>
<time>2024-05-09T11:19:53Z</time>
</trkpt>
<trkpt lat="49.67183302156627" lon="9.304354665800927">
<ele>462.6</ele>
<time>2024-05-09T11:19:54Z</time>
</trkpt>
<trkpt lat="49.67183302156627" lon="9.304356509819629">
<ele>462.4</ele>
<time>2024-05-09T11:19:56Z</time>
</trkpt>
<trkpt lat="49.67183302156627" lon="9.304360365495086">
<ele>462.4</ele>
<time>2024-05-09T11:19:57Z</time>
</trkpt>
<trkpt lat="49.67183302156627" lon="9.304361287504436">
<ele>462.4</ele>
<time>2024-05-09T11:19:58Z</time>
</trkpt>
<trkpt lat="49.67183302156627" lon="9.304363215342164">
<ele>462.4</ele>
<time>2024-05-09T11:19:59Z</time>
</trkpt>
<trkpt lat="49.67183302156627" lon="9.304361287504436">
<ele>462.6</ele>
<time>2024-05-09T11:20:02Z</time>
</trkpt>
<trkpt lat="49.67183302156627" lon="9.304360365495086">
<ele>462.6</ele>
<time>2024-05-09T11:20:03Z</time>
</trkpt>
<trkpt lat="49.67183302156627" lon="9.304361287504436">
<ele>462.6</ele>
<time>2024-05-09T11:20:04Z</time>
</trkpt>
<trkpt lat="49.67183302156627" lon="9.304363215342164">
<ele>462.6</ele>
<time>2024-05-09T11:20:06Z</time>
</trkpt>
<trkpt lat="49.67183302156627" lon="9.304365143179892">
<ele>462.6</ele>
<time>2024-05-09T11:20:07Z</time>
</trkpt>
<trkpt lat="49.67183302156627" lon="9.304366987198591">
<ele>462.6</ele>
<time>2024-05-09T11:20:09Z</time>
</trkpt>
<trkpt lat="49.67182916589081" lon="9.304367993026972">
<ele>462.6</ele>
<time>2024-05-09T11:20:13Z</time>
</trkpt>
<trkpt lat="49.67182916589081" lon="9.304366987198591">
<ele>462.6</ele>
<time>2024-05-09T11:20:16Z</time>
</trkpt>
<trkpt lat="49.67182916589081" lon="9.304365143179892">
<ele>462.6</ele>
<time>2024-05-09T11:20:20Z</time>
</trkpt>
<trkpt lat="49.67182916589081" lon="9.304363215342164">
<ele>462.6</ele>
<time>2024-05-09T11:20:25Z</time>
</trkpt>
<trkpt lat="49.67182916589081" lon="9.304365143179892">
<ele>462.6</ele>
<time>2024-05-09T11:20:33Z</time>
</trkpt>
<trkpt lat="49.671825394034386" lon="9.304365143179892">
<ele>462.8</ele>
<time>2024-05-09T11:20:34Z</time>
</trkpt>
<trkpt lat="49.671825394034386" lon="9.304366987198591">
<ele>462.8</ele>
<time>2024-05-09T11:20:40Z</time>
</trkpt>
<trkpt lat="49.671825394034386" lon="9.304367993026972">
<ele>462.8</ele>
<time>2024-05-09T11:20:49Z</time>
</trkpt>
<trkpt lat="49.67182153835893" lon="9.304367993026972">
<ele>463</ele>
<time>2024-05-09T11:20:55Z</time>
</trkpt>
<trkpt lat="49.67182153835893" lon="9.304366987198591">
<ele>463</ele>
<time>2024-05-09T11:21:03Z</time>
</trkpt>
<trkpt lat="49.67182153835893" lon="9.304365143179892">
<ele>463</ele>
<time>2024-05-09T11:21:10Z</time>
</trkpt>
<trkpt lat="49.67182153835893" lon="9.304366987198591">
<ele>463</ele>
<time>2024-05-09T11:21:21Z</time>
</trkpt>
<trkpt lat="49.67182153835893" lon="9.304365143179892">
<ele>463</ele>
<time>2024-05-09T11:21:42Z</time>
</trkpt>
<trkpt lat="49.67182153835893" lon="9.304363215342164">
<ele>463</ele>
<time>2024-05-09T11:21:49Z</time>
</trkpt>
<trkpt lat="49.67182153835893" lon="9.304365143179892">
<ele>463</ele>
<time>2024-05-09T11:22:16Z</time>
</trkpt>
<trkpt lat="49.67182153835893" lon="9.304366987198591">
<ele>462.8</ele>
<time>2024-05-09T11:22:27Z</time>
</trkpt>
<trkpt lat="49.67182153835893" lon="9.304365143179892">
<ele>462.8</ele>
<time>2024-05-09T11:22:28Z</time>
</trkpt>
<trkpt lat="49.67182153835893" lon="9.304363215342164">
<ele>462.8</ele>
<time>2024-05-09T11:22:34Z</time>
</trkpt>
<trkpt lat="49.67182153835893" lon="9.304365143179892">
<ele>462.8</ele>
<time>2024-05-09T11:22:39Z</time>
</trkpt>
<trkpt lat="49.67182153835893" lon="9.304363215342164">
<ele>462.8</ele>
<time>2024-05-09T11:22:49Z</time>
</trkpt>
<trkpt lat="49.67182153835893" lon="9.304361287504436">
<ele>462.8</ele>
<time>2024-05-09T11:22:51Z</time>
</trkpt>
<trkpt lat="49.67182153835893" lon="9.304360365495086">
<ele>462.8</ele>
<time>2024-05-09T11:22:58Z</time>
</trkpt>
<trkpt lat="49.67182153835893" lon="9.304358437657356">
<ele>462.8</ele>
<time>2024-05-09T11:23:16Z</time>
</trkpt>
<trkpt lat="49.671825394034386" lon="9.304356509819629">
<ele>462.8</ele>
<time>2024-05-09T11:23:24Z</time>
</trkpt>
<trkpt lat="49.671825394034386" lon="9.304354665800927">
<ele>462.8</ele>
<time>2024-05-09T11:23:30Z</time>
</trkpt>
<trkpt lat="49.671825394034386" lon="9.304353659972548">
<ele>462.8</ele>
<time>2024-05-09T11:23:34Z</time>
</trkpt>
<trkpt lat="49.67182916589081" lon="9.304353659972548">
<ele>462.8</ele>
<time>2024-05-09T11:23:37Z</time>
</trkpt>
<trkpt lat="49.67182916589081" lon="9.30435173213482">
<ele>462.8</ele>
<time>2024-05-09T11:23:40Z</time>
</trkpt>
<trkpt lat="49.67182916589081" lon="9.30434988811612">
<ele>462.8</ele>
<time>2024-05-09T11:23:52Z</time>
</trkpt>
<trkpt lat="49.67182916589081" lon="9.30435173213482">
<ele>462.8</ele>
<time>2024-05-09T11:23:53Z</time>
</trkpt>
<trkpt lat="49.67183302156627" lon="9.30435173213482">
<ele>462.8</ele>
<time>2024-05-09T11:23:56Z</time>
</trkpt>
<trkpt lat="49.67183302156627" lon="9.30434988811612">
<ele>462.8</ele>
<time>2024-05-09T11:24:00Z</time>
</trkpt>
<trkpt lat="49.67182916589081" lon="9.30434988811612">
<ele>462.8</ele>
<time>2024-05-09T11:24:04Z</time>
</trkpt>
<trkpt lat="49.67182916589081" lon="9.304347960278392">
<ele>462.8</ele>
<time>2024-05-09T11:24:06Z</time>
</trkpt>
<trkpt lat="49.67182916589081" lon="9.30434988811612">
<ele>462.8</ele>
<time>2024-05-09T11:24:21Z</time>
</trkpt>
<trkpt lat="49.67182916589081" lon="9.30435173213482">
<ele>462.8</ele>
<time>2024-05-09T11:24:26Z</time>
</trkpt>
<trkpt lat="49.67182916589081" lon="9.304353659972548">
<ele>462.6</ele>
<time>2024-05-09T11:24:30Z</time>
</trkpt>
<trkpt lat="49.67182916589081" lon="9.304354665800927">
<ele>462.6</ele>
<time>2024-05-09T11:24:35Z</time>
</trkpt>
<trkpt lat="49.67182916589081" lon="9.304353659972548">
<ele>462.6</ele>
<time>2024-05-09T11:24:38Z</time>
</trkpt>
<trkpt lat="49.671825394034386" lon="9.304353659972548">
<ele>462.6</ele>
<time>2024-05-09T11:24:46Z</time>
</trkpt>
<trkpt lat="49.671825394034386" lon="9.304354665800927">
<ele>462.6</ele>
<time>2024-05-09T11:24:48Z</time>
</trkpt>
<trkpt lat="49.671825394034386" lon="9.304353659972548">
<ele>462.6</ele>
<time>2024-05-09T11:24:49Z</time>
</trkpt>
<trkpt lat="49.67182153835893" lon="9.304353659972548">
<ele>462.6</ele>
<time>2024-05-09T11:24:59Z</time>
</trkpt>
<trkpt lat="49.671825394034386" lon="9.304353659972548">
<ele>462.6</ele>
<time>2024-05-09T11:25:01Z</time>
</trkpt>
<trkpt lat="49.671825394034386" lon="9.304354665800927">
<ele>462.6</ele>
<time>2024-05-09T11:25:05Z</time>
</trkpt>
<trkpt lat="49.671825394034386" lon="9.304353659972548">
<ele>462.6</ele>
<time>2024-05-09T11:25:07Z</time>
</trkpt>
<trkpt lat="49.67182153835893" lon="9.304353659972548">
<ele>462.6</ele>
<time>2024-05-09T11:25:10Z</time>
</trkpt>
<trkpt lat="49.67182153835893" lon="9.30435173213482">
<ele>462.6</ele>
<time>2024-05-09T11:25:12Z</time>
</trkpt>
<trkpt lat="49.67182153835893" lon="9.30434988811612">
<ele>462.8</ele>
<time>2024-05-09T11:25:16Z</time>
</trkpt>
<trkpt lat="49.67182153835893" lon="9.304347960278392">
<ele>462.8</ele>
<time>2024-05-09T11:25:20Z</time>
</trkpt>
<trkpt lat="49.67182153835893" lon="9.30434988811612">
<ele>462.8</ele>
<time>2024-05-09T11:25:48Z</time>
</trkpt>
<trkpt lat="49.67182153835893" lon="9.304347960278392">
<ele>462.8</ele>
<time>2024-05-09T11:26:11Z</time>
</trkpt>
<trkpt lat="49.67182153835893" lon="9.304347038269045">
<ele>462.8</ele>
<time>2024-05-09T11:26:18Z</time>
</trkpt>
<trkpt lat="49.67182153835893" lon="9.304345110431314">
<ele>462.8</ele>
<time>2024-05-09T11:26:20Z</time>
</trkpt>
<trkpt lat="49.67182153835893" lon="9.304343182593584">
<ele>462.8</ele>
<time>2024-05-09T11:26:24Z</time>
</trkpt>
<trkpt lat="49.67182153835893" lon="9.304341254755856">
<ele>462.8</ele>
<time>2024-05-09T11:26:32Z</time>
</trkpt>
<trkpt lat="49.67182153835893" lon="9.304343182593584">
<ele>462.8</ele>
<time>2024-05-09T11:26:37Z</time>
</trkpt>
<trkpt lat="49.67182153835893" lon="9.304341254755856">
<ele>462.8</ele>
<time>2024-05-09T11:26:46Z</time>
</trkpt>
<trkpt lat="49.67182153835893" lon="9.304340332746506">
<ele>462.8</ele>
<time>2024-05-09T11:26:54Z</time>
</trkpt>
<trkpt lat="49.6718177665025" lon="9.304340332746506">
<ele>462.8</ele>
<time>2024-05-09T11:26:55Z</time>
</trkpt>
<trkpt lat="49.6718177665025" lon="9.304338404908776">
<ele>462.8</ele>
<time>2024-05-09T11:26:59Z</time>
</trkpt>
<trkpt lat="49.6718177665025" lon="9.304336477071049">
<ele>462.8</ele>
<time>2024-05-09T11:27:02Z</time>
</trkpt>
<trkpt lat="49.6718177665025" lon="9.304334633052347">
<ele>462.8</ele>
<time>2024-05-09T11:27:06Z</time>
</trkpt>
<trkpt lat="49.6718177665025" lon="9.304333627223969">
<ele>462.8</ele>
<time>2024-05-09T11:27:12Z</time>
</trkpt>
<trkpt lat="49.67182153835893" lon="9.304333627223969">
<ele>462.8</ele>
<time>2024-05-09T11:27:16Z</time>
</trkpt>
<trkpt lat="49.67182153835893" lon="9.304334633052347">
<ele>462.8</ele>
<time>2024-05-09T11:27:33Z</time>
</trkpt>
<trkpt lat="49.67182153835893" lon="9.304333627223969">
<ele>462.8</ele>
<time>2024-05-09T11:27:34Z</time>
</trkpt>
<trkpt lat="49.67182153835893" lon="9.304325077682734">
<ele>462.8</ele>
<time>2024-05-09T11:27:39Z</time>
</trkpt>
<trkpt lat="49.67182153835893" lon="9.304313594475389">
<ele>462.8</ele>
<time>2024-05-09T11:27:40Z</time>
</trkpt>
<trkpt lat="49.67182153835893" lon="9.304305044934154">
<ele>462.8</ele>
<time>2024-05-09T11:27:41Z</time>
</trkpt>
<trkpt lat="49.67181391082704" lon="9.304296411573889">
<ele>462.8</ele>
<time>2024-05-09T11:27:42Z</time>
</trkpt>
<trkpt lat="49.671806283295155" lon="9.30429456755519">
<ele>462.8</ele>
<time>2024-05-09T11:27:43Z</time>
</trkpt>
<trkpt lat="49.67179865576327" lon="9.304293561726809">
<ele>462.8</ele>
<time>2024-05-09T11:27:44Z</time>
</trkpt>
<trkpt lat="49.67179102823138" lon="9.304293561726809">
<ele>462.8</ele>
<time>2024-05-09T11:27:45Z</time>
</trkpt>
<trkpt lat="49.671783400699496" lon="9.30429171770811">
<ele>462.8</ele>
<time>2024-05-09T11:27:46Z</time>
</trkpt>
<trkpt lat="49.67177962884307" lon="9.304287862032652">
<ele>462.8</ele>
<time>2024-05-09T11:27:47Z</time>
</trkpt>
<trkpt lat="49.67177200131118" lon="9.304286940023305">
<ele>462.8</ele>
<time>2024-05-09T11:27:48Z</time>
</trkpt>
<trkpt lat="49.6717643737793" lon="9.304286940023305">
<ele>462.8</ele>
<time>2024-05-09T11:27:49Z</time>
</trkpt>
<trkpt lat="49.67175666242838" lon="9.304286940023305">
<ele>462.8</ele>
<time>2024-05-09T11:27:50Z</time>
</trkpt>
<trkpt lat="49.67174903489649" lon="9.30428978987038">
<ele>462.8</ele>
<time>2024-05-09T11:27:51Z</time>
</trkpt>
<trkpt lat="49.67174140736461" lon="9.30429171770811">
<ele>462.8</ele>
<time>2024-05-09T11:27:52Z</time>
</trkpt>
<trkpt lat="49.67173377983272" lon="9.304293561726809">
<ele>462.8</ele>
<time>2024-05-09T11:27:53Z</time>
</trkpt>
<trkpt lat="49.671726152300835" lon="9.30429456755519">
<ele>462.8</ele>
<time>2024-05-09T11:27:54Z</time>
</trkpt>
<trkpt lat="49.67172238044441" lon="9.304298339411616">
<ele>462.8</ele>
<time>2024-05-09T11:27:55Z</time>
</trkpt>
<trkpt lat="49.67171475291252" lon="9.304301189258696">
<ele>462.8</ele>
<time>2024-05-09T11:27:56Z</time>
</trkpt>
<trkpt lat="49.67171089723706" lon="9.304300267249346">
<ele>462.8</ele>
<time>2024-05-09T11:27:57Z</time>
</trkpt>
<trkpt lat="49.671703269705176" lon="9.304301189258696">
<ele>462.8</ele>
<time>2024-05-09T11:27:58Z</time>
</trkpt>
<trkpt lat="49.67169949784875" lon="9.304300267249346">
<ele>462.8</ele>
<time>2024-05-09T11:27:59Z</time>
</trkpt>
<trkpt lat="49.67169564217329" lon="9.304300267249346">
<ele>462.8</ele>
<time>2024-05-09T11:28:01Z</time>
</trkpt>
<trkpt lat="49.67169564217329" lon="9.304301189258696">
<ele>462.8</ele>
<time>2024-05-09T11:28:02Z</time>
</trkpt>
<trkpt lat="49.67169564217329" lon="9.304303117096424">
<ele>462.8</ele>
<time>2024-05-09T11:28:04Z</time>
</trkpt>
<trkpt lat="49.67169564217329" lon="9.304305044934154">
<ele>462.8</ele>
<time>2024-05-09T11:28:05Z</time>
</trkpt>
<trkpt lat="49.67169564217329" lon="9.304306972771885">
<ele>462.8</ele>
<time>2024-05-09T11:28:06Z</time>
</trkpt>
<trkpt lat="49.67169949784875" lon="9.304307894781232">
<ele>462.8</ele>
<time>2024-05-09T11:28:07Z</time>
</trkpt>
<trkpt lat="49.67169949784875" lon="9.304306972771885">
<ele>462.8</ele>
<time>2024-05-09T11:28:08Z</time>
</trkpt>
<trkpt lat="49.67169949784875" lon="9.304305044934154">
<ele>462.8</ele>
<time>2024-05-09T11:28:14Z</time>
</trkpt>
<trkpt lat="49.671703269705176" lon="9.304305044934154">
<ele>462.8</ele>
<time>2024-05-09T11:28:15Z</time>
</trkpt>
<trkpt lat="49.671703269705176" lon="9.304306972771885">
<ele>462.8</ele>
<time>2024-05-09T11:28:20Z</time>
</trkpt>
<trkpt lat="49.671703269705176" lon="9.304307894781232">
<ele>462.8</ele>
<time>2024-05-09T11:28:21Z</time>
</trkpt>
<trkpt lat="49.671703269705176" lon="9.30430982261896">
<ele>462.8</ele>
<time>2024-05-09T11:28:23Z</time>
</trkpt>
<trkpt lat="49.671703269705176" lon="9.304307894781232">
<ele>462.8</ele>
<time>2024-05-09T11:28:25Z</time>
</trkpt>
<trkpt lat="49.671703269705176" lon="9.30430982261896">
<ele>462.8</ele>
<time>2024-05-09T11:28:26Z</time>
</trkpt>
<trkpt lat="49.671703269705176" lon="9.30431175045669">
<ele>462.8</ele>
<time>2024-05-09T11:28:32Z</time>
</trkpt>
<trkpt lat="49.671703269705176" lon="9.30430982261896">
<ele>462.8</ele>
<time>2024-05-09T11:28:34Z</time>
</trkpt>
<trkpt lat="49.67169949784875" lon="9.30430982261896">
<ele>462.8</ele>
<time>2024-05-09T11:28:48Z</time>
</trkpt>
<trkpt lat="49.671703269705176" lon="9.30431175045669">
<ele>462.8</ele>
<time>2024-05-09T11:28:55Z</time>
</trkpt>
<trkpt lat="49.671703269705176" lon="9.304313594475389">
<ele>462.8</ele>
<time>2024-05-09T11:28:56Z</time>
</trkpt>
<trkpt lat="49.671703269705176" lon="9.304314600303767">
<ele>462.8</ele>
<time>2024-05-09T11:28:57Z</time>
</trkpt>
<trkpt lat="49.671703269705176" lon="9.304316444322469">
<ele>462.8</ele>
<time>2024-05-09T11:28:59Z</time>
</trkpt>
<trkpt lat="49.671703269705176" lon="9.304318372160196">
<ele>462.8</ele>
<time>2024-05-09T11:29:02Z</time>
</trkpt>
<trkpt lat="49.671707125380635" lon="9.304318372160196">
<ele>462.8</ele>
<time>2024-05-09T11:29:04Z</time>
</trkpt>
<trkpt lat="49.671707125380635" lon="9.304316444322469">
<ele>462.8</ele>
<time>2024-05-09T11:29:06Z</time>
</trkpt>
<trkpt lat="49.67171089723706" lon="9.304314600303767">
<ele>462.8</ele>
<time>2024-05-09T11:29:07Z</time>
</trkpt>
<trkpt lat="49.67171089723706" lon="9.30431175045669">
<ele>462.8</ele>
<time>2024-05-09T11:29:09Z</time>
</trkpt>
<trkpt lat="49.67171089723706" lon="9.30430982261896">
<ele>462.8</ele>
<time>2024-05-09T11:29:11Z</time>
</trkpt>
<trkpt lat="49.67171089723706" lon="9.30431175045669">
<ele>462.8</ele>
<time>2024-05-09T11:29:12Z</time>
</trkpt>
<trkpt lat="49.67171089723706" lon="9.30430982261896">
<ele>462.8</ele>
<time>2024-05-09T11:29:13Z</time>
</trkpt>
<trkpt lat="49.67171089723706" lon="9.30431175045669">
<ele>462.8</ele>
<time>2024-05-09T11:29:16Z</time>
</trkpt>
<trkpt lat="49.67171089723706" lon="9.30430982261896">
<ele>462.8</ele>
<time>2024-05-09T11:29:17Z</time>
</trkpt>
<trkpt lat="49.67171089723706" lon="9.304307894781232">
<ele>462.8</ele>
<time>2024-05-09T11:29:18Z</time>
</trkpt>
<trkpt lat="49.67171089723706" lon="9.304306972771885">
<ele>462.8</ele>
<time>2024-05-09T11:29:20Z</time>
</trkpt>
<trkpt lat="49.67171089723706" lon="9.304305044934154">
<ele>462.8</ele>
<time>2024-05-09T11:29:27Z</time>
</trkpt>
<trkpt lat="49.67171475291252" lon="9.304305044934154">
<ele>462.8</ele>
<time>2024-05-09T11:29:28Z</time>
</trkpt>
<trkpt lat="49.67171475291252" lon="9.304303117096424">
<ele>462.8</ele>
<time>2024-05-09T11:29:29Z</time>
</trkpt>
<trkpt lat="49.67171475291252" lon="9.304305044934154">
<ele>462.8</ele>
<time>2024-05-09T11:29:30Z</time>
</trkpt>
<trkpt lat="49.67171475291252" lon="9.304303117096424">
<ele>462.8</ele>
<time>2024-05-09T11:29:31Z</time>
</trkpt>
<trkpt lat="49.67171475291252" lon="9.304301189258696">
<ele>462.8</ele>
<time>2024-05-09T11:29:32Z</time>
</trkpt>
<trkpt lat="49.67171475291252" lon="9.304300267249346">
<ele>462.8</ele>
<time>2024-05-09T11:29:33Z</time>
</trkpt>
<trkpt lat="49.67171475291252" lon="9.304301189258696">
<ele>462.8</ele>
<time>2024-05-09T11:29:38Z</time>
</trkpt>
<trkpt lat="49.67171475291252" lon="9.304298339411616">
<ele>462.8</ele>
<time>2024-05-09T11:29:40Z</time>
</trkpt>
<trkpt lat="49.67171475291252" lon="9.30429456755519">
<ele>462.8</ele>
<time>2024-05-09T11:29:41Z</time>
</trkpt>
<trkpt lat="49.67171852476895" lon="9.304293561726809">
<ele>462.8</ele>
<time>2024-05-09T11:29:42Z</time>
</trkpt>
<trkpt lat="49.67171852476895" lon="9.30429171770811">
<ele>462.8</ele>
<time>2024-05-09T11:29:43Z</time>
</trkpt>
<trkpt lat="49.67171852476895" lon="9.30428978987038">
<ele>462.8</ele>
<time>2024-05-09T11:29:44Z</time>
</trkpt>
<trkpt lat="49.67171852476895" lon="9.304293561726809">
<ele>462.8</ele>
<time>2024-05-09T11:29:45Z</time>
</trkpt>
<trkpt lat="49.67171852476895" lon="9.304300267249346">
<ele>462.8</ele>
<time>2024-05-09T11:29:46Z</time>
</trkpt>
<trkpt lat="49.67171852476895" lon="9.304303117096424">
<ele>462.8</ele>
<time>2024-05-09T11:29:47Z</time>
</trkpt>
<trkpt lat="49.67171852476895" lon="9.304305044934154">
<ele>462.8</ele>
<time>2024-05-09T11:29:48Z</time>
</trkpt>
<trkpt lat="49.67171852476895" lon="9.304306972771885">
<ele>462.8</ele>
<time>2024-05-09T11:29:49Z</time>
</trkpt>
<trkpt lat="49.67172238044441" lon="9.304307894781232">
<ele>462.8</ele>
<time>2024-05-09T11:29:50Z</time>
</trkpt>
<trkpt lat="49.67171852476895" lon="9.304307894781232">
<ele>462.8</ele>
<time>2024-05-09T11:29:52Z</time>
</trkpt>
<trkpt lat="49.67171852476895" lon="9.304306972771885">
<ele>462.8</ele>
<time>2024-05-09T11:29:53Z</time>
</trkpt>
<trkpt lat="49.67171475291252" lon="9.304306972771885">
<ele>462.8</ele>
<time>2024-05-09T11:29:55Z</time>
</trkpt>
<trkpt lat="49.67171475291252" lon="9.304305044934154">
<ele>462.8</ele>
<time>2024-05-09T11:29:56Z</time>
</trkpt>
<trkpt lat="49.67171475291252" lon="9.304303117096424">
<ele>462.8</ele>
<time>2024-05-09T11:29:57Z</time>
</trkpt>
<trkpt lat="49.67171089723706" lon="9.304305044934154">
<ele>462.8</ele>
<time>2024-05-09T11:30:00Z</time>
</trkpt>
<trkpt lat="49.67171089723706" lon="9.304303117096424">
<ele>462.8</ele>
<time>2024-05-09T11:30:01Z</time>
</trkpt>
<trkpt lat="49.67171089723706" lon="9.304301189258696">
<ele>462.8</ele>
<time>2024-05-09T11:30:03Z</time>
</trkpt>
<trkpt lat="49.67171089723706" lon="9.304303117096424">
<ele>462.8</ele>
<time>2024-05-09T11:30:04Z</time>
</trkpt>
<trkpt lat="49.67171089723706" lon="9.304305044934154">
<ele>462.8</ele>
<time>2024-05-09T11:30:08Z</time>
</trkpt>
<trkpt lat="49.67171089723706" lon="9.30430982261896">
<ele>462.8</ele>
<time>2024-05-09T11:30:09Z</time>
</trkpt>
<trkpt lat="49.671707125380635" lon="9.30431175045669">
<ele>462.8</ele>
<time>2024-05-09T11:30:10Z</time>
</trkpt>
<trkpt lat="49.671703269705176" lon="9.304313594475389">
<ele>462.8</ele>
<time>2024-05-09T11:30:11Z</time>
</trkpt>
<trkpt lat="49.67169949784875" lon="9.30431175045669">
<ele>462.8</ele>
<time>2024-05-09T11:30:13Z</time>
</trkpt>
<trkpt lat="49.67169187031686" lon="9.304307894781232">
<ele>462.8</ele>
<time>2024-05-09T11:30:14Z</time>
</trkpt>
<trkpt lat="49.67167661525309" lon="9.304305044934154">
<ele>462.8</ele>
<time>2024-05-09T11:30:15Z</time>
</trkpt>
<trkpt lat="49.67165750451386" lon="9.304298339411616">
<ele>462.8</ele>
<time>2024-05-09T11:30:16Z</time>
</trkpt>
<trkpt lat="49.67163847759366" lon="9.304287862032652">
<ele>462.8</ele>
<time>2024-05-09T11:30:17Z</time>
</trkpt>
<trkpt lat="49.67161936685443" lon="9.304280234500766">
<ele>462.8</ele>
<time>2024-05-09T11:30:18Z</time>
</trkpt>
<trkpt lat="49.67159648425877" lon="9.30427646264434">
<ele>462.8</ele>
<time>2024-05-09T11:30:19Z</time>
</trkpt>
<trkpt lat="49.67157360166311" lon="9.304281156510116">
<ele>462.8</ele>
<time>2024-05-09T11:30:20Z</time>
</trkpt>
<trkpt lat="49.671546863391995" lon="9.304298339411616">
<ele>462.8</ele>
<time>2024-05-09T11:30:21Z</time>
</trkpt>
<trkpt lat="49.67152398079634" lon="9.304318372160196">
<ele>462.8</ele>
<time>2024-05-09T11:30:22Z</time>
</trkpt>
<trkpt lat="49.671512581408024" lon="9.304345110431314">
<ele>462.8</ele>
<time>2024-05-09T11:30:23Z</time>
</trkpt>
<trkpt lat="49.67150495387614" lon="9.304380398243666">
<ele>462.8</ele>
<time>2024-05-09T11:30:24Z</time>
</trkpt>
<trkpt lat="49.67150495387614" lon="9.304420463740826">
<ele>462.8</ele>
<time>2024-05-09T11:30:25Z</time>
</trkpt>
<trkpt lat="49.67151635326445" lon="9.304458601400256">
<ele>462.8</ele>
<time>2024-05-09T11:30:26Z</time>
</trkpt>
<trkpt lat="49.671546863391995" lon="9.30448810569942">
<ele>462.8</ele>
<time>2024-05-09T11:30:27Z</time>
</trkpt>
<trkpt lat="49.671581229195" lon="9.304508138448">
<ele>462.8</ele>
<time>2024-05-09T11:30:28Z</time>
</trkpt>
<trkpt lat="49.67161936685443" lon="9.304526327177882">
<ele>462.8</ele>
<time>2024-05-09T11:30:29Z</time>
</trkpt>
<trkpt lat="49.671665132045746" lon="9.30454627610743">
<ele>462.8</ele>
<time>2024-05-09T11:30:30Z</time>
</trkpt>
<trkpt lat="49.671703269705176" lon="9.304563459008932">
<ele>462.8</ele>
<time>2024-05-09T11:30:31Z</time>
</trkpt>
<trkpt lat="49.671745263040066" lon="9.304581563919784">
<ele>462.8</ele>
<time>2024-05-09T11:30:32Z</time>
</trkpt>
<trkpt lat="49.67179102823138" lon="9.304603524506092">
<ele>462.8</ele>
<time>2024-05-09T11:30:33Z</time>
</trkpt>
<trkpt lat="49.67183302156627" lon="9.30462447926402">
<ele>462.8</ele>
<time>2024-05-09T11:30:34Z</time>
</trkpt>
<trkpt lat="49.67187493108213" lon="9.30465029552579">
<ele>462.8</ele>
<time>2024-05-09T11:30:35Z</time>
</trkpt>
<trkpt lat="49.671920696273446" lon="9.304673178121448">
<ele>462.8</ele>
<time>2024-05-09T11:30:36Z</time>
</trkpt>
<trkpt lat="49.671966545283794" lon="9.304696982726457">
<ele>462.8</ele>
<time>2024-05-09T11:30:37Z</time>
</trkpt>
<trkpt lat="49.67200845479965" lon="9.304721793159842">
<ele>462.8</ele>
<time>2024-05-09T11:30:38Z</time>
</trkpt>
<trkpt lat="49.67205044813454" lon="9.3047446757555">
<ele>462.8</ele>
<time>2024-05-09T11:30:39Z</time>
</trkpt>
<trkpt lat="49.67209621332586" lon="9.304768480360508">
<ele>462.8</ele>
<time>2024-05-09T11:30:40Z</time>
</trkpt>
<trkpt lat="49.67213820666075" lon="9.304789518937469">
<ele>462.8</ele>
<time>2024-05-09T11:30:41Z</time>
</trkpt>
<trkpt lat="49.672180116176605" lon="9.304813323542476">
<ele>462.8</ele>
<time>2024-05-09T11:30:42Z</time>
</trkpt>
<trkpt lat="49.672222109511495" lon="9.304838133975863">
<ele>462.8</ele>
<time>2024-05-09T11:30:43Z</time>
</trkpt>
<trkpt lat="49.67226401902735" lon="9.304862022399902">
<ele>462.8</ele>
<time>2024-05-09T11:30:44Z</time>
</trkpt>
<trkpt lat="49.67230601236224" lon="9.304882977157831">
<ele>462.8</ele>
<time>2024-05-09T11:30:45Z</time>
</trkpt>
<trkpt lat="49.67235177755356" lon="9.30490493774414">
<ele>463</ele>
<time>2024-05-09T11:30:46Z</time>
</trkpt>
<trkpt lat="49.67239377088845" lon="9.304924886673687">
<ele>463</ele>
<time>2024-05-09T11:30:47Z</time>
</trkpt>
<trkpt lat="49.672435680404305" lon="9.304949697107077">
<ele>463.2</ele>
<time>2024-05-09T11:30:48Z</time>
</trkpt>
<trkpt lat="49.672481529414654" lon="9.304973585531116">
<ele>463.2</ele>
<time>2024-05-09T11:30:49Z</time>
</trkpt>
<trkpt lat="49.67252343893051" lon="9.304996468126774">
<ele>463.2</ele>
<time>2024-05-09T11:30:50Z</time>
</trkpt>
<trkpt lat="49.6725654322654" lon="9.305018344894052">
<ele>463.4</ele>
<time>2024-05-09T11:30:51Z</time>
</trkpt>
<trkpt lat="49.67260734178126" lon="9.30504315532744">
<ele>463.4</ele>
<time>2024-05-09T11:30:52Z</time>
</trkpt>
<trkpt lat="49.67264933511615" lon="9.30506318807602">
<ele>463.4</ele>
<time>2024-05-09T11:30:53Z</time>
</trkpt>
<trkpt lat="49.672695100307465" lon="9.305087076500058">
<ele>463.6</ele>
<time>2024-05-09T11:30:54Z</time>
</trkpt>
<trkpt lat="49.672737093642354" lon="9.305108031257989">
<ele>463.6</ele>
<time>2024-05-09T11:30:55Z</time>
</trkpt>
<trkpt lat="49.67278285883367" lon="9.305128064006569">
<ele>463.6</ele>
<time>2024-05-09T11:30:56Z</time>
</trkpt>
<trkpt lat="49.67282862402499" lon="9.305150024592876">
<ele>463.6</ele>
<time>2024-05-09T11:30:57Z</time>
</trkpt>
<trkpt lat="49.672874389216304" lon="9.305172907188537">
<ele>463.6</ele>
<time>2024-05-09T11:30:58Z</time>
</trkpt>
<trkpt lat="49.67292015440762" lon="9.305194783955812">
<ele>463.6</ele>
<time>2024-05-09T11:30:59Z</time>
</trkpt>
<trkpt lat="49.67296214774251" lon="9.305216744542122">
<ele>463.6</ele>
<time>2024-05-09T11:31:00Z</time>
</trkpt>
<trkpt lat="49.673007912933826" lon="9.305232921615245">
<ele>463.6</ele>
<time>2024-05-09T11:31:01Z</time>
</trkpt>
<trkpt lat="49.67304990626872" lon="9.305246332660316">
<ele>463.6</ele>
<time>2024-05-09T11:31:02Z</time>
</trkpt>
<trkpt lat="49.673091815784574" lon="9.30525965988636">
<ele>463.6</ele>
<time>2024-05-09T11:31:03Z</time>
</trkpt>
<trkpt lat="49.67313380911946" lon="9.305278770625591">
<ele>463.6</ele>
<time>2024-05-09T11:31:04Z</time>
</trkpt>
<trkpt lat="49.67317194677889" lon="9.305296875536442">
<ele>463.6</ele>
<time>2024-05-09T11:31:05Z</time>
</trkpt>
<trkpt lat="49.67321394011378" lon="9.305313052609565">
<ele>463.6</ele>
<time>2024-05-09T11:31:06Z</time>
</trkpt>
<trkpt lat="49.67325584962964" lon="9.305331157520412">
<ele>463.6</ele>
<time>2024-05-09T11:31:07Z</time>
</trkpt>
<trkpt lat="49.67329784296453" lon="9.305346412584186">
<ele>463.6</ele>
<time>2024-05-09T11:31:08Z</time>
</trkpt>
<trkpt lat="49.67333983629942" lon="9.30535789579153">
<ele>463.6</ele>
<time>2024-05-09T11:31:09Z</time>
</trkpt>
<trkpt lat="49.673385601490736" lon="9.305366445332766">
<ele>463.6</ele>
<time>2024-05-09T11:31:10Z</time>
</trkpt>
<trkpt lat="49.673427511006594" lon="9.305371223017572">
<ele>463.6</ele>
<time>2024-05-09T11:31:11Z</time>
</trkpt>
<trkpt lat="49.67346950434148" lon="9.30537792854011">
<ele>463.6</ele>
<time>2024-05-09T11:31:12Z</time>
</trkpt>
<trkpt lat="49.673503870144486" lon="9.305381700396538">
<ele>463.6</ele>
<time>2024-05-09T11:31:13Z</time>
</trkpt>
<trkpt lat="49.67353815212846" lon="9.305384634062648">
<ele>463.6</ele>
<time>2024-05-09T11:31:14Z</time>
</trkpt>
<trkpt lat="49.67358014546335" lon="9.305388405919077">
<ele>463.6</ele>
<time>2024-05-09T11:31:15Z</time>
</trkpt>
<trkpt lat="49.67361828312278" lon="9.305391255766152">
<ele>463.6</ele>
<time>2024-05-09T11:31:16Z</time>
</trkpt>
<trkpt lat="49.67366027645767" lon="9.305388405919077">
<ele>463.6</ele>
<time>2024-05-09T11:31:17Z</time>
</trkpt>
<trkpt lat="49.6736984141171" lon="9.30537792854011">
<ele>463.6</ele>
<time>2024-05-09T11:31:18Z</time>
</trkpt>
<trkpt lat="49.67373655177653" lon="9.30537985637784">
<ele>463.6</ele>
<time>2024-05-09T11:31:19Z</time>
</trkpt>
<trkpt lat="49.6737708337605" lon="9.305381700396538">
<ele>463.6</ele>
<time>2024-05-09T11:31:20Z</time>
</trkpt>
<trkpt lat="49.67381282709539" lon="9.305377006530762">
<ele>463.6</ele>
<time>2024-05-09T11:31:21Z</time>
</trkpt>
<trkpt lat="49.67385482043028" lon="9.305368373170497">
<ele>463.6</ele>
<time>2024-05-09T11:31:22Z</time>
</trkpt>
<trkpt lat="49.673900585621595" lon="9.305353118106725">
<ele>463.6</ele>
<time>2024-05-09T11:31:23Z</time>
</trkpt>
<trkpt lat="49.67394635081291" lon="9.305344568565488">
<ele>463.6</ele>
<time>2024-05-09T11:31:24Z</time>
</trkpt>
<trkpt lat="49.67399211600423" lon="9.305331157520412">
<ele>463.6</ele>
<time>2024-05-09T11:31:25Z</time>
</trkpt>
<trkpt lat="49.67403410933912" lon="9.305311124771832">
<ele>463.6</ele>
<time>2024-05-09T11:31:26Z</time>
</trkpt>
<trkpt lat="49.67407224699855" lon="9.305292097851634">
<ele>463.6</ele>
<time>2024-05-09T11:31:27Z</time>
</trkpt>
<trkpt lat="49.674114156514406" lon="9.305272987112405">
<ele>463.8</ele>
<time>2024-05-09T11:31:28Z</time>
</trkpt>
<trkpt lat="49.67415229417384" lon="9.305254882201552">
<ele>464</ele>
<time>2024-05-09T11:31:29Z</time>
</trkpt>
<trkpt lat="49.674194287508726" lon="9.305236777290702">
<ele>464.2</ele>
<time>2024-05-09T11:31:30Z</time>
</trkpt>
<trkpt lat="49.674236280843616" lon="9.305218672379851">
<ele>464.2</ele>
<time>2024-05-09T11:31:31Z</time>
</trkpt>
<trkpt lat="49.674274418503046" lon="9.305196711793542">
<ele>464.4</ele>
<time>2024-05-09T11:31:32Z</time>
</trkpt>
<trkpt lat="49.67431255616248" lon="9.305171901360154">
<ele>464.6</ele>
<time>2024-05-09T11:31:33Z</time>
</trkpt>
<trkpt lat="49.67434692196548" lon="9.30513946339488">
<ele>464.6</ele>
<time>2024-05-09T11:31:34Z</time>
</trkpt>
<trkpt lat="49.67438505962491" lon="9.305105181410909">
<ele>464.8</ele>
<time>2024-05-09T11:31:35Z</time>
</trkpt>
<trkpt lat="49.67441934160888" lon="9.305071821436286">
<ele>464.8</ele>
<time>2024-05-09T11:31:36Z</time>
</trkpt>
<trkpt lat="49.67445747926831" lon="9.305038377642632">
<ele>465</ele>
<time>2024-05-09T11:31:37Z</time>
</trkpt>
<trkpt lat="49.6744994726032" lon="9.305005017668009">
<ele>465</ele>
<time>2024-05-09T11:31:38Z</time>
</trkpt>
<trkpt lat="49.67453761026263" lon="9.304973585531116">
<ele>465</ele>
<time>2024-05-09T11:31:39Z</time>
</trkpt>
<trkpt lat="49.67457574792206" lon="9.304944919422269">
<ele>465</ele>
<time>2024-05-09T11:31:40Z</time>
</trkpt>
<trkpt lat="49.67461774125695" lon="9.304915415123103">
<ele>465</ele>
<time>2024-05-09T11:31:41Z</time>
</trkpt>
<trkpt lat="49.67465202324093" lon="9.304880127310753">
<ele>464.8</ele>
<time>2024-05-09T11:31:42Z</time>
</trkpt>
<trkpt lat="49.674690244719386" lon="9.3048448394984">
<ele>464.8</ele>
<time>2024-05-09T11:31:43Z</time>
</trkpt>
<trkpt lat="49.67472838237882" lon="9.304809551686049">
<ele>464.8</ele>
<time>2024-05-09T11:31:44Z</time>
</trkpt>
<trkpt lat="49.67477414757013" lon="9.304781891405582">
<ele>464.6</ele>
<time>2024-05-09T11:31:45Z</time>
</trkpt>
<trkpt lat="49.67481228522957" lon="9.304757080972196">
<ele>464.6</ele>
<time>2024-05-09T11:31:46Z</time>
</trkpt>
<trkpt lat="49.67485427856445" lon="9.30472849868238">
<ele>464.6</ele>
<time>2024-05-09T11:31:47Z</time>
</trkpt>
<trkpt lat="49.67489618808031" lon="9.304697988554835">
<ele>464.6</ele>
<time>2024-05-09T11:31:48Z</time>
</trkpt>
<trkpt lat="49.6749381814152" lon="9.30466840043664">
<ele>464.6</ele>
<time>2024-05-09T11:31:49Z</time>
</trkpt>
<trkpt lat="49.67498009093106" lon="9.304633112624288">
<ele>464.8</ele>
<time>2024-05-09T11:31:50Z</time>
</trkpt>
<trkpt lat="49.67502208426595" lon="9.304603524506092">
<ele>464.8</ele>
<time>2024-05-09T11:31:51Z</time>
</trkpt>
<trkpt lat="49.675067849457264" lon="9.304573014378548">
<ele>464.8</ele>
<time>2024-05-09T11:31:52Z</time>
</trkpt>
<trkpt lat="49.67510984279215" lon="9.30454627610743">
<ele>464.8</ele>
<time>2024-05-09T11:31:53Z</time>
</trkpt>
<trkpt lat="49.67515175230801" lon="9.304512916132808">
<ele>464.8</ele>
<time>2024-05-09T11:31:54Z</time>
</trkpt>
<trkpt lat="49.67519760131836" lon="9.304479556158183">
<ele>464.8</ele>
<time>2024-05-09T11:31:55Z</time>
</trkpt>
<trkpt lat="49.67523951083422" lon="9.304446196183562">
<ele>464.8</ele>
<time>2024-05-09T11:31:56Z</time>
</trkpt>
<trkpt lat="49.67527764849365" lon="9.304414680227636">
<ele>464.8</ele>
<time>2024-05-09T11:31:57Z</time>
</trkpt>
<trkpt lat="49.67531964182854" lon="9.304381320253016">
<ele>464.8</ele>
<time>2024-05-09T11:31:58Z</time>
</trkpt>
<trkpt lat="49.675361551344395" lon="9.304347960278392">
<ele>464.8</ele>
<time>2024-05-09T11:31:59Z</time>
</trkpt>
<trkpt lat="49.67539977282286" lon="9.304314600303767">
<ele>465</ele>
<time>2024-05-09T11:32:00Z</time>
</trkpt>
<trkpt lat="49.675441682338715" lon="9.304280234500766">
<ele>465</ele>
<time>2024-05-09T11:32:01Z</time>
</trkpt>
<trkpt lat="49.6754836756736" lon="9.304241174831986">
<ele>465</ele>
<time>2024-05-09T11:32:02Z</time>
</trkpt>
<trkpt lat="49.675521813333035" lon="9.304202031344175">
<ele>465.2</ele>
<time>2024-05-09T11:32:03Z</time>
</trkpt>
<trkpt lat="49.675559950992465" lon="9.304162971675396">
<ele>465.2</ele>
<time>2024-05-09T11:32:04Z</time>
</trkpt>
<trkpt lat="49.675598088651896" lon="9.304128605872393">
<ele>465.4</ele>
<time>2024-05-09T11:32:05Z</time>
</trkpt>
<trkpt lat="49.675640081986785" lon="9.30409331806004">
<ele>465.4</ele>
<time>2024-05-09T11:32:06Z</time>
</trkpt>
<trkpt lat="49.675678219646215" lon="9.304059958085418">
<ele>465.4</ele>
<time>2024-05-09T11:32:07Z</time>
</trkpt>
<trkpt lat="49.675720212981105" lon="9.304024670273066">
<ele>465.6</ele>
<time>2024-05-09T11:32:08Z</time>
</trkpt>
<trkpt lat="49.67576212249696" lon="9.30399315431714">
<ele>465.6</ele>
<time>2024-05-09T11:32:09Z</time>
</trkpt>
<trkpt lat="49.67580026015639" lon="9.30395501665771">
<ele>465.8</ele>
<time>2024-05-09T11:32:10Z</time>
</trkpt>
<trkpt lat="49.67584225349128" lon="9.303919728845358">
<ele>466</ele>
<time>2024-05-09T11:32:11Z</time>
</trkpt>
<trkpt lat="49.67588424682617" lon="9.303883519023657">
<ele>466.2</ele>
<time>2024-05-09T11:32:12Z</time>
</trkpt>
<trkpt lat="49.6759223844856" lon="9.303845381364226">
<ele>466.2</ele>
<time>2024-05-09T11:32:13Z</time>
</trkpt>
<trkpt lat="49.67596814967692" lon="9.303806237876415">
<ele>466.4</ele>
<time>2024-05-09T11:32:14Z</time>
</trkpt>
<trkpt lat="49.67601005919278" lon="9.303765250369906">
<ele>466.6</ele>
<time>2024-05-09T11:32:15Z</time>
</trkpt>
<trkpt lat="49.67604819685221" lon="9.303723257035015">
<ele>466.6</ele>
<time>2024-05-09T11:32:16Z</time>
</trkpt>
<trkpt lat="49.67608641833067" lon="9.30368134751916">
<ele>466.8</ele>
<time>2024-05-09T11:32:17Z</time>
</trkpt>
<trkpt lat="49.67612832784653" lon="9.30364036001265">
<ele>466.8</ele>
<time>2024-05-09T11:32:18Z</time>
</trkpt>
<trkpt lat="49.67617032118142" lon="9.30360121652484">
<ele>466.8</ele>
<time>2024-05-09T11:32:19Z</time>
</trkpt>
<trkpt lat="49.67621608637273" lon="9.303563078865407">
<ele>467</ele>
<time>2024-05-09T11:32:20Z</time>
</trkpt>
<trkpt lat="49.67625422403216" lon="9.30351823568344">
<ele>467</ele>
<time>2024-05-09T11:32:21Z</time>
</trkpt>
<trkpt lat="49.676292361691594" lon="9.303473392501472">
<ele>467</ele>
<time>2024-05-09T11:32:22Z</time>
</trkpt>
<trkpt lat="49.676330499351025" lon="9.303422849625347">
<ele>467</ele>
<time>2024-05-09T11:32:23Z</time>
</trkpt>
<trkpt lat="49.676372492685914" lon="9.303373312577603">
<ele>467</ele>
<time>2024-05-09T11:32:24Z</time>
</trkpt>
<trkpt lat="49.676410630345345" lon="9.303326541557908">
<ele>467</ele>
<time>2024-05-09T11:32:25Z</time>
</trkpt>
<trkpt lat="49.67644499614835" lon="9.303277004510164">
<ele>467</ele>
<time>2024-05-09T11:32:26Z</time>
</trkpt>
<trkpt lat="49.676486905664206" lon="9.303230233490469">
<ele>467.2</ele>
<time>2024-05-09T11:32:27Z</time>
</trkpt>
<trkpt lat="49.67652504332363" lon="9.30318639613688">
<ele>467.2</ele>
<time>2024-05-09T11:32:28Z</time>
</trkpt>
<trkpt lat="49.676567036658525" lon="9.303143480792642">
<ele>467.4</ele>
<time>2024-05-09T11:32:29Z</time>
</trkpt>
<trkpt lat="49.676609029993415" lon="9.303101487457752">
<ele>467.6</ele>
<time>2024-05-09T11:32:30Z</time>
</trkpt>
<trkpt lat="49.67665093950927" lon="9.303059577941896">
<ele>467.6</ele>
<time>2024-05-09T11:32:31Z</time>
</trkpt>
<trkpt lat="49.67669670470059" lon="9.303018506616354">
<ele>467.8</ele>
<time>2024-05-09T11:32:32Z</time>
</trkpt>
<trkpt lat="49.67673869803548" lon="9.302978441119194">
<ele>467.8</ele>
<time>2024-05-09T11:32:33Z</time>
</trkpt>
<trkpt lat="49.676784463226795" lon="9.302943153306842">
<ele>468</ele>
<time>2024-05-09T11:32:34Z</time>
</trkpt>
<trkpt lat="49.67683022841811" lon="9.30290694348514">
<ele>468</ele>
<time>2024-05-09T11:32:35Z</time>
</trkpt>
<trkpt lat="49.67687599360943" lon="9.30286972783506">
<ele>468.2</ele>
<time>2024-05-09T11:32:36Z</time>
</trkpt>
<trkpt lat="49.67692184261978" lon="9.302833518013358">
<ele>468.2</ele>
<time>2024-05-09T11:32:37Z</time>
</trkpt>
<trkpt lat="49.67696760781109" lon="9.302798230201006">
<ele>468.2</ele>
<time>2024-05-09T11:32:38Z</time>
</trkpt>
<trkpt lat="49.67701337300241" lon="9.302760092541575">
<ele>468.2</ele>
<time>2024-05-09T11:32:39Z</time>
</trkpt>
<trkpt lat="49.67705913819373" lon="9.302721954882143">
<ele>468.2</ele>
<time>2024-05-09T11:32:40Z</time>
</trkpt>
<trkpt lat="49.6771087590605" lon="9.302682811394334">
<ele>468.2</ele>
<time>2024-05-09T11:32:41Z</time>
</trkpt>
<trkpt lat="49.677158296108246" lon="9.302644673734903">
<ele>468.2</ele>
<time>2024-05-09T11:32:42Z</time>
</trkpt>
<trkpt lat="49.67720791697502" lon="9.302604608237743">
<ele>468.2</ele>
<time>2024-05-09T11:32:43Z</time>
</trkpt>
<trkpt lat="49.67725368216634" lon="9.302561692893503">
<ele>468.2</ele>
<time>2024-05-09T11:32:44Z</time>
</trkpt>
<trkpt lat="49.677299447357655" lon="9.302517855539918">
<ele>468</ele>
<time>2024-05-09T11:32:45Z</time>
</trkpt>
<trkpt lat="49.67734521254897" lon="9.30247301235795">
<ele>468</ele>
<time>2024-05-09T11:32:46Z</time>
</trkpt>
<trkpt lat="49.67739097774029" lon="9.302423475310206">
<ele>467.8</ele>
<time>2024-05-09T11:32:47Z</time>
</trkpt>
<trkpt lat="49.67743297107518" lon="9.302372932434082">
<ele>467.8</ele>
<time>2024-05-09T11:32:48Z</time>
</trkpt>
<trkpt lat="49.677478736266494" lon="9.302323311567308">
<ele>467.6</ele>
<time>2024-05-09T11:32:49Z</time>
</trkpt>
<trkpt lat="49.67752072960138" lon="9.302269918844104">
<ele>467.6</ele>
<time>2024-05-09T11:32:50Z</time>
</trkpt>
<trkpt lat="49.6775664947927" lon="9.302227003499866">
<ele>467.6</ele>
<time>2024-05-09T11:32:51Z</time>
</trkpt>
<trkpt lat="49.677612259984016" lon="9.302183082327248">
<ele>467.4</ele>
<time>2024-05-09T11:32:52Z</time>
</trkpt>
<trkpt lat="49.67765802517533" lon="9.302133545279505">
<ele>467.4</ele>
<time>2024-05-09T11:32:53Z</time>
</trkpt>
<trkpt lat="49.67770001851022" lon="9.302081996574998">
<ele>467.4</ele>
<time>2024-05-09T11:32:54Z</time>
</trkpt>
<trkpt lat="49.67773815616965" lon="9.302028603851795">
<ele>467.4</ele>
<time>2024-05-09T11:32:55Z</time>
</trkpt>
<trkpt lat="49.67778014950454" lon="9.301975211128592">
<ele>467.4</ele>
<time>2024-05-09T11:32:56Z</time>
</trkpt>
<trkpt lat="49.67781828716397" lon="9.301915112882853">
<ele>467.4</ele>
<time>2024-05-09T11:32:57Z</time>
</trkpt>
<trkpt lat="49.677852569147944" lon="9.301855014637113">
<ele>467.4</ele>
<time>2024-05-09T11:32:58Z</time>
</trkpt>
<trkpt lat="49.677890706807375" lon="9.301793072372677">
<ele>467.4</ele>
<time>2024-05-09T11:32:59Z</time>
</trkpt>
<trkpt lat="49.677928844466805" lon="9.301734901964664">
<ele>467.4</ele>
<time>2024-05-09T11:33:00Z</time>
</trkpt>
<trkpt lat="49.67796706594527" lon="9.301674803718925">
<ele>467.4</ele>
<time>2024-05-09T11:33:01Z</time>
</trkpt>
<trkpt lat="49.6780052036047" lon="9.301614705473185">
<ele>467.4</ele>
<time>2024-05-09T11:33:02Z</time>
</trkpt>
<trkpt lat="49.67804334126413" lon="9.301549829542637">
<ele>467.4</ele>
<time>2024-05-09T11:33:03Z</time>
</trkpt>
<trkpt lat="49.678085250779986" lon="9.301494592800736">
<ele>467.4</ele>
<time>2024-05-09T11:33:04Z</time>
</trkpt>
<trkpt lat="49.67812347225845" lon="9.301436422392726">
<ele>467.6</ele>
<time>2024-05-09T11:33:05Z</time>
</trkpt>
<trkpt lat="49.678165381774306" lon="9.301378168165684">
<ele>467.6</ele>
<time>2024-05-09T11:33:06Z</time>
</trkpt>
<trkpt lat="49.67820351943374" lon="9.301318153738976">
<ele>467.6</ele>
<time>2024-05-09T11:33:07Z</time>
</trkpt>
<trkpt lat="49.678245512768626" lon="9.301258055493236">
<ele>467.6</ele>
<time>2024-05-09T11:33:08Z</time>
</trkpt>
<trkpt lat="49.67828365042806" lon="9.301197957247496">
<ele>467.6</ele>
<time>2024-05-09T11:33:09Z</time>
</trkpt>
<trkpt lat="49.678325643762946" lon="9.301137859001756">
<ele>467.6</ele>
<time>2024-05-09T11:33:10Z</time>
</trkpt>
<trkpt lat="49.67836378142238" lon="9.30107306689024">
<ele>467.6</ele>
<time>2024-05-09T11:33:11Z</time>
</trkpt>
<trkpt lat="49.67839806340635" lon="9.301008190959692">
<ele>467.6</ele>
<time>2024-05-09T11:33:12Z</time>
</trkpt>
<trkpt lat="49.67843620106578" lon="9.300946164876224">
<ele>467.6</ele>
<time>2024-05-09T11:33:13Z</time>
</trkpt>
<trkpt lat="49.67847819440067" lon="9.300887994468212">
<ele>467.6</ele>
<time>2024-05-09T11:33:14Z</time>
</trkpt>
<trkpt lat="49.6785163320601" lon="9.300826974213123">
<ele>467.6</ele>
<time>2024-05-09T11:33:15Z</time>
</trkpt>
<trkpt lat="49.6785506978631" lon="9.300761176273229">
<ele>467.6</ele>
<time>2024-05-09T11:33:16Z</time>
</trkpt>
<trkpt lat="49.67858883552253" lon="9.300700156018138">
<ele>467.6</ele>
<time>2024-05-09T11:33:17Z</time>
</trkpt>
<trkpt lat="49.67862697318196" lon="9.300638129934669">
<ele>467.6</ele>
<time>2024-05-09T11:33:18Z</time>
</trkpt>
<trkpt lat="49.67866896651685" lon="9.30057618767023">
<ele>467.4</ele>
<time>2024-05-09T11:33:19Z</time>
</trkpt>
<trkpt lat="49.67871850356459" lon="9.300523716956375">
<ele>467.4</ele>
<time>2024-05-09T11:33:20Z</time>
</trkpt>
<trkpt lat="49.67876812443137" lon="9.300468396395445">
<ele>467.4</ele>
<time>2024-05-09T11:33:21Z</time>
</trkpt>
<trkpt lat="49.67882537283003" lon="9.300416931509972">
<ele>467.4</ele>
<time>2024-05-09T11:33:22Z</time>
</trkpt>
<trkpt lat="49.67888253740966" lon="9.300366388633847">
<ele>467.4</ele>
<time>2024-05-09T11:33:23Z</time>
</trkpt>
<trkpt lat="49.678939785808325" lon="9.300312995910645">
<ele>467.4</ele>
<time>2024-05-09T11:33:24Z</time>
</trkpt>
<trkpt lat="49.679000806063414" lon="9.30026144720614">
<ele>467.4</ele>
<time>2024-05-09T11:33:25Z</time>
</trkpt>
<trkpt lat="49.6790618263185" lon="9.300211826339364">
<ele>467.2</ele>
<time>2024-05-09T11:33:26Z</time>
</trkpt>
<trkpt lat="49.67912670224905" lon="9.300156589597464">
<ele>467.2</ele>
<time>2024-05-09T11:33:27Z</time>
</trkpt>
<trkpt lat="49.679195350036025" lon="9.300096491351724">
<ele>467</ele>
<time>2024-05-09T11:33:28Z</time>
</trkpt>
<trkpt lat="49.67926785349846" lon="9.300033543258904">
<ele>466.8</ele>
<time>2024-05-09T11:33:29Z</time>
</trkpt>
<trkpt lat="49.679336501285434" lon="9.299971517175436">
<ele>466.6</ele>
<time>2024-05-09T11:33:30Z</time>
</trkpt>
<trkpt lat="49.679416632279754" lon="9.299921980127692">
<ele>466.4</ele>
<time>2024-05-09T11:33:31Z</time>
</trkpt>
<trkpt lat="49.67948913574219" lon="9.29986665956676">
<ele>466.2</ele>
<time>2024-05-09T11:33:32Z</time>
</trkpt>
<trkpt lat="49.67956541106105" lon="9.299817038699985">
<ele>465.8</ele>
<time>2024-05-09T11:33:33Z</time>
</trkpt>
<trkpt lat="49.67963783070445" lon="9.299757946282623">
<ele>465.4</ele>
<time>2024-05-09T11:33:34Z</time>
</trkpt>
<trkpt lat="49.67971418984234" lon="9.299697848036883">
<ele>465</ele>
<time>2024-05-09T11:33:35Z</time>
</trkpt>
<trkpt lat="49.6797904651612" lon="9.299639677628877">
<ele>464.6</ele>
<time>2024-05-09T11:33:36Z</time>
</trkpt>
<trkpt lat="49.679866740480065" lon="9.299581507220864">
<ele>464.2</ele>
<time>2024-05-09T11:33:37Z</time>
</trkpt>
<trkpt lat="49.679946871474385" lon="9.299518559128046">
<ele>463.8</ele>
<time>2024-05-09T11:33:38Z</time>
</trkpt>
<trkpt lat="49.680023146793246" lon="9.29945468902588">
<ele>463.6</ele>
<time>2024-05-09T11:33:39Z</time>
</trkpt>
<trkpt lat="49.680103277787566" lon="9.299400290474296">
<ele>463.2</ele>
<time>2024-05-09T11:33:40Z</time>
</trkpt>
<trkpt lat="49.68017955310643" lon="9.299340192228556">
<ele>462.8</ele>
<time>2024-05-09T11:33:41Z</time>
</trkpt>
<trkpt lat="49.68025582842529" lon="9.299280093982816">
<ele>462.6</ele>
<time>2024-05-09T11:33:42Z</time>
</trkpt>
<trkpt lat="49.68032833188772" lon="9.299221923574803">
<ele>462.2</ele>
<time>2024-05-09T11:33:43Z</time>
</trkpt>
<trkpt lat="49.6803969796747" lon="9.299158053472638">
<ele>461.8</ele>
<time>2024-05-09T11:33:44Z</time>
</trkpt>
<trkpt lat="49.68047325499356" lon="9.299106588587165">
<ele>461.4</ele>
<time>2024-05-09T11:33:45Z</time>
</trkpt>
<trkpt lat="49.680538130924106" lon="9.299050262197852">
<ele>461.2</ele>
<time>2024-05-09T11:33:46Z</time>
</trkpt>
<trkpt lat="49.68060677871108" lon="9.299003574997188">
<ele>460.8</ele>
<time>2024-05-09T11:33:47Z</time>
</trkpt>
<trkpt lat="49.680675426498055" lon="9.29895873181522">
<ele>460.6</ele>
<time>2024-05-09T11:33:48Z</time>
</trkpt>
<trkpt lat="49.68074415810406" lon="9.298912044614552">
<ele>460.2</ele>
<time>2024-05-09T11:33:49Z</time>
</trkpt>
<trkpt lat="49.68081280589104" lon="9.298868123441936">
<ele>460</ele>
<time>2024-05-09T11:33:50Z</time>
</trkpt>
<trkpt lat="49.680877681821585" lon="9.298826213926075">
<ele>459.8</ele>
<time>2024-05-09T11:33:51Z</time>
</trkpt>
<trkpt lat="49.68093870207667" lon="9.29878329858184">
<ele>459.4</ele>
<time>2024-05-09T11:33:52Z</time>
</trkpt>
<trkpt lat="49.68099972233176" lon="9.29873652756214">
<ele>459.2</ele>
<time>2024-05-09T11:33:53Z</time>
</trkpt>
<trkpt lat="49.68106074258685" lon="9.298694534227252">
<ele>459.2</ele>
<time>2024-05-09T11:33:54Z</time>
</trkpt>
<trkpt lat="49.68112176284194" lon="9.298649774864316">
<ele>459</ele>
<time>2024-05-09T11:33:55Z</time>
</trkpt>
<trkpt lat="49.68118278309703" lon="9.298606859520078">
<ele>458.6</ele>
<time>2024-05-09T11:33:56Z</time>
</trkpt>
<trkpt lat="49.68124388717115" lon="9.29856293834746">
<ele>458.4</ele>
<time>2024-05-09T11:33:57Z</time>
</trkpt>
<trkpt lat="49.68130105175078" lon="9.29852195084095">
<ele>458.2</ele>
<time>2024-05-09T11:33:58Z</time>
</trkpt>
<trkpt lat="49.68135830014944" lon="9.29848188534379">
<ele>458</ele>
<time>2024-05-09T11:33:59Z</time>
</trkpt>
<trkpt lat="49.6814155485481" lon="9.298439975827932">
<ele>457.8</ele>
<time>2024-05-09T11:34:00Z</time>
</trkpt>
<trkpt lat="49.68147271312773" lon="9.298399910330772">
<ele>457.6</ele>
<time>2024-05-09T11:34:01Z</time>
</trkpt>
<trkpt lat="49.681526105850935" lon="9.298357916995885">
<ele>457.4</ele>
<time>2024-05-09T11:34:02Z</time>
</trkpt>
<trkpt lat="49.6815833542496" lon="9.298319779336452">
<ele>457.2</ele>
<time>2024-05-09T11:34:03Z</time>
</trkpt>
<trkpt lat="49.6816367469728" lon="9.298281641677022">
<ele>457</ele>
<time>2024-05-09T11:34:04Z</time>
</trkpt>
<trkpt lat="49.681690139696" lon="9.29824635386467">
<ele>456.8</ele>
<time>2024-05-09T11:34:05Z</time>
</trkpt>
<trkpt lat="49.68174361623824" lon="9.298210144042969">
<ele>456.6</ele>
<time>2024-05-09T11:34:06Z</time>
</trkpt>
<trkpt lat="49.68179700896144" lon="9.298174856230617">
<ele>456.4</ele>
<time>2024-05-09T11:34:07Z</time>
</trkpt>
<trkpt lat="49.68185417354107" lon="9.298139568418264">
<ele>456.2</ele>
<time>2024-05-09T11:34:08Z</time>
</trkpt>
<trkpt lat="49.68191142193973" lon="9.29810805246234">
<ele>456.2</ele>
<time>2024-05-09T11:34:09Z</time>
</trkpt>
<trkpt lat="49.68196481466293" lon="9.298081398010254">
<ele>456</ele>
<time>2024-05-09T11:34:10Z</time>
</trkpt>
<trkpt lat="49.682022063061595" lon="9.298060359433292">
<ele>455.8</ele>
<time>2024-05-09T11:34:11Z</time>
</trkpt>
<trkpt lat="49.6820754557848" lon="9.298038482666016">
<ele>455.8</ele>
<time>2024-05-09T11:34:12Z</time>
</trkpt>
<trkpt lat="49.682128848508" lon="9.298018449917436">
<ele>455.6</ele>
<time>2024-05-09T11:34:13Z</time>
</trkpt>
<trkpt lat="49.6821822412312" lon="9.297996489331126">
<ele>455.6</ele>
<time>2024-05-09T11:34:14Z</time>
</trkpt>
<trkpt lat="49.682239489629865" lon="9.297976456582546">
<ele>455.6</ele>
<time>2024-05-09T11:34:15Z</time>
</trkpt>
<trkpt lat="49.68229288235307" lon="9.297958351671696">
<ele>455.4</ele>
<time>2024-05-09T11:34:16Z</time>
</trkpt>
<trkpt lat="49.68234250321984" lon="9.297941168770194">
<ele>455.4</ele>
<time>2024-05-09T11:34:17Z</time>
</trkpt>
<trkpt lat="49.682395895943046" lon="9.29792683571577">
<ele>455.2</ele>
<time>2024-05-09T11:34:18Z</time>
</trkpt>
<trkpt lat="49.68244551680982" lon="9.297903031110764">
<ele>455.2</ele>
<time>2024-05-09T11:34:19Z</time>
</trkpt>
<trkpt lat="49.682498909533024" lon="9.297882076352836">
<ele>455</ele>
<time>2024-05-09T11:34:20Z</time>
</trkpt>
<trkpt lat="49.68255230225623" lon="9.297862965613604">
<ele>454.8</ele>
<time>2024-05-09T11:34:21Z</time>
</trkpt>
<trkpt lat="49.68260569497943" lon="9.297842932865024">
<ele>454.8</ele>
<time>2024-05-09T11:34:22Z</time>
</trkpt>
<trkpt lat="49.68265908770263" lon="9.297821978107097">
<ele>454.8</ele>
<time>2024-05-09T11:34:23Z</time>
</trkpt>
<trkpt lat="49.682712480425835" lon="9.297800017520784">
<ele>454.8</ele>
<time>2024-05-09T11:34:24Z</time>
</trkpt>
<trkpt lat="49.68276210129261" lon="9.297781912609937">
<ele>454.8</ele>
<time>2024-05-09T11:34:25Z</time>
</trkpt>
<trkpt lat="49.682811722159386" lon="9.297763807699084">
<ele>454.8</ele>
<time>2024-05-09T11:34:26Z</time>
</trkpt>
<trkpt lat="49.68286125920713" lon="9.297742769122124">
<ele>455</ele>
<time>2024-05-09T11:34:27Z</time>
</trkpt>
<trkpt lat="49.682910880073905" lon="9.297721814364197">
<ele>455</ele>
<time>2024-05-09T11:34:28Z</time>
</trkpt>
<trkpt lat="49.68295664526522" lon="9.297698009759188">
<ele>455.2</ele>
<time>2024-05-09T11:34:29Z</time>
</trkpt>
<trkpt lat="49.683006266132" lon="9.2976731993258">
<ele>455.2</ele>
<time>2024-05-09T11:34:30Z</time>
</trkpt>
<trkpt lat="49.68305580317974" lon="9.297648388892412">
<ele>455.4</ele>
<time>2024-05-09T11:34:31Z</time>
</trkpt>
<trkpt lat="49.68310165219009" lon="9.297621650621297">
<ele>455.6</ele>
<time>2024-05-09T11:34:32Z</time>
</trkpt>
<trkpt lat="49.683147417381406" lon="9.29759306833148">
<ele>455.8</ele>
<time>2024-05-09T11:34:33Z</time>
</trkpt>
<trkpt lat="49.68319318257272" lon="9.297563480213284">
<ele>456.2</ele>
<time>2024-05-09T11:34:34Z</time>
</trkpt>
<trkpt lat="49.68323509208858" lon="9.297532048076391">
<ele>456.4</ele>
<time>2024-05-09T11:34:35Z</time>
</trkpt>
<trkpt lat="49.68328094109893" lon="9.297498688101768">
<ele>456.8</ele>
<time>2024-05-09T11:34:36Z</time>
</trkpt>
<trkpt lat="49.683326706290245" lon="9.297466250136496">
<ele>457</ele>
<time>2024-05-09T11:34:37Z</time>
</trkpt>
<trkpt lat="49.6833686158061" lon="9.297432890161872">
<ele>457.2</ele>
<time>2024-05-09T11:34:38Z</time>
</trkpt>
<trkpt lat="49.68341060914099" lon="9.297399446368216">
<ele>457.4</ele>
<time>2024-05-09T11:34:39Z</time>
</trkpt>
<trkpt lat="49.68344874680042" lon="9.297363236546516">
<ele>457.6</ele>
<time>2024-05-09T11:34:40Z</time>
</trkpt>
<trkpt lat="49.683483112603426" lon="9.297323171049356">
<ele>457.8</ele>
<time>2024-05-09T11:34:41Z</time>
</trkpt>
<trkpt lat="49.68352125026286" lon="9.297278327867389">
<ele>458</ele>
<time>2024-05-09T11:34:42Z</time>
</trkpt>
<trkpt lat="49.6835517603904" lon="9.297231640666723">
<ele>458.2</ele>
<time>2024-05-09T11:34:43Z</time>
</trkpt>
<trkpt lat="49.68358604237437" lon="9.29718017578125">
<ele>458.4</ele>
<time>2024-05-09T11:34:44Z</time>
</trkpt>
<trkpt lat="49.68361663632095" lon="9.297124855220318">
<ele>458.6</ele>
<time>2024-05-09T11:34:45Z</time>
</trkpt>
<trkpt lat="49.68364714644849" lon="9.297069534659386">
<ele>458.8</ele>
<time>2024-05-09T11:34:46Z</time>
</trkpt>
<trkpt lat="49.68367002904415" lon="9.297015136107802">
<ele>459</ele>
<time>2024-05-09T11:34:47Z</time>
</trkpt>
<trkpt lat="49.68369291163981" lon="9.296953193843365">
<ele>459.2</ele>
<time>2024-05-09T11:34:48Z</time>
</trkpt>
<trkpt lat="49.68370816670358" lon="9.296890245750546">
<ele>459.4</ele>
<time>2024-05-09T11:34:49Z</time>
</trkpt>
<trkpt lat="49.68372719362378" lon="9.29682536982">
<ele>459.4</ele>
<time>2024-05-09T11:34:50Z</time>
</trkpt>
<trkpt lat="49.68374630436301" lon="9.296759571880102">
<ele>459.6</ele>
<time>2024-05-09T11:34:51Z</time>
</trkpt>
<trkpt lat="49.683761559426785" lon="9.296691846102476">
<ele>459.6</ele>
<time>2024-05-09T11:34:52Z</time>
</trkpt>
<trkpt lat="49.683780670166016" lon="9.2966231983155">
<ele>459.8</ele>
<time>2024-05-09T11:34:53Z</time>
</trkpt>
<trkpt lat="49.68379206955433" lon="9.296547845005987">
<ele>459.8</ele>
<time>2024-05-09T11:34:54Z</time>
</trkpt>
<trkpt lat="49.683803552761674" lon="9.29646871984005">
<ele>459.8</ele>
<time>2024-05-09T11:34:55Z</time>
</trkpt>
<trkpt lat="49.68381495214999" lon="9.296386661008">
<ele>459.8</ele>
<time>2024-05-09T11:34:56Z</time>
</trkpt>
<trkpt lat="49.68382643535733" lon="9.296303680166602">
<ele>459.8</ele>
<time>2024-05-09T11:34:57Z</time>
</trkpt>
<trkpt lat="49.68383406288922" lon="9.296217849478126">
<ele>459.8</ele>
<time>2024-05-09T11:34:58Z</time>
</trkpt>
<trkpt lat="49.683841690421104" lon="9.296130174770951">
<ele>459.6</ele>
<time>2024-05-09T11:34:59Z</time>
</trkpt>
<trkpt lat="49.68385308980942" lon="9.296038560569286">
<ele>459.6</ele>
<time>2024-05-09T11:35:00Z</time>
</trkpt>
<trkpt lat="49.68385694548488" lon="9.295943258330226">
<ele>459.4</ele>
<time>2024-05-09T11:35:01Z</time>
</trkpt>
<trkpt lat="49.68386457301676" lon="9.295841166749597">
<ele>459.2</ele>
<time>2024-05-09T11:35:02Z</time>
</trkpt>
<trkpt lat="49.68386834487319" lon="9.295740080997348">
<ele>459</ele>
<time>2024-05-09T11:35:03Z</time>
</trkpt>
<trkpt lat="49.68387597240507" lon="9.29563706740737">
<ele>458.8</ele>
<time>2024-05-09T11:35:04Z</time>
</trkpt>
<trkpt lat="49.683879828080535" lon="9.295528354123237">
<ele>458.6</ele>
<time>2024-05-09T11:35:05Z</time>
</trkpt>
<trkpt lat="49.68389122746885" lon="9.2954196408391">
<ele>458.4</ele>
<time>2024-05-09T11:35:06Z</time>
</trkpt>
<trkpt lat="49.68389508314431" lon="9.295311849564314">
<ele>458</ele>
<time>2024-05-09T11:35:07Z</time>
</trkpt>
<trkpt lat="49.68390648253262" lon="9.295205064117908">
<ele>457.8</ele>
<time>2024-05-09T11:35:08Z</time>
</trkpt>
<trkpt lat="49.68391411006451" lon="9.295096350833774">
<ele>457.6</ele>
<time>2024-05-09T11:35:09Z</time>
</trkpt>
<trkpt lat="49.683917965739965" lon="9.294989565387368">
<ele>457.4</ele>
<time>2024-05-09T11:35:10Z</time>
</trkpt>
<trkpt lat="49.68392173759639" lon="9.294881774112582">
<ele>457</ele>
<time>2024-05-09T11:35:11Z</time>
</trkpt>
<trkpt lat="49.68393322080374" lon="9.294773060828447">
<ele>456.8</ele>
<time>2024-05-09T11:35:12Z</time>
</trkpt>
<trkpt lat="49.683940848335624" lon="9.294663425534964">
<ele>456.4</ele>
<time>2024-05-09T11:35:13Z</time>
</trkpt>
<trkpt lat="49.68394847586751" lon="9.294556556269526">
<ele>456.2</ele>
<time>2024-05-09T11:35:14Z</time>
</trkpt>
<trkpt lat="49.683959959074855" lon="9.294446920976045">
<ele>455.8</ele>
<time>2024-05-09T11:35:15Z</time>
</trkpt>
<trkpt lat="49.68397521413863" lon="9.29433535784483">
<ele>455.4</ele>
<time>2024-05-09T11:35:16Z</time>
</trkpt>
<trkpt lat="49.68398661352694" lon="9.294223710894585">
<ele>455.2</ele>
<time>2024-05-09T11:35:17Z</time>
</trkpt>
<trkpt lat="49.68400572426617" lon="9.29411499761045">
<ele>454.8</ele>
<time>2024-05-09T11:35:18Z</time>
</trkpt>
<trkpt lat="49.684020979329944" lon="9.294005362316966">
<ele>454.4</ele>
<time>2024-05-09T11:35:19Z</time>
</trkpt>
<trkpt lat="49.68404000625014" lon="9.293905198574066">
<ele>454.2</ele>
<time>2024-05-09T11:35:20Z</time>
</trkpt>
<trkpt lat="49.684059116989374" lon="9.293805118650198">
<ele>454</ele>
<time>2024-05-09T11:35:21Z</time>
</trkpt>
<trkpt lat="49.684078143909574" lon="9.293709732592106">
<ele>453.6</ele>
<time>2024-05-09T11:35:22Z</time>
</trkpt>
<trkpt lat="49.684097254648805" lon="9.293613424524665">
<ele>453.4</ele>
<time>2024-05-09T11:35:23Z</time>
</trkpt>
<trkpt lat="49.68411628156901" lon="9.293515188619494">
<ele>453</ele>
<time>2024-05-09T11:35:24Z</time>
</trkpt>
<trkpt lat="49.684135392308235" lon="9.293419802561402">
<ele>452.8</ele>
<time>2024-05-09T11:35:25Z</time>
</trkpt>
<trkpt lat="49.684154503047466" lon="9.293328272178767">
<ele>452.4</ele>
<time>2024-05-09T11:35:26Z</time>
</trkpt>
<trkpt lat="49.684173529967666" lon="9.293231964111328">
<ele>452</ele>
<time>2024-05-09T11:35:27Z</time>
</trkpt>
<trkpt lat="49.68418878503144" lon="9.293133728206158">
<ele>451.6</ele>
<time>2024-05-09T11:35:28Z</time>
</trkpt>
<trkpt lat="49.68420789577067" lon="9.293036414310336">
<ele>451.4</ele>
<time>2024-05-09T11:35:29Z</time>
</trkpt>
<trkpt lat="49.68422315083444" lon="9.292938178405166">
<ele>451</ele>
<time>2024-05-09T11:35:30Z</time>
</trkpt>
<trkpt lat="49.6842460334301" lon="9.292839942499995">
<ele>450.8</ele>
<time>2024-05-09T11:35:31Z</time>
</trkpt>
<trkpt lat="49.6842650603503" lon="9.292739862576129">
<ele>450.4</ele>
<time>2024-05-09T11:35:32Z</time>
</trkpt>
<trkpt lat="49.68428794294596" lon="9.292641626670957">
<ele>450</ele>
<time>2024-05-09T11:35:33Z</time>
</trkpt>
<trkpt lat="49.68430705368519" lon="9.292543390765786">
<ele>449.6</ele>
<time>2024-05-09T11:35:34Z</time>
</trkpt>
<trkpt lat="49.68432616442442" lon="9.292441299185157">
<ele>449.2</ele>
<time>2024-05-09T11:35:35Z</time>
</trkpt>
<trkpt lat="49.68434904702008" lon="9.292343063279986">
<ele>448.8</ele>
<time>2024-05-09T11:35:36Z</time>
</trkpt>
<trkpt lat="49.68437570147216" lon="9.292246755212544">
<ele>448.4</ele>
<time>2024-05-09T11:35:37Z</time>
</trkpt>
<trkpt lat="49.684394812211394" lon="9.292146675288675">
<ele>448</ele>
<time>2024-05-09T11:35:38Z</time>
</trkpt>
<trkpt lat="49.68441769480705" lon="9.2920436616987">
<ele>447.6</ele>
<time>2024-05-09T11:35:39Z</time>
</trkpt>
<trkpt lat="49.68443672172725" lon="9.29194157011807">
<ele>447.2</ele>
<time>2024-05-09T11:35:40Z</time>
</trkpt>
<trkpt lat="49.68445583246648" lon="9.29184626787901">
<ele>446.8</ele>
<time>2024-05-09T11:35:41Z</time>
</trkpt>
<trkpt lat="49.684474943205714" lon="9.291754653677344">
<ele>446.4</ele>
<time>2024-05-09T11:35:42Z</time>
</trkpt>
<trkpt lat="49.684490198269486" lon="9.291663123294711">
<ele>445.8</ele>
<time>2024-05-09T11:35:43Z</time>
</trkpt>
<trkpt lat="49.68450545333326" lon="9.291580142453313">
<ele>445.4</ele>
<time>2024-05-09T11:35:44Z</time>
</trkpt>
<trkpt lat="49.68452833592892" lon="9.291502945125105">
<ele>445</ele>
<time>2024-05-09T11:35:45Z</time>
</trkpt>
<trkpt lat="49.684554990381" lon="9.29142851382494">
<ele>444.6</ele>
<time>2024-05-09T11:35:46Z</time>
</trkpt>
<trkpt lat="49.68458550050855" lon="9.291357016190886">
<ele>444.2</ele>
<time>2024-05-09T11:35:47Z</time>
</trkpt>
<trkpt lat="49.68463126569986" lon="9.291299767792225">
<ele>443.6</ele>
<time>2024-05-09T11:35:48Z</time>
</trkpt>
<trkpt lat="49.684692369773984" lon="9.291268335655332">
<ele>443.2</ele>
<time>2024-05-09T11:35:49Z</time>
</trkpt>
<trkpt lat="49.6847571618855" lon="9.291279735043643">
<ele>442.8</ele>
<time>2024-05-09T11:35:50Z</time>
</trkpt>
<trkpt lat="49.68482203781605" lon="9.291337905451655">
<ele>442.2</ele>
<time>2024-05-09T11:35:51Z</time>
</trkpt>
<trkpt lat="49.68486780300736" lon="9.291423736140132">
<ele>441.8</ele>
<time>2024-05-09T11:35:52Z</time>
</trkpt>
<trkpt lat="49.684909796342254" lon="9.291511494666338">
<ele>441.4</ele>
<time>2024-05-09T11:35:53Z</time>
</trkpt>
<trkpt lat="49.68494793400168" lon="9.291614508256316">
<ele>441</ele>
<time>2024-05-09T11:35:54Z</time>
</trkpt>
<trkpt lat="49.684986071661115" lon="9.291721293702722">
<ele>440.6</ele>
<time>2024-05-09T11:35:55Z</time>
</trkpt>
<trkpt lat="49.685028064996" lon="9.29182145744562">
<ele>440.2</ele>
<time>2024-05-09T11:35:56Z</time>
</trkpt>
<trkpt lat="49.68507383018732" lon="9.291919693350792">
<ele>439.8</ele>
<time>2024-05-09T11:35:57Z</time>
</trkpt>
<trkpt lat="49.68513099476695" lon="9.292011223733423">
<ele>439.4</ele>
<time>2024-05-09T11:35:58Z</time>
</trkpt>
<trkpt lat="49.68518824316561" lon="9.29209990426898">
<ele>439</ele>
<time>2024-05-09T11:35:59Z</time>
</trkpt>
<trkpt lat="49.68525311909616" lon="9.292184812948108">
<ele>438.8</ele>
<time>2024-05-09T11:36:00Z</time>
</trkpt>
<trkpt lat="49.685321766883135" lon="9.292266787961124">
<ele>438.4</ele>
<time>2024-05-09T11:36:01Z</time>
</trkpt>
<trkpt lat="49.68539041467011" lon="9.292340213432908">
<ele>438</ele>
<time>2024-05-09T11:36:02Z</time>
</trkpt>
<trkpt lat="49.68545529060066" lon="9.292407939210534">
<ele>437.6</ele>
<time>2024-05-09T11:36:03Z</time>
</trkpt>
<trkpt lat="49.68552393838763" lon="9.292474742978811">
<ele>437.2</ele>
<time>2024-05-09T11:36:04Z</time>
</trkpt>
<trkpt lat="49.68558881431818" lon="9.292538613080978">
<ele>436.8</ele>
<time>2024-05-09T11:36:05Z</time>
</trkpt>
<trkpt lat="49.685657462105155" lon="9.29259292781353">
<ele>436.4</ele>
<time>2024-05-09T11:36:06Z</time>
</trkpt>
<trkpt lat="49.68572996556759" lon="9.292643470689654">
<ele>436</ele>
<time>2024-05-09T11:36:07Z</time>
</trkpt>
<trkpt lat="49.68580624088645" lon="9.292690241709352">
<ele>435.6</ele>
<time>2024-05-09T11:36:08Z</time>
</trkpt>
<trkpt lat="49.68587874434888" lon="9.292736928910015">
<ele>435.2</ele>
<time>2024-05-09T11:36:09Z</time>
</trkpt>
<trkpt lat="49.68594739213586" lon="9.29277129471302">
<ele>434.8</ele>
<time>2024-05-09T11:36:10Z</time>
</trkpt>
<trkpt lat="49.68601989559829" lon="9.292798032984138">
<ele>434.4</ele>
<time>2024-05-09T11:36:11Z</time>
</trkpt>
<trkpt lat="49.68608854338527" lon="9.292818065732718">
<ele>434</ele>
<time>2024-05-09T11:36:12Z</time>
</trkpt>
<trkpt lat="49.68615333549678" lon="9.29282946512103">
<ele>433.6</ele>
<time>2024-05-09T11:36:13Z</time>
</trkpt>
<trkpt lat="49.68622206710279" lon="9.292839942499995">
<ele>433.2</ele>
<time>2024-05-09T11:36:14Z</time>
</trkpt>
<trkpt lat="49.686286859214306" lon="9.292856203392148">
<ele>432.8</ele>
<time>2024-05-09T11:36:15Z</time>
</trkpt>
<trkpt lat="49.68635559082031" lon="9.29287145845592">
<ele>432.4</ele>
<time>2024-05-09T11:36:16Z</time>
</trkpt>
<trkpt lat="49.68643949367106" lon="9.29284949786961">
<ele>432</ele>
<time>2024-05-09T11:36:17Z</time>
</trkpt>
<trkpt lat="49.68653102405369" lon="9.292846648022532">
<ele>431.6</ele>
<time>2024-05-09T11:36:18Z</time>
</trkpt>
<trkpt lat="49.68661492690444" lon="9.292828543111682">
<ele>431.2</ele>
<time>2024-05-09T11:36:19Z</time>
</trkpt>
<trkpt lat="49.68669505789876" lon="9.292819909751415">
<ele>430.8</ele>
<time>2024-05-09T11:36:20Z</time>
</trkpt>
<trkpt lat="49.68679044395685" lon="9.292826615273952">
<ele>430.4</ele>
<time>2024-05-09T11:36:21Z</time>
</trkpt>
<trkpt lat="49.6868743468076" lon="9.292826615273952">
<ele>430</ele>
<time>2024-05-09T11:36:22Z</time>
</trkpt>
<trkpt lat="49.68695447780192" lon="9.29283139295876">
<ele>429.6</ele>
<time>2024-05-09T11:36:23Z</time>
</trkpt>
<trkpt lat="49.68703452497721" lon="9.292846648022532">
<ele>429</ele>
<time>2024-05-09T11:36:24Z</time>
</trkpt>
<trkpt lat="49.68710702843964" lon="9.292861903086305">
<ele>428.6</ele>
<time>2024-05-09T11:36:25Z</time>
</trkpt>
<trkpt lat="49.6871833037585" lon="9.292875230312347">
<ele>428.2</ele>
<time>2024-05-09T11:36:26Z</time>
</trkpt>
<trkpt lat="49.68727491796017" lon="9.292888641357422">
<ele>427.6</ele>
<time>2024-05-09T11:36:27Z</time>
</trkpt>
<trkpt lat="49.6873664483428" lon="9.29290859028697">
<ele>427.2</ele>
<time>2024-05-09T11:36:28Z</time>
</trkpt>
<trkpt lat="49.68744272366166" lon="9.29293155670166">
<ele>426.8</ele>
<time>2024-05-09T11:36:29Z</time>
</trkpt>
<trkpt lat="49.687534254044294" lon="9.292958211153746">
<ele>426.2</ele>
<time>2024-05-09T11:36:30Z</time>
</trkpt>
<trkpt lat="49.68762964010239" lon="9.293011603876948">
<ele>425.8</ele>
<time>2024-05-09T11:36:31Z</time>
</trkpt>
<trkpt lat="49.68774028122425" lon="9.293061224743724">
<ele>425.2</ele>
<time>2024-05-09T11:36:32Z</time>
</trkpt>
<trkpt lat="49.68783181160688" lon="9.293114617466928">
<ele>424.8</ele>
<time>2024-05-09T11:36:33Z</time>
</trkpt>
<trkpt lat="49.687931053340435" lon="9.293154682964088">
<ele>424.2</ele>
<time>2024-05-09T11:36:34Z</time>
</trkpt>
<trkpt lat="49.68801495619118" lon="9.293141355738044">
<ele>423.8</ele>
<time>2024-05-09T11:36:35Z</time>
</trkpt>
<trkpt lat="49.68811796978116" lon="9.293141355738044">
<ele>423.2</ele>
<time>2024-05-09T11:36:36Z</time>
</trkpt>
<trkpt lat="49.68822089955211" lon="9.293133728206158">
<ele>422.6</ele>
<time>2024-05-09T11:36:37Z</time>
</trkpt>
<trkpt lat="49.68831251375377" lon="9.293153760954738">
<ele>422.2</ele>
<time>2024-05-09T11:36:38Z</time>
</trkpt>
<trkpt lat="49.68838878907263" lon="9.293158454820514">
<ele>421.6</ele>
<time>2024-05-09T11:36:39Z</time>
</trkpt>
<trkpt lat="49.688465064391494" lon="9.293201370164752">
<ele>421</ele>
<time>2024-05-09T11:36:40Z</time>
</trkpt>
<trkpt lat="49.68855659477413" lon="9.29322618059814">
<ele>420.6</ele>
<time>2024-05-09T11:36:41Z</time>
</trkpt>
<trkpt lat="49.688625326380134" lon="9.29324336349964">
<ele>420</ele>
<time>2024-05-09T11:36:42Z</time>
</trkpt>
<trkpt lat="49.688701601698995" lon="9.293298684060574">
<ele>419.4</ele>
<time>2024-05-09T11:36:43Z</time>
</trkpt>
<trkpt lat="49.688777877017856" lon="9.293328272178767">
<ele>419</ele>
<time>2024-05-09T11:36:44Z</time>
</trkpt>
<trkpt lat="49.68884652480483" lon="9.293352998793123">
<ele>418.4</ele>
<time>2024-05-09T11:36:45Z</time>
</trkpt>
<trkpt lat="49.68890754505992" lon="9.293390214443209">
<ele>417.8</ele>
<time>2024-05-09T11:36:46Z</time>
</trkpt>
<trkpt lat="49.68898004852235" lon="9.293431201949716">
<ele>417.2</ele>
<time>2024-05-09T11:36:47Z</time>
</trkpt>
<trkpt lat="49.6890639513731" lon="9.293477972969413">
<ele>416.6</ele>
<time>2024-05-09T11:36:48Z</time>
</trkpt>
<trkpt lat="49.689151709899306" lon="9.293526588007808">
<ele>416</ele>
<time>2024-05-09T11:36:49Z</time>
</trkpt>
<trkpt lat="49.68923561275005" lon="9.293568581342695">
<ele>415.6</ele>
<time>2024-05-09T11:36:50Z</time>
</trkpt>
<trkpt lat="49.689311971887946" lon="9.29360194131732">
<ele>415</ele>
<time>2024-05-09T11:36:51Z</time>
</trkpt>
<trkpt lat="49.689392019063234" lon="9.293642928823829">
<ele>414.6</ele>
<time>2024-05-09T11:36:52Z</time>
</trkpt>
<trkpt lat="49.68946837820113" lon="9.293695399537684">
<ele>414.2</ele>
<time>2024-05-09T11:36:53Z</time>
</trkpt>
<trkpt lat="49.68954079784453" lon="9.293729765340686">
<ele>413.6</ele>
<time>2024-05-09T11:36:54Z</time>
</trkpt>
<trkpt lat="49.68962478451431" lon="9.293745020404458">
<ele>413.2</ele>
<time>2024-05-09T11:36:55Z</time>
</trkpt>
<trkpt lat="49.689708687365055" lon="9.293743092566729">
<ele>412.6</ele>
<time>2024-05-09T11:36:56Z</time>
</trkpt>
<trkpt lat="49.68981547281146" lon="9.29370210506022">
<ele>412.2</ele>
<time>2024-05-09T11:36:57Z</time>
</trkpt>
<trkpt lat="49.68990323133767" lon="9.293656339868903">
<ele>411.8</ele>
<time>2024-05-09T11:36:58Z</time>
</trkpt>
<trkpt lat="49.68999861739576" lon="9.293566653504968">
<ele>411.4</ele>
<time>2024-05-09T11:36:59Z</time>
</trkpt>
<trkpt lat="49.69008629210293" lon="9.29348467849195">
<ele>411</ele>
<time>2024-05-09T11:37:00Z</time>
</trkpt>
<trkpt lat="49.690162651240826" lon="9.293397841975093">
<ele>410.4</ele>
<time>2024-05-09T11:37:01Z</time>
</trkpt>
<trkpt lat="49.69022744335234" lon="9.293319638818502">
<ele>410</ele>
<time>2024-05-09T11:37:02Z</time>
</trkpt>
<trkpt lat="49.69029231928289" lon="9.293234813958406">
<ele>409.6</ele>
<time>2024-05-09T11:37:03Z</time>
</trkpt>
<trkpt lat="49.69035333953798" lon="9.29312702268362">
<ele>409.2</ele>
<time>2024-05-09T11:37:04Z</time>
</trkpt>
<trkpt lat="49.69042198732495" lon="9.293033564463258">
<ele>408.8</ele>
<time>2024-05-09T11:37:05Z</time>
</trkpt>
<trkpt lat="49.69049449078739" lon="9.292951505631208">
<ele>408.2</ele>
<time>2024-05-09T11:37:06Z</time>
</trkpt>
<trkpt lat="49.69056313857436" lon="9.292859975248575">
<ele>407.8</ele>
<time>2024-05-09T11:37:07Z</time>
</trkpt>
<trkpt lat="49.69062801450491" lon="9.29277129471302">
<ele>407.4</ele>
<time>2024-05-09T11:37:08Z</time>
</trkpt>
<trkpt lat="49.69068140722811" lon="9.292683536186814">
<ele>407</ele>
<time>2024-05-09T11:37:09Z</time>
</trkpt>
<trkpt lat="49.69072717241943" lon="9.292585300281644">
<ele>406.4</ele>
<time>2024-05-09T11:37:10Z</time>
</trkpt>
<trkpt lat="49.69076153822243" lon="9.292476586997507">
<ele>406</ele>
<time>2024-05-09T11:37:11Z</time>
</trkpt>
<trkpt lat="49.69078819267452" lon="9.292353624477984">
<ele>405.6</ele>
<time>2024-05-09T11:37:12Z</time>
</trkpt>
<trkpt lat="49.69079967588186" lon="9.292233427986504">
<ele>405.2</ele>
<time>2024-05-09T11:37:13Z</time>
</trkpt>
<trkpt lat="49.69078056514263" lon="9.292117087170482">
<ele>404.6</ele>
<time>2024-05-09T11:37:14Z</time>
</trkpt>
<trkpt lat="49.690753910690546" lon="9.292004518210888">
<ele>404.2</ele>
<time>2024-05-09T11:37:15Z</time>
</trkpt>
<trkpt lat="49.69071954488754" lon="9.291892955079676">
<ele>403.8</ele>
<time>2024-05-09T11:37:16Z</time>
</trkpt>
<trkpt lat="49.690677635371685" lon="9.291785163804889">
<ele>403.2</ele>
<time>2024-05-09T11:37:17Z</time>
</trkpt>
<trkpt lat="49.6906356420368" lon="9.291680306196213">
<ele>402.8</ele>
<time>2024-05-09T11:37:18Z</time>
</trkpt>
<trkpt lat="49.690593648701906" lon="9.291568743065">
<ele>402.2</ele>
<time>2024-05-09T11:37:19Z</time>
</trkpt>
<trkpt lat="49.69055173918605" lon="9.291449468582869">
<ele>401.6</ele>
<time>2024-05-09T11:37:20Z</time>
</trkpt>
<trkpt lat="49.69050974585116" lon="9.29133128374815">
<ele>401</ele>
<time>2024-05-09T11:37:21Z</time>
</trkpt>
<trkpt lat="49.69047160819173" lon="9.291206309571862">
<ele>400.4</ele>
<time>2024-05-09T11:37:22Z</time>
</trkpt>
<trkpt lat="49.690441098064184" lon="9.291081419214606">
<ele>399.8</ele>
<time>2024-05-09T11:37:23Z</time>
</trkpt>
<trkpt lat="49.69041435979307" lon="9.290966922417285">
<ele>399.2</ele>
<time>2024-05-09T11:37:24Z</time>
</trkpt>
<trkpt lat="49.69039147719741" lon="9.29079626686871">
<ele>398.6</ele>
<time>2024-05-09T11:37:25Z</time>
</trkpt>
<trkpt lat="49.690380077809095" lon="9.290666515007617">
<ele>398</ele>
<time>2024-05-09T11:37:26Z</time>
</trkpt>
<trkpt lat="49.69035333953798" lon="9.29052159190178">
<ele>397.4</ele>
<time>2024-05-09T11:37:27Z</time>
</trkpt>
<trkpt lat="49.690341940149665" lon="9.290385218337178">
<ele>397</ele>
<time>2024-05-09T11:37:28Z</time>
</trkpt>
<trkpt lat="49.69034956768155" lon="9.290236439555883">
<ele>396.4</ele>
<time>2024-05-09T11:37:29Z</time>
</trkpt>
<trkpt lat="49.69035719521344" lon="9.290113393217323">
<ele>396</ele>
<time>2024-05-09T11:37:30Z</time>
</trkpt>
<trkpt lat="49.69038770534098" lon="9.29000853560865">
<ele>395.6</ele>
<time>2024-05-09T11:37:31Z</time>
</trkpt>
<trkpt lat="49.690418215468526" lon="9.289806364104152">
<ele>395.2</ele>
<time>2024-05-09T11:37:32Z</time>
</trkpt>
<trkpt lat="49.69044486992061" lon="9.289678540080786">
<ele>394.8</ele>
<time>2024-05-09T11:37:33Z</time>
</trkpt>
<trkpt lat="49.69047160819173" lon="9.289538310840726">
<ele>394.4</ele>
<time>2024-05-09T11:37:34Z</time>
</trkpt>
<trkpt lat="49.690483091399074" lon="9.289360027760267">
<ele>394</ele>
<time>2024-05-09T11:37:35Z</time>
</trkpt>
<trkpt lat="49.69051360152662" lon="9.289239831268787">
<ele>393.6</ele>
<time>2024-05-09T11:37:36Z</time>
</trkpt>
<trkpt lat="49.6905402559787" lon="9.289103457704186">
<ele>393.4</ele>
<time>2024-05-09T11:37:37Z</time>
</trkpt>
<trkpt lat="49.69058987684548" lon="9.288986194878817">
<ele>393</ele>
<time>2024-05-09T11:37:38Z</time>
</trkpt>
<trkpt lat="49.690616531297565" lon="9.288871698081492">
<ele>392.6</ele>
<time>2024-05-09T11:37:39Z</time>
</trkpt>
<trkpt lat="49.690658524632454" lon="9.288756363093851">
<ele>392.4</ele>
<time>2024-05-09T11:37:40Z</time>
</trkpt>
<trkpt lat="49.69070428982377" lon="9.288638094440104">
<ele>392</ele>
<time>2024-05-09T11:37:41Z</time>
</trkpt>
<trkpt lat="49.69074628315866" lon="9.288513120263817">
<ele>391.6</ele>
<time>2024-05-09T11:37:42Z</time>
</trkpt>
<trkpt lat="49.6907958202064" lon="9.288393007591369">
<ele>391.4</ele>
<time>2024-05-09T11:37:43Z</time>
</trkpt>
<trkpt lat="49.69085692428053" lon="9.288269961252809">
<ele>391</ele>
<time>2024-05-09T11:37:44Z</time>
</trkpt>
<trkpt lat="49.69090646132827" lon="9.288113554939628">
<ele>390.6</ele>
<time>2024-05-09T11:37:45Z</time>
</trkpt>
<trkpt lat="49.69096748158336" lon="9.28797148168087">
<ele>390.2</ele>
<time>2024-05-09T11:37:46Z</time>
</trkpt>
<trkpt lat="49.691032357513905" lon="9.28783033043146">
<ele>389.8</ele>
<time>2024-05-09T11:37:47Z</time>
</trkpt>
<trkpt lat="49.69110486097634" lon="9.287725389003754">
<ele>389.4</ele>
<time>2024-05-09T11:37:48Z</time>
</trkpt>
<trkpt lat="49.69118499197066" lon="9.287625309079884">
<ele>389</ele>
<time>2024-05-09T11:37:49Z</time>
</trkpt>
<trkpt lat="49.691249784082174" lon="9.287498407065868">
<ele>388.6</ele>
<time>2024-05-09T11:37:50Z</time>
</trkpt>
<trkpt lat="49.691326059401035" lon="9.287404948845506">
<ele>388.2</ele>
<time>2024-05-09T11:37:51Z</time>
</trkpt>
<trkpt lat="49.69139479100704" lon="9.287306712940335">
<ele>387.8</ele>
<time>2024-05-09T11:37:52Z</time>
</trkpt>
<trkpt lat="49.69146721065045" lon="9.287183750420809">
<ele>387.6</ele>
<time>2024-05-09T11:37:53Z</time>
</trkpt>
<trkpt lat="49.69153594225645" lon="9.287053076550364">
<ele>387.2</ele>
<time>2024-05-09T11:37:54Z</time>
</trkpt>
<trkpt lat="49.691604590043426" lon="9.286928102374077">
<ele>386.8</ele>
<time>2024-05-09T11:37:55Z</time>
</trkpt>
<trkpt lat="49.691665610298514" lon="9.286806983873248">
<ele>386.2</ele>
<time>2024-05-09T11:37:56Z</time>
</trkpt>
<trkpt lat="49.69173048622906" lon="9.286678237840531">
<ele>385.8</ele>
<time>2024-05-09T11:37:57Z</time>
</trkpt>
<trkpt lat="49.69181438907981" lon="9.286580085754396">
<ele>385.4</ele>
<time>2024-05-09T11:37:58Z</time>
</trkpt>
<trkpt lat="49.69189066439867" lon="9.286473216488956">
<ele>385</ele>
<time>2024-05-09T11:37:59Z</time>
</trkpt>
<trkpt lat="49.691963167861104" lon="9.28637120872736">
<ele>384.6</ele>
<time>2024-05-09T11:38:00Z</time>
</trkpt>
<trkpt lat="49.692043298855424" lon="9.286290155723693">
<ele>384.2</ele>
<time>2024-05-09T11:38:01Z</time>
</trkpt>
<trkpt lat="49.69212720170617" lon="9.28619191981852">
<ele>383.8</ele>
<time>2024-05-09T11:38:02Z</time>
</trkpt>
<trkpt lat="49.69221496023238" lon="9.28611371666193">
<ele>383.2</ele>
<time>2024-05-09T11:38:03Z</time>
</trkpt>
<trkpt lat="49.69231026247144" lon="9.286043141037226">
<ele>382.8</ele>
<time>2024-05-09T11:38:04Z</time>
</trkpt>
<trkpt lat="49.692417131736875" lon="9.28599159233272">
<ele>382.2</ele>
<time>2024-05-09T11:38:05Z</time>
</trkpt>
<trkpt lat="49.69250480644405" lon="9.285931577906013">
<ele>381.6</ele>
<time>2024-05-09T11:38:06Z</time>
</trkpt>
<trkpt lat="49.69260782003403" lon="9.285871479660273">
<ele>381</ele>
<time>2024-05-09T11:38:07Z</time>
</trkpt>
<trkpt lat="49.69270706176758" lon="9.285813309252262">
<ele>380.4</ele>
<time>2024-05-09T11:38:08Z</time>
</trkpt>
<trkpt lat="49.69279859215021" lon="9.28573795594275">
<ele>379.8</ele>
<time>2024-05-09T11:38:09Z</time>
</trkpt>
<trkpt lat="49.692890122532845" lon="9.285671152174473">
<ele>379.2</ele>
<time>2024-05-09T11:38:10Z</time>
</trkpt>
<trkpt lat="49.692970253527164" lon="9.285594876855612">
<ele>378.6</ele>
<time>2024-05-09T11:38:11Z</time>
</trkpt>
<trkpt lat="49.693046528846025" lon="9.285514829680324">
<ele>378.2</ele>
<time>2024-05-09T11:38:12Z</time>
</trkpt>
<trkpt lat="49.69312280416489" lon="9.28545657545328">
<ele>377.6</ele>
<time>2024-05-09T11:38:13Z</time>
</trkpt>
<trkpt lat="49.69321433454752" lon="9.28540318273008">
<ele>377</ele>
<time>2024-05-09T11:38:14Z</time>
</trkpt>
<trkpt lat="49.6932983212173" lon="9.285338390618564">
<ele>376.4</ele>
<time>2024-05-09T11:38:15Z</time>
</trkpt>
<trkpt lat="49.69337836839259" lon="9.285271586850286">
<ele>375.6</ele>
<time>2024-05-09T11:38:16Z</time>
</trkpt>
<trkpt lat="49.69346998259425" lon="9.285208638757467">
<ele>374.8</ele>
<time>2024-05-09T11:38:17Z</time>
</trkpt>
<trkpt lat="49.693557657301426" lon="9.285148540511727">
<ele>374.2</ele>
<time>2024-05-09T11:38:18Z</time>
</trkpt>
<trkpt lat="49.69365304335952" lon="9.285097997635605">
<ele>373.6</ele>
<time>2024-05-09T11:38:19Z</time>
</trkpt>
<trkpt lat="49.69374465756118" lon="9.2850446049124">
<ele>373.2</ele>
<time>2024-05-09T11:38:20Z</time>
</trkpt>
<trkpt lat="49.69383995980024" lon="9.284997917711737">
<ele>372.6</ele>
<time>2024-05-09T11:38:21Z</time>
</trkpt>
<trkpt lat="49.693939201533794" lon="9.284961624071002">
<ele>372</ele>
<time>2024-05-09T11:38:22Z</time>
</trkpt>
<trkpt lat="49.694038359448314" lon="9.2849254142493">
<ele>371.6</ele>
<time>2024-05-09T11:38:23Z</time>
</trkpt>
<trkpt lat="49.69414137303829" lon="9.284881576895714">
<ele>371</ele>
<time>2024-05-09T11:38:24Z</time>
</trkpt>
<trkpt lat="49.6942481584847" lon="9.284852910786867">
<ele>370.4</ele>
<time>2024-05-09T11:38:25Z</time>
</trkpt>
<trkpt lat="49.69434731639922" lon="9.284803373739123">
<ele>369.8</ele>
<time>2024-05-09T11:38:26Z</time>
</trkpt>
<trkpt lat="49.69442744739354" lon="9.284753752872348">
<ele>369.4</ele>
<time>2024-05-09T11:38:27Z</time>
</trkpt>
<trkpt lat="49.694530460983515" lon="9.284680327400563">
<ele>368.8</ele>
<time>2024-05-09T11:38:28Z</time>
</trkpt>
<trkpt lat="49.69462199136615" lon="9.284621234983206">
<ele>368.2</ele>
<time>2024-05-09T11:38:29Z</time>
</trkpt>
<trkpt lat="49.69471737742424" lon="9.284568764269352">
<ele>367.6</ele>
<time>2024-05-09T11:38:30Z</time>
</trkpt>
<trkpt lat="49.69480890780687" lon="9.284506738185884">
<ele>367</ele>
<time>2024-05-09T11:38:31Z</time>
</trkpt>
<trkpt lat="49.69490806572139" lon="9.284449573606253">
<ele>366.4</ele>
<time>2024-05-09T11:38:32Z</time>
</trkpt>
<trkpt lat="49.695003451779485" lon="9.284388469532132">
<ele>365.8</ele>
<time>2024-05-09T11:38:33Z</time>
</trkpt>
<trkpt lat="49.695079727098346" lon="9.284330299124122">
<ele>365.2</ele>
<time>2024-05-09T11:38:34Z</time>
</trkpt>
<trkpt lat="49.69517511315644" lon="9.284266429021956">
<ele>364.6</ele>
<time>2024-05-09T11:38:35Z</time>
</trkpt>
<trkpt lat="49.69526664353907" lon="9.284206330776216">
<ele>364</ele>
<time>2024-05-09T11:38:36Z</time>
</trkpt>
<trkpt lat="49.69535063020885" lon="9.284150088205934">
<ele>363.6</ele>
<time>2024-05-09T11:38:37Z</time>
</trkpt>
<trkpt lat="49.6954345330596" lon="9.284092839807272">
<ele>363</ele>
<time>2024-05-09T11:38:38Z</time>
</trkpt>
<trkpt lat="49.695518435910344" lon="9.284028047695756">
<ele>362.4</ele>
<time>2024-05-09T11:38:39Z</time>
</trkpt>
<trkpt lat="49.69560996629298" lon="9.28398035466671">
<ele>362</ele>
<time>2024-05-09T11:38:40Z</time>
</trkpt>
<trkpt lat="49.6956900972873" lon="9.283911623060703">
<ele>361.4</ele>
<time>2024-05-09T11:38:41Z</time>
</trkpt>
<trkpt lat="49.69577022828162" lon="9.283894523978232">
<ele>361</ele>
<time>2024-05-09T11:38:42Z</time>
</trkpt>
<trkpt lat="49.69584273174405" lon="9.283809615299106">
<ele>360.4</ele>
<time>2024-05-09T11:38:43Z</time>
</trkpt>
<trkpt lat="49.695911379531026" lon="9.283715235069394">
<ele>360</ele>
<time>2024-05-09T11:38:44Z</time>
</trkpt>
<trkpt lat="49.69599528238177" lon="9.283635104075074">
<ele>359.6</ele>
<time>2024-05-09T11:38:45Z</time>
</trkpt>
<trkpt lat="49.69608304090798" lon="9.283581711351871">
<ele>359</ele>
<time>2024-05-09T11:38:46Z</time>
</trkpt>
<trkpt lat="49.696170799434185" lon="9.283530162647368">
<ele>358.6</ele>
<time>2024-05-09T11:38:47Z</time>
</trkpt>
<trkpt lat="49.69625847414136" lon="9.283452965319157">
<ele>358.2</ele>
<time>2024-05-09T11:38:48Z</time>
</trkpt>
<trkpt lat="49.69633860513568" lon="9.2833833117038">
<ele>357.8</ele>
<time>2024-05-09T11:38:49Z</time>
</trkpt>
<trkpt lat="49.696422507986426" lon="9.28332706913352">
<ele>357.4</ele>
<time>2024-05-09T11:38:50Z</time>
</trkpt>
<trkpt lat="49.696525521576405" lon="9.283281303942204">
<ele>357</ele>
<time>2024-05-09T11:38:51Z</time>
</trkpt>
<trkpt lat="49.69660942442715" lon="9.2832297552377">
<ele>356.4</ele>
<time>2024-05-09T11:38:52Z</time>
</trkpt>
<trkpt lat="49.69670103862882" lon="9.283191617578268">
<ele>356</ele>
<time>2024-05-09T11:38:53Z</time>
</trkpt>
<trkpt lat="49.69679634086788" lon="9.283155407756569">
<ele>355.4</ele>
<time>2024-05-09T11:38:54Z</time>
</trkpt>
<trkpt lat="49.696903210133314" lon="9.283160185441377">
<ele>355</ele>
<time>2024-05-09T11:38:55Z</time>
</trkpt>
<trkpt lat="49.696979485452175" lon="9.28307150490582">
<ele>354.4</ele>
<time>2024-05-09T11:38:56Z</time>
</trkpt>
<trkpt lat="49.69706724397838" lon="9.283056249842048">
<ele>353.8</ele>
<time>2024-05-09T11:38:57Z</time>
</trkpt>
<trkpt lat="49.697154918685555" lon="9.283039988949897">
<ele>353.2</ele>
<time>2024-05-09T11:38:58Z</time>
</trkpt>
<trkpt lat="49.69724653288722" lon="9.28303336724639">
<ele>352.6</ele>
<time>2024-05-09T11:38:59Z</time>
</trkpt>
<trkpt lat="49.69733043573797" lon="9.28303336724639">
<ele>352</ele>
<time>2024-05-09T11:39:00Z</time>
</trkpt>
<trkpt lat="49.69741819426417" lon="9.283038061112164">
<ele>351.4</ele>
<time>2024-05-09T11:39:01Z</time>
</trkpt>
<trkpt lat="49.69750209711492" lon="9.283056249842048">
<ele>350.8</ele>
<time>2024-05-09T11:39:02Z</time>
</trkpt>
<trkpt lat="49.69758599996567" lon="9.283076282590628">
<ele>350.2</ele>
<time>2024-05-09T11:39:03Z</time>
</trkpt>
<trkpt lat="49.697673758491874" lon="9.283104864880444">
<ele>349.6</ele>
<time>2024-05-09T11:39:04Z</time>
</trkpt>
<trkpt lat="49.69776151701808" lon="9.283135375007989">
<ele>349</ele>
<time>2024-05-09T11:39:05Z</time>
</trkpt>
<trkpt lat="49.69785304740071" lon="9.283182062208652">
<ele>348.4</ele>
<time>2024-05-09T11:39:06Z</time>
</trkpt>
<trkpt lat="49.69793695025146" lon="9.283227911219">
<ele>347.8</ele>
<time>2024-05-09T11:39:07Z</time>
</trkpt>
<trkpt lat="49.69803996384144" lon="9.283276526257396">
<ele>347.4</ele>
<time>2024-05-09T11:39:08Z</time>
</trkpt>
<trkpt lat="49.698123866692185" lon="9.28332706913352">
<ele>346.8</ele>
<time>2024-05-09T11:39:09Z</time>
</trkpt>
<trkpt lat="49.69818111509085" lon="9.283419605344534">
<ele>346.4</ele>
<time>2024-05-09T11:39:10Z</time>
</trkpt>
<trkpt lat="49.69825739040971" lon="9.28348632529378">
<ele>345.8</ele>
<time>2024-05-09T11:39:11Z</time>
</trkpt>
<trkpt lat="49.69831463880837" lon="9.283631248399615">
<ele>345.4</ele>
<time>2024-05-09T11:39:12Z</time>
</trkpt>
<trkpt lat="49.69836803153157" lon="9.283733339980245">
<ele>344.8</ele>
<time>2024-05-09T11:39:13Z</time>
</trkpt>
<trkpt lat="49.698421424254775" lon="9.283848758786917">
<ele>344.2</ele>
<time>2024-05-09T11:39:14Z</time>
</trkpt>
<trkpt lat="49.69847481697798" lon="9.283966943621635">
<ele>343.6</ele>
<time>2024-05-09T11:39:15Z</time>
</trkpt>
<trkpt lat="49.69852443784475" lon="9.28409862332046">
<ele>343</ele>
<time>2024-05-09T11:39:16Z</time>
</trkpt>
<trkpt lat="49.69856643117964" lon="9.284231141209602">
<ele>342.4</ele>
<time>2024-05-09T11:39:17Z</time>
</trkpt>
<trkpt lat="49.69861596822739" lon="9.284361815080048">
<ele>341.8</ele>
<time>2024-05-09T11:39:18Z</time>
</trkpt>
<trkpt lat="49.69864647835493" lon="9.284501960501077">
<ele>341.2</ele>
<time>2024-05-09T11:39:19Z</time>
</trkpt>
<trkpt lat="49.69867321662605" lon="9.284643111750484">
<ele>340.6</ele>
<time>2024-05-09T11:39:20Z</time>
</trkpt>
<trkpt lat="49.69870749861002" lon="9.284791890531778">
<ele>340</ele>
<time>2024-05-09T11:39:21Z</time>
</trkpt>
<trkpt lat="49.69873046502471" lon="9.284955002367496">
<ele>339.2</ele>
<time>2024-05-09T11:39:22Z</time>
</trkpt>
<trkpt lat="49.698757119476795" lon="9.285097075626254">
<ele>338.6</ele>
<time>2024-05-09T11:39:23Z</time>
</trkpt>
<trkpt lat="49.69878000207245" lon="9.28524300456047">
<ele>338</ele>
<time>2024-05-09T11:39:24Z</time>
</trkpt>
<trkpt lat="49.6987914852798" lon="9.28538030013442">
<ele>337.2</ele>
<time>2024-05-09T11:39:25Z</time>
</trkpt>
<trkpt lat="49.6988105122" lon="9.28552145138383">
<ele>336.6</ele>
<time>2024-05-09T11:39:26Z</time>
</trkpt>
<trkpt lat="49.698833394795656" lon="9.285666458308697">
<ele>336</ele>
<time>2024-05-09T11:39:27Z</time>
</trkpt>
<trkpt lat="49.69886013306677" lon="9.285806603729725">
<ele>335.4</ele>
<time>2024-05-09T11:39:28Z</time>
</trkpt>
<trkpt lat="49.698875388130546" lon="9.28595345467329">
<ele>334.8</ele>
<time>2024-05-09T11:39:29Z</time>
</trkpt>
<trkpt lat="49.69889827072621" lon="9.286107011139393">
<ele>334.2</ele>
<time>2024-05-09T11:39:30Z</time>
</trkpt>
<trkpt lat="49.69892115332186" lon="9.28625486791134">
<ele>333.4</ele>
<time>2024-05-09T11:39:31Z</time>
</trkpt>
<trkpt lat="49.69894026406109" lon="9.286403646692634">
<ele>332.8</ele>
<time>2024-05-09T11:39:32Z</time>
</trkpt>
<trkpt lat="49.698955519124866" lon="9.286553347483276">
<ele>332.2</ele>
<time>2024-05-09T11:39:33Z</time>
</trkpt>
<trkpt lat="49.69897840172053" lon="9.28670690394938">
<ele>331.6</ele>
<time>2024-05-09T11:39:34Z</time>
</trkpt>
<trkpt lat="49.69899742864072" lon="9.286859454587102">
<ele>330.8</ele>
<time>2024-05-09T11:39:35Z</time>
</trkpt>
<trkpt lat="49.699016539379954" lon="9.287013011053205">
<ele>330.2</ele>
<time>2024-05-09T11:39:36Z</time>
</trkpt>
<trkpt lat="49.699035566300154" lon="9.287164639681578">
<ele>329.8</ele>
<time>2024-05-09T11:39:37Z</time>
</trkpt>
<trkpt lat="49.699054677039385" lon="9.287321968004107">
<ele>329</ele>
<time>2024-05-09T11:39:38Z</time>
</trkpt>
<trkpt lat="49.69906993210316" lon="9.28747653029859">
<ele>328.4</ele>
<time>2024-05-09T11:39:39Z</time>
</trkpt>
<trkpt lat="49.69908518716693" lon="9.287631930783393">
<ele>327.8</ele>
<time>2024-05-09T11:39:40Z</time>
</trkpt>
<trkpt lat="49.69910806976259" lon="9.287788337096572">
<ele>327.2</ele>
<time>2024-05-09T11:39:41Z</time>
</trkpt>
<trkpt lat="49.69912332482636" lon="9.287941893562676">
<ele>326.6</ele>
<time>2024-05-09T11:39:42Z</time>
</trkpt>
<trkpt lat="49.69914243556559" lon="9.288087822496893">
<ele>326</ele>
<time>2024-05-09T11:39:43Z</time>
</trkpt>
<trkpt lat="49.69917671754956" lon="9.288229895755649">
<ele>325.2</ele>
<time>2024-05-09T11:39:44Z</time>
</trkpt>
<trkpt lat="49.69918820075691" lon="9.288376746699214">
<ele>324.4</ele>
<time>2024-05-09T11:39:45Z</time>
</trkpt>
<trkpt lat="49.69922248274088" lon="9.288521753624082">
<ele>323.8</ele>
<time>2024-05-09T11:39:46Z</time>
</trkpt>
<trkpt lat="49.69925684854388" lon="9.288668604567649">
<ele>323</ele>
<time>2024-05-09T11:39:47Z</time>
</trkpt>
<trkpt lat="49.69928735867143" lon="9.288811683654783">
<ele>322.4</ele>
<time>2024-05-09T11:39:48Z</time>
</trkpt>
<trkpt lat="49.69932172447443" lon="9.288949901238084">
<ele>321.6</ele>
<time>2024-05-09T11:39:49Z</time>
</trkpt>
<trkpt lat="49.6993560064584" lon="9.289081497117875">
<ele>321</ele>
<time>2024-05-09T11:39:50Z</time>
</trkpt>
<trkpt lat="49.699386516585946" lon="9.289219798520207">
<ele>320.2</ele>
<time>2024-05-09T11:39:51Z</time>
</trkpt>
<trkpt lat="49.69941711053252" lon="9.28935525007546">
<ele>319.6</ele>
<time>2024-05-09T11:39:52Z</time>
</trkpt>
<trkpt lat="49.699451392516494" lon="9.289488773792982">
<ele>318.8</ele>
<time>2024-05-09T11:39:53Z</time>
</trkpt>
<trkpt lat="49.69948190264404" lon="9.289618441835046">
<ele>318</ele>
<time>2024-05-09T11:39:54Z</time>
</trkpt>
<trkpt lat="49.69951241277158" lon="9.289751965552568">
<ele>317.4</ele>
<time>2024-05-09T11:39:55Z</time>
</trkpt>
<trkpt lat="49.699546778574586" lon="9.289883561432362">
<ele>316.6</ele>
<time>2024-05-09T11:39:56Z</time>
</trkpt>
<trkpt lat="49.69958114437759" lon="9.290017085149884">
<ele>316</ele>
<time>2024-05-09T11:39:57Z</time>
</trkpt>
<trkpt lat="49.69961928203702" lon="9.290151530876756">
<ele>315.2</ele>
<time>2024-05-09T11:39:58Z</time>
</trkpt>
<trkpt lat="49.69965356402099" lon="9.290289832279086">
<ele>314.6</ele>
<time>2024-05-09T11:39:59Z</time>
</trkpt>
<trkpt lat="49.699684074148536" lon="9.290430061519146">
<ele>314</ele>
<time>2024-05-09T11:40:00Z</time>
</trkpt>
<trkpt lat="49.69971081241965" lon="9.290571212768556">
<ele>313.2</ele>
<time>2024-05-09T11:40:01Z</time>
</trkpt>
<trkpt lat="49.69973746687174" lon="9.29071705788374">
<ele>312.6</ele>
<time>2024-05-09T11:40:02Z</time>
</trkpt>
<trkpt lat="49.699768060818315" lon="9.290862064808609">
<ele>312</ele>
<time>2024-05-09T11:40:03Z</time>
</trkpt>
<trkpt lat="49.699802342802286" lon="9.291006987914445">
<ele>311.4</ele>
<time>2024-05-09T11:40:04Z</time>
</trkpt>
<trkpt lat="49.699825225397944" lon="9.291148139163852">
<ele>310.8</ele>
<time>2024-05-09T11:40:05Z</time>
</trkpt>
<trkpt lat="49.6998481079936" lon="9.291286440566182">
<ele>310</ele>
<time>2024-05-09T11:40:06Z</time>
</trkpt>
<trkpt lat="49.69988624565303" lon="9.291413258761168">
<ele>309.4</ele>
<time>2024-05-09T11:40:07Z</time>
</trkpt>
<trkpt lat="49.699905356392264" lon="9.291562037542462">
<ele>308.8</ele>
<time>2024-05-09T11:40:08Z</time>
</trkpt>
<trkpt lat="49.69992823898792" lon="9.291701260954142">
<ele>308.2</ele>
<time>2024-05-09T11:40:09Z</time>
</trkpt>
<trkpt lat="49.69995497725904" lon="9.2918433342129">
<ele>307.6</ele>
<time>2024-05-09T11:40:10Z</time>
</trkpt>
<trkpt lat="49.6999778598547" lon="9.291984485462308">
<ele>307</ele>
<time>2024-05-09T11:40:11Z</time>
</trkpt>
<trkpt lat="49.70000074245036" lon="9.29212186485529">
<ele>306.4</ele>
<time>2024-05-09T11:40:12Z</time>
</trkpt>
<trkpt lat="49.70002739690244" lon="9.292262010276318">
<ele>305.8</ele>
<time>2024-05-09T11:40:13Z</time>
</trkpt>
<trkpt lat="49.70004650764167" lon="9.292401233687997">
<ele>305.2</ele>
<time>2024-05-09T11:40:14Z</time>
</trkpt>
<trkpt lat="49.70006939023733" lon="9.292538613080978">
<ele>304.6</ele>
<time>2024-05-09T11:40:15Z</time>
</trkpt>
<trkpt lat="49.70009227283299" lon="9.292676914483309">
<ele>304</ele>
<time>2024-05-09T11:40:16Z</time>
</trkpt>
<trkpt lat="49.70011901110411" lon="9.292815132066607">
<ele>303.4</ele>
<time>2024-05-09T11:40:17Z</time>
</trkpt>
<trkpt lat="49.70015329308808" lon="9.292951505631208">
<ele>302.8</ele>
<time>2024-05-09T11:40:18Z</time>
</trkpt>
<trkpt lat="49.70019143074751" lon="9.29308787919581">
<ele>302.2</ele>
<time>2024-05-09T11:40:19Z</time>
</trkpt>
<trkpt lat="49.7002334240824" lon="9.29322618059814">
<ele>301.8</ele>
<time>2024-05-09T11:40:20Z</time>
</trkpt>
<trkpt lat="49.70026016235352" lon="9.29336355999112">
<ele>301.2</ele>
<time>2024-05-09T11:40:21Z</time>
</trkpt>
<trkpt lat="49.7002868168056" lon="9.293521810323">
<ele>300.8</ele>
<time>2024-05-09T11:40:22Z</time>
</trkpt>
<trkpt lat="49.70030969940126" lon="9.293669667094946">
<ele>300</ele>
<time>2024-05-09T11:40:23Z</time>
</trkpt>
<trkpt lat="49.70034406520426" lon="9.293805118650198">
<ele>299.6</ele>
<time>2024-05-09T11:40:24Z</time>
</trkpt>
<trkpt lat="49.700359320268035" lon="9.293936714529991">
<ele>299</ele>
<time>2024-05-09T11:40:25Z</time>
</trkpt>
<trkpt lat="49.700378347188234" lon="9.294063532724977">
<ele>298.4</ele>
<time>2024-05-09T11:40:26Z</time>
</trkpt>
<trkpt lat="49.70038220286369" lon="9.294163696467876">
<ele>298</ele>
<time>2024-05-09T11:40:27Z</time>
</trkpt>
<trkpt lat="49.70039360225201" lon="9.294304847717283">
<ele>297.4</ele>
<time>2024-05-09T11:40:28Z</time>
</trkpt>
<trkpt lat="49.70040885731578" lon="9.294444993138312">
<ele>297</ele>
<time>2024-05-09T11:40:29Z</time>
</trkpt>
<trkpt lat="49.700416484847665" lon="9.294580444693564">
<ele>296.4</ele>
<time>2024-05-09T11:40:30Z</time>
</trkpt>
<trkpt lat="49.70042034052312" lon="9.294692929834127">
<ele>296</ele>
<time>2024-05-09T11:40:31Z</time>
</trkpt>
<trkpt lat="49.70043182373047" lon="9.294830309227107">
<ele>295.6</ele>
<time>2024-05-09T11:40:32Z</time>
</trkpt>
<trkpt lat="49.70044322311878" lon="9.294961905106902">
<ele>295.2</ele>
<time>2024-05-09T11:40:33Z</time>
</trkpt>
<trkpt lat="49.70045470632613" lon="9.295088723301888">
<ele>294.8</ele>
<time>2024-05-09T11:40:34Z</time>
</trkpt>
<trkpt lat="49.70046610571444" lon="9.295216547325252">
<ele>294.2</ele>
<time>2024-05-09T11:40:35Z</time>
</trkpt>
<trkpt lat="49.700473733246326" lon="9.29533950984478">
<ele>293.8</ele>
<time>2024-05-09T11:40:36Z</time>
</trkpt>
<trkpt lat="49.70048521645367" lon="9.295453000813724">
<ele>293.4</ele>
<time>2024-05-09T11:40:37Z</time>
</trkpt>
<trkpt lat="49.700496615841985" lon="9.295563641935589">
<ele>293</ele>
<time>2024-05-09T11:40:38Z</time>
</trkpt>
<trkpt lat="49.70051187090576" lon="9.295661877840756">
<ele>292.4</ele>
<time>2024-05-09T11:40:39Z</time>
</trkpt>
<trkpt lat="49.70053098164499" lon="9.295746786519883">
<ele>292</ele>
<time>2024-05-09T11:40:40Z</time>
</trkpt>
<trkpt lat="49.700557636097074" lon="9.295822139829395">
<ele>291.6</ele>
<time>2024-05-09T11:40:41Z</time>
</trkpt>
<trkpt lat="49.70058814622462" lon="9.295883160084486">
<ele>291</ele>
<time>2024-05-09T11:40:42Z</time>
</trkpt>
<trkpt lat="49.70063013955951" lon="9.295926997438071">
<ele>290.6</ele>
<time>2024-05-09T11:40:43Z</time>
</trkpt>
<trkpt lat="49.700675904750824" lon="9.295947030186651">
<ele>290</ele>
<time>2024-05-09T11:40:44Z</time>
</trkpt>
<trkpt lat="49.70071027055383" lon="9.295949880033731">
<ele>289.6</ele>
<time>2024-05-09T11:40:45Z</time>
</trkpt>
<trkpt lat="49.700752180069685" lon="9.295936552807689">
<ele>289</ele>
<time>2024-05-09T11:40:46Z</time>
</trkpt>
<trkpt lat="49.70078654587269" lon="9.295907970517874">
<ele>288.6</ele>
<time>2024-05-09T11:40:47Z</time>
</trkpt>
<trkpt lat="49.70082853920758" lon="9.29587452672422">
<ele>288</ele>
<time>2024-05-09T11:40:48Z</time>
</trkpt>
<trkpt lat="49.70086282119155" lon="9.295827839523554">
<ele>287.6</ele>
<time>2024-05-09T11:40:49Z</time>
</trkpt>
<trkpt lat="49.70088955946267" lon="9.295771596953273">
<ele>287</ele>
<time>2024-05-09T11:40:50Z</time>
</trkpt>
<trkpt lat="49.70090481452644" lon="9.29571334272623">
<ele>286.6</ele>
<time>2024-05-09T11:40:51Z</time>
</trkpt>
<trkpt lat="49.70091621391475" lon="9.295653328299522">
<ele>286</ele>
<time>2024-05-09T11:40:52Z</time>
</trkpt>
<trkpt lat="49.70092006959021" lon="9.295595157891512">
<ele>285.6</ele>
<time>2024-05-09T11:40:53Z</time>
</trkpt>
<trkpt lat="49.70092384144664" lon="9.295533131808044">
<ele>285.2</ele>
<time>2024-05-09T11:40:54Z</time>
</trkpt>
<trkpt lat="49.70092006959021" lon="9.295471189543605">
<ele>284.8</ele>
<time>2024-05-09T11:40:55Z</time>
</trkpt>
<trkpt lat="49.70092006959021" lon="9.295412935316564">
<ele>284.4</ele>
<time>2024-05-09T11:40:56Z</time>
</trkpt>
<trkpt lat="49.700912442058325" lon="9.29535954259336">
<ele>284</ele>
<time>2024-05-09T11:40:57Z</time>
</trkpt>
<trkpt lat="49.70090481452644" lon="9.295308077707888">
<ele>283.6</ele>
<time>2024-05-09T11:40:58Z</time>
</trkpt>
<trkpt lat="49.70090095885098" lon="9.295253679156303">
<ele>283.2</ele>
<time>2024-05-09T11:40:59Z</time>
</trkpt>
<trkpt lat="49.700893331319094" lon="9.29520129226148">
<ele>283</ele>
<time>2024-05-09T11:41:00Z</time>
</trkpt>
<trkpt lat="49.70088570378721" lon="9.295147815719249">
<ele>282.8</ele>
<time>2024-05-09T11:41:01Z</time>
</trkpt>
<trkpt lat="49.70087807625532" lon="9.295096350833774">
<ele>282.6</ele>
<time>2024-05-09T11:41:02Z</time>
</trkpt>
<trkpt lat="49.70086667686701" lon="9.295046729966998">
<ele>282.2</ele>
<time>2024-05-09T11:41:03Z</time>
</trkpt>
<trkpt lat="49.70085904933512" lon="9.294993337243795">
<ele>282</ele>
<time>2024-05-09T11:41:04Z</time>
</trkpt>
<trkpt lat="49.70085142180323" lon="9.294931394979358">
<ele>281.6</ele>
<time>2024-05-09T11:41:05Z</time>
</trkpt>
<trkpt lat="49.70084756612778" lon="9.29486651904881">
<ele>281.2</ele>
<time>2024-05-09T11:41:06Z</time>
</trkpt>
<trkpt lat="49.70084379427135" lon="9.294799799099565">
<ele>281</ele>
<time>2024-05-09T11:41:07Z</time>
</trkpt>
<trkpt lat="49.70084379427135" lon="9.29472628980875">
<ele>280.6</ele>
<time>2024-05-09T11:41:08Z</time>
</trkpt>
<trkpt lat="49.70084756612778" lon="9.29465194232762">
<ele>280.2</ele>
<time>2024-05-09T11:41:09Z</time>
</trkpt>
<trkpt lat="49.70085142180323" lon="9.2945718113333">
<ele>280</ele>
<time>2024-05-09T11:41:10Z</time>
</trkpt>
<trkpt lat="49.70085519365966" lon="9.294485058635471">
<ele>279.6</ele>
<time>2024-05-09T11:41:11Z</time>
</trkpt>
<trkpt lat="49.70086282119155" lon="9.294402077794077">
<ele>279.4</ele>
<time>2024-05-09T11:41:12Z</time>
</trkpt>
<trkpt lat="49.700870448723435" lon="9.29431339725852">
<ele>279</ele>
<time>2024-05-09T11:41:13Z</time>
</trkpt>
<trkpt lat="49.70087807625532" lon="9.294218011200428">
<ele>278.6</ele>
<time>2024-05-09T11:41:14Z</time>
</trkpt>
<trkpt lat="49.70088955946267" lon="9.294121703132989">
<ele>278.2</ele>
<time>2024-05-09T11:41:15Z</time>
</trkpt>
<trkpt lat="49.70089718699455" lon="9.29401969537139">
<ele>277.8</ele>
<time>2024-05-09T11:41:16Z</time>
</trkpt>
<trkpt lat="49.70090481452644" lon="9.29392145946622">
<ele>277.4</ele>
<time>2024-05-09T11:41:17Z</time>
</trkpt>
<trkpt lat="49.70092006959021" lon="9.29382037371397">
<ele>277</ele>
<time>2024-05-09T11:41:18Z</time>
</trkpt>
<trkpt lat="49.7009276971221" lon="9.293713504448531">
<ele>276.8</ele>
<time>2024-05-09T11:41:19Z</time>
</trkpt>
<trkpt lat="49.70094295218587" lon="9.293604791164398">
<ele>276.4</ele>
<time>2024-05-09T11:41:20Z</time>
</trkpt>
<trkpt lat="49.70095820724964" lon="9.293488450348375">
<ele>276.2</ele>
<time>2024-05-09T11:41:21Z</time>
</trkpt>
<trkpt lat="49.700992573052645" lon="9.293258618563414">
<ele>275.8</ele>
<time>2024-05-09T11:41:23Z</time>
</trkpt>
<trkpt lat="49.70100020058453" lon="9.293138422071934">
<ele>275.6</ele>
<time>2024-05-09T11:41:24Z</time>
</trkpt>
<trkpt lat="49.70100782811642" lon="9.293014453724028">
<ele>275.2</ele>
<time>2024-05-09T11:41:25Z</time>
</trkpt>
<trkpt lat="49.7010154556483" lon="9.29288956336677">
<ele>275</ele>
<time>2024-05-09T11:41:26Z</time>
</trkpt>
<trkpt lat="49.70102308318019" lon="9.292759895324709">
<ele>274.6</ele>
<time>2024-05-09T11:41:27Z</time>
</trkpt>
<trkpt lat="49.701026855036616" lon="9.29263299331069">
<ele>274.2</ele>
<time>2024-05-09T11:41:28Z</time>
</trkpt>
<trkpt lat="49.7010344825685" lon="9.292508102953434">
<ele>273.8</ele>
<time>2024-05-09T11:41:29Z</time>
</trkpt>
<trkpt lat="49.70103833824396" lon="9.29237835109234">
<ele>273.2</ele>
<time>2024-05-09T11:41:30Z</time>
</trkpt>
<trkpt lat="49.70103833824396" lon="9.292248683050277">
<ele>272.8</ele>
<time>2024-05-09T11:41:31Z</time>
</trkpt>
<trkpt lat="49.70104596577585" lon="9.292113231495025">
<ele>272.4</ele>
<time>2024-05-09T11:41:32Z</time>
</trkpt>
<trkpt lat="49.70105359330773" lon="9.291977863758802">
<ele>271.8</ele>
<time>2024-05-09T11:41:33Z</time>
</trkpt>
<trkpt lat="49.70106122083962" lon="9.291845262050629">
<ele>271.4</ele>
<time>2024-05-09T11:41:34Z</time>
</trkpt>
<trkpt lat="49.701068848371506" lon="9.291709894314408">
<ele>270.8</ele>
<time>2024-05-09T11:41:35Z</time>
</trkpt>
<trkpt lat="49.70108024775982" lon="9.291573520749807">
<ele>270.4</ele>
<time>2024-05-09T11:41:36Z</time>
</trkpt>
<trkpt lat="49.70109173096717" lon="9.291435219347475">
<ele>269.8</ele>
<time>2024-05-09T11:41:37Z</time>
</trkpt>
<trkpt lat="49.70110313035548" lon="9.29129021242261">
<ele>269.2</ele>
<time>2024-05-09T11:41:38Z</time>
</trkpt>
<trkpt lat="49.70111461356282" lon="9.291145289316772">
<ele>268.6</ele>
<time>2024-05-09T11:41:39Z</time>
</trkpt>
<trkpt lat="49.70112224109471" lon="9.291001288220286">
<ele>268</ele>
<time>2024-05-09T11:41:40Z</time>
</trkpt>
<trkpt lat="49.70112609677017" lon="9.29085535928607">
<ele>267.4</ele>
<time>2024-05-09T11:41:41Z</time>
</trkpt>
<trkpt lat="49.70113372430205" lon="9.290710436180234">
<ele>266.8</ele>
<time>2024-05-09T11:41:42Z</time>
</trkpt>
<trkpt lat="49.70114512369037" lon="9.29056165739894">
<ele>266.2</ele>
<time>2024-05-09T11:41:43Z</time>
</trkpt>
<trkpt lat="49.70115275122225" lon="9.290403323248029">
<ele>265.6</ele>
<time>2024-05-09T11:41:44Z</time>
</trkpt>
<trkpt lat="49.70116037875414" lon="9.290246916934848">
<ele>265</ele>
<time>2024-05-09T11:41:45Z</time>
</trkpt>
<trkpt lat="49.701168006286025" lon="9.29008481092751">
<ele>264.6</ele>
<time>2024-05-09T11:41:46Z</time>
</trkpt>
<trkpt lat="49.70117563381791" lon="9.28992840461433">
<ele>264</ele>
<time>2024-05-09T11:41:47Z</time>
</trkpt>
<trkpt lat="49.7011832613498" lon="9.289778703823686">
<ele>263.4</ele>
<time>2024-05-09T11:41:48Z</time>
</trkpt>
<trkpt lat="49.701187117025256" lon="9.289460107684135">
<ele>262.6</ele>
<time>2024-05-09T11:41:50Z</time>
</trkpt>
<trkpt lat="49.70119851641357" lon="9.289324739947917">
<ele>262</ele>
<time>2024-05-09T11:41:51Z</time>
</trkpt>
<trkpt lat="49.701209999620914" lon="9.289181660860775">
<ele>261.2</ele>
<time>2024-05-09T11:41:52Z</time>
</trkpt>
<trkpt lat="49.7012176271528" lon="9.289025254547596">
<ele>260.4</ele>
<time>2024-05-09T11:41:53Z</time>
</trkpt>
<trkpt lat="49.701236654073" lon="9.288893658667805">
<ele>259.6</ele>
<time>2024-05-09T11:41:54Z</time>
</trkpt>
<trkpt lat="49.701248137280345" lon="9.288753429427745">
<ele>258.799</ele>
<time>2024-05-09T11:41:55Z</time>
</trkpt>
<trkpt lat="49.70125953666866" lon="9.288606578484178">
<ele>258</ele>
<time>2024-05-09T11:41:56Z</time>
</trkpt>
<trkpt lat="49.701271019876" lon="9.288461655378342">
<ele>257</ele>
<time>2024-05-09T11:41:57Z</time>
</trkpt>
<trkpt lat="49.70127864740789" lon="9.288314804434776">
<ele>256.2</ele>
<time>2024-05-09T11:41:58Z</time>
</trkpt>
<trkpt lat="49.701290130615234" lon="9.288161247968674">
<ele>255.4</ele>
<time>2024-05-09T11:41:59Z</time>
</trkpt>
<trkpt lat="49.70129775814712" lon="9.288001991808414">
<ele>254.8</ele>
<time>2024-05-09T11:42:00Z</time>
</trkpt>
<trkpt lat="49.701309157535434" lon="9.287848435342312">
<ele>254</ele>
<time>2024-05-09T11:42:01Z</time>
</trkpt>
<trkpt lat="49.70131678506732" lon="9.28769295103848">
<ele>253.4</ele>
<time>2024-05-09T11:42:02Z</time>
</trkpt>
<trkpt lat="49.701328268274665" lon="9.287541322410108">
<ele>252.6</ele>
<time>2024-05-09T11:42:03Z</time>
</trkpt>
<trkpt lat="49.70133204013109" lon="9.287389693781734">
<ele>251.8</ele>
<time>2024-05-09T11:42:04Z</time>
</trkpt>
<trkpt lat="49.70133966766298" lon="9.28724192082882">
<ele>251</ele>
<time>2024-05-09T11:42:05Z</time>
</trkpt>
<trkpt lat="49.70133966766298" lon="9.287091214209797">
<ele>250.4</ele>
<time>2024-05-09T11:42:06Z</time>
</trkpt>
<trkpt lat="49.70133966766298" lon="9.286945285275578">
<ele>249.6</ele>
<time>2024-05-09T11:42:07Z</time>
</trkpt>
<trkpt lat="49.70134352333844" lon="9.28678510710597">
<ele>248.8</ele>
<time>2024-05-09T11:42:08Z</time>
</trkpt>
<trkpt lat="49.70134352333844" lon="9.28664680570364">
<ele>248</ele>
<time>2024-05-09T11:42:09Z</time>
</trkpt>
<trkpt lat="49.70133589580655" lon="9.286497104912996">
<ele>247.2</ele>
<time>2024-05-09T11:42:10Z</time>
</trkpt>
<trkpt lat="49.701328268274665" lon="9.2863483261317">
<ele>246.2</ele>
<time>2024-05-09T11:42:11Z</time>
</trkpt>
<trkpt lat="49.70131678506732" lon="9.286198541522026">
<ele>245.4</ele>
<time>2024-05-09T11:42:12Z</time>
</trkpt>
<trkpt lat="49.701309157535434" lon="9.286046912893651">
<ele>244.6</ele>
<time>2024-05-09T11:42:13Z</time>
</trkpt>
<trkpt lat="49.70129775814712" lon="9.285901989787815">
<ele>243.8</ele>
<time>2024-05-09T11:42:14Z</time>
</trkpt>
<trkpt lat="49.701286274939775" lon="9.285755138844252">
<ele>243</ele>
<time>2024-05-09T11:42:15Z</time>
</trkpt>
<trkpt lat="49.70127864740789" lon="9.285608287900686">
<ele>242.2</ele>
<time>2024-05-09T11:42:16Z</time>
</trkpt>
<trkpt lat="49.70127479173243" lon="9.285472836345434">
<ele>241.4</ele>
<time>2024-05-09T11:42:17Z</time>
</trkpt>
<trkpt lat="49.701267164200544" lon="9.285327829420568">
<ele>240.8</ele>
<time>2024-05-09T11:42:18Z</time>
</trkpt>
<trkpt lat="49.701248137280345" lon="9.285191455855966">
<ele>240</ele>
<time>2024-05-09T11:42:19Z</time>
</trkpt>
<trkpt lat="49.70124050974846" lon="9.28504846058786">
<ele>239.2</ele>
<time>2024-05-09T11:42:20Z</time>
</trkpt>
<trkpt lat="49.701236654073" lon="9.284906387329102">
<ele>238.4</ele>
<time>2024-05-09T11:42:21Z</time>
</trkpt>
<trkpt lat="49.70123288221657" lon="9.284761380404234">
<ele>237.8</ele>
<time>2024-05-09T11:42:22Z</time>
</trkpt>
<trkpt lat="49.70123288221657" lon="9.28462978452444">
<ele>237</ele>
<time>2024-05-09T11:42:23Z</time>
</trkpt>
<trkpt lat="49.70123288221657" lon="9.28449533879757">
<ele>236.4</ele>
<time>2024-05-09T11:42:24Z</time>
</trkpt>
<trkpt lat="49.701236654073" lon="9.28435318171978">
<ele>235.8</ele>
<time>2024-05-09T11:42:25Z</time>
</trkpt>
<trkpt lat="49.701248137280345" lon="9.28421680815518">
<ele>235.4</ele>
<time>2024-05-09T11:42:26Z</time>
</trkpt>
<trkpt lat="49.70125576481223" lon="9.28408144041896">
<ele>234.8</ele>
<time>2024-05-09T11:42:27Z</time>
</trkpt>
<trkpt lat="49.701267164200544" lon="9.283946910873055">
<ele>234.2</ele>
<time>2024-05-09T11:42:28Z</time>
</trkpt>
<trkpt lat="49.70127864740789" lon="9.283815314993262">
<ele>233.6</ele>
<time>2024-05-09T11:42:29Z</time>
</trkpt>
<trkpt lat="49.701290130615234" lon="9.283679947257042">
<ele>233</ele>
<time>2024-05-09T11:42:30Z</time>
</trkpt>
<trkpt lat="49.70130153000355" lon="9.28354642353952">
<ele>232.4</ele>
<time>2024-05-09T11:42:31Z</time>
</trkpt>
<trkpt lat="49.70131301321089" lon="9.283416671678424">
<ele>231.8</ele>
<time>2024-05-09T11:42:32Z</time>
</trkpt>
<trkpt lat="49.70132064074278" lon="9.283289853483438">
<ele>231.2</ele>
<time>2024-05-09T11:42:33Z</time>
</trkpt>
<trkpt lat="49.70133204013109" lon="9.283164963126184">
<ele>230.6</ele>
<time>2024-05-09T11:42:34Z</time>
</trkpt>
<trkpt lat="49.70134352333844" lon="9.283046694472432">
<ele>230</ele>
<time>2024-05-09T11:42:35Z</time>
</trkpt>
<trkpt lat="49.70135492272675" lon="9.282921720296144">
<ele>229.6</ele>
<time>2024-05-09T11:42:36Z</time>
</trkpt>
<trkpt lat="49.701366405934095" lon="9.282805379480124">
<ele>229</ele>
<time>2024-05-09T11:42:37Z</time>
</trkpt>
<trkpt lat="49.70137780532241" lon="9.28269188851118">
<ele>228.4</ele>
<time>2024-05-09T11:42:38Z</time>
</trkpt>
<trkpt lat="49.70139306038618" lon="9.282581247389317">
<ele>227.6</ele>
<time>2024-05-09T11:42:39Z</time>
</trkpt>
<trkpt lat="49.70141217112541" lon="9.28247831761837">
<ele>227</ele>
<time>2024-05-09T11:42:40Z</time>
</trkpt>
<trkpt lat="49.70143119804561" lon="9.282366670668123">
<ele>226.2</ele>
<time>2024-05-09T11:42:41Z</time>
</trkpt>
<trkpt lat="49.701446453109384" lon="9.28225795738399">
<ele>225.6</ele>
<time>2024-05-09T11:42:42Z</time>
</trkpt>
<trkpt lat="49.701465563848615" lon="9.2821435444057">
<ele>225</ele>
<time>2024-05-09T11:42:43Z</time>
</trkpt>
<trkpt lat="49.70148081891239" lon="9.282032903283834">
<ele>224.4</ele>
<time>2024-05-09T11:42:44Z</time>
</trkpt>
<trkpt lat="49.70149607397616" lon="9.28192134015262">
<ele>223.8</ele>
<time>2024-05-09T11:42:45Z</time>
</trkpt>
<trkpt lat="49.70151132903993" lon="9.281809777021408">
<ele>223.2</ele>
<time>2024-05-09T11:42:46Z</time>
</trkpt>
<trkpt lat="49.70151895657182" lon="9.281701985746622">
<ele>222.6</ele>
<time>2024-05-09T11:42:47Z</time>
</trkpt>
<trkpt lat="49.70152281224728" lon="9.28158656693995">
<ele>222.2</ele>
<time>2024-05-09T11:42:48Z</time>
</trkpt>
<trkpt lat="49.70153043977916" lon="9.28147315979004">
<ele>221.8</ele>
<time>2024-05-09T11:42:49Z</time>
</trkpt>
<trkpt lat="49.70153421163559" lon="9.281354891136289">
<ele>221.4</ele>
<time>2024-05-09T11:42:50Z</time>
</trkpt>
<trkpt lat="49.70154183916747" lon="9.281238550320268">
<ele>221</ele>
<time>2024-05-09T11:42:51Z</time>
</trkpt>
<trkpt lat="49.70155332237482" lon="9.281126903370025">
<ele>220.6</ele>
<time>2024-05-09T11:42:52Z</time>
</trkpt>
<trkpt lat="49.70157234929502" lon="9.28101534023881">
<ele>220</ele>
<time>2024-05-09T11:42:53Z</time>
</trkpt>
<trkpt lat="49.70159146003425" lon="9.280901849269869">
<ele>219.6</ele>
<time>2024-05-09T11:42:54Z</time>
</trkpt>
<trkpt lat="49.70161048695445" lon="9.280783580616117">
<ele>219.2</ele>
<time>2024-05-09T11:42:55Z</time>
</trkpt>
<trkpt lat="49.70163345336914" lon="9.28066154010594">
<ele>218.8</ele>
<time>2024-05-09T11:42:56Z</time>
</trkpt>
<trkpt lat="49.70165248028934" lon="9.28054134361446">
<ele>218.4</ele>
<time>2024-05-09T11:42:57Z</time>
</trkpt>
<trkpt lat="49.70167921856046" lon="9.280433636158705">
<ele>218</ele>
<time>2024-05-09T11:42:58Z</time>
</trkpt>
<trkpt lat="49.701702101156116" lon="9.280322073027492">
<ele>217.6</ele>
<time>2024-05-09T11:42:59Z</time>
</trkpt>
<trkpt lat="49.7017287556082" lon="9.280213275924323">
<ele>217</ele>
<time>2024-05-09T11:43:00Z</time>
</trkpt>
<trkpt lat="49.70175549387932" lon="9.28010364063084">
<ele>216.4</ele>
<time>2024-05-09T11:43:01Z</time>
</trkpt>
<trkpt lat="49.70177837647498" lon="9.279992077499628">
<ele>215.8</ele>
<time>2024-05-09T11:43:02Z</time>
</trkpt>
<trkpt lat="49.701797403395176" lon="9.279881436377764">
<ele>215.2</ele>
<time>2024-05-09T11:43:03Z</time>
</trkpt>
<trkpt lat="49.70181651413441" lon="9.279785128310325">
<ele>214.6</ele>
<time>2024-05-09T11:43:04Z</time>
</trkpt>
<trkpt lat="49.70183562487364" lon="9.279694519937038">
<ele>214</ele>
<time>2024-05-09T11:43:05Z</time>
</trkpt>
<trkpt lat="49.70184702426195" lon="9.279602989554403">
<ele>213.4</ele>
<time>2024-05-09T11:43:06Z</time>
</trkpt>
<trkpt lat="49.7018585074693" lon="9.279504753649237">
<ele>212.8</ele>
<time>2024-05-09T11:43:07Z</time>
</trkpt>
<trkpt lat="49.701877534389496" lon="9.279401740059257">
<ele>212.2</ele>
<time>2024-05-09T11:43:08Z</time>
</trkpt>
<trkpt lat="49.70190804451704" lon="9.279306354001164">
<ele>211.6</ele>
<time>2024-05-09T11:43:09Z</time>
</trkpt>
<trkpt lat="49.7019309271127" lon="9.279208118095994">
<ele>211.2</ele>
<time>2024-05-09T11:43:10Z</time>
</trkpt>
<trkpt lat="49.70196906477213" lon="9.279103260487318">
<ele>210.8</ele>
<time>2024-05-09T11:43:11Z</time>
</trkpt>
<trkpt lat="49.701999658718705" lon="9.27900024689734">
<ele>210.4</ele>
<time>2024-05-09T11:43:12Z</time>
</trkpt>
<trkpt lat="49.70202631317079" lon="9.278893461450934">
<ele>209.8</ele>
<time>2024-05-09T11:43:13Z</time>
</trkpt>
<trkpt lat="49.70205305144191" lon="9.278786592185496">
<ele>209.4</ele>
<time>2024-05-09T11:43:14Z</time>
</trkpt>
<trkpt lat="49.70207970589399" lon="9.278679806739092">
<ele>209</ele>
<time>2024-05-09T11:43:15Z</time>
</trkpt>
<trkpt lat="49.70210258848965" lon="9.278570171445608">
<ele>208.6</ele>
<time>2024-05-09T11:43:16Z</time>
</trkpt>
<trkpt lat="49.70212932676077" lon="9.278463302180173">
<ele>208.2</ele>
<time>2024-05-09T11:43:17Z</time>
</trkpt>
<trkpt lat="49.70215220935643" lon="9.278353666886687">
<ele>207.8</ele>
<time>2024-05-09T11:43:18Z</time>
</trkpt>
<trkpt lat="49.702175091952085" lon="9.27824679762125">
<ele>207.4</ele>
<time>2024-05-09T11:43:19Z</time>
</trkpt>
<trkpt lat="49.7022018302232" lon="9.278140012174845">
<ele>206.8</ele>
<time>2024-05-09T11:43:20Z</time>
</trkpt>
<trkpt lat="49.70222471281886" lon="9.278035154566169">
<ele>206.4</ele>
<time>2024-05-09T11:43:21Z</time>
</trkpt>
<trkpt lat="49.70224373973906" lon="9.27793021313846">
<ele>206</ele>
<time>2024-05-09T11:43:22Z</time>
</trkpt>
<trkpt lat="49.70226662233472" lon="9.277818650007248">
<ele>205.4</ele>
<time>2024-05-09T11:43:23Z</time>
</trkpt>
<trkpt lat="49.70228573307395" lon="9.277711864560844">
<ele>205</ele>
<time>2024-05-09T11:43:24Z</time>
</trkpt>
<trkpt lat="49.70230861566961" lon="9.277606923133137">
<ele>204.4</ele>
<time>2024-05-09T11:43:25Z</time>
</trkpt>
<trkpt lat="49.702331498265266" lon="9.27750013768673">
<ele>204</ele>
<time>2024-05-09T11:43:26Z</time>
</trkpt>
<trkpt lat="49.70234675332904" lon="9.277397124096751">
<ele>203.6</ele>
<time>2024-05-09T11:43:27Z</time>
</trkpt>
<trkpt lat="49.702358236536384" lon="9.277297966182232">
<ele>203.2</ele>
<time>2024-05-09T11:43:28Z</time>
</trkpt>
<trkpt lat="49.702358236536384" lon="9.27719973027706">
<ele>202.8</ele>
<time>2024-05-09T11:43:29Z</time>
</trkpt>
<trkpt lat="49.702354380860925" lon="9.277098644524813">
<ele>202.2</ele>
<time>2024-05-09T11:43:30Z</time>
</trkpt>
<trkpt lat="49.70234298147261" lon="9.276998480781913">
<ele>201.8</ele>
<time>2024-05-09T11:43:31Z</time>
</trkpt>
<trkpt lat="49.70232387073338" lon="9.276896473020315">
<ele>201.4</ele>
<time>2024-05-09T11:43:32Z</time>
</trkpt>
<trkpt lat="49.70229713246226" lon="9.276802008971572">
<ele>200.8</ele>
<time>2024-05-09T11:43:33Z</time>
</trkpt>
<trkpt lat="49.70226662233472" lon="9.276713328436015">
<ele>200.4</ele>
<time>2024-05-09T11:43:34Z</time>
</trkpt>
<trkpt lat="49.70223234035075" lon="9.276626575738192">
<ele>199.8</ele>
<time>2024-05-09T11:43:35Z</time>
</trkpt>
<trkpt lat="49.70219034701586" lon="9.276546444743872">
<ele>199.4</ele>
<time>2024-05-09T11:43:36Z</time>
</trkpt>
<trkpt lat="49.7021484375" lon="9.276473019272087">
<ele>199.2</ele>
<time>2024-05-09T11:43:37Z</time>
</trkpt>
<trkpt lat="49.70209118910134" lon="9.276405293494465">
<ele>198.8</ele>
<time>2024-05-09T11:43:38Z</time>
</trkpt>
<trkpt lat="49.702037796378136" lon="9.276346201077104">
<ele>198.4</ele>
<time>2024-05-09T11:43:39Z</time>
</trkpt>
<trkpt lat="49.70197677612305" lon="9.27629180252552">
<ele>198.2</ele>
<time>2024-05-09T11:43:40Z</time>
</trkpt>
<trkpt lat="49.7019119001925" lon="9.276246959343553">
<ele>197.8</ele>
<time>2024-05-09T11:43:41Z</time>
</trkpt>
<trkpt lat="49.70185087993741" lon="9.27621359936893">
<ele>197.6</ele>
<time>2024-05-09T11:43:42Z</time>
</trkpt>
<trkpt lat="49.70178600400686" lon="9.27619163878262">
<ele>197.2</ele>
<time>2024-05-09T11:43:43Z</time>
</trkpt>
<trkpt lat="49.701721128076315" lon="9.276180239394307">
<ele>196.8</ele>
<time>2024-05-09T11:43:44Z</time>
</trkpt>
<trkpt lat="49.70165248028934" lon="9.276181161403656">
<ele>196.6</ele>
<time>2024-05-09T11:43:45Z</time>
</trkpt>
<trkpt lat="49.701583832502365" lon="9.276196416467428">
<ele>196.2</ele>
<time>2024-05-09T11:43:46Z</time>
</trkpt>
<trkpt lat="49.70151895657182" lon="9.276218377053738">
<ele>195.8</ele>
<time>2024-05-09T11:43:47Z</time>
</trkpt>
<trkpt lat="49.70145408064127" lon="9.276246959343553">
<ele>195.4</ele>
<time>2024-05-09T11:43:48Z</time>
</trkpt>
<trkpt lat="49.70139306038618" lon="9.27627461962402">
<ele>195.2</ele>
<time>2024-05-09T11:43:49Z</time>
</trkpt>
<trkpt lat="49.701328268274665" lon="9.276303285732864">
<ele>195</ele>
<time>2024-05-09T11:43:50Z</time>
</trkpt>
<trkpt lat="49.70126339234412" lon="9.27632994018495">
<ele>194.6</ele>
<time>2024-05-09T11:43:51Z</time>
</trkpt>
<trkpt lat="49.70119851641357" lon="9.27635190077126">
<ele>194.4</ele>
<time>2024-05-09T11:43:52Z</time>
</trkpt>
<trkpt lat="49.70113749615848" lon="9.27637000568211">
<ele>194.2</ele>
<time>2024-05-09T11:43:53Z</time>
</trkpt>
<trkpt lat="49.70107262022793" lon="9.27638811059296">
<ele>193.8</ele>
<time>2024-05-09T11:43:54Z</time>
</trkpt>
<trkpt lat="49.70100782811642" lon="9.276403365656734">
<ele>193.6</ele>
<time>2024-05-09T11:43:55Z</time>
</trkpt>
<trkpt lat="49.70094295218587" lon="9.276421470567584">
<ele>193.4</ele>
<time>2024-05-09T11:43:56Z</time>
</trkpt>
<trkpt lat="49.700874304398894" lon="9.276432953774927">
<ele>193.4</ele>
<time>2024-05-09T11:43:57Z</time>
</trkpt>
<trkpt lat="49.70080180093646" lon="9.2764482088387">
<ele>193.2</ele>
<time>2024-05-09T11:43:58Z</time>
</trkpt>
<trkpt lat="49.70072929747403" lon="9.276465391740205">
<ele>193</ele>
<time>2024-05-09T11:43:59Z</time>
</trkpt>
<trkpt lat="49.700656877830625" lon="9.276479640975596">
<ele>192.8</ele>
<time>2024-05-09T11:44:00Z</time>
</trkpt>
<trkpt lat="49.70058437436819" lon="9.276494979858398">
<ele>192.6</ele>
<time>2024-05-09T11:44:01Z</time>
</trkpt>
<trkpt lat="49.70050809904933" lon="9.276504451408982">
<ele>192.2</ele>
<time>2024-05-09T11:44:02Z</time>
</trkpt>
<trkpt lat="49.700439451262355" lon="9.276513084769247">
<ele>192</ele>
<time>2024-05-09T11:44:03Z</time>
</trkpt>
<trkpt lat="49.70037071965635" lon="9.27652833983302">
<ele>191.6</ele>
<time>2024-05-09T11:44:04Z</time>
</trkpt>
<trkpt lat="49.700298300012946" lon="9.276537895202637">
<ele>191.4</ele>
<time>2024-05-09T11:44:05Z</time>
</trkpt>
<trkpt lat="49.70022956840694" lon="9.276534961536528">
<ele>191.2</ele>
<time>2024-05-09T11:44:06Z</time>
</trkpt>
<trkpt lat="49.700160920619965" lon="9.276516856625676">
<ele>190.8</ele>
<time>2024-05-09T11:44:07Z</time>
</trkpt>
<trkpt lat="49.70009990036488" lon="9.276474947109818">
<ele>190.6</ele>
<time>2024-05-09T11:44:08Z</time>
</trkpt>
<trkpt lat="49.70004650764167" lon="9.276416776701808">
<ele>190.4</ele>
<time>2024-05-09T11:44:09Z</time>
</trkpt>
<trkpt lat="49.70000836998224" lon="9.276340417563915">
<ele>190.2</ele>
<time>2024-05-09T11:44:10Z</time>
</trkpt>
<trkpt lat="49.69998925924301" lon="9.276249809190633">
<ele>190</ele>
<time>2024-05-09T11:44:11Z</time>
</trkpt>
<trkpt lat="49.69998925924301" lon="9.276156350970268">
<ele>189.8</ele>
<time>2024-05-09T11:44:12Z</time>
</trkpt>
<trkpt lat="49.70000074245036" lon="9.276062892749906">
<ele>189.4</ele>
<time>2024-05-09T11:44:13Z</time>
</trkpt>
<trkpt lat="49.70002739690244" lon="9.27597806788981">
<ele>189.2</ele>
<time>2024-05-09T11:44:14Z</time>
</trkpt>
<trkpt lat="49.700061762705445" lon="9.27589793689549">
<ele>189</ele>
<time>2024-05-09T11:44:15Z</time>
</trkpt>
<trkpt lat="49.70010752789676" lon="9.275833060964942">
<ele>188.6</ele>
<time>2024-05-09T11:44:16Z</time>
</trkpt>
<trkpt lat="49.700160920619965" lon="9.275790145620704">
<ele>188.4</ele>
<time>2024-05-09T11:44:17Z</time>
</trkpt>
<trkpt lat="49.700218169018626" lon="9.275752007961271">
<ele>188.2</ele>
<time>2024-05-09T11:44:18Z</time>
</trkpt>
<trkpt lat="49.70027541741729" lon="9.27571672014892">
<ele>187.8</ele>
<time>2024-05-09T11:44:19Z</time>
</trkpt>
<trkpt lat="49.70033643767238" lon="9.275681432336569">
<ele>187.6</ele>
<time>2024-05-09T11:44:20Z</time>
</trkpt>
<trkpt lat="49.700397457927465" lon="9.275652850046754">
<ele>187.4</ele>
<time>2024-05-09T11:44:21Z</time>
</trkpt>
<trkpt lat="49.700458478182554" lon="9.275627117604015">
<ele>187</ele>
<time>2024-05-09T11:44:22Z</time>
</trkpt>
<trkpt lat="49.700515726581216" lon="9.27559845149517">
<ele>186.8</ele>
<time>2024-05-09T11:44:23Z</time>
</trkpt>
<trkpt lat="49.700572891160846" lon="9.275574646890163">
<ele>186.4</ele>
<time>2024-05-09T11:44:24Z</time>
</trkpt>
<trkpt lat="49.70062636770308" lon="9.275556541979311">
<ele>186.2</ele>
<time>2024-05-09T11:44:25Z</time>
</trkpt>
<trkpt lat="49.70068353228271" lon="9.27554128691554">
<ele>185.8</ele>
<time>2024-05-09T11:44:26Z</time>
</trkpt>
<trkpt lat="49.70074078068137" lon="9.275525026023388">
<ele>185.6</ele>
<time>2024-05-09T11:44:27Z</time>
</trkpt>
<trkpt lat="49.70079802908003" lon="9.275507926940918">
<ele>185.4</ele>
<time>2024-05-09T11:44:28Z</time>
</trkpt>
<trkpt lat="49.70085142180323" lon="9.275489738211036">
<ele>185.2</ele>
<time>2024-05-09T11:44:29Z</time>
</trkpt>
<trkpt lat="49.700912442058325" lon="9.275466855615376">
<ele>185</ele>
<time>2024-05-09T11:44:30Z</time>
</trkpt>
<trkpt lat="49.700973462313414" lon="9.275436345487831">
<ele>184.8</ele>
<time>2024-05-09T11:44:31Z</time>
</trkpt>
<trkpt lat="49.7010344825685" lon="9.275408685207369">
<ele>184.6</ele>
<time>2024-05-09T11:44:32Z</time>
</trkpt>
<trkpt lat="49.70109173096717" lon="9.275376247242091">
<ele>184.4</ele>
<time>2024-05-09T11:44:33Z</time>
</trkpt>
<trkpt lat="49.70115275122225" lon="9.275340037420392">
<ele>184</ele>
<time>2024-05-09T11:44:34Z</time>
</trkpt>
<trkpt lat="49.70121377147734" lon="9.27530282177031">
<ele>183.8</ele>
<time>2024-05-09T11:44:35Z</time>
</trkpt>
<trkpt lat="49.701271019876" lon="9.27526468411088">
<ele>183.4</ele>
<time>2024-05-09T11:44:36Z</time>
</trkpt>
<trkpt lat="49.701328268274665" lon="9.27522461861372">
<ele>183</ele>
<time>2024-05-09T11:44:37Z</time>
</trkpt>
<trkpt lat="49.701385432854295" lon="9.27518840879202">
<ele>182.6</ele>
<time>2024-05-09T11:44:38Z</time>
</trkpt>
<trkpt lat="49.70144268125296" lon="9.275155048817396">
<ele>182.2</ele>
<time>2024-05-09T11:44:39Z</time>
</trkpt>
<trkpt lat="49.70149992965162" lon="9.275130238384008">
<ele>181.8</ele>
<time>2024-05-09T11:44:40Z</time>
</trkpt>
<trkpt lat="49.70155709423125" lon="9.275114983320236">
<ele>181.4</ele>
<time>2024-05-09T11:44:41Z</time>
</trkpt>
<trkpt lat="49.70161811448634" lon="9.275101656094192">
<ele>180.8</ele>
<time>2024-05-09T11:44:42Z</time>
</trkpt>
<trkpt lat="49.70167921856046" lon="9.275090172886848">
<ele>180.4</ele>
<time>2024-05-09T11:44:43Z</time>
</trkpt>
<trkpt lat="49.70173638314009" lon="9.275079695507884">
<ele>180</ele>
<time>2024-05-09T11:44:44Z</time>
</trkpt>
<trkpt lat="49.70178977586329" lon="9.275072989985349">
<ele>179.6</ele>
<time>2024-05-09T11:44:45Z</time>
</trkpt>
<trkpt lat="49.70185465179384" lon="9.27506536245346">
<ele>179.2</ele>
<time>2024-05-09T11:44:46Z</time>
</trkpt>
<trkpt lat="49.701980547979474" lon="9.275036780163646">
<ele>178.6</ele>
<time>2024-05-09T11:44:48Z</time>
</trkpt>
<trkpt lat="49.70204156823456" lon="9.275011969730258">
<ele>178.2</ele>
<time>2024-05-09T11:44:49Z</time>
</trkpt>
<trkpt lat="49.70210644416511" lon="9.274981459602714">
<ele>177.6</ele>
<time>2024-05-09T11:44:50Z</time>
</trkpt>
<trkpt lat="49.70216369256377" lon="9.274945249781013">
<ele>177.2</ele>
<time>2024-05-09T11:44:51Z</time>
</trkpt>
<trkpt lat="49.702217085286975" lon="9.274903256446123">
<ele>176.8</ele>
<time>2024-05-09T11:44:52Z</time>
</trkpt>
<trkpt lat="49.70227047801018" lon="9.274856485426426">
<ele>176.4</ele>
<time>2024-05-09T11:44:53Z</time>
</trkpt>
<trkpt lat="49.70232387073338" lon="9.27480979822576">
<ele>176</ele>
<time>2024-05-09T11:44:54Z</time>
</trkpt>
<trkpt lat="49.70238111913204" lon="9.274763027206063">
<ele>175.6</ele>
<time>2024-05-09T11:44:55Z</time>
</trkpt>
<trkpt lat="49.702434511855245" lon="9.274718267843127">
<ele>175.2</ele>
<time>2024-05-09T11:44:56Z</time>
</trkpt>
<trkpt lat="49.702491760253906" lon="9.2746695689857">
<ele>175</ele>
<time>2024-05-09T11:44:57Z</time>
</trkpt>
<trkpt lat="49.70254129730165" lon="9.274616176262498">
<ele>174.6</ele>
<time>2024-05-09T11:44:58Z</time>
</trkpt>
<trkpt lat="49.702590918168426" lon="9.274561861529946">
<ele>174.2</ele>
<time>2024-05-09T11:44:59Z</time>
</trkpt>
<trkpt lat="49.70264431089163" lon="9.274503691121936">
<ele>174</ele>
<time>2024-05-09T11:45:00Z</time>
</trkpt>
<trkpt lat="49.702690076082945" lon="9.274446442723274">
<ele>173.6</ele>
<time>2024-05-09T11:45:01Z</time>
</trkpt>
<trkpt lat="49.70273584127426" lon="9.274383494630456">
<ele>173.4</ele>
<time>2024-05-09T11:45:02Z</time>
</trkpt>
<trkpt lat="49.70277397893369" lon="9.27431677468121">
<ele>173.2</ele>
<time>2024-05-09T11:45:03Z</time>
</trkpt>
<trkpt lat="49.70281211659312" lon="9.274243349209428">
<ele>173</ele>
<time>2024-05-09T11:45:04Z</time>
</trkpt>
<trkpt lat="49.702846482396126" lon="9.274167995899916">
<ele>172.8</ele>
<time>2024-05-09T11:45:05Z</time>
</trkpt>
<trkpt lat="49.70288462005555" lon="9.274093564599752">
<ele>172.6</ele>
<time>2024-05-09T11:45:06Z</time>
</trkpt>
<trkpt lat="49.7029151301831" lon="9.274022988975048">
<ele>172.4</ele>
<time>2024-05-09T11:45:07Z</time>
</trkpt>
<trkpt lat="49.70295326784253" lon="9.27396196871996">
<ele>172.2</ele>
<time>2024-05-09T11:45:08Z</time>
</trkpt>
<trkpt lat="49.702987633645535" lon="9.273908575996757">
<ele>172</ele>
<time>2024-05-09T11:45:09Z</time>
</trkpt>
<trkpt lat="49.703025771304965" lon="9.27386180497706">
<ele>171.6</ele>
<time>2024-05-09T11:45:10Z</time>
</trkpt>
<trkpt lat="49.703067764639854" lon="9.273815117776394">
<ele>171.4</ele>
<time>2024-05-09T11:45:11Z</time>
</trkpt>
<trkpt lat="49.70310967415571" lon="9.27376457490027">
<ele>171.2</ele>
<time>2024-05-09T11:45:12Z</time>
</trkpt>
<trkpt lat="49.70315543934703" lon="9.273719731718302">
<ele>170.8</ele>
<time>2024-05-09T11:45:13Z</time>
</trkpt>
<trkpt lat="49.70320128835738" lon="9.273674888536334">
<ele>170.4</ele>
<time>2024-05-09T11:45:14Z</time>
</trkpt>
<trkpt lat="49.703243197873235" lon="9.273628201335669">
<ele>170</ele>
<time>2024-05-09T11:45:15Z</time>
</trkpt>
<trkpt lat="49.70328896306455" lon="9.2735833581537">
<ele>169.6</ele>
<time>2024-05-09T11:45:16Z</time>
</trkpt>
<trkpt lat="49.70333472825587" lon="9.273538514971731">
<ele>169.2</ele>
<time>2024-05-09T11:45:17Z</time>
</trkpt>
<trkpt lat="49.703380577266216" lon="9.273494677618146">
<ele>169</ele>
<time>2024-05-09T11:45:18Z</time>
</trkpt>
<trkpt lat="49.70343011431396" lon="9.27344799041748">
<ele>168.6</ele>
<time>2024-05-09T11:45:19Z</time>
</trkpt>
<trkpt lat="49.703479735180736" lon="9.273403147235513">
<ele>168.4</ele>
<time>2024-05-09T11:45:20Z</time>
</trkpt>
<trkpt lat="49.70353312790394" lon="9.273353526368735">
<ele>168</ele>
<time>2024-05-09T11:45:21Z</time>
</trkpt>
<trkpt lat="49.70358652062714" lon="9.273298205807803">
<ele>167.6</ele>
<time>2024-05-09T11:45:22Z</time>
</trkpt>
<trkpt lat="49.703639913350344" lon="9.273244813084602">
<ele>167.4</ele>
<time>2024-05-09T11:45:23Z</time>
</trkpt>
<trkpt lat="49.70369338989258" lon="9.2731914203614">
<ele>167</ele>
<time>2024-05-09T11:45:24Z</time>
</trkpt>
<trkpt lat="49.70374678261578" lon="9.273143727332354">
<ele>166.8</ele>
<time>2024-05-09T11:45:25Z</time>
</trkpt>
<trkpt lat="49.70380394719541" lon="9.273096956312656">
<ele>166.6</ele>
<time>2024-05-09T11:45:26Z</time>
</trkpt>
<trkpt lat="49.70386119559407" lon="9.273050269111993">
<ele>166.4</ele>
<time>2024-05-09T11:45:27Z</time>
</trkpt>
<trkpt lat="49.703918443992734" lon="9.27301112562418">
<ele>166.2</ele>
<time>2024-05-09T11:45:28Z</time>
</trkpt>
<trkpt lat="49.70397560857237" lon="9.272978771477938">
<ele>166</ele>
<time>2024-05-09T11:45:29Z</time>
</trkpt>
<trkpt lat="49.704032856971025" lon="9.272945327684283">
<ele>165.8</ele>
<time>2024-05-09T11:45:30Z</time>
</trkpt>
<trkpt lat="49.70409010536969" lon="9.27291196770966">
<ele>165.6</ele>
<time>2024-05-09T11:45:31Z</time>
</trkpt>
<trkpt lat="49.70414349809289" lon="9.272885313257577">
<ele>165.2</ele>
<time>2024-05-09T11:45:32Z</time>
</trkpt>
<trkpt lat="49.704193035140634" lon="9.272858574986458">
<ele>165</ele>
<time>2024-05-09T11:45:33Z</time>
</trkpt>
<trkpt lat="49.70424651168287" lon="9.27283477038145">
<ele>164.8</ele>
<time>2024-05-09T11:45:34Z</time>
</trkpt>
<trkpt lat="49.70429990440607" lon="9.272809959948065">
<ele>164.4</ele>
<time>2024-05-09T11:45:35Z</time>
</trkpt>
<trkpt lat="49.704349441453815" lon="9.272787999361752">
<ele>164</ele>
<time>2024-05-09T11:45:36Z</time>
</trkpt>
<trkpt lat="49.70440291799605" lon="9.272767966613172">
<ele>163.8</ele>
<time>2024-05-09T11:45:37Z</time>
</trkpt>
<trkpt lat="49.70446008257568" lon="9.272749861702325">
<ele>163.4</ele>
<time>2024-05-09T11:45:38Z</time>
</trkpt>
<trkpt lat="49.70451347529888" lon="9.272729828953745">
<ele>163.2</ele>
<time>2024-05-09T11:45:39Z</time>
</trkpt>
<trkpt lat="49.70456309616566" lon="9.272711724042892">
<ele>162.8</ele>
<time>2024-05-09T11:45:40Z</time>
</trkpt>
<trkpt lat="49.704608861356974" lon="9.27269646897912">
<ele>162.6</ele>
<time>2024-05-09T11:45:41Z</time>
</trkpt>
<trkpt lat="49.7046469990164" lon="9.272686913609505">
<ele>162.2</ele>
<time>2024-05-09T11:45:42Z</time>
</trkpt>
<trkpt lat="49.70468136481941" lon="9.27267836406827">
<ele>162</ele>
<time>2024-05-09T11:45:43Z</time>
</trkpt>
<trkpt lat="49.70470801927149" lon="9.272667802870274">
<ele>161.6</ele>
<time>2024-05-09T11:45:44Z</time>
</trkpt>
<trkpt lat="49.70473098568618" lon="9.272653553634882">
<ele>161.4</ele>
<time>2024-05-09T11:45:45Z</time>
</trkpt>
<trkpt lat="49.704742385074496" lon="9.272631593048573">
<ele>161.2</ele>
<time>2024-05-09T11:45:46Z</time>
</trkpt>
<trkpt lat="49.704746240749955" lon="9.27261826582253">
<ele>161</ele>
<time>2024-05-09T11:45:47Z</time>
</trkpt>
<trkpt lat="49.704746240749955" lon="9.2726163379848">
<ele>160.8</ele>
<time>2024-05-09T11:45:51Z</time>
</trkpt>
<trkpt lat="49.704746240749955" lon="9.272615415975451">
<ele>160.6</ele>
<time>2024-05-09T11:45:52Z</time>
</trkpt>
<trkpt lat="49.704746240749955" lon="9.272613488137722">
<ele>160.4</ele>
<time>2024-05-09T11:45:53Z</time>
</trkpt>
<trkpt lat="49.704742385074496" lon="9.272613488137722">
<ele>160.2</ele>
<time>2024-05-09T11:45:55Z</time>
</trkpt>
<trkpt lat="49.704742385074496" lon="9.272611560299993">
<ele>160.2</ele>
<time>2024-05-09T11:45:56Z</time>
</trkpt>
<trkpt lat="49.704742385074496" lon="9.272609632462265">
<ele>160</ele>
<time>2024-05-09T11:46:01Z</time>
</trkpt>
<trkpt lat="49.704746240749955" lon="9.272603010758758">
<ele>159.8</ele>
<time>2024-05-09T11:46:03Z</time>
</trkpt>
<trkpt lat="49.70475001260638" lon="9.272593455389142">
<ele>159.6</ele>
<time>2024-05-09T11:46:04Z</time>
</trkpt>
<trkpt lat="49.70476149581373" lon="9.272571494802833">
<ele>159.4</ele>
<time>2024-05-09T11:46:05Z</time>
</trkpt>
<trkpt lat="49.7047767508775" lon="9.272549618035557">
<ele>159.2</ele>
<time>2024-05-09T11:46:06Z</time>
</trkpt>
<trkpt lat="49.70479200594127" lon="9.272524807602167">
<ele>159.2</ele>
<time>2024-05-09T11:46:07Z</time>
</trkpt>
<trkpt lat="49.70481488853693" lon="9.272491447627544">
<ele>159</ele>
<time>2024-05-09T11:46:08Z</time>
</trkpt>
<trkpt lat="49.704845398664474" lon="9.272453226149082">
<ele>159</ele>
<time>2024-05-09T11:46:09Z</time>
</trkpt>
<trkpt lat="49.70487590879202" lon="9.272413244470954">
<ele>158.8</ele>
<time>2024-05-09T11:46:10Z</time>
</trkpt>
<trkpt lat="49.70490641891956" lon="9.272375106811523">
<ele>158.8</ele>
<time>2024-05-09T11:46:11Z</time>
</trkpt>
<trkpt lat="49.70494078472257" lon="9.272343590855598">
<ele>158.8</ele>
<time>2024-05-09T11:46:12Z</time>
</trkpt>
<trkpt lat="49.704978922382" lon="9.272313080728054">
<ele>158.6</ele>
<time>2024-05-09T11:46:13Z</time>
</trkpt>
<trkpt lat="49.70501706004143" lon="9.272279720753431">
<ele>158.4</ele>
<time>2024-05-09T11:46:14Z</time>
</trkpt>
<trkpt lat="49.7050513420254" lon="9.272241583094">
<ele>158.4</ele>
<time>2024-05-09T11:46:15Z</time>
</trkpt>
<trkpt lat="49.70507808029651" lon="9.272185256704688">
<ele>158.2</ele>
<time>2024-05-09T11:46:16Z</time>
</trkpt>
<trkpt lat="49.70509719103575" lon="9.272119458764791">
<ele>158</ele>
<time>2024-05-09T11:46:17Z</time>
</trkpt>
<trkpt lat="49.705100962892175" lon="9.27204318344593">
<ele>158</ele>
<time>2024-05-09T11:46:18Z</time>
</trkpt>
<trkpt lat="49.70509719103575" lon="9.271967830136418">
<ele>157.8</ele>
<time>2024-05-09T11:46:19Z</time>
</trkpt>
<trkpt lat="49.70508956350386" lon="9.27188870497048">
<ele>157.6</ele>
<time>2024-05-09T11:46:20Z</time>
</trkpt>
<trkpt lat="49.705081935971975" lon="9.27180857397616">
<ele>157.4</ele>
<time>2024-05-09T11:46:21Z</time>
</trkpt>
<trkpt lat="49.705081935971975" lon="9.271724671125412">
<ele>157.2</ele>
<time>2024-05-09T11:46:22Z</time>
</trkpt>
<trkpt lat="49.705081935971975" lon="9.27163314074278">
<ele>157</ele>
<time>2024-05-09T11:46:23Z</time>
</trkpt>
<trkpt lat="49.70507808029651" lon="9.271546304225922">
<ele>156.6</ele>
<time>2024-05-09T11:46:24Z</time>
</trkpt>
<trkpt lat="49.70507045276463" lon="9.271461479365826">
<ele>156.4</ele>
<time>2024-05-09T11:46:25Z</time>
</trkpt>
<trkpt lat="49.7050666809082" lon="9.271376570686698">
<ele>156.4</ele>
<time>2024-05-09T11:46:26Z</time>
</trkpt>
<trkpt lat="49.70505519770086" lon="9.27129166200757">
<ele>156</ele>
<time>2024-05-09T11:46:27Z</time>
</trkpt>
<trkpt lat="49.70505519770086" lon="9.271204909309745">
<ele>155.8</ele>
<time>2024-05-09T11:46:28Z</time>
</trkpt>
<trkpt lat="49.7050513420254" lon="9.27111622877419">
<ele>155.6</ele>
<time>2024-05-09T11:46:29Z</time>
</trkpt>
<trkpt lat="49.70504757016897" lon="9.271030398085712">
<ele>155.4</ele>
<time>2024-05-09T11:46:30Z</time>
</trkpt>
<trkpt lat="49.70504757016897" lon="9.270939789712427">
<ele>155</ele>
<time>2024-05-09T11:46:31Z</time>
</trkpt>
<trkpt lat="49.70504757016897" lon="9.270846331492066">
<ele>154.6</ele>
<time>2024-05-09T11:46:32Z</time>
</trkpt>
<trkpt lat="49.70504757016897" lon="9.270751951262357">
<ele>154.4</ele>
<time>2024-05-09T11:46:33Z</time>
</trkpt>
<trkpt lat="49.70504757016897" lon="9.270656565204265">
<ele>154</ele>
<time>2024-05-09T11:46:34Z</time>
</trkpt>
<trkpt lat="49.70504371449351" lon="9.270560257136822">
<ele>153.8</ele>
<time>2024-05-09T11:46:35Z</time>
</trkpt>
<trkpt lat="49.705039942637086" lon="9.270462943241">
<ele>153.4</ele>
<time>2024-05-09T11:46:36Z</time>
</trkpt>
<trkpt lat="49.70503608696163" lon="9.27036470733583">
<ele>153.2</ele>
<time>2024-05-09T11:46:37Z</time>
</trkpt>
<trkpt lat="49.7050323151052" lon="9.27026454359293">
<ele>153</ele>
<time>2024-05-09T11:46:38Z</time>
</trkpt>
<trkpt lat="49.70502845942974" lon="9.270166391506791">
<ele>152.8</ele>
<time>2024-05-09T11:46:39Z</time>
</trkpt>
<trkpt lat="49.705020831897855" lon="9.270069999620318">
<ele>152.6</ele>
<time>2024-05-09T11:46:40Z</time>
</trkpt>
<trkpt lat="49.70501706004143" lon="9.26996991969645">
<ele>152.4</ele>
<time>2024-05-09T11:46:41Z</time>
</trkpt>
<trkpt lat="49.70501320436597" lon="9.269866906106472">
<ele>152.2</ele>
<time>2024-05-09T11:46:42Z</time>
</trkpt>
<trkpt lat="49.70500557683408" lon="9.269764898344874">
<ele>152.2</ele>
<time>2024-05-09T11:46:43Z</time>
</trkpt>
<trkpt lat="49.705001804977655" lon="9.269664734601974">
<ele>152</ele>
<time>2024-05-09T11:46:44Z</time>
</trkpt>
<trkpt lat="49.70499417744577" lon="9.269566498696804">
<ele>151.8</ele>
<time>2024-05-09T11:46:45Z</time>
</trkpt>
<trkpt lat="49.70498654991388" lon="9.269465412944555">
<ele>151.8</ele>
<time>2024-05-09T11:46:46Z</time>
</trkpt>
<trkpt lat="49.70497506670654" lon="9.269366255030036">
<ele>151.6</ele>
<time>2024-05-09T11:46:47Z</time>
</trkpt>
<trkpt lat="49.704959811642766" lon="9.269271790981293">
<ele>151.4</ele>
<time>2024-05-09T11:46:48Z</time>
</trkpt>
<trkpt lat="49.70494841225445" lon="9.26918026059866">
<ele>151.4</ele>
<time>2024-05-09T11:46:49Z</time>
</trkpt>
<trkpt lat="49.70493315719068" lon="9.269086802378297">
<ele>151.4</ele>
<time>2024-05-09T11:46:50Z</time>
</trkpt>
<trkpt lat="49.704921673983335" lon="9.268993344157934">
<ele>151.2</ele>
<time>2024-05-09T11:46:51Z</time>
</trkpt>
<trkpt lat="49.70490641891956" lon="9.268897958099842">
<ele>151.2</ele>
<time>2024-05-09T11:46:52Z</time>
</trkpt>
<trkpt lat="49.70489501953125" lon="9.268806427717209">
<ele>151.2</ele>
<time>2024-05-09T11:46:53Z</time>
</trkpt>
<trkpt lat="49.70487590879202" lon="9.268718669191005">
<ele>151.2</ele>
<time>2024-05-09T11:46:54Z</time>
</trkpt>
<trkpt lat="49.70486065372825" lon="9.268631916493176">
<ele>151.2</ele>
<time>2024-05-09T11:46:55Z</time>
</trkpt>
<trkpt lat="49.7048491705209" lon="9.268543235957624">
<ele>151</ele>
<time>2024-05-09T11:46:56Z</time>
</trkpt>
<trkpt lat="49.70483391545713" lon="9.268456399440764">
<ele>151</ele>
<time>2024-05-09T11:46:57Z</time>
</trkpt>
<trkpt lat="49.70481866039336" lon="9.268373418599367">
<ele>150.8</ele>
<time>2024-05-09T11:46:58Z</time>
</trkpt>
<trkpt lat="49.70480726100504" lon="9.26828951574862">
<ele>150.8</ele>
<time>2024-05-09T11:46:59Z</time>
</trkpt>
<trkpt lat="49.70479200594127" lon="9.268208462744951">
<ele>150.8</ele>
<time>2024-05-09T11:47:00Z</time>
</trkpt>
<trkpt lat="49.704784378409386" lon="9.268124559894204">
<ele>150.6</ele>
<time>2024-05-09T11:47:01Z</time>
</trkpt>
<trkpt lat="49.70476912334561" lon="9.268041579052806">
<ele>150.6</ele>
<time>2024-05-09T11:47:02Z</time>
</trkpt>
<trkpt lat="49.70475386828184" lon="9.267963375896215">
<ele>150.6</ele>
<time>2024-05-09T11:47:03Z</time>
</trkpt>
<trkpt lat="49.70473861321807" lon="9.267883244901896">
<ele>150.4</ele>
<time>2024-05-09T11:47:04Z</time>
</trkpt>
<trkpt lat="49.70472713001072" lon="9.267801269888878">
<ele>150.4</ele>
<time>2024-05-09T11:47:05Z</time>
</trkpt>
<trkpt lat="49.70471564680338" lon="9.267723066732287">
<ele>150.4</ele>
<time>2024-05-09T11:47:06Z</time>
</trkpt>
<trkpt lat="49.704704247415066" lon="9.267648635432124">
<ele>150.4</ele>
<time>2024-05-09T11:47:07Z</time>
</trkpt>
<trkpt lat="49.70469661988318" lon="9.267573282122612">
<ele>150.4</ele>
<time>2024-05-09T11:47:08Z</time>
</trkpt>
<trkpt lat="49.704685136675835" lon="9.26749985665083">
<ele>150.4</ele>
<time>2024-05-09T11:47:09Z</time>
</trkpt>
<trkpt lat="49.70467373728752" lon="9.267423581331968">
<ele>150.4</ele>
<time>2024-05-09T11:47:10Z</time>
</trkpt>
<trkpt lat="49.70465848222375" lon="9.267348228022456">
<ele>150.4</ele>
<time>2024-05-09T11:47:11Z</time>
</trkpt>
<trkpt lat="49.7046469990164" lon="9.267268180847168">
<ele>150.4</ele>
<time>2024-05-09T11:47:12Z</time>
</trkpt>
<trkpt lat="49.70463174395263" lon="9.267191821709275">
<ele>150.4</ele>
<time>2024-05-09T11:47:13Z</time>
</trkpt>
<trkpt lat="49.70461648888886" lon="9.267111774533989">
<ele>150.4</ele>
<time>2024-05-09T11:47:14Z</time>
</trkpt>
<trkpt lat="49.70460508950055" lon="9.267034493386744">
<ele>150.4</ele>
<time>2024-05-09T11:47:15Z</time>
</trkpt>
<trkpt lat="49.704589834436774" lon="9.266956290230157">
<ele>150.4</ele>
<time>2024-05-09T11:47:16Z</time>
</trkpt>
<trkpt lat="49.70457835122943" lon="9.266881942749023">
<ele>150.4</ele>
<time>2024-05-09T11:47:17Z</time>
</trkpt>
<trkpt lat="49.70456695184112" lon="9.266808433458207">
<ele>150.4</ele>
<time>2024-05-09T11:47:18Z</time>
</trkpt>
<trkpt lat="49.704551696777344" lon="9.26672838628292">
<ele>150.4</ele>
<time>2024-05-09T11:47:19Z</time>
</trkpt>
<trkpt lat="49.70453635789454" lon="9.26665018312633">
<ele>150.4</ele>
<time>2024-05-09T11:47:20Z</time>
</trkpt>
<trkpt lat="49.70452495850623" lon="9.26657005213201">
<ele>150.4</ele>
<time>2024-05-09T11:47:21Z</time>
</trkpt>
<trkpt lat="49.70451347529888" lon="9.26648799329996">
<ele>150.4</ele>
<time>2024-05-09T11:47:22Z</time>
</trkpt>
<trkpt lat="49.70449822023511" lon="9.266409873962402">
<ele>150.4</ele>
<time>2024-05-09T11:47:23Z</time>
</trkpt>
<trkpt lat="49.7044868208468" lon="9.266328737139702">
<ele>150.4</ele>
<time>2024-05-09T11:47:24Z</time>
</trkpt>
<trkpt lat="49.704471565783024" lon="9.266244834288957">
<ele>150.2</ele>
<time>2024-05-09T11:47:25Z</time>
</trkpt>
<trkpt lat="49.70446008257568" lon="9.266161853447556">
<ele>150.2</ele>
<time>2024-05-09T11:47:26Z</time>
</trkpt>
<trkpt lat="49.70444482751191" lon="9.26607702858746">
<ele>150</ele>
<time>2024-05-09T11:47:27Z</time>
</trkpt>
<trkpt lat="49.704429572448134" lon="9.265993041917682">
<ele>150</ele>
<time>2024-05-09T11:47:28Z</time>
</trkpt>
<trkpt lat="49.70441431738436" lon="9.265908217057586">
<ele>149.8</ele>
<time>2024-05-09T11:47:29Z</time>
</trkpt>
<trkpt lat="49.70439906232059" lon="9.265825236216187">
<ele>149.8</ele>
<time>2024-05-09T11:47:30Z</time>
</trkpt>
<trkpt lat="49.70438380725682" lon="9.265743177384138">
<ele>149.6</ele>
<time>2024-05-09T11:47:31Z</time>
</trkpt>
<trkpt lat="49.70437232404947" lon="9.265664974227548">
<ele>149.6</ele>
<time>2024-05-09T11:47:32Z</time>
</trkpt>
<trkpt lat="49.70436092466116" lon="9.265591548755763">
<ele>149.4</ele>
<time>2024-05-09T11:47:33Z</time>
</trkpt>
<trkpt lat="49.704349441453815" lon="9.265516279265285">
<ele>149.4</ele>
<time>2024-05-09T11:47:34Z</time>
</trkpt>
<trkpt lat="49.7043380420655" lon="9.265446625649927">
<ele>149.4</ele>
<time>2024-05-09T11:47:35Z</time>
</trkpt>
<trkpt lat="49.70432655885816" lon="9.265375128015876">
<ele>149.4</ele>
<time>2024-05-09T11:47:36Z</time>
</trkpt>
<trkpt lat="49.704311303794384" lon="9.265299774706364">
<ele>149.4</ele>
<time>2024-05-09T11:47:37Z</time>
</trkpt>
<trkpt lat="49.70429604873061" lon="9.265223499387504">
<ele>149.2</ele>
<time>2024-05-09T11:47:38Z</time>
</trkpt>
<trkpt lat="49.70427702181041" lon="9.26514621824026">
<ele>149.2</ele>
<time>2024-05-09T11:47:39Z</time>
</trkpt>
<trkpt lat="49.70426176674664" lon="9.265067093074322">
<ele>149</ele>
<time>2024-05-09T11:47:40Z</time>
</trkpt>
<trkpt lat="49.70424651168287" lon="9.264985034242272">
<ele>148.8</ele>
<time>2024-05-09T11:47:41Z</time>
</trkpt>
<trkpt lat="49.704231256619096" lon="9.264900125563145">
<ele>148.6</ele>
<time>2024-05-09T11:47:42Z</time>
</trkpt>
<trkpt lat="49.704212145879865" lon="9.264816222712398">
<ele>148.4</ele>
<time>2024-05-09T11:47:43Z</time>
</trkpt>
<trkpt lat="49.70419689081609" lon="9.26473617553711">
<ele>148.2</ele>
<time>2024-05-09T11:47:44Z</time>
</trkpt>
<trkpt lat="49.70417778007686" lon="9.264656966552138">
<ele>148</ele>
<time>2024-05-09T11:47:45Z</time>
</trkpt>
<trkpt lat="49.70416252501309" lon="9.2645778413862">
<ele>147.6</ele>
<time>2024-05-09T11:47:46Z</time>
</trkpt>
<trkpt lat="49.70414726994932" lon="9.264498632401228">
<ele>147.4</ele>
<time>2024-05-09T11:47:47Z</time>
</trkpt>
<trkpt lat="49.704132014885545" lon="9.26441665738821">
<ele>147.2</ele>
<time>2024-05-09T11:47:48Z</time>
</trkpt>
<trkpt lat="49.70411675982177" lon="9.26433459855616">
<ele>147</ele>
<time>2024-05-09T11:47:49Z</time>
</trkpt>
<trkpt lat="49.70409773290157" lon="9.264251701533794">
<ele>146.8</ele>
<time>2024-05-09T11:47:50Z</time>
</trkpt>
<trkpt lat="49.7040824778378" lon="9.264162937179208">
<ele>146.6</ele>
<time>2024-05-09T11:47:51Z</time>
</trkpt>
<trkpt lat="49.70406336709857" lon="9.264075262472034">
<ele>146.4</ele>
<time>2024-05-09T11:47:52Z</time>
</trkpt>
<trkpt lat="49.70405196771026" lon="9.26398658193648">
<ele>146.2</ele>
<time>2024-05-09T11:47:53Z</time>
</trkpt>
<trkpt lat="49.70403671264648" lon="9.263897817581892">
<ele>146</ele>
<time>2024-05-09T11:47:54Z</time>
</trkpt>
<trkpt lat="49.70401760190725" lon="9.263808215036988">
<ele>145.8</ele>
<time>2024-05-09T11:47:55Z</time>
</trkpt>
<trkpt lat="49.70399849116802" lon="9.263716684654357">
<ele>145.8</ele>
<time>2024-05-09T11:47:56Z</time>
</trkpt>
<trkpt lat="49.70397946424782" lon="9.263621298596265">
<ele>145.6</ele>
<time>2024-05-09T11:47:57Z</time>
</trkpt>
<trkpt lat="49.70396035350859" lon="9.263524990528822">
<ele>145.4</ele>
<time>2024-05-09T11:47:58Z</time>
</trkpt>
<trkpt lat="49.70394895412028" lon="9.26342868246138">
<ele>145.2</ele>
<time>2024-05-09T11:47:59Z</time>
</trkpt>
<trkpt lat="49.703933699056506" lon="9.263326590880752">
<ele>145</ele>
<time>2024-05-09T11:48:00Z</time>
</trkpt>
<trkpt lat="49.70392607152462" lon="9.263224583119154">
<ele>144.8</ele>
<time>2024-05-09T11:48:01Z</time>
</trkpt>
<trkpt lat="49.703918443992734" lon="9.263119641691446">
<ele>144.6</ele>
<time>2024-05-09T11:48:02Z</time>
</trkpt>
<trkpt lat="49.70390696078539" lon="9.26301285624504">
<ele>144.4</ele>
<time>2024-05-09T11:48:03Z</time>
</trkpt>
<trkpt lat="49.7038993332535" lon="9.262907914817331">
<ele>144.2</ele>
<time>2024-05-09T11:48:04Z</time>
</trkpt>
<trkpt lat="49.70389556139707" lon="9.262803057208655">
<ele>144</ele>
<time>2024-05-09T11:48:05Z</time>
</trkpt>
<trkpt lat="49.70389170572162" lon="9.262701971456409">
<ele>144</ele>
<time>2024-05-09T11:48:06Z</time>
</trkpt>
<trkpt lat="49.70388793386519" lon="9.262604657560589">
<ele>143.8</ele>
<time>2024-05-09T11:48:07Z</time>
</trkpt>
<trkpt lat="49.70389170572162" lon="9.262508349493146">
<ele>143.6</ele>
<time>2024-05-09T11:48:08Z</time>
</trkpt>
<trkpt lat="49.70389170572162" lon="9.262416819110513">
<ele>143.4</ele>
<time>2024-05-09T11:48:09Z</time>
</trkpt>
<trkpt lat="49.70389556139707" lon="9.26232336089015">
<ele>143.2</ele>
<time>2024-05-09T11:48:10Z</time>
</trkpt>
<trkpt lat="49.70389556139707" lon="9.262234680354595">
<ele>143.2</ele>
<time>2024-05-09T11:48:11Z</time>
</trkpt>
<trkpt lat="49.70389556139707" lon="9.262149771675467">
<ele>143</ele>
<time>2024-05-09T11:48:12Z</time>
</trkpt>
<trkpt lat="49.70389556139707" lon="9.262069640681148">
<ele>143</ele>
<time>2024-05-09T11:48:13Z</time>
</trkpt>
<trkpt lat="49.70389556139707" lon="9.26200862042606">
<ele>143</ele>
<time>2024-05-09T11:48:14Z</time>
</trkpt>
<trkpt lat="49.7038993332535" lon="9.261956149712203">
<ele>142.8</ele>
<time>2024-05-09T11:48:15Z</time>
</trkpt>
<trkpt lat="49.70390318892896" lon="9.261917090043426">
<ele>142.8</ele>
<time>2024-05-09T11:48:16Z</time>
</trkpt>
<trkpt lat="49.70390318892896" lon="9.261877024546266">
<ele>142.8</ele>
<time>2024-05-09T11:48:17Z</time>
</trkpt>
<trkpt lat="49.70391081646085" lon="9.261836959049106">
<ele>142.8</ele>
<time>2024-05-09T11:48:18Z</time>
</trkpt>
<trkpt lat="49.703914588317275" lon="9.261801671236752">
<ele>142.8</ele>
<time>2024-05-09T11:48:19Z</time>
</trkpt>
<trkpt lat="49.703918443992734" lon="9.2617663834244">
<ele>142.8</ele>
<time>2024-05-09T11:48:20Z</time>
</trkpt>
<trkpt lat="49.70392221584916" lon="9.2617301736027">
<ele>142.8</ele>
<time>2024-05-09T11:48:21Z</time>
</trkpt>
<trkpt lat="49.70392984338105" lon="9.261698657646775">
<ele>142.6</ele>
<time>2024-05-09T11:48:22Z</time>
</trkpt>
<trkpt lat="49.70394132658839" lon="9.2616662196815">
<ele>142.6</ele>
<time>2024-05-09T11:48:23Z</time>
</trkpt>
<trkpt lat="49.70394132658839" lon="9.261626238003371">
<ele>142.6</ele>
<time>2024-05-09T11:48:24Z</time>
</trkpt>
<trkpt lat="49.70394132658839" lon="9.261585166677833">
<ele>142.4</ele>
<time>2024-05-09T11:48:25Z</time>
</trkpt>
<trkpt lat="49.703933699056506" lon="9.261548034846784">
<ele>142.4</ele>
<time>2024-05-09T11:48:26Z</time>
</trkpt>
<trkpt lat="49.703918443992734" lon="9.261507969349625">
<ele>142.2</ele>
<time>2024-05-09T11:48:27Z</time>
</trkpt>
<trkpt lat="49.7038993332535" lon="9.261476453393698">
<ele>142.2</ele>
<time>2024-05-09T11:48:28Z</time>
</trkpt>
<trkpt lat="49.703876450657845" lon="9.261441165581346">
<ele>142.2</ele>
<time>2024-05-09T11:48:29Z</time>
</trkpt>
<trkpt lat="49.70386119559407" lon="9.261409733444452">
<ele>142.2</ele>
<time>2024-05-09T11:48:30Z</time>
</trkpt>
<trkpt lat="49.703838312998414" lon="9.261369667947292">
<ele>142</ele>
<time>2024-05-09T11:48:31Z</time>
</trkpt>
<trkpt lat="49.7038115747273" lon="9.261321974918246">
<ele>142</ele>
<time>2024-05-09T11:48:32Z</time>
</trkpt>
<trkpt lat="49.70378492027521" lon="9.26127813756466">
<ele>142</ele>
<time>2024-05-09T11:48:33Z</time>
</trkpt>
<trkpt lat="49.70376966521144" lon="9.261231366544962">
<ele>141.8</ele>
<time>2024-05-09T11:48:34Z</time>
</trkpt>
<trkpt lat="49.70375055447221" lon="9.261186523362994">
<ele>141.6</ele>
<time>2024-05-09T11:48:35Z</time>
</trkpt>
<trkpt lat="49.70373152755201" lon="9.261139836162329">
<ele>141.4</ele>
<time>2024-05-09T11:48:36Z</time>
</trkpt>
<trkpt lat="49.70370864495635" lon="9.26109499298036">
<ele>141.2</ele>
<time>2024-05-09T11:48:37Z</time>
</trkpt>
<trkpt lat="49.70368190668523" lon="9.2610549274832">
<ele>141</ele>
<time>2024-05-09T11:48:38Z</time>
</trkpt>
<trkpt lat="49.703662795946" lon="9.261010168120263">
<ele>141</ele>
<time>2024-05-09T11:48:39Z</time>
</trkpt>
<trkpt lat="49.7036437690258" lon="9.26095861941576">
<ele>140.8</ele>
<time>2024-05-09T11:48:40Z</time>
</trkpt>
<trkpt lat="49.70363228581846" lon="9.260910004377363">
<ele>140.6</ele>
<time>2024-05-09T11:48:41Z</time>
</trkpt>
<trkpt lat="49.70362465828657" lon="9.260856611654162">
<ele>140.4</ele>
<time>2024-05-09T11:48:42Z</time>
</trkpt>
<trkpt lat="49.7036094032228" lon="9.260809840634463">
<ele>140.2</ele>
<time>2024-05-09T11:48:43Z</time>
</trkpt>
<trkpt lat="49.703598003834486" lon="9.260767931118608">
<ele>140</ele>
<time>2024-05-09T11:48:44Z</time>
</trkpt>
<trkpt lat="49.703582748770714" lon="9.260736415162684">
<ele>140</ele>
<time>2024-05-09T11:48:45Z</time>
</trkpt>
<trkpt lat="49.703559866175056" lon="9.260707832872868">
<ele>140</ele>
<time>2024-05-09T11:48:46Z</time>
</trkpt>
<trkpt lat="49.703540755435824" lon="9.260678244754672">
<ele>140</ele>
<time>2024-05-09T11:48:47Z</time>
</trkpt>
<trkpt lat="49.70351401716471" lon="9.26064488478005">
<ele>139.8</ele>
<time>2024-05-09T11:48:48Z</time>
</trkpt>
<trkpt lat="49.70349113456905" lon="9.260616302490234">
<ele>139.6</ele>
<time>2024-05-09T11:48:49Z</time>
</trkpt>
<trkpt lat="49.70346448011696" lon="9.260595263913274">
<ele>139.4</ele>
<time>2024-05-09T11:48:50Z</time>
</trkpt>
<trkpt lat="49.703441597521305" lon="9.260573387145996">
<ele>139.6</ele>
<time>2024-05-09T11:48:51Z</time>
</trkpt>
<trkpt lat="49.70341871492565" lon="9.26054472103715">
<ele>139.4</ele>
<time>2024-05-09T11:48:52Z</time>
</trkpt>
<trkpt lat="49.70339583232999" lon="9.260513288900256">
<ele>139.4</ele>
<time>2024-05-09T11:48:53Z</time>
</trkpt>
<trkpt lat="49.70336532220245" lon="9.260497028008103">
<ele>139.4</ele>
<time>2024-05-09T11:48:54Z</time>
</trkpt>
<trkpt lat="49.70332710072398" lon="9.260481772944331">
<ele>139.4</ele>
<time>2024-05-09T11:48:55Z</time>
</trkpt>
<trkpt lat="49.70329281874001" lon="9.260457968339324">
<ele>139.4</ele>
<time>2024-05-09T11:48:56Z</time>
</trkpt>
<trkpt lat="49.70326993614435" lon="9.260428380221128">
<ele>139.4</ele>
<time>2024-05-09T11:48:57Z</time>
</trkpt>
<trkpt lat="49.703247053548694" lon="9.260399797931314">
<ele>139.4</ele>
<time>2024-05-09T11:48:58Z</time>
</trkpt>
<trkpt lat="49.70321654342115" lon="9.260356882587075">
<ele>139.2</ele>
<time>2024-05-09T11:48:59Z</time>
</trkpt>
<trkpt lat="49.70318980515003" lon="9.260330144315958">
<ele>139.4</ele>
<time>2024-05-09T11:49:00Z</time>
</trkpt>
<trkpt lat="49.7031706944108" lon="9.260298712179065">
<ele>139.4</ele>
<time>2024-05-09T11:49:01Z</time>
</trkpt>
<trkpt lat="49.7031516674906" lon="9.26026820205152">
<ele>139.2</ele>
<time>2024-05-09T11:49:02Z</time>
</trkpt>
<trkpt lat="49.70312115736306" lon="9.260246241465213">
<ele>139.2</ele>
<time>2024-05-09T11:49:03Z</time>
</trkpt>
<trkpt lat="49.703086791560054" lon="9.260219503194094">
<ele>139.2</ele>
<time>2024-05-09T11:49:04Z</time>
</trkpt>
<trkpt lat="49.70305250957608" lon="9.260191842913628">
<ele>139</ele>
<time>2024-05-09T11:49:05Z</time>
</trkpt>
<trkpt lat="49.70302199944854" lon="9.260173738002775">
<ele>138.8</ele>
<time>2024-05-09T11:49:06Z</time>
</trkpt>
<trkpt lat="49.70299903303385" lon="9.260154711082578">
<ele>138.8</ele>
<time>2024-05-09T11:49:07Z</time>
</trkpt>
<trkpt lat="49.70297237858176" lon="9.260133672505615">
<ele>138.6</ele>
<time>2024-05-09T11:49:08Z</time>
</trkpt>
<trkpt lat="49.70294186845422" lon="9.260107018053532">
<ele>138.6</ele>
<time>2024-05-09T11:49:09Z</time>
</trkpt>
<trkpt lat="49.70292275771499" lon="9.260074580088258">
<ele>138.6</ele>
<time>2024-05-09T11:49:10Z</time>
</trkpt>
<trkpt lat="49.70291135832667" lon="9.260046919807792">
<ele>138.6</ele>
<time>2024-05-09T11:49:11Z</time>
</trkpt>
<trkpt lat="49.70288462005555" lon="9.260013559833167">
<ele>138.6</ele>
<time>2024-05-09T11:49:12Z</time>
</trkpt>
<trkpt lat="49.7028617374599" lon="9.259983049705625">
<ele>138.6</ele>
<time>2024-05-09T11:49:13Z</time>
</trkpt>
<trkpt lat="49.70283885486424" lon="9.25994960591197">
<ele>138.4</ele>
<time>2024-05-09T11:49:14Z</time>
</trkpt>
<trkpt lat="49.70281974412501" lon="9.259916245937347">
<ele>138.4</ele>
<time>2024-05-09T11:49:15Z</time>
</trkpt>
<trkpt lat="49.70280448906123" lon="9.259889591485262">
<ele>138.4</ele>
<time>2024-05-09T11:49:16Z</time>
</trkpt>
<trkpt lat="49.70278160646558" lon="9.259860003367066">
<ele>138.4</ele>
<time>2024-05-09T11:49:17Z</time>
</trkpt>
<trkpt lat="49.70275872386992" lon="9.259822787716985">
<ele>138.2</ele>
<time>2024-05-09T11:49:18Z</time>
</trkpt>
<trkpt lat="49.702732069417834" lon="9.259786577895284">
<ele>138</ele>
<time>2024-05-09T11:49:19Z</time>
</trkpt>
<trkpt lat="49.70270533114672" lon="9.259750284254553">
<ele>137.8</ele>
<time>2024-05-09T11:49:20Z</time>
</trkpt>
<trkpt lat="49.70267867669463" lon="9.2597131524235">
<ele>137.6</ele>
<time>2024-05-09T11:49:21Z</time>
</trkpt>
<trkpt lat="49.70265571027994" lon="9.259671159088612">
<ele>137.6</ele>
<time>2024-05-09T11:49:22Z</time>
</trkpt>
<trkpt lat="49.70263282768428" lon="9.259632099419832">
<ele>137.6</ele>
<time>2024-05-09T11:49:23Z</time>
</trkpt>
<trkpt lat="49.70261380076408" lon="9.259598655626178">
<ele>137.6</ele>
<time>2024-05-09T11:49:24Z</time>
</trkpt>
<trkpt lat="49.70259854570031" lon="9.25955867394805">
<ele>137.6</ele>
<time>2024-05-09T11:49:25Z</time>
</trkpt>
<trkpt lat="49.70259469002485" lon="9.259519530460238">
<ele>137.6</ele>
<time>2024-05-09T11:49:26Z</time>
</trkpt>
<trkpt lat="49.70256803557277" lon="9.25949664786458">
<ele>137.6</ele>
<time>2024-05-09T11:49:27Z</time>
</trkpt>
<trkpt lat="49.70254129730165" lon="9.259473765268922">
<ele>137.6</ele>
<time>2024-05-09T11:49:28Z</time>
</trkpt>
<trkpt lat="49.70251841470599" lon="9.259447026997805">
<ele>137.6</ele>
<time>2024-05-09T11:49:29Z</time>
</trkpt>
<trkpt lat="49.702491760253906" lon="9.25942037254572">
<ele>137.6</ele>
<time>2024-05-09T11:49:30Z</time>
</trkpt>
<trkpt lat="49.702468793839216" lon="9.25940033979714">
<ele>137.8</ele>
<time>2024-05-09T11:49:31Z</time>
</trkpt>
<trkpt lat="49.70242688432336" lon="9.259367901831864">
<ele>137.8</ele>
<time>2024-05-09T11:49:32Z</time>
</trkpt>
<trkpt lat="49.702396374195814" lon="9.259334541857244">
<ele>138</ele>
<time>2024-05-09T11:49:33Z</time>
</trkpt>
<trkpt lat="49.7023696359247" lon="9.259304953739049">
<ele>138</ele>
<time>2024-05-09T11:49:34Z</time>
</trkpt>
<trkpt lat="49.70234298147261" lon="9.259276371449232">
<ele>138.2</ele>
<time>2024-05-09T11:49:35Z</time>
</trkpt>
<trkpt lat="49.702316243201494" lon="9.259251561015844">
<ele>138.2</ele>
<time>2024-05-09T11:49:36Z</time>
</trkpt>
<trkpt lat="49.70229713246226" lon="9.25922004505992">
<ele>138.4</ele>
<time>2024-05-09T11:49:37Z</time>
</trkpt>
<trkpt lat="49.702274249866605" lon="9.259184757247567">
<ele>138.4</ele>
<time>2024-05-09T11:49:38Z</time>
</trkpt>
<trkpt lat="49.702255222946405" lon="9.259153325110674">
<ele>138.6</ele>
<time>2024-05-09T11:49:39Z</time>
</trkpt>
<trkpt lat="49.70223996788263" lon="9.25912189297378">
<ele>138.8</ele>
<time>2024-05-09T11:49:40Z</time>
</trkpt>
<trkpt lat="49.70221322961152" lon="9.259086605161428">
<ele>139</ele>
<time>2024-05-09T11:49:41Z</time>
</trkpt>
<trkpt lat="49.70219034701586" lon="9.259057017043231">
<ele>139.2</ele>
<time>2024-05-09T11:49:42Z</time>
</trkpt>
<trkpt lat="49.7021674644202" lon="9.25902172923088">
<ele>139.2</ele>
<time>2024-05-09T11:49:43Z</time>
</trkpt>
<trkpt lat="49.70214072614908" lon="9.258986441418529">
<ele>139</ele>
<time>2024-05-09T11:49:44Z</time>
</trkpt>
<trkpt lat="49.70212169922888" lon="9.25894159823656">
<ele>138.8</ele>
<time>2024-05-09T11:49:45Z</time>
</trkpt>
<trkpt lat="49.702098816633224" lon="9.2589015327394">
<ele>138.6</ele>
<time>2024-05-09T11:49:46Z</time>
</trkpt>
<trkpt lat="49.70207970589399" lon="9.258858617395164">
<ele>138.4</ele>
<time>2024-05-09T11:49:47Z</time>
</trkpt>
<trkpt lat="49.702056823298335" lon="9.258816707879305">
<ele>138.2</ele>
<time>2024-05-09T11:49:48Z</time>
</trkpt>
<trkpt lat="49.70204156823456" lon="9.258776642382143">
<ele>138</ele>
<time>2024-05-09T11:49:49Z</time>
</trkpt>
<trkpt lat="49.70202254131436" lon="9.258741354569793">
<ele>137.8</ele>
<time>2024-05-09T11:49:50Z</time>
</trkpt>
<trkpt lat="49.70200343057513" lon="9.258709838613868">
<ele>137.6</ele>
<time>2024-05-09T11:49:51Z</time>
</trkpt>
<trkpt lat="49.70198440365493" lon="9.258676478639243">
<ele>137.6</ele>
<time>2024-05-09T11:49:52Z</time>
</trkpt>
<trkpt lat="49.70196143724024" lon="9.258640268817544">
<ele>137.6</ele>
<time>2024-05-09T11:49:53Z</time>
</trkpt>
<trkpt lat="49.70194241032005" lon="9.25860783085227">
<ele>137.6</ele>
<time>2024-05-09T11:49:54Z</time>
</trkpt>
<trkpt lat="49.70192329958081" lon="9.258578242734076">
<ele>137.8</ele>
<time>2024-05-09T11:49:55Z</time>
</trkpt>
<trkpt lat="49.70190804451704" lon="9.258536333218215">
<ele>138</ele>
<time>2024-05-09T11:49:56Z</time>
</trkpt>
<trkpt lat="49.70189278945327" lon="9.25849341787398">
<ele>138.4</ele>
<time>2024-05-09T11:49:57Z</time>
</trkpt>
<trkpt lat="49.70187376253307" lon="9.258459974080324">
<ele>138.4</ele>
<time>2024-05-09T11:49:58Z</time>
</trkpt>
<trkpt lat="49.7018585074693" lon="9.258428541943433">
<ele>138.6</ele>
<time>2024-05-09T11:49:59Z</time>
</trkpt>
<trkpt lat="49.701839396730065" lon="9.258397025987506">
<ele>138.6</ele>
<time>2024-05-09T11:50:00Z</time>
</trkpt>
<trkpt lat="49.70182414166629" lon="9.258357966318728">
<ele>138.6</ele>
<time>2024-05-09T11:50:01Z</time>
</trkpt>
<trkpt lat="49.701805114746094" lon="9.258328378200533">
<ele>138.6</ele>
<time>2024-05-09T11:50:02Z</time>
</trkpt>
<trkpt lat="49.70178977586329" lon="9.258299795910716">
<ele>138.6</ele>
<time>2024-05-09T11:50:03Z</time>
</trkpt>
<trkpt lat="49.70177452079952" lon="9.258279763162136">
<ele>138.8</ele>
<time>2024-05-09T11:50:04Z</time>
</trkpt>
<trkpt lat="49.70175549387932" lon="9.258259730413556">
<ele>138.8</ele>
<time>2024-05-09T11:50:05Z</time>
</trkpt>
<trkpt lat="49.701740238815546" lon="9.258241625502706">
<ele>138.6</ele>
<time>2024-05-09T11:50:06Z</time>
</trkpt>
<trkpt lat="49.7017287556082" lon="9.258225364610553">
<ele>138.6</ele>
<time>2024-05-09T11:50:07Z</time>
</trkpt>
<trkpt lat="49.70171350054443" lon="9.258206337690352">
<ele>138.6</ele>
<time>2024-05-09T11:50:08Z</time>
</trkpt>
<trkpt lat="49.70169824548066" lon="9.25819200463593">
<ele>138.4</ele>
<time>2024-05-09T11:50:09Z</time>
</trkpt>
<trkpt lat="49.70167921856046" lon="9.25817297771573">
<ele>138.4</ele>
<time>2024-05-09T11:50:10Z</time>
</trkpt>
<trkpt lat="49.701644852757454" lon="9.258168200030925">
<ele>138.4</ele>
<time>2024-05-09T11:50:11Z</time>
</trkpt>
<trkpt lat="49.70161811448634" lon="9.258154788985848">
<ele>138.4</ele>
<time>2024-05-09T11:50:12Z</time>
</trkpt>
<trkpt lat="49.70158760435879" lon="9.258145317435265">
<ele>138.2</ele>
<time>2024-05-09T11:50:13Z</time>
</trkpt>
<trkpt lat="49.70157234929502" lon="9.258126206696032">
<ele>138</ele>
<time>2024-05-09T11:50:14Z</time>
</trkpt>
<trkpt lat="49.70155332237482" lon="9.258110029622912">
<ele>138</ele>
<time>2024-05-09T11:50:15Z</time>
</trkpt>
<trkpt lat="49.70153421163559" lon="9.258091924712062">
<ele>137.8</ele>
<time>2024-05-09T11:50:16Z</time>
</trkpt>
<trkpt lat="49.70151895657182" lon="9.25807373598218">
<ele>137.8</ele>
<time>2024-05-09T11:50:17Z</time>
</trkpt>
<trkpt lat="49.701507557183504" lon="9.25805663689971">
<ele>137.6</ele>
<time>2024-05-09T11:50:18Z</time>
</trkpt>
<trkpt lat="49.70149607397616" lon="9.25803660415113">
<ele>137.6</ele>
<time>2024-05-09T11:50:19Z</time>
</trkpt>
<trkpt lat="49.70148844644427" lon="9.258021349087358">
<ele>137.6</ele>
<time>2024-05-09T11:50:20Z</time>
</trkpt>
<trkpt lat="49.7014731913805" lon="9.258005088195205">
<ele>137.6</ele>
<time>2024-05-09T11:50:21Z</time>
</trkpt>
<trkpt lat="49.70146179199219" lon="9.257983127608895">
<ele>137.6</ele>
<time>2024-05-09T11:50:22Z</time>
</trkpt>
<trkpt lat="49.701446453109384" lon="9.25795647315681">
<ele>137.4</ele>
<time>2024-05-09T11:50:23Z</time>
</trkpt>
<trkpt lat="49.70143505372107" lon="9.257929734885693">
<ele>137.4</ele>
<time>2024-05-09T11:50:24Z</time>
</trkpt>
<trkpt lat="49.7014197986573" lon="9.257907858118417">
<ele>137.4</ele>
<time>2024-05-09T11:50:25Z</time>
</trkpt>
<trkpt lat="49.701404543593526" lon="9.257884975522757">
<ele>137.6</ele>
<time>2024-05-09T11:50:26Z</time>
</trkpt>
<trkpt lat="49.70139306038618" lon="9.25785823725164">
<ele>137.6</ele>
<time>2024-05-09T11:50:27Z</time>
</trkpt>
<trkpt lat="49.70138166099787" lon="9.257831498980522">
<ele>137.6</ele>
<time>2024-05-09T11:50:28Z</time>
</trkpt>
<trkpt lat="49.70137017779052" lon="9.257801994681358">
<ele>137.6</ele>
<time>2024-05-09T11:50:29Z</time>
</trkpt>
<trkpt lat="49.70135492272675" lon="9.257768550887704">
<ele>137.6</ele>
<time>2024-05-09T11:50:30Z</time>
</trkpt>
<trkpt lat="49.70133966766298" lon="9.25773519091308">
<ele>137.6</ele>
<time>2024-05-09T11:50:31Z</time>
</trkpt>
<trkpt lat="49.701324412599206" lon="9.257701830938458">
<ele>137.8</ele>
<time>2024-05-09T11:50:32Z</time>
</trkpt>
<trkpt lat="49.701309157535434" lon="9.257671320810914">
<ele>137.6</ele>
<time>2024-05-09T11:50:33Z</time>
</trkpt>
<trkpt lat="49.70130153000355" lon="9.257644582539797">
<ele>137.6</ele>
<time>2024-05-09T11:50:34Z</time>
</trkpt>
<trkpt lat="49.701290130615234" lon="9.25761985592544">
<ele>137.4</ele>
<time>2024-05-09T11:50:35Z</time>
</trkpt>
<trkpt lat="49.70127479173243" lon="9.257595045492051">
<ele>137.4</ele>
<time>2024-05-09T11:50:36Z</time>
</trkpt>
<trkpt lat="49.70126339234412" lon="9.257571157068014">
<ele>137.6</ele>
<time>2024-05-09T11:50:37Z</time>
</trkpt>
<trkpt lat="49.701248137280345" lon="9.257545424625278">
<ele>137.8</ele>
<time>2024-05-09T11:50:38Z</time>
</trkpt>
<trkpt lat="49.701236654073" lon="9.25751868635416">
<ele>137.8</ele>
<time>2024-05-09T11:50:39Z</time>
</trkpt>
<trkpt lat="49.70122139900923" lon="9.257496809586884">
<ele>137.8</ele>
<time>2024-05-09T11:50:40Z</time>
</trkpt>
<trkpt lat="49.701206143945456" lon="9.257471999153497">
<ele>137.8</ele>
<time>2024-05-09T11:50:41Z</time>
</trkpt>
<trkpt lat="49.7011832613498" lon="9.257451966404917">
<ele>137.8</ele>
<time>2024-05-09T11:50:42Z</time>
</trkpt>
<trkpt lat="49.70117186196149" lon="9.257428161799908">
<ele>137.8</ele>
<time>2024-05-09T11:50:43Z</time>
</trkpt>
<trkpt lat="49.70116037875414" lon="9.257408129051328">
<ele>137.8</ele>
<time>2024-05-09T11:50:44Z</time>
</trkpt>
<trkpt lat="49.701148979365826" lon="9.257389940321444">
<ele>137.6</ele>
<time>2024-05-09T11:50:45Z</time>
</trkpt>
<trkpt lat="49.70113372430205" lon="9.257376613095404">
<ele>137.6</ele>
<time>2024-05-09T11:50:46Z</time>
</trkpt>
<trkpt lat="49.70111846923828" lon="9.257366135716438">
<ele>137.6</ele>
<time>2024-05-09T11:50:47Z</time>
</trkpt>
<trkpt lat="49.70110313035548" lon="9.257351802662017">
<ele>137.6</ele>
<time>2024-05-09T11:50:48Z</time>
</trkpt>
<trkpt lat="49.701087875291705" lon="9.257334703579543">
<ele>137.8</ele>
<time>2024-05-09T11:50:49Z</time>
</trkpt>
<trkpt lat="49.701068848371506" lon="9.257316514849665">
<ele>137.8</ele>
<time>2024-05-09T11:50:50Z</time>
</trkpt>
<trkpt lat="49.70105736516416" lon="9.257291788235309">
<ele>137.8</ele>
<time>2024-05-09T11:50:51Z</time>
</trkpt>
<trkpt lat="49.70104596577585" lon="9.257260272279382">
<ele>138</ele>
<time>2024-05-09T11:50:52Z</time>
</trkpt>
<trkpt lat="49.70103833824396" lon="9.25722691230476">
<ele>137.8</ele>
<time>2024-05-09T11:50:53Z</time>
</trkpt>
<trkpt lat="49.701026855036616" lon="9.257198330014944">
<ele>137.8</ele>
<time>2024-05-09T11:50:54Z</time>
</trkpt>
<trkpt lat="49.70101922750473" lon="9.257163042202592">
<ele>137.8</ele>
<time>2024-05-09T11:50:55Z</time>
</trkpt>
<trkpt lat="49.70100397244096" lon="9.257135381922126">
<ele>137.8</ele>
<time>2024-05-09T11:50:56Z</time>
</trkpt>
<trkpt lat="49.700988717377186" lon="9.257102943956852">
<ele>137.8</ele>
<time>2024-05-09T11:50:57Z</time>
</trkpt>
<trkpt lat="49.7009810898453" lon="9.257071428000929">
<ele>137.8</ele>
<time>2024-05-09T11:50:58Z</time>
</trkpt>
<trkpt lat="49.700969690456986" lon="9.257048545405269">
<ele>137.6</ele>
<time>2024-05-09T11:50:59Z</time>
</trkpt>
<trkpt lat="49.70095820724964" lon="9.257030440494418">
<ele>137.4</ele>
<time>2024-05-09T11:51:00Z</time>
</trkpt>
<trkpt lat="49.70093909651041" lon="9.257006635889413">
<ele>137.4</ele>
<time>2024-05-09T11:51:01Z</time>
</trkpt>
<trkpt lat="49.70093146897853" lon="9.256979897618294">
<ele>137.6</ele>
<time>2024-05-09T11:51:02Z</time>
</trkpt>
<trkpt lat="49.70092384144664" lon="9.256955087184906">
<ele>137.8</ele>
<time>2024-05-09T11:51:03Z</time>
</trkpt>
<trkpt lat="49.700908586382866" lon="9.256939832121134">
<ele>138</ele>
<time>2024-05-09T11:51:04Z</time>
</trkpt>
<trkpt lat="49.70088955946267" lon="9.256930276751518">
<ele>138.2</ele>
<time>2024-05-09T11:51:05Z</time>
</trkpt>
<trkpt lat="49.700874304398894" lon="9.25691124983132">
<ele>138.4</ele>
<time>2024-05-09T11:51:06Z</time>
</trkpt>
<trkpt lat="49.70086282119155" lon="9.256881661713123">
<ele>138.6</ele>
<time>2024-05-09T11:51:07Z</time>
</trkpt>
<trkpt lat="49.70085142180323" lon="9.25685115158558">
<ele>138.6</ele>
<time>2024-05-09T11:51:08Z</time>
</trkpt>
<trkpt lat="49.700832311064005" lon="9.25682826898992">
<ele>138.8</ele>
<time>2024-05-09T11:51:09Z</time>
</trkpt>
<trkpt lat="49.70081705600023" lon="9.256803458556533">
<ele>139</ele>
<time>2024-05-09T11:51:10Z</time>
</trkpt>
<trkpt lat="49.70080180093646" lon="9.256779653951526">
<ele>139.4</ele>
<time>2024-05-09T11:51:11Z</time>
</trkpt>
<trkpt lat="49.70078277401626" lon="9.256756771355867">
<ele>139.6</ele>
<time>2024-05-09T11:51:12Z</time>
</trkpt>
<trkpt lat="49.70076743513346" lon="9.25672810524702">
<ele>139.6</ele>
<time>2024-05-09T11:51:13Z</time>
</trkpt>
<trkpt lat="49.700752180069685" lon="9.256703294813631">
<ele>139.6</ele>
<time>2024-05-09T11:51:14Z</time>
</trkpt>
<trkpt lat="49.700733153149486" lon="9.256676640361547">
<ele>139.4</ele>
<time>2024-05-09T11:51:15Z</time>
</trkpt>
<trkpt lat="49.700714042410254" lon="9.25665182992816">
<ele>139.2</ele>
<time>2024-05-09T11:51:16Z</time>
</trkpt>
<trkpt lat="49.700695015490055" lon="9.256627019494772">
<ele>139.2</ele>
<time>2024-05-09T11:51:17Z</time>
</trkpt>
<trkpt lat="49.70068353228271" lon="9.256601287052035">
<ele>139</ele>
<time>2024-05-09T11:51:18Z</time>
</trkpt>
<trkpt lat="49.7006721328944" lon="9.256569854915142">
<ele>139</ele>
<time>2024-05-09T11:51:19Z</time>
</trkpt>
<trkpt lat="49.700656877830625" lon="9.256545044481754">
<ele>138.8</ele>
<time>2024-05-09T11:51:20Z</time>
</trkpt>
<trkpt lat="49.700633995234966" lon="9.256525011733174">
<ele>138.6</ele>
<time>2024-05-09T11:51:21Z</time>
</trkpt>
<trkpt lat="49.700618740171194" lon="9.25649450160563">
<ele>138.6</ele>
<time>2024-05-09T11:51:22Z</time>
</trkpt>
<trkpt lat="49.70060348510742" lon="9.25647346302867">
<ele>138.6</ele>
<time>2024-05-09T11:51:23Z</time>
</trkpt>
<trkpt lat="49.70059200190008" lon="9.256444880738854">
<ele>138.6</ele>
<time>2024-05-09T11:51:24Z</time>
</trkpt>
<trkpt lat="49.70058437436819" lon="9.25641629844904">
<ele>138.4</ele>
<time>2024-05-09T11:51:25Z</time>
</trkpt>
<trkpt lat="49.700576746836305" lon="9.256388638168572">
<ele>138.6</ele>
<time>2024-05-09T11:51:26Z</time>
</trkpt>
<trkpt lat="49.70056526362896" lon="9.256361899897456">
<ele>138.6</ele>
<time>2024-05-09T11:51:27Z</time>
</trkpt>
<trkpt lat="49.70055000856519" lon="9.256344716995956">
<ele>138.6</ele>
<time>2024-05-09T11:51:28Z</time>
</trkpt>
<trkpt lat="49.70053098164499" lon="9.256324768066406">
<ele>138.6</ele>
<time>2024-05-09T11:51:29Z</time>
</trkpt>
<trkpt lat="49.700515726581216" lon="9.25629710778594">
<ele>138.6</ele>
<time>2024-05-09T11:51:30Z</time>
</trkpt>
<trkpt lat="49.700496615841985" lon="9.256270369514825">
<ele>138.6</ele>
<time>2024-05-09T11:51:31Z</time>
</trkpt>
<trkpt lat="49.700477588921785" lon="9.256244637072086">
<ele>138.8</ele>
<time>2024-05-09T11:51:32Z</time>
</trkpt>
<trkpt lat="49.700458478182554" lon="9.25621697679162">
<ele>138.6</ele>
<time>2024-05-09T11:51:33Z</time>
</trkpt>
<trkpt lat="49.700439451262355" lon="9.256190238520505">
<ele>138.4</ele>
<time>2024-05-09T11:51:34Z</time>
</trkpt>
<trkpt lat="49.70042796805501" lon="9.25615495070815">
<ele>138.4</ele>
<time>2024-05-09T11:51:35Z</time>
</trkpt>
<trkpt lat="49.70041271299124" lon="9.256125446408989">
<ele>138.6</ele>
<time>2024-05-09T11:51:36Z</time>
</trkpt>
<trkpt lat="49.70038983039558" lon="9.25609963014722">
<ele>138.8</ele>
<time>2024-05-09T11:51:37Z</time>
</trkpt>
<trkpt lat="49.70037457533181" lon="9.256074903532864">
<ele>138.8</ele>
<time>2024-05-09T11:51:38Z</time>
</trkpt>
<trkpt lat="49.70034783706069" lon="9.25605671480298">
<ele>138.8</ele>
<time>2024-05-09T11:51:39Z</time>
</trkpt>
<trkpt lat="49.70033643767238" lon="9.256030060350897">
<ele>138.8</ele>
<time>2024-05-09T11:51:40Z</time>
</trkpt>
<trkpt lat="49.700317326933146" lon="9.256006171926856">
<ele>139</ele>
<time>2024-05-09T11:51:41Z</time>
</trkpt>
<trkpt lat="49.70030207186937" lon="9.255991922691464">
<ele>139</ele>
<time>2024-05-09T11:51:42Z</time>
</trkpt>
<trkpt lat="49.7002868168056" lon="9.255976667627692">
<ele>139</ele>
<time>2024-05-09T11:51:43Z</time>
</trkpt>
<trkpt lat="49.70027156174183" lon="9.25595847889781">
<ele>139</ele>
<time>2024-05-09T11:51:44Z</time>
</trkpt>
<trkpt lat="49.70025630667806" lon="9.255934674292805">
<ele>139</ele>
<time>2024-05-09T11:51:45Z</time>
</trkpt>
<trkpt lat="49.700237195938826" lon="9.255909863859417">
<ele>139</ele>
<time>2024-05-09T11:51:46Z</time>
</trkpt>
<trkpt lat="49.70021431334317" lon="9.255891758948565">
<ele>138.8</ele>
<time>2024-05-09T11:51:47Z</time>
</trkpt>
<trkpt lat="49.700199058279395" lon="9.255865020677447">
<ele>138.8</ele>
<time>2024-05-09T11:51:48Z</time>
</trkpt>
<trkpt lat="49.70018380321562" lon="9.25584121607244">
<ele>138.6</ele>
<time>2024-05-09T11:51:49Z</time>
</trkpt>
<trkpt lat="49.70016477629542" lon="9.255813555791974">
<ele>138.6</ele>
<time>2024-05-09T11:51:50Z</time>
</trkpt>
<trkpt lat="49.70014952123165" lon="9.255776340141892">
<ele>138.6</ele>
<time>2024-05-09T11:51:51Z</time>
</trkpt>
<trkpt lat="49.70012663863599" lon="9.255756307393312">
<ele>138.6</ele>
<time>2024-05-09T11:51:52Z</time>
</trkpt>
<trkpt lat="49.70011138357222" lon="9.255733424797654">
<ele>138.6</ele>
<time>2024-05-09T11:51:53Z</time>
</trkpt>
<trkpt lat="49.70009990036488" lon="9.255708614364266">
<ele>138.6</ele>
<time>2024-05-09T11:51:54Z</time>
</trkpt>
<trkpt lat="49.70008850097656" lon="9.255686737596989">
<ele>138.4</ele>
<time>2024-05-09T11:51:55Z</time>
</trkpt>
<trkpt lat="49.70007701776922" lon="9.255673326551914">
<ele>138.4</ele>
<time>2024-05-09T11:51:56Z</time>
</trkpt>
<trkpt lat="49.70006939023733" lon="9.255653377622366">
<ele>138.2</ele>
<time>2024-05-09T11:51:57Z</time>
</trkpt>
<trkpt lat="49.70006553456187" lon="9.25562471151352">
<ele>138</ele>
<time>2024-05-09T11:51:58Z</time>
</trkpt>
<trkpt lat="49.7000502794981" lon="9.255613312125206">
<ele>137.8</ele>
<time>2024-05-09T11:51:59Z</time>
</trkpt>
<trkpt lat="49.70003502443433" lon="9.255598057061434">
<ele>137.8</ele>
<time>2024-05-09T11:52:00Z</time>
</trkpt>
<trkpt lat="49.70001976937056" lon="9.255578024312854">
<ele>137.6</ele>
<time>2024-05-09T11:52:01Z</time>
</trkpt>
<trkpt lat="49.700004514306784" lon="9.255553213879466">
<ele>137.6</ele>
<time>2024-05-09T11:52:02Z</time>
</trkpt>
<trkpt lat="49.69999311491847" lon="9.255528403446078">
<ele>137.4</ele>
<time>2024-05-09T11:52:03Z</time>
</trkpt>
<trkpt lat="49.69998925924301" lon="9.255497893318534">
<ele>137.2</ele>
<time>2024-05-09T11:52:04Z</time>
</trkpt>
<trkpt lat="49.6999778598547" lon="9.255471155047417">
<ele>137.2</ele>
<time>2024-05-09T11:52:05Z</time>
</trkpt>
<trkpt lat="49.69996637664735" lon="9.255448272451758">
<ele>137</ele>
<time>2024-05-09T11:52:06Z</time>
</trkpt>
<trkpt lat="49.69995112158358" lon="9.25542639568448">
<ele>136.8</ele>
<time>2024-05-09T11:52:07Z</time>
</trkpt>
<trkpt lat="49.699947349727154" lon="9.255390102043748">
<ele>136.8</ele>
<time>2024-05-09T11:52:08Z</time>
</trkpt>
<trkpt lat="49.69993586651981" lon="9.25536529161036">
<ele>136.6</ele>
<time>2024-05-09T11:52:09Z</time>
</trkpt>
<trkpt lat="49.699924467131495" lon="9.255331931635736">
<ele>136.4</ele>
<time>2024-05-09T11:52:10Z</time>
</trkpt>
<trkpt lat="49.69990912824869" lon="9.255312904715538">
<ele>136.6</ele>
<time>2024-05-09T11:52:11Z</time>
</trkpt>
<trkpt lat="49.69989387318492" lon="9.255291866138576">
<ele>136.6</ele>
<time>2024-05-09T11:52:12Z</time>
</trkpt>
<trkpt lat="49.699882473796606" lon="9.255263283848764">
<ele>136.8</ele>
<time>2024-05-09T11:52:13Z</time>
</trkpt>
<trkpt lat="49.69987099058926" lon="9.25522992387414">
<ele>136.8</ele>
<time>2024-05-09T11:52:14Z</time>
</trkpt>
<trkpt lat="49.69985959120095" lon="9.25519178621471">
<ele>137</ele>
<time>2024-05-09T11:52:15Z</time>
</trkpt>
<trkpt lat="49.6998481079936" lon="9.255156498402355">
<ele>137</ele>
<time>2024-05-09T11:52:16Z</time>
</trkpt>
<trkpt lat="49.6998481079936" lon="9.25510972738266">
<ele>137.2</ele>
<time>2024-05-09T11:52:17Z</time>
</trkpt>
<trkpt lat="49.699844336137176" lon="9.255075445398688">
<ele>137.4</ele>
<time>2024-05-09T11:52:18Z</time>
</trkpt>
<trkpt lat="49.69983670860529" lon="9.255043007433414">
<ele>137.4</ele>
<time>2024-05-09T11:52:19Z</time>
</trkpt>
<trkpt lat="49.69982145354152" lon="9.255016269162295">
<ele>137.6</ele>
<time>2024-05-09T11:52:20Z</time>
</trkpt>
<trkpt lat="49.69981382600963" lon="9.254981987178326">
<ele>137.6</ele>
<time>2024-05-09T11:52:21Z</time>
</trkpt>
<trkpt lat="49.6997947152704" lon="9.254955248907208">
<ele>137.8</ele>
<time>2024-05-09T11:52:22Z</time>
</trkpt>
<trkpt lat="49.69978331588209" lon="9.254919961094856">
<ele>138</ele>
<time>2024-05-09T11:52:23Z</time>
</trkpt>
<trkpt lat="49.69977183267474" lon="9.254879895597696">
<ele>138.2</ele>
<time>2024-05-09T11:52:24Z</time>
</trkpt>
<trkpt lat="49.69975657761097" lon="9.254848463460805">
<ele>138.4</ele>
<time>2024-05-09T11:52:25Z</time>
</trkpt>
<trkpt lat="49.69974895007908" lon="9.254816947504878">
<ele>138.6</ele>
<time>2024-05-09T11:52:26Z</time>
</trkpt>
<trkpt lat="49.6997413225472" lon="9.254790293052793">
<ele>138.6</ele>
<time>2024-05-09T11:52:27Z</time>
</trkpt>
<trkpt lat="49.69972983933985" lon="9.254761626943946">
<ele>138.6</ele>
<time>2024-05-09T11:52:28Z</time>
</trkpt>
<trkpt lat="49.69971843995154" lon="9.254733044654133">
<ele>138.8</ele>
<time>2024-05-09T11:52:29Z</time>
</trkpt>
<trkpt lat="49.69971081241965" lon="9.254699684679508">
<ele>138.8</ele>
<time>2024-05-09T11:52:30Z</time>
</trkpt>
<trkpt lat="49.69970318488777" lon="9.254672024399042">
<ele>139</ele>
<time>2024-05-09T11:52:31Z</time>
</trkpt>
<trkpt lat="49.699684074148536" lon="9.254651991650462">
<ele>139</ele>
<time>2024-05-09T11:52:32Z</time>
</trkpt>
<trkpt lat="49.69966881908476" lon="9.25463866442442">
<ele>139</ele>
<time>2024-05-09T11:52:33Z</time>
</trkpt>
<trkpt lat="49.69965356402099" lon="9.254619553685188">
<ele>139</ele>
<time>2024-05-09T11:52:34Z</time>
</trkpt>
<trkpt lat="49.69964216463268" lon="9.254599520936608">
<ele>139</ele>
<time>2024-05-09T11:52:35Z</time>
</trkpt>
<trkpt lat="49.69963068142533" lon="9.254573788493872">
<ele>139</ele>
<time>2024-05-09T11:52:36Z</time>
</trkpt>
<trkpt lat="49.69962305389345" lon="9.254549900069833">
<ele>139</ele>
<time>2024-05-09T11:52:37Z</time>
</trkpt>
<trkpt lat="49.69961542636156" lon="9.254521317780018">
<ele>138.8</ele>
<time>2024-05-09T11:52:38Z</time>
</trkpt>
<trkpt lat="49.699611654505134" lon="9.254483180120587">
<ele>138.8</ele>
<time>2024-05-09T11:52:39Z</time>
</trkpt>
<trkpt lat="49.699611654505134" lon="9.254440264776347">
<ele>138.8</ele>
<time>2024-05-09T11:52:40Z</time>
</trkpt>
<trkpt lat="49.699607798829675" lon="9.25439827144146">
<ele>138.6</ele>
<time>2024-05-09T11:52:41Z</time>
</trkpt>
<trkpt lat="49.699611654505134" lon="9.254351584240794">
<ele>138.6</ele>
<time>2024-05-09T11:52:42Z</time>
</trkpt>
<trkpt lat="49.699607798829675" lon="9.254318224266171">
<ele>138.6</ele>
<time>2024-05-09T11:52:43Z</time>
</trkpt>
<trkpt lat="49.69960402697325" lon="9.254293413832784">
<ele>138.4</ele>
<time>2024-05-09T11:52:44Z</time>
</trkpt>
<trkpt lat="49.69960402697325" lon="9.254284780472515">
<ele>138.2</ele>
<time>2024-05-09T11:52:45Z</time>
</trkpt>
<trkpt lat="49.69960402697325" lon="9.254276230931282">
<ele>138</ele>
<time>2024-05-09T11:52:46Z</time>
</trkpt>
<trkpt lat="49.69960017129779" lon="9.254276230931282">
<ele>137.8</ele>
<time>2024-05-09T11:52:47Z</time>
</trkpt>
<trkpt lat="49.69960017129779" lon="9.25428008660674">
<ele>137.6</ele>
<time>2024-05-09T11:52:48Z</time>
</trkpt>
<trkpt lat="49.69960017129779" lon="9.254278158769011">
<ele>137.6</ele>
<time>2024-05-09T11:52:49Z</time>
</trkpt>
<trkpt lat="49.69960017129779" lon="9.25428008660674">
<ele>137.4</ele>
<time>2024-05-09T11:52:50Z</time>
</trkpt>
<trkpt lat="49.69960017129779" lon="9.25428193062544">
<ele>137.2</ele>
<time>2024-05-09T11:52:51Z</time>
</trkpt>
<trkpt lat="49.69959639944136" lon="9.25428293645382">
<ele>137.2</ele>
<time>2024-05-09T11:52:52Z</time>
</trkpt>
<trkpt lat="49.69959639944136" lon="9.254284780472515">
<ele>137</ele>
<time>2024-05-09T11:52:54Z</time>
</trkpt>
<trkpt lat="49.69959639944136" lon="9.254288636147976">
<ele>137</ele>
<time>2024-05-09T11:52:55Z</time>
</trkpt>
<trkpt lat="49.69959639944136" lon="9.254286708310246">
<ele>136.8</ele>
<time>2024-05-09T11:52:58Z</time>
</trkpt>
<trkpt lat="49.6995925437659" lon="9.254286708310246">
<ele>136.6</ele>
<time>2024-05-09T11:53:00Z</time>
</trkpt>
<trkpt lat="49.6995925437659" lon="9.254288636147976">
<ele>136.6</ele>
<time>2024-05-09T11:53:01Z</time>
</trkpt>
<trkpt lat="49.6995925437659" lon="9.254289558157325">
<ele>136.4</ele>
<time>2024-05-09T11:53:03Z</time>
</trkpt>
<trkpt lat="49.699588771909475" lon="9.254289558157325">
<ele>136.4</ele>
<time>2024-05-09T11:53:06Z</time>
</trkpt>
<trkpt lat="49.699588771909475" lon="9.254293413832784">
<ele>136.4</ele>
<time>2024-05-09T11:53:07Z</time>
</trkpt>
<trkpt lat="49.699584916234016" lon="9.254293413832784">
<ele>136.4</ele>
<time>2024-05-09T11:53:09Z</time>
</trkpt>
<trkpt lat="49.699584916234016" lon="9.254295341670511">
<ele>136.4</ele>
<time>2024-05-09T11:53:10Z</time>
</trkpt>
<trkpt lat="49.699584916234016" lon="9.254298191517591">
<ele>136.4</ele>
<time>2024-05-09T11:53:12Z</time>
</trkpt>
<trkpt lat="49.699584916234016" lon="9.25430003553629">
<ele>136.4</ele>
<time>2024-05-09T11:53:15Z</time>
</trkpt>
<trkpt lat="49.699584916234016" lon="9.25430196337402">
<ele>136.4</ele>
<time>2024-05-09T11:53:17Z</time>
</trkpt>
<trkpt lat="49.69958114437759" lon="9.25430003553629">
<ele>136.2</ele>
<time>2024-05-09T11:53:19Z</time>
</trkpt>
<trkpt lat="49.69958114437759" lon="9.25430196337402">
<ele>136.2</ele>
<time>2024-05-09T11:53:20Z</time>
</trkpt>
<trkpt lat="49.69958114437759" lon="9.25430003553629">
<ele>136.2</ele>
<time>2024-05-09T11:53:21Z</time>
</trkpt>
<trkpt lat="49.69958114437759" lon="9.25430196337402">
<ele>136.2</ele>
<time>2024-05-09T11:53:22Z</time>
</trkpt>
<trkpt lat="49.69957728870213" lon="9.25430196337402">
<ele>136</ele>
<time>2024-05-09T11:53:23Z</time>
</trkpt>
<trkpt lat="49.6995735168457" lon="9.25430196337402">
<ele>136</ele>
<time>2024-05-09T11:53:26Z</time>
</trkpt>
<trkpt lat="49.6995735168457" lon="9.2543029692024">
<ele>135.8</ele>
<time>2024-05-09T11:53:27Z</time>
</trkpt>
<trkpt lat="49.6995735168457" lon="9.25430196337402">
<ele>135.6</ele>
<time>2024-05-09T11:53:31Z</time>
</trkpt>
<trkpt lat="49.6995735168457" lon="9.2543029692024">
<ele>135.6</ele>
<time>2024-05-09T11:53:32Z</time>
</trkpt>
<trkpt lat="49.6995735168457" lon="9.25430196337402">
<ele>135.4</ele>
<time>2024-05-09T11:53:33Z</time>
</trkpt>
<trkpt lat="49.6995735168457" lon="9.2543029692024">
<ele>135.2</ele>
<time>2024-05-09T11:53:35Z</time>
</trkpt>
<trkpt lat="49.6995735168457" lon="9.254304813221095">
<ele>135.2</ele>
<time>2024-05-09T11:53:36Z</time>
</trkpt>
<trkpt lat="49.6995735168457" lon="9.2543029692024">
<ele>135</ele>
<time>2024-05-09T11:53:38Z</time>
</trkpt>
<trkpt lat="49.6995735168457" lon="9.254304813221095">
<ele>135</ele>
<time>2024-05-09T11:53:39Z</time>
</trkpt>
<trkpt lat="49.6995735168457" lon="9.254306741058826">
<ele>134.8</ele>
<time>2024-05-09T11:53:41Z</time>
</trkpt>
<trkpt lat="49.6995735168457" lon="9.2543029692024">
<ele>134.8</ele>
<time>2024-05-09T11:53:42Z</time>
</trkpt>
<trkpt lat="49.69957728870213" lon="9.254298191517591">
<ele>134.8</ele>
<time>2024-05-09T11:53:43Z</time>
</trkpt>
<trkpt lat="49.69958114437759" lon="9.254291485995054">
<ele>134.8</ele>
<time>2024-05-09T11:53:44Z</time>
</trkpt>
<trkpt lat="49.69957728870213" lon="9.254284780472515">
<ele>134.8</ele>
<time>2024-05-09T11:53:45Z</time>
</trkpt>
<trkpt lat="49.69958114437759" lon="9.254266675561666">
<ele>134.8</ele>
<time>2024-05-09T11:53:46Z</time>
</trkpt>
<trkpt lat="49.69958114437759" lon="9.254249492660165">
<ele>135</ele>
<time>2024-05-09T11:53:47Z</time>
</trkpt>
<trkpt lat="49.6995735168457" lon="9.254238093271852">
<ele>135</ele>
<time>2024-05-09T11:53:48Z</time>
</trkpt>
<trkpt lat="49.699565805494785" lon="9.254224766045809">
<ele>135.2</ele>
<time>2024-05-09T11:53:49Z</time>
</trkpt>
<trkpt lat="49.69955440610647" lon="9.254208505153656">
<ele>135.4</ele>
<time>2024-05-09T11:53:50Z</time>
</trkpt>
<trkpt lat="49.69955055043101" lon="9.254195177927611">
<ele>135.6</ele>
<time>2024-05-09T11:53:51Z</time>
</trkpt>
<trkpt lat="49.69954292289913" lon="9.25418185070157">
<ele>135.6</ele>
<time>2024-05-09T11:53:52Z</time>
</trkpt>
<trkpt lat="49.69955055043101" lon="9.25416181795299">
<ele>135.6</ele>
<time>2024-05-09T11:53:53Z</time>
</trkpt>
<trkpt lat="49.69954292289913" lon="9.254144635051489">
<ele>135.8</ele>
<time>2024-05-09T11:53:54Z</time>
</trkpt>
<trkpt lat="49.69953529536724" lon="9.254128374159336">
<ele>135.8</ele>
<time>2024-05-09T11:53:55Z</time>
</trkpt>
<trkpt lat="49.699531523510814" lon="9.254117896780372">
<ele>136</ele>
<time>2024-05-09T11:53:56Z</time>
</trkpt>
<trkpt lat="49.69952004030347" lon="9.254104569554327">
<ele>135.8</ele>
<time>2024-05-09T11:53:57Z</time>
</trkpt>
<trkpt lat="49.69951241277158" lon="9.2540836147964">
<ele>135.4</ele>
<time>2024-05-09T11:53:58Z</time>
</trkpt>
<trkpt lat="49.699508640915155" lon="9.25405972637236">
<ele>135.2</ele>
<time>2024-05-09T11:53:59Z</time>
</trkpt>
<trkpt lat="49.69951241277158" lon="9.254037849605083">
<ele>135</ele>
<time>2024-05-09T11:54:00Z</time>
</trkpt>
<trkpt lat="49.699508640915155" lon="9.25402351655066">
<ele>135.2</ele>
<time>2024-05-09T11:54:01Z</time>
</trkpt>
<trkpt lat="49.6995047852397" lon="9.254008261486888">
<ele>135.2</ele>
<time>2024-05-09T11:54:02Z</time>
</trkpt>
<trkpt lat="49.69949715770781" lon="9.253990156576036">
<ele>135.4</ele>
<time>2024-05-09T11:54:03Z</time>
</trkpt>
<trkpt lat="49.69949338585138" lon="9.253970123827456">
<ele>135.2</ele>
<time>2024-05-09T11:54:04Z</time>
</trkpt>
<trkpt lat="49.69947813078761" lon="9.253956712782385">
<ele>135.4</ele>
<time>2024-05-09T11:54:05Z</time>
</trkpt>
<trkpt lat="49.69947813078761" lon="9.253936763852836">
<ele>135.6</ele>
<time>2024-05-09T11:54:06Z</time>
</trkpt>
<trkpt lat="49.69947813078761" lon="9.253918575122952">
<ele>135.8</ele>
<time>2024-05-09T11:54:07Z</time>
</trkpt>
<trkpt lat="49.6994857583195" lon="9.253896698355677">
<ele>136.2</ele>
<time>2024-05-09T11:54:08Z</time>
</trkpt>
<trkpt lat="49.69948953017592" lon="9.253871887922289">
<ele>136.4</ele>
<time>2024-05-09T11:54:09Z</time>
</trkpt>
<trkpt lat="49.69949715770781" lon="9.2538470774889">
<ele>136.8</ele>
<time>2024-05-09T11:54:10Z</time>
</trkpt>
<trkpt lat="49.69949338585138" lon="9.25382704474032">
<ele>137</ele>
<time>2024-05-09T11:54:11Z</time>
</trkpt>
<trkpt lat="49.69949338585138" lon="9.25380508415401">
<ele>137.4</ele>
<time>2024-05-09T11:54:12Z</time>
</trkpt>
<trkpt lat="49.69948953017592" lon="9.25378505140543">
<ele>137.6</ele>
<time>2024-05-09T11:54:13Z</time>
</trkpt>
<trkpt lat="49.6994857583195" lon="9.25376795232296">
<ele>137.6</ele>
<time>2024-05-09T11:54:14Z</time>
</trkpt>
<trkpt lat="49.69948190264404" lon="9.253754541277884">
<ele>137.8</ele>
<time>2024-05-09T11:54:15Z</time>
</trkpt>
<trkpt lat="49.69948190264404" lon="9.253738364204764">
<ele>137.8</ele>
<time>2024-05-09T11:54:16Z</time>
</trkpt>
<trkpt lat="49.69947813078761" lon="9.253721181303264">
<ele>138</ele>
<time>2024-05-09T11:54:17Z</time>
</trkpt>
<trkpt lat="49.69947813078761" lon="9.253703076392412">
<ele>138</ele>
<time>2024-05-09T11:54:18Z</time>
</trkpt>
<trkpt lat="49.6994857583195" lon="9.253678265959024">
<ele>138</ele>
<time>2024-05-09T11:54:19Z</time>
</trkpt>
<trkpt lat="49.6994857583195" lon="9.253668710589409">
<ele>138</ele>
<time>2024-05-09T11:54:20Z</time>
</trkpt>
<trkpt lat="49.69948190264404" lon="9.253658233210444">
<ele>138</ele>
<time>2024-05-09T11:54:21Z</time>
</trkpt>
<trkpt lat="49.69948190264404" lon="9.253642978146672">
<ele>137.8</ele>
<time>2024-05-09T11:54:22Z</time>
</trkpt>
<trkpt lat="49.6994857583195" lon="9.253638200461864">
<ele>137.8</ele>
<time>2024-05-09T11:54:23Z</time>
</trkpt>
<trkpt lat="49.6994857583195" lon="9.25363157875836">
<ele>137.8</ele>
<time>2024-05-09T11:54:24Z</time>
</trkpt>
<trkpt lat="49.6994857583195" lon="9.25362872891128">
<ele>137.8</ele>
<time>2024-05-09T11:54:25Z</time>
</trkpt>
<trkpt lat="49.6994857583195" lon="9.253626801073551">
<ele>137.8</ele>
<time>2024-05-09T11:54:26Z</time>
</trkpt>
<trkpt lat="49.69948190264404" lon="9.253622945398092">
<ele>137.8</ele>
<time>2024-05-09T11:54:27Z</time>
</trkpt>
<trkpt lat="49.6994857583195" lon="9.253622945398092">
<ele>137.8</ele>
<time>2024-05-09T11:54:28Z</time>
</trkpt>
<trkpt lat="49.6994857583195" lon="9.253622023388743">
<ele>137.8</ele>
<time>2024-05-09T11:54:29Z</time>
</trkpt>
<trkpt lat="49.69948190264404" lon="9.253622945398092">
<ele>138</ele>
<time>2024-05-09T11:54:31Z</time>
</trkpt>
<trkpt lat="49.69948190264404" lon="9.253624873235822">
<ele>138</ele>
<time>2024-05-09T11:54:32Z</time>
</trkpt>
<trkpt lat="49.69947813078761" lon="9.253626801073551">
<ele>138.2</ele>
<time>2024-05-09T11:54:34Z</time>
</trkpt>
<trkpt lat="49.69947813078761" lon="9.253624873235822">
<ele>138.2</ele>
<time>2024-05-09T11:54:39Z</time>
</trkpt>
<trkpt lat="49.69947813078761" lon="9.253622023388743">
<ele>138.2</ele>
<time>2024-05-09T11:54:40Z</time>
</trkpt>
<trkpt lat="49.69948190264404" lon="9.253620095551014">
<ele>138.4</ele>
<time>2024-05-09T11:54:42Z</time>
</trkpt>
<trkpt lat="49.69948190264404" lon="9.253622023388743">
<ele>138.4</ele>
<time>2024-05-09T11:54:44Z</time>
</trkpt>
<trkpt lat="49.69947813078761" lon="9.253622023388743">
<ele>138.4</ele>
<time>2024-05-09T11:54:45Z</time>
</trkpt>
<trkpt lat="49.69947813078761" lon="9.253620095551014">
<ele>138.4</ele>
<time>2024-05-09T11:54:46Z</time>
</trkpt>
<trkpt lat="49.69948190264404" lon="9.253618167713284">
<ele>138.4</ele>
<time>2024-05-09T11:54:47Z</time>
</trkpt>
<trkpt lat="49.69948190264404" lon="9.253616323694589">
<ele>138.6</ele>
<time>2024-05-09T11:54:48Z</time>
</trkpt>
<trkpt lat="49.69947813078761" lon="9.253616323694589">
<ele>138.6</ele>
<time>2024-05-09T11:54:50Z</time>
</trkpt>
<trkpt lat="49.69947813078761" lon="9.253615317866206">
<ele>138.6</ele>
<time>2024-05-09T11:54:51Z</time>
</trkpt>
<trkpt lat="49.69947813078761" lon="9.253616323694589">
<ele>138.6</ele>
<time>2024-05-09T11:54:52Z</time>
</trkpt>
<trkpt lat="49.69948190264404" lon="9.253622945398092">
<ele>138.6</ele>
<time>2024-05-09T11:54:53Z</time>
</trkpt>
<trkpt lat="49.69948190264404" lon="9.253620095551014">
<ele>138.6</ele>
<time>2024-05-09T11:54:55Z</time>
</trkpt>
<trkpt lat="49.69948190264404" lon="9.253622023388743">
<ele>138.6</ele>
<time>2024-05-09T11:54:56Z</time>
</trkpt>
<trkpt lat="49.69948190264404" lon="9.253622945398092">
<ele>138.6</ele>
<time>2024-05-09T11:54:57Z</time>
</trkpt>
<trkpt lat="49.69948190264404" lon="9.253624873235822">
<ele>138.6</ele>
<time>2024-05-09T11:54:58Z</time>
</trkpt>
<trkpt lat="49.69948190264404" lon="9.253626801073551">
<ele>138.8</ele>
<time>2024-05-09T11:55:00Z</time>
</trkpt>
<trkpt lat="49.69948190264404" lon="9.25362872891128">
<ele>138.8</ele>
<time>2024-05-09T11:55:01Z</time>
</trkpt>
<trkpt lat="49.69948190264404" lon="9.253626801073551">
<ele>138.8</ele>
<time>2024-05-09T11:55:06Z</time>
</trkpt>
<trkpt lat="49.6994857583195" lon="9.253626801073551">
<ele>139</ele>
<time>2024-05-09T11:55:09Z</time>
</trkpt>
<trkpt lat="49.69948190264404" lon="9.25362872891128">
<ele>139</ele>
<time>2024-05-09T11:55:13Z</time>
</trkpt>
<trkpt lat="49.6994857583195" lon="9.25362872891128">
<ele>139</ele>
<time>2024-05-09T11:55:14Z</time>
</trkpt>
<trkpt lat="49.6994857583195" lon="9.25362965092063">
<ele>139</ele>
<time>2024-05-09T11:55:17Z</time>
</trkpt>
<trkpt lat="49.6994857583195" lon="9.25362872891128">
<ele>139</ele>
<time>2024-05-09T11:55:18Z</time>
</trkpt>
<trkpt lat="49.6994857583195" lon="9.25362965092063">
<ele>139</ele>
<time>2024-05-09T11:55:23Z</time>
</trkpt>
<trkpt lat="49.69948953017592" lon="9.25362965092063">
<ele>139</ele>
<time>2024-05-09T11:55:24Z</time>
</trkpt>
<trkpt lat="49.69948953017592" lon="9.25362872891128">
<ele>139</ele>
<time>2024-05-09T11:55:26Z</time>
</trkpt>
<trkpt lat="49.69948953017592" lon="9.25362965092063">
<ele>139</ele>
<time>2024-05-09T11:55:28Z</time>
</trkpt>
<trkpt lat="49.69948953017592" lon="9.25363157875836">
<ele>139</ele>
<time>2024-05-09T11:55:32Z</time>
</trkpt>
<trkpt lat="49.69949338585138" lon="9.25363157875836">
<ele>139</ele>
<time>2024-05-09T11:55:33Z</time>
</trkpt>
<trkpt lat="49.69948953017592" lon="9.25363157875836">
<ele>139.2</ele>
<time>2024-05-09T11:55:35Z</time>
</trkpt>
<trkpt lat="49.69948953017592" lon="9.25362965092063">
<ele>139.2</ele>
<time>2024-05-09T11:55:36Z</time>
</trkpt>
<trkpt lat="49.69949338585138" lon="9.25362965092063">
<ele>139.2</ele>
<time>2024-05-09T11:55:39Z</time>
</trkpt>
<trkpt lat="49.69949338585138" lon="9.25362872891128">
<ele>139.2</ele>
<time>2024-05-09T11:55:42Z</time>
</trkpt>
<trkpt lat="49.69948953017592" lon="9.25362872891128">
<ele>139.2</ele>
<time>2024-05-09T11:55:43Z</time>
</trkpt>
<trkpt lat="49.69948953017592" lon="9.25362965092063">
<ele>139.2</ele>
<time>2024-05-09T11:55:44Z</time>
</trkpt>
<trkpt lat="49.69949338585138" lon="9.25362872891128">
<ele>139.2</ele>
<time>2024-05-09T11:55:46Z</time>
</trkpt>
<trkpt lat="49.69949338585138" lon="9.253626801073551">
<ele>139.2</ele>
<time>2024-05-09T11:55:48Z</time>
</trkpt>
<trkpt lat="49.69948953017592" lon="9.253622023388743">
<ele>139.2</ele>
<time>2024-05-09T11:55:49Z</time>
</trkpt>
<trkpt lat="49.69948953017592" lon="9.253622945398092">
<ele>139.2</ele>
<time>2024-05-09T11:55:51Z</time>
</trkpt>
<trkpt lat="49.69948953017592" lon="9.253624873235822">
<ele>139.2</ele>
<time>2024-05-09T11:55:52Z</time>
</trkpt>
<trkpt lat="49.69948953017592" lon="9.253622945398092">
<ele>139.2</ele>
<time>2024-05-09T11:55:54Z</time>
</trkpt>
<trkpt lat="49.6994857583195" lon="9.253622945398092">
<ele>139</ele>
<time>2024-05-09T11:55:55Z</time>
</trkpt>
<trkpt lat="49.6994857583195" lon="9.253624873235822">
<ele>139</ele>
<time>2024-05-09T11:55:56Z</time>
</trkpt>
<trkpt lat="49.6994857583195" lon="9.253626801073551">
<ele>138.8</ele>
<time>2024-05-09T11:55:58Z</time>
</trkpt>
<trkpt lat="49.6994857583195" lon="9.253624873235822">
<ele>138.8</ele>
<time>2024-05-09T11:56:00Z</time>
</trkpt>
<trkpt lat="49.69948190264404" lon="9.253624873235822">
<ele>138.6</ele>
<time>2024-05-09T11:56:03Z</time>
</trkpt>
<trkpt lat="49.69948190264404" lon="9.253622945398092">
<ele>138.6</ele>
<time>2024-05-09T11:56:04Z</time>
</trkpt>
<trkpt lat="49.69948190264404" lon="9.253624873235822">
<ele>138.4</ele>
<time>2024-05-09T11:56:11Z</time>
</trkpt>
<trkpt lat="49.69948190264404" lon="9.253622945398092">
<ele>138.4</ele>
<time>2024-05-09T11:56:14Z</time>
</trkpt>
<trkpt lat="49.69947813078761" lon="9.253624873235822">
<ele>138.6</ele>
<time>2024-05-09T11:56:16Z</time>
</trkpt>
<trkpt lat="49.69947813078761" lon="9.253626801073551">
<ele>138.6</ele>
<time>2024-05-09T11:56:17Z</time>
</trkpt>
<trkpt lat="49.69947813078761" lon="9.253624873235822">
<ele>138.6</ele>
<time>2024-05-09T11:56:32Z</time>
</trkpt>
<trkpt lat="49.69947427511215" lon="9.253622945398092">
<ele>138.6</ele>
<time>2024-05-09T11:56:33Z</time>
</trkpt>
<trkpt lat="49.69947813078761" lon="9.253622945398092">
<ele>138.8</ele>
<time>2024-05-09T11:56:34Z</time>
</trkpt>
<trkpt lat="49.69947813078761" lon="9.253622023388743">
<ele>138.8</ele>
<time>2024-05-09T11:56:35Z</time>
</trkpt>
<trkpt lat="49.69947813078761" lon="9.253620095551014">
<ele>138.8</ele>
<time>2024-05-09T11:56:37Z</time>
</trkpt>
<trkpt lat="49.69947813078761" lon="9.253618167713284">
<ele>138.8</ele>
<time>2024-05-09T11:56:39Z</time>
</trkpt>
<trkpt lat="49.69947427511215" lon="9.253616323694589">
<ele>138.6</ele>
<time>2024-05-09T11:56:40Z</time>
</trkpt>
<trkpt lat="49.69947427511215" lon="9.253615317866206">
<ele>138.6</ele>
<time>2024-05-09T11:56:41Z</time>
</trkpt>
<trkpt lat="49.69947427511215" lon="9.253613390028477">
<ele>138.6</ele>
<time>2024-05-09T11:56:43Z</time>
</trkpt>
<trkpt lat="49.699470503255725" lon="9.253606768324971">
<ele>138.6</ele>
<time>2024-05-09T11:56:45Z</time>
</trkpt>
<trkpt lat="49.699470503255725" lon="9.253598134964705">
<ele>138.6</ele>
<time>2024-05-09T11:56:46Z</time>
</trkpt>
<trkpt lat="49.699470503255725" lon="9.25358958542347">
<ele>138.6</ele>
<time>2024-05-09T11:56:47Z</time>
</trkpt>
<trkpt lat="49.699470503255725" lon="9.253580030053854">
<ele>138.6</ele>
<time>2024-05-09T11:56:48Z</time>
</trkpt>
<trkpt lat="49.69947427511215" lon="9.253573408350348">
<ele>138.6</ele>
<time>2024-05-09T11:56:49Z</time>
</trkpt>
<trkpt lat="49.69947427511215" lon="9.25357148051262">
<ele>138.6</ele>
<time>2024-05-09T11:56:50Z</time>
</trkpt>
<trkpt lat="49.69947427511215" lon="9.25356863066554">
<ele>138.6</ele>
<time>2024-05-09T11:56:51Z</time>
</trkpt>
<trkpt lat="49.69947813078761" lon="9.253566702827811">
<ele>138.6</ele>
<time>2024-05-09T11:56:52Z</time>
</trkpt>
<trkpt lat="49.69947813078761" lon="9.253564774990082">
<ele>138.6</ele>
<time>2024-05-09T11:56:54Z</time>
</trkpt>
<trkpt lat="49.69947813078761" lon="9.253562847152352">
<ele>138.6</ele>
<time>2024-05-09T11:56:55Z</time>
</trkpt>
<trkpt lat="49.69947813078761" lon="9.253561925143003">
<ele>138.6</ele>
<time>2024-05-09T11:56:56Z</time>
</trkpt>
<trkpt lat="49.69947813078761" lon="9.253562847152352">
<ele>138.6</ele>
<time>2024-05-09T11:56:59Z</time>
</trkpt>
<trkpt lat="49.69947813078761" lon="9.253564774990082">
<ele>138.6</ele>
<time>2024-05-09T11:57:01Z</time>
</trkpt>
<trkpt lat="49.69947813078761" lon="9.253562847152352">
<ele>138.6</ele>
<time>2024-05-09T11:57:04Z</time>
</trkpt>
<trkpt lat="49.69947813078761" lon="9.253559997305274">
<ele>138.6</ele>
<time>2024-05-09T11:57:05Z</time>
</trkpt>
<trkpt lat="49.69947813078761" lon="9.253556225448849">
<ele>138.6</ele>
<time>2024-05-09T11:57:07Z</time>
</trkpt>
<trkpt lat="49.69947813078761" lon="9.253553375601768">
<ele>138.6</ele>
<time>2024-05-09T11:57:08Z</time>
</trkpt>
<trkpt lat="49.69947813078761" lon="9.25355144776404">
<ele>138.6</ele>
<time>2024-05-09T11:57:09Z</time>
</trkpt>
<trkpt lat="49.69947427511215" lon="9.25354951992631">
<ele>138.6</ele>
<time>2024-05-09T11:57:12Z</time>
</trkpt>
<trkpt lat="49.699470503255725" lon="9.25354951992631">
<ele>138.6</ele>
<time>2024-05-09T11:57:16Z</time>
</trkpt>
<trkpt lat="49.699470503255725" lon="9.25354859791696">
<ele>138.6</ele>
<time>2024-05-09T11:57:25Z</time>
</trkpt>
<trkpt lat="49.699470503255725" lon="9.253544742241502">
<ele>138.6</ele>
<time>2024-05-09T11:57:26Z</time>
</trkpt>
<trkpt lat="49.699470503255725" lon="9.253538120537996">
<ele>138.6</ele>
<time>2024-05-09T11:57:27Z</time>
</trkpt>
<trkpt lat="49.699470503255725" lon="9.253533342853189">
<ele>138.6</ele>
<time>2024-05-09T11:57:28Z</time>
</trkpt>
<trkpt lat="49.69947427511215" lon="9.253521859645844">
<ele>138.6</ele>
<time>2024-05-09T11:57:29Z</time>
</trkpt>
<trkpt lat="49.69947427511215" lon="9.253506604582071">
<ele>138.4</ele>
<time>2024-05-09T11:57:30Z</time>
</trkpt>
<trkpt lat="49.69947427511215" lon="9.253493277356029">
<ele>138.4</ele>
<time>2024-05-09T11:57:31Z</time>
</trkpt>
<trkpt lat="49.69947427511215" lon="9.253478022292256">
<ele>138.4</ele>
<time>2024-05-09T11:57:32Z</time>
</trkpt>
<trkpt lat="49.699466647580266" lon="9.253463689237831">
<ele>138.6</ele>
<time>2024-05-09T11:57:33Z</time>
</trkpt>
<trkpt lat="49.69945902004838" lon="9.25344843417406">
<ele>138.4</ele>
<time>2024-05-09T11:57:34Z</time>
</trkpt>
<trkpt lat="49.69945902004838" lon="9.253435106948018">
<ele>138.4</ele>
<time>2024-05-09T11:57:35Z</time>
</trkpt>
<trkpt lat="49.69945902004838" lon="9.253419851884246">
<ele>138.4</ele>
<time>2024-05-09T11:57:36Z</time>
</trkpt>
<trkpt lat="49.69944762066007" lon="9.253404596820474">
<ele>138.4</ele>
<time>2024-05-09T11:57:37Z</time>
</trkpt>
<trkpt lat="49.69943999312818" lon="9.25339026376605">
<ele>138.2</ele>
<time>2024-05-09T11:57:38Z</time>
</trkpt>
<trkpt lat="49.699432365596294" lon="9.253377858549356">
<ele>138.2</ele>
<time>2024-05-09T11:57:39Z</time>
</trkpt>
<trkpt lat="49.69942473806441" lon="9.253361681476235">
<ele>138.2</ele>
<time>2024-05-09T11:57:40Z</time>
</trkpt>
<trkpt lat="49.69942473806441" lon="9.253343576565385">
<ele>138.2</ele>
<time>2024-05-09T11:57:41Z</time>
</trkpt>
<trkpt lat="49.69942088238895" lon="9.253328321501613">
<ele>138.2</ele>
<time>2024-05-09T11:57:42Z</time>
</trkpt>
<trkpt lat="49.69941711053252" lon="9.25331206060946">
<ele>138.2</ele>
<time>2024-05-09T11:57:43Z</time>
</trkpt>
<trkpt lat="49.69941325485706" lon="9.253294877707958">
<ele>138.2</ele>
<time>2024-05-09T11:57:44Z</time>
</trkpt>
<trkpt lat="49.69941325485706" lon="9.253279622644186">
<ele>138.2</ele>
<time>2024-05-09T11:57:45Z</time>
</trkpt>
<trkpt lat="49.69941325485706" lon="9.25327006727457">
<ele>138.2</ele>
<time>2024-05-09T11:57:46Z</time>
</trkpt>
<trkpt lat="49.69941325485706" lon="9.253258667886255">
<ele>138</ele>
<time>2024-05-09T11:57:47Z</time>
</trkpt>
<trkpt lat="49.69941711053252" lon="9.253241484984756">
<ele>138</ele>
<time>2024-05-09T11:57:48Z</time>
</trkpt>
<trkpt lat="49.69941711053252" lon="9.253225307911634">
<ele>138</ele>
<time>2024-05-09T11:57:49Z</time>
</trkpt>
<trkpt lat="49.69941711053252" lon="9.253205275163054">
<ele>137.8</ele>
<time>2024-05-09T11:57:50Z</time>
</trkpt>
<trkpt lat="49.69941711053252" lon="9.253190020099282">
<ele>137.8</ele>
<time>2024-05-09T11:57:51Z</time>
</trkpt>
<trkpt lat="49.69940948300064" lon="9.253181386739016">
<ele>137.8</ele>
<time>2024-05-09T11:57:52Z</time>
</trkpt>
<trkpt lat="49.69940948300064" lon="9.253169987350702">
<ele>137.8</ele>
<time>2024-05-09T11:57:53Z</time>
</trkpt>
<trkpt lat="49.69940562732518" lon="9.253160431981089">
<ele>138</ele>
<time>2024-05-09T11:57:54Z</time>
</trkpt>
<trkpt lat="49.69940562732518" lon="9.253141321241856">
<ele>138</ele>
<time>2024-05-09T11:57:55Z</time>
</trkpt>
<trkpt lat="49.69940948300064" lon="9.253127072006464">
<ele>138</ele>
<time>2024-05-09T11:57:56Z</time>
</trkpt>
<trkpt lat="49.69941325485706" lon="9.253107961267231">
<ele>138.2</ele>
<time>2024-05-09T11:57:57Z</time>
</trkpt>
<trkpt lat="49.69941711053252" lon="9.25309463404119">
<ele>138.4</ele>
<time>2024-05-09T11:57:58Z</time>
</trkpt>
<trkpt lat="49.69942088238895" lon="9.253083150833843">
<ele>138.6</ele>
<time>2024-05-09T11:57:59Z</time>
</trkpt>
<trkpt lat="49.69942088238895" lon="9.253069823607802">
<ele>138.8</ele>
<time>2024-05-09T11:58:00Z</time>
</trkpt>
<trkpt lat="49.69942088238895" lon="9.25305649638176">
<ele>138.8</ele>
<time>2024-05-09T11:58:01Z</time>
</trkpt>
<trkpt lat="49.69941711053252" lon="9.253043169155715">
<ele>138.8</ele>
<time>2024-05-09T11:58:02Z</time>
</trkpt>
<trkpt lat="49.69941711053252" lon="9.253031685948372">
<ele>138.8</ele>
<time>2024-05-09T11:58:03Z</time>
</trkpt>
<trkpt lat="49.69942473806441" lon="9.25301835872233">
<ele>138.8</ele>
<time>2024-05-09T11:58:04Z</time>
</trkpt>
<trkpt lat="49.69942473806441" lon="9.253003103658555">
<ele>139</ele>
<time>2024-05-09T11:58:05Z</time>
</trkpt>
<trkpt lat="49.699428509920835" lon="9.252991620451212">
<ele>139</ele>
<time>2024-05-09T11:58:06Z</time>
</trkpt>
<trkpt lat="49.699432365596294" lon="9.25297544337809">
<ele>139.2</ele>
<time>2024-05-09T11:58:07Z</time>
</trkpt>
<trkpt lat="49.69943999312818" lon="9.252962032333016">
<ele>139.2</ele>
<time>2024-05-09T11:58:08Z</time>
</trkpt>
<trkpt lat="49.699451392516494" lon="9.252948705106974">
<ele>139.4</ele>
<time>2024-05-09T11:58:09Z</time>
</trkpt>
<trkpt lat="49.69945524819195" lon="9.252931522205472">
<ele>139.4</ele>
<time>2024-05-09T11:58:10Z</time>
</trkpt>
<trkpt lat="49.69945902004838" lon="9.2529162671417">
<ele>139.4</ele>
<time>2024-05-09T11:58:11Z</time>
</trkpt>
<trkpt lat="49.699466647580266" lon="9.252902939915655">
<ele>139.6</ele>
<time>2024-05-09T11:58:12Z</time>
</trkpt>
<trkpt lat="49.699470503255725" lon="9.252888606861234">
<ele>139.6</ele>
<time>2024-05-09T11:58:13Z</time>
</trkpt>
<trkpt lat="49.69947813078761" lon="9.252862874418495">
<ele>139.6</ele>
<time>2024-05-09T11:58:14Z</time>
</trkpt>
<trkpt lat="49.69947813078761" lon="9.252849547192454">
<ele>139.6</ele>
<time>2024-05-09T11:58:15Z</time>
</trkpt>
<trkpt lat="49.6994857583195" lon="9.252831442281604">
<ele>139.6</ele>
<time>2024-05-09T11:58:16Z</time>
</trkpt>
<trkpt lat="49.6994857583195" lon="9.25281710922718">
<ele>139.6</ele>
<time>2024-05-09T11:58:17Z</time>
</trkpt>
<trkpt lat="49.6994857583195" lon="9.252783749252558">
<ele>139.8</ele>
<time>2024-05-09T11:58:18Z</time>
</trkpt>
<trkpt lat="49.69948190264404" lon="9.252764638513328">
<ele>139.8</ele>
<time>2024-05-09T11:58:19Z</time>
</trkpt>
<trkpt lat="49.69948953017592" lon="9.25273982807994">
<ele>139.6</ele>
<time>2024-05-09T11:58:20Z</time>
</trkpt>
<trkpt lat="49.69949715770781" lon="9.252723651006818">
<ele>139.6</ele>
<time>2024-05-09T11:58:21Z</time>
</trkpt>
<trkpt lat="49.69949715770781" lon="9.252706468105316">
<ele>139.6</ele>
<time>2024-05-09T11:58:22Z</time>
</trkpt>
<trkpt lat="49.69950101338327" lon="9.252691213041544">
<ele>139.6</ele>
<time>2024-05-09T11:58:23Z</time>
</trkpt>
<trkpt lat="49.69948953017592" lon="9.252676963806152">
<ele>139.8</ele>
<time>2024-05-09T11:58:24Z</time>
</trkpt>
<trkpt lat="49.69948190264404" lon="9.252663552761078">
<ele>139.8</ele>
<time>2024-05-09T11:58:25Z</time>
</trkpt>
<trkpt lat="49.69948190264404" lon="9.252643520012498">
<ele>139.8</ele>
<time>2024-05-09T11:58:26Z</time>
</trkpt>
<trkpt lat="49.69947813078761" lon="9.252623487263918">
<ele>139.8</ele>
<time>2024-05-09T11:58:27Z</time>
</trkpt>
<trkpt lat="49.69947427511215" lon="9.252605382353067">
<ele>139.8</ele>
<time>2024-05-09T11:58:28Z</time>
</trkpt>
<trkpt lat="49.69947813078761" lon="9.252592977136374">
<ele>139.8</ele>
<time>2024-05-09T11:58:29Z</time>
</trkpt>
<trkpt lat="49.699470503255725" lon="9.25257964991033">
<ele>139.8</ele>
<time>2024-05-09T11:58:30Z</time>
</trkpt>
<trkpt lat="49.699466647580266" lon="9.252568166702986">
<ele>139.6</ele>
<time>2024-05-09T11:58:31Z</time>
</trkpt>
<trkpt lat="49.699466647580266" lon="9.25255961716175">
<ele>139.6</ele>
<time>2024-05-09T11:58:32Z</time>
</trkpt>
<trkpt lat="49.699466647580266" lon="9.252550061792135">
<ele>139.6</ele>
<time>2024-05-09T11:58:33Z</time>
</trkpt>
<trkpt lat="49.699466647580266" lon="9.252532878890634">
<ele>139.6</ele>
<time>2024-05-09T11:58:34Z</time>
</trkpt>
<trkpt lat="49.69946287572384" lon="9.252516701817513">
<ele>139.6</ele>
<time>2024-05-09T11:58:35Z</time>
</trkpt>
<trkpt lat="49.699466647580266" lon="9.2525053024292">
<ele>139.6</ele>
<time>2024-05-09T11:58:36Z</time>
</trkpt>
<trkpt lat="49.699466647580266" lon="9.252492897212504">
<ele>139.6</ele>
<time>2024-05-09T11:58:37Z</time>
</trkpt>
<trkpt lat="49.699466647580266" lon="9.252478564158082">
<ele>139.4</ele>
<time>2024-05-09T11:58:38Z</time>
</trkpt>
<trkpt lat="49.699470503255725" lon="9.25246138125658">
<ele>139.6</ele>
<time>2024-05-09T11:58:39Z</time>
</trkpt>
<trkpt lat="49.699470503255725" lon="9.252451825886965">
<ele>139.6</ele>
<time>2024-05-09T11:58:40Z</time>
</trkpt>
<trkpt lat="49.699470503255725" lon="9.252440426498652">
<ele>139.6</ele>
<time>2024-05-09T11:58:41Z</time>
</trkpt>
<trkpt lat="49.69947427511215" lon="9.25242517143488">
<ele>139.6</ele>
<time>2024-05-09T11:58:42Z</time>
</trkpt>
<trkpt lat="49.69947813078761" lon="9.252414694055917">
<ele>139.6</ele>
<time>2024-05-09T11:58:43Z</time>
</trkpt>
<trkpt lat="49.69948190264404" lon="9.25240128301084">
<ele>139.4</ele>
<time>2024-05-09T11:58:44Z</time>
</trkpt>
<trkpt lat="49.69948190264404" lon="9.25238510593772">
<ele>139.4</ele>
<time>2024-05-09T11:58:45Z</time>
</trkpt>
<trkpt lat="49.69948190264404" lon="9.252369850873947">
<ele>139.4</ele>
<time>2024-05-09T11:58:46Z</time>
</trkpt>
<trkpt lat="49.69948190264404" lon="9.252336490899324">
<ele>139.4</ele>
<time>2024-05-09T11:58:47Z</time>
</trkpt>
<trkpt lat="49.69947813078761" lon="9.25232500769198">
<ele>139.4</ele>
<time>2024-05-09T11:58:48Z</time>
</trkpt>
<trkpt lat="49.6994857583195" lon="9.252314530313017">
<ele>139.6</ele>
<time>2024-05-09T11:58:49Z</time>
</trkpt>
<trkpt lat="49.69950101338327" lon="9.2523049749434">
<ele>139.6</ele>
<time>2024-05-09T11:58:50Z</time>
</trkpt>
<trkpt lat="49.699508640915155" lon="9.252293575555086">
<ele>139.6</ele>
<time>2024-05-09T11:58:51Z</time>
</trkpt>
<trkpt lat="49.69951626844704" lon="9.252280164510012">
<ele>139.6</ele>
<time>2024-05-09T11:58:52Z</time>
</trkpt>
<trkpt lat="49.69952389597893" lon="9.252280164510012">
<ele>139.6</ele>
<time>2024-05-09T11:58:53Z</time>
</trkpt>
<trkpt lat="49.699527667835355" lon="9.252268765121698">
<ele>139.6</ele>
<time>2024-05-09T11:58:54Z</time>
</trkpt>
<trkpt lat="49.699531523510814" lon="9.252258287742734">
<ele>139.6</ele>
<time>2024-05-09T11:58:55Z</time>
</trkpt>
<trkpt lat="49.69953529536724" lon="9.252248732373118">
<ele>139.6</ele>
<time>2024-05-09T11:58:56Z</time>
</trkpt>
<trkpt lat="49.699531523510814" lon="9.252243032678962">
<ele>139.6</ele>
<time>2024-05-09T11:58:57Z</time>
</trkpt>
<trkpt lat="49.69953529536724" lon="9.252233477309346">
<ele>139.8</ele>
<time>2024-05-09T11:58:58Z</time>
</trkpt>
<trkpt lat="49.699531523510814" lon="9.252221994102">
<ele>139.8</ele>
<time>2024-05-09T11:58:59Z</time>
</trkpt>
<trkpt lat="49.69953529536724" lon="9.252208666875958">
<ele>140</ele>
<time>2024-05-09T11:59:00Z</time>
</trkpt>
<trkpt lat="49.69953529536724" lon="9.252200117334723">
<ele>140</ele>
<time>2024-05-09T11:59:01Z</time>
</trkpt>
<trkpt lat="49.69953529536724" lon="9.252188634127378">
<ele>140</ele>
<time>2024-05-09T11:59:02Z</time>
</trkpt>
<trkpt lat="49.6995391510427" lon="9.252178156748414">
<ele>140</ele>
<time>2024-05-09T11:59:03Z</time>
</trkpt>
<trkpt lat="49.699546778574586" lon="9.25216960720718">
<ele>140</ele>
<time>2024-05-09T11:59:04Z</time>
</trkpt>
<trkpt lat="49.699546778574586" lon="9.252160051837564">
<ele>140</ele>
<time>2024-05-09T11:59:05Z</time>
</trkpt>
<trkpt lat="49.699546778574586" lon="9.2521495744586">
<ele>139.8</ele>
<time>2024-05-09T11:59:06Z</time>
</trkpt>
<trkpt lat="49.69954292289913" lon="9.252144796773791">
<ele>139.8</ele>
<time>2024-05-09T11:59:07Z</time>
</trkpt>
<trkpt lat="49.69954292289913" lon="9.252138091251254">
<ele>139.8</ele>
<time>2024-05-09T11:59:08Z</time>
</trkpt>
<trkpt lat="49.6995391510427" lon="9.252138091251254">
<ele>139.8</ele>
<time>2024-05-09T11:59:09Z</time>
</trkpt>
<trkpt lat="49.6995391510427" lon="9.252136163413525">
<ele>139.8</ele>
<time>2024-05-09T11:59:10Z</time>
</trkpt>
<trkpt lat="49.69953529536724" lon="9.252135241404176">
<ele>139.8</ele>
<time>2024-05-09T11:59:11Z</time>
</trkpt>
<trkpt lat="49.69953529536724" lon="9.252133313566446">
<ele>139.8</ele>
<time>2024-05-09T11:59:12Z</time>
</trkpt>
<trkpt lat="49.699531523510814" lon="9.25212669186294">
<ele>139.8</ele>
<time>2024-05-09T11:59:13Z</time>
</trkpt>
<trkpt lat="49.699527667835355" lon="9.252113280817866">
<ele>139.8</ele>
<time>2024-05-09T11:59:14Z</time>
</trkpt>
<trkpt lat="49.69952389597893" lon="9.252099953591824">
<ele>139.8</ele>
<time>2024-05-09T11:59:15Z</time>
</trkpt>
<trkpt lat="49.69952389597893" lon="9.25208847038448">
<ele>139.8</ele>
<time>2024-05-09T11:59:16Z</time>
</trkpt>
<trkpt lat="49.69952004030347" lon="9.252075143158436">
<ele>139.8</ele>
<time>2024-05-09T11:59:17Z</time>
</trkpt>
<trkpt lat="49.69951626844704" lon="9.252059888094664">
<ele>139.8</ele>
<time>2024-05-09T11:59:18Z</time>
</trkpt>
<trkpt lat="49.69951626844704" lon="9.252044633030891">
<ele>139.6</ele>
<time>2024-05-09T11:59:19Z</time>
</trkpt>
<trkpt lat="49.69951626844704" lon="9.25202845595777">
<ele>139.6</ele>
<time>2024-05-09T11:59:20Z</time>
</trkpt>
<trkpt lat="49.699508640915155" lon="9.252015044912696">
<ele>139.6</ele>
<time>2024-05-09T11:59:21Z</time>
</trkpt>
<trkpt lat="49.699508640915155" lon="9.252001717686651">
<ele>139.4</ele>
<time>2024-05-09T11:59:22Z</time>
</trkpt>
<trkpt lat="49.6995047852397" lon="9.25198839046061">
<ele>139.4</ele>
<time>2024-05-09T11:59:23Z</time>
</trkpt>
<trkpt lat="49.6995047852397" lon="9.251974979415536">
<ele>139.4</ele>
<time>2024-05-09T11:59:24Z</time>
</trkpt>
<trkpt lat="49.6995047852397" lon="9.251964502036572">
<ele>139.4</ele>
<time>2024-05-09T11:59:25Z</time>
</trkpt>
<trkpt lat="49.6995047852397" lon="9.251956874504684">
<ele>139.2</ele>
<time>2024-05-09T11:59:26Z</time>
</trkpt>
<trkpt lat="49.6995047852397" lon="9.25194832496345">
<ele>139.2</ele>
<time>2024-05-09T11:59:27Z</time>
</trkpt>
<trkpt lat="49.69950101338327" lon="9.251939691603184">
<ele>139.2</ele>
<time>2024-05-09T11:59:28Z</time>
</trkpt>
<trkpt lat="49.69950101338327" lon="9.25192829221487">
<ele>139.2</ele>
<time>2024-05-09T11:59:29Z</time>
</trkpt>
<trkpt lat="49.69950101338327" lon="9.251916809007524">
<ele>139.2</ele>
<time>2024-05-09T11:59:30Z</time>
</trkpt>
<trkpt lat="49.69949715770781" lon="9.25190633162856">
<ele>139.2</ele>
<time>2024-05-09T11:59:31Z</time>
</trkpt>
<trkpt lat="49.69949715770781" lon="9.251898704096677">
<ele>139.2</ele>
<time>2024-05-09T11:59:32Z</time>
</trkpt>
<trkpt lat="49.69949338585138" lon="9.251893004402518">
<ele>139.2</ele>
<time>2024-05-09T11:59:33Z</time>
</trkpt>
<trkpt lat="49.69949338585138" lon="9.25188822671771">
<ele>139.2</ele>
<time>2024-05-09T11:59:34Z</time>
</trkpt>
<trkpt lat="49.69949338585138" lon="9.25188629887998">
<ele>139.2</ele>
<time>2024-05-09T11:59:35Z</time>
</trkpt>
<trkpt lat="49.69948953017592" lon="9.25188629887998">
<ele>139.2</ele>
<time>2024-05-09T11:59:36Z</time>
</trkpt>
<trkpt lat="49.69948953017592" lon="9.25188822671771">
<ele>139.2</ele>
<time>2024-05-09T11:59:37Z</time>
</trkpt>
<trkpt lat="49.69949338585138" lon="9.25189015455544">
<ele>139.2</ele>
<time>2024-05-09T11:59:39Z</time>
</trkpt>
<trkpt lat="49.69948953017592" lon="9.25189015455544">
<ele>139</ele>
<time>2024-05-09T11:59:40Z</time>
</trkpt>
<trkpt lat="49.69948953017592" lon="9.25189208239317">
<ele>139</ele>
<time>2024-05-09T11:59:42Z</time>
</trkpt>
<trkpt lat="49.69948953017592" lon="9.251893004402518">
<ele>138.8</ele>
<time>2024-05-09T11:59:45Z</time>
</trkpt>
<trkpt lat="49.69948953017592" lon="9.251894932240248">
<ele>138.8</ele>
<time>2024-05-09T11:59:48Z</time>
</trkpt>
<trkpt lat="49.6994857583195" lon="9.251893004402518">
<ele>138.6</ele>
<time>2024-05-09T12:00:01Z</time>
</trkpt>
<trkpt lat="49.69948953017592" lon="9.251894932240248">
<ele>138.4</ele>
<time>2024-05-09T12:00:03Z</time>
</trkpt>
<trkpt lat="49.6994857583195" lon="9.251893004402518">
<ele>138.2</ele>
<time>2024-05-09T12:00:11Z</time>
</trkpt>
<trkpt lat="49.69948953017592" lon="9.251893004402518">
<ele>138</ele>
<time>2024-05-09T12:00:16Z</time>
</trkpt>
<trkpt lat="49.69948953017592" lon="9.251894932240248">
<ele>137.8</ele>
<time>2024-05-09T12:00:21Z</time>
</trkpt>
<trkpt lat="49.69948953017592" lon="9.251893004402518">
<ele>137.6</ele>
<time>2024-05-09T12:00:23Z</time>
</trkpt>
<trkpt lat="49.6994857583195" lon="9.251893004402518">
<ele>137.2</ele>
<time>2024-05-09T12:00:25Z</time>
</trkpt>
<trkpt lat="49.6994857583195" lon="9.251894932240248">
<ele>137.2</ele>
<time>2024-05-09T12:00:29Z</time>
</trkpt>
<trkpt lat="49.6994857583195" lon="9.251896776258944">
<ele>137</ele>
<time>2024-05-09T12:00:33Z</time>
</trkpt>
<trkpt lat="49.69948190264404" lon="9.251896776258944">
<ele>137</ele>
<time>2024-05-09T12:00:34Z</time>
</trkpt>
<trkpt lat="49.69948190264404" lon="9.251898704096677">
<ele>137</ele>
<time>2024-05-09T12:00:36Z</time>
</trkpt>
<trkpt lat="49.69947813078761" lon="9.251898704096677">
<ele>137</ele>
<time>2024-05-09T12:00:37Z</time>
</trkpt>
<trkpt lat="49.69947813078761" lon="9.251899709925056">
<ele>137</ele>
<time>2024-05-09T12:00:40Z</time>
</trkpt>
<trkpt lat="49.69947427511215" lon="9.251899709925056">
<ele>137</ele>
<time>2024-05-09T12:00:41Z</time>
</trkpt>
<trkpt lat="49.69947427511215" lon="9.251898704096677">
<ele>137</ele>
<time>2024-05-09T12:00:46Z</time>
</trkpt>
<trkpt lat="49.699470503255725" lon="9.251898704096677">
<ele>137</ele>
<time>2024-05-09T12:00:48Z</time>
</trkpt>
<trkpt lat="49.69947427511215" lon="9.251898704096677">
<ele>137</ele>
<time>2024-05-09T12:00:49Z</time>
</trkpt>
<trkpt lat="49.699470503255725" lon="9.251898704096677">
<ele>137.2</ele>
<time>2024-05-09T12:00:50Z</time>
</trkpt>
<trkpt lat="49.699470503255725" lon="9.251899709925056">
<ele>137.2</ele>
<time>2024-05-09T12:00:52Z</time>
</trkpt>
<trkpt lat="49.699470503255725" lon="9.251901553943751">
<ele>137.2</ele>
<time>2024-05-09T12:01:01Z</time>
</trkpt>
<trkpt lat="49.699470503255725" lon="9.251903481781484">
<ele>137.2</ele>
<time>2024-05-09T12:01:05Z</time>
</trkpt>
<trkpt lat="49.699470503255725" lon="9.251901553943751">
<ele>137.2</ele>
<time>2024-05-09T12:01:20Z</time>
</trkpt>
<trkpt lat="49.699470503255725" lon="9.251899709925056">
<ele>137.2</ele>
<time>2024-05-09T12:01:26Z</time>
</trkpt>
<trkpt lat="49.699466647580266" lon="9.251898704096677">
<ele>137.2</ele>
<time>2024-05-09T12:01:30Z</time>
</trkpt>
<trkpt lat="49.699466647580266" lon="9.251896776258944">
<ele>137.2</ele>
<time>2024-05-09T12:01:35Z</time>
</trkpt>
<trkpt lat="49.69946287572384" lon="9.251896776258944">
<ele>137.2</ele>
<time>2024-05-09T12:01:39Z</time>
</trkpt>
<trkpt lat="49.69946287572384" lon="9.251894932240248">
<ele>137</ele>
<time>2024-05-09T12:01:40Z</time>
</trkpt>
<trkpt lat="49.69945902004838" lon="9.251894932240248">
<ele>137</ele>
<time>2024-05-09T12:01:43Z</time>
</trkpt>
<trkpt lat="49.69945902004838" lon="9.251893004402518">
<ele>137</ele>
<time>2024-05-09T12:01:44Z</time>
</trkpt>
<trkpt lat="49.69945902004838" lon="9.25189208239317">
<ele>137</ele>
<time>2024-05-09T12:01:46Z</time>
</trkpt>
<trkpt lat="49.69945902004838" lon="9.25189015455544">
<ele>137</ele>
<time>2024-05-09T12:01:49Z</time>
</trkpt>
<trkpt lat="49.69945902004838" lon="9.25188822671771">
<ele>137</ele>
<time>2024-05-09T12:01:53Z</time>
</trkpt>
<trkpt lat="49.69945524819195" lon="9.25188822671771">
<ele>137</ele>
<time>2024-05-09T12:01:55Z</time>
</trkpt>
<trkpt lat="49.69945524819195" lon="9.25188629887998">
<ele>137</ele>
<time>2024-05-09T12:01:57Z</time>
</trkpt>
<trkpt lat="49.69945524819195" lon="9.251885376870632">
<ele>137</ele>
<time>2024-05-09T12:02:01Z</time>
</trkpt>
<trkpt lat="49.69945524819195" lon="9.251883449032904">
<ele>137.2</ele>
<time>2024-05-09T12:02:05Z</time>
</trkpt>
<trkpt lat="49.69945524819195" lon="9.251881521195171">
<ele>137</ele>
<time>2024-05-09T12:02:09Z</time>
</trkpt>
<trkpt lat="49.699451392516494" lon="9.251881521195171">
<ele>137</ele>
<time>2024-05-09T12:02:10Z</time>
</trkpt>
<trkpt lat="49.699451392516494" lon="9.251879677176476">
<ele>137</ele>
<time>2024-05-09T12:02:12Z</time>
</trkpt>
<trkpt lat="49.69944762066007" lon="9.251879677176476">
<ele>137</ele>
<time>2024-05-09T12:02:14Z</time>
</trkpt>
<trkpt lat="49.69944762066007" lon="9.251881521195171">
<ele>137</ele>
<time>2024-05-09T12:02:23Z</time>
</trkpt>
<trkpt lat="49.69944376498461" lon="9.251881521195171">
<ele>137.2</ele>
<time>2024-05-09T12:02:37Z</time>
</trkpt>
<trkpt lat="49.69944376498461" lon="9.251883449032904">
<ele>137.2</ele>
<time>2024-05-09T12:02:40Z</time>
</trkpt>
<trkpt lat="49.69944376498461" lon="9.251885376870632">
<ele>137.2</ele>
<time>2024-05-09T12:02:48Z</time>
</trkpt>
<trkpt lat="49.69943999312818" lon="9.251885376870632">
<ele>137.2</ele>
<time>2024-05-09T12:02:53Z</time>
</trkpt>
<trkpt lat="49.69943999312818" lon="9.25188629887998">
<ele>137.2</ele>
<time>2024-05-09T12:03:07Z</time>
</trkpt>
<trkpt lat="49.69943999312818" lon="9.251885376870632">
<ele>137.2</ele>
<time>2024-05-09T12:03:11Z</time>
</trkpt>
<trkpt lat="49.69943999312818" lon="9.251883449032904">
<ele>137.2</ele>
<time>2024-05-09T12:03:16Z</time>
</trkpt>
<trkpt lat="49.69943999312818" lon="9.251881521195171">
<ele>137.4</ele>
<time>2024-05-09T12:03:35Z</time>
</trkpt>
<trkpt lat="49.69943999312818" lon="9.251879677176476">
<ele>137.4</ele>
<time>2024-05-09T12:03:40Z</time>
</trkpt>
<trkpt lat="49.69943613745272" lon="9.251879677176476">
<ele>137.6</ele>
<time>2024-05-09T12:03:41Z</time>
</trkpt>
<trkpt lat="49.69943613745272" lon="9.251878671348097">
<ele>137.8</ele>
<time>2024-05-09T12:03:43Z</time>
</trkpt>
<trkpt lat="49.69943613745272" lon="9.251876827329395">
<ele>138.2</ele>
<time>2024-05-09T12:03:45Z</time>
</trkpt>
<trkpt lat="49.699432365596294" lon="9.251876827329395">
<ele>138.2</ele>
<time>2024-05-09T12:03:46Z</time>
</trkpt>
<trkpt lat="49.699432365596294" lon="9.251874899491668">
<ele>138.4</ele>
<time>2024-05-09T12:03:48Z</time>
</trkpt>
<trkpt lat="49.699432365596294" lon="9.251872971653938">
<ele>138.6</ele>
<time>2024-05-09T12:03:51Z</time>
</trkpt>
<trkpt lat="49.699428509920835" lon="9.251872971653938">
<ele>138.8</ele>
<time>2024-05-09T12:03:53Z</time>
</trkpt>
<trkpt lat="49.699428509920835" lon="9.25187204964459">
<ele>138.8</ele>
<time>2024-05-09T12:03:54Z</time>
</trkpt>
<trkpt lat="49.69942473806441" lon="9.25187012180686">
<ele>139</ele>
<time>2024-05-09T12:03:59Z</time>
</trkpt>
<trkpt lat="49.69942473806441" lon="9.25186819396913">
<ele>139</ele>
<time>2024-05-09T12:04:18Z</time>
</trkpt>
<trkpt lat="49.69942473806441" lon="9.2518662661314">
<ele>139.2</ele>
<time>2024-05-09T12:04:22Z</time>
</trkpt>
<trkpt lat="49.69942473806441" lon="9.251865344122052">
<ele>139.2</ele>
<time>2024-05-09T12:04:27Z</time>
</trkpt>
<trkpt lat="49.69942473806441" lon="9.2518662661314">
<ele>139.2</ele>
<time>2024-05-09T12:04:36Z</time>
</trkpt>
<trkpt lat="49.69942473806441" lon="9.25186819396913">
<ele>139.2</ele>
<time>2024-05-09T12:04:44Z</time>
</trkpt>
<trkpt lat="49.699428509920835" lon="9.25187012180686">
<ele>139.2</ele>
<time>2024-05-09T12:04:49Z</time>
</trkpt>
<trkpt lat="49.699428509920835" lon="9.25187204964459">
<ele>139.2</ele>
<time>2024-05-09T12:04:52Z</time>
</trkpt>
<trkpt lat="49.699428509920835" lon="9.251872971653938">
<ele>139.2</ele>
<time>2024-05-09T12:04:55Z</time>
</trkpt>
<trkpt lat="49.699428509920835" lon="9.251874899491668">
<ele>139.2</ele>
<time>2024-05-09T12:04:58Z</time>
</trkpt>
<trkpt lat="49.699428509920835" lon="9.251876827329395">
<ele>139.2</ele>
<time>2024-05-09T12:05:01Z</time>
</trkpt>
<trkpt lat="49.699428509920835" lon="9.251878671348097">
<ele>139.2</ele>
<time>2024-05-09T12:05:04Z</time>
</trkpt>
<trkpt lat="49.699428509920835" lon="9.251879677176476">
<ele>139.2</ele>
<time>2024-05-09T12:05:09Z</time>
</trkpt>
<trkpt lat="49.699428509920835" lon="9.251881521195171">
<ele>139.2</ele>
<time>2024-05-09T12:05:34Z</time>
</trkpt>
<trkpt lat="49.699428509920835" lon="9.251883449032904">
<ele>139.2</ele>
<time>2024-05-09T12:05:36Z</time>
</trkpt>
<trkpt lat="49.699432365596294" lon="9.251885376870632">
<ele>139.2</ele>
<time>2024-05-09T12:05:37Z</time>
</trkpt>
<trkpt lat="49.699432365596294" lon="9.25188629887998">
<ele>139.2</ele>
<time>2024-05-09T12:05:39Z</time>
</trkpt>
<trkpt lat="49.699432365596294" lon="9.25188822671771">
<ele>139.2</ele>
<time>2024-05-09T12:05:41Z</time>
</trkpt>
<trkpt lat="49.69943613745272" lon="9.25189015455544">
<ele>139.2</ele>
<time>2024-05-09T12:05:45Z</time>
</trkpt>
<trkpt lat="49.69943999312818" lon="9.251893004402518">
<ele>139.2</ele>
<time>2024-05-09T12:05:47Z</time>
</trkpt>
<trkpt lat="49.69944376498461" lon="9.251896776258944">
<ele>139.2</ele>
<time>2024-05-09T12:05:48Z</time>
</trkpt>
<trkpt lat="49.69944762066007" lon="9.251903481781484">
<ele>139.2</ele>
<time>2024-05-09T12:05:49Z</time>
</trkpt>
<trkpt lat="49.69945524819195" lon="9.25191018730402">
<ele>139.2</ele>
<time>2024-05-09T12:05:50Z</time>
</trkpt>
<trkpt lat="49.69945902004838" lon="9.251918736845257">
<ele>139.2</ele>
<time>2024-05-09T12:05:51Z</time>
</trkpt>
<trkpt lat="49.69946287572384" lon="9.251924436539412">
<ele>139.2</ele>
<time>2024-05-09T12:05:52Z</time>
</trkpt>
<trkpt lat="49.69946287572384" lon="9.251932064071298">
<ele>139.2</ele>
<time>2024-05-09T12:05:53Z</time>
</trkpt>
<trkpt lat="49.69946287572384" lon="9.251941619440911">
<ele>139.2</ele>
<time>2024-05-09T12:05:54Z</time>
</trkpt>
<trkpt lat="49.69945902004838" lon="9.251953102648258">
<ele>139.2</ele>
<time>2024-05-09T12:05:55Z</time>
</trkpt>
<trkpt lat="49.69946287572384" lon="9.251963580027224">
<ele>139.2</ele>
<time>2024-05-09T12:05:56Z</time>
</trkpt>
<trkpt lat="49.69945524819195" lon="9.251976907253264">
<ele>139.2</ele>
<time>2024-05-09T12:05:57Z</time>
</trkpt>
<trkpt lat="49.69945524819195" lon="9.25198646262288">
<ele>139.2</ele>
<time>2024-05-09T12:05:58Z</time>
</trkpt>
<trkpt lat="49.69945524819195" lon="9.251995012164116">
<ele>139.2</ele>
<time>2024-05-09T12:05:59Z</time>
</trkpt>
<trkpt lat="49.69945524819195" lon="9.252004567533731">
<ele>139.2</ele>
<time>2024-05-09T12:06:00Z</time>
</trkpt>
<trkpt lat="49.69945524819195" lon="9.252013200893998">
<ele>139.2</ele>
<time>2024-05-09T12:06:01Z</time>
</trkpt>
<trkpt lat="49.69945524819195" lon="9.252021750435231">
<ele>139.2</ele>
<time>2024-05-09T12:06:02Z</time>
</trkpt>
<trkpt lat="49.69945524819195" lon="9.25202652812004">
<ele>139.2</ele>
<time>2024-05-09T12:06:03Z</time>
</trkpt>
<trkpt lat="49.69945524819195" lon="9.252031305804849">
<ele>139.2</ele>
<time>2024-05-09T12:06:04Z</time>
</trkpt>
<trkpt lat="49.69945902004838" lon="9.252037927508354">
<ele>139.2</ele>
<time>2024-05-09T12:06:05Z</time>
</trkpt>
<trkpt lat="49.69945902004838" lon="9.252044633030891">
<ele>139.2</ele>
<time>2024-05-09T12:06:06Z</time>
</trkpt>
<trkpt lat="49.69947427511215" lon="9.25204848870635">
<ele>139.2</ele>
<time>2024-05-09T12:06:07Z</time>
</trkpt>
<trkpt lat="49.69948953017592" lon="9.2520665936172">
<ele>139.2</ele>
<time>2024-05-09T12:06:08Z</time>
</trkpt>
<trkpt lat="49.699508640915155" lon="9.252073215320706">
<ele>139.2</ele>
<time>2024-05-09T12:06:09Z</time>
</trkpt>
<trkpt lat="49.699531523510814" lon="9.252075143158436">
<ele>139.2</ele>
<time>2024-05-09T12:06:10Z</time>
</trkpt>
<trkpt lat="49.69955440610647" lon="9.252077070996163">
<ele>139.2</ele>
<time>2024-05-09T12:06:11Z</time>
</trkpt>
<trkpt lat="49.6995735168457" lon="9.252073215320706">
<ele>139.2</ele>
<time>2024-05-09T12:06:12Z</time>
</trkpt>
<trkpt lat="49.69959639944136" lon="9.2520665936172">
<ele>139.2</ele>
<time>2024-05-09T12:06:13Z</time>
</trkpt>
<trkpt lat="49.69961542636156" lon="9.252053182572126">
<ele>139.2</ele>
<time>2024-05-09T12:06:14Z</time>
</trkpt>
<trkpt lat="49.69962305389345" lon="9.252055110409856">
<ele>139.2</ele>
<time>2024-05-09T12:06:15Z</time>
</trkpt>
<trkpt lat="49.69963068142533" lon="9.252057960256934">
<ele>139.2</ele>
<time>2024-05-09T12:06:16Z</time>
</trkpt>
<trkpt lat="49.69963830895722" lon="9.252064665779471">
<ele>139.2</ele>
<time>2024-05-09T12:06:17Z</time>
</trkpt>
<trkpt lat="49.699645936489105" lon="9.252070365473628">
<ele>139.2</ele>
<time>2024-05-09T12:06:18Z</time>
</trkpt>
<trkpt lat="49.69965356402099" lon="9.252077070996163">
<ele>139.2</ele>
<time>2024-05-09T12:06:19Z</time>
</trkpt>
<trkpt lat="49.699665047228336" lon="9.252079920843244">
<ele>139.2</ele>
<time>2024-05-09T12:06:20Z</time>
</trkpt>
<trkpt lat="49.69968030229211" lon="9.252081848680971">
<ele>139.2</ele>
<time>2024-05-09T12:06:21Z</time>
</trkpt>
<trkpt lat="49.69969170168042" lon="9.252083776518704">
<ele>139.2</ele>
<time>2024-05-09T12:06:22Z</time>
</trkpt>
<trkpt lat="49.69972983933985" lon="9.252083776518704">
<ele>139.2</ele>
<time>2024-05-09T12:06:23Z</time>
</trkpt>
<trkpt lat="49.69975657761097" lon="9.252083776518704">
<ele>139.2</ele>
<time>2024-05-09T12:06:24Z</time>
</trkpt>
<trkpt lat="49.699768060818315" lon="9.25208662636578">
<ele>139.2</ele>
<time>2024-05-09T12:06:25Z</time>
</trkpt>
<trkpt lat="49.6997756883502" lon="9.252090398222208">
<ele>139.2</ele>
<time>2024-05-09T12:06:26Z</time>
</trkpt>
<trkpt lat="49.69978331588209" lon="9.252093248069286">
<ele>139.2</ele>
<time>2024-05-09T12:06:27Z</time>
</trkpt>
<trkpt lat="49.699787087738514" lon="9.252093248069286">
<ele>139.2</ele>
<time>2024-05-09T12:06:28Z</time>
</trkpt>
<trkpt lat="49.69979094341397" lon="9.252095175907016">
<ele>139.2</ele>
<time>2024-05-09T12:06:29Z</time>
</trkpt>
<trkpt lat="49.69979094341397" lon="9.252096097916365">
<ele>139.2</ele>
<time>2024-05-09T12:06:30Z</time>
</trkpt>
<trkpt lat="49.6997947152704" lon="9.252098025754094">
<ele>139.2</ele>
<time>2024-05-09T12:06:32Z</time>
</trkpt>
<trkpt lat="49.6997947152704" lon="9.252099953591824">
<ele>139.2</ele>
<time>2024-05-09T12:06:34Z</time>
</trkpt>
<trkpt lat="49.69979857094586" lon="9.252099953591824">
<ele>139.2</ele>
<time>2024-05-09T12:06:36Z</time>
</trkpt>
<trkpt lat="49.69979857094586" lon="9.252101881429551">
<ele>139.2</ele>
<time>2024-05-09T12:06:37Z</time>
</trkpt>
<trkpt lat="49.699802342802286" lon="9.252104731276631">
<ele>139.2</ele>
<time>2024-05-09T12:06:51Z</time>
</trkpt>
<trkpt lat="49.69980997033417" lon="9.25210850313306">
<ele>139.2</ele>
<time>2024-05-09T12:06:52Z</time>
</trkpt>
<trkpt lat="49.69982145354152" lon="9.252111352980137">
<ele>139.2</ele>
<time>2024-05-09T12:06:53Z</time>
</trkpt>
<trkpt lat="49.6998290810734" lon="9.252111352980137">
<ele>139.2</ele>
<time>2024-05-09T12:06:54Z</time>
</trkpt>
<trkpt lat="49.69983670860529" lon="9.252113280817866">
<ele>139.2</ele>
<time>2024-05-09T12:06:55Z</time>
</trkpt>
<trkpt lat="49.699844336137176" lon="9.252118058502674">
<ele>139.2</ele>
<time>2024-05-09T12:06:56Z</time>
</trkpt>
<trkpt lat="49.69985573552549" lon="9.252119986340404">
<ele>139.2</ele>
<time>2024-05-09T12:06:57Z</time>
</trkpt>
<trkpt lat="49.69987861812115" lon="9.252133313566446">
<ele>139.2</ele>
<time>2024-05-09T12:06:58Z</time>
</trkpt>
<trkpt lat="49.699901500716805" lon="9.252144796773791">
<ele>139.2</ele>
<time>2024-05-09T12:06:59Z</time>
</trkpt>
<trkpt lat="49.69991683959961" lon="9.252151418477297">
<ele>139.2</ele>
<time>2024-05-09T12:07:00Z</time>
</trkpt>
<trkpt lat="49.69992823898792" lon="9.252162901684642">
<ele>139.2</ele>
<time>2024-05-09T12:07:01Z</time>
</trkpt>
<trkpt lat="49.69995497725904" lon="9.252171451225877">
<ele>139.2</ele>
<time>2024-05-09T12:07:02Z</time>
</trkpt>
<trkpt lat="49.69997023232281" lon="9.252175306901336">
<ele>139.2</ele>
<time>2024-05-09T12:07:03Z</time>
</trkpt>
<trkpt lat="49.69998925924301" lon="9.252180084586143">
<ele>139.2</ele>
<time>2024-05-09T12:07:04Z</time>
</trkpt>
<trkpt lat="49.700004514306784" lon="9.25218192860484">
<ele>139.2</ele>
<time>2024-05-09T12:07:05Z</time>
</trkpt>
<trkpt lat="49.70001599751413" lon="9.252178156748414">
<ele>139.2</ele>
<time>2024-05-09T12:07:06Z</time>
</trkpt>
<trkpt lat="49.70001976937056" lon="9.252160051837564">
<ele>139.2</ele>
<time>2024-05-09T12:07:07Z</time>
</trkpt>
<trkpt lat="49.70001976937056" lon="9.252141946926711">
<ele>139.2</ele>
<time>2024-05-09T12:07:08Z</time>
</trkpt>
<trkpt lat="49.70001599751413" lon="9.252124764025211">
<ele>139.2</ele>
<time>2024-05-09T12:07:09Z</time>
</trkpt>
<trkpt lat="49.70001599751413" lon="9.252113280817866">
<ele>139.2</ele>
<time>2024-05-09T12:07:10Z</time>
</trkpt>
<trkpt lat="49.70001599751413" lon="9.25210665911436">
<ele>139.2</ele>
<time>2024-05-09T12:07:11Z</time>
</trkpt>
<trkpt lat="49.70001214183867" lon="9.252101881429551">
<ele>139.2</ele>
<time>2024-05-09T12:07:12Z</time>
</trkpt>
<trkpt lat="49.70001214183867" lon="9.252099953591824">
<ele>139.2</ele>
<time>2024-05-09T12:07:13Z</time>
</trkpt>
<trkpt lat="49.70000836998224" lon="9.252096097916365">
<ele>139.2</ele>
<time>2024-05-09T12:07:16Z</time>
</trkpt>
<trkpt lat="49.70001214183867" lon="9.252095175907016">
<ele>139.2</ele>
<time>2024-05-09T12:07:17Z</time>
</trkpt>
<trkpt lat="49.70001214183867" lon="9.252077070996163">
<ele>139.2</ele>
<time>2024-05-09T12:07:18Z</time>
</trkpt>
<trkpt lat="49.70000836998224" lon="9.25204656086862">
<ele>139.2</ele>
<time>2024-05-09T12:07:19Z</time>
</trkpt>
<trkpt lat="49.70000836998224" lon="9.252017894759774">
<ele>139.2</ele>
<time>2024-05-09T12:07:20Z</time>
</trkpt>
<trkpt lat="49.70001214183867" lon="9.25198646262288">
<ele>139.2</ele>
<time>2024-05-09T12:07:21Z</time>
</trkpt>
<trkpt lat="49.70001599751413" lon="9.25194639712572">
<ele>139.2</ele>
<time>2024-05-09T12:07:22Z</time>
</trkpt>
<trkpt lat="49.70001214183867" lon="9.25191018730402">
<ele>139.2</ele>
<time>2024-05-09T12:07:23Z</time>
</trkpt>
<trkpt lat="49.70000836998224" lon="9.251874899491668">
<ele>139.2</ele>
<time>2024-05-09T12:07:24Z</time>
</trkpt>
<trkpt lat="49.6999968867749" lon="9.251834833994508">
<ele>139.2</ele>
<time>2024-05-09T12:07:25Z</time>
</trkpt>
<trkpt lat="49.69998925924301" lon="9.25178999081254">
<ele>139.2</ele>
<time>2024-05-09T12:07:26Z</time>
</trkpt>
<trkpt lat="49.6999778598547" lon="9.25175185315311">
<ele>139.2</ele>
<time>2024-05-09T12:07:27Z</time>
</trkpt>
<trkpt lat="49.69997023232281" lon="9.251718493178489">
<ele>139.2</ele>
<time>2024-05-09T12:07:28Z</time>
</trkpt>
<trkpt lat="49.69996637664735" lon="9.251683205366136">
<ele>139.2</ele>
<time>2024-05-09T12:07:29Z</time>
</trkpt>
<trkpt lat="49.69997023232281" lon="9.251646995544434">
<ele>139.2</ele>
<time>2024-05-09T12:07:30Z</time>
</trkpt>
<trkpt lat="49.69997400417924" lon="9.25161170773208">
<ele>139.2</ele>
<time>2024-05-09T12:07:31Z</time>
</trkpt>
<trkpt lat="49.69998925924301" lon="9.251586897298694">
<ele>139.2</ele>
<time>2024-05-09T12:07:32Z</time>
</trkpt>
<trkpt lat="49.70000836998224" lon="9.251569714397192">
<ele>139.2</ele>
<time>2024-05-09T12:07:33Z</time>
</trkpt>
<trkpt lat="49.7000312525779" lon="9.251562086865306">
<ele>139.2</ele>
<time>2024-05-09T12:07:34Z</time>
</trkpt>
<trkpt lat="49.70004650764167" lon="9.25155638717115">
<ele>139.2</ele>
<time>2024-05-09T12:07:35Z</time>
</trkpt>
<trkpt lat="49.70006939023733" lon="9.25155345350504">
<ele>139.2</ele>
<time>2024-05-09T12:07:36Z</time>
</trkpt>
<trkpt lat="49.70008850097656" lon="9.251562086865306">
<ele>139.2</ele>
<time>2024-05-09T12:07:37Z</time>
</trkpt>
<trkpt lat="49.70010752789676" lon="9.251583041623237">
<ele>139.2</ele>
<time>2024-05-09T12:07:38Z</time>
</trkpt>
<trkpt lat="49.700122782960534" lon="9.251618329435589">
<ele>139.2</ele>
<time>2024-05-09T12:07:39Z</time>
</trkpt>
<trkpt lat="49.70013426616788" lon="9.251660322770476">
<ele>139.2</ele>
<time>2024-05-09T12:07:40Z</time>
</trkpt>
<trkpt lat="49.70014952123165" lon="9.251701310276983">
<ele>139.2</ele>
<time>2024-05-09T12:07:41Z</time>
</trkpt>
<trkpt lat="49.700160920619965" lon="9.251743303611876">
<ele>139.2</ele>
<time>2024-05-09T12:07:42Z</time>
</trkpt>
<trkpt lat="49.70017240382731" lon="9.25178806297481">
<ele>139.2</ele>
<time>2024-05-09T12:07:43Z</time>
</trkpt>
<trkpt lat="49.70018380321562" lon="9.25183198414743">
<ele>139.2</ele>
<time>2024-05-09T12:07:44Z</time>
</trkpt>
<trkpt lat="49.70019528642297" lon="9.25187204964459">
<ele>139.2</ele>
<time>2024-05-09T12:07:45Z</time>
</trkpt>
<trkpt lat="49.70020668581128" lon="9.251918736845257">
<ele>139.2</ele>
<time>2024-05-09T12:07:46Z</time>
</trkpt>
<trkpt lat="49.700218169018626" lon="9.251964502036572">
<ele>139.2</ele>
<time>2024-05-09T12:07:47Z</time>
</trkpt>
<trkpt lat="49.70022579655051" lon="9.252015044912696">
<ele>139.2</ele>
<time>2024-05-09T12:07:48Z</time>
</trkpt>
<trkpt lat="49.7002334240824" lon="9.252063743770124">
<ele>139.2</ele>
<time>2024-05-09T12:07:49Z</time>
</trkpt>
<trkpt lat="49.70024867914617" lon="9.25210950896144">
<ele>139.2</ele>
<time>2024-05-09T12:07:50Z</time>
</trkpt>
<trkpt lat="49.7002677898854" lon="9.252158123999834">
<ele>139.2</ele>
<time>2024-05-09T12:07:51Z</time>
</trkpt>
<trkpt lat="49.700283044949174" lon="9.252213444560766">
<ele>139.2</ele>
<time>2024-05-09T12:07:52Z</time>
</trkpt>
<trkpt lat="49.70030207186937" lon="9.252268765121698">
<ele>139.2</ele>
<time>2024-05-09T12:07:53Z</time>
</trkpt>
<trkpt lat="49.70032495446503" lon="9.25232500769198">
<ele>139.2</ele>
<time>2024-05-09T12:07:54Z</time>
</trkpt>
<trkpt lat="49.7003402095288" lon="9.252380328252912">
<ele>139.2</ele>
<time>2024-05-09T12:07:55Z</time>
</trkpt>
<trkpt lat="49.700355464592576" lon="9.252436570823193">
<ele>139.2</ele>
<time>2024-05-09T12:07:56Z</time>
</trkpt>
<trkpt lat="49.70037071965635" lon="9.252491891384125">
<ele>139.2</ele>
<time>2024-05-09T12:07:57Z</time>
</trkpt>
<trkpt lat="49.700378347188234" lon="9.2525415122509">
<ele>139.2</ele>
<time>2024-05-09T12:07:58Z</time>
</trkpt>
<trkpt lat="49.70038983039558" lon="9.252592055127025">
<ele>139.2</ele>
<time>2024-05-09T12:07:59Z</time>
</trkpt>
<trkpt lat="49.70040508545935" lon="9.2526416759938">
<ele>139.2</ele>
<time>2024-05-09T12:08:00Z</time>
</trkpt>
<trkpt lat="49.700416484847665" lon="9.252691213041544">
<ele>139.2</ele>
<time>2024-05-09T12:08:01Z</time>
</trkpt>
<trkpt lat="49.70043182373047" lon="9.252743683755398">
<ele>139.2</ele>
<time>2024-05-09T12:08:02Z</time>
</trkpt>
<trkpt lat="49.70044322311878" lon="9.25279799848795">
<ele>139.2</ele>
<time>2024-05-09T12:08:03Z</time>
</trkpt>
<trkpt lat="49.700458478182554" lon="9.252851475030184">
<ele>139.2</ele>
<time>2024-05-09T12:08:04Z</time>
</trkpt>
<trkpt lat="49.700473733246326" lon="9.252904867753386">
<ele>139.2</ele>
<time>2024-05-09T12:08:05Z</time>
</trkpt>
<trkpt lat="49.7004889883101" lon="9.25295826047659">
<ele>139.2</ele>
<time>2024-05-09T12:08:06Z</time>
</trkpt>
<trkpt lat="49.700496615841985" lon="9.253007881343365">
<ele>139.2</ele>
<time>2024-05-09T12:08:07Z</time>
</trkpt>
<trkpt lat="49.70050809904933" lon="9.253060268238189">
<ele>139.2</ele>
<time>2024-05-09T12:08:08Z</time>
</trkpt>
<trkpt lat="49.7005233541131" lon="9.253109889104962">
<ele>139.2</ele>
<time>2024-05-09T12:08:09Z</time>
</trkpt>
<trkpt lat="49.7005423810333" lon="9.253160431981089">
<ele>139.4</ele>
<time>2024-05-09T12:08:10Z</time>
</trkpt>
<trkpt lat="49.70056149177253" lon="9.253201419487596">
<ele>139.6</ele>
<time>2024-05-09T12:08:11Z</time>
</trkpt>
<trkpt lat="49.70058051869273" lon="9.253243412822483">
<ele>139.6</ele>
<time>2024-05-09T12:08:12Z</time>
</trkpt>
<trkpt lat="49.70060348510742" lon="9.253285406157374">
<ele>139.8</ele>
<time>2024-05-09T12:08:13Z</time>
</trkpt>
<trkpt lat="49.70062251202762" lon="9.253324465826154">
<ele>139.8</ele>
<time>2024-05-09T12:08:14Z</time>
</trkpt>
<trkpt lat="49.70064162276685" lon="9.253366459161043">
<ele>140</ele>
<time>2024-05-09T12:08:15Z</time>
</trkpt>
<trkpt lat="49.70066450536251" lon="9.25341121852398">
<ele>140</ele>
<time>2024-05-09T12:08:16Z</time>
</trkpt>
<trkpt lat="49.70068353228271" lon="9.253455139696598">
<ele>140</ele>
<time>2024-05-09T12:08:17Z</time>
</trkpt>
<trkpt lat="49.70070641487837" lon="9.253499982878566">
<ele>140</ele>
<time>2024-05-09T12:08:18Z</time>
</trkpt>
<trkpt lat="49.700733153149486" lon="9.253542898222804">
<ele>140.2</ele>
<time>2024-05-09T12:08:19Z</time>
</trkpt>
<trkpt lat="49.700752180069685" lon="9.253581957891583">
<ele>140.2</ele>
<time>2024-05-09T12:08:20Z</time>
</trkpt>
<trkpt lat="49.700775146484375" lon="9.253624873235822">
<ele>140.2</ele>
<time>2024-05-09T12:08:21Z</time>
</trkpt>
<trkpt lat="49.70079802908003" lon="9.253668710589409">
<ele>140.2</ele>
<time>2024-05-09T12:08:22Z</time>
</trkpt>
<trkpt lat="49.70082091167569" lon="9.253711625933647">
<ele>140.2</ele>
<time>2024-05-09T12:08:23Z</time>
</trkpt>
<trkpt lat="49.70084756612778" lon="9.253754541277884">
<ele>140.4</ele>
<time>2024-05-09T12:08:24Z</time>
</trkpt>
<trkpt lat="49.700874304398894" lon="9.253800390288234">
<ele>140.6</ele>
<time>2024-05-09T12:08:25Z</time>
</trkpt>
<trkpt lat="49.70089718699455" lon="9.253843305632472">
<ele>140.8</ele>
<time>2024-05-09T12:08:26Z</time>
</trkpt>
<trkpt lat="49.70092006959021" lon="9.25388622097671">
<ele>141</ele>
<time>2024-05-09T12:08:27Z</time>
</trkpt>
<trkpt lat="49.70094680786133" lon="9.253930058330296">
<ele>141</ele>
<time>2024-05-09T12:08:28Z</time>
</trkpt>
<trkpt lat="49.700969690456986" lon="9.253972973674536">
<ele>141.2</ele>
<time>2024-05-09T12:08:29Z</time>
</trkpt>
<trkpt lat="49.700988717377186" lon="9.254016811028125">
<ele>141.2</ele>
<time>2024-05-09T12:08:30Z</time>
</trkpt>
<trkpt lat="49.70101159997285" lon="9.25405972637236">
<ele>141.4</ele>
<time>2024-05-09T12:08:31Z</time>
</trkpt>
<trkpt lat="49.7010344825685" lon="9.254104569554327">
<ele>141.4</ele>
<time>2024-05-09T12:08:32Z</time>
</trkpt>
<trkpt lat="49.70105736516416" lon="9.254150334745646">
<ele>141.4</ele>
<time>2024-05-09T12:08:33Z</time>
</trkpt>
<trkpt lat="49.701087875291705" lon="9.254195177927611">
<ele>141.2</ele>
<time>2024-05-09T12:08:34Z</time>
</trkpt>
<trkpt lat="49.70111461356282" lon="9.254236165434122">
<ele>141.2</ele>
<time>2024-05-09T12:08:35Z</time>
</trkpt>
<trkpt lat="49.70113749615848" lon="9.254275308921931">
<ele>141.2</ele>
<time>2024-05-09T12:08:36Z</time>
</trkpt>
<trkpt lat="49.70115660689771" lon="9.254306741058826">
<ele>141.4</ele>
<time>2024-05-09T12:08:37Z</time>
</trkpt>
<trkpt lat="49.70117948949337" lon="9.25434010103345">
<ele>141.4</ele>
<time>2024-05-09T12:08:38Z</time>
</trkpt>
<trkpt lat="49.70120237208903" lon="9.254369689151645">
<ele>141.4</ele>
<time>2024-05-09T12:08:39Z</time>
</trkpt>
<trkpt lat="49.701229026541114" lon="9.254403049126267">
<ele>141.4</ele>
<time>2024-05-09T12:08:40Z</time>
</trkpt>
<trkpt lat="49.70125190913677" lon="9.25443833693862">
<ele>141.4</ele>
<time>2024-05-09T12:08:41Z</time>
</trkpt>
<trkpt lat="49.70127479173243" lon="9.25447647459805">
<ele>141.2</ele>
<time>2024-05-09T12:08:42Z</time>
</trkpt>
<trkpt lat="49.70129775814712" lon="9.25451654009521">
<ele>141.2</ele>
<time>2024-05-09T12:08:43Z</time>
</trkpt>
<trkpt lat="49.70132064074278" lon="9.25455467775464">
<ele>141.2</ele>
<time>2024-05-09T12:08:44Z</time>
</trkpt>
<trkpt lat="49.70133966766298" lon="9.254592815414073">
<ele>141</ele>
<time>2024-05-09T12:08:45Z</time>
</trkpt>
<trkpt lat="49.70135877840221" lon="9.254632880911233">
<ele>141</ele>
<time>2024-05-09T12:08:46Z</time>
</trkpt>
<trkpt lat="49.70138166099787" lon="9.254672024399042">
<ele>141</ele>
<time>2024-05-09T12:08:47Z</time>
</trkpt>
<trkpt lat="49.70140068791807" lon="9.25471493974328">
<ele>141</ele>
<time>2024-05-09T12:08:48Z</time>
</trkpt>
<trkpt lat="49.7014197986573" lon="9.25475785508752">
<ele>141</ele>
<time>2024-05-09T12:08:49Z</time>
</trkpt>
<trkpt lat="49.701446453109384" lon="9.2547950707376">
<ele>141.2</ele>
<time>2024-05-09T12:08:50Z</time>
</trkpt>
<trkpt lat="49.7014731913805" lon="9.254835052415729">
<ele>141.2</ele>
<time>2024-05-09T12:08:51Z</time>
</trkpt>
<trkpt lat="49.70149607397616" lon="9.254875117912889">
<ele>141.2</ele>
<time>2024-05-09T12:08:52Z</time>
</trkpt>
<trkpt lat="49.70152281224728" lon="9.25491141155362">
<ele>141.2</ele>
<time>2024-05-09T12:08:53Z</time>
</trkpt>
<trkpt lat="49.701545694842935" lon="9.25495147705078">
<ele>141.2</ele>
<time>2024-05-09T12:08:54Z</time>
</trkpt>
<trkpt lat="49.701564721763134" lon="9.254989614710212">
<ele>141.2</ele>
<time>2024-05-09T12:08:55Z</time>
</trkpt>
<trkpt lat="49.70159146003425" lon="9.25502959638834">
<ele>141</ele>
<time>2024-05-09T12:08:56Z</time>
</trkpt>
<trkpt lat="49.70161811448634" lon="9.255064884200692">
<ele>141</ele>
<time>2024-05-09T12:08:57Z</time>
</trkpt>
<trkpt lat="49.701644852757454" lon="9.255094472318888">
<ele>140.8</ele>
<time>2024-05-09T12:08:58Z</time>
</trkpt>
<trkpt lat="49.70167159102857" lon="9.255121210590003">
<ele>140.8</ele>
<time>2024-05-09T12:08:59Z</time>
</trkpt>
<trkpt lat="49.70169824548066" lon="9.25514786504209">
<ele>140.6</ele>
<time>2024-05-09T12:09:00Z</time>
</trkpt>
<trkpt lat="49.701721128076315" lon="9.25517368130386">
<ele>140.4</ele>
<time>2024-05-09T12:09:01Z</time>
</trkpt>
<trkpt lat="49.70174401067197" lon="9.255198407918217">
<ele>140.2</ele>
<time>2024-05-09T12:09:02Z</time>
</trkpt>
<trkpt lat="49.70176689326763" lon="9.255221290513871">
<ele>140</ele>
<time>2024-05-09T12:09:03Z</time>
</trkpt>
<trkpt lat="49.70178977586329" lon="9.255245178937912">
<ele>140</ele>
<time>2024-05-09T12:09:04Z</time>
</trkpt>
<trkpt lat="49.70181274227798" lon="9.25526806153357">
<ele>139.8</ele>
<time>2024-05-09T12:09:05Z</time>
</trkpt>
<trkpt lat="49.701839396730065" lon="9.255291866138576">
<ele>139.8</ele>
<time>2024-05-09T12:09:06Z</time>
</trkpt>
<trkpt lat="49.70186613500118" lon="9.255318604409696">
<ele>139.6</ele>
<time>2024-05-09T12:09:07Z</time>
</trkpt>
<trkpt lat="49.70189278945327" lon="9.25534626469016">
<ele>139.6</ele>
<time>2024-05-09T12:09:08Z</time>
</trkpt>
<trkpt lat="49.701915672048926" lon="9.255378702655436">
<ele>139.6</ele>
<time>2024-05-09T12:09:09Z</time>
</trkpt>
<trkpt lat="49.701938554644585" lon="9.255408206954598">
<ele>139.6</ele>
<time>2024-05-09T12:09:10Z</time>
</trkpt>
<trkpt lat="49.70196143724024" lon="9.255434945225716">
<ele>139.6</ele>
<time>2024-05-09T12:09:11Z</time>
</trkpt>
<trkpt lat="49.70198817551136" lon="9.255461683496833">
<ele>139.6</ele>
<time>2024-05-09T12:09:12Z</time>
</trkpt>
<trkpt lat="49.702018685638905" lon="9.25548356026411">
<ele>139.6</ele>
<time>2024-05-09T12:09:13Z</time>
</trkpt>
<trkpt lat="49.70204542391002" lon="9.255508370697498">
<ele>139.6</ele>
<time>2024-05-09T12:09:14Z</time>
</trkpt>
<trkpt lat="49.70207207836211" lon="9.25554173067212">
<ele>139.6</ele>
<time>2024-05-09T12:09:15Z</time>
</trkpt>
<trkpt lat="49.70210258848965" lon="9.255570396780968">
<ele>139.8</ele>
<time>2024-05-09T12:09:16Z</time>
</trkpt>
<trkpt lat="49.7021330986172" lon="9.25560375675559">
<ele>139.8</ele>
<time>2024-05-09T12:09:17Z</time>
</trkpt>
<trkpt lat="49.70215983688831" lon="9.255633344873786">
<ele>139.8</ele>
<time>2024-05-09T12:09:18Z</time>
</trkpt>
<trkpt lat="49.70218657515943" lon="9.25566284917295">
<ele>139.8</ele>
<time>2024-05-09T12:09:19Z</time>
</trkpt>
<trkpt lat="49.70221322961152" lon="9.255696292966604">
<ele>139.8</ele>
<time>2024-05-09T12:09:20Z</time>
</trkpt>
<trkpt lat="49.70223996788263" lon="9.255731580778956">
<ele>139.8</ele>
<time>2024-05-09T12:09:21Z</time>
</trkpt>
<trkpt lat="49.70227047801018" lon="9.25576494075358">
<ele>139.8</ele>
<time>2024-05-09T12:09:22Z</time>
</trkpt>
<trkpt lat="49.70229713246226" lon="9.255796372890472">
<ele>139.6</ele>
<time>2024-05-09T12:09:23Z</time>
</trkpt>
<trkpt lat="49.70232009887695" lon="9.255831660702825">
<ele>139.6</ele>
<time>2024-05-09T12:09:24Z</time>
</trkpt>
<trkpt lat="49.70234675332904" lon="9.25586124882102">
<ele>139.6</ele>
<time>2024-05-09T12:09:25Z</time>
</trkpt>
<trkpt lat="49.70237726345658" lon="9.255893686786294">
<ele>139.6</ele>
<time>2024-05-09T12:09:26Z</time>
</trkpt>
<trkpt lat="49.70240014605224" lon="9.255923191085458">
<ele>139.6</ele>
<time>2024-05-09T12:09:27Z</time>
</trkpt>
<trkpt lat="49.702430656179786" lon="9.255953785032034">
<ele>139.6</ele>
<time>2024-05-09T12:09:28Z</time>
</trkpt>
<trkpt lat="49.70246116630733" lon="9.255983289331198">
<ele>139.6</ele>
<time>2024-05-09T12:09:29Z</time>
</trkpt>
<trkpt lat="49.702491760253906" lon="9.256014805287125">
<ele>139.4</ele>
<time>2024-05-09T12:09:30Z</time>
</trkpt>
<trkpt lat="49.702514642849565" lon="9.256050093099477">
<ele>139.4</ele>
<time>2024-05-09T12:09:31Z</time>
</trkpt>
<trkpt lat="49.70254129730165" lon="9.256083453074098">
<ele>139.4</ele>
<time>2024-05-09T12:09:32Z</time>
</trkpt>
<trkpt lat="49.70256417989731" lon="9.256112035363913">
<ele>139.4</ele>
<time>2024-05-09T12:09:33Z</time>
</trkpt>
<trkpt lat="49.70258706249297" lon="9.25613776780665">
<ele>139.4</ele>
<time>2024-05-09T12:09:34Z</time>
</trkpt>
<trkpt lat="49.702609945088625" lon="9.256161656230688">
<ele>139.4</ele>
<time>2024-05-09T12:09:35Z</time>
</trkpt>
<trkpt lat="49.70263668335974" lon="9.256181688979268">
<ele>139.2</ele>
<time>2024-05-09T12:09:36Z</time>
</trkpt>
<trkpt lat="49.7026595659554" lon="9.256201721727848">
<ele>139.2</ele>
<time>2024-05-09T12:09:37Z</time>
</trkpt>
<trkpt lat="49.70267867669463" lon="9.2562198266387">
<ele>139</ele>
<time>2024-05-09T12:09:38Z</time>
</trkpt>
<trkpt lat="49.70270155929029" lon="9.2562370095402">
<ele>139</ele>
<time>2024-05-09T12:09:39Z</time>
</trkpt>
<trkpt lat="49.70272444188595" lon="9.25625511445105">
<ele>139</ele>
<time>2024-05-09T12:09:40Z</time>
</trkpt>
<trkpt lat="49.70274346880615" lon="9.256270369514825">
<ele>139</ele>
<time>2024-05-09T12:09:41Z</time>
</trkpt>
<trkpt lat="49.702766351401806" lon="9.256283696740866">
<ele>138.8</ele>
<time>2024-05-09T12:09:42Z</time>
</trkpt>
<trkpt lat="49.70278546214104" lon="9.25629710778594">
<ele>138.8</ele>
<time>2024-05-09T12:09:43Z</time>
</trkpt>
<trkpt lat="49.702808344736695" lon="9.256309429183602">
<ele>138.8</ele>
<time>2024-05-09T12:09:44Z</time>
</trkpt>
<trkpt lat="49.702827371656895" lon="9.256317056715488">
<ele>138.8</ele>
<time>2024-05-09T12:09:45Z</time>
</trkpt>
<trkpt lat="49.702846482396126" lon="9.256319990381598">
<ele>138.6</ele>
<time>2024-05-09T12:09:46Z</time>
</trkpt>
<trkpt lat="49.702869364991784" lon="9.256322840228677">
<ele>138.6</ele>
<time>2024-05-09T12:09:47Z</time>
</trkpt>
<trkpt lat="49.70289224758744" lon="9.256326612085104">
<ele>138.4</ele>
<time>2024-05-09T12:09:48Z</time>
</trkpt>
<trkpt lat="49.7029151301831" lon="9.256328539922832">
<ele>138.4</ele>
<time>2024-05-09T12:09:49Z</time>
</trkpt>
<trkpt lat="49.70293038524687" lon="9.256331389769912">
<ele>138.4</ele>
<time>2024-05-09T12:09:50Z</time>
</trkpt>
<trkpt lat="49.70295326784253" lon="9.25633524544537">
<ele>138.4</ele>
<time>2024-05-09T12:09:51Z</time>
</trkpt>
<trkpt lat="49.7029685229063" lon="9.256338095292447">
<ele>138.2</ele>
<time>2024-05-09T12:09:52Z</time>
</trkpt>
<trkpt lat="49.702987633645535" lon="9.256342872977257">
<ele>138.2</ele>
<time>2024-05-09T12:09:53Z</time>
</trkpt>
<trkpt lat="49.70300288870931" lon="9.25635335035622">
<ele>138.2</ele>
<time>2024-05-09T12:09:54Z</time>
</trkpt>
<trkpt lat="49.70301437191665" lon="9.256366677582264">
<ele>138.2</ele>
<time>2024-05-09T12:09:55Z</time>
</trkpt>
<trkpt lat="49.703029626980424" lon="9.256381932646036">
<ele>138.2</ele>
<time>2024-05-09T12:09:56Z</time>
</trkpt>
<trkpt lat="49.70304488204419" lon="9.256400037556888">
<ele>138.2</ele>
<time>2024-05-09T12:09:57Z</time>
</trkpt>
<trkpt lat="49.70305628143251" lon="9.256418226286767">
<ele>138.2</ele>
<time>2024-05-09T12:09:58Z</time>
</trkpt>
<trkpt lat="49.703067764639854" lon="9.25643532536924">
<ele>138.2</ele>
<time>2024-05-09T12:09:59Z</time>
</trkpt>
<trkpt lat="49.70307916402817" lon="9.25645351409912">
<ele>138.2</ele>
<time>2024-05-09T12:10:00Z</time>
</trkpt>
<trkpt lat="49.70309064723551" lon="9.256469691172242">
<ele>138.2</ele>
<time>2024-05-09T12:10:01Z</time>
</trkpt>
<trkpt lat="49.703105902299285" lon="9.256486874073744">
<ele>138.2</ele>
<time>2024-05-09T12:10:02Z</time>
</trkpt>
<trkpt lat="49.70312492921949" lon="9.256503051146863">
<ele>138.2</ele>
<time>2024-05-09T12:10:03Z</time>
</trkpt>
<trkpt lat="49.70314018428326" lon="9.256520234048368">
<ele>138.2</ele>
<time>2024-05-09T12:10:04Z</time>
</trkpt>
<trkpt lat="49.70315929502249" lon="9.25653456710279">
<ele>138</ele>
<time>2024-05-09T12:10:05Z</time>
</trkpt>
<trkpt lat="49.70317455008626" lon="9.25655359402299">
<ele>138</ele>
<time>2024-05-09T12:10:06Z</time>
</trkpt>
<trkpt lat="49.70318980515003" lon="9.25657362677157">
<ele>138</ele>
<time>2024-05-09T12:10:07Z</time>
</trkpt>
<trkpt lat="49.70320506021381" lon="9.25659365952015">
<ele>137.8</ele>
<time>2024-05-09T12:10:08Z</time>
</trkpt>
<trkpt lat="49.70321654342115" lon="9.25661369226873">
<ele>137.8</ele>
<time>2024-05-09T12:10:09Z</time>
</trkpt>
<trkpt lat="49.70323179848492" lon="9.256636574864388">
<ele>137.8</ele>
<time>2024-05-09T12:10:10Z</time>
</trkpt>
<trkpt lat="49.703243197873235" lon="9.256656607612967">
<ele>137.6</ele>
<time>2024-05-09T12:10:11Z</time>
</trkpt>
<trkpt lat="49.70325845293701" lon="9.256678568199275">
<ele>137.6</ele>
<time>2024-05-09T12:10:12Z</time>
</trkpt>
<trkpt lat="49.70326993614435" lon="9.256698600947855">
<ele>137.6</ele>
<time>2024-05-09T12:10:13Z</time>
</trkpt>
<trkpt lat="49.703281335532665" lon="9.256718633696437">
<ele>137.6</ele>
<time>2024-05-09T12:10:14Z</time>
</trkpt>
<trkpt lat="49.70329281874001" lon="9.256736738607287">
<ele>137.6</ele>
<time>2024-05-09T12:10:15Z</time>
</trkpt>
<trkpt lat="49.70330421812832" lon="9.256759621202946">
<ele>137.4</ele>
<time>2024-05-09T12:10:16Z</time>
</trkpt>
<trkpt lat="49.703319473192096" lon="9.256783425807953">
<ele>137.4</ele>
<time>2024-05-09T12:10:17Z</time>
</trkpt>
<trkpt lat="49.70333095639944" lon="9.25681016407907">
<ele>137.4</ele>
<time>2024-05-09T12:10:18Z</time>
</trkpt>
<trkpt lat="49.70334621146321" lon="9.256833046674728">
<ele>137.4</ele>
<time>2024-05-09T12:10:19Z</time>
</trkpt>
<trkpt lat="49.70335769467056" lon="9.256855007261038">
<ele>137.4</ele>
<time>2024-05-09T12:10:20Z</time>
</trkpt>
<trkpt lat="49.70336532220245" lon="9.256874956190586">
<ele>137.4</ele>
<time>2024-05-09T12:10:21Z</time>
</trkpt>
<trkpt lat="49.703380577266216" lon="9.25689029507339">
<ele>137.6</ele>
<time>2024-05-09T12:10:22Z</time>
</trkpt>
<trkpt lat="49.70339197665453" lon="9.256901694461703">
<ele>137.6</ele>
<time>2024-05-09T12:10:23Z</time>
</trkpt>
<trkpt lat="49.7034072317183" lon="9.256915021687746">
<ele>137.8</ele>
<time>2024-05-09T12:10:24Z</time>
</trkpt>
<trkpt lat="49.70341485925019" lon="9.25692843273282">
<ele>138</ele>
<time>2024-05-09T12:10:25Z</time>
</trkpt>
<trkpt lat="49.703422486782074" lon="9.256943687796593">
<ele>138.2</ele>
<time>2024-05-09T12:10:26Z</time>
</trkpt>
<trkpt lat="49.70343011431396" lon="9.256957937031984">
<ele>138.2</ele>
<time>2024-05-09T12:10:27Z</time>
</trkpt>
<trkpt lat="49.703437741845846" lon="9.25696849822998">
<ele>138.4</ele>
<time>2024-05-09T12:10:28Z</time>
</trkpt>
<trkpt lat="49.70344536937773" lon="9.256977969780564">
<ele>138.4</ele>
<time>2024-05-09T12:10:29Z</time>
</trkpt>
<trkpt lat="49.70345299690962" lon="9.256979897618294">
<ele>138.2</ele>
<time>2024-05-09T12:10:30Z</time>
</trkpt>
<trkpt lat="49.70346825197339" lon="9.256977969780564">
<ele>138.2</ele>
<time>2024-05-09T12:10:31Z</time>
</trkpt>
<trkpt lat="49.70347587950528" lon="9.256977047771215">
<ele>138</ele>
<time>2024-05-09T12:10:32Z</time>
</trkpt>
<trkpt lat="49.70348350703716" lon="9.256964642554522">
<ele>138</ele>
<time>2024-05-09T12:10:33Z</time>
</trkpt>
<trkpt lat="49.70349113456905" lon="9.256946537643673">
<ele>137.8</ele>
<time>2024-05-09T12:10:34Z</time>
</trkpt>
<trkpt lat="49.70349499024451" lon="9.256924577057362">
<ele>137.6</ele>
<time>2024-05-09T12:10:35Z</time>
</trkpt>
<trkpt lat="49.70349499024451" lon="9.256901694461703">
<ele>137.6</ele>
<time>2024-05-09T12:10:36Z</time>
</trkpt>
<trkpt lat="49.70348350703716" lon="9.256883589550853">
<ele>137.6</ele>
<time>2024-05-09T12:10:37Z</time>
</trkpt>
<trkpt lat="49.70347210764885" lon="9.256876884028316">
<ele>137.6</ele>
<time>2024-05-09T12:10:38Z</time>
</trkpt>
<trkpt lat="49.70346448011696" lon="9.25686833448708">
<ele>137.6</ele>
<time>2024-05-09T12:10:39Z</time>
</trkpt>
<trkpt lat="49.70345299690962" lon="9.256855007261038">
<ele>137.6</ele>
<time>2024-05-09T12:10:40Z</time>
</trkpt>
<trkpt lat="49.70344536937773" lon="9.256836818531156">
<ele>137.6</ele>
<time>2024-05-09T12:10:41Z</time>
</trkpt>
<trkpt lat="49.703441597521305" lon="9.256821563467383">
<ele>137.6</ele>
<time>2024-05-09T12:10:42Z</time>
</trkpt>
<trkpt lat="49.70343396998942" lon="9.25680823624134">
<ele>137.4</ele>
<time>2024-05-09T12:10:43Z</time>
</trkpt>
<trkpt lat="49.70343011431396" lon="9.256803458556533">
<ele>137.4</ele>
<time>2024-05-09T12:10:44Z</time>
</trkpt>
<trkpt lat="49.70343011431396" lon="9.256792981177568">
<ele>137.2</ele>
<time>2024-05-09T12:10:45Z</time>
</trkpt>
<trkpt lat="49.70342634245753" lon="9.256778648123143">
<ele>137.2</ele>
<time>2024-05-09T12:10:46Z</time>
</trkpt>
<trkpt lat="49.70341871492565" lon="9.256759621202946">
<ele>137</ele>
<time>2024-05-09T12:10:47Z</time>
</trkpt>
<trkpt lat="49.70341485925019" lon="9.256738582625983">
<ele>137</ele>
<time>2024-05-09T12:10:48Z</time>
</trkpt>
<trkpt lat="49.70341485925019" lon="9.256721483543515">
<ele>136.8</ele>
<time>2024-05-09T12:10:49Z</time>
</trkpt>
<trkpt lat="49.70341485925019" lon="9.256712850183249">
<ele>136.8</ele>
<time>2024-05-09T12:10:50Z</time>
</trkpt>
<trkpt lat="49.70341485925019" lon="9.256699522957206">
<ele>136.8</ele>
<time>2024-05-09T12:10:51Z</time>
</trkpt>
<trkpt lat="49.70341108739376" lon="9.256683345884085">
<ele>136.6</ele>
<time>2024-05-09T12:10:52Z</time>
</trkpt>
<trkpt lat="49.703403459861875" lon="9.256660379469396">
<ele>136.6</ele>
<time>2024-05-09T12:10:53Z</time>
</trkpt>
<trkpt lat="49.70339583232999" lon="9.256634647026658">
<ele>136.4</ele>
<time>2024-05-09T12:10:54Z</time>
</trkpt>
<trkpt lat="49.7033882047981" lon="9.256611764431">
<ele>136.4</ele>
<time>2024-05-09T12:10:55Z</time>
</trkpt>
<trkpt lat="49.70337294973433" lon="9.256589887663722">
<ele>136.4</ele>
<time>2024-05-09T12:10:56Z</time>
</trkpt>
<trkpt lat="49.703361466526985" lon="9.256569854915142">
<ele>136.2</ele>
<time>2024-05-09T12:10:57Z</time>
</trkpt>
<trkpt lat="49.70335006713867" lon="9.25655359402299">
<ele>136</ele>
<time>2024-05-09T12:10:58Z</time>
</trkpt>
<trkpt lat="49.70334621146321" lon="9.256545044481754">
<ele>136</ele>
<time>2024-05-09T12:10:59Z</time>
</trkpt>
<trkpt lat="49.703342355787754" lon="9.256545044481754">
<ele>135.8</ele>
<time>2024-05-09T12:11:00Z</time>
</trkpt>
<trkpt lat="49.703342355787754" lon="9.256543116644025">
<ele>135.8</ele>
<time>2024-05-09T12:11:01Z</time>
</trkpt>
<trkpt lat="49.703342355787754" lon="9.256541188806295">
<ele>135.8</ele>
<time>2024-05-09T12:11:03Z</time>
</trkpt>
<trkpt lat="49.703342355787754" lon="9.256538338959215">
<ele>135.8</ele>
<time>2024-05-09T12:11:04Z</time>
</trkpt>
<trkpt lat="49.70333472825587" lon="9.25653163343668">
<ele>135.8</ele>
<time>2024-05-09T12:11:05Z</time>
</trkpt>
<trkpt lat="49.70333095639944" lon="9.256525011733174">
<ele>135.8</ele>
<time>2024-05-09T12:11:06Z</time>
</trkpt>
<trkpt lat="49.70332710072398" lon="9.256520234048368">
<ele>135.8</ele>
<time>2024-05-09T12:11:07Z</time>
</trkpt>
<trkpt lat="49.703323328867555" lon="9.25651352852583">
<ele>135.8</ele>
<time>2024-05-09T12:11:08Z</time>
</trkpt>
<trkpt lat="49.703319473192096" lon="9.256511684507132">
<ele>135.8</ele>
<time>2024-05-09T12:11:09Z</time>
</trkpt>
<trkpt lat="49.70331570133567" lon="9.256506906822324">
<ele>135.8</ele>
<time>2024-05-09T12:11:10Z</time>
</trkpt>
<trkpt lat="49.70330807380378" lon="9.256502129137516">
<ele>135.8</ele>
<time>2024-05-09T12:11:11Z</time>
</trkpt>
<trkpt lat="49.70330421812832" lon="9.25649642944336">
<ele>136</ele>
<time>2024-05-09T12:11:12Z</time>
</trkpt>
<trkpt lat="49.703300446271896" lon="9.25649642944336">
<ele>136</ele>
<time>2024-05-09T12:11:13Z</time>
</trkpt>
<trkpt lat="49.70329659059644" lon="9.25649349577725">
<ele>136</ele>
<time>2024-05-09T12:11:14Z</time>
</trkpt>
<trkpt lat="49.70329281874001" lon="9.256491651758552">
<ele>136</ele>
<time>2024-05-09T12:11:16Z</time>
</trkpt>
<trkpt lat="49.70329281874001" lon="9.256489723920822">
<ele>136</ele>
<time>2024-05-09T12:11:17Z</time>
</trkpt>
<trkpt lat="49.70329281874001" lon="9.256488718092442">
<ele>136</ele>
<time>2024-05-09T12:11:18Z</time>
</trkpt>
<trkpt lat="49.70329281874001" lon="9.256489723920822">
<ele>136</ele>
<time>2024-05-09T12:11:19Z</time>
</trkpt>
<trkpt lat="49.70329281874001" lon="9.256491651758552">
<ele>136</ele>
<time>2024-05-09T12:11:20Z</time>
</trkpt>
<trkpt lat="49.70328896306455" lon="9.256491651758552">
<ele>136</ele>
<time>2024-05-09T12:11:23Z</time>
</trkpt>
<trkpt lat="49.70328896306455" lon="9.25649349577725">
<ele>136</ele>
<time>2024-05-09T12:11:27Z</time>
</trkpt>
<trkpt lat="49.70328519120813" lon="9.25649450160563">
<ele>136</ele>
<time>2024-05-09T12:11:30Z</time>
</trkpt>
<trkpt lat="49.70328519120813" lon="9.25649642944336">
<ele>136</ele>
<time>2024-05-09T12:11:34Z</time>
</trkpt>
<trkpt lat="49.70328519120813" lon="9.256498273462055">
<ele>136</ele>
<time>2024-05-09T12:11:40Z</time>
</trkpt>
<trkpt lat="49.70328519120813" lon="9.256500201299788">
<ele>136</ele>
<time>2024-05-09T12:11:47Z</time>
</trkpt>
<trkpt lat="49.703281335532665" lon="9.256500201299788">
<ele>136</ele>
<time>2024-05-09T12:11:48Z</time>
</trkpt>
<trkpt lat="49.703281335532665" lon="9.256502129137516">
<ele>136</ele>
<time>2024-05-09T12:11:52Z</time>
</trkpt>
<trkpt lat="49.703281335532665" lon="9.256503051146863">
<ele>136</ele>
<time>2024-05-09T12:11:55Z</time>
</trkpt>
<trkpt lat="49.70327756367624" lon="9.256503051146863">
<ele>136.2</ele>
<time>2024-05-09T12:11:59Z</time>
</trkpt>
<trkpt lat="49.70327756367624" lon="9.256504978984594">
<ele>136.2</ele>
<time>2024-05-09T12:12:00Z</time>
</trkpt>
<trkpt lat="49.70327756367624" lon="9.256506906822324">
<ele>136</ele>
<time>2024-05-09T12:12:04Z</time>
</trkpt>
<trkpt lat="49.70327756367624" lon="9.256507828831673">
<ele>136</ele>
<time>2024-05-09T12:12:09Z</time>
</trkpt>
<trkpt lat="49.70327756367624" lon="9.256506906822324">
<ele>136</ele>
<time>2024-05-09T12:12:23Z</time>
</trkpt>
<trkpt lat="49.70327756367624" lon="9.256504978984594">
<ele>136</ele>
<time>2024-05-09T12:12:27Z</time>
</trkpt>
<trkpt lat="49.70327756367624" lon="9.256503051146863">
<ele>136</ele>
<time>2024-05-09T12:12:32Z</time>
</trkpt>
<trkpt lat="49.70327756367624" lon="9.256502129137516">
<ele>136.2</ele>
<time>2024-05-09T12:12:36Z</time>
</trkpt>
<trkpt lat="49.70327756367624" lon="9.256500201299788">
<ele>136.2</ele>
<time>2024-05-09T12:12:42Z</time>
</trkpt>
<trkpt lat="49.70327370800078" lon="9.256498273462055">
<ele>136.4</ele>
<time>2024-05-09T12:12:48Z</time>
</trkpt>
<trkpt lat="49.70327370800078" lon="9.25649642944336">
<ele>136.6</ele>
<time>2024-05-09T12:12:54Z</time>
</trkpt>
<trkpt lat="49.70326993614435" lon="9.25649642944336">
<ele>136.6</ele>
<time>2024-05-09T12:12:57Z</time>
</trkpt>
<trkpt lat="49.70326993614435" lon="9.25649450160563">
<ele>136.8</ele>
<time>2024-05-09T12:12:58Z</time>
</trkpt>
<trkpt lat="49.70326993614435" lon="9.25649642944336">
<ele>136.8</ele>
<time>2024-05-09T12:13:06Z</time>
</trkpt>
<trkpt lat="49.70326993614435" lon="9.256498273462055">
<ele>136.8</ele>
<time>2024-05-09T12:13:14Z</time>
</trkpt>
<trkpt lat="49.70326993614435" lon="9.256500201299788">
<ele>136.8</ele>
<time>2024-05-09T12:13:21Z</time>
</trkpt>
<trkpt lat="49.70326993614435" lon="9.256498273462055">
<ele>136.8</ele>
<time>2024-05-09T12:13:39Z</time>
</trkpt>
<trkpt lat="49.70326993614435" lon="9.25649642944336">
<ele>136.8</ele>
<time>2024-05-09T12:13:41Z</time>
</trkpt>
<trkpt lat="49.70326993614435" lon="9.25649450160563">
<ele>136.8</ele>
<time>2024-05-09T12:13:45Z</time>
</trkpt>
<trkpt lat="49.70326993614435" lon="9.25649349577725">
<ele>136.8</ele>
<time>2024-05-09T12:13:54Z</time>
</trkpt>
<trkpt lat="49.70327370800078" lon="9.25649349577725">
<ele>136.8</ele>
<time>2024-05-09T12:13:56Z</time>
</trkpt>
<trkpt lat="49.70327370800078" lon="9.256491651758552">
<ele>136.6</ele>
<time>2024-05-09T12:13:59Z</time>
</trkpt>
<trkpt lat="49.70327370800078" lon="9.256489723920822">
<ele>136.6</ele>
<time>2024-05-09T12:14:03Z</time>
</trkpt>
<trkpt lat="49.70327756367624" lon="9.256489723920822">
<ele>136.6</ele>
<time>2024-05-09T12:14:05Z</time>
</trkpt>
<trkpt lat="49.70327756367624" lon="9.256488718092442">
<ele>136.6</ele>
<time>2024-05-09T12:14:06Z</time>
</trkpt>
<trkpt lat="49.70327756367624" lon="9.256489723920822">
<ele>136.8</ele>
<time>2024-05-09T12:14:17Z</time>
</trkpt>
<trkpt lat="49.70327756367624" lon="9.256491651758552">
<ele>136.8</ele>
<time>2024-05-09T12:14:22Z</time>
</trkpt>
<trkpt lat="49.70327756367624" lon="9.25649349577725">
<ele>137</ele>
<time>2024-05-09T12:14:24Z</time>
</trkpt>
<trkpt lat="49.70327756367624" lon="9.25649450160563">
<ele>137</ele>
<time>2024-05-09T12:14:26Z</time>
</trkpt>
<trkpt lat="49.70327756367624" lon="9.25649642944336">
<ele>137.2</ele>
<time>2024-05-09T12:14:28Z</time>
</trkpt>
<trkpt lat="49.70327756367624" lon="9.256498273462055">
<ele>137.2</ele>
<time>2024-05-09T12:14:34Z</time>
</trkpt>
<trkpt lat="49.70327756367624" lon="9.25649642944336">
<ele>137.2</ele>
<time>2024-05-09T12:14:38Z</time>
</trkpt>
<trkpt lat="49.703281335532665" lon="9.25649642944336">
<ele>137.4</ele>
<time>2024-05-09T12:14:40Z</time>
</trkpt>
<trkpt lat="49.703281335532665" lon="9.25649450160563">
<ele>137.4</ele>
<time>2024-05-09T12:14:43Z</time>
</trkpt>
<trkpt lat="49.703281335532665" lon="9.25649349577725">
<ele>137.4</ele>
<time>2024-05-09T12:14:46Z</time>
</trkpt>
<trkpt lat="49.703281335532665" lon="9.256491651758552">
<ele>137.6</ele>
<time>2024-05-09T12:14:50Z</time>
</trkpt>
<trkpt lat="49.70328519120813" lon="9.256491651758552">
<ele>137.6</ele>
<time>2024-05-09T12:14:53Z</time>
</trkpt>
<trkpt lat="49.70328519120813" lon="9.256489723920822">
<ele>137.6</ele>
<time>2024-05-09T12:14:57Z</time>
</trkpt>
<trkpt lat="49.70328519120813" lon="9.256488718092442">
<ele>137.8</ele>
<time>2024-05-09T12:15:07Z</time>
</trkpt>
<trkpt lat="49.70328519120813" lon="9.256486874073744">
<ele>137.8</ele>
<time>2024-05-09T12:15:16Z</time>
</trkpt>
<trkpt lat="49.70328896306455" lon="9.256484946236014">
<ele>138</ele>
<time>2024-05-09T12:15:20Z</time>
</trkpt>
<trkpt lat="49.70328896306455" lon="9.256486874073744">
<ele>138</ele>
<time>2024-05-09T12:15:26Z</time>
</trkpt>
<trkpt lat="49.70328519120813" lon="9.256486874073744">
<ele>138.2</ele>
<time>2024-05-09T12:15:29Z</time>
</trkpt>
<trkpt lat="49.70328519120813" lon="9.256488718092442">
<ele>138.2</ele>
<time>2024-05-09T12:15:37Z</time>
</trkpt>
<trkpt lat="49.70328519120813" lon="9.256486874073744">
<ele>138.2</ele>
<time>2024-05-09T12:15:45Z</time>
</trkpt>
<trkpt lat="49.70328519120813" lon="9.256484946236014">
<ele>138.4</ele>
<time>2024-05-09T12:15:52Z</time>
</trkpt>
<trkpt lat="49.70328519120813" lon="9.256486874073744">
<ele>138.4</ele>
<time>2024-05-09T12:15:54Z</time>
</trkpt>
<trkpt lat="49.70328519120813" lon="9.256488718092442">
<ele>138.4</ele>
<time>2024-05-09T12:16:11Z</time>
</trkpt>
<trkpt lat="49.70328896306455" lon="9.256488718092442">
<ele>138.4</ele>
<time>2024-05-09T12:16:13Z</time>
</trkpt>
<trkpt lat="49.70328896306455" lon="9.256489723920822">
<ele>138.6</ele>
<time>2024-05-09T12:16:19Z</time>
</trkpt>
<trkpt lat="49.70328896306455" lon="9.256491651758552">
<ele>138.6</ele>
<time>2024-05-09T12:16:23Z</time>
</trkpt>
<trkpt lat="49.70328896306455" lon="9.25649349577725">
<ele>138.6</ele>
<time>2024-05-09T12:16:28Z</time>
</trkpt>
<trkpt lat="49.70328519120813" lon="9.25649349577725">
<ele>138.6</ele>
<time>2024-05-09T12:16:31Z</time>
</trkpt>
<trkpt lat="49.70328519120813" lon="9.25649450160563">
<ele>138.6</ele>
<time>2024-05-09T12:16:33Z</time>
</trkpt>
<trkpt lat="49.70328519120813" lon="9.25649642944336">
<ele>138.6</ele>
<time>2024-05-09T12:16:40Z</time>
</trkpt>
<trkpt lat="49.70328519120813" lon="9.25649450160563">
<ele>138.6</ele>
<time>2024-05-09T12:16:42Z</time>
</trkpt>
<trkpt lat="49.70328519120813" lon="9.25649349577725">
<ele>138.6</ele>
<time>2024-05-09T12:17:00Z</time>
</trkpt>
<trkpt lat="49.703281335532665" lon="9.25649642944336">
<ele>138.6</ele>
<time>2024-05-09T12:17:03Z</time>
</trkpt>
<trkpt lat="49.70327756367624" lon="9.25649642944336">
<ele>138.6</ele>
<time>2024-05-09T12:17:05Z</time>
</trkpt>
<trkpt lat="49.70327756367624" lon="9.256498273462055">
<ele>138.6</ele>
<time>2024-05-09T12:17:06Z</time>
</trkpt>
<trkpt lat="49.70327370800078" lon="9.256502129137516">
<ele>138.6</ele>
<time>2024-05-09T12:17:07Z</time>
</trkpt>
<trkpt lat="49.70326993614435" lon="9.256500201299788">
<ele>138.6</ele>
<time>2024-05-09T12:17:08Z</time>
</trkpt>
<trkpt lat="49.70326608046889" lon="9.256498273462055">
<ele>138.6</ele>
<time>2024-05-09T12:17:09Z</time>
</trkpt>
<trkpt lat="49.703262308612466" lon="9.25649642944336">
<ele>138.6</ele>
<time>2024-05-09T12:17:10Z</time>
</trkpt>
<trkpt lat="49.70325845293701" lon="9.25649349577725">
<ele>138.6</ele>
<time>2024-05-09T12:17:11Z</time>
</trkpt>
<trkpt lat="49.70325845293701" lon="9.256491651758552">
<ele>138.6</ele>
<time>2024-05-09T12:17:20Z</time>
</trkpt>
<trkpt lat="49.70325082540512" lon="9.256480168551208">
<ele>138.6</ele>
<time>2024-05-09T12:17:24Z</time>
</trkpt>
<trkpt lat="49.70323557034135" lon="9.256466841325164">
<ele>138.4</ele>
<time>2024-05-09T12:17:25Z</time>
</trkpt>
<trkpt lat="49.70321654342115" lon="9.25645535811782">
<ele>138.4</ele>
<time>2024-05-09T12:17:26Z</time>
</trkpt>
<trkpt lat="49.70318980515003" lon="9.256440103054048">
<ele>138.4</ele>
<time>2024-05-09T12:17:27Z</time>
</trkpt>
<trkpt lat="49.703163066878915" lon="9.256422920152543">
<ele>138.4</ele>
<time>2024-05-09T12:17:28Z</time>
</trkpt>
<trkpt lat="49.70313641242683" lon="9.256404815241694">
<ele>138.4</ele>
<time>2024-05-09T12:17:29Z</time>
</trkpt>
<trkpt lat="49.70310967415571" lon="9.256384782493114">
<ele>138.4</ele>
<time>2024-05-09T12:17:30Z</time>
</trkpt>
<trkpt lat="49.70308301970363" lon="9.256362905725837">
<ele>138.4</ele>
<time>2024-05-09T12:17:31Z</time>
</trkpt>
<trkpt lat="49.70305628143251" lon="9.256346644833684">
<ele>138.4</ele>
<time>2024-05-09T12:17:32Z</time>
</trkpt>
<trkpt lat="49.703029626980424" lon="9.25633524544537">
<ele>138.4</ele>
<time>2024-05-09T12:17:33Z</time>
</trkpt>
<trkpt lat="49.70300288870931" lon="9.256321834400296">
<ele>138.4</ele>
<time>2024-05-09T12:17:34Z</time>
</trkpt>
<trkpt lat="49.70298000611365" lon="9.256308507174252">
<ele>138.4</ele>
<time>2024-05-09T12:17:35Z</time>
</trkpt>
<trkpt lat="49.70295326784253" lon="9.256298029795287">
<ele>138.4</ele>
<time>2024-05-09T12:17:36Z</time>
</trkpt>
<trkpt lat="49.70293424092233" lon="9.2562732193619">
<ele>138.4</ele>
<time>2024-05-09T12:17:37Z</time>
</trkpt>
<trkpt lat="49.70291135832667" lon="9.256248408928514">
<ele>138.4</ele>
<time>2024-05-09T12:17:38Z</time>
</trkpt>
<trkpt lat="49.702888475731015" lon="9.256221754476428">
<ele>138.4</ele>
<time>2024-05-09T12:17:39Z</time>
</trkpt>
<trkpt lat="49.7028617374599" lon="9.25619308836758">
<ele>138.4</ele>
<time>2024-05-09T12:17:40Z</time>
</trkpt>
<trkpt lat="49.70283508300781" lon="9.256168361753224">
<ele>138.4</ele>
<time>2024-05-09T12:17:41Z</time>
</trkpt>
<trkpt lat="49.702808344736695" lon="9.256143551319838">
<ele>138.4</ele>
<time>2024-05-09T12:17:42Z</time>
</trkpt>
<trkpt lat="49.70278546214104" lon="9.256114885210993">
<ele>138.4</ele>
<time>2024-05-09T12:17:43Z</time>
</trkpt>
<trkpt lat="49.70275872386992" lon="9.256086302921176">
<ele>138.4</ele>
<time>2024-05-09T12:17:44Z</time>
</trkpt>
<trkpt lat="49.70273584127426" lon="9.25605671480298">
<ele>138.4</ele>
<time>2024-05-09T12:17:45Z</time>
</trkpt>
<trkpt lat="49.70271681435406" lon="9.256025282666087">
<ele>138.4</ele>
<time>2024-05-09T12:17:46Z</time>
</trkpt>
<trkpt lat="49.702690076082945" lon="9.255996700376272">
<ele>138.4</ele>
<time>2024-05-09T12:17:47Z</time>
</trkpt>
<trkpt lat="49.70266719348729" lon="9.255968034267426">
<ele>138.4</ele>
<time>2024-05-09T12:17:48Z</time>
</trkpt>
<trkpt lat="49.70264045521617" lon="9.25594137981534">
<ele>138.4</ele>
<time>2024-05-09T12:17:49Z</time>
</trkpt>
<trkpt lat="49.70261380076408" lon="9.255913719534874">
<ele>138.4</ele>
<time>2024-05-09T12:17:50Z</time>
</trkpt>
<trkpt lat="49.70258706249297" lon="9.255886981263757">
<ele>138.4</ele>
<time>2024-05-09T12:17:51Z</time>
</trkpt>
<trkpt lat="49.70256417989731" lon="9.25586124882102">
<ele>138.4</ele>
<time>2024-05-09T12:17:52Z</time>
</trkpt>
<trkpt lat="49.70253752544522" lon="9.255834510549905">
<ele>138.4</ele>
<time>2024-05-09T12:17:53Z</time>
</trkpt>
<trkpt lat="49.702514642849565" lon="9.255807856097816">
<ele>138.4</ele>
<time>2024-05-09T12:17:54Z</time>
</trkpt>
<trkpt lat="49.702491760253906" lon="9.255780195817351">
<ele>138.4</ele>
<time>2024-05-09T12:17:55Z</time>
</trkpt>
<trkpt lat="49.702468793839216" lon="9.255753457546234">
<ele>138.4</ele>
<time>2024-05-09T12:17:56Z</time>
</trkpt>
<trkpt lat="49.70244591124356" lon="9.255728647112846">
<ele>138.4</ele>
<time>2024-05-09T12:17:57Z</time>
</trkpt>
<trkpt lat="49.7024230286479" lon="9.25570291467011">
<ele>138.4</ele>
<time>2024-05-09T12:17:58Z</time>
</trkpt>
<trkpt lat="49.70240014605224" lon="9.25568195991218">
<ele>138.4</ele>
<time>2024-05-09T12:17:59Z</time>
</trkpt>
<trkpt lat="49.70237349160016" lon="9.255659999325871">
<ele>138.4</ele>
<time>2024-05-09T12:18:00Z</time>
</trkpt>
<trkpt lat="49.7023506090045" lon="9.255636194720864">
<ele>138.4</ele>
<time>2024-05-09T12:18:01Z</time>
</trkpt>
<trkpt lat="49.70232387073338" lon="9.255613312125206">
<ele>138.4</ele>
<time>2024-05-09T12:18:02Z</time>
</trkpt>
<trkpt lat="49.70229713246226" lon="9.25558464601636">
<ele>138.4</ele>
<time>2024-05-09T12:18:03Z</time>
</trkpt>
<trkpt lat="49.70226662233472" lon="9.255555141717196">
<ele>138.4</ele>
<time>2024-05-09T12:18:04Z</time>
</trkpt>
<trkpt lat="49.70223996788263" lon="9.255526475608349">
<ele>138.4</ele>
<time>2024-05-09T12:18:05Z</time>
</trkpt>
<trkpt lat="49.70221322961152" lon="9.25550166517496">
<ele>138.4</ele>
<time>2024-05-09T12:18:06Z</time>
</trkpt>
<trkpt lat="49.70219034701586" lon="9.255475010722876">
<ele>138.4</ele>
<time>2024-05-09T12:18:07Z</time>
</trkpt>
<trkpt lat="49.70216369256377" lon="9.255450200289488">
<ele>138.4</ele>
<time>2024-05-09T12:18:08Z</time>
</trkpt>
<trkpt lat="49.70214072614908" lon="9.255421617999671">
<ele>138.4</ele>
<time>2024-05-09T12:18:09Z</time>
</trkpt>
<trkpt lat="49.702117843553424" lon="9.255392951890826">
<ele>138.2</ele>
<time>2024-05-09T12:18:10Z</time>
</trkpt>
<trkpt lat="49.702094960957766" lon="9.25536529161036">
<ele>138.2</ele>
<time>2024-05-09T12:18:11Z</time>
</trkpt>
<trkpt lat="49.70207207836211" lon="9.255338637158276">
<ele>138</ele>
<time>2024-05-09T12:18:12Z</time>
</trkpt>
<trkpt lat="49.70205305144191" lon="9.255311898887156">
<ele>138</ele>
<time>2024-05-09T12:18:13Z</time>
</trkpt>
<trkpt lat="49.70203016884625" lon="9.25528809428215">
<ele>137.8</ele>
<time>2024-05-09T12:18:14Z</time>
</trkpt>
<trkpt lat="49.70200728625059" lon="9.2552699893713">
<ele>137.8</ele>
<time>2024-05-09T12:18:15Z</time>
</trkpt>
<trkpt lat="49.70198440365493" lon="9.255245178937912">
<ele>137.8</ele>
<time>2024-05-09T12:18:16Z</time>
</trkpt>
<trkpt lat="49.701957665383816" lon="9.25520989112556">
<ele>137.8</ele>
<time>2024-05-09T12:18:17Z</time>
</trkpt>
<trkpt lat="49.70192715525627" lon="9.255180303007364">
<ele>137.8</ele>
<time>2024-05-09T12:18:18Z</time>
</trkpt>
<trkpt lat="49.70189664512873" lon="9.25514786504209">
<ele>137.8</ele>
<time>2024-05-09T12:18:19Z</time>
</trkpt>
<trkpt lat="49.70186990685761" lon="9.255118360742928">
<ele>137.8</ele>
<time>2024-05-09T12:18:20Z</time>
</trkpt>
<trkpt lat="49.70184325240552" lon="9.25508969463408">
<ele>138</ele>
<time>2024-05-09T12:18:21Z</time>
</trkpt>
<trkpt lat="49.701820369809866" lon="9.255063040181994">
<ele>138</ele>
<time>2024-05-09T12:18:22Z</time>
</trkpt>
<trkpt lat="49.70179363153875" lon="9.255040157586336">
<ele>138</ele>
<time>2024-05-09T12:18:23Z</time>
</trkpt>
<trkpt lat="49.70177452079952" lon="9.255016269162295">
<ele>137.8</ele>
<time>2024-05-09T12:18:24Z</time>
</trkpt>
<trkpt lat="49.70174786634743" lon="9.254996236413715">
<ele>137.8</ele>
<time>2024-05-09T12:18:25Z</time>
</trkpt>
<trkpt lat="49.701721128076315" lon="9.254984837025404">
<ele>137.8</ele>
<time>2024-05-09T12:18:26Z</time>
</trkpt>
<trkpt lat="49.70169447362423" lon="9.254988608881831">
<ele>137.8</ele>
<time>2024-05-09T12:18:27Z</time>
</trkpt>
<trkpt lat="49.70166773535311" lon="9.25499145872891">
<ele>137.8</ele>
<time>2024-05-09T12:18:28Z</time>
</trkpt>
<trkpt lat="49.701644852757454" lon="9.254989614710212">
<ele>137.8</ele>
<time>2024-05-09T12:18:29Z</time>
</trkpt>
<trkpt lat="49.70161811448634" lon="9.254984837025404">
<ele>137.6</ele>
<time>2024-05-09T12:18:30Z</time>
</trkpt>
<trkpt lat="49.70159146003425" lon="9.254969581961632">
<ele>137.6</ele>
<time>2024-05-09T12:18:31Z</time>
</trkpt>
<trkpt lat="49.70156857743859" lon="9.254944771528244">
<ele>137.6</ele>
<time>2024-05-09T12:18:32Z</time>
</trkpt>
<trkpt lat="49.70154183916747" lon="9.25491325557232">
<ele>137.6</ele>
<time>2024-05-09T12:18:33Z</time>
</trkpt>
<trkpt lat="49.70152281224728" lon="9.254877045750618">
<ele>137.6</ele>
<time>2024-05-09T12:18:34Z</time>
</trkpt>
<trkpt lat="49.701503701508045" lon="9.254839830100536">
<ele>137.6</ele>
<time>2024-05-09T12:18:35Z</time>
</trkpt>
<trkpt lat="49.70147704705596" lon="9.254803620278835">
<ele>137.6</ele>
<time>2024-05-09T12:18:36Z</time>
</trkpt>
<trkpt lat="49.70145793631673" lon="9.254763554781675">
<ele>137.6</ele>
<time>2024-05-09T12:18:37Z</time>
</trkpt>
<trkpt lat="49.70143505372107" lon="9.254721561446786">
<ele>137.6</ele>
<time>2024-05-09T12:18:38Z</time>
</trkpt>
<trkpt lat="49.70141217112541" lon="9.254683423787355">
<ele>137.6</ele>
<time>2024-05-09T12:18:39Z</time>
</trkpt>
<trkpt lat="49.701385432854295" lon="9.254646291956306">
<ele>137.8</ele>
<time>2024-05-09T12:18:40Z</time>
</trkpt>
<trkpt lat="49.70135877840221" lon="9.25461670383811">
<ele>137.8</ele>
<time>2024-05-09T12:18:41Z</time>
</trkpt>
<trkpt lat="49.70133589580655" lon="9.25457856617868">
<ele>138</ele>
<time>2024-05-09T12:18:42Z</time>
</trkpt>
<trkpt lat="49.701309157535434" lon="9.254541350528598">
<ele>137.8</ele>
<time>2024-05-09T12:18:43Z</time>
</trkpt>
<trkpt lat="49.701286274939775" lon="9.254503212869167">
<ele>137.8</ele>
<time>2024-05-09T12:18:44Z</time>
</trkpt>
<trkpt lat="49.70126339234412" lon="9.254463147372007">
<ele>137.8</ele>
<time>2024-05-09T12:18:45Z</time>
</trkpt>
<trkpt lat="49.70124050974846" lon="9.254425009712577">
<ele>137.8</ele>
<time>2024-05-09T12:18:46Z</time>
</trkpt>
<trkpt lat="49.7012176271528" lon="9.254384944215415">
<ele>138</ele>
<time>2024-05-09T12:18:47Z</time>
</trkpt>
<trkpt lat="49.70119474455714" lon="9.254348734393716">
<ele>138</ele>
<time>2024-05-09T12:18:48Z</time>
</trkpt>
<trkpt lat="49.70117186196149" lon="9.254313446581364">
<ele>138</ele>
<time>2024-05-09T12:18:49Z</time>
</trkpt>
<trkpt lat="49.70115275122225" lon="9.254275308921931">
<ele>138</ele>
<time>2024-05-09T12:18:50Z</time>
</trkpt>
<trkpt lat="49.701129868626595" lon="9.254236165434122">
<ele>138</ele>
<time>2024-05-09T12:18:51Z</time>
</trkpt>
<trkpt lat="49.70111075788736" lon="9.254198027774692">
<ele>138</ele>
<time>2024-05-09T12:18:52Z</time>
</trkpt>
<trkpt lat="49.701087875291705" lon="9.25415989011526">
<ele>138</ele>
<time>2024-05-09T12:18:53Z</time>
</trkpt>
<trkpt lat="49.70106499269605" lon="9.25412368029356">
<ele>138.2</ele>
<time>2024-05-09T12:18:54Z</time>
</trkpt>
<trkpt lat="49.70104211010039" lon="9.254090236499906">
<ele>138.4</ele>
<time>2024-05-09T12:18:55Z</time>
</trkpt>
<trkpt lat="49.70102308318019" lon="9.254048326984048">
<ele>138.4</ele>
<time>2024-05-09T12:18:56Z</time>
</trkpt>
<trkpt lat="49.70100020058453" lon="9.25400541163981">
<ele>138.6</ele>
<time>2024-05-09T12:18:57Z</time>
</trkpt>
<trkpt lat="49.70097731798887" lon="9.253959646448491">
<ele>138.6</ele>
<time>2024-05-09T12:18:58Z</time>
</trkpt>
<trkpt lat="49.700954435393214" lon="9.253912875428796">
<ele>138.6</ele>
<time>2024-05-09T12:18:59Z</time>
</trkpt>
<trkpt lat="49.70093146897853" lon="9.253868032246828">
<ele>138.6</ele>
<time>2024-05-09T12:19:00Z</time>
</trkpt>
<trkpt lat="49.70090481452644" lon="9.253821345046164">
<ele>138.6</ele>
<time>2024-05-09T12:19:01Z</time>
</trkpt>
<trkpt lat="49.70087807625532" lon="9.253778429701924">
<ele>138.6</ele>
<time>2024-05-09T12:19:02Z</time>
</trkpt>
<trkpt lat="49.70085519365966" lon="9.253733586519957">
<ele>138.8</ele>
<time>2024-05-09T12:19:03Z</time>
</trkpt>
<trkpt lat="49.700836166739464" lon="9.25368974916637">
<ele>139</ele>
<time>2024-05-09T12:19:04Z</time>
</trkpt>
<trkpt lat="49.700813284143806" lon="9.253642978146672">
<ele>139.2</ele>
<time>2024-05-09T12:19:05Z</time>
</trkpt>
<trkpt lat="49.70079040154815" lon="9.253598134964705">
<ele>139</ele>
<time>2024-05-09T12:19:06Z</time>
</trkpt>
<trkpt lat="49.70076743513346" lon="9.253555219620466">
<ele>138.6</ele>
<time>2024-05-09T12:19:07Z</time>
</trkpt>
<trkpt lat="49.7007445525378" lon="9.25350945442915">
<ele>138.4</ele>
<time>2024-05-09T12:19:08Z</time>
</trkpt>
<trkpt lat="49.70071789808571" lon="9.253466539084911">
<ele>138.2</ele>
<time>2024-05-09T12:19:09Z</time>
</trkpt>
<trkpt lat="49.700695015490055" lon="9.253417924046516">
<ele>138.2</ele>
<time>2024-05-09T12:19:10Z</time>
</trkpt>
<trkpt lat="49.70066827721894" lon="9.253371236845853">
<ele>138.2</ele>
<time>2024-05-09T12:19:11Z</time>
</trkpt>
<trkpt lat="49.70064539462328" lon="9.253323543816805">
<ele>138.4</ele>
<time>2024-05-09T12:19:12Z</time>
</trkpt>
<trkpt lat="49.700618740171194" lon="9.2532719951123">
<ele>138.8</ele>
<time>2024-05-09T12:19:13Z</time>
</trkpt>
<trkpt lat="49.700595773756504" lon="9.253225307911634">
<ele>139</ele>
<time>2024-05-09T12:19:14Z</time>
</trkpt>
<trkpt lat="49.700576746836305" lon="9.253178536891935">
<ele>139.2</ele>
<time>2024-05-09T12:19:15Z</time>
</trkpt>
<trkpt lat="49.700553864240646" lon="9.253129921853542">
<ele>139.2</ele>
<time>2024-05-09T12:19:16Z</time>
</trkpt>
<trkpt lat="49.700534753501415" lon="9.253083150833843">
<ele>139.4</ele>
<time>2024-05-09T12:19:17Z</time>
</trkpt>
<trkpt lat="49.700515726581216" lon="9.25303453579545">
<ele>139.6</ele>
<time>2024-05-09T12:19:18Z</time>
</trkpt>
<trkpt lat="49.70050424337387" lon="9.2529802210629">
<ele>139.6</ele>
<time>2024-05-09T12:19:19Z</time>
</trkpt>
<trkpt lat="49.700496615841985" lon="9.252922050654888">
<ele>139.6</ele>
<time>2024-05-09T12:19:20Z</time>
</trkpt>
<trkpt lat="49.70048521645367" lon="9.252869579941034">
<ele>139.6</ele>
<time>2024-05-09T12:19:21Z</time>
</trkpt>
<trkpt lat="49.7004699613899" lon="9.25281710922718">
<ele>139.4</ele>
<time>2024-05-09T12:19:22Z</time>
</trkpt>
<trkpt lat="49.70045470632613" lon="9.252770422026517">
<ele>139.4</ele>
<time>2024-05-09T12:19:23Z</time>
</trkpt>
<trkpt lat="49.700435595586896" lon="9.252731278538704">
<ele>139.4</ele>
<time>2024-05-09T12:19:24Z</time>
</trkpt>
<trkpt lat="49.70042034052312" lon="9.252690291032197">
<ele>139.2</ele>
<time>2024-05-09T12:19:25Z</time>
</trkpt>
<trkpt lat="49.70040885731578" lon="9.2526416759938">
<ele>139</ele>
<time>2024-05-09T12:19:26Z</time>
</trkpt>
<trkpt lat="49.700397457927465" lon="9.252594904974105">
<ele>139</ele>
<time>2024-05-09T12:19:27Z</time>
</trkpt>
<trkpt lat="49.70038983039558" lon="9.252546289935708">
<ele>138.8</ele>
<time>2024-05-09T12:19:28Z</time>
</trkpt>
<trkpt lat="49.700378347188234" lon="9.252496669068933">
<ele>138.6</ele>
<time>2024-05-09T12:19:29Z</time>
</trkpt>
<trkpt lat="49.70036309212446" lon="9.252440426498652">
<ele>138.4</ele>
<time>2024-05-09T12:19:30Z</time>
</trkpt>
<trkpt lat="49.70034783706069" lon="9.252387033775449">
<ele>138.4</ele>
<time>2024-05-09T12:19:31Z</time>
</trkpt>
<trkpt lat="49.70033258199692" lon="9.252333641052246">
<ele>138.2</ele>
<time>2024-05-09T12:19:32Z</time>
</trkpt>
<trkpt lat="49.700317326933146" lon="9.252278320491314">
<ele>138.2</ele>
<time>2024-05-09T12:19:33Z</time>
</trkpt>
<trkpt lat="49.70030207186937" lon="9.252220150083303">
<ele>138</ele>
<time>2024-05-09T12:19:34Z</time>
</trkpt>
<trkpt lat="49.7002868168056" lon="9.252161979675291">
<ele>138</ele>
<time>2024-05-09T12:19:35Z</time>
</trkpt>
<trkpt lat="49.70027541741729" lon="9.252101881429551">
<ele>138</ele>
<time>2024-05-09T12:19:36Z</time>
</trkpt>
<trkpt lat="49.70026393420994" lon="9.252039855346084">
<ele>137.8</ele>
<time>2024-05-09T12:19:37Z</time>
</trkpt>
<trkpt lat="49.70024867914617" lon="9.251976907253264">
<ele>137.8</ele>
<time>2024-05-09T12:19:38Z</time>
</trkpt>
<trkpt lat="49.7002334240824" lon="9.251916809007524">
<ele>137.8</ele>
<time>2024-05-09T12:19:39Z</time>
</trkpt>
<trkpt lat="49.70022194087505" lon="9.25185008905828">
<ele>137.8</ele>
<time>2024-05-09T12:19:40Z</time>
</trkpt>
<trkpt lat="49.70020668581128" lon="9.251786218956113">
<ele>137.8</ele>
<time>2024-05-09T12:19:41Z</time>
</trkpt>
<trkpt lat="49.70019143074751" lon="9.251725114881992">
<ele>137.8</ele>
<time>2024-05-09T12:19:42Z</time>
</trkpt>
<trkpt lat="49.70016854815185" lon="9.251666944473982">
<ele>137.8</ele>
<time>2024-05-09T12:19:43Z</time>
</trkpt>
<trkpt lat="49.70015329308808" lon="9.251616401597856">
<ele>138</ele>
<time>2024-05-09T12:19:44Z</time>
</trkpt>
<trkpt lat="49.700138038024306" lon="9.251564936712384">
<ele>138</ele>
<time>2024-05-09T12:19:45Z</time>
</trkpt>
<trkpt lat="49.70011138357222" lon="9.251522943377497">
<ele>138</ele>
<time>2024-05-09T12:19:46Z</time>
</trkpt>
<trkpt lat="49.700084645301104" lon="9.251495283097029">
<ele>138.2</ele>
<time>2024-05-09T12:19:47Z</time>
</trkpt>
<trkpt lat="49.7000502794981" lon="9.25147625617683">
<ele>138.2</ele>
<time>2024-05-09T12:19:48Z</time>
</trkpt>
<trkpt lat="49.700023625046015" lon="9.251471478492022">
<ele>138.4</ele>
<time>2024-05-09T12:19:49Z</time>
</trkpt>
<trkpt lat="49.69998925924301" lon="9.251484805718064">
<ele>138.6</ele>
<time>2024-05-09T12:19:50Z</time>
</trkpt>
<trkpt lat="49.699962604790926" lon="9.251511543989182">
<ele>138.8</ele>
<time>2024-05-09T12:19:51Z</time>
</trkpt>
<trkpt lat="49.699943494051695" lon="9.251544903963804">
<ele>138.8</ele>
<time>2024-05-09T12:19:52Z</time>
</trkpt>
<trkpt lat="49.699924467131495" lon="9.251586897298694">
<ele>138.8</ele>
<time>2024-05-09T12:19:53Z</time>
</trkpt>
<trkpt lat="49.69992061145604" lon="9.251625034958124">
<ele>138.8</ele>
<time>2024-05-09T12:19:54Z</time>
</trkpt>
<trkpt lat="49.69991683959961" lon="9.251667950302362">
<ele>138.8</ele>
<time>2024-05-09T12:19:55Z</time>
</trkpt>
<trkpt lat="49.69990912824869" lon="9.251716565340756">
<ele>138.8</ele>
<time>2024-05-09T12:19:56Z</time>
</trkpt>
<trkpt lat="49.69990912824869" lon="9.251765180379152">
<ele>138.6</ele>
<time>2024-05-09T12:19:57Z</time>
</trkpt>
<trkpt lat="49.69991298392415" lon="9.251806251704693">
<ele>138.8</ele>
<time>2024-05-09T12:19:58Z</time>
</trkpt>
<trkpt lat="49.69991298392415" lon="9.251852938905358">
<ele>138.8</ele>
<time>2024-05-09T12:19:59Z</time>
</trkpt>
<trkpt lat="49.69990912824869" lon="9.251901553943751">
<ele>138.8</ele>
<time>2024-05-09T12:20:00Z</time>
</trkpt>
<trkpt lat="49.699905356392264" lon="9.251943547278644">
<ele>139</ele>
<time>2024-05-09T12:20:01Z</time>
</trkpt>
<trkpt lat="49.699901500716805" lon="9.251984534785151">
<ele>139</ele>
<time>2024-05-09T12:20:02Z</time>
</trkpt>
<trkpt lat="49.699901500716805" lon="9.252024600282311">
<ele>139.2</ele>
<time>2024-05-09T12:20:03Z</time>
</trkpt>
<trkpt lat="49.69988624565303" lon="9.252057038247584">
<ele>139.4</ele>
<time>2024-05-09T12:20:04Z</time>
</trkpt>
<trkpt lat="49.699867218732834" lon="9.252073215320706">
<ele>139.6</ele>
<time>2024-05-09T12:20:05Z</time>
</trkpt>
<trkpt lat="49.6998481079936" lon="9.252079920843244">
<ele>139.6</ele>
<time>2024-05-09T12:20:06Z</time>
</trkpt>
<trkpt lat="49.699825225397944" lon="9.252083776518704">
<ele>139.8</ele>
<time>2024-05-09T12:20:07Z</time>
</trkpt>
<trkpt lat="49.69981382600963" lon="9.252084698528051">
<ele>140.2</ele>
<time>2024-05-09T12:20:08Z</time>
</trkpt>
<trkpt lat="49.69979857094586" lon="9.252081848680971">
<ele>140.2</ele>
<time>2024-05-09T12:20:09Z</time>
</trkpt>
<trkpt lat="49.69978331588209" lon="9.252073215320706">
<ele>140.4</ele>
<time>2024-05-09T12:20:10Z</time>
</trkpt>
<trkpt lat="49.699768060818315" lon="9.252070365473628">
<ele>140.4</ele>
<time>2024-05-09T12:20:11Z</time>
</trkpt>
<trkpt lat="49.699745178222656" lon="9.252063743770124">
<ele>140.6</ele>
<time>2024-05-09T12:20:12Z</time>
</trkpt>
<trkpt lat="49.69972983933985" lon="9.252057960256934">
<ele>140.6</ele>
<time>2024-05-09T12:20:13Z</time>
</trkpt>
<trkpt lat="49.69971081241965" lon="9.252059888094664">
<ele>140.6</ele>
<time>2024-05-09T12:20:14Z</time>
</trkpt>
<trkpt lat="49.69970318488777" lon="9.252057960256934">
<ele>140.8</ele>
<time>2024-05-09T12:20:15Z</time>
</trkpt>
<trkpt lat="49.69969932921231" lon="9.252057960256934">
<ele>140.8</ele>
<time>2024-05-09T12:20:16Z</time>
</trkpt>
<trkpt lat="49.69969170168042" lon="9.252059888094664">
<ele>140.8</ele>
<time>2024-05-09T12:20:17Z</time>
</trkpt>
<trkpt lat="49.699687929823995" lon="9.252057960256934">
<ele>140.8</ele>
<time>2024-05-09T12:20:18Z</time>
</trkpt>
<trkpt lat="49.699665047228336" lon="9.252059888094664">
<ele>141</ele>
<time>2024-05-09T12:20:19Z</time>
</trkpt>
<trkpt lat="49.69964216463268" lon="9.252061815932391">
<ele>141</ele>
<time>2024-05-09T12:20:20Z</time>
</trkpt>
<trkpt lat="49.69963068142533" lon="9.252061815932391">
<ele>141.2</ele>
<time>2024-05-09T12:20:21Z</time>
</trkpt>
<trkpt lat="49.69961542636156" lon="9.2520665936172">
<ele>141.4</ele>
<time>2024-05-09T12:20:22Z</time>
</trkpt>
<trkpt lat="49.69959639944136" lon="9.252073215320706">
<ele>141.4</ele>
<time>2024-05-09T12:20:23Z</time>
</trkpt>
<trkpt lat="49.6995735168457" lon="9.252079920843244">
<ele>141.6</ele>
<time>2024-05-09T12:20:24Z</time>
</trkpt>
<trkpt lat="49.69955055043101" lon="9.252081848680971">
<ele>141.6</ele>
<time>2024-05-09T12:20:25Z</time>
</trkpt>
<trkpt lat="49.69953529536724" lon="9.252081848680971">
<ele>141.6</ele>
<time>2024-05-09T12:20:26Z</time>
</trkpt>
<trkpt lat="49.69952389597893" lon="9.252083776518704">
<ele>141.8</ele>
<time>2024-05-09T12:20:27Z</time>
</trkpt>
<trkpt lat="49.69951241277158" lon="9.252091404050589">
<ele>141.8</ele>
<time>2024-05-09T12:20:28Z</time>
</trkpt>
<trkpt lat="49.6995047852397" lon="9.252090398222208">
<ele>141.8</ele>
<time>2024-05-09T12:20:29Z</time>
</trkpt>
<trkpt lat="49.69949715770781" lon="9.252090398222208">
<ele>141.8</ele>
<time>2024-05-09T12:20:30Z</time>
</trkpt>
<trkpt lat="49.69949338585138" lon="9.25208847038448">
<ele>141.8</ele>
<time>2024-05-09T12:20:31Z</time>
</trkpt>
<trkpt lat="49.69948953017592" lon="9.252083776518704">
<ele>141.8</ele>
<time>2024-05-09T12:20:32Z</time>
</trkpt>
<trkpt lat="49.6994857583195" lon="9.252081848680971">
<ele>141.8</ele>
<time>2024-05-09T12:20:33Z</time>
</trkpt>
<trkpt lat="49.69948190264404" lon="9.252083776518704">
<ele>141.8</ele>
<time>2024-05-09T12:20:34Z</time>
</trkpt>
<trkpt lat="49.69948190264404" lon="9.252079920843244">
<ele>141.6</ele>
<time>2024-05-09T12:20:36Z</time>
</trkpt>
<trkpt lat="49.69947813078761" lon="9.252081848680971">
<ele>141.6</ele>
<time>2024-05-09T12:20:38Z</time>
</trkpt>
<trkpt lat="49.69947427511215" lon="9.252071371302009">
<ele>141.6</ele>
<time>2024-05-09T12:20:40Z</time>
</trkpt>
<trkpt lat="49.699470503255725" lon="9.2520665936172">
<ele>141.4</ele>
<time>2024-05-09T12:20:41Z</time>
</trkpt>
<trkpt lat="49.69946287572384" lon="9.252071371302009">
<ele>141.4</ele>
<time>2024-05-09T12:20:42Z</time>
</trkpt>
<trkpt lat="49.69945524819195" lon="9.252073215320706">
<ele>141.4</ele>
<time>2024-05-09T12:20:43Z</time>
</trkpt>
<trkpt lat="49.69944762066007" lon="9.252077993005514">
<ele>141.4</ele>
<time>2024-05-09T12:20:44Z</time>
</trkpt>
<trkpt lat="49.69944376498461" lon="9.252079920843244">
<ele>141.6</ele>
<time>2024-05-09T12:20:45Z</time>
</trkpt>
<trkpt lat="49.69943999312818" lon="9.252084698528051">
<ele>141.6</ele>
<time>2024-05-09T12:20:46Z</time>
</trkpt>
<trkpt lat="49.699432365596294" lon="9.252091404050589">
<ele>141.6</ele>
<time>2024-05-09T12:20:47Z</time>
</trkpt>
<trkpt lat="49.699428509920835" lon="9.252095175907016">
<ele>141.8</ele>
<time>2024-05-09T12:20:48Z</time>
</trkpt>
<trkpt lat="49.69942473806441" lon="9.252098025754094">
<ele>141.8</ele>
<time>2024-05-09T12:20:49Z</time>
</trkpt>
<trkpt lat="49.69941711053252" lon="9.25210372544825">
<ele>141.8</ele>
<time>2024-05-09T12:20:50Z</time>
</trkpt>
<trkpt lat="49.69941711053252" lon="9.25210665911436">
<ele>141.8</ele>
<time>2024-05-09T12:20:51Z</time>
</trkpt>
<trkpt lat="49.69941325485706" lon="9.252113280817866">
<ele>142</ele>
<time>2024-05-09T12:20:52Z</time>
</trkpt>
<trkpt lat="49.69940948300064" lon="9.252121914178131">
<ele>142</ele>
<time>2024-05-09T12:20:53Z</time>
</trkpt>
<trkpt lat="49.69940185546875" lon="9.252131385728717">
<ele>142</ele>
<time>2024-05-09T12:20:54Z</time>
</trkpt>
<trkpt lat="49.69940185546875" lon="9.252142868936062">
<ele>142</ele>
<time>2024-05-09T12:20:55Z</time>
</trkpt>
<trkpt lat="49.69940185546875" lon="9.252151418477297">
<ele>142.2</ele>
<time>2024-05-09T12:20:56Z</time>
</trkpt>
<trkpt lat="49.69940185546875" lon="9.252160051837564">
<ele>142.2</ele>
<time>2024-05-09T12:20:57Z</time>
</trkpt>
<trkpt lat="49.69939414411783" lon="9.25216960720718">
<ele>142.2</ele>
<time>2024-05-09T12:20:58Z</time>
</trkpt>
<trkpt lat="49.699390372261405" lon="9.252178156748414">
<ele>142.4</ele>
<time>2024-05-09T12:20:59Z</time>
</trkpt>
<trkpt lat="49.699386516585946" lon="9.252188634127378">
<ele>142.4</ele>
<time>2024-05-09T12:21:00Z</time>
</trkpt>
<trkpt lat="49.699390372261405" lon="9.252198189496994">
<ele>142.6</ele>
<time>2024-05-09T12:21:01Z</time>
</trkpt>
<trkpt lat="49.699390372261405" lon="9.252204895019531">
<ele>142.6</ele>
<time>2024-05-09T12:21:02Z</time>
</trkpt>
<trkpt lat="49.699390372261405" lon="9.252213444560766">
<ele>142.6</ele>
<time>2024-05-09T12:21:03Z</time>
</trkpt>
<trkpt lat="49.699390372261405" lon="9.252220150083303">
<ele>142.6</ele>
<time>2024-05-09T12:21:04Z</time>
</trkpt>
<trkpt lat="49.699390372261405" lon="9.252229621633887">
<ele>142.6</ele>
<time>2024-05-09T12:21:05Z</time>
</trkpt>
<trkpt lat="49.699390372261405" lon="9.252240099012852">
<ele>142.8</ele>
<time>2024-05-09T12:21:06Z</time>
</trkpt>
<trkpt lat="49.69939414411783" lon="9.252248732373118">
<ele>142.8</ele>
<time>2024-05-09T12:21:07Z</time>
</trkpt>
<trkpt lat="49.699390372261405" lon="9.252255437895656">
<ele>142.8</ele>
<time>2024-05-09T12:21:08Z</time>
</trkpt>
<trkpt lat="49.69939414411783" lon="9.252256359905005">
<ele>142.8</ele>
<time>2024-05-09T12:21:09Z</time>
</trkpt>
<trkpt lat="49.69939799979329" lon="9.252256359905005">
<ele>142.6</ele>
<time>2024-05-09T12:21:10Z</time>
</trkpt>
<trkpt lat="49.69940185546875" lon="9.252263065427542">
<ele>142.8</ele>
<time>2024-05-09T12:21:11Z</time>
</trkpt>
<trkpt lat="49.69940185546875" lon="9.252271614968777">
<ele>142.8</ele>
<time>2024-05-09T12:21:12Z</time>
</trkpt>
<trkpt lat="49.69940185546875" lon="9.25228494219482">
<ele>142.8</ele>
<time>2024-05-09T12:21:13Z</time>
</trkpt>
<trkpt lat="49.69940185546875" lon="9.252296425402164">
<ele>143</ele>
<time>2024-05-09T12:21:14Z</time>
</trkpt>
<trkpt lat="49.69940185546875" lon="9.252311680465937">
<ele>143</ele>
<time>2024-05-09T12:21:15Z</time>
</trkpt>
<trkpt lat="49.69940562732518" lon="9.25232500769198">
<ele>143</ele>
<time>2024-05-09T12:21:16Z</time>
</trkpt>
<trkpt lat="49.69939799979329" lon="9.252334563061597">
<ele>143</ele>
<time>2024-05-09T12:21:17Z</time>
</trkpt>
<trkpt lat="49.69939414411783" lon="9.25234504044056">
<ele>143</ele>
<time>2024-05-09T12:21:18Z</time>
</trkpt>
<trkpt lat="49.69938274472952" lon="9.252351745963097">
<ele>143.2</ele>
<time>2024-05-09T12:21:19Z</time>
</trkpt>
<trkpt lat="49.69937511719763" lon="9.252358367666602">
<ele>143.2</ele>
<time>2024-05-09T12:21:20Z</time>
</trkpt>
<trkpt lat="49.699371261522174" lon="9.252367001026869">
<ele>143.2</ele>
<time>2024-05-09T12:21:21Z</time>
</trkpt>
<trkpt lat="49.699371261522174" lon="9.252373622730374">
<ele>143</ele>
<time>2024-05-09T12:21:22Z</time>
</trkpt>
<trkpt lat="49.699371261522174" lon="9.252380328252912">
<ele>143</ele>
<time>2024-05-09T12:21:23Z</time>
</trkpt>
<trkpt lat="49.69937888905406" lon="9.252387033775449">
<ele>143</ele>
<time>2024-05-09T12:21:24Z</time>
</trkpt>
<trkpt lat="49.699386516585946" lon="9.252391811460257">
<ele>143</ele>
<time>2024-05-09T12:21:25Z</time>
</trkpt>
<trkpt lat="49.699386516585946" lon="9.252394661307337">
<ele>143</ele>
<time>2024-05-09T12:21:26Z</time>
</trkpt>
<trkpt lat="49.699390372261405" lon="9.252398433163762">
<ele>143</ele>
<time>2024-05-09T12:21:27Z</time>
</trkpt>
<trkpt lat="49.69939799979329" lon="9.25240321084857">
<ele>143</ele>
<time>2024-05-09T12:21:28Z</time>
</trkpt>
<trkpt lat="49.69940562732518" lon="9.252409916371109">
<ele>143</ele>
<time>2024-05-09T12:21:29Z</time>
</trkpt>
<trkpt lat="49.69941325485706" lon="9.252416538074613">
<ele>143</ele>
<time>2024-05-09T12:21:30Z</time>
</trkpt>
<trkpt lat="49.69942473806441" lon="9.25242131575942">
<ele>143.2</ele>
<time>2024-05-09T12:21:31Z</time>
</trkpt>
<trkpt lat="49.699432365596294" lon="9.252416538074613">
<ele>143.2</ele>
<time>2024-05-09T12:21:32Z</time>
</trkpt>
<trkpt lat="49.69943613745272" lon="9.252409916371109">
<ele>143.2</ele>
<time>2024-05-09T12:21:33Z</time>
</trkpt>
<trkpt lat="49.69944376498461" lon="9.252409916371109">
<ele>143.2</ele>
<time>2024-05-09T12:21:34Z</time>
</trkpt>
<trkpt lat="49.69944762066007" lon="9.252409916371109">
<ele>143.2</ele>
<time>2024-05-09T12:21:35Z</time>
</trkpt>
<trkpt lat="49.69944762066007" lon="9.252407066524029">
<ele>143</ele>
<time>2024-05-09T12:21:36Z</time>
</trkpt>
<trkpt lat="49.699451392516494" lon="9.2524051386863">
<ele>143</ele>
<time>2024-05-09T12:21:38Z</time>
</trkpt>
<trkpt lat="49.699451392516494" lon="9.25240321084857">
<ele>142.8</ele>
<time>2024-05-09T12:21:39Z</time>
</trkpt>
<trkpt lat="49.69945524819195" lon="9.252400361001492">
<ele>142.8</ele>
<time>2024-05-09T12:21:40Z</time>
</trkpt>
<trkpt lat="49.69945524819195" lon="9.252396505326033">
<ele>142.6</ele>
<time>2024-05-09T12:21:41Z</time>
</trkpt>
<trkpt lat="49.69945524819195" lon="9.252393655478954">
<ele>142.6</ele>
<time>2024-05-09T12:21:42Z</time>
</trkpt>
<trkpt lat="49.69945524819195" lon="9.252389883622527">
<ele>142.4</ele>
<time>2024-05-09T12:21:43Z</time>
</trkpt>
<trkpt lat="49.69945524819195" lon="9.252387033775449">
<ele>142.4</ele>
<time>2024-05-09T12:21:44Z</time>
</trkpt>
<trkpt lat="49.69945524819195" lon="9.25238510593772">
<ele>142.2</ele>
<time>2024-05-09T12:21:46Z</time>
</trkpt>
<trkpt lat="49.69945524819195" lon="9.252387033775449">
<ele>142.2</ele>
<time>2024-05-09T12:21:47Z</time>
</trkpt>
<trkpt lat="49.69945524819195" lon="9.25238510593772">
<ele>142.2</ele>
<time>2024-05-09T12:21:49Z</time>
</trkpt>
<trkpt lat="49.69945524819195" lon="9.25238317809999">
<ele>142.2</ele>
<time>2024-05-09T12:21:52Z</time>
</trkpt>
<trkpt lat="49.69945524819195" lon="9.252380328252912">
<ele>142.2</ele>
<time>2024-05-09T12:21:53Z</time>
</trkpt>
<trkpt lat="49.69945524819195" lon="9.25238125026226">
<ele>142</ele>
<time>2024-05-09T12:21:55Z</time>
</trkpt>
<trkpt lat="49.69945524819195" lon="9.252380328252912">
<ele>142</ele>
<time>2024-05-09T12:21:56Z</time>
</trkpt>
<trkpt lat="49.69945524819195" lon="9.252378400415182">
<ele>142</ele>
<time>2024-05-09T12:21:57Z</time>
</trkpt>
<trkpt lat="49.69945524819195" lon="9.252376556396484">
<ele>142</ele>
<time>2024-05-09T12:21:59Z</time>
</trkpt>
<trkpt lat="49.69945524819195" lon="9.252374628558757">
<ele>142</ele>
<time>2024-05-09T12:22:00Z</time>
</trkpt>
<trkpt lat="49.69945524819195" lon="9.252373622730374">
<ele>142</ele>
<time>2024-05-09T12:22:01Z</time>
</trkpt>
<trkpt lat="49.69945524819195" lon="9.252371778711677">
<ele>142</ele>
<time>2024-05-09T12:22:02Z</time>
</trkpt>
<trkpt lat="49.69945524819195" lon="9.252369850873947">
<ele>142</ele>
<time>2024-05-09T12:22:03Z</time>
</trkpt>
<trkpt lat="49.69945524819195" lon="9.252367923036218">
<ele>142</ele>
<time>2024-05-09T12:22:05Z</time>
</trkpt>
<trkpt lat="49.69945524819195" lon="9.25236507318914">
<ele>142</ele>
<time>2024-05-09T12:22:07Z</time>
</trkpt>
<trkpt lat="49.699451392516494" lon="9.25236314535141">
<ele>142</ele>
<time>2024-05-09T12:22:10Z</time>
</trkpt>
<trkpt lat="49.699451392516494" lon="9.252360295504332">
<ele>142</ele>
<time>2024-05-09T12:22:13Z</time>
</trkpt>
<trkpt lat="49.699451392516494" lon="9.252358367666602">
<ele>142</ele>
<time>2024-05-09T12:22:16Z</time>
</trkpt>
<trkpt lat="49.699451392516494" lon="9.252356523647904">
<ele>142</ele>
<time>2024-05-09T12:22:17Z</time>
</trkpt>
<trkpt lat="49.699451392516494" lon="9.252353589981794">
<ele>142</ele>
<time>2024-05-09T12:22:19Z</time>
</trkpt>
<trkpt lat="49.699451392516494" lon="9.252351745963097">
<ele>142.2</ele>
<time>2024-05-09T12:22:20Z</time>
</trkpt>
<trkpt lat="49.699451392516494" lon="9.252349818125367">
<ele>142.2</ele>
<time>2024-05-09T12:22:23Z</time>
</trkpt>
<trkpt lat="49.699451392516494" lon="9.252351745963097">
<ele>142.4</ele>
<time>2024-05-09T12:22:27Z</time>
</trkpt>
<trkpt lat="49.699451392516494" lon="9.252349818125367">
<ele>142.4</ele>
<time>2024-05-09T12:22:28Z</time>
</trkpt>
<trkpt lat="49.699451392516494" lon="9.252346968278289">
<ele>142.6</ele>
<time>2024-05-09T12:22:29Z</time>
</trkpt>
<trkpt lat="49.699451392516494" lon="9.252347890287638">
<ele>142.6</ele>
<time>2024-05-09T12:22:30Z</time>
</trkpt>
<trkpt lat="49.699451392516494" lon="9.252346968278289">
<ele>142.8</ele>
<time>2024-05-09T12:22:34Z</time>
</trkpt>
<trkpt lat="49.699451392516494" lon="9.25234504044056">
<ele>142.8</ele>
<time>2024-05-09T12:22:35Z</time>
</trkpt>
<trkpt lat="49.699451392516494" lon="9.252346968278289">
<ele>142.8</ele>
<time>2024-05-09T12:22:36Z</time>
</trkpt>
<trkpt lat="49.699451392516494" lon="9.252347890287638">
<ele>142.8</ele>
<time>2024-05-09T12:22:38Z</time>
</trkpt>
<trkpt lat="49.699451392516494" lon="9.252346968278289">
<ele>143</ele>
<time>2024-05-09T12:22:42Z</time>
</trkpt>
<trkpt lat="49.699451392516494" lon="9.252347890287638">
<ele>143</ele>
<time>2024-05-09T12:22:43Z</time>
</trkpt>
<trkpt lat="49.699451392516494" lon="9.252349818125367">
<ele>143</ele>
<time>2024-05-09T12:22:44Z</time>
</trkpt>
<trkpt lat="49.699451392516494" lon="9.252351745963097">
<ele>143</ele>
<time>2024-05-09T12:22:46Z</time>
</trkpt>
<trkpt lat="49.699451392516494" lon="9.252347890287638">
<ele>143</ele>
<time>2024-05-09T12:22:47Z</time>
</trkpt>
<trkpt lat="49.699451392516494" lon="9.252349818125367">
<ele>143</ele>
<time>2024-05-09T12:22:49Z</time>
</trkpt>
<trkpt lat="49.699451392516494" lon="9.252347890287638">
<ele>143</ele>
<time>2024-05-09T12:22:50Z</time>
</trkpt>
<trkpt lat="49.699451392516494" lon="9.252349818125367">
<ele>143</ele>
<time>2024-05-09T12:22:51Z</time>
</trkpt>
<trkpt lat="49.699451392516494" lon="9.252347890287638">
<ele>142.8</ele>
<time>2024-05-09T12:22:52Z</time>
</trkpt>
<trkpt lat="49.699451392516494" lon="9.25234504044056">
<ele>142.8</ele>
<time>2024-05-09T12:22:54Z</time>
</trkpt>
<trkpt lat="49.69945524819195" lon="9.252346968278289">
<ele>142.8</ele>
<time>2024-05-09T12:22:57Z</time>
</trkpt>
<trkpt lat="49.69945524819195" lon="9.25234504044056">
<ele>142.6</ele>
<time>2024-05-09T12:22:59Z</time>
</trkpt>
<trkpt lat="49.699451392516494" lon="9.252341268584132">
<ele>142.6</ele>
<time>2024-05-09T12:23:00Z</time>
</trkpt>
<trkpt lat="49.699451392516494" lon="9.252340262755752">
<ele>142.4</ele>
<time>2024-05-09T12:23:01Z</time>
</trkpt>
<trkpt lat="49.699451392516494" lon="9.252341268584132">
<ele>142.4</ele>
<time>2024-05-09T12:23:03Z</time>
</trkpt>
<trkpt lat="49.69945524819195" lon="9.252341268584132">
<ele>142.4</ele>
<time>2024-05-09T12:23:04Z</time>
</trkpt>
<trkpt lat="49.69945524819195" lon="9.252340262755752">
<ele>142.4</ele>
<time>2024-05-09T12:23:06Z</time>
</trkpt>
<trkpt lat="49.69945524819195" lon="9.252341268584132">
<ele>142.2</ele>
<time>2024-05-09T12:23:09Z</time>
</trkpt>
<trkpt lat="49.69945524819195" lon="9.25234504044056">
<ele>142.2</ele>
<time>2024-05-09T12:23:10Z</time>
</trkpt>
<trkpt lat="49.69945524819195" lon="9.252349818125367">
<ele>142.2</ele>
<time>2024-05-09T12:23:14Z</time>
</trkpt>
<trkpt lat="49.69945524819195" lon="9.252354595810177">
<ele>142.2</ele>
<time>2024-05-09T12:23:16Z</time>
</trkpt>
<trkpt lat="49.69945524819195" lon="9.252356523647904">
<ele>142.2</ele>
<time>2024-05-09T12:23:19Z</time>
</trkpt>
<trkpt lat="49.69945524819195" lon="9.252354595810177">
<ele>142.2</ele>
<time>2024-05-09T12:23:20Z</time>
</trkpt>
<trkpt lat="49.69945524819195" lon="9.252356523647904">
<ele>142.2</ele>
<time>2024-05-09T12:23:21Z</time>
</trkpt>
<trkpt lat="49.69945524819195" lon="9.252354595810177">
<ele>142.2</ele>
<time>2024-05-09T12:23:23Z</time>
</trkpt>
<trkpt lat="49.69945902004838" lon="9.252353589981794">
<ele>142.2</ele>
<time>2024-05-09T12:23:24Z</time>
</trkpt>
<trkpt lat="49.69945902004838" lon="9.252351745963097">
<ele>142.2</ele>
<time>2024-05-09T12:23:25Z</time>
</trkpt>
<trkpt lat="49.69945902004838" lon="9.252349818125367">
<ele>142.2</ele>
<time>2024-05-09T12:23:26Z</time>
</trkpt>
<trkpt lat="49.69945902004838" lon="9.252351745963097">
<ele>142.2</ele>
<time>2024-05-09T12:23:28Z</time>
</trkpt>
<trkpt lat="49.69945902004838" lon="9.252349818125367">
<ele>142.2</ele>
<time>2024-05-09T12:23:29Z</time>
</trkpt>
<trkpt lat="49.69945902004838" lon="9.252347890287638">
<ele>142.2</ele>
<time>2024-05-09T12:23:31Z</time>
</trkpt>
<trkpt lat="49.69946287572384" lon="9.252347890287638">
<ele>142.2</ele>
<time>2024-05-09T12:23:33Z</time>
</trkpt>
<trkpt lat="49.69946287572384" lon="9.252349818125367">
<ele>142.2</ele>
<time>2024-05-09T12:23:34Z</time>
</trkpt>
<trkpt lat="49.69946287572384" lon="9.252351745963097">
<ele>142.2</ele>
<time>2024-05-09T12:23:37Z</time>
</trkpt>
<trkpt lat="49.69946287572384" lon="9.252349818125367">
<ele>142.2</ele>
<time>2024-05-09T12:23:50Z</time>
</trkpt>
<trkpt lat="49.69946287572384" lon="9.252351745963097">
<ele>142.2</ele>
<time>2024-05-09T12:23:52Z</time>
</trkpt>
<trkpt lat="49.69946287572384" lon="9.252349818125367">
<ele>142.2</ele>
<time>2024-05-09T12:23:56Z</time>
</trkpt>
<trkpt lat="49.69946287572384" lon="9.252351745963097">
<ele>142.2</ele>
<time>2024-05-09T12:23:57Z</time>
</trkpt>
<trkpt lat="49.69946287572384" lon="9.252349818125367">
<ele>142.2</ele>
<time>2024-05-09T12:23:58Z</time>
</trkpt>
<trkpt lat="49.69946287572384" lon="9.252347890287638">
<ele>142.2</ele>
<time>2024-05-09T12:23:59Z</time>
</trkpt>
<trkpt lat="49.69946287572384" lon="9.252346968278289">
<ele>142.2</ele>
<time>2024-05-09T12:24:00Z</time>
</trkpt>
<trkpt lat="49.69946287572384" lon="9.25234504044056">
<ele>142.2</ele>
<time>2024-05-09T12:24:02Z</time>
</trkpt>
<trkpt lat="49.69946287572384" lon="9.252346968278289">
<ele>142.2</ele>
<time>2024-05-09T12:24:04Z</time>
</trkpt>
<trkpt lat="49.69946287572384" lon="9.252347890287638">
<ele>142.2</ele>
<time>2024-05-09T12:24:05Z</time>
</trkpt>
<trkpt lat="49.69946287572384" lon="9.252349818125367">
<ele>142.2</ele>
<time>2024-05-09T12:24:06Z</time>
</trkpt>
<trkpt lat="49.69946287572384" lon="9.252351745963097">
<ele>142.2</ele>
<time>2024-05-09T12:24:07Z</time>
</trkpt>
<trkpt lat="49.69946287572384" lon="9.252346968278289">
<ele>142.2</ele>
<time>2024-05-09T12:24:08Z</time>
</trkpt>
<trkpt lat="49.69946287572384" lon="9.25234311260283">
<ele>142.2</ele>
<time>2024-05-09T12:24:09Z</time>
</trkpt>
<trkpt lat="49.69946287572384" lon="9.252341268584132">
<ele>142.2</ele>
<time>2024-05-09T12:24:10Z</time>
</trkpt>
<trkpt lat="49.69946287572384" lon="9.25234504044056">
<ele>142.2</ele>
<time>2024-05-09T12:24:11Z</time>
</trkpt>
<trkpt lat="49.69946287572384" lon="9.252346968278289">
<ele>142.2</ele>
<time>2024-05-09T12:24:13Z</time>
</trkpt>
<trkpt lat="49.69946287572384" lon="9.252341268584132">
<ele>142.2</ele>
<time>2024-05-09T12:24:14Z</time>
</trkpt>
<trkpt lat="49.69946287572384" lon="9.252340262755752">
<ele>142.2</ele>
<time>2024-05-09T12:24:16Z</time>
</trkpt>
<trkpt lat="49.69946287572384" lon="9.252341268584132">
<ele>142.4</ele>
<time>2024-05-09T12:24:19Z</time>
</trkpt>
<trkpt lat="49.69946287572384" lon="9.25234311260283">
<ele>142.4</ele>
<time>2024-05-09T12:24:20Z</time>
</trkpt>
<trkpt lat="49.69946287572384" lon="9.252341268584132">
<ele>142.6</ele>
<time>2024-05-09T12:24:21Z</time>
</trkpt>
<trkpt lat="49.69946287572384" lon="9.25234504044056">
<ele>142.6</ele>
<time>2024-05-09T12:24:22Z</time>
</trkpt>
<trkpt lat="49.69946287572384" lon="9.25234311260283">
<ele>142.6</ele>
<time>2024-05-09T12:24:23Z</time>
</trkpt>
<trkpt lat="49.69946287572384" lon="9.25234504044056">
<ele>142.6</ele>
<time>2024-05-09T12:24:28Z</time>
</trkpt>
<trkpt lat="49.69946287572384" lon="9.252346968278289">
<ele>142.8</ele>
<time>2024-05-09T12:24:30Z</time>
</trkpt>
<trkpt lat="49.69945902004838" lon="9.252346968278289">
<ele>142.8</ele>
<time>2024-05-09T12:24:31Z</time>
</trkpt>
<trkpt lat="49.69945902004838" lon="9.252347890287638">
<ele>142.8</ele>
<time>2024-05-09T12:24:32Z</time>
</trkpt>
<trkpt lat="49.69945902004838" lon="9.252346968278289">
<ele>143</ele>
<time>2024-05-09T12:24:33Z</time>
</trkpt>
<trkpt lat="49.69945902004838" lon="9.25234504044056">
<ele>143</ele>
<time>2024-05-09T12:24:34Z</time>
</trkpt>
<trkpt lat="49.69945902004838" lon="9.252346968278289">
<ele>143.2</ele>
<time>2024-05-09T12:24:36Z</time>
</trkpt>
<trkpt lat="49.69945902004838" lon="9.25234504044056">
<ele>143.2</ele>
<time>2024-05-09T12:24:37Z</time>
</trkpt>
<trkpt lat="49.69945902004838" lon="9.252346968278289">
<ele>143.2</ele>
<time>2024-05-09T12:24:38Z</time>
</trkpt>
<trkpt lat="49.69945902004838" lon="9.252347890287638">
<ele>143.2</ele>
<time>2024-05-09T12:24:39Z</time>
</trkpt>
<trkpt lat="49.69945902004838" lon="9.252349818125367">
<ele>143.2</ele>
<time>2024-05-09T12:24:40Z</time>
</trkpt>
<trkpt lat="49.69945902004838" lon="9.252351745963097">
<ele>143.4</ele>
<time>2024-05-09T12:24:41Z</time>
</trkpt>
<trkpt lat="49.69945902004838" lon="9.252349818125367">
<ele>143.4</ele>
<time>2024-05-09T12:24:42Z</time>
</trkpt>
<trkpt lat="49.69945902004838" lon="9.252351745963097">
<ele>143.4</ele>
<time>2024-05-09T12:24:43Z</time>
</trkpt>
<trkpt lat="49.69945902004838" lon="9.252353589981794">
<ele>143.4</ele>
<time>2024-05-09T12:24:44Z</time>
</trkpt>
<trkpt lat="49.69945902004838" lon="9.252351745963097">
<ele>143.4</ele>
<time>2024-05-09T12:24:46Z</time>
</trkpt>
<trkpt lat="49.69945902004838" lon="9.252353589981794">
<ele>143.2</ele>
<time>2024-05-09T12:24:47Z</time>
</trkpt>
<trkpt lat="49.69945902004838" lon="9.252351745963097">
<ele>143.2</ele>
<time>2024-05-09T12:24:50Z</time>
</trkpt>
<trkpt lat="49.69945902004838" lon="9.252347890287638">
<ele>143</ele>
<time>2024-05-09T12:24:51Z</time>
</trkpt>
<trkpt lat="49.69985196366906" lon="9.253713553771377">
<ele>143.6</ele>
<time>2024-05-09T12:24:51Z</time>
</trkpt>
<trkpt lat="49.69985196366906" lon="9.253714559599755">
<ele>143.6</ele>
<time>2024-05-09T12:24:53Z</time>
</trkpt>
<trkpt lat="49.69985196366906" lon="9.253716403618457">
<ele>143.6</ele>
<time>2024-05-09T12:24:55Z</time>
</trkpt>
<trkpt lat="49.69985573552549" lon="9.253718331456184">
<ele>143.6</ele>
<time>2024-05-09T12:24:56Z</time>
</trkpt>
<trkpt lat="49.69985573552549" lon="9.253721181303264">
<ele>143.6</ele>
<time>2024-05-09T12:24:58Z</time>
</trkpt>
<trkpt lat="49.69985573552549" lon="9.253723109140992">
<ele>143.6</ele>
<time>2024-05-09T12:24:59Z</time>
</trkpt>
<trkpt lat="49.69985959120095" lon="9.253723109140992">
<ele>143.6</ele>
<time>2024-05-09T12:25:00Z</time>
</trkpt>
<trkpt lat="49.69985959120095" lon="9.253725036978722">
<ele>143.6</ele>
<time>2024-05-09T12:25:01Z</time>
</trkpt>
<trkpt lat="49.69985959120095" lon="9.25372688099742">
<ele>143.6</ele>
<time>2024-05-09T12:25:03Z</time>
</trkpt>
<trkpt lat="49.699863363057375" lon="9.2537278868258">
<ele>143.6</ele>
<time>2024-05-09T12:25:05Z</time>
</trkpt>
<trkpt lat="49.699863363057375" lon="9.25372981466353">
<ele>143.6</ele>
<time>2024-05-09T12:25:06Z</time>
</trkpt>
<trkpt lat="49.699863363057375" lon="9.253731658682227">
<ele>143.6</ele>
<time>2024-05-09T12:25:07Z</time>
</trkpt>
<trkpt lat="49.699863363057375" lon="9.253733586519957">
<ele>143.6</ele>
<time>2024-05-09T12:25:08Z</time>
</trkpt>
<trkpt lat="49.699863363057375" lon="9.253734508529304">
<ele>143.6</ele>
<time>2024-05-09T12:25:09Z</time>
</trkpt>
<trkpt lat="49.699867218732834" lon="9.253736436367037">
<ele>143.6</ele>
<time>2024-05-09T12:25:10Z</time>
</trkpt>
<trkpt lat="49.699867218732834" lon="9.253738364204764">
<ele>143.6</ele>
<time>2024-05-09T12:25:12Z</time>
</trkpt>
<trkpt lat="49.699867218732834" lon="9.253740292042494">
<ele>143.6</ele>
<time>2024-05-09T12:25:14Z</time>
</trkpt>
<trkpt lat="49.69987099058926" lon="9.253741214051844">
<ele>143.6</ele>
<time>2024-05-09T12:25:15Z</time>
</trkpt>
<trkpt lat="49.69987099058926" lon="9.253743141889572">
<ele>143.6</ele>
<time>2024-05-09T12:25:16Z</time>
</trkpt>
<trkpt lat="49.69987099058926" lon="9.253746913746">
<ele>143.6</ele>
<time>2024-05-09T12:25:17Z</time>
</trkpt>
<trkpt lat="49.69987484626472" lon="9.25374791957438">
<ele>143.6</ele>
<time>2024-05-09T12:25:18Z</time>
</trkpt>
<trkpt lat="49.69987484626472" lon="9.25374984741211">
<ele>143.6</ele>
<time>2024-05-09T12:25:19Z</time>
</trkpt>
<trkpt lat="49.69987484626472" lon="9.253751691430807">
<ele>143.6</ele>
<time>2024-05-09T12:25:20Z</time>
</trkpt>
<trkpt lat="49.69987484626472" lon="9.253753619268537">
<ele>143.6</ele>
<time>2024-05-09T12:25:23Z</time>
</trkpt>
<trkpt lat="49.69987861812115" lon="9.253754541277884">
<ele>143.6</ele>
<time>2024-05-09T12:25:24Z</time>
</trkpt>
<trkpt lat="49.69987861812115" lon="9.253758396953344">
<ele>143.6</ele>
<time>2024-05-09T12:25:25Z</time>
</trkpt>
<trkpt lat="49.699882473796606" lon="9.253761246800424">
<ele>143.6</ele>
<time>2024-05-09T12:25:26Z</time>
</trkpt>
<trkpt lat="49.699882473796606" lon="9.253753619268537">
<ele>143.6</ele>
<time>2024-05-09T12:25:27Z</time>
</trkpt>
<trkpt lat="49.699882473796606" lon="9.25374791957438">
<ele>143.6</ele>
<time>2024-05-09T12:25:28Z</time>
</trkpt>
<trkpt lat="49.699882473796606" lon="9.253740292042494">
<ele>143.6</ele>
<time>2024-05-09T12:25:29Z</time>
</trkpt>
<trkpt lat="49.69987861812115" lon="9.253740292042494">
<ele>143.6</ele>
<time>2024-05-09T12:25:30Z</time>
</trkpt>
<trkpt lat="49.69987484626472" lon="9.253740292042494">
<ele>143.6</ele>
<time>2024-05-09T12:25:31Z</time>
</trkpt>
<trkpt lat="49.69987484626472" lon="9.253736436367037">
<ele>143.6</ele>
<time>2024-05-09T12:25:32Z</time>
</trkpt>
<trkpt lat="49.69987484626472" lon="9.253738364204764">
<ele>143.6</ele>
<time>2024-05-09T12:25:33Z</time>
</trkpt>
<trkpt lat="49.69987484626472" lon="9.253736436367037">
<ele>143.6</ele>
<time>2024-05-09T12:25:34Z</time>
</trkpt>
<trkpt lat="49.69987099058926" lon="9.253736436367037">
<ele>143.6</ele>
<time>2024-05-09T12:25:35Z</time>
</trkpt>
<trkpt lat="49.699867218732834" lon="9.253738364204764">
<ele>143.6</ele>
<time>2024-05-09T12:25:38Z</time>
</trkpt>
<trkpt lat="49.699867218732834" lon="9.253741214051844">
<ele>143.6</ele>
<time>2024-05-09T12:25:40Z</time>
</trkpt>
<trkpt lat="49.699863363057375" lon="9.25374791957438">
<ele>143.6</ele>
<time>2024-05-09T12:25:41Z</time>
</trkpt>
<trkpt lat="49.699863363057375" lon="9.253753619268537">
<ele>143.6</ele>
<time>2024-05-09T12:25:42Z</time>
</trkpt>
<trkpt lat="49.69985959120095" lon="9.253754541277884">
<ele>143.6</ele>
<time>2024-05-09T12:25:43Z</time>
</trkpt>
<trkpt lat="49.69985573552549" lon="9.25374791957438">
<ele>143.6</ele>
<time>2024-05-09T12:25:44Z</time>
</trkpt>
<trkpt lat="49.6998481079936" lon="9.253736436367037">
<ele>143.6</ele>
<time>2024-05-09T12:25:45Z</time>
</trkpt>
<trkpt lat="49.699844336137176" lon="9.25372688099742">
<ele>143.6</ele>
<time>2024-05-09T12:25:46Z</time>
</trkpt>
<trkpt lat="49.69984048046172" lon="9.253723109140992">
<ele>143.6</ele>
<time>2024-05-09T12:25:47Z</time>
</trkpt>
<trkpt lat="49.69983670860529" lon="9.253706932067873">
<ele>143.6</ele>
<time>2024-05-09T12:25:48Z</time>
</trkpt>
<trkpt lat="49.69983670860529" lon="9.253693521022797">
<ele>143.6</ele>
<time>2024-05-09T12:25:49Z</time>
</trkpt>
<trkpt lat="49.69983285292983" lon="9.25366971641779">
<ele>143.6</ele>
<time>2024-05-09T12:25:50Z</time>
</trkpt>
<trkpt lat="49.6998290810734" lon="9.253655383363366">
<ele>143.6</ele>
<time>2024-05-09T12:25:51Z</time>
</trkpt>
<trkpt lat="49.69983285292983" lon="9.253644905984402">
<ele>143.6</ele>
<time>2024-05-09T12:25:52Z</time>
</trkpt>
<trkpt lat="49.6998290810734" lon="9.25363157875836">
<ele>143.6</ele>
<time>2024-05-09T12:25:53Z</time>
</trkpt>
<trkpt lat="49.6998290810734" lon="9.253620095551014">
<ele>143.6</ele>
<time>2024-05-09T12:25:54Z</time>
</trkpt>
<trkpt lat="49.699825225397944" lon="9.253601990640163">
<ele>143.6</ele>
<time>2024-05-09T12:25:55Z</time>
</trkpt>
<trkpt lat="49.699825225397944" lon="9.253581957891583">
<ele>143.6</ele>
<time>2024-05-09T12:25:56Z</time>
</trkpt>
<trkpt lat="49.69982145354152" lon="9.253546670079231">
<ele>143.6</ele>
<time>2024-05-09T12:25:57Z</time>
</trkpt>
<trkpt lat="49.699802342802286" lon="9.253533342853189">
<ele>143.6</ele>
<time>2024-05-09T12:25:58Z</time>
</trkpt>
<trkpt lat="49.699802342802286" lon="9.253515237942338">
<ele>143.6</ele>
<time>2024-05-09T12:25:59Z</time>
</trkpt>
<trkpt lat="49.69979857094586" lon="9.253498055040836">
<ele>143.6</ele>
<time>2024-05-09T12:26:00Z</time>
</trkpt>
<trkpt lat="49.699787087738514" lon="9.253478022292256">
<ele>143.6</ele>
<time>2024-05-09T12:26:01Z</time>
</trkpt>
<trkpt lat="49.699745178222656" lon="9.253457067534328">
<ele>143.6</ele>
<time>2024-05-09T12:26:02Z</time>
</trkpt>
<trkpt lat="49.699722211807966" lon="9.253443656489251">
<ele>143.6</ele>
<time>2024-05-09T12:26:03Z</time>
</trkpt>
<trkpt lat="49.69971843995154" lon="9.253433179110289">
<ele>143.6</ele>
<time>2024-05-09T12:26:04Z</time>
</trkpt>
<trkpt lat="49.699722211807966" lon="9.253423623740671">
<ele>143.6</ele>
<time>2024-05-09T12:26:05Z</time>
</trkpt>
<trkpt lat="49.699726067483425" lon="9.253417924046516">
<ele>143.6</ele>
<time>2024-05-09T12:26:06Z</time>
</trkpt>
<trkpt lat="49.69973746687174" lon="9.25341121852398">
<ele>143.6</ele>
<time>2024-05-09T12:26:07Z</time>
</trkpt>
<trkpt lat="49.699745178222656" lon="9.253397891297936">
<ele>143.6</ele>
<time>2024-05-09T12:26:08Z</time>
</trkpt>
<trkpt lat="49.699745178222656" lon="9.253386491909623">
<ele>143.6</ele>
<time>2024-05-09T12:26:09Z</time>
</trkpt>
<trkpt lat="49.699745178222656" lon="9.253371236845853">
<ele>143.6</ele>
<time>2024-05-09T12:26:10Z</time>
</trkpt>
<trkpt lat="49.699745178222656" lon="9.253356903791428">
<ele>143.6</ele>
<time>2024-05-09T12:26:11Z</time>
</trkpt>
<trkpt lat="49.699745178222656" lon="9.253351204097273">
<ele>143.6</ele>
<time>2024-05-09T12:26:12Z</time>
</trkpt>
<trkpt lat="49.699745178222656" lon="9.25334827043116">
<ele>143.6</ele>
<time>2024-05-09T12:26:13Z</time>
</trkpt>
<trkpt lat="49.699745178222656" lon="9.253343576565385">
<ele>143.6</ele>
<time>2024-05-09T12:26:14Z</time>
</trkpt>
<trkpt lat="49.699745178222656" lon="9.253341648727655">
<ele>143.6</ele>
<time>2024-05-09T12:26:16Z</time>
</trkpt>
<trkpt lat="49.699745178222656" lon="9.253339720889926">
<ele>143.6</ele>
<time>2024-05-09T12:26:18Z</time>
</trkpt>
<trkpt lat="49.699745178222656" lon="9.253337793052197">
<ele>143.6</ele>
<time>2024-05-09T12:26:20Z</time>
</trkpt>
<trkpt lat="49.699745178222656" lon="9.253336871042848">
<ele>143.6</ele>
<time>2024-05-09T12:26:23Z</time>
</trkpt>
<trkpt lat="49.699745178222656" lon="9.253334943205118">
<ele>143.6</ele>
<time>2024-05-09T12:26:24Z</time>
</trkpt>
<trkpt lat="49.699745178222656" lon="9.253333015367389">
<ele>143.6</ele>
<time>2024-05-09T12:26:26Z</time>
</trkpt>
<trkpt lat="49.699745178222656" lon="9.25333209335804">
<ele>143.6</ele>
<time>2024-05-09T12:26:29Z</time>
</trkpt>
<trkpt lat="49.699745178222656" lon="9.25333016552031">
<ele>143.6</ele>
<time>2024-05-09T12:26:30Z</time>
</trkpt>
<trkpt lat="49.6997413225472" lon="9.25333016552031">
<ele>143.6</ele>
<time>2024-05-09T12:26:33Z</time>
</trkpt>
<trkpt lat="49.6997413225472" lon="9.253328321501613">
<ele>143.6</ele>
<time>2024-05-09T12:26:34Z</time>
</trkpt>
<trkpt lat="49.6997413225472" lon="9.253326393663883">
<ele>143.6</ele>
<time>2024-05-09T12:26:36Z</time>
</trkpt>
<trkpt lat="49.69973746687174" lon="9.253324465826154">
<ele>143.6</ele>
<time>2024-05-09T12:26:37Z</time>
</trkpt>
<trkpt lat="49.6997413225472" lon="9.253323543816805">
<ele>143.6</ele>
<time>2024-05-09T12:26:38Z</time>
</trkpt>
<trkpt lat="49.699745178222656" lon="9.253321615979075">
<ele>143.6</ele>
<time>2024-05-09T12:26:40Z</time>
</trkpt>
<trkpt lat="49.699745178222656" lon="9.253323543816805">
<ele>143.6</ele>
<time>2024-05-09T12:26:41Z</time>
</trkpt>
<trkpt lat="49.6997413225472" lon="9.253321615979075">
<ele>143.6</ele>
<time>2024-05-09T12:26:42Z</time>
</trkpt>
<trkpt lat="49.699745178222656" lon="9.253321615979075">
<ele>143.6</ele>
<time>2024-05-09T12:26:44Z</time>
</trkpt>
<trkpt lat="49.6997413225472" lon="9.253321615979075">
<ele>143.6</ele>
<time>2024-05-09T12:26:45Z</time>
</trkpt>
<trkpt lat="49.6997413225472" lon="9.253319688141346">
<ele>143.6</ele>
<time>2024-05-09T12:26:46Z</time>
</trkpt>
<trkpt lat="49.6997413225472" lon="9.253318766131995">
<ele>143.6</ele>
<time>2024-05-09T12:26:48Z</time>
</trkpt>
<trkpt lat="49.6997413225472" lon="9.253319688141346">
<ele>143.6</ele>
<time>2024-05-09T12:26:49Z</time>
</trkpt>
<trkpt lat="49.699745178222656" lon="9.253319688141346">
<ele>143.6</ele>
<time>2024-05-09T12:26:50Z</time>
</trkpt>
<trkpt lat="49.6997413225472" lon="9.253318766131995">
<ele>143.6</ele>
<time>2024-05-09T12:26:51Z</time>
</trkpt>
<trkpt lat="49.6997413225472" lon="9.253316838294268">
<ele>143.6</ele>
<time>2024-05-09T12:26:53Z</time>
</trkpt>
<trkpt lat="49.6997413225472" lon="9.253314910456538">
<ele>143.6</ele>
<time>2024-05-09T12:26:55Z</time>
</trkpt>
<trkpt lat="49.6997413225472" lon="9.253316838294268">
<ele>143.6</ele>
<time>2024-05-09T12:26:58Z</time>
</trkpt>
<trkpt lat="49.699745178222656" lon="9.253316838294268">
<ele>143.6</ele>
<time>2024-05-09T12:26:59Z</time>
</trkpt>
<trkpt lat="49.699745178222656" lon="9.253318766131995">
<ele>143.6</ele>
<time>2024-05-09T12:27:00Z</time>
</trkpt>
<trkpt lat="49.699745178222656" lon="9.253316838294268">
<ele>143.6</ele>
<time>2024-05-09T12:27:02Z</time>
</trkpt>
<trkpt lat="49.699745178222656" lon="9.253318766131995">
<ele>143.6</ele>
<time>2024-05-09T12:27:03Z</time>
</trkpt>
<trkpt lat="49.699745178222656" lon="9.253319688141346">
<ele>143.6</ele>
<time>2024-05-09T12:27:05Z</time>
</trkpt>
<trkpt lat="49.699745178222656" lon="9.253318766131995">
<ele>143.6</ele>
<time>2024-05-09T12:27:07Z</time>
</trkpt>
<trkpt lat="49.699745178222656" lon="9.253319688141346">
<ele>143.6</ele>
<time>2024-05-09T12:27:08Z</time>
</trkpt>
<trkpt lat="49.699745178222656" lon="9.253318766131995">
<ele>143.6</ele>
<time>2024-05-09T12:27:11Z</time>
</trkpt>
<trkpt lat="49.699745178222656" lon="9.253316838294268">
<ele>143.6</ele>
<time>2024-05-09T12:27:12Z</time>
</trkpt>
<trkpt lat="49.699745178222656" lon="9.253312982618809">
<ele>143.6</ele>
<time>2024-05-09T12:27:14Z</time>
</trkpt>
<trkpt lat="49.699745178222656" lon="9.253314910456538">
<ele>143.6</ele>
<time>2024-05-09T12:27:15Z</time>
</trkpt>
<trkpt lat="49.69974895007908" lon="9.253314910456538">
<ele>143.6</ele>
<time>2024-05-09T12:27:16Z</time>
</trkpt>
<trkpt lat="49.699745178222656" lon="9.25331206060946">
<ele>143.6</ele>
<time>2024-05-09T12:27:19Z</time>
</trkpt>
<trkpt lat="49.699745178222656" lon="9.25331013277173">
<ele>143.6</ele>
<time>2024-05-09T12:27:20Z</time>
</trkpt>
<trkpt lat="49.699745178222656" lon="9.253308288753033">
<ele>143.6</ele>
<time>2024-05-09T12:27:23Z</time>
</trkpt>
<trkpt lat="49.699745178222656" lon="9.253306360915303">
<ele>143.6</ele>
<time>2024-05-09T12:27:24Z</time>
</trkpt>
<trkpt lat="49.699745178222656" lon="9.253303511068223">
<ele>143.6</ele>
<time>2024-05-09T12:27:25Z</time>
</trkpt>
<trkpt lat="49.6997413225472" lon="9.253299655392766">
<ele>143.6</ele>
<time>2024-05-09T12:27:26Z</time>
</trkpt>
<trkpt lat="49.6997413225472" lon="9.253298733383415">
<ele>143.6</ele>
<time>2024-05-09T12:27:27Z</time>
</trkpt>
<trkpt lat="49.6997413225472" lon="9.253294877707958">
<ele>143.6</ele>
<time>2024-05-09T12:27:29Z</time>
</trkpt>
<trkpt lat="49.69973746687174" lon="9.25329202786088">
<ele>143.6</ele>
<time>2024-05-09T12:27:30Z</time>
</trkpt>
<trkpt lat="49.69973746687174" lon="9.25329010002315">
<ele>143.6</ele>
<time>2024-05-09T12:27:31Z</time>
</trkpt>
<trkpt lat="49.69973746687174" lon="9.253288256004453">
<ele>143.6</ele>
<time>2024-05-09T12:27:32Z</time>
</trkpt>
<trkpt lat="49.69973369501531" lon="9.253286328166723">
<ele>143.6</ele>
<time>2024-05-09T12:27:33Z</time>
</trkpt>
<trkpt lat="49.69973746687174" lon="9.253285406157374">
<ele>143.6</ele>
<time>2024-05-09T12:27:34Z</time>
</trkpt>
<trkpt lat="49.69973369501531" lon="9.253283478319643">
<ele>143.6</ele>
<time>2024-05-09T12:27:35Z</time>
</trkpt>
<trkpt lat="49.69973369501531" lon="9.253281550481915">
<ele>143.6</ele>
<time>2024-05-09T12:27:36Z</time>
</trkpt>
<trkpt lat="49.69973369501531" lon="9.253279622644186">
<ele>143.6</ele>
<time>2024-05-09T12:27:37Z</time>
</trkpt>
<trkpt lat="49.69973369501531" lon="9.253278700634835">
<ele>143.6</ele>
<time>2024-05-09T12:27:38Z</time>
</trkpt>
<trkpt lat="49.69973369501531" lon="9.253276772797108">
<ele>143.6</ele>
<time>2024-05-09T12:27:39Z</time>
</trkpt>
<trkpt lat="49.69973369501531" lon="9.253274844959378">
<ele>143.6</ele>
<time>2024-05-09T12:27:40Z</time>
</trkpt>
<trkpt lat="49.69973369501531" lon="9.25327300094068">
<ele>143.6</ele>
<time>2024-05-09T12:27:41Z</time>
</trkpt>
<trkpt lat="49.69973369501531" lon="9.2532719951123">
<ele>143.6</ele>
<time>2024-05-09T12:27:43Z</time>
</trkpt>
<trkpt lat="49.69972983933985" lon="9.25327006727457">
<ele>143.6</ele>
<time>2024-05-09T12:27:46Z</time>
</trkpt>
<trkpt lat="49.69972983933985" lon="9.253268223255873">
<ele>143.6</ele>
<time>2024-05-09T12:27:48Z</time>
</trkpt>
<trkpt lat="49.69972983933985" lon="9.253266295418143">
<ele>143.6</ele>
<time>2024-05-09T12:27:49Z</time>
</trkpt>
<trkpt lat="49.69972983933985" lon="9.253265373408794">
<ele>143.6</ele>
<time>2024-05-09T12:27:52Z</time>
</trkpt>
<trkpt lat="49.69972983933985" lon="9.253263445571063">
<ele>143.6</ele>
<time>2024-05-09T12:27:53Z</time>
</trkpt>
<trkpt lat="49.69973369501531" lon="9.253258667886255">
<ele>143.6</ele>
<time>2024-05-09T12:27:56Z</time>
</trkpt>
<trkpt lat="49.69973369501531" lon="9.253256740048528">
<ele>143.6</ele>
<time>2024-05-09T12:27:57Z</time>
</trkpt>
<trkpt lat="49.69973369501531" lon="9.2532529681921">
<ele>143.6</ele>
<time>2024-05-09T12:27:58Z</time>
</trkpt>
<trkpt lat="49.69973369501531" lon="9.253250118345022">
<ele>143.6</ele>
<time>2024-05-09T12:27:59Z</time>
</trkpt>
<trkpt lat="49.6997413225472" lon="9.253248190507293">
<ele>143.6</ele>
<time>2024-05-09T12:28:00Z</time>
</trkpt>
<trkpt lat="49.699745178222656" lon="9.253246262669563">
<ele>143.6</ele>
<time>2024-05-09T12:28:01Z</time>
</trkpt>
<trkpt lat="49.699745178222656" lon="9.253243412822483">
<ele>143.6</ele>
<time>2024-05-09T12:28:03Z</time>
</trkpt>
<trkpt lat="49.69974895007908" lon="9.253243412822483">
<ele>143.6</ele>
<time>2024-05-09T12:28:04Z</time>
</trkpt>
<trkpt lat="49.69974895007908" lon="9.253239557147026">
<ele>143.6</ele>
<time>2024-05-09T12:28:05Z</time>
</trkpt>
<trkpt lat="49.69974895007908" lon="9.253238635137675">
<ele>143.6</ele>
<time>2024-05-09T12:28:06Z</time>
</trkpt>
<trkpt lat="49.69975280575454" lon="9.25323192961514">
<ele>143.6</ele>
<time>2024-05-09T12:28:07Z</time>
</trkpt>
<trkpt lat="49.69975280575454" lon="9.253225307911634">
<ele>143.6</ele>
<time>2024-05-09T12:28:08Z</time>
</trkpt>
<trkpt lat="49.69975280575454" lon="9.253219524398446">
<ele>143.6</ele>
<time>2024-05-09T12:28:09Z</time>
</trkpt>
<trkpt lat="49.69975280575454" lon="9.253216674551368">
<ele>143.6</ele>
<time>2024-05-09T12:28:10Z</time>
</trkpt>
<trkpt lat="49.69974895007908" lon="9.253216674551368">
<ele>143.6</ele>
<time>2024-05-09T12:28:11Z</time>
</trkpt>
<trkpt lat="49.69974895007908" lon="9.25321483053267">
<ele>143.6</ele>
<time>2024-05-09T12:28:12Z</time>
</trkpt>
<trkpt lat="49.69974895007908" lon="9.25321189686656">
<ele>143.6</ele>
<time>2024-05-09T12:28:13Z</time>
</trkpt>
<trkpt lat="49.69975280575454" lon="9.253203347325323">
<ele>143.6</ele>
<time>2024-05-09T12:28:14Z</time>
</trkpt>
<trkpt lat="49.69975280575454" lon="9.253198569640515">
<ele>143.6</ele>
<time>2024-05-09T12:28:15Z</time>
</trkpt>
<trkpt lat="49.69975657761097" lon="9.25319286994636">
<ele>143.6</ele>
<time>2024-05-09T12:28:16Z</time>
</trkpt>
<trkpt lat="49.69976043328643" lon="9.253190020099282">
<ele>143.6</ele>
<time>2024-05-09T12:28:17Z</time>
</trkpt>
<trkpt lat="49.699764205142856" lon="9.253185242414474">
<ele>143.6</ele>
<time>2024-05-09T12:28:18Z</time>
</trkpt>
<trkpt lat="49.699768060818315" lon="9.253181386739016">
<ele>143.6</ele>
<time>2024-05-09T12:28:19Z</time>
</trkpt>
<trkpt lat="49.699768060818315" lon="9.253183314576743">
<ele>143.6</ele>
<time>2024-05-09T12:28:20Z</time>
</trkpt>
<trkpt lat="49.699768060818315" lon="9.253179542720318">
<ele>143.6</ele>
<time>2024-05-09T12:28:21Z</time>
</trkpt>
<trkpt lat="49.699768060818315" lon="9.25317283719778">
<ele>143.6</ele>
<time>2024-05-09T12:28:22Z</time>
</trkpt>
<trkpt lat="49.69977183267474" lon="9.253169987350702">
<ele>143.6</ele>
<time>2024-05-09T12:28:23Z</time>
</trkpt>
<trkpt lat="49.699768060818315" lon="9.253160431981089">
<ele>143.6</ele>
<time>2024-05-09T12:28:24Z</time>
</trkpt>
<trkpt lat="49.699764205142856" lon="9.25315666012466">
<ele>143.6</ele>
<time>2024-05-09T12:28:25Z</time>
</trkpt>
<trkpt lat="49.699764205142856" lon="9.25315473228693">
<ele>143.6</ele>
<time>2024-05-09T12:28:26Z</time>
</trkpt>
<trkpt lat="49.699764205142856" lon="9.2531528044492">
<ele>143.6</ele>
<time>2024-05-09T12:28:27Z</time>
</trkpt>
<trkpt lat="49.699764205142856" lon="9.253147104755044">
<ele>143.6</ele>
<time>2024-05-09T12:28:28Z</time>
</trkpt>
<trkpt lat="49.69976043328643" lon="9.253141321241856">
<ele>143.6</ele>
<time>2024-05-09T12:28:29Z</time>
</trkpt>
<trkpt lat="49.69976043328643" lon="9.253138471394776">
<ele>143.6</ele>
<time>2024-05-09T12:28:30Z</time>
</trkpt>
<trkpt lat="49.69976043328643" lon="9.25313469953835">
<ele>143.6</ele>
<time>2024-05-09T12:28:31Z</time>
</trkpt>
<trkpt lat="49.69976043328643" lon="9.253129921853542">
<ele>143.6</ele>
<time>2024-05-09T12:28:32Z</time>
</trkpt>
<trkpt lat="49.699764205142856" lon="9.253129921853542">
<ele>143.6</ele>
<time>2024-05-09T12:28:34Z</time>
</trkpt>
<trkpt lat="49.699764205142856" lon="9.253127994015813">
<ele>143.6</ele>
<time>2024-05-09T12:28:35Z</time>
</trkpt>
<trkpt lat="49.699764205142856" lon="9.253127072006464">
<ele>143.6</ele>
<time>2024-05-09T12:28:36Z</time>
</trkpt>
<trkpt lat="49.699764205142856" lon="9.253121372312307">
<ele>143.6</ele>
<time>2024-05-09T12:28:37Z</time>
</trkpt>
<trkpt lat="49.699764205142856" lon="9.2531165946275">
<ele>143.6</ele>
<time>2024-05-09T12:28:38Z</time>
</trkpt>
<trkpt lat="49.699764205142856" lon="9.25311374478042">
<ele>143.6</ele>
<time>2024-05-09T12:28:39Z</time>
</trkpt>
<trkpt lat="49.699764205142856" lon="9.253107961267231">
<ele>143.6</ele>
<time>2024-05-09T12:28:40Z</time>
</trkpt>
<trkpt lat="49.699764205142856" lon="9.253109889104962">
<ele>143.6</ele>
<time>2024-05-09T12:28:41Z</time>
</trkpt>
<trkpt lat="49.699768060818315" lon="9.253109889104962">
<ele>143.6</ele>
<time>2024-05-09T12:28:42Z</time>
</trkpt>
<trkpt lat="49.69977183267474" lon="9.25311466678977">
<ele>143.6</ele>
<time>2024-05-09T12:28:43Z</time>
</trkpt>
<trkpt lat="49.6997756883502" lon="9.25311374478042">
<ele>143.6</ele>
<time>2024-05-09T12:28:44Z</time>
</trkpt>
<trkpt lat="49.69978331588209" lon="9.253107961267231">
<ele>143.6</ele>
<time>2024-05-09T12:28:45Z</time>
</trkpt>
<trkpt lat="49.69978331588209" lon="9.253100333735349">
<ele>143.6</ele>
<time>2024-05-09T12:28:46Z</time>
</trkpt>
<trkpt lat="49.69979094341397" lon="9.25309656187892">
<ele>143.6</ele>
<time>2024-05-09T12:28:47Z</time>
</trkpt>
<trkpt lat="49.6997947152704" lon="9.253087928518651">
<ele>143.6</ele>
<time>2024-05-09T12:28:48Z</time>
</trkpt>
<trkpt lat="49.69979857094586" lon="9.253081306815147">
<ele>143.6</ele>
<time>2024-05-09T12:28:49Z</time>
</trkpt>
<trkpt lat="49.699802342802286" lon="9.25307460129261">
<ele>143.6</ele>
<time>2024-05-09T12:28:50Z</time>
</trkpt>
<trkpt lat="49.699806198477745" lon="9.253063201904297">
<ele>143.6</ele>
<time>2024-05-09T12:28:51Z</time>
</trkpt>
<trkpt lat="49.699806198477745" lon="9.253065045922996">
<ele>143.6</ele>
<time>2024-05-09T12:28:52Z</time>
</trkpt>
<trkpt lat="49.69980997033417" lon="9.253061274066567">
<ele>143.6</ele>
<time>2024-05-09T12:28:53Z</time>
</trkpt>
<trkpt lat="49.699806198477745" lon="9.253060268238189">
<ele>143.6</ele>
<time>2024-05-09T12:28:54Z</time>
</trkpt>
<trkpt lat="49.699806198477745" lon="9.253058424219487">
<ele>143.6</ele>
<time>2024-05-09T12:28:55Z</time>
</trkpt>
<trkpt lat="49.699806198477745" lon="9.25305364653468">
<ele>143.6</ele>
<time>2024-05-09T12:28:56Z</time>
</trkpt>
<trkpt lat="49.699806198477745" lon="9.253051718696952">
<ele>143.6</ele>
<time>2024-05-09T12:28:57Z</time>
</trkpt>
<trkpt lat="49.699802342802286" lon="9.253047863021491">
<ele>143.6</ele>
<time>2024-05-09T12:29:00Z</time>
</trkpt>
<trkpt lat="49.699802342802286" lon="9.253045013174416">
<ele>143.6</ele>
<time>2024-05-09T12:29:01Z</time>
</trkpt>
<trkpt lat="49.699802342802286" lon="9.253043169155715">
<ele>143.6</ele>
<time>2024-05-09T12:29:02Z</time>
</trkpt>
<trkpt lat="49.699802342802286" lon="9.253045013174416">
<ele>143.6</ele>
<time>2024-05-09T12:29:03Z</time>
</trkpt>
<trkpt lat="49.69979857094586" lon="9.253043169155715">
<ele>143.6</ele>
<time>2024-05-09T12:29:04Z</time>
</trkpt>
<trkpt lat="49.69979857094586" lon="9.253041241317987">
<ele>143.6</ele>
<time>2024-05-09T12:29:05Z</time>
</trkpt>
<trkpt lat="49.69979857094586" lon="9.25303646363318">
<ele>143.6</ele>
<time>2024-05-09T12:29:06Z</time>
</trkpt>
<trkpt lat="49.69979857094586" lon="9.25303453579545">
<ele>143.6</ele>
<time>2024-05-09T12:29:07Z</time>
</trkpt>
<trkpt lat="49.699802342802286" lon="9.253031685948372">
<ele>143.6</ele>
<time>2024-05-09T12:29:08Z</time>
</trkpt>
<trkpt lat="49.699802342802286" lon="9.253029758110642">
<ele>143.6</ele>
<time>2024-05-09T12:29:09Z</time>
</trkpt>
<trkpt lat="49.699806198477745" lon="9.253024980425836">
<ele>143.6</ele>
<time>2024-05-09T12:29:11Z</time>
</trkpt>
<trkpt lat="49.699806198477745" lon="9.25302028656006">
<ele>143.6</ele>
<time>2024-05-09T12:29:12Z</time>
</trkpt>
<trkpt lat="49.699806198477745" lon="9.2530164308846">
<ele>143.6</ele>
<time>2024-05-09T12:29:13Z</time>
</trkpt>
<trkpt lat="49.699806198477745" lon="9.25301358103752">
<ele>143.6</ele>
<time>2024-05-09T12:29:14Z</time>
</trkpt>
<trkpt lat="49.699806198477745" lon="9.253007881343365">
<ele>143.6</ele>
<time>2024-05-09T12:29:15Z</time>
</trkpt>
<trkpt lat="49.699806198477745" lon="9.25299639813602">
<ele>143.6</ele>
<time>2024-05-09T12:29:16Z</time>
</trkpt>
<trkpt lat="49.699806198477745" lon="9.252988770604134">
<ele>143.6</ele>
<time>2024-05-09T12:29:17Z</time>
</trkpt>
<trkpt lat="49.69979857094586" lon="9.2529802210629">
<ele>143.6</ele>
<time>2024-05-09T12:29:18Z</time>
</trkpt>
<trkpt lat="49.69979857094586" lon="9.25297544337809">
<ele>143.6</ele>
<time>2024-05-09T12:29:19Z</time>
</trkpt>
<trkpt lat="49.69979857094586" lon="9.25297351554036">
<ele>143.6</ele>
<time>2024-05-09T12:29:20Z</time>
</trkpt>
<trkpt lat="49.69979857094586" lon="9.252968737855554">
<ele>143.6</ele>
<time>2024-05-09T12:29:21Z</time>
</trkpt>
<trkpt lat="49.6997947152704" lon="9.252963038161395">
<ele>143.6</ele>
<time>2024-05-09T12:29:22Z</time>
</trkpt>
<trkpt lat="49.69979094341397" lon="9.25295541062951">
<ele>143.6</ele>
<time>2024-05-09T12:29:23Z</time>
</trkpt>
<trkpt lat="49.699787087738514" lon="9.25295348279178">
<ele>143.6</ele>
<time>2024-05-09T12:29:24Z</time>
</trkpt>
<trkpt lat="49.699787087738514" lon="9.252948705106974">
<ele>143.6</ele>
<time>2024-05-09T12:29:25Z</time>
</trkpt>
<trkpt lat="49.69978331588209" lon="9.252944933250546">
<ele>143.6</ele>
<time>2024-05-09T12:29:26Z</time>
</trkpt>
<trkpt lat="49.69978331588209" lon="9.252943005412815">
<ele>143.6</ele>
<time>2024-05-09T12:29:27Z</time>
</trkpt>
<trkpt lat="49.699787087738514" lon="9.252942083403468">
<ele>143.6</ele>
<time>2024-05-09T12:29:28Z</time>
</trkpt>
<trkpt lat="49.699787087738514" lon="9.25293629989028">
<ele>143.6</ele>
<time>2024-05-09T12:29:29Z</time>
</trkpt>
<trkpt lat="49.69979094341397" lon="9.252935377880933">
<ele>143.6</ele>
<time>2024-05-09T12:29:31Z</time>
</trkpt>
<trkpt lat="49.69979094341397" lon="9.2529334500432">
<ele>143.6</ele>
<time>2024-05-09T12:29:33Z</time>
</trkpt>
<trkpt lat="49.69979857094586" lon="9.25293629989028">
<ele>143.6</ele>
<time>2024-05-09T12:29:35Z</time>
</trkpt>
<trkpt lat="49.699806198477745" lon="9.2529334500432">
<ele>143.6</ele>
<time>2024-05-09T12:29:36Z</time>
</trkpt>
<trkpt lat="49.69980997033417" lon="9.252928672358394">
<ele>143.6</ele>
<time>2024-05-09T12:29:37Z</time>
</trkpt>
<trkpt lat="49.69981382600963" lon="9.252926744520664">
<ele>143.6</ele>
<time>2024-05-09T12:29:38Z</time>
</trkpt>
<trkpt lat="49.69982145354152" lon="9.252922050654888">
<ele>143.6</ele>
<time>2024-05-09T12:29:39Z</time>
</trkpt>
<trkpt lat="49.6998290810734" lon="9.25291819497943">
<ele>143.6</ele>
<time>2024-05-09T12:29:40Z</time>
</trkpt>
<trkpt lat="49.699844336137176" lon="9.252902017906308">
<ele>143.6</ele>
<time>2024-05-09T12:29:41Z</time>
</trkpt>
<trkpt lat="49.69985196366906" lon="9.252902017906308">
<ele>143.6</ele>
<time>2024-05-09T12:29:42Z</time>
</trkpt>
<trkpt lat="49.69985959120095" lon="9.252906795591116">
<ele>143.6</ele>
<time>2024-05-09T12:29:43Z</time>
</trkpt>
<trkpt lat="49.699863363057375" lon="9.25291341729462">
<ele>143.6</ele>
<time>2024-05-09T12:29:44Z</time>
</trkpt>
<trkpt lat="49.699863363057375" lon="9.252922050654888">
<ele>143.6</ele>
<time>2024-05-09T12:29:45Z</time>
</trkpt>
<trkpt lat="49.699867218732834" lon="9.25292012281716">
<ele>143.6</ele>
<time>2024-05-09T12:29:46Z</time>
</trkpt>
<trkpt lat="49.699867218732834" lon="9.252922050654888">
<ele>143.6</ele>
<time>2024-05-09T12:29:47Z</time>
</trkpt>
<trkpt lat="49.699867218732834" lon="9.25292012281716">
<ele>143.6</ele>
<time>2024-05-09T12:29:48Z</time>
</trkpt>
<trkpt lat="49.699867218732834" lon="9.2529162671417">
<ele>143.6</ele>
<time>2024-05-09T12:29:49Z</time>
</trkpt>
<trkpt lat="49.69987099058926" lon="9.252911489456892">
<ele>143.6</ele>
<time>2024-05-09T12:29:50Z</time>
</trkpt>
<trkpt lat="49.69987099058926" lon="9.252908639609814">
<ele>143.6</ele>
<time>2024-05-09T12:29:51Z</time>
</trkpt>
<trkpt lat="49.699867218732834" lon="9.252902017906308">
<ele>143.6</ele>
<time>2024-05-09T12:29:52Z</time>
</trkpt>
<trkpt lat="49.69987484626472" lon="9.252906795591116">
<ele>143.6</ele>
<time>2024-05-09T12:29:53Z</time>
</trkpt>
<trkpt lat="49.69987861812115" lon="9.252906795591116">
<ele>143.6</ele>
<time>2024-05-09T12:29:54Z</time>
</trkpt>
<trkpt lat="49.69988624565303" lon="9.252902939915655">
<ele>143.6</ele>
<time>2024-05-09T12:29:55Z</time>
</trkpt>
<trkpt lat="49.69989010132849" lon="9.252906795591116">
<ele>143.6</ele>
<time>2024-05-09T12:29:56Z</time>
</trkpt>
<trkpt lat="49.69989772886038" lon="9.252902939915655">
<ele>143.6</ele>
<time>2024-05-09T12:29:57Z</time>
</trkpt>
<trkpt lat="49.699905356392264" lon="9.252844769507648">
<ele>143.6</ele>
<time>2024-05-09T12:29:58Z</time>
</trkpt>
<trkpt lat="49.69993209466338" lon="9.25281710922718">
<ele>143.6</ele>
<time>2024-05-09T12:29:59Z</time>
</trkpt>
<trkpt lat="49.69993972219527" lon="9.25275701098144">
<ele>143.6</ele>
<time>2024-05-09T12:30:00Z</time>
</trkpt>
<trkpt lat="49.699947349727154" lon="9.252708395943046">
<ele>143.6</ele>
<time>2024-05-09T12:30:01Z</time>
</trkpt>
<trkpt lat="49.69995874911547" lon="9.252683585509658">
<ele>143.6</ele>
<time>2024-05-09T12:30:02Z</time>
</trkpt>
<trkpt lat="49.69995874911547" lon="9.252634970471265">
<ele>143.6</ele>
<time>2024-05-09T12:30:03Z</time>
</trkpt>
<trkpt lat="49.699981631711125" lon="9.252594904974105">
<ele>143.6</ele>
<time>2024-05-09T12:30:04Z</time>
</trkpt>
<trkpt lat="49.70000074245036" lon="9.252551989629865">
<ele>143.6</ele>
<time>2024-05-09T12:30:05Z</time>
</trkpt>
<trkpt lat="49.70001214183867" lon="9.252491891384125">
<ele>143.6</ele>
<time>2024-05-09T12:30:06Z</time>
</trkpt>
<trkpt lat="49.70003888010979" lon="9.252438498660922">
<ele>143.6</ele>
<time>2024-05-09T12:30:07Z</time>
</trkpt>
<trkpt lat="49.70004650764167" lon="9.252387033775449">
<ele>143.6</ele>
<time>2024-05-09T12:30:08Z</time>
</trkpt>
<trkpt lat="49.70005413517356" lon="9.252329785376787">
<ele>143.6</ele>
<time>2024-05-09T12:30:09Z</time>
</trkpt>
<trkpt lat="49.700061762705445" lon="9.252271614968777">
<ele>143.6</ele>
<time>2024-05-09T12:30:10Z</time>
</trkpt>
<trkpt lat="49.70006553456187" lon="9.252215372398496">
<ele>143.6</ele>
<time>2024-05-09T12:30:11Z</time>
</trkpt>
<trkpt lat="49.70006553456187" lon="9.252161979675291">
<ele>143.6</ele>
<time>2024-05-09T12:30:12Z</time>
</trkpt>
<trkpt lat="49.70006553456187" lon="9.25210950896144">
<ele>143.6</ele>
<time>2024-05-09T12:30:13Z</time>
</trkpt>
<trkpt lat="49.70006939023733" lon="9.25204848870635">
<ele>143.6</ele>
<time>2024-05-09T12:30:14Z</time>
</trkpt>
<trkpt lat="49.70007701776922" lon="9.25200842320919">
<ele>143.6</ele>
<time>2024-05-09T12:30:15Z</time>
</trkpt>
<trkpt lat="49.700061762705445" lon="9.251997945830226">
<ele>143.6</ele>
<time>2024-05-09T12:30:16Z</time>
</trkpt>
<trkpt lat="49.7000502794981" lon="9.25194832496345">
<ele>143.4</ele>
<time>2024-05-09T12:30:17Z</time>
</trkpt>
<trkpt lat="49.70004650764167" lon="9.251903481781484">
<ele>143.4</ele>
<time>2024-05-09T12:30:18Z</time>
</trkpt>
<trkpt lat="49.70004650764167" lon="9.251856794580815">
<ele>143.2</ele>
<time>2024-05-09T12:30:19Z</time>
</trkpt>
<trkpt lat="49.700042651966214" lon="9.251814801245928">
<ele>143.2</ele>
<time>2024-05-09T12:30:20Z</time>
</trkpt>
<trkpt lat="49.700042651966214" lon="9.251772807911038">
<ele>143</ele>
<time>2024-05-09T12:30:21Z</time>
</trkpt>
<trkpt lat="49.70004650764167" lon="9.25173182040453">
<ele>142.8</ele>
<time>2024-05-09T12:30:22Z</time>
</trkpt>
<trkpt lat="49.70004650764167" lon="9.251686977222562">
<ele>142.6</ele>
<time>2024-05-09T12:30:23Z</time>
</trkpt>
<trkpt lat="49.700042651966214" lon="9.251641212031243">
<ele>142.4</ele>
<time>2024-05-09T12:30:24Z</time>
</trkpt>
<trkpt lat="49.70004650764167" lon="9.251589747145772">
<ele>142.2</ele>
<time>2024-05-09T12:30:25Z</time>
</trkpt>
<trkpt lat="49.70004650764167" lon="9.251535348594189">
<ele>142</ele>
<time>2024-05-09T12:30:26Z</time>
</trkpt>
<trkpt lat="49.70004650764167" lon="9.25147625617683">
<ele>141.8</ele>
<time>2024-05-09T12:30:27Z</time>
</trkpt>
<trkpt lat="49.70004650764167" lon="9.251428563147783">
<ele>141.6</ele>
<time>2024-05-09T12:30:28Z</time>
</trkpt>
<trkpt lat="49.700042651966214" lon="9.251379948109388">
<ele>141.4</ele>
<time>2024-05-09T12:30:29Z</time>
</trkpt>
<trkpt lat="49.70003502443433" lon="9.251333177089691">
<ele>141.4</ele>
<time>2024-05-09T12:30:30Z</time>
</trkpt>
<trkpt lat="49.70003502443433" lon="9.251290261745453">
<ele>141.4</ele>
<time>2024-05-09T12:30:31Z</time>
</trkpt>
<trkpt lat="49.70002739690244" lon="9.251241646707058">
<ele>141.2</ele>
<time>2024-05-09T12:30:32Z</time>
</trkpt>
<trkpt lat="49.70002739690244" lon="9.251199653372169">
<ele>141.2</ele>
<time>2024-05-09T12:30:33Z</time>
</trkpt>
<trkpt lat="49.70001976937056" lon="9.251152966171505">
<ele>141.2</ele>
<time>2024-05-09T12:30:34Z</time>
</trkpt>
<trkpt lat="49.70000836998224" lon="9.2510995734483">
<ele>141.2</ele>
<time>2024-05-09T12:30:35Z</time>
</trkpt>
<trkpt lat="49.700004514306784" lon="9.251052802428603">
<ele>141.2</ele>
<time>2024-05-09T12:30:36Z</time>
</trkpt>
<trkpt lat="49.70000074245036" lon="9.251016592606902">
<ele>141.2</ele>
<time>2024-05-09T12:30:37Z</time>
</trkpt>
<trkpt lat="49.70000074245036" lon="9.250989854335783">
<ele>141.4</ele>
<time>2024-05-09T12:30:38Z</time>
</trkpt>
<trkpt lat="49.69999311491847" lon="9.250954566523433">
<ele>141.4</ele>
<time>2024-05-09T12:30:39Z</time>
</trkpt>
<trkpt lat="49.699981631711125" lon="9.25092028453946">
<ele>141.4</ele>
<time>2024-05-09T12:30:40Z</time>
</trkpt>
<trkpt lat="49.69997400417924" lon="9.250884996727107">
<ele>141.6</ele>
<time>2024-05-09T12:30:41Z</time>
</trkpt>
<trkpt lat="49.69996637664735" lon="9.25084208138287">
<ele>141.6</ele>
<time>2024-05-09T12:30:42Z</time>
</trkpt>
<trkpt lat="49.699962604790926" lon="9.250806793570518">
<ele>141.6</ele>
<time>2024-05-09T12:30:43Z</time>
</trkpt>
<trkpt lat="49.69995497725904" lon="9.250776283442974">
<ele>141.4</ele>
<time>2024-05-09T12:30:44Z</time>
</trkpt>
<trkpt lat="49.699947349727154" lon="9.25074669532478">
<ele>141.4</ele>
<time>2024-05-09T12:30:45Z</time>
</trkpt>
<trkpt lat="49.699947349727154" lon="9.250715179368854">
<ele>141.4</ele>
<time>2024-05-09T12:30:46Z</time>
</trkpt>
<trkpt lat="49.699947349727154" lon="9.250691374763846">
<ele>141.2</ele>
<time>2024-05-09T12:30:47Z</time>
</trkpt>
<trkpt lat="49.699943494051695" lon="9.250658014789224">
<ele>141.2</ele>
<time>2024-05-09T12:30:48Z</time>
</trkpt>
<trkpt lat="49.699943494051695" lon="9.250621721148493">
<ele>141</ele>
<time>2024-05-09T12:30:49Z</time>
</trkpt>
<trkpt lat="49.699943494051695" lon="9.250588361173868">
<ele>141</ele>
<time>2024-05-09T12:30:50Z</time>
</trkpt>
<trkpt lat="49.69993972219527" lon="9.250555001199244">
<ele>141</ele>
<time>2024-05-09T12:30:51Z</time>
</trkpt>
<trkpt lat="49.69993586651981" lon="9.250519713386891">
<ele>140.8</ele>
<time>2024-05-09T12:30:52Z</time>
</trkpt>
<trkpt lat="49.69993586651981" lon="9.25048534758389">
<ele>140.8</ele>
<time>2024-05-09T12:30:53Z</time>
</trkpt>
<trkpt lat="49.699943494051695" lon="9.250456765294077">
<ele>140.8</ele>
<time>2024-05-09T12:30:54Z</time>
</trkpt>
<trkpt lat="49.69995112158358" lon="9.250421477481725">
<ele>140.6</ele>
<time>2024-05-09T12:30:55Z</time>
</trkpt>
<trkpt lat="49.69995497725904" lon="9.250379484146832">
<ele>140.6</ele>
<time>2024-05-09T12:30:56Z</time>
</trkpt>
<trkpt lat="49.69995497725904" lon="9.250343274325132">
<ele>140.6</ele>
<time>2024-05-09T12:30:57Z</time>
</trkpt>
<trkpt lat="49.699962604790926" lon="9.250301280990245">
<ele>140.4</ele>
<time>2024-05-09T12:30:58Z</time>
</trkpt>
<trkpt lat="49.69996637664735" lon="9.250253671780229">
<ele>140.4</ele>
<time>2024-05-09T12:30:59Z</time>
</trkpt>
<trkpt lat="49.699962604790926" lon="9.250206900760531">
<ele>140.2</ele>
<time>2024-05-09T12:31:00Z</time>
</trkpt>
<trkpt lat="49.699962604790926" lon="9.250156357884409">
<ele>140.2</ele>
<time>2024-05-09T12:31:01Z</time>
</trkpt>
<trkpt lat="49.69995874911547" lon="9.250106737017632">
<ele>140</ele>
<time>2024-05-09T12:31:02Z</time>
</trkpt>
<trkpt lat="49.69995497725904" lon="9.2500514164567">
<ele>140</ele>
<time>2024-05-09T12:31:03Z</time>
</trkpt>
<trkpt lat="49.69995874911547" lon="9.249998023733497">
<ele>140</ele>
<time>2024-05-09T12:31:04Z</time>
</trkpt>
<trkpt lat="49.69995874911547" lon="9.249946558848023">
<ele>140</ele>
<time>2024-05-09T12:31:05Z</time>
</trkpt>
<trkpt lat="49.69995497725904" lon="9.249903643503783">
<ele>140.2</ele>
<time>2024-05-09T12:31:06Z</time>
</trkpt>
<trkpt lat="49.69995497725904" lon="9.249861650168896">
<ele>140.2</ele>
<time>2024-05-09T12:31:07Z</time>
</trkpt>
<trkpt lat="49.69995112158358" lon="9.249826362356544">
<ele>140.4</ele>
<time>2024-05-09T12:31:08Z</time>
</trkpt>
<trkpt lat="49.699947349727154" lon="9.24979300238192">
<ele>140.4</ele>
<time>2024-05-09T12:31:09Z</time>
</trkpt>
<trkpt lat="49.699943494051695" lon="9.249761570245028">
<ele>140.6</ele>
<time>2024-05-09T12:31:10Z</time>
</trkpt>
<trkpt lat="49.699943494051695" lon="9.24973483197391">
<ele>140.6</ele>
<time>2024-05-09T12:31:11Z</time>
</trkpt>
<trkpt lat="49.699943494051695" lon="9.249708093702791">
<ele>140.8</ele>
<time>2024-05-09T12:31:12Z</time>
</trkpt>
<trkpt lat="49.699943494051695" lon="9.249681439250708">
<ele>140.8</ele>
<time>2024-05-09T12:31:13Z</time>
</trkpt>
<trkpt lat="49.699943494051695" lon="9.249651851132512">
<ele>140.8</ele>
<time>2024-05-09T12:31:14Z</time>
</trkpt>
<trkpt lat="49.699943494051695" lon="9.24962041899562">
<ele>140.8</ele>
<time>2024-05-09T12:31:15Z</time>
</trkpt>
<trkpt lat="49.699943494051695" lon="9.249589908868074">
<ele>140.8</ele>
<time>2024-05-09T12:31:16Z</time>
</trkpt>
<trkpt lat="49.699943494051695" lon="9.249563170596955">
<ele>140.8</ele>
<time>2024-05-09T12:31:17Z</time>
</trkpt>
<trkpt lat="49.69993972219527" lon="9.249533582478762">
<ele>140.8</ele>
<time>2024-05-09T12:31:18Z</time>
</trkpt>
<trkpt lat="49.69993972219527" lon="9.249506928026676">
<ele>141</ele>
<time>2024-05-09T12:31:19Z</time>
</trkpt>
<trkpt lat="49.69993586651981" lon="9.24948018975556">
<ele>141</ele>
<time>2024-05-09T12:31:20Z</time>
</trkpt>
<trkpt lat="49.69993586651981" lon="9.249453535303472">
<ele>141</ele>
<time>2024-05-09T12:31:21Z</time>
</trkpt>
<trkpt lat="49.69993209466338" lon="9.249426797032356">
<ele>141</ele>
<time>2024-05-09T12:31:22Z</time>
</trkpt>
<trkpt lat="49.69993209466338" lon="9.249396286904812">
<ele>140.8</ele>
<time>2024-05-09T12:31:23Z</time>
</trkpt>
<trkpt lat="49.69993586651981" lon="9.249364770948889">
<ele>140.8</ele>
<time>2024-05-09T12:31:24Z</time>
</trkpt>
<trkpt lat="49.69993586651981" lon="9.249335266649725">
<ele>140.6</ele>
<time>2024-05-09T12:31:25Z</time>
</trkpt>
<trkpt lat="49.69993586651981" lon="9.24930475652218">
<ele>140.4</ele>
<time>2024-05-09T12:31:26Z</time>
</trkpt>
<trkpt lat="49.69993586651981" lon="9.249275168403983">
<ele>140.4</ele>
<time>2024-05-09T12:31:27Z</time>
</trkpt>
<trkpt lat="49.69993209466338" lon="9.249239880591633">
<ele>140.4</ele>
<time>2024-05-09T12:31:28Z</time>
</trkpt>
<trkpt lat="49.69993209466338" lon="9.249206520617008">
<ele>140.2</ele>
<time>2024-05-09T12:31:29Z</time>
</trkpt>
<trkpt lat="49.69993209466338" lon="9.249175004661083">
<ele>140</ele>
<time>2024-05-09T12:31:30Z</time>
</trkpt>
<trkpt lat="49.69993209466338" lon="9.249137872830032">
<ele>140</ele>
<time>2024-05-09T12:31:31Z</time>
</trkpt>
<trkpt lat="49.69993209466338" lon="9.24910350702703">
<ele>140</ele>
<time>2024-05-09T12:31:32Z</time>
</trkpt>
<trkpt lat="49.69993209466338" lon="9.2490653693676">
<ele>140.2</ele>
<time>2024-05-09T12:31:33Z</time>
</trkpt>
<trkpt lat="49.69993209466338" lon="9.249026225879788">
<ele>140.2</ele>
<time>2024-05-09T12:31:34Z</time>
</trkpt>
<trkpt lat="49.69993209466338" lon="9.248990016058087">
<ele>140.2</ele>
<time>2024-05-09T12:31:35Z</time>
</trkpt>
<trkpt lat="49.69993209466338" lon="9.248958583921194">
<ele>140.2</ele>
<time>2024-05-09T12:31:36Z</time>
</trkpt>
<trkpt lat="49.69993586651981" lon="9.248927989974618">
<ele>140.2</ele>
<time>2024-05-09T12:31:37Z</time>
</trkpt>
<trkpt lat="49.69993586651981" lon="9.248898485675454">
<ele>140.2</ele>
<time>2024-05-09T12:31:38Z</time>
</trkpt>
<trkpt lat="49.69993972219527" lon="9.24886696971953">
<ele>140</ele>
<time>2024-05-09T12:31:39Z</time>
</trkpt>
<trkpt lat="49.69993972219527" lon="9.248836459591985">
<ele>140</ele>
<time>2024-05-09T12:31:40Z</time>
</trkpt>
<trkpt lat="49.69993972219527" lon="9.248805027455091">
<ele>140</ele>
<time>2024-05-09T12:31:41Z</time>
</trkpt>
<trkpt lat="49.69993972219527" lon="9.248775439336896">
<ele>140</ele>
<time>2024-05-09T12:31:42Z</time>
</trkpt>
<trkpt lat="49.69993972219527" lon="9.248743001371622">
<ele>140</ele>
<time>2024-05-09T12:31:43Z</time>
</trkpt>
<trkpt lat="49.699943494051695" lon="9.24870679154992">
<ele>140</ele>
<time>2024-05-09T12:31:44Z</time>
</trkpt>
<trkpt lat="49.699943494051695" lon="9.248671503737569">
<ele>140.2</ele>
<time>2024-05-09T12:31:45Z</time>
</trkpt>
<trkpt lat="49.699943494051695" lon="9.248635210096836">
<ele>140.2</ele>
<time>2024-05-09T12:31:46Z</time>
</trkpt>
<trkpt lat="49.699947349727154" lon="9.248596150428057">
<ele>140.2</ele>
<time>2024-05-09T12:31:47Z</time>
</trkpt>
<trkpt lat="49.699947349727154" lon="9.248553235083818">
<ele>140.2</ele>
<time>2024-05-09T12:31:48Z</time>
</trkpt>
<trkpt lat="49.699947349727154" lon="9.248515097424388">
<ele>140.2</ele>
<time>2024-05-09T12:31:49Z</time>
</trkpt>
<trkpt lat="49.699943494051695" lon="9.2484731040895">
<ele>140</ele>
<time>2024-05-09T12:31:50Z</time>
</trkpt>
<trkpt lat="49.699947349727154" lon="9.248437816277146">
<ele>139.6</ele>
<time>2024-05-09T12:31:51Z</time>
</trkpt>
<trkpt lat="49.699943494051695" lon="9.248401606455444">
<ele>139.4</ele>
<time>2024-05-09T12:31:52Z</time>
</trkpt>
<trkpt lat="49.699943494051695" lon="9.248361540958284">
<ele>139.2</ele>
<time>2024-05-09T12:31:53Z</time>
</trkpt>
<trkpt lat="49.699943494051695" lon="9.248321475461124">
<ele>139.2</ele>
<time>2024-05-09T12:31:54Z</time>
</trkpt>
<trkpt lat="49.69993972219527" lon="9.248281409963964">
<ele>139.2</ele>
<time>2024-05-09T12:31:55Z</time>
</trkpt>
<trkpt lat="49.69993972219527" lon="9.248241344466804">
<ele>139.2</ele>
<time>2024-05-09T12:31:56Z</time>
</trkpt>
<trkpt lat="49.69993586651981" lon="9.248203206807377">
<ele>139.2</ele>
<time>2024-05-09T12:31:57Z</time>
</trkpt>
<trkpt lat="49.69993586651981" lon="9.248165069147944">
<ele>139.4</ele>
<time>2024-05-09T12:31:58Z</time>
</trkpt>
<trkpt lat="49.69993586651981" lon="9.248125003650784">
<ele>139.4</ele>
<time>2024-05-09T12:31:59Z</time>
</trkpt>
<trkpt lat="49.69993586651981" lon="9.248087871819736">
<ele>139.6</ele>
<time>2024-05-09T12:32:00Z</time>
</trkpt>
<trkpt lat="49.69993209466338" lon="9.248046800494194">
<ele>139.6</ele>
<time>2024-05-09T12:32:01Z</time>
</trkpt>
<trkpt lat="49.69993209466338" lon="9.248004890978336">
<ele>139.6</ele>
<time>2024-05-09T12:32:02Z</time>
</trkpt>
<trkpt lat="49.69992823898792" lon="9.247961975634098">
<ele>139.6</ele>
<time>2024-05-09T12:32:03Z</time>
</trkpt>
<trkpt lat="49.69992823898792" lon="9.247919982299209">
<ele>139.6</ele>
<time>2024-05-09T12:32:04Z</time>
</trkpt>
<trkpt lat="49.69993586651981" lon="9.247883772477508">
<ele>139.6</ele>
<time>2024-05-09T12:32:05Z</time>
</trkpt>
<trkpt lat="49.69993972219527" lon="9.247848484665155">
<ele>139.6</ele>
<time>2024-05-09T12:32:06Z</time>
</trkpt>
<trkpt lat="49.699943494051695" lon="9.247813196852803">
<ele>139.6</ele>
<time>2024-05-09T12:32:07Z</time>
</trkpt>
<trkpt lat="49.69995112158358" lon="9.247775059193373">
<ele>139.6</ele>
<time>2024-05-09T12:32:08Z</time>
</trkpt>
<trkpt lat="49.69995497725904" lon="9.247736921533942">
<ele>139.6</ele>
<time>2024-05-09T12:32:09Z</time>
</trkpt>
<trkpt lat="49.699962604790926" lon="9.24769970588386">
<ele>139.6</ele>
<time>2024-05-09T12:32:10Z</time>
</trkpt>
<trkpt lat="49.69996637664735" lon="9.247656790539622">
<ele>139.4</ele>
<time>2024-05-09T12:32:11Z</time>
</trkpt>
<trkpt lat="49.69997400417924" lon="9.247611947357656">
<ele>139.4</ele>
<time>2024-05-09T12:32:12Z</time>
</trkpt>
<trkpt lat="49.6999778598547" lon="9.247565260156987">
<ele>139.4</ele>
<time>2024-05-09T12:32:13Z</time>
</trkpt>
<trkpt lat="49.699981631711125" lon="9.24752041697502">
<ele>139.2</ele>
<time>2024-05-09T12:32:14Z</time>
</trkpt>
<trkpt lat="49.699981631711125" lon="9.247469874098895">
<ele>139.2</ele>
<time>2024-05-09T12:32:15Z</time>
</trkpt>
<trkpt lat="49.69998925924301" lon="9.247421259060502">
<ele>139.2</ele>
<time>2024-05-09T12:32:16Z</time>
</trkpt>
<trkpt lat="49.69999311491847" lon="9.247376415878534">
<ele>139.2</ele>
<time>2024-05-09T12:32:17Z</time>
</trkpt>
<trkpt lat="49.70000074245036" lon="9.247333500534296">
<ele>139.2</ele>
<time>2024-05-09T12:32:18Z</time>
</trkpt>
<trkpt lat="49.700004514306784" lon="9.247288657352328">
<ele>139.4</ele>
<time>2024-05-09T12:32:19Z</time>
</trkpt>
<trkpt lat="49.70000836998224" lon="9.247251441702248">
<ele>139.4</ele>
<time>2024-05-09T12:32:20Z</time>
</trkpt>
<trkpt lat="49.70001599751413" lon="9.247218081727624">
<ele>139.6</ele>
<time>2024-05-09T12:32:21Z</time>
</trkpt>
<trkpt lat="49.70001976937056" lon="9.24718664959073">
<ele>139.6</ele>
<time>2024-05-09T12:32:22Z</time>
</trkpt>
<trkpt lat="49.70002739690244" lon="9.247155133634806">
<ele>139.8</ele>
<time>2024-05-09T12:32:23Z</time>
</trkpt>
<trkpt lat="49.70003502443433" lon="9.247123701497912">
<ele>139.8</ele>
<time>2024-05-09T12:32:24Z</time>
</trkpt>
<trkpt lat="49.70004650764167" lon="9.247097969055176">
<ele>139.8</ele>
<time>2024-05-09T12:32:25Z</time>
</trkpt>
<trkpt lat="49.70005413517356" lon="9.247077936306596">
<ele>139.8</ele>
<time>2024-05-09T12:32:26Z</time>
</trkpt>
<trkpt lat="49.700061762705445" lon="9.247056897729635">
<ele>139.8</ele>
<time>2024-05-09T12:32:27Z</time>
</trkpt>
<trkpt lat="49.70006939023733" lon="9.247033093124628">
<ele>139.8</ele>
<time>2024-05-09T12:32:28Z</time>
</trkpt>
<trkpt lat="49.700080789625645" lon="9.24700828269124">
<ele>139.6</ele>
<time>2024-05-09T12:32:29Z</time>
</trkpt>
<trkpt lat="49.70008850097656" lon="9.246981544420125">
<ele>139.6</ele>
<time>2024-05-09T12:32:30Z</time>
</trkpt>
<trkpt lat="49.70009612850845" lon="9.246952962130308">
<ele>139.4</ele>
<time>2024-05-09T12:32:31Z</time>
</trkpt>
<trkpt lat="49.700103756040335" lon="9.246925301849842">
<ele>139.4</ele>
<time>2024-05-09T12:32:32Z</time>
</trkpt>
<trkpt lat="49.70011138357222" lon="9.24689194187522">
<ele>139.2</ele>
<time>2024-05-09T12:32:33Z</time>
</trkpt>
<trkpt lat="49.70011901110411" lon="9.246861431747677">
<ele>139.2</ele>
<time>2024-05-09T12:32:34Z</time>
</trkpt>
<trkpt lat="49.70012663863599" lon="9.24682991579175">
<ele>139.2</ele>
<time>2024-05-09T12:32:35Z</time>
</trkpt>
<trkpt lat="49.70013426616788" lon="9.246796555817127">
<ele>139.2</ele>
<time>2024-05-09T12:32:36Z</time>
</trkpt>
<trkpt lat="49.70014566555619" lon="9.246766967698932">
<ele>139.2</ele>
<time>2024-05-09T12:32:37Z</time>
</trkpt>
<trkpt lat="49.70015329308808" lon="9.246738385409117">
<ele>139.2</ele>
<time>2024-05-09T12:32:38Z</time>
</trkpt>
<trkpt lat="49.700160920619965" lon="9.246711730957031">
<ele>139.2</ele>
<time>2024-05-09T12:32:39Z</time>
</trkpt>
<trkpt lat="49.70016477629542" lon="9.246689770370722">
<ele>139.2</ele>
<time>2024-05-09T12:32:40Z</time>
</trkpt>
<trkpt lat="49.70017240382731" lon="9.246664959937334">
<ele>139</ele>
<time>2024-05-09T12:32:41Z</time>
</trkpt>
<trkpt lat="49.7001800313592" lon="9.24663637764752">
<ele>139</ele>
<time>2024-05-09T12:32:42Z</time>
</trkpt>
<trkpt lat="49.70018765889108" lon="9.246604861691594">
<ele>139</ele>
<time>2024-05-09T12:32:43Z</time>
</trkpt>
<trkpt lat="49.700199058279395" lon="9.2465734295547">
<ele>138.8</ele>
<time>2024-05-09T12:32:44Z</time>
</trkpt>
<trkpt lat="49.70021054148674" lon="9.246544763445854">
<ele>138.8</ele>
<time>2024-05-09T12:32:45Z</time>
</trkpt>
<trkpt lat="49.70022194087505" lon="9.24651333130896">
<ele>138.8</ele>
<time>2024-05-09T12:32:46Z</time>
</trkpt>
<trkpt lat="49.700237195938826" lon="9.246486593037844">
<ele>138.8</ele>
<time>2024-05-09T12:32:47Z</time>
</trkpt>
<trkpt lat="49.70024867914617" lon="9.246458010748029">
<ele>138.6</ele>
<time>2024-05-09T12:32:48Z</time>
</trkpt>
<trkpt lat="49.70026016235352" lon="9.246426578611135">
<ele>138.4</ele>
<time>2024-05-09T12:32:49Z</time>
</trkpt>
<trkpt lat="49.70027156174183" lon="9.246397912502289">
<ele>138.2</ele>
<time>2024-05-09T12:32:50Z</time>
</trkpt>
<trkpt lat="49.700283044949174" lon="9.246366480365396">
<ele>138</ele>
<time>2024-05-09T12:32:51Z</time>
</trkpt>
<trkpt lat="49.70029444433749" lon="9.2463368922472">
<ele>138</ele>
<time>2024-05-09T12:32:52Z</time>
</trkpt>
<trkpt lat="49.70030207186937" lon="9.246303532272576">
<ele>137.8</ele>
<time>2024-05-09T12:32:53Z</time>
</trkpt>
<trkpt lat="49.70030969940126" lon="9.246270172297956">
<ele>137.8</ele>
<time>2024-05-09T12:32:54Z</time>
</trkpt>
<trkpt lat="49.70032495446503" lon="9.24623966217041">
<ele>137.8</ele>
<time>2024-05-09T12:32:55Z</time>
</trkpt>
<trkpt lat="49.70033643767238" lon="9.246206218376756">
<ele>137.8</ele>
<time>2024-05-09T12:32:56Z</time>
</trkpt>
<trkpt lat="49.70034783706069" lon="9.246168080717323">
<ele>137.8</ele>
<time>2024-05-09T12:32:57Z</time>
</trkpt>
<trkpt lat="49.700359320268035" lon="9.246128015220163">
<ele>137.8</ele>
<time>2024-05-09T12:32:58Z</time>
</trkpt>
<trkpt lat="49.70036694779992" lon="9.246091805398464">
<ele>138</ele>
<time>2024-05-09T12:32:59Z</time>
</trkpt>
<trkpt lat="49.70038220286369" lon="9.246056517586112">
<ele>138</ele>
<time>2024-05-09T12:33:00Z</time>
</trkpt>
<trkpt lat="49.70038983039558" lon="9.24602315761149">
<ele>138</ele>
<time>2024-05-09T12:33:01Z</time>
</trkpt>
<trkpt lat="49.70040122978389" lon="9.245991641655564">
<ele>138.2</ele>
<time>2024-05-09T12:33:02Z</time>
</trkpt>
<trkpt lat="49.70041271299124" lon="9.245958281680942">
<ele>138.4</ele>
<time>2024-05-09T12:33:03Z</time>
</trkpt>
<trkpt lat="49.70042411237955" lon="9.24592299386859">
<ele>138.6</ele>
<time>2024-05-09T12:33:04Z</time>
</trkpt>
<trkpt lat="49.700435595586896" lon="9.245886784046888">
<ele>138.6</ele>
<time>2024-05-09T12:33:05Z</time>
</trkpt>
<trkpt lat="49.70044707879424" lon="9.245851496234536">
<ele>138.8</ele>
<time>2024-05-09T12:33:06Z</time>
</trkpt>
<trkpt lat="49.700458478182554" lon="9.24582190811634">
<ele>138.8</ele>
<time>2024-05-09T12:33:07Z</time>
</trkpt>
<trkpt lat="49.7004699613899" lon="9.245795169845223">
<ele>139</ele>
<time>2024-05-09T12:33:08Z</time>
</trkpt>
<trkpt lat="49.700477588921785" lon="9.245775220915675">
<ele>139.2</ele>
<time>2024-05-09T12:33:09Z</time>
</trkpt>
<trkpt lat="49.70048521645367" lon="9.245755188167095">
<ele>139.2</ele>
<time>2024-05-09T12:33:10Z</time>
</trkpt>
<trkpt lat="49.700496615841985" lon="9.245733227580786">
<ele>139.2</ele>
<time>2024-05-09T12:33:11Z</time>
</trkpt>
<trkpt lat="49.70050424337387" lon="9.245708417147398">
<ele>139.4</ele>
<time>2024-05-09T12:33:12Z</time>
</trkpt>
<trkpt lat="49.70051187090576" lon="9.245677907019854">
<ele>139.4</ele>
<time>2024-05-09T12:33:13Z</time>
</trkpt>
<trkpt lat="49.7005233541131" lon="9.245648318901658">
<ele>139.2</ele>
<time>2024-05-09T12:33:14Z</time>
</trkpt>
<trkpt lat="49.700538609176874" lon="9.245613031089306">
<ele>139.2</ele>
<time>2024-05-09T12:33:15Z</time>
</trkpt>
<trkpt lat="49.70055000856519" lon="9.245579671114683">
<ele>139.2</ele>
<time>2024-05-09T12:33:16Z</time>
</trkpt>
<trkpt lat="49.70056526362896" lon="9.24554530531168">
<ele>139.2</ele>
<time>2024-05-09T12:33:17Z</time>
</trkpt>
<trkpt lat="49.70058437436819" lon="9.24550817348063">
<ele>139.2</ele>
<time>2024-05-09T12:33:18Z</time>
</trkpt>
<trkpt lat="49.700595773756504" lon="9.245472885668278">
<ele>139.2</ele>
<time>2024-05-09T12:33:19Z</time>
</trkpt>
<trkpt lat="49.70061111263931" lon="9.245438519865274">
<ele>139.2</ele>
<time>2024-05-09T12:33:20Z</time>
</trkpt>
<trkpt lat="49.70062251202762" lon="9.245405159890652">
<ele>139.2</ele>
<time>2024-05-09T12:33:21Z</time>
</trkpt>
<trkpt lat="49.700633995234966" lon="9.245374649763107">
<ele>139.2</ele>
<time>2024-05-09T12:33:22Z</time>
</trkpt>
<trkpt lat="49.70064539462328" lon="9.245345061644912">
<ele>139.2</ele>
<time>2024-05-09T12:33:23Z</time>
</trkpt>
<trkpt lat="49.70066064968705" lon="9.24530977383256">
<ele>139</ele>
<time>2024-05-09T12:33:24Z</time>
</trkpt>
<trkpt lat="49.70066827721894" lon="9.245271636173127">
<ele>139</ele>
<time>2024-05-09T12:33:25Z</time>
</trkpt>
<trkpt lat="49.70067976042628" lon="9.24522964283824">
<ele>139</ele>
<time>2024-05-09T12:33:26Z</time>
</trkpt>
<trkpt lat="49.70068738795817" lon="9.24518865533173">
<ele>138.8</ele>
<time>2024-05-09T12:33:27Z</time>
</trkpt>
<trkpt lat="49.70069115981459" lon="9.245146745815871">
<ele>138.8</ele>
<time>2024-05-09T12:33:28Z</time>
</trkpt>
<trkpt lat="49.700695015490055" lon="9.245106680318711">
<ele>139</ele>
<time>2024-05-09T12:33:29Z</time>
</trkpt>
<trkpt lat="49.70070641487837" lon="9.245068542659284">
<ele>139</ele>
<time>2024-05-09T12:33:30Z</time>
</trkpt>
<trkpt lat="49.700714042410254" lon="9.2450313270092">
<ele>139.2</ele>
<time>2024-05-09T12:33:31Z</time>
</trkpt>
<trkpt lat="49.70071789808571" lon="9.24499318934977">
<ele>139.2</ele>
<time>2024-05-09T12:33:32Z</time>
</trkpt>
<trkpt lat="49.70072166994214" lon="9.244948346167805">
<ele>139.2</ele>
<time>2024-05-09T12:33:33Z</time>
</trkpt>
<trkpt lat="49.70072166994214" lon="9.244901575148106">
<ele>139.4</ele>
<time>2024-05-09T12:33:34Z</time>
</trkpt>
<trkpt lat="49.70071789808571" lon="9.24485488794744">
<ele>139.4</ele>
<time>2024-05-09T12:33:35Z</time>
</trkpt>
<trkpt lat="49.70071789808571" lon="9.244810044765472">
<ele>139.6</ele>
<time>2024-05-09T12:33:36Z</time>
</trkpt>
<trkpt lat="49.70071027055383" lon="9.244763357564809">
<ele>139.6</ele>
<time>2024-05-09T12:33:37Z</time>
</trkpt>
<trkpt lat="49.70071027055383" lon="9.24471658654511">
<ele>139.6</ele>
<time>2024-05-09T12:33:38Z</time>
</trkpt>
<trkpt lat="49.70071027055383" lon="9.244667971506717">
<ele>139.6</ele>
<time>2024-05-09T12:33:39Z</time>
</trkpt>
<trkpt lat="49.700714042410254" lon="9.24461835063994">
<ele>139.8</ele>
<time>2024-05-09T12:33:40Z</time>
</trkpt>
<trkpt lat="49.70071027055383" lon="9.244569735601544">
<ele>139.8</ele>
<time>2024-05-09T12:33:41Z</time>
</trkpt>
<trkpt lat="49.70071027055383" lon="9.244518270716071">
<ele>139.8</ele>
<time>2024-05-09T12:33:42Z</time>
</trkpt>
<trkpt lat="49.70071027055383" lon="9.244468649849296">
<ele>139.8</ele>
<time>2024-05-09T12:33:43Z</time>
</trkpt>
<trkpt lat="49.700714042410254" lon="9.244418106973171">
<ele>139.8</ele>
<time>2024-05-09T12:33:44Z</time>
</trkpt>
<trkpt lat="49.70071789808571" lon="9.244366642087698">
<ele>139.6</ele>
<time>2024-05-09T12:33:45Z</time>
</trkpt>
<trkpt lat="49.7007255256176" lon="9.244315093383191">
<ele>139.6</ele>
<time>2024-05-09T12:33:46Z</time>
</trkpt>
<trkpt lat="49.700733153149486" lon="9.244264550507069">
<ele>139.6</ele>
<time>2024-05-09T12:33:47Z</time>
</trkpt>
<trkpt lat="49.7007445525378" lon="9.244216857478024">
<ele>139.6</ele>
<time>2024-05-09T12:33:48Z</time>
</trkpt>
<trkpt lat="49.700756035745144" lon="9.244170170277355">
<ele>139.6</ele>
<time>2024-05-09T12:33:49Z</time>
</trkpt>
<trkpt lat="49.70076743513346" lon="9.244119627401233">
<ele>139.6</ele>
<time>2024-05-09T12:33:50Z</time>
</trkpt>
<trkpt lat="49.70078277401626" lon="9.244068078696728">
<ele>139.6</ele>
<time>2024-05-09T12:33:51Z</time>
</trkpt>
<trkpt lat="49.700794173404574" lon="9.244016613811256">
<ele>139.6</ele>
<time>2024-05-09T12:33:52Z</time>
</trkpt>
<trkpt lat="49.70080942846835" lon="9.24396699294448">
<ele>139.8</ele>
<time>2024-05-09T12:33:53Z</time>
</trkpt>
<trkpt lat="49.70082468353212" lon="9.243916450068356">
<ele>139.8</ele>
<time>2024-05-09T12:33:54Z</time>
</trkpt>
<trkpt lat="49.700836166739464" lon="9.24386783502996">
<ele>140</ele>
<time>2024-05-09T12:33:55Z</time>
</trkpt>
<trkpt lat="49.70085142180323" lon="9.243822991847992">
<ele>140</ele>
<time>2024-05-09T12:33:56Z</time>
</trkpt>
<trkpt lat="49.70086667686701" lon="9.243782004341483">
<ele>140</ele>
<time>2024-05-09T12:33:57Z</time>
</trkpt>
<trkpt lat="49.70087807625532" lon="9.243740011006594">
<ele>140.2</ele>
<time>2024-05-09T12:33:58Z</time>
</trkpt>
<trkpt lat="49.700893331319094" lon="9.243699945509434">
<ele>140.2</ele>
<time>2024-05-09T12:33:59Z</time>
</trkpt>
<trkpt lat="49.70090481452644" lon="9.243661807850003">
<ele>140.4</ele>
<time>2024-05-09T12:34:00Z</time>
</trkpt>
<trkpt lat="49.70092006959021" lon="9.243626520037653">
<ele>140.6</ele>
<time>2024-05-09T12:34:01Z</time>
</trkpt>
<trkpt lat="49.70093146897853" lon="9.243586538359525">
<ele>140.6</ele>
<time>2024-05-09T12:34:02Z</time>
</trkpt>
<trkpt lat="49.70094680786133" lon="9.243546472862365">
<ele>140.6</ele>
<time>2024-05-09T12:34:03Z</time>
</trkpt>
<trkpt lat="49.70095820724964" lon="9.243506407365205">
<ele>140.6</ele>
<time>2024-05-09T12:34:04Z</time>
</trkpt>
<trkpt lat="49.700973462313414" lon="9.24347011372447">
<ele>140.8</ele>
<time>2024-05-09T12:34:05Z</time>
</trkpt>
<trkpt lat="49.700988717377186" lon="9.243430132046342">
<ele>140.8</ele>
<time>2024-05-09T12:34:06Z</time>
</trkpt>
<trkpt lat="49.70100782811642" lon="9.24339191056788">
<ele>140.8</ele>
<time>2024-05-09T12:34:07Z</time>
</trkpt>
<trkpt lat="49.70102308318019" lon="9.2433528508991">
<ele>140.8</ele>
<time>2024-05-09T12:34:08Z</time>
</trkpt>
<trkpt lat="49.70103833824396" lon="9.24331471323967">
<ele>140.8</ele>
<time>2024-05-09T12:34:09Z</time>
</trkpt>
<trkpt lat="49.70105736516416" lon="9.24327657558024">
<ele>140.8</ele>
<time>2024-05-09T12:34:10Z</time>
</trkpt>
<trkpt lat="49.70107262022793" lon="9.243238437920809">
<ele>140.8</ele>
<time>2024-05-09T12:34:11Z</time>
</trkpt>
<trkpt lat="49.70109173096717" lon="9.243198372423649">
<ele>140.8</ele>
<time>2024-05-09T12:34:12Z</time>
</trkpt>
<trkpt lat="49.70111075788736" lon="9.24315637908876">
<ele>140.8</ele>
<time>2024-05-09T12:34:13Z</time>
</trkpt>
<trkpt lat="49.70112609677017" lon="9.24311539158225">
<ele>140.8</ele>
<time>2024-05-09T12:34:14Z</time>
</trkpt>
<trkpt lat="49.70114512369037" lon="9.24307339824736">
<ele>140.8</ele>
<time>2024-05-09T12:34:15Z</time>
</trkpt>
<trkpt lat="49.7011642344296" lon="9.2430333327502">
<ele>140.8</ele>
<time>2024-05-09T12:34:16Z</time>
</trkpt>
<trkpt lat="49.7011832613498" lon="9.242993351072071">
<ele>140.8</ele>
<time>2024-05-09T12:34:17Z</time>
</trkpt>
<trkpt lat="49.70119851641357" lon="9.242951357737184">
<ele>140.8</ele>
<time>2024-05-09T12:34:18Z</time>
</trkpt>
<trkpt lat="49.7012176271528" lon="9.242913220077751">
<ele>141</ele>
<time>2024-05-09T12:34:19Z</time>
</trkpt>
<trkpt lat="49.701236654073" lon="9.242871226742864">
<ele>141</ele>
<time>2024-05-09T12:34:20Z</time>
</trkpt>
<trkpt lat="49.70125190913677" lon="9.242830239236357">
<ele>141</ele>
<time>2024-05-09T12:34:21Z</time>
</trkpt>
<trkpt lat="49.701267164200544" lon="9.242786401882768">
<ele>141</ele>
<time>2024-05-09T12:34:22Z</time>
</trkpt>
<trkpt lat="49.701286274939775" lon="9.242738708853722">
<ele>140.8</ele>
<time>2024-05-09T12:34:23Z</time>
</trkpt>
<trkpt lat="49.70130153000355" lon="9.242692943662403">
<ele>140.8</ele>
<time>2024-05-09T12:34:24Z</time>
</trkpt>
<trkpt lat="49.70132064074278" lon="9.242648100480436">
<ele>140.8</ele>
<time>2024-05-09T12:34:25Z</time>
</trkpt>
<trkpt lat="49.70133966766298" lon="9.24260325729847">
<ele>140.8</ele>
<time>2024-05-09T12:34:26Z</time>
</trkpt>
<trkpt lat="49.70135877840221" lon="9.24256126396358">
<ele>140.8</ele>
<time>2024-05-09T12:34:27Z</time>
</trkpt>
<trkpt lat="49.70137780532241" lon="9.242518348619342">
<ele>140.8</ele>
<time>2024-05-09T12:34:28Z</time>
</trkpt>
<trkpt lat="49.70139691606164" lon="9.242474511265756">
<ele>141</ele>
<time>2024-05-09T12:34:29Z</time>
</trkpt>
<trkpt lat="49.70141594298184" lon="9.242428746074438">
<ele>141</ele>
<time>2024-05-09T12:34:30Z</time>
</trkpt>
<trkpt lat="49.70143505372107" lon="9.24238197505474">
<ele>141</ele>
<time>2024-05-09T12:34:31Z</time>
</trkpt>
<trkpt lat="49.70145408064127" lon="9.242340065538883">
<ele>141</ele>
<time>2024-05-09T12:34:32Z</time>
</trkpt>
<trkpt lat="49.7014731913805" lon="9.242296144366264">
<ele>141</ele>
<time>2024-05-09T12:34:33Z</time>
</trkpt>
<trkpt lat="49.70149607397616" lon="9.242253229022026">
<ele>141</ele>
<time>2024-05-09T12:34:34Z</time>
</trkpt>
<trkpt lat="49.70151895657182" lon="9.242215091362596">
<ele>141</ele>
<time>2024-05-09T12:34:35Z</time>
</trkpt>
<trkpt lat="49.70154183916747" lon="9.242179803550243">
<ele>141</ele>
<time>2024-05-09T12:34:36Z</time>
</trkpt>
<trkpt lat="49.70156094990671" lon="9.24214837141335">
<ele>141.2</ele>
<time>2024-05-09T12:34:37Z</time>
</trkpt>
<trkpt lat="49.701579976826906" lon="9.242113083600998">
<ele>141.2</ele>
<time>2024-05-09T12:34:38Z</time>
</trkpt>
<trkpt lat="49.70159523189068" lon="9.2420663125813">
<ele>141.2</ele>
<time>2024-05-09T12:34:39Z</time>
</trkpt>
<trkpt lat="49.70160671509802" lon="9.24202624708414">
<ele>141.2</ele>
<time>2024-05-09T12:34:40Z</time>
</trkpt>
<trkpt lat="49.70162197016179" lon="9.24198810942471">
<ele>141.2</ele>
<time>2024-05-09T12:34:41Z</time>
</trkpt>
<trkpt lat="49.70164108090103" lon="9.241946199908853">
<ele>141.2</ele>
<time>2024-05-09T12:34:42Z</time>
</trkpt>
<trkpt lat="49.70165248028934" lon="9.24190990626812">
<ele>141.4</ele>
<time>2024-05-09T12:34:43Z</time>
</trkpt>
<trkpt lat="49.70166773535311" lon="9.24187369644642">
<ele>141.4</ele>
<time>2024-05-09T12:34:44Z</time>
</trkpt>
<trkpt lat="49.70168299041688" lon="9.24183170311153">
<ele>141.6</ele>
<time>2024-05-09T12:34:45Z</time>
</trkpt>
<trkpt lat="49.70169824548066" lon="9.2417917214334">
<ele>141.8</ele>
<time>2024-05-09T12:34:46Z</time>
</trkpt>
<trkpt lat="49.701721128076315" lon="9.24175349995494">
<ele>142</ele>
<time>2024-05-09T12:34:47Z</time>
</trkpt>
<trkpt lat="49.70173638314009" lon="9.24171351827681">
<ele>142.2</ele>
<time>2024-05-09T12:34:48Z</time>
</trkpt>
<trkpt lat="49.70175549387932" lon="9.24167345277965">
<ele>142.4</ele>
<time>2024-05-09T12:34:49Z</time>
</trkpt>
<trkpt lat="49.70177452079952" lon="9.24163338728249">
<ele>142.6</ele>
<time>2024-05-09T12:34:50Z</time>
</trkpt>
<trkpt lat="49.70179363153875" lon="9.24159332178533">
<ele>142.8</ele>
<time>2024-05-09T12:34:51Z</time>
</trkpt>
<trkpt lat="49.70181274227798" lon="9.24155325628817">
<ele>143</ele>
<time>2024-05-09T12:34:52Z</time>
</trkpt>
<trkpt lat="49.70183176919818" lon="9.24151126295328">
<ele>143</ele>
<time>2024-05-09T12:34:53Z</time>
</trkpt>
<trkpt lat="49.70185087993741" lon="9.241470275446773">
<ele>143</ele>
<time>2024-05-09T12:34:54Z</time>
</trkpt>
<trkpt lat="49.70186990685761" lon="9.241428365930917">
<ele>143</ele>
<time>2024-05-09T12:34:55Z</time>
</trkpt>
<trkpt lat="49.70189278945327" lon="9.241386372596024">
<ele>143.2</ele>
<time>2024-05-09T12:34:56Z</time>
</trkpt>
<trkpt lat="49.7019119001925" lon="9.241345385089517">
<ele>143.2</ele>
<time>2024-05-09T12:34:57Z</time>
</trkpt>
<trkpt lat="49.7019309271127" lon="9.241303391754627">
<ele>143</ele>
<time>2024-05-09T12:34:58Z</time>
</trkpt>
<trkpt lat="49.70195003785193" lon="9.24126148223877">
<ele>143</ele>
<time>2024-05-09T12:34:59Z</time>
</trkpt>
<trkpt lat="49.7019652929157" lon="9.241223260760307">
<ele>143</ele>
<time>2024-05-09T12:35:00Z</time>
</trkpt>
<trkpt lat="49.70198440365493" lon="9.241185123100877">
<ele>142.8</ele>
<time>2024-05-09T12:35:01Z</time>
</trkpt>
<trkpt lat="49.70200343057513" lon="9.24114321358502">
<ele>142.6</ele>
<time>2024-05-09T12:35:02Z</time>
</trkpt>
<trkpt lat="49.702018685638905" lon="9.24110314808786">
<ele>142.6</ele>
<time>2024-05-09T12:35:03Z</time>
</trkpt>
<trkpt lat="49.70203394070268" lon="9.24106115475297">
<ele>142.4</ele>
<time>2024-05-09T12:35:04Z</time>
</trkpt>
<trkpt lat="49.70205305144191" lon="9.24102301709354">
<ele>142.2</ele>
<time>2024-05-09T12:35:05Z</time>
</trkpt>
<trkpt lat="49.70207207836211" lon="9.24098295159638">
<ele>142</ele>
<time>2024-05-09T12:35:06Z</time>
</trkpt>
<trkpt lat="49.70209118910134" lon="9.240946741774678">
<ele>141.8</ele>
<time>2024-05-09T12:35:07Z</time>
</trkpt>
<trkpt lat="49.70210644416511" lon="9.240904748439789">
<ele>141.6</ele>
<time>2024-05-09T12:35:08Z</time>
</trkpt>
<trkpt lat="49.70212547108531" lon="9.24086183309555">
<ele>141.4</ele>
<time>2024-05-09T12:35:09Z</time>
</trkpt>
<trkpt lat="49.70214458182454" lon="9.240819923579693">
<ele>141.4</ele>
<time>2024-05-09T12:35:10Z</time>
</trkpt>
<trkpt lat="49.7021674644202" lon="9.240777008235456">
<ele>141.4</ele>
<time>2024-05-09T12:35:11Z</time>
</trkpt>
<trkpt lat="49.70218657515943" lon="9.240735014900563">
<ele>141.4</ele>
<time>2024-05-09T12:35:12Z</time>
</trkpt>
<trkpt lat="49.7022018302232" lon="9.240692099556329">
<ele>141.2</ele>
<time>2024-05-09T12:35:13Z</time>
</trkpt>
<trkpt lat="49.70222471281886" lon="9.240650106221436">
<ele>141.2</ele>
<time>2024-05-09T12:35:14Z</time>
</trkpt>
<trkpt lat="49.70224373973906" lon="9.24060626886785">
<ele>141.2</ele>
<time>2024-05-09T12:35:15Z</time>
</trkpt>
<trkpt lat="49.70226285047829" lon="9.24056528136134">
<ele>141.2</ele>
<time>2024-05-09T12:35:16Z</time>
</trkpt>
<trkpt lat="49.70228187739849" lon="9.240521360188724">
<ele>141.2</ele>
<time>2024-05-09T12:35:17Z</time>
</trkpt>
<trkpt lat="49.70230098813772" lon="9.240481294691564">
<ele>141.2</ele>
<time>2024-05-09T12:35:18Z</time>
</trkpt>
<trkpt lat="49.70232009887695" lon="9.240440307185054">
<ele>141.2</ele>
<time>2024-05-09T12:35:19Z</time>
</trkpt>
<trkpt lat="49.70233912579715" lon="9.240396469831468">
<ele>141.2</ele>
<time>2024-05-09T12:35:20Z</time>
</trkpt>
<trkpt lat="49.702358236536384" lon="9.240353554487228">
<ele>141.2</ele>
<time>2024-05-09T12:35:21Z</time>
</trkpt>
<trkpt lat="49.70237726345658" lon="9.24030963331461">
<ele>141.2</ele>
<time>2024-05-09T12:35:22Z</time>
</trkpt>
<trkpt lat="49.70240014605224" lon="9.240264873951674">
<ele>141.4</ele>
<time>2024-05-09T12:35:23Z</time>
</trkpt>
<trkpt lat="49.70241925679147" lon="9.240222880616784">
<ele>141.6</ele>
<time>2024-05-09T12:35:24Z</time>
</trkpt>
<trkpt lat="49.70243828371167" lon="9.240181893110275">
<ele>141.6</ele>
<time>2024-05-09T12:35:25Z</time>
</trkpt>
<trkpt lat="49.70246116630733" lon="9.240139899775386">
<ele>141.8</ele>
<time>2024-05-09T12:35:26Z</time>
</trkpt>
<trkpt lat="49.70248404890299" lon="9.240096984431148">
<ele>142</ele>
<time>2024-05-09T12:35:27Z</time>
</trkpt>
<trkpt lat="49.70250315964222" lon="9.24005507491529">
<ele>142</ele>
<time>2024-05-09T12:35:28Z</time>
</trkpt>
<trkpt lat="49.70252604223788" lon="9.2400130815804">
<ele>142.2</ele>
<time>2024-05-09T12:35:29Z</time>
</trkpt>
<trkpt lat="49.70254515297711" lon="9.239968238398433">
<ele>142.4</ele>
<time>2024-05-09T12:35:30Z</time>
</trkpt>
<trkpt lat="49.70256417989731" lon="9.239923395216463">
<ele>142.4</ele>
<time>2024-05-09T12:35:31Z</time>
</trkpt>
<trkpt lat="49.70258329063654" lon="9.239878635853527">
<ele>142.6</ele>
<time>2024-05-09T12:35:32Z</time>
</trkpt>
<trkpt lat="49.70260231755674" lon="9.239831864833832">
<ele>142.6</ele>
<time>2024-05-09T12:35:33Z</time>
</trkpt>
<trkpt lat="49.7026252001524" lon="9.239787021651864">
<ele>142.6</ele>
<time>2024-05-09T12:35:34Z</time>
</trkpt>
<trkpt lat="49.70264431089163" lon="9.239743184298275">
<ele>142.6</ele>
<time>2024-05-09T12:35:35Z</time>
</trkpt>
<trkpt lat="49.70266342163086" lon="9.23970026895404">
<ele>142.8</ele>
<time>2024-05-09T12:35:36Z</time>
</trkpt>
<trkpt lat="49.70268630422652" lon="9.239654503762722">
<ele>142.8</ele>
<time>2024-05-09T12:35:37Z</time>
</trkpt>
<trkpt lat="49.70270533114672" lon="9.239611588418484">
<ele>142.8</ele>
<time>2024-05-09T12:35:38Z</time>
</trkpt>
<trkpt lat="49.702728213742375" lon="9.239566745236516">
<ele>142.8</ele>
<time>2024-05-09T12:35:39Z</time>
</trkpt>
<trkpt lat="49.70274732448161" lon="9.239521902054548">
<ele>142.8</ele>
<time>2024-05-09T12:35:40Z</time>
</trkpt>
<trkpt lat="49.702766351401806" lon="9.239475214853885">
<ele>142.8</ele>
<time>2024-05-09T12:35:41Z</time>
</trkpt>
<trkpt lat="49.702789233997464" lon="9.239433221518992">
<ele>142.8</ele>
<time>2024-05-09T12:35:42Z</time>
</trkpt>
<trkpt lat="49.702808344736695" lon="9.23938368447125">
<ele>142.6</ele>
<time>2024-05-09T12:35:43Z</time>
</trkpt>
<trkpt lat="49.702831227332354" lon="9.239337919279931">
<ele>142.6</ele>
<time>2024-05-09T12:35:44Z</time>
</trkpt>
<trkpt lat="49.702850338071585" lon="9.239295003935696">
<ele>142.6</ele>
<time>2024-05-09T12:35:45Z</time>
</trkpt>
<trkpt lat="49.70287322066724" lon="9.239253010600804">
<ele>142.6</ele>
<time>2024-05-09T12:35:46Z</time>
</trkpt>
<trkpt lat="49.7028961032629" lon="9.239212945103644">
<ele>142.6</ele>
<time>2024-05-09T12:35:47Z</time>
</trkpt>
<trkpt lat="49.70292275771499" lon="9.239172879606484">
<ele>142.8</ele>
<time>2024-05-09T12:35:48Z</time>
</trkpt>
<trkpt lat="49.702949495986104" lon="9.239129964262249">
<ele>142.8</ele>
<time>2024-05-09T12:35:49Z</time>
</trkpt>
<trkpt lat="49.70297615043819" lon="9.239087048918009">
<ele>142.8</ele>
<time>2024-05-09T12:35:50Z</time>
</trkpt>
<trkpt lat="49.70300288870931" lon="9.239043211564422">
<ele>142.8</ele>
<time>2024-05-09T12:35:51Z</time>
</trkpt>
<trkpt lat="49.703025771304965" lon="9.239003146067262">
<ele>143</ele>
<time>2024-05-09T12:35:52Z</time>
</trkpt>
<trkpt lat="49.70304865390062" lon="9.238963080570102">
<ele>143</ele>
<time>2024-05-09T12:35:53Z</time>
</trkpt>
<trkpt lat="49.70307153649628" lon="9.238923015072942">
<ele>143</ele>
<time>2024-05-09T12:35:54Z</time>
</trkpt>
<trkpt lat="49.70309441909194" lon="9.238882027566431">
<ele>143</ele>
<time>2024-05-09T12:35:55Z</time>
</trkpt>
<trkpt lat="49.70311352983117" lon="9.238838190212846">
<ele>143.2</ele>
<time>2024-05-09T12:35:56Z</time>
</trkpt>
<trkpt lat="49.70314018428326" lon="9.238793347030878">
<ele>143.4</ele>
<time>2024-05-09T12:35:57Z</time>
</trkpt>
<trkpt lat="49.703163066878915" lon="9.23874850384891">
<ele>143.6</ele>
<time>2024-05-09T12:35:58Z</time>
</trkpt>
<trkpt lat="49.703182177618146" lon="9.238704666495323">
<ele>143.8</ele>
<time>2024-05-09T12:35:59Z</time>
</trkpt>
<trkpt lat="49.70320506021381" lon="9.238659823313355">
<ele>143.8</ele>
<time>2024-05-09T12:36:00Z</time>
</trkpt>
<trkpt lat="49.70322794280946" lon="9.238614980131388">
<ele>144</ele>
<time>2024-05-09T12:36:01Z</time>
</trkpt>
<trkpt lat="49.703247053548694" lon="9.23857206478715">
<ele>144.2</ele>
<time>2024-05-09T12:36:02Z</time>
</trkpt>
<trkpt lat="49.70326993614435" lon="9.238528227433562">
<ele>144.2</ele>
<time>2024-05-09T12:36:03Z</time>
</trkpt>
<trkpt lat="49.70329281874001" lon="9.238483384251596">
<ele>144.4</ele>
<time>2024-05-09T12:36:04Z</time>
</trkpt>
<trkpt lat="49.70330807380378" lon="9.238439546898007">
<ele>144.4</ele>
<time>2024-05-09T12:36:05Z</time>
</trkpt>
<trkpt lat="49.70332710072398" lon="9.238398475572469">
<ele>144.4</ele>
<time>2024-05-09T12:36:06Z</time>
</trkpt>
<trkpt lat="49.70335006713867" lon="9.23835849389434">
<ele>144.6</ele>
<time>2024-05-09T12:36:07Z</time>
</trkpt>
<trkpt lat="49.70336909405887" lon="9.238323206081986">
<ele>144.6</ele>
<time>2024-05-09T12:36:08Z</time>
</trkpt>
<trkpt lat="49.7033882047981" lon="9.238293617963793">
<ele>144.6</ele>
<time>2024-05-09T12:36:09Z</time>
</trkpt>
<trkpt lat="49.703403459861875" lon="9.238269729539752">
<ele>144.6</ele>
<time>2024-05-09T12:36:10Z</time>
</trkpt>
<trkpt lat="49.70341108739376" lon="9.238247852772474">
<ele>144.6</ele>
<time>2024-05-09T12:36:11Z</time>
</trkpt>
<trkpt lat="49.70341485925019" lon="9.238233519718053">
<ele>144.4</ele>
<time>2024-05-09T12:36:12Z</time>
</trkpt>
<trkpt lat="49.70341485925019" lon="9.238226814195514">
<ele>144.4</ele>
<time>2024-05-09T12:36:13Z</time>
</trkpt>
<trkpt lat="49.70341485925019" lon="9.238228742033243">
<ele>144.2</ele>
<time>2024-05-09T12:36:15Z</time>
</trkpt>
<trkpt lat="49.70341871492565" lon="9.238228742033243">
<ele>144.2</ele>
<time>2024-05-09T12:36:16Z</time>
</trkpt>
<trkpt lat="49.70341871492565" lon="9.238224970176816">
<ele>144</ele>
<time>2024-05-09T12:36:18Z</time>
</trkpt>
<trkpt lat="49.70341871492565" lon="9.238213486969473">
<ele>143.8</ele>
<time>2024-05-09T12:36:19Z</time>
</trkpt>
<trkpt lat="49.70341871492565" lon="9.2381982319057">
<ele>143.6</ele>
<time>2024-05-09T12:36:20Z</time>
</trkpt>
<trkpt lat="49.70341871492565" lon="9.238184904679656">
<ele>143.4</ele>
<time>2024-05-09T12:36:21Z</time>
</trkpt>
<trkpt lat="49.703422486782074" lon="9.238173421472313">
<ele>143.4</ele>
<time>2024-05-09T12:36:22Z</time>
</trkpt>
<trkpt lat="49.70341871492565" lon="9.23815816640854">
<ele>143.2</ele>
<time>2024-05-09T12:36:23Z</time>
</trkpt>
<trkpt lat="49.70341485925019" lon="9.238151544705032">
<ele>143</ele>
<time>2024-05-09T12:36:24Z</time>
</trkpt>
<trkpt lat="49.70341485925019" lon="9.238148611038923">
<ele>143</ele>
<time>2024-05-09T12:36:25Z</time>
</trkpt>
<trkpt lat="49.70341485925019" lon="9.238142911344768">
<ele>143</ele>
<time>2024-05-09T12:36:26Z</time>
</trkpt>
<trkpt lat="49.70341485925019" lon="9.238140061497688">
<ele>143</ele>
<time>2024-05-09T12:36:27Z</time>
</trkpt>
<trkpt lat="49.70341485925019" lon="9.23813628964126">
<ele>143</ele>
<time>2024-05-09T12:36:28Z</time>
</trkpt>
<trkpt lat="49.70341485925019" lon="9.23813528381288">
<ele>143</ele>
<time>2024-05-09T12:36:29Z</time>
</trkpt>
<trkpt lat="49.70341485925019" lon="9.238131511956452">
<ele>143</ele>
<time>2024-05-09T12:36:30Z</time>
</trkpt>
<trkpt lat="49.70341108739376" lon="9.238129584118724">
<ele>143.2</ele>
<time>2024-05-09T12:36:31Z</time>
</trkpt>
<trkpt lat="49.70341108739376" lon="9.238128662109377">
<ele>143.2</ele>
<time>2024-05-09T12:36:32Z</time>
</trkpt>
<trkpt lat="49.70341108739376" lon="9.238124806433916">
<ele>143.2</ele>
<time>2024-05-09T12:36:34Z</time>
</trkpt>
<trkpt lat="49.703403459861875" lon="9.2381152510643">
<ele>143.2</ele>
<time>2024-05-09T12:36:35Z</time>
</trkpt>
<trkpt lat="49.70339197665453" lon="9.238106701523066">
<ele>143.4</ele>
<time>2024-05-09T12:36:36Z</time>
</trkpt>
<trkpt lat="49.7033882047981" lon="9.238084740936756">
<ele>143.2</ele>
<time>2024-05-09T12:36:37Z</time>
</trkpt>
<trkpt lat="49.7033882047981" lon="9.238059930503368">
<ele>143.2</ele>
<time>2024-05-09T12:36:38Z</time>
</trkpt>
<trkpt lat="49.70339583232999" lon="9.238019865006208">
<ele>143.2</ele>
<time>2024-05-09T12:36:39Z</time>
</trkpt>
<trkpt lat="49.70341485925019" lon="9.237988432869315">
<ele>143.2</ele>
<time>2024-05-09T12:36:40Z</time>
</trkpt>
<trkpt lat="49.70343396998942" lon="9.2379598505795">
<ele>143.2</ele>
<time>2024-05-09T12:36:41Z</time>
</trkpt>
<trkpt lat="49.70344922505319" lon="9.23792171292007">
<ele>143.2</ele>
<time>2024-05-09T12:36:42Z</time>
</trkpt>
<trkpt lat="49.70346448011696" lon="9.237888269126415">
<ele>143.2</ele>
<time>2024-05-09T12:36:43Z</time>
</trkpt>
<trkpt lat="49.70348350703716" lon="9.237845353782175">
<ele>143.2</ele>
<time>2024-05-09T12:36:44Z</time>
</trkpt>
<trkpt lat="49.703498762100935" lon="9.237810065969825">
<ele>143.2</ele>
<time>2024-05-09T12:36:45Z</time>
</trkpt>
<trkpt lat="49.703521728515625" lon="9.237774778157473">
<ele>143.4</ele>
<time>2024-05-09T12:36:46Z</time>
</trkpt>
<trkpt lat="49.70354838296771" lon="9.237736640498042">
<ele>143.4</ele>
<time>2024-05-09T12:36:47Z</time>
</trkpt>
<trkpt lat="49.703559866175056" lon="9.237711830064654">
<ele>143.4</ele>
<time>2024-05-09T12:36:48Z</time>
</trkpt>
<trkpt lat="49.70356749370694" lon="9.237688025459647">
<ele>143.4</ele>
<time>2024-05-09T12:36:49Z</time>
</trkpt>
<trkpt lat="49.703582748770714" lon="9.23766321502626">
<ele>143.6</ele>
<time>2024-05-09T12:36:50Z</time>
</trkpt>
<trkpt lat="49.70360563136637" lon="9.237618371844292">
<ele>143.6</ele>
<time>2024-05-09T12:36:51Z</time>
</trkpt>
<trkpt lat="49.70363228581846" lon="9.237576462328434">
<ele>143.6</ele>
<time>2024-05-09T12:36:52Z</time>
</trkpt>
<trkpt lat="49.70364754088223" lon="9.237538324669003">
<ele>143.4</ele>
<time>2024-05-09T12:36:53Z</time>
</trkpt>
<trkpt lat="49.703662795946" lon="9.237491553649306">
<ele>143.4</ele>
<time>2024-05-09T12:36:54Z</time>
</trkpt>
<trkpt lat="49.703678051009774" lon="9.237442938610911">
<ele>143.4</ele>
<time>2024-05-09T12:36:55Z</time>
</trkpt>
<trkpt lat="49.70369338989258" lon="9.237396167591214">
<ele>143.4</ele>
<time>2024-05-09T12:36:56Z</time>
</trkpt>
<trkpt lat="49.70371241681278" lon="9.23734663054347">
<ele>143.4</ele>
<time>2024-05-09T12:36:57Z</time>
</trkpt>
<trkpt lat="49.70372390002012" lon="9.237297009676697">
<ele>143.4</ele>
<time>2024-05-09T12:36:58Z</time>
</trkpt>
<trkpt lat="49.70372767187655" lon="9.237239761278031">
<ele>143.4</ele>
<time>2024-05-09T12:36:59Z</time>
</trkpt>
<trkpt lat="49.70373152755201" lon="9.23718636855483">
<ele>143.6</ele>
<time>2024-05-09T12:37:00Z</time>
</trkpt>
<trkpt lat="49.703739155083895" lon="9.237132975831628">
<ele>143.6</ele>
<time>2024-05-09T12:37:01Z</time>
</trkpt>
<trkpt lat="49.70374678261578" lon="9.237081510946156">
<ele>143.6</ele>
<time>2024-05-09T12:37:02Z</time>
</trkpt>
<trkpt lat="49.70375055447221" lon="9.23703189007938">
<ele>143.6</ele>
<time>2024-05-09T12:37:03Z</time>
</trkpt>
<trkpt lat="49.70375055447221" lon="9.236981347203256">
<ele>143.6</ele>
<time>2024-05-09T12:37:04Z</time>
</trkpt>
<trkpt lat="49.703758182004094" lon="9.23693172633648">
<ele>143.6</ele>
<time>2024-05-09T12:37:05Z</time>
</trkpt>
<trkpt lat="49.703758182004094" lon="9.236881183460357">
<ele>143.6</ele>
<time>2024-05-09T12:37:06Z</time>
</trkpt>
<trkpt lat="49.703758182004094" lon="9.236831646412613">
<ele>143.6</ele>
<time>2024-05-09T12:37:07Z</time>
</trkpt>
<trkpt lat="49.70375441014767" lon="9.236784875392914">
<ele>143.6</ele>
<time>2024-05-09T12:37:08Z</time>
</trkpt>
<trkpt lat="49.70374678261578" lon="9.23673626035452">
<ele>143.6</ele>
<time>2024-05-09T12:37:09Z</time>
</trkpt>
<trkpt lat="49.70374292694032" lon="9.236691417172551">
<ele>143.8</ele>
<time>2024-05-09T12:37:10Z</time>
</trkpt>
<trkpt lat="49.70373152755201" lon="9.236643724143503">
<ele>143.8</ele>
<time>2024-05-09T12:37:11Z</time>
</trkpt>
<trkpt lat="49.703720044344664" lon="9.23659703694284">
<ele>143.8</ele>
<time>2024-05-09T12:37:12Z</time>
</trkpt>
<trkpt lat="49.70370864495635" lon="9.236548421904445">
<ele>143.8</ele>
<time>2024-05-09T12:37:13Z</time>
</trkpt>
<trkpt lat="49.703697161749005" lon="9.236499723047018">
<ele>143.8</ele>
<time>2024-05-09T12:37:14Z</time>
</trkpt>
<trkpt lat="49.70368567854166" lon="9.236453035846353">
<ele>143.8</ele>
<time>2024-05-09T12:37:15Z</time>
</trkpt>
<trkpt lat="49.70367042347789" lon="9.236405342817308">
<ele>143.8</ele>
<time>2024-05-09T12:37:16Z</time>
</trkpt>
<trkpt lat="49.70365516841411" lon="9.23635857179761">
<ele>143.8</ele>
<time>2024-05-09T12:37:17Z</time>
</trkpt>
<trkpt lat="49.703639913350344" lon="9.236311884596944">
<ele>143.8</ele>
<time>2024-05-09T12:37:18Z</time>
</trkpt>
<trkpt lat="49.70362465828657" lon="9.236265113577248">
<ele>143.8</ele>
<time>2024-05-09T12:37:19Z</time>
</trkpt>
<trkpt lat="49.70360563136637" lon="9.23621842637658">
<ele>143.8</ele>
<time>2024-05-09T12:37:20Z</time>
</trkpt>
<trkpt lat="49.70358652062714" lon="9.236169811338186">
<ele>143.8</ele>
<time>2024-05-09T12:37:21Z</time>
</trkpt>
<trkpt lat="49.70357126556337" lon="9.23612019047141">
<ele>144</ele>
<time>2024-05-09T12:37:22Z</time>
</trkpt>
<trkpt lat="49.7035560104996" lon="9.236069647595286">
<ele>144</ele>
<time>2024-05-09T12:37:23Z</time>
</trkpt>
<trkpt lat="49.70354461111128" lon="9.236015249043705">
<ele>144.2</ele>
<time>2024-05-09T12:37:24Z</time>
</trkpt>
<trkpt lat="49.7035369835794" lon="9.235956156626344">
<ele>144</ele>
<time>2024-05-09T12:37:25Z</time>
</trkpt>
<trkpt lat="49.7035369835794" lon="9.235899914056064">
<ele>144.2</ele>
<time>2024-05-09T12:37:26Z</time>
</trkpt>
<trkpt lat="49.703540755435824" lon="9.235837887972592">
<ele>144.2</ele>
<time>2024-05-09T12:37:27Z</time>
</trkpt>
<trkpt lat="49.70354461111128" lon="9.235773012042046">
<ele>144.2</ele>
<time>2024-05-09T12:37:28Z</time>
</trkpt>
<trkpt lat="49.70355223864317" lon="9.235705370083451">
<ele>144.4</ele>
<time>2024-05-09T12:37:29Z</time>
</trkpt>
<trkpt lat="49.70356749370694" lon="9.235638566315174">
<ele>144.2</ele>
<time>2024-05-09T12:37:30Z</time>
</trkpt>
<trkpt lat="49.703582748770714" lon="9.235573690384626">
<ele>144.2</ele>
<time>2024-05-09T12:37:31Z</time>
</trkpt>
<trkpt lat="49.703598003834486" lon="9.23550982028246">
<ele>144.2</ele>
<time>2024-05-09T12:37:32Z</time>
</trkpt>
<trkpt lat="49.703617030754685" lon="9.23544972203672">
<ele>144.2</ele>
<time>2024-05-09T12:37:33Z</time>
</trkpt>
<trkpt lat="49.703639913350344" lon="9.235396329313517">
<ele>144.4</ele>
<time>2024-05-09T12:37:34Z</time>
</trkpt>
<trkpt lat="49.703662795946" lon="9.235351486131549">
<ele>144.2</ele>
<time>2024-05-09T12:37:35Z</time>
</trkpt>
<trkpt lat="49.70368953421712" lon="9.235315276309848">
<ele>144.2</ele>
<time>2024-05-09T12:37:36Z</time>
</trkpt>
<trkpt lat="49.70371241681278" lon="9.235281916335223">
<ele>144.4</ele>
<time>2024-05-09T12:37:37Z</time>
</trkpt>
<trkpt lat="49.70373152755201" lon="9.235241850838063">
<ele>144.4</ele>
<time>2024-05-09T12:37:38Z</time>
</trkpt>
<trkpt lat="49.70375055447221" lon="9.235206563025711">
<ele>144.4</ele>
<time>2024-05-09T12:37:39Z</time>
</trkpt>
<trkpt lat="49.70376580953598" lon="9.23517127521336">
<ele>144.2</ele>
<time>2024-05-09T12:37:40Z</time>
</trkpt>
<trkpt lat="49.70378106459975" lon="9.235137915238738">
<ele>144</ele>
<time>2024-05-09T12:37:41Z</time>
</trkpt>
<trkpt lat="49.70380017533898" lon="9.235104555264115">
<ele>143.8</ele>
<time>2024-05-09T12:37:42Z</time>
</trkpt>
<trkpt lat="49.70382305793464" lon="9.235070189461112">
<ele>143.8</ele>
<time>2024-05-09T12:37:43Z</time>
</trkpt>
<trkpt lat="49.70384208485484" lon="9.23503297381103">
<ele>143.8</ele>
<time>2024-05-09T12:37:44Z</time>
</trkpt>
<trkpt lat="49.70386505126953" lon="9.23499290831387">
<ele>143.8</ele>
<time>2024-05-09T12:37:45Z</time>
</trkpt>
<trkpt lat="49.70388407818973" lon="9.234951920807362">
<ele>143.8</ele>
<time>2024-05-09T12:37:46Z</time>
</trkpt>
<trkpt lat="49.70391081646085" lon="9.234911855310202">
<ele>144</ele>
<time>2024-05-09T12:37:47Z</time>
</trkpt>
<trkpt lat="49.70392984338105" lon="9.234871789813042">
<ele>144</ele>
<time>2024-05-09T12:37:48Z</time>
</trkpt>
<trkpt lat="49.703952725976706" lon="9.234829880297184">
<ele>144</ele>
<time>2024-05-09T12:37:49Z</time>
</trkpt>
<trkpt lat="49.70397183671594" lon="9.234786964952946">
<ele>144</ele>
<time>2024-05-09T12:37:50Z</time>
</trkpt>
<trkpt lat="49.703994719311595" lon="9.234744971618056">
<ele>144.2</ele>
<time>2024-05-09T12:37:51Z</time>
</trkpt>
<trkpt lat="49.70401760190725" lon="9.234702056273818">
<ele>144.2</ele>
<time>2024-05-09T12:37:52Z</time>
</trkpt>
<trkpt lat="49.70403671264648" lon="9.23466299660504">
<ele>144.4</ele>
<time>2024-05-09T12:37:53Z</time>
</trkpt>
<trkpt lat="49.70405573956669" lon="9.234628630802035">
<ele>144.4</ele>
<time>2024-05-09T12:37:54Z</time>
</trkpt>
<trkpt lat="49.704074850305915" lon="9.234593342989683">
<ele>144.4</ele>
<time>2024-05-09T12:37:55Z</time>
</trkpt>
<trkpt lat="49.70409010536969" lon="9.23456283286214">
<ele>144.4</ele>
<time>2024-05-09T12:37:56Z</time>
</trkpt>
<trkpt lat="49.70410536043346" lon="9.234531400725244">
<ele>144.6</ele>
<time>2024-05-09T12:37:57Z</time>
</trkpt>
<trkpt lat="49.70411675982177" lon="9.23449988476932">
<ele>144.8</ele>
<time>2024-05-09T12:37:58Z</time>
</trkpt>
<trkpt lat="49.70412438735366" lon="9.234466524794698">
<ele>144.8</ele>
<time>2024-05-09T12:37:59Z</time>
</trkpt>
<trkpt lat="49.70412824302912" lon="9.234428387135267">
<ele>144.8</ele>
<time>2024-05-09T12:38:00Z</time>
</trkpt>
<trkpt lat="49.70412824302912" lon="9.234386393800378">
<ele>144.8</ele>
<time>2024-05-09T12:38:01Z</time>
</trkpt>
<trkpt lat="49.70412061549723" lon="9.23434347845614">
<ele>144.8</ele>
<time>2024-05-09T12:38:02Z</time>
</trkpt>
<trkpt lat="49.704112987965345" lon="9.234298635274172">
<ele>144.8</ele>
<time>2024-05-09T12:38:03Z</time>
</trkpt>
<trkpt lat="49.704101504758" lon="9.234252870082855">
<ele>144.8</ele>
<time>2024-05-09T12:38:04Z</time>
</trkpt>
<trkpt lat="49.70408624969423" lon="9.234209954738615">
<ele>144.6</ele>
<time>2024-05-09T12:38:05Z</time>
</trkpt>
<trkpt lat="49.70406336709857" lon="9.234163267537951">
<ele>144.4</ele>
<time>2024-05-09T12:38:06Z</time>
</trkpt>
<trkpt lat="49.70404434017837" lon="9.234114568680525">
<ele>144.4</ele>
<time>2024-05-09T12:38:07Z</time>
</trkpt>
<trkpt lat="49.70402137376368" lon="9.234063103795052">
<ele>144.2</ele>
<time>2024-05-09T12:38:08Z</time>
</trkpt>
<trkpt lat="49.703994719311595" lon="9.23400686122477">
<ele>144</ele>
<time>2024-05-09T12:38:09Z</time>
</trkpt>
<trkpt lat="49.70397183671594" lon="9.2339448351413">
<ele>143.8</ele>
<time>2024-05-09T12:38:10Z</time>
</trkpt>
<trkpt lat="49.70394509844482" lon="9.23388473689556">
<ele>143.8</ele>
<time>2024-05-09T12:38:11Z</time>
</trkpt>
<trkpt lat="49.703918443992734" lon="9.233823716640472">
<ele>143.6</ele>
<time>2024-05-09T12:38:12Z</time>
</trkpt>
<trkpt lat="49.70388407818973" lon="9.233761774376037">
<ele>143.4</ele>
<time>2024-05-09T12:38:13Z</time>
</trkpt>
<trkpt lat="49.703853568062186" lon="9.233701676130297">
<ele>143.4</ele>
<time>2024-05-09T12:38:14Z</time>
</trkpt>
<trkpt lat="49.70382305793464" lon="9.233645433560014">
<ele>143.2</ele>
<time>2024-05-09T12:38:15Z</time>
</trkpt>
<trkpt lat="49.703796319663525" lon="9.233586257323624">
<ele>143</ele>
<time>2024-05-09T12:38:16Z</time>
</trkpt>
<trkpt lat="49.70376966521144" lon="9.233519537374375">
<ele>142.8</ele>
<time>2024-05-09T12:38:17Z</time>
</trkpt>
<trkpt lat="49.70374292694032" lon="9.23345373943448">
<ele>142.6</ele>
<time>2024-05-09T12:38:18Z</time>
</trkpt>
<trkpt lat="49.70371627248824" lon="9.233389785513282">
<ele>142.6</ele>
<time>2024-05-09T12:38:19Z</time>
</trkpt>
<trkpt lat="49.70368953421712" lon="9.233326837420464">
<ele>142.4</ele>
<time>2024-05-09T12:38:20Z</time>
</trkpt>
<trkpt lat="49.703662795946" lon="9.233266822993755">
<ele>142.2</ele>
<time>2024-05-09T12:38:21Z</time>
</trkpt>
<trkpt lat="49.70363228581846" lon="9.233204796910286">
<ele>142.2</ele>
<time>2024-05-09T12:38:22Z</time>
</trkpt>
<trkpt lat="49.70360563136637" lon="9.233144698664546">
<ele>142</ele>
<time>2024-05-09T12:38:23Z</time>
</trkpt>
<trkpt lat="49.703582748770714" lon="9.233084600418806">
<ele>141.8</ele>
<time>2024-05-09T12:38:24Z</time>
</trkpt>
<trkpt lat="49.703559866175056" lon="9.233024585992098">
<ele>141.8</ele>
<time>2024-05-09T12:38:25Z</time>
</trkpt>
<trkpt lat="49.7035369835794" lon="9.232965409755709">
<ele>141.8</ele>
<time>2024-05-09T12:38:26Z</time>
</trkpt>
<trkpt lat="49.70351401716471" lon="9.232906317338347">
<ele>141.8</ele>
<time>2024-05-09T12:38:27Z</time>
</trkpt>
<trkpt lat="49.70349499024451" lon="9.232848146930335">
<ele>141.8</ele>
<time>2024-05-09T12:38:28Z</time>
</trkpt>
<trkpt lat="49.70347210764885" lon="9.232788048684595">
<ele>141.8</ele>
<time>2024-05-09T12:38:29Z</time>
</trkpt>
<trkpt lat="49.70345299690962" lon="9.232729878276588">
<ele>141.8</ele>
<time>2024-05-09T12:38:30Z</time>
</trkpt>
<trkpt lat="49.70343011431396" lon="9.232669780030848">
<ele>141.8</ele>
<time>2024-05-09T12:38:31Z</time>
</trkpt>
<trkpt lat="49.7034072317183" lon="9.232614459469914">
<ele>141.8</ele>
<time>2024-05-09T12:38:32Z</time>
</trkpt>
<trkpt lat="49.7033882047981" lon="9.232555367052557">
<ele>141.6</ele>
<time>2024-05-09T12:38:33Z</time>
</trkpt>
<trkpt lat="49.70337672159076" lon="9.232493340969086">
<ele>141.6</ele>
<time>2024-05-09T12:38:34Z</time>
</trkpt>
<trkpt lat="49.70337294973433" lon="9.232430392876267">
<ele>141.6</ele>
<time>2024-05-09T12:38:35Z</time>
</trkpt>
<trkpt lat="49.70336909405887" lon="9.2323665227741">
<ele>141.4</ele>
<time>2024-05-09T12:38:36Z</time>
</trkpt>
<trkpt lat="49.70336532220245" lon="9.232299802824857">
<ele>141.4</ele>
<time>2024-05-09T12:38:37Z</time>
</trkpt>
<trkpt lat="49.703361466526985" lon="9.232232999056578">
<ele>141.6</ele>
<time>2024-05-09T12:38:38Z</time>
</trkpt>
<trkpt lat="49.703361466526985" lon="9.232163429260254">
<ele>141.6</ele>
<time>2024-05-09T12:38:39Z</time>
</trkpt>
<trkpt lat="49.703361466526985" lon="9.232093775644898">
<ele>141.6</ele>
<time>2024-05-09T12:38:40Z</time>
</trkpt>
<trkpt lat="49.703361466526985" lon="9.23202697187662">
<ele>141.6</ele>
<time>2024-05-09T12:38:41Z</time>
</trkpt>
<trkpt lat="49.703361466526985" lon="9.231961173936725">
<ele>141.6</ele>
<time>2024-05-09T12:38:42Z</time>
</trkpt>
<trkpt lat="49.7033538389951" lon="9.231895375996828">
<ele>141.6</ele>
<time>2024-05-09T12:38:43Z</time>
</trkpt>
<trkpt lat="49.70335006713867" lon="9.231829578056931">
<ele>141.6</ele>
<time>2024-05-09T12:38:44Z</time>
</trkpt>
<trkpt lat="49.70334621146321" lon="9.231764785945415">
<ele>141.6</ele>
<time>2024-05-09T12:38:45Z</time>
</trkpt>
<trkpt lat="49.703342355787754" lon="9.23169706016779">
<ele>141.6</ele>
<time>2024-05-09T12:38:46Z</time>
</trkpt>
<trkpt lat="49.70333858393133" lon="9.231631262227893">
<ele>141.6</ele>
<time>2024-05-09T12:38:47Z</time>
</trkpt>
<trkpt lat="49.70333472825587" lon="9.231566386297343">
<ele>141.8</ele>
<time>2024-05-09T12:38:48Z</time>
</trkpt>
<trkpt lat="49.70332710072398" lon="9.231501510366796">
<ele>141.8</ele>
<time>2024-05-09T12:38:49Z</time>
</trkpt>
<trkpt lat="49.703323328867555" lon="9.23143671825528">
<ele>141.8</ele>
<time>2024-05-09T12:38:50Z</time>
</trkpt>
<trkpt lat="49.70331570133567" lon="9.231369914487004">
<ele>141.8</ele>
<time>2024-05-09T12:38:51Z</time>
</trkpt>
<trkpt lat="49.70330807380378" lon="9.23130126670003">
<ele>141.8</ele>
<time>2024-05-09T12:38:52Z</time>
</trkpt>
<trkpt lat="49.703300446271896" lon="9.231233540922403">
<ele>141.8</ele>
<time>2024-05-09T12:38:53Z</time>
</trkpt>
<trkpt lat="49.70329281874001" lon="9.231164893135428">
<ele>141.8</ele>
<time>2024-05-09T12:38:54Z</time>
</trkpt>
<trkpt lat="49.70328896306455" lon="9.231098173186185">
<ele>141.8</ele>
<time>2024-05-09T12:38:55Z</time>
</trkpt>
<trkpt lat="49.703281335532665" lon="9.231026591733098">
<ele>141.8</ele>
<time>2024-05-09T12:38:56Z</time>
</trkpt>
<trkpt lat="49.70327370800078" lon="9.230959871783853">
<ele>141.8</ele>
<time>2024-05-09T12:38:57Z</time>
</trkpt>
<trkpt lat="49.70326993614435" lon="9.230891223996878">
<ele>141.8</ele>
<time>2024-05-09T12:38:58Z</time>
</trkpt>
<trkpt lat="49.70325845293701" lon="9.230821570381522">
<ele>141.8</ele>
<time>2024-05-09T12:38:59Z</time>
</trkpt>
<trkpt lat="49.70325468108058" lon="9.230752922594547">
<ele>141.8</ele>
<time>2024-05-09T12:39:00Z</time>
</trkpt>
<trkpt lat="49.70325082540512" lon="9.23068519681692">
<ele>141.8</ele>
<time>2024-05-09T12:39:01Z</time>
</trkpt>
<trkpt lat="49.703243197873235" lon="9.230614621192217">
<ele>141.8</ele>
<time>2024-05-09T12:39:02Z</time>
</trkpt>
<trkpt lat="49.70323942601681" lon="9.23054496757686">
<ele>141.8</ele>
<time>2024-05-09T12:39:03Z</time>
</trkpt>
<trkpt lat="49.70323557034135" lon="9.230473469942808">
<ele>142</ele>
<time>2024-05-09T12:39:04Z</time>
</trkpt>
<trkpt lat="49.70323179848492" lon="9.230402894318104">
<ele>142</ele>
<time>2024-05-09T12:39:05Z</time>
</trkpt>
<trkpt lat="49.70322794280946" lon="9.23033039085567">
<ele>142</ele>
<time>2024-05-09T12:39:06Z</time>
</trkpt>
<trkpt lat="49.703220315277576" lon="9.230257971212268">
<ele>142</ele>
<time>2024-05-09T12:39:07Z</time>
</trkpt>
<trkpt lat="49.70321654342115" lon="9.230190245434642">
<ele>142</ele>
<time>2024-05-09T12:39:08Z</time>
</trkpt>
<trkpt lat="49.703220315277576" lon="9.230125369504094">
<ele>142</ele>
<time>2024-05-09T12:39:09Z</time>
</trkpt>
<trkpt lat="49.703220315277576" lon="9.230065271258354">
<ele>141.8</ele>
<time>2024-05-09T12:39:10Z</time>
</trkpt>
<trkpt lat="49.70321654342115" lon="9.230005256831646">
<ele>141.8</ele>
<time>2024-05-09T12:39:11Z</time>
</trkpt>
<trkpt lat="49.70321268774569" lon="9.229945158585906">
<ele>141.8</ele>
<time>2024-05-09T12:39:12Z</time>
</trkpt>
<trkpt lat="49.70320506021381" lon="9.229881204664707">
<ele>141.8</ele>
<time>2024-05-09T12:39:13Z</time>
</trkpt>
<trkpt lat="49.70319743268192" lon="9.229816412553191">
<ele>141.6</ele>
<time>2024-05-09T12:39:14Z</time>
</trkpt>
<trkpt lat="49.70318980515003" lon="9.229749608784914">
<ele>141.4</ele>
<time>2024-05-09T12:39:15Z</time>
</trkpt>
<trkpt lat="49.70318980515003" lon="9.22967811115086">
<ele>141.4</ele>
<time>2024-05-09T12:39:16Z</time>
</trkpt>
<trkpt lat="49.703182177618146" lon="9.229608457535504">
<ele>141.2</ele>
<time>2024-05-09T12:39:17Z</time>
</trkpt>
<trkpt lat="49.7031706944108" lon="9.22954173758626">
<ele>141.2</ele>
<time>2024-05-09T12:39:18Z</time>
</trkpt>
<trkpt lat="49.703163066878915" lon="9.229476861655712">
<ele>141</ele>
<time>2024-05-09T12:39:19Z</time>
</trkpt>
<trkpt lat="49.70314781181514" lon="9.229412069544196">
<ele>141</ele>
<time>2024-05-09T12:39:20Z</time>
</trkpt>
<trkpt lat="49.70313641242683" lon="9.22934526577592">
<ele>140.8</ele>
<time>2024-05-09T12:39:21Z</time>
</trkpt>
<trkpt lat="49.70312492921949" lon="9.229278545826674">
<ele>140.8</ele>
<time>2024-05-09T12:39:22Z</time>
</trkpt>
<trkpt lat="49.70310967415571" lon="9.2292098980397">
<ele>140.8</ele>
<time>2024-05-09T12:39:23Z</time>
</trkpt>
<trkpt lat="49.7030982747674" lon="9.22914309427142">
<ele>141</ele>
<time>2024-05-09T12:39:24Z</time>
</trkpt>
<trkpt lat="49.70308301970363" lon="9.229075368493795">
<ele>141</ele>
<time>2024-05-09T12:39:25Z</time>
</trkpt>
<trkpt lat="49.703067764639854" lon="9.2290095705539">
<ele>141.2</ele>
<time>2024-05-09T12:39:26Z</time>
</trkpt>
<trkpt lat="49.70305250957608" lon="9.228942850604652">
<ele>141.2</ele>
<time>2024-05-09T12:39:27Z</time>
</trkpt>
<trkpt lat="49.70304102636874" lon="9.228877974674106">
<ele>141.4</ele>
<time>2024-05-09T12:39:28Z</time>
</trkpt>
<trkpt lat="49.703025771304965" lon="9.228813098743558">
<ele>141.4</ele>
<time>2024-05-09T12:39:29Z</time>
</trkpt>
<trkpt lat="49.70301051624119" lon="9.22875015065074">
<ele>141.4</ele>
<time>2024-05-09T12:39:30Z</time>
</trkpt>
<trkpt lat="49.70299140550196" lon="9.228686280548573">
<ele>141.6</ele>
<time>2024-05-09T12:39:31Z</time>
</trkpt>
<trkpt lat="49.70297615043819" lon="9.228623332455754">
<ele>141.6</ele>
<time>2024-05-09T12:39:32Z</time>
</trkpt>
<trkpt lat="49.70295326784253" lon="9.228560384362936">
<ele>141.6</ele>
<time>2024-05-09T12:39:33Z</time>
</trkpt>
<trkpt lat="49.70293424092233" lon="9.228500286117196">
<ele>141.6</ele>
<time>2024-05-09T12:39:34Z</time>
</trkpt>
<trkpt lat="49.7029151301831" lon="9.228436416015027">
<ele>141.8</ele>
<time>2024-05-09T12:39:35Z</time>
</trkpt>
<trkpt lat="49.70289987511933" lon="9.22837346792221">
<ele>142</ele>
<time>2024-05-09T12:39:36Z</time>
</trkpt>
<trkpt lat="49.70288462005555" lon="9.228309597820044">
<ele>142</ele>
<time>2024-05-09T12:39:37Z</time>
</trkpt>
<trkpt lat="49.702869364991784" lon="9.228246649727224">
<ele>142</ele>
<time>2024-05-09T12:39:38Z</time>
</trkpt>
<trkpt lat="49.702846482396126" lon="9.228188479319217">
<ele>142.2</ele>
<time>2024-05-09T12:39:39Z</time>
</trkpt>
<trkpt lat="49.702827371656895" lon="9.228130308911204">
<ele>142.2</ele>
<time>2024-05-09T12:39:40Z</time>
</trkpt>
<trkpt lat="49.702808344736695" lon="9.228073060512545">
<ele>142.2</ele>
<time>2024-05-09T12:39:41Z</time>
</trkpt>
<trkpt lat="49.70279308967292" lon="9.228012040257454">
<ele>142.4</ele>
<time>2024-05-09T12:39:42Z</time>
</trkpt>
<trkpt lat="49.70277783460915" lon="9.227948170155289">
<ele>142.6</ele>
<time>2024-05-09T12:39:43Z</time>
</trkpt>
<trkpt lat="49.70275495201349" lon="9.227886144071816">
<ele>142.6</ele>
<time>2024-05-09T12:39:44Z</time>
</trkpt>
<trkpt lat="49.70273584127426" lon="9.227825123816729">
<ele>142.6</ele>
<time>2024-05-09T12:39:45Z</time>
</trkpt>
<trkpt lat="49.70271681435406" lon="9.227765025570989">
<ele>142.8</ele>
<time>2024-05-09T12:39:46Z</time>
</trkpt>
<trkpt lat="49.7026939317584" lon="9.227703083306553">
<ele>142.8</ele>
<time>2024-05-09T12:39:47Z</time>
</trkpt>
<trkpt lat="49.70267482101917" lon="9.227642985060813">
<ele>142.8</ele>
<time>2024-05-09T12:39:48Z</time>
</trkpt>
<trkpt lat="49.70265571027994" lon="9.2275848146528">
<ele>142.8</ele>
<time>2024-05-09T12:39:49Z</time>
</trkpt>
<trkpt lat="49.70263282768428" lon="9.22752664424479">
<ele>142.8</ele>
<time>2024-05-09T12:39:50Z</time>
</trkpt>
<trkpt lat="49.70261380076408" lon="9.227471323683858">
<ele>142.6</ele>
<time>2024-05-09T12:39:51Z</time>
</trkpt>
<trkpt lat="49.70259469002485" lon="9.227416925132276">
<ele>142.4</ele>
<time>2024-05-09T12:39:52Z</time>
</trkpt>
<trkpt lat="49.70257566310465" lon="9.227361604571342">
<ele>142.4</ele>
<time>2024-05-09T12:39:53Z</time>
</trkpt>
<trkpt lat="49.70255655236542" lon="9.22730536200106">
<ele>142.4</ele>
<time>2024-05-09T12:39:54Z</time>
</trkpt>
<trkpt lat="49.70253752544522" lon="9.227246269583702">
<ele>142.6</ele>
<time>2024-05-09T12:39:55Z</time>
</trkpt>
<trkpt lat="49.70251841470599" lon="9.227188099175692">
<ele>142.6</ele>
<time>2024-05-09T12:39:56Z</time>
</trkpt>
<trkpt lat="49.70250315964222" lon="9.22712992876768">
<ele>142.6</ele>
<time>2024-05-09T12:39:57Z</time>
</trkpt>
<trkpt lat="49.70248404890299" lon="9.22706983052194">
<ele>142.8</ele>
<time>2024-05-09T12:39:58Z</time>
</trkpt>
<trkpt lat="49.70246502198279" lon="9.227007804438472">
<ele>142.8</ele>
<time>2024-05-09T12:39:59Z</time>
</trkpt>
<trkpt lat="49.70244591124356" lon="9.226946784183385">
<ele>143</ele>
<time>2024-05-09T12:40:00Z</time>
</trkpt>
<trkpt lat="49.7024230286479" lon="9.226884841918944">
<ele>143</ele>
<time>2024-05-09T12:40:01Z</time>
</trkpt>
<trkpt lat="49.7024040017277" lon="9.226821893826129">
<ele>143</ele>
<time>2024-05-09T12:40:02Z</time>
</trkpt>
<trkpt lat="49.70238489098847" lon="9.226759867742658">
<ele>143</ele>
<time>2024-05-09T12:40:03Z</time>
</trkpt>
<trkpt lat="49.70236586406827" lon="9.226699769496918">
<ele>143.2</ele>
<time>2024-05-09T12:40:04Z</time>
</trkpt>
<trkpt lat="49.70234675332904" lon="9.226638749241827">
<ele>143.2</ele>
<time>2024-05-09T12:40:05Z</time>
</trkpt>
<trkpt lat="49.70232772640884" lon="9.22657965682447">
<ele>143.2</ele>
<time>2024-05-09T12:40:06Z</time>
</trkpt>
<trkpt lat="49.70230861566961" lon="9.226523330435157">
<ele>143.2</ele>
<time>2024-05-09T12:40:07Z</time>
</trkpt>
<trkpt lat="49.70228950493038" lon="9.226465160027146">
<ele>143.2</ele>
<time>2024-05-09T12:40:08Z</time>
</trkpt>
<trkpt lat="49.70227047801018" lon="9.226406989619136">
<ele>143.2</ele>
<time>2024-05-09T12:40:09Z</time>
</trkpt>
<trkpt lat="49.702255222946405" lon="9.226349825039506">
<ele>143.2</ele>
<time>2024-05-09T12:40:10Z</time>
</trkpt>
<trkpt lat="49.70223234035075" lon="9.226295426487924">
<ele>143</ele>
<time>2024-05-09T12:40:11Z</time>
</trkpt>
<trkpt lat="49.70221322961152" lon="9.22624010592699">
<ele>143</ele>
<time>2024-05-09T12:40:12Z</time>
</trkpt>
<trkpt lat="49.70219420269132" lon="9.22618193551898">
<ele>143</ele>
<time>2024-05-09T12:40:13Z</time>
</trkpt>
<trkpt lat="49.702175091952085" lon="9.226126614958048">
<ele>143</ele>
<time>2024-05-09T12:40:14Z</time>
</trkpt>
<trkpt lat="49.70215983688831" lon="9.226071294397116">
<ele>142.8</ele>
<time>2024-05-09T12:40:15Z</time>
</trkpt>
<trkpt lat="49.70214072614908" lon="9.226017901673911">
<ele>143</ele>
<time>2024-05-09T12:40:16Z</time>
</trkpt>
<trkpt lat="49.70212169922888" lon="9.22596643678844">
<ele>143</ele>
<time>2024-05-09T12:40:17Z</time>
</trkpt>
<trkpt lat="49.702098816633224" lon="9.225910110399129">
<ele>143</ele>
<time>2024-05-09T12:40:18Z</time>
</trkpt>
<trkpt lat="49.70207970589399" lon="9.225858645513654">
<ele>143</ele>
<time>2024-05-09T12:40:19Z</time>
</trkpt>
<trkpt lat="49.70206445083022" lon="9.2258061747998">
<ele>143.2</ele>
<time>2024-05-09T12:40:20Z</time>
</trkpt>
<trkpt lat="49.70204156823456" lon="9.225753704085946">
<ele>143.2</ele>
<time>2024-05-09T12:40:21Z</time>
</trkpt>
<trkpt lat="49.70203016884625" lon="9.225701317191124">
<ele>143.4</ele>
<time>2024-05-09T12:40:22Z</time>
</trkpt>
<trkpt lat="49.70201105810702" lon="9.225651696324348">
<ele>143.6</ele>
<time>2024-05-09T12:40:23Z</time>
</trkpt>
<trkpt lat="49.701995803043246" lon="9.225600231438875">
<ele>143.6</ele>
<time>2024-05-09T12:40:24Z</time>
</trkpt>
<trkpt lat="49.70197677612305" lon="9.22554675489664">
<ele>143.8</ele>
<time>2024-05-09T12:40:25Z</time>
</trkpt>
<trkpt lat="49.701957665383816" lon="9.22549151815474">
<ele>143.8</ele>
<time>2024-05-09T12:40:26Z</time>
</trkpt>
<trkpt lat="49.70193478278816" lon="9.225435191765428">
<ele>143.8</ele>
<time>2024-05-09T12:40:27Z</time>
</trkpt>
<trkpt lat="49.701915672048926" lon="9.225381799042225">
<ele>144</ele>
<time>2024-05-09T12:40:28Z</time>
</trkpt>
<trkpt lat="49.70189664512873" lon="9.225324550643563">
<ele>144</ele>
<time>2024-05-09T12:40:29Z</time>
</trkpt>
<trkpt lat="49.70187376253307" lon="9.22527308575809">
<ele>144</ele>
<time>2024-05-09T12:40:30Z</time>
</trkpt>
<trkpt lat="49.70185087993741" lon="9.225223464891316">
<ele>144.2</ele>
<time>2024-05-09T12:40:31Z</time>
</trkpt>
<trkpt lat="49.70183176919818" lon="9.22517484985292">
<ele>144.4</ele>
<time>2024-05-09T12:40:32Z</time>
</trkpt>
<trkpt lat="49.70181274227798" lon="9.225128162652254">
<ele>144.4</ele>
<time>2024-05-09T12:40:33Z</time>
</trkpt>
<trkpt lat="49.70179363153875" lon="9.225085247308016">
<ele>144.6</ele>
<time>2024-05-09T12:40:34Z</time>
</trkpt>
<trkpt lat="49.70177452079952" lon="9.22503654845059">
<ele>144.6</ele>
<time>2024-05-09T12:40:35Z</time>
</trkpt>
<trkpt lat="49.70175163820386" lon="9.224981227889655">
<ele>144.8</ele>
<time>2024-05-09T12:40:36Z</time>
</trkpt>
<trkpt lat="49.701724983751774" lon="9.224927835166454">
<ele>144.8</ele>
<time>2024-05-09T12:40:37Z</time>
</trkpt>
<trkpt lat="49.70170587301254" lon="9.224873520433905">
<ele>144.8</ele>
<time>2024-05-09T12:40:38Z</time>
</trkpt>
<trkpt lat="49.70168684609234" lon="9.2248201277107">
<ele>145</ele>
<time>2024-05-09T12:40:39Z</time>
</trkpt>
<trkpt lat="49.701663963496685" lon="9.224766651168466">
<ele>145</ele>
<time>2024-05-09T12:40:40Z</time>
</trkpt>
<trkpt lat="49.701644852757454" lon="9.224711414426563">
<ele>145</ele>
<time>2024-05-09T12:40:41Z</time>
</trkpt>
<trkpt lat="49.70162197016179" lon="9.224657015874982">
<ele>145</ele>
<time>2024-05-09T12:40:42Z</time>
</trkpt>
<trkpt lat="49.701602859422565" lon="9.224604545161128">
<ele>145</ele>
<time>2024-05-09T12:40:43Z</time>
</trkpt>
<trkpt lat="49.701583832502365" lon="9.224551152437924">
<ele>145.2</ele>
<time>2024-05-09T12:40:44Z</time>
</trkpt>
<trkpt lat="49.70156857743859" lon="9.22450345940888">
<ele>145.2</ele>
<time>2024-05-09T12:40:45Z</time>
</trkpt>
<trkpt lat="49.70154946669936" lon="9.224451994523406">
<ele>145.2</ele>
<time>2024-05-09T12:40:46Z</time>
</trkpt>
<trkpt lat="49.70153043977916" lon="9.224398601800203">
<ele>145.4</ele>
<time>2024-05-09T12:40:47Z</time>
</trkpt>
<trkpt lat="49.70151132903993" lon="9.224343281239271">
<ele>145.4</ele>
<time>2024-05-09T12:40:48Z</time>
</trkpt>
<trkpt lat="49.70149230211973" lon="9.22428796067834">
<ele>145.4</ele>
<time>2024-05-09T12:40:49Z</time>
</trkpt>
<trkpt lat="49.7014731913805" lon="9.224231718108058">
<ele>145.4</ele>
<time>2024-05-09T12:40:50Z</time>
</trkpt>
<trkpt lat="49.70145408064127" lon="9.224176397547126">
<ele>145.4</ele>
<time>2024-05-09T12:40:51Z</time>
</trkpt>
<trkpt lat="49.70143505372107" lon="9.22412484884262">
<ele>145.6</ele>
<time>2024-05-09T12:40:52Z</time>
</trkpt>
<trkpt lat="49.70141594298184" lon="9.224071456119418">
<ele>145.6</ele>
<time>2024-05-09T12:40:53Z</time>
</trkpt>
<trkpt lat="49.70139306038618" lon="9.224018063396215">
<ele>145.8</ele>
<time>2024-05-09T12:40:54Z</time>
</trkpt>
<trkpt lat="49.70137780532241" lon="9.223964670673013">
<ele>146</ele>
<time>2024-05-09T12:40:55Z</time>
</trkpt>
<trkpt lat="49.70135877840221" lon="9.223915049806235">
<ele>146</ele>
<time>2024-05-09T12:40:56Z</time>
</trkpt>
<trkpt lat="49.70133966766298" lon="9.223868362605572">
<ele>146.2</ele>
<time>2024-05-09T12:40:57Z</time>
</trkpt>
<trkpt lat="49.70132064074278" lon="9.223823519423604">
<ele>146.4</ele>
<time>2024-05-09T12:40:58Z</time>
</trkpt>
<trkpt lat="49.70130538567901" lon="9.22377297654748">
<ele>146.6</ele>
<time>2024-05-09T12:40:59Z</time>
</trkpt>
<trkpt lat="49.701290130615234" lon="9.223718577995896">
<ele>146.8</ele>
<time>2024-05-09T12:41:00Z</time>
</trkpt>
<trkpt lat="49.701267164200544" lon="9.223667113110425">
<ele>147</ele>
<time>2024-05-09T12:41:01Z</time>
</trkpt>
<trkpt lat="49.701248137280345" lon="9.22361464239657">
<ele>147.2</ele>
<time>2024-05-09T12:41:02Z</time>
</trkpt>
<trkpt lat="49.701229026541114" lon="9.223565021529794">
<ele>147.4</ele>
<time>2024-05-09T12:41:03Z</time>
</trkpt>
<trkpt lat="49.701209999620914" lon="9.22351355664432">
<ele>147.6</ele>
<time>2024-05-09T12:41:04Z</time>
</trkpt>
<trkpt lat="49.701187117025256" lon="9.223460163921118">
<ele>147.8</ele>
<time>2024-05-09T12:41:05Z</time>
</trkpt>
<trkpt lat="49.701168006286025" lon="9.223409621044992">
<ele>148</ele>
<time>2024-05-09T12:41:06Z</time>
</trkpt>
<trkpt lat="49.70114512369037" lon="9.223366705700755">
<ele>148.4</ele>
<time>2024-05-09T12:41:07Z</time>
</trkpt>
<trkpt lat="49.70112609677017" lon="9.223319934681058">
<ele>148.6</ele>
<time>2024-05-09T12:41:08Z</time>
</trkpt>
<trkpt lat="49.701106986030936" lon="9.22327995300293">
<ele>148.8</ele>
<time>2024-05-09T12:41:09Z</time>
</trkpt>
<trkpt lat="49.701087875291705" lon="9.22323795966804">
<ele>149</ele>
<time>2024-05-09T12:41:10Z</time>
</trkpt>
<trkpt lat="49.70106499269605" lon="9.22319982200861">
<ele>149.2</ele>
<time>2024-05-09T12:41:11Z</time>
</trkpt>
<trkpt lat="49.70104211010039" lon="9.22316168434918">
<ele>149.4</ele>
<time>2024-05-09T12:41:12Z</time>
</trkpt>
<trkpt lat="49.70102308318019" lon="9.223126396536829">
<ele>149.6</ele>
<time>2024-05-09T12:41:13Z</time>
</trkpt>
<trkpt lat="49.70100020058453" lon="9.223092030733824">
<ele>149.8</ele>
<time>2024-05-09T12:41:14Z</time>
</trkpt>
<trkpt lat="49.70098494552076" lon="9.2230586707592">
<ele>150</ele>
<time>2024-05-09T12:41:15Z</time>
</trkpt>
<trkpt lat="49.70096583478153" lon="9.223025310784578">
<ele>150.2</ele>
<time>2024-05-09T12:41:16Z</time>
</trkpt>
<trkpt lat="49.70094680786133" lon="9.222991866990924">
<ele>150.4</ele>
<time>2024-05-09T12:41:17Z</time>
</trkpt>
<trkpt lat="49.70092384144664" lon="9.222954735159874">
<ele>150.6</ele>
<time>2024-05-09T12:41:18Z</time>
</trkpt>
<trkpt lat="49.70090095885098" lon="9.22292036935687">
<ele>150.8</ele>
<time>2024-05-09T12:41:19Z</time>
</trkpt>
<trkpt lat="49.70087807625532" lon="9.222883153706787">
<ele>151</ele>
<time>2024-05-09T12:41:20Z</time>
</trkpt>
<trkpt lat="49.70085519365966" lon="9.222843088209627">
<ele>151.2</ele>
<time>2024-05-09T12:41:21Z</time>
</trkpt>
<trkpt lat="49.700832311064005" lon="9.2228049505502">
<ele>151.4</ele>
<time>2024-05-09T12:41:22Z</time>
</trkpt>
<trkpt lat="49.70080942846835" lon="9.22276496887207">
<ele>151.8</ele>
<time>2024-05-09T12:41:23Z</time>
</trkpt>
<trkpt lat="49.70078654587269" lon="9.222726747393608">
<ele>152</ele>
<time>2024-05-09T12:41:24Z</time>
</trkpt>
<trkpt lat="49.70075980760157" lon="9.222689615562558">
<ele>152.2</ele>
<time>2024-05-09T12:41:25Z</time>
</trkpt>
<trkpt lat="49.70074078068137" lon="9.222658099606631">
<ele>152.6</ele>
<time>2024-05-09T12:41:26Z</time>
</trkpt>
<trkpt lat="49.70072166994214" lon="9.22262666746974">
<ele>152.8</ele>
<time>2024-05-09T12:41:27Z</time>
</trkpt>
<trkpt lat="49.70070264302194" lon="9.222595151513817">
<ele>153</ele>
<time>2024-05-09T12:41:28Z</time>
</trkpt>
<trkpt lat="49.70068353228271" lon="9.22256464138627">
<ele>153</ele>
<time>2024-05-09T12:41:29Z</time>
</trkpt>
<trkpt lat="49.70066450536251" lon="9.222531281411648">
<ele>153.2</ele>
<time>2024-05-09T12:41:30Z</time>
</trkpt>
<trkpt lat="49.70064162276685" lon="9.222499765455725">
<ele>153.4</ele>
<time>2024-05-09T12:41:31Z</time>
</trkpt>
<trkpt lat="49.70062251202762" lon="9.22247026115656">
<ele>153.4</ele>
<time>2024-05-09T12:41:32Z</time>
</trkpt>
<trkpt lat="49.70060348510742" lon="9.222436901181936">
<ele>153.4</ele>
<time>2024-05-09T12:41:33Z</time>
</trkpt>
<trkpt lat="49.70058437436819" lon="9.222401613369584">
<ele>153.6</ele>
<time>2024-05-09T12:41:34Z</time>
</trkpt>
<trkpt lat="49.70056526362896" lon="9.222365319728851">
<ele>153.8</ele>
<time>2024-05-09T12:41:35Z</time>
</trkpt>
<trkpt lat="49.70055000856519" lon="9.22232810407877">
<ele>154</ele>
<time>2024-05-09T12:41:36Z</time>
</trkpt>
<trkpt lat="49.70052712596953" lon="9.222286194562912">
<ele>154</ele>
<time>2024-05-09T12:41:37Z</time>
</trkpt>
<trkpt lat="49.70050809904933" lon="9.2222470510751">
<ele>154.4</ele>
<time>2024-05-09T12:41:38Z</time>
</trkpt>
<trkpt lat="49.70049284398556" lon="9.222203213721514">
<ele>154.6</ele>
<time>2024-05-09T12:41:39Z</time>
</trkpt>
<trkpt lat="49.700477588921785" lon="9.222158370539546">
<ele>154.8</ele>
<time>2024-05-09T12:41:40Z</time>
</trkpt>
<trkpt lat="49.70046233385801" lon="9.22211168333888">
<ele>155</ele>
<time>2024-05-09T12:41:41Z</time>
</trkpt>
<trkpt lat="49.70044707879424" lon="9.222064912319183">
<ele>155.2</ele>
<time>2024-05-09T12:41:42Z</time>
</trkpt>
<trkpt lat="49.700435595586896" lon="9.222021996974943">
<ele>155.4</ele>
<time>2024-05-09T12:41:43Z</time>
</trkpt>
<trkpt lat="49.70042411237955" lon="9.221978159621358">
<ele>155.4</ele>
<time>2024-05-09T12:41:44Z</time>
</trkpt>
<trkpt lat="49.70041271299124" lon="9.22193524427712">
<ele>155.6</ele>
<time>2024-05-09T12:41:45Z</time>
</trkpt>
<trkpt lat="49.70040885731578" lon="9.22189325094223">
<ele>155.6</ele>
<time>2024-05-09T12:41:46Z</time>
</trkpt>
<trkpt lat="49.70040508545935" lon="9.22185318544507">
<ele>155.8</ele>
<time>2024-05-09T12:41:47Z</time>
</trkpt>
<trkpt lat="49.70040508545935" lon="9.221821753308175">
<ele>155.8</ele>
<time>2024-05-09T12:41:48Z</time>
</trkpt>
<trkpt lat="49.70040122978389" lon="9.221806498244405">
<ele>155.8</ele>
<time>2024-05-09T12:41:49Z</time>
</trkpt>
<trkpt lat="49.70040122978389" lon="9.221804570406675">
<ele>155.8</ele>
<time>2024-05-09T12:41:50Z</time>
</trkpt>
<trkpt lat="49.70040508545935" lon="9.221806498244405">
<ele>155.8</ele>
<time>2024-05-09T12:41:51Z</time>
</trkpt>
<trkpt lat="49.70040508545935" lon="9.221803648397326">
<ele>156</ele>
<time>2024-05-09T12:41:53Z</time>
</trkpt>
<trkpt lat="49.70040508545935" lon="9.221801720559595">
<ele>156</ele>
<time>2024-05-09T12:41:54Z</time>
</trkpt>
<trkpt lat="49.70040122978389" lon="9.221799792721868">
<ele>156.2</ele>
<time>2024-05-09T12:41:55Z</time>
</trkpt>
<trkpt lat="49.70040122978389" lon="9.22179694287479">
<ele>156.4</ele>
<time>2024-05-09T12:41:56Z</time>
</trkpt>
<trkpt lat="49.700397457927465" lon="9.22179694287479">
<ele>156.4</ele>
<time>2024-05-09T12:41:57Z</time>
</trkpt>
<trkpt lat="49.70039360225201" lon="9.221793171018362">
<ele>156.6</ele>
<time>2024-05-09T12:41:58Z</time>
</trkpt>
<trkpt lat="49.70038983039558" lon="9.221788393333554">
<ele>156.6</ele>
<time>2024-05-09T12:41:59Z</time>
</trkpt>
<trkpt lat="49.70038220286369" lon="9.221784537658095">
<ele>156.4</ele>
<time>2024-05-09T12:42:00Z</time>
</trkpt>
<trkpt lat="49.700378347188234" lon="9.221786465495825">
<ele>156.4</ele>
<time>2024-05-09T12:42:01Z</time>
</trkpt>
<trkpt lat="49.70037071965635" lon="9.22179501503706">
<ele>156.2</ele>
<time>2024-05-09T12:42:02Z</time>
</trkpt>
<trkpt lat="49.700359320268035" lon="9.22181311994791">
<ele>156.2</ele>
<time>2024-05-09T12:42:03Z</time>
</trkpt>
<trkpt lat="49.70035169273615" lon="9.22183315269649">
<ele>156</ele>
<time>2024-05-09T12:42:04Z</time>
</trkpt>
<trkpt lat="49.7003402095288" lon="9.221851341426373">
<ele>155.8</ele>
<time>2024-05-09T12:42:05Z</time>
</trkpt>
<trkpt lat="49.70032881014049" lon="9.22187514603138">
<ele>155.8</ele>
<time>2024-05-09T12:42:06Z</time>
</trkpt>
<trkpt lat="49.70031355507672" lon="9.2218913231045">
<ele>155.6</ele>
<time>2024-05-09T12:42:07Z</time>
</trkpt>
<trkpt lat="49.70029067248106" lon="9.221898028627038">
<ele>155.6</ele>
<time>2024-05-09T12:42:08Z</time>
</trkpt>
<trkpt lat="49.70026393420994" lon="9.22189517877996">
<ele>155.4</ele>
<time>2024-05-09T12:42:09Z</time>
</trkpt>
<trkpt lat="49.70022956840694" lon="9.22189710661769">
<ele>155.2</ele>
<time>2024-05-09T12:42:10Z</time>
</trkpt>
<trkpt lat="49.70018765889108" lon="9.221901884302495">
<ele>155</ele>
<time>2024-05-09T12:42:11Z</time>
</trkpt>
<trkpt lat="49.70014566555619" lon="9.221908506006002">
<ele>154.8</ele>
<time>2024-05-09T12:42:12Z</time>
</trkpt>
<trkpt lat="49.700103756040335" lon="9.22191521152854">
<ele>154.8</ele>
<time>2024-05-09T12:42:13Z</time>
</trkpt>
<trkpt lat="49.7000502794981" lon="9.221919989213347">
<ele>154.6</ele>
<time>2024-05-09T12:42:14Z</time>
</trkpt>
<trkpt lat="49.70000074245036" lon="9.221926610916851">
<ele>154.4</ele>
<time>2024-05-09T12:42:15Z</time>
</trkpt>
<trkpt lat="49.69995112158358" lon="9.22193331643939">
<ele>154.2</ele>
<time>2024-05-09T12:42:16Z</time>
</trkpt>
<trkpt lat="49.69989772886038" lon="9.221942871809006">
<ele>153.8</ele>
<time>2024-05-09T12:42:17Z</time>
</trkpt>
<trkpt lat="49.699844336137176" lon="9.22195334918797">
<ele>153.8</ele>
<time>2024-05-09T12:42:18Z</time>
</trkpt>
<trkpt lat="49.699787087738514" lon="9.221958126872778">
<ele>153.6</ele>
<time>2024-05-09T12:42:19Z</time>
</trkpt>
<trkpt lat="49.69972983933985" lon="9.22195334918797">
<ele>153.4</ele>
<time>2024-05-09T12:42:20Z</time>
</trkpt>
<trkpt lat="49.699665047228336" lon="9.22193331643939">
<ele>153.2</ele>
<time>2024-05-09T12:42:21Z</time>
</trkpt>
<trkpt lat="49.699607798829675" lon="9.221906661987305">
<ele>152.8</ele>
<time>2024-05-09T12:42:22Z</time>
</trkpt>
<trkpt lat="49.699546778574586" lon="9.221879923716187">
<ele>152.6</ele>
<time>2024-05-09T12:42:23Z</time>
</trkpt>
<trkpt lat="49.69948953017592" lon="9.22185704112053">
<ele>152.4</ele>
<time>2024-05-09T12:42:24Z</time>
</trkpt>
<trkpt lat="49.69942473806441" lon="9.221843713894486">
<ele>152.4</ele>
<time>2024-05-09T12:42:25Z</time>
</trkpt>
<trkpt lat="49.69936363399029" lon="9.221830302849412">
<ele>152.2</ele>
<time>2024-05-09T12:42:26Z</time>
</trkpt>
<trkpt lat="49.6993026137352" lon="9.22181697562337">
<ele>152</ele>
<time>2024-05-09T12:42:27Z</time>
</trkpt>
<trkpt lat="49.69924159348011" lon="9.221806498244405">
<ele>152</ele>
<time>2024-05-09T12:42:28Z</time>
</trkpt>
<trkpt lat="49.69917671754956" lon="9.221791243180633">
<ele>151.8</ele>
<time>2024-05-09T12:42:29Z</time>
</trkpt>
<trkpt lat="49.69911192543805" lon="9.22177691012621">
<ele>151.8</ele>
<time>2024-05-09T12:42:30Z</time>
</trkpt>
<trkpt lat="49.6990470495075" lon="9.221763582900168">
<ele>151.8</ele>
<time>2024-05-09T12:42:31Z</time>
</trkpt>
<trkpt lat="49.69898602925241" lon="9.221748327836394">
<ele>151.8</ele>
<time>2024-05-09T12:42:32Z</time>
</trkpt>
<trkpt lat="49.69892115332186" lon="9.221731144934893">
<ele>151.8</ele>
<time>2024-05-09T12:42:33Z</time>
</trkpt>
<trkpt lat="49.69886013306677" lon="9.221714967861772">
<ele>151.6</ele>
<time>2024-05-09T12:42:34Z</time>
</trkpt>
<trkpt lat="49.698799112811685" lon="9.22169870696962">
<ele>151.6</ele>
<time>2024-05-09T12:42:35Z</time>
</trkpt>
<trkpt lat="49.69873809255659" lon="9.221681524068115">
<ele>151.6</ele>
<time>2024-05-09T12:42:36Z</time>
</trkpt>
<trkpt lat="49.69868461601436" lon="9.221665346994996">
<ele>151.6</ele>
<time>2024-05-09T12:42:37Z</time>
</trkpt>
<trkpt lat="49.69862745143473" lon="9.221650091931224">
<ele>151.6</ele>
<time>2024-05-09T12:42:38Z</time>
</trkpt>
<trkpt lat="49.69857020303607" lon="9.221634836867452">
<ele>151.6</ele>
<time>2024-05-09T12:42:39Z</time>
</trkpt>
<trkpt lat="49.69851681031287" lon="9.2216185759753">
<ele>151.8</ele>
<time>2024-05-09T12:42:40Z</time>
</trkpt>
<trkpt lat="49.69846718944609" lon="9.221603320911528">
<ele>151.8</ele>
<time>2024-05-09T12:42:41Z</time>
</trkpt>
<trkpt lat="49.69841379672289" lon="9.221586221829057">
<ele>151.6</ele>
<time>2024-05-09T12:42:42Z</time>
</trkpt>
<trkpt lat="49.698360403999686" lon="9.221571888774632">
<ele>151.6</ele>
<time>2024-05-09T12:42:43Z</time>
</trkpt>
<trkpt lat="49.69831078313291" lon="9.22155663371086">
<ele>151.6</ele>
<time>2024-05-09T12:42:44Z</time>
</trkpt>
<trkpt lat="49.69825361855328" lon="9.221540372818708">
<ele>151.6</ele>
<time>2024-05-09T12:42:45Z</time>
</trkpt>
<trkpt lat="49.69820022583008" lon="9.221521345898507">
<ele>151.4</ele>
<time>2024-05-09T12:42:46Z</time>
</trkpt>
<trkpt lat="49.69814674928784" lon="9.221507012844086">
<ele>151.4</ele>
<time>2024-05-09T12:42:47Z</time>
</trkpt>
<trkpt lat="49.698089584708214" lon="9.221493685618045">
<ele>151.4</ele>
<time>2024-05-09T12:42:48Z</time>
</trkpt>
<trkpt lat="49.69803619198501" lon="9.22147650271654">
<ele>151.2</ele>
<time>2024-05-09T12:42:49Z</time>
</trkpt>
<trkpt lat="49.69797894358635" lon="9.221461247652767">
<ele>151.2</ele>
<time>2024-05-09T12:42:50Z</time>
</trkpt>
<trkpt lat="49.69792169518769" lon="9.221451692283154">
<ele>151</ele>
<time>2024-05-09T12:42:51Z</time>
</trkpt>
<trkpt lat="49.697868302464485" lon="9.22144314274192">
<ele>151</ele>
<time>2024-05-09T12:42:52Z</time>
</trkpt>
<trkpt lat="49.69781490974128" lon="9.221434593200684">
<ele>151</ele>
<time>2024-05-09T12:42:53Z</time>
</trkpt>
<trkpt lat="49.69775766134262" lon="9.221426881849766">
<ele>151</ele>
<time>2024-05-09T12:42:54Z</time>
</trkpt>
<trkpt lat="49.69770426861942" lon="9.22142118215561">
<ele>151</ele>
<time>2024-05-09T12:42:55Z</time>
</trkpt>
<trkpt lat="49.69764702022076" lon="9.221414560452104">
<ele>150.8</ele>
<time>2024-05-09T12:42:56Z</time>
</trkpt>
<trkpt lat="49.697593627497554" lon="9.221409782767296">
<ele>150.8</ele>
<time>2024-05-09T12:42:57Z</time>
</trkpt>
<trkpt lat="49.69754023477435" lon="9.221405005082488">
<ele>150.8</ele>
<time>2024-05-09T12:42:58Z</time>
</trkpt>
<trkpt lat="49.69748684205115" lon="9.22140307724476">
<ele>150.8</ele>
<time>2024-05-09T12:42:59Z</time>
</trkpt>
<trkpt lat="49.697433449327946" lon="9.221405005082488">
<ele>150.6</ele>
<time>2024-05-09T12:43:00Z</time>
</trkpt>
<trkpt lat="49.69738005660474" lon="9.221409782767296">
<ele>150.6</ele>
<time>2024-05-09T12:43:01Z</time>
</trkpt>
<trkpt lat="49.69732658006251" lon="9.2214164044708">
<ele>150.4</ele>
<time>2024-05-09T12:43:02Z</time>
</trkpt>
<trkpt lat="49.69726941548288" lon="9.221425037831068">
<ele>150.2</ele>
<time>2024-05-09T12:43:03Z</time>
</trkpt>
<trkpt lat="49.69721216708422" lon="9.22144029289484">
<ele>150.2</ele>
<time>2024-05-09T12:43:04Z</time>
</trkpt>
<trkpt lat="49.697154918685555" lon="9.22146032564342">
<ele>150</ele>
<time>2024-05-09T12:43:05Z</time>
</trkpt>
<trkpt lat="49.69710152596235" lon="9.221480358392">
<ele>150</ele>
<time>2024-05-09T12:43:06Z</time>
</trkpt>
<trkpt lat="49.69704813323915" lon="9.221501313149927">
<ele>149.8</ele>
<time>2024-05-09T12:43:07Z</time>
</trkpt>
<trkpt lat="49.69699474051595" lon="9.221525117754936">
<ele>149.8</ele>
<time>2024-05-09T12:43:08Z</time>
</trkpt>
<trkpt lat="49.696941347792745" lon="9.221549928188324">
<ele>149.6</ele>
<time>2024-05-09T12:43:09Z</time>
</trkpt>
<trkpt lat="49.69688795506954" lon="9.22157666645944">
<ele>149.6</ele>
<time>2024-05-09T12:43:10Z</time>
</trkpt>
<trkpt lat="49.69683456234634" lon="9.221603320911528">
<ele>149.4</ele>
<time>2024-05-09T12:43:11Z</time>
</trkpt>
<trkpt lat="49.696781085804105" lon="9.221625281497836">
<ele>149.4</ele>
<time>2024-05-09T12:43:12Z</time>
</trkpt>
<trkpt lat="49.6967276930809" lon="9.221645314246416">
<ele>149.4</ele>
<time>2024-05-09T12:43:13Z</time>
</trkpt>
<trkpt lat="49.6966743003577" lon="9.221666269004343">
<ele>149.4</ele>
<time>2024-05-09T12:43:14Z</time>
</trkpt>
<trkpt lat="49.6966209076345" lon="9.221688229590654">
<ele>149.4</ele>
<time>2024-05-09T12:43:15Z</time>
</trkpt>
<trkpt lat="49.69657128676772" lon="9.221708262339234">
<ele>149.4</ele>
<time>2024-05-09T12:43:16Z</time>
</trkpt>
<trkpt lat="49.69652174971998" lon="9.221725445240736">
<ele>149.4</ele>
<time>2024-05-09T12:43:17Z</time>
</trkpt>
<trkpt lat="49.6964721288532" lon="9.221741622313855">
<ele>149.4</ele>
<time>2024-05-09T12:43:18Z</time>
</trkpt>
<trkpt lat="49.696422507986426" lon="9.22175788320601">
<ele>149.4</ele>
<time>2024-05-09T12:43:19Z</time>
</trkpt>
<trkpt lat="49.69637297093868" lon="9.221773138269782">
<ele>149.4</ele>
<time>2024-05-09T12:43:20Z</time>
</trkpt>
<trkpt lat="49.69632335007191" lon="9.221788393333554">
<ele>149.4</ele>
<time>2024-05-09T12:43:21Z</time>
</trkpt>
<trkpt lat="49.69627372920513" lon="9.221801720559595">
<ele>149.6</ele>
<time>2024-05-09T12:43:22Z</time>
</trkpt>
<trkpt lat="49.69622033648193" lon="9.22181697562337">
<ele>149.6</ele>
<time>2024-05-09T12:43:23Z</time>
</trkpt>
<trkpt lat="49.696170799434185" lon="9.221831308677793">
<ele>149.6</ele>
<time>2024-05-09T12:43:24Z</time>
</trkpt>
<trkpt lat="49.69612117856741" lon="9.221844635903835">
<ele>149.6</ele>
<time>2024-05-09T12:43:25Z</time>
</trkpt>
<trkpt lat="49.696071557700634" lon="9.221857963129878">
<ele>149.6</ele>
<time>2024-05-09T12:43:26Z</time>
</trkpt>
<trkpt lat="49.69602202065289" lon="9.221871374174953">
<ele>149.6</ele>
<time>2024-05-09T12:43:27Z</time>
</trkpt>
<trkpt lat="49.695976255461574" lon="9.221886629238725">
<ele>149.8</ele>
<time>2024-05-09T12:43:28Z</time>
</trkpt>
<trkpt lat="49.6959266345948" lon="9.221903728321196">
<ele>149.8</ele>
<time>2024-05-09T12:43:29Z</time>
</trkpt>
<trkpt lat="49.69587701372802" lon="9.221922839060426">
<ele>149.8</ele>
<time>2024-05-09T12:43:30Z</time>
</trkpt>
<trkpt lat="49.69582362100482" lon="9.221946643665431">
<ele>149.8</ele>
<time>2024-05-09T12:43:31Z</time>
</trkpt>
<trkpt lat="49.69577400013805" lon="9.22197338193655">
<ele>150</ele>
<time>2024-05-09T12:43:32Z</time>
</trkpt>
<trkpt lat="49.69572823494673" lon="9.222000120207667">
<ele>150</ele>
<time>2024-05-09T12:43:33Z</time>
</trkpt>
<trkpt lat="49.695678697898984" lon="9.222028702497482">
<ele>150</ele>
<time>2024-05-09T12:43:34Z</time>
</trkpt>
<trkpt lat="49.69563293270767" lon="9.222055356949568">
<ele>150</ele>
<time>2024-05-09T12:43:35Z</time>
</trkpt>
<trkpt lat="49.69558331184089" lon="9.222082095220683">
<ele>150.2</ele>
<time>2024-05-09T12:43:36Z</time>
</trkpt>
<trkpt lat="49.69553369097411" lon="9.222104977816343">
<ele>150.2</ele>
<time>2024-05-09T12:43:37Z</time>
</trkpt>
<trkpt lat="49.69548415392637" lon="9.222127860412002">
<ele>150</ele>
<time>2024-05-09T12:43:38Z</time>
</trkpt>
<trkpt lat="49.6954345330596" lon="9.222156442701817">
<ele>150</ele>
<time>2024-05-09T12:43:39Z</time>
</trkpt>
<trkpt lat="49.69538491219282" lon="9.222187036648393">
<ele>149.8</ele>
<time>2024-05-09T12:43:40Z</time>
</trkpt>
<trkpt lat="49.69533537514508" lon="9.222216540947556">
<ele>149.8</ele>
<time>2024-05-09T12:43:41Z</time>
</trkpt>
<trkpt lat="49.6952857542783" lon="9.22224805690348">
<ele>149.6</ele>
<time>2024-05-09T12:43:42Z</time>
</trkpt>
<trkpt lat="49.69523613341153" lon="9.222278567031026">
<ele>149.6</ele>
<time>2024-05-09T12:43:43Z</time>
</trkpt>
<trkpt lat="49.69518659636378" lon="9.222306227311492">
<ele>149.4</ele>
<time>2024-05-09T12:43:44Z</time>
</trkpt>
<trkpt lat="49.69513320364058" lon="9.222338665276766">
<ele>149.4</ele>
<time>2024-05-09T12:43:45Z</time>
</trkpt>
<trkpt lat="49.695083582773805" lon="9.22237009741366">
<ele>149.2</ele>
<time>2024-05-09T12:43:46Z</time>
</trkpt>
<trkpt lat="49.69503396190703" lon="9.222403457388282">
<ele>149.2</ele>
<time>2024-05-09T12:43:47Z</time>
</trkpt>
<trkpt lat="49.694980569183826" lon="9.222436901181936">
<ele>149</ele>
<time>2024-05-09T12:43:48Z</time>
</trkpt>
<trkpt lat="49.694927176460624" lon="9.222471183165908">
<ele>149</ele>
<time>2024-05-09T12:43:49Z</time>
</trkpt>
<trkpt lat="49.69487378373742" lon="9.22250647097826">
<ele>149</ele>
<time>2024-05-09T12:43:50Z</time>
</trkpt>
<trkpt lat="49.69482039101422" lon="9.222539830952885">
<ele>148.8</ele>
<time>2024-05-09T12:43:51Z</time>
</trkpt>
<trkpt lat="49.69477077014744" lon="9.222571346908808">
<ele>148.8</ele>
<time>2024-05-09T12:43:52Z</time>
</trkpt>
<trkpt lat="49.69471737742424" lon="9.22260470688343">
<ele>148.6</ele>
<time>2024-05-09T12:43:53Z</time>
</trkpt>
<trkpt lat="49.69466398470104" lon="9.222638066858051">
<ele>148.4</ele>
<time>2024-05-09T12:43:54Z</time>
</trkpt>
<trkpt lat="49.694610591977835" lon="9.222671426832676">
<ele>148.2</ele>
<time>2024-05-09T12:43:55Z</time>
</trkpt>
<trkpt lat="49.69455334357917" lon="9.22270487062633">
<ele>148.2</ele>
<time>2024-05-09T12:43:56Z</time>
</trkpt>
<trkpt lat="49.69449995085597" lon="9.222738230600951">
<ele>148</ele>
<time>2024-05-09T12:43:57Z</time>
</trkpt>
<trkpt lat="49.694450329989195" lon="9.222773518413304">
<ele>147.8</ele>
<time>2024-05-09T12:43:58Z</time>
</trkpt>
<trkpt lat="49.69440070912242" lon="9.222806878387928">
<ele>147.8</ele>
<time>2024-05-09T12:43:59Z</time>
</trkpt>
<trkpt lat="49.69435117207467" lon="9.222838394343851">
<ele>147.6</ele>
<time>2024-05-09T12:44:00Z</time>
</trkpt>
<trkpt lat="49.69429777935147" lon="9.222873682156203">
<ele>147.6</ele>
<time>2024-05-09T12:44:01Z</time>
</trkpt>
<trkpt lat="49.6942481584847" lon="9.222903186455367">
<ele>147.6</ele>
<time>2024-05-09T12:44:02Z</time>
</trkpt>
<trkpt lat="49.69419853761792" lon="9.222931852564216">
<ele>147.6</ele>
<time>2024-05-09T12:44:03Z</time>
</trkpt>
<trkpt lat="49.69414900057018" lon="9.222963284701107">
<ele>147.4</ele>
<time>2024-05-09T12:44:04Z</time>
</trkpt>
<trkpt lat="49.69410323537886" lon="9.222992872819304">
<ele>147.4</ele>
<time>2024-05-09T12:44:05Z</time>
</trkpt>
<trkpt lat="49.694053614512086" lon="9.223026232793927">
<ele>147.4</ele>
<time>2024-05-09T12:44:06Z</time>
</trkpt>
<trkpt lat="49.69400784932077" lon="9.22306152060628">
<ele>147.4</ele>
<time>2024-05-09T12:44:07Z</time>
</trkpt>
<trkpt lat="49.693958228453994" lon="9.223094880580902">
<ele>147.4</ele>
<time>2024-05-09T12:44:08Z</time>
</trkpt>
<trkpt lat="49.69390869140625" lon="9.223126396536829">
<ele>147.4</ele>
<time>2024-05-09T12:44:09Z</time>
</trkpt>
<trkpt lat="49.6938628423959" lon="9.223156906664371">
<ele>147.4</ele>
<time>2024-05-09T12:44:10Z</time>
</trkpt>
<trkpt lat="49.693817077204585" lon="9.223186410963535">
<ele>147.2</ele>
<time>2024-05-09T12:44:11Z</time>
</trkpt>
<trkpt lat="49.69377516768873" lon="9.223211221396925">
<ele>147.2</ele>
<time>2024-05-09T12:44:12Z</time>
</trkpt>
<trkpt lat="49.69372554682195" lon="9.223237037658691">
<ele>147.2</ele>
<time>2024-05-09T12:44:13Z</time>
</trkpt>
<trkpt lat="49.693679781630635" lon="9.223263692110775">
<ele>147.2</ele>
<time>2024-05-09T12:44:14Z</time>
</trkpt>
<trkpt lat="49.69363401643932" lon="9.223290430381894">
<ele>147.2</ele>
<time>2024-05-09T12:44:15Z</time>
</trkpt>
<trkpt lat="49.69358439557254" lon="9.22331809066236">
<ele>147.2</ele>
<time>2024-05-09T12:44:16Z</time>
</trkpt>
<trkpt lat="49.69353477470577" lon="9.223344745114446">
<ele>147.4</ele>
<time>2024-05-09T12:44:17Z</time>
</trkpt>
<trkpt lat="49.69348900951445" lon="9.223373411223292">
<ele>147.4</ele>
<time>2024-05-09T12:44:18Z</time>
</trkpt>
<trkpt lat="49.69343947246671" lon="9.223400065675378">
<ele>147.4</ele>
<time>2024-05-09T12:44:19Z</time>
</trkpt>
<trkpt lat="49.69338985159993" lon="9.223422948271036">
<ele>147.6</ele>
<time>2024-05-09T12:44:20Z</time>
</trkpt>
<trkpt lat="49.693344086408615" lon="9.223448680713773">
<ele>147.6</ele>
<time>2024-05-09T12:44:21Z</time>
</trkpt>
<trkpt lat="49.6932983212173" lon="9.223471563309433">
<ele>147.6</ele>
<time>2024-05-09T12:44:22Z</time>
</trkpt>
<trkpt lat="49.69324870035052" lon="9.22349545173347">
<ele>147.6</ele>
<time>2024-05-09T12:44:23Z</time>
</trkpt>
<trkpt lat="49.69319907948375" lon="9.2235164064914">
<ele>147.6</ele>
<time>2024-05-09T12:44:24Z</time>
</trkpt>
<trkpt lat="49.69315331429243" lon="9.2235335893929">
<ele>147.6</ele>
<time>2024-05-09T12:44:25Z</time>
</trkpt>
<trkpt lat="49.69310377724469" lon="9.223551694303753">
<ele>147.4</ele>
<time>2024-05-09T12:44:26Z</time>
</trkpt>
<trkpt lat="49.69305801205337" lon="9.223567955195904">
<ele>147.4</ele>
<time>2024-05-09T12:44:27Z</time>
</trkpt>
<trkpt lat="49.693008391186595" lon="9.223580360412598">
<ele>147.4</ele>
<time>2024-05-09T12:44:28Z</time>
</trkpt>
<trkpt lat="49.69295877031982" lon="9.22358983196318">
<ele>147.2</ele>
<time>2024-05-09T12:44:29Z</time>
</trkpt>
<trkpt lat="49.6929130051285" lon="9.223605087026954">
<ele>147.2</ele>
<time>2024-05-09T12:44:30Z</time>
</trkpt>
<trkpt lat="49.69286338426173" lon="9.223620342090726">
<ele>147.2</ele>
<time>2024-05-09T12:44:31Z</time>
</trkpt>
<trkpt lat="49.69282147474587" lon="9.22363467514515">
<ele>147</ele>
<time>2024-05-09T12:44:32Z</time>
</trkpt>
<trkpt lat="49.692771853879094" lon="9.22365185804665">
<ele>147</ele>
<time>2024-05-09T12:44:33Z</time>
</trkpt>
<trkpt lat="49.69272608868778" lon="9.2236699629575">
<ele>146.8</ele>
<time>2024-05-09T12:44:34Z</time>
</trkpt>
<trkpt lat="49.69268032349646" lon="9.22368999570608">
<ele>146.8</ele>
<time>2024-05-09T12:44:35Z</time>
</trkpt>
<trkpt lat="49.692634558305144" lon="9.22371002845466">
<ele>146.6</ele>
<time>2024-05-09T12:44:36Z</time>
</trkpt>
<trkpt lat="49.69258493743837" lon="9.22373006120324">
<ele>146.6</ele>
<time>2024-05-09T12:44:37Z</time>
</trkpt>
<trkpt lat="49.692535400390625" lon="9.223746238276362">
<ele>146.6</ele>
<time>2024-05-09T12:44:38Z</time>
</trkpt>
<trkpt lat="49.69248577952385" lon="9.223768198862672">
<ele>146.6</ele>
<time>2024-05-09T12:44:39Z</time>
</trkpt>
<trkpt lat="49.692436158657074" lon="9.22379200346768">
<ele>146.8</ele>
<time>2024-05-09T12:44:40Z</time>
</trkpt>
<trkpt lat="49.69238662160933" lon="9.223808264359832">
<ele>146.8</ele>
<time>2024-05-09T12:44:41Z</time>
</trkpt>
<trkpt lat="49.692333145067096" lon="9.223823519423604">
<ele>146.8</ele>
<time>2024-05-09T12:44:42Z</time>
</trkpt>
<trkpt lat="49.69228360801935" lon="9.223836846649649">
<ele>146.8</ele>
<time>2024-05-09T12:44:43Z</time>
</trkpt>
<trkpt lat="49.692233987152576" lon="9.22385017387569">
<ele>147</ele>
<time>2024-05-09T12:44:44Z</time>
</trkpt>
<trkpt lat="49.6921843662858" lon="9.223861657083036">
<ele>147</ele>
<time>2024-05-09T12:44:45Z</time>
</trkpt>
<trkpt lat="49.69213482923806" lon="9.22387121245265">
<ele>147</ele>
<time>2024-05-09T12:44:46Z</time>
</trkpt>
<trkpt lat="49.69208520837128" lon="9.223881689831614">
<ele>147</ele>
<time>2024-05-09T12:44:47Z</time>
</trkpt>
<trkpt lat="49.69203181564808" lon="9.223888395354152">
<ele>147</ele>
<time>2024-05-09T12:44:48Z</time>
</trkpt>
<trkpt lat="49.69198605045676" lon="9.22389124520123">
<ele>147.2</ele>
<time>2024-05-09T12:44:49Z</time>
</trkpt>
<trkpt lat="49.69193642958999" lon="9.223893089219928">
<ele>147.2</ele>
<time>2024-05-09T12:44:50Z</time>
</trkpt>
<trkpt lat="49.69188689254224" lon="9.223896944895388">
<ele>147.2</ele>
<time>2024-05-09T12:44:51Z</time>
</trkpt>
<trkpt lat="49.69183727167547" lon="9.223901722580194">
<ele>147.2</ele>
<time>2024-05-09T12:44:52Z</time>
</trkpt>
<trkpt lat="49.69179150648415" lon="9.223903650417924">
<ele>147.2</ele>
<time>2024-05-09T12:44:53Z</time>
</trkpt>
<trkpt lat="49.69174951314926" lon="9.223906500265002">
<ele>147.2</ele>
<time>2024-05-09T12:44:54Z</time>
</trkpt>
<trkpt lat="49.691703747957945" lon="9.223904572427273">
<ele>147.2</ele>
<time>2024-05-09T12:44:55Z</time>
</trkpt>
<trkpt lat="49.691661754623055" lon="9.223901722580194">
<ele>147.2</ele>
<time>2024-05-09T12:44:56Z</time>
</trkpt>
<trkpt lat="49.6916198451072" lon="9.223897866904736">
<ele>147.2</ele>
<time>2024-05-09T12:44:57Z</time>
</trkpt>
<trkpt lat="49.69157785177231" lon="9.223896944895388">
<ele>147.2</ele>
<time>2024-05-09T12:44:58Z</time>
</trkpt>
<trkpt lat="49.69153971411288" lon="9.223893089219928">
<ele>147.2</ele>
<time>2024-05-09T12:44:59Z</time>
</trkpt>
<trkpt lat="49.691505432128906" lon="9.223897866904736">
<ele>147.2</ele>
<time>2024-05-09T12:45:00Z</time>
</trkpt>
<trkpt lat="49.69147483818233" lon="9.22391027212143">
<ele>147.2</ele>
<time>2024-05-09T12:45:01Z</time>
</trkpt>
<trkpt lat="49.69145195558667" lon="9.223941788077354">
<ele>147.2</ele>
<time>2024-05-09T12:45:02Z</time>
</trkpt>
<trkpt lat="49.691444328054786" lon="9.22398847527802">
<ele>147</ele>
<time>2024-05-09T12:45:03Z</time>
</trkpt>
<trkpt lat="49.691444328054786" lon="9.224051423370838">
<ele>147</ele>
<time>2024-05-09T12:45:04Z</time>
</trkpt>
<trkpt lat="49.691448183730245" lon="9.224115293473004">
<ele>146.8</ele>
<time>2024-05-09T12:45:05Z</time>
</trkpt>
<trkpt lat="49.69145581126213" lon="9.224183019250631">
<ele>146.6</ele>
<time>2024-05-09T12:45:06Z</time>
</trkpt>
<trkpt lat="49.69146343879402" lon="9.22424789518118">
<ele>146.6</ele>
<time>2024-05-09T12:45:07Z</time>
</trkpt>
<trkpt lat="49.69146343879402" lon="9.224320398643613">
<ele>146.4</ele>
<time>2024-05-09T12:45:08Z</time>
</trkpt>
<trkpt lat="49.69146721065045" lon="9.224392818287017">
<ele>146.2</ele>
<time>2024-05-09T12:45:09Z</time>
</trkpt>
<trkpt lat="49.69146721065045" lon="9.22446339391172">
<ele>146.2</ele>
<time>2024-05-09T12:45:10Z</time>
</trkpt>
<trkpt lat="49.69146721065045" lon="9.224533047527077">
<ele>146.2</ele>
<time>2024-05-09T12:45:11Z</time>
</trkpt>
<trkpt lat="49.6914710663259" lon="9.22460362315178">
<ele>146</ele>
<time>2024-05-09T12:45:12Z</time>
</trkpt>
<trkpt lat="49.69147869385779" lon="9.224671348929403">
<ele>146</ele>
<time>2024-05-09T12:45:13Z</time>
</trkpt>
<trkpt lat="49.691482465714216" lon="9.22473999671638">
<ele>146</ele>
<time>2024-05-09T12:45:14Z</time>
</trkpt>
<trkpt lat="49.691486321389675" lon="9.224802944809198">
<ele>146</ele>
<time>2024-05-09T12:45:15Z</time>
</trkpt>
<trkpt lat="49.6914900932461" lon="9.224862037226558">
<ele>145.8</ele>
<time>2024-05-09T12:45:16Z</time>
</trkpt>
<trkpt lat="49.69149394892156" lon="9.224911658093331">
<ele>145.8</ele>
<time>2024-05-09T12:45:17Z</time>
</trkpt>
<trkpt lat="49.69149772077799" lon="9.2249565012753">
<ele>146</ele>
<time>2024-05-09T12:45:18Z</time>
</trkpt>
<trkpt lat="49.69150157645345" lon="9.225001260638235">
<ele>146</ele>
<time>2024-05-09T12:45:19Z</time>
</trkpt>
<trkpt lat="49.691505432128906" lon="9.225041326135395">
<ele>146.2</ele>
<time>2024-05-09T12:45:20Z</time>
</trkpt>
<trkpt lat="49.691505432128906" lon="9.225079463794827">
<ele>146.4</ele>
<time>2024-05-09T12:45:21Z</time>
</trkpt>
<trkpt lat="49.69149394892156" lon="9.22511860728264">
<ele>146.4</ele>
<time>2024-05-09T12:45:22Z</time>
</trkpt>
<trkpt lat="49.69147483818233" lon="9.225143417716026">
<ele>146.6</ele>
<time>2024-05-09T12:45:23Z</time>
</trkpt>
<trkpt lat="49.691448183730245" lon="9.22515481710434">
<ele>146.8</ele>
<time>2024-05-09T12:45:24Z</time>
</trkpt>
<trkpt lat="49.691425301134586" lon="9.225161522626877">
<ele>147.2</ele>
<time>2024-05-09T12:45:25Z</time>
</trkpt>
<trkpt lat="49.69139479100704" lon="9.225168228149414">
<ele>147.2</ele>
<time>2024-05-09T12:45:26Z</time>
</trkpt>
<trkpt lat="49.691368052735925" lon="9.225178705528378">
<ele>147.4</ele>
<time>2024-05-09T12:45:27Z</time>
</trkpt>
<trkpt lat="49.69133754260838" lon="9.225178705528378">
<ele>147.4</ele>
<time>2024-05-09T12:45:28Z</time>
</trkpt>
<trkpt lat="49.69130317680538" lon="9.225176777690647">
<ele>147.4</ele>
<time>2024-05-09T12:45:29Z</time>
</trkpt>
<trkpt lat="49.691268894821405" lon="9.22517484985292">
<ele>147.4</ele>
<time>2024-05-09T12:45:30Z</time>
</trkpt>
<trkpt lat="49.6912345290184" lon="9.225179627537727">
<ele>147.4</ele>
<time>2024-05-09T12:45:31Z</time>
</trkpt>
<trkpt lat="49.69120024703443" lon="9.225181555375457">
<ele>147.4</ele>
<time>2024-05-09T12:45:32Z</time>
</trkpt>
<trkpt lat="49.69116588123143" lon="9.225186333060265">
<ele>147.4</ele>
<time>2024-05-09T12:45:33Z</time>
</trkpt>
<trkpt lat="49.691127743572" lon="9.225188177078962">
<ele>147.2</ele>
<time>2024-05-09T12:45:34Z</time>
</trkpt>
<trkpt lat="49.691089605912566" lon="9.2251948826015">
<ele>147.2</ele>
<time>2024-05-09T12:45:35Z</time>
</trkpt>
<trkpt lat="49.691051468253136" lon="9.225201588124037">
<ele>147.2</ele>
<time>2024-05-09T12:45:36Z</time>
</trkpt>
<trkpt lat="49.691013330593705" lon="9.225208209827542">
<ele>147.2</ele>
<time>2024-05-09T12:45:37Z</time>
</trkpt>
<trkpt lat="49.69097510911524" lon="9.22521298751235">
<ele>147.2</ele>
<time>2024-05-09T12:45:38Z</time>
</trkpt>
<trkpt lat="49.69094082713127" lon="9.22521491535008">
<ele>147.2</ele>
<time>2024-05-09T12:45:39Z</time>
</trkpt>
<trkpt lat="49.69090268947184" lon="9.225216843187807">
<ele>147.2</ele>
<time>2024-05-09T12:45:40Z</time>
</trkpt>
<trkpt lat="49.69086455181241" lon="9.22521491535008">
<ele>147.2</ele>
<time>2024-05-09T12:45:41Z</time>
</trkpt>
<trkpt lat="49.69082641415298" lon="9.22521491535008">
<ele>147.2</ele>
<time>2024-05-09T12:45:42Z</time>
</trkpt>
<trkpt lat="49.69078442081809" lon="9.22521298751235">
<ele>147</ele>
<time>2024-05-09T12:45:43Z</time>
</trkpt>
<trkpt lat="49.6907424274832" lon="9.225210137665272">
<ele>147</ele>
<time>2024-05-09T12:45:44Z</time>
</trkpt>
<trkpt lat="49.69069666229189" lon="9.225206365808845">
<ele>147</ele>
<time>2024-05-09T12:45:45Z</time>
</trkpt>
<trkpt lat="49.69065475277603" lon="9.225205359980464">
<ele>147</ele>
<time>2024-05-09T12:45:46Z</time>
</trkpt>
<trkpt lat="49.69060890376568" lon="9.225203432142736">
<ele>147</ele>
<time>2024-05-09T12:45:47Z</time>
</trkpt>
<trkpt lat="49.69056313857436" lon="9.225203432142736">
<ele>147</ele>
<time>2024-05-09T12:45:48Z</time>
</trkpt>
<trkpt lat="49.690521229058504" lon="9.225199660286307">
<ele>147</ele>
<time>2024-05-09T12:45:49Z</time>
</trkpt>
<trkpt lat="49.69047546386719" lon="9.22519295476377">
<ele>147</ele>
<time>2024-05-09T12:45:50Z</time>
</trkpt>
<trkpt lat="49.6904334705323" lon="9.225190104916692">
<ele>147</ele>
<time>2024-05-09T12:45:51Z</time>
</trkpt>
<trkpt lat="49.69039147719741" lon="9.225183483213186">
<ele>147</ele>
<time>2024-05-09T12:45:52Z</time>
</trkpt>
<trkpt lat="49.69034571200609" lon="9.225178705528378">
<ele>147</ele>
<time>2024-05-09T12:45:53Z</time>
</trkpt>
<trkpt lat="49.690303802490234" lon="9.22517292201519">
<ele>147</ele>
<time>2024-05-09T12:45:54Z</time>
</trkpt>
<trkpt lat="49.690257953479886" lon="9.225166300311685">
<ele>147</ele>
<time>2024-05-09T12:45:55Z</time>
</trkpt>
<trkpt lat="49.69021604396403" lon="9.2251586727798">
<ele>147</ele>
<time>2024-05-09T12:45:56Z</time>
</trkpt>
<trkpt lat="49.69017027877271" lon="9.225148195400834">
<ele>147</ele>
<time>2024-05-09T12:45:57Z</time>
</trkpt>
<trkpt lat="49.69012828543782" lon="9.225136712193487">
<ele>147</ele>
<time>2024-05-09T12:45:58Z</time>
</trkpt>
<trkpt lat="49.69009014777839" lon="9.225123384967446">
<ele>147</ele>
<time>2024-05-09T12:45:59Z</time>
</trkpt>
<trkpt lat="49.6900481544435" lon="9.225108129903674">
<ele>147.2</ele>
<time>2024-05-09T12:46:00Z</time>
</trkpt>
<trkpt lat="49.690006244927645" lon="9.2250947188586">
<ele>147.2</ele>
<time>2024-05-09T12:46:01Z</time>
</trkpt>
<trkpt lat="49.689964251592755" lon="9.225081391632555">
<ele>147.4</ele>
<time>2024-05-09T12:46:02Z</time>
</trkpt>
<trkpt lat="49.68991848640144" lon="9.225065214559436">
<ele>147.4</ele>
<time>2024-05-09T12:46:03Z</time>
</trkpt>
<trkpt lat="49.68987649306655" lon="9.225049959495664">
<ele>147.4</ele>
<time>2024-05-09T12:46:04Z</time>
</trkpt>
<trkpt lat="49.68983458355069" lon="9.22503369860351">
<ele>147.6</ele>
<time>2024-05-09T12:46:05Z</time>
</trkpt>
<trkpt lat="49.689788818359375" lon="9.22501651570201">
<ele>147.6</ele>
<time>2024-05-09T12:46:06Z</time>
</trkpt>
<trkpt lat="49.689746825024486" lon="9.22499656677246">
<ele>147.8</ele>
<time>2024-05-09T12:46:07Z</time>
</trkpt>
<trkpt lat="49.6897048316896" lon="9.22497653402388">
<ele>147.8</ele>
<time>2024-05-09T12:46:08Z</time>
</trkpt>
<trkpt lat="49.689666694030166" lon="9.224954573437572">
<ele>147.8</ele>
<time>2024-05-09T12:46:09Z</time>
</trkpt>
<trkpt lat="49.68962092883885" lon="9.224933618679644">
<ele>148</ele>
<time>2024-05-09T12:46:10Z</time>
</trkpt>
<trkpt lat="49.68957893550396" lon="9.224914507940412">
<ele>148</ele>
<time>2024-05-09T12:46:11Z</time>
</trkpt>
<trkpt lat="49.6895370259881" lon="9.22489539720118">
<ele>148</ele>
<time>2024-05-09T12:46:12Z</time>
</trkpt>
<trkpt lat="49.68949503265321" lon="9.224875448271632">
<ele>148</ele>
<time>2024-05-09T12:46:13Z</time>
</trkpt>
<trkpt lat="49.68945689499378" lon="9.224855415523052">
<ele>148</ele>
<time>2024-05-09T12:46:14Z</time>
</trkpt>
<trkpt lat="49.68941490165889" lon="9.224833454936745">
<ele>148</ele>
<time>2024-05-09T12:46:15Z</time>
</trkpt>
<trkpt lat="49.68937676399946" lon="9.224809566512704">
<ele>147.8</ele>
<time>2024-05-09T12:46:16Z</time>
</trkpt>
<trkpt lat="49.6893348544836" lon="9.224786683917046">
<ele>147.8</ele>
<time>2024-05-09T12:46:17Z</time>
</trkpt>
<trkpt lat="49.689292861148715" lon="9.22476195730269">
<ele>147.6</ele>
<time>2024-05-09T12:46:18Z</time>
</trkpt>
<trkpt lat="49.689250867813826" lon="9.22473999671638">
<ele>147.6</ele>
<time>2024-05-09T12:46:19Z</time>
</trkpt>
<trkpt lat="49.68920510262251" lon="9.22471803613007">
<ele>147.4</ele>
<time>2024-05-09T12:46:20Z</time>
</trkpt>
<trkpt lat="49.68916319310665" lon="9.224697081372142">
<ele>147.4</ele>
<time>2024-05-09T12:46:21Z</time>
</trkpt>
<trkpt lat="49.68912119977176" lon="9.224675120785832">
<ele>147.4</ele>
<time>2024-05-09T12:46:22Z</time>
</trkpt>
<trkpt lat="49.68907920643687" lon="9.224653244018556">
<ele>147.2</ele>
<time>2024-05-09T12:46:23Z</time>
</trkpt>
<trkpt lat="49.689037296921015" lon="9.224630277603865">
<ele>147.2</ele>
<time>2024-05-09T12:46:24Z</time>
</trkpt>
<trkpt lat="49.688995303586125" lon="9.224604545161128">
<ele>147.2</ele>
<time>2024-05-09T12:46:25Z</time>
</trkpt>
<trkpt lat="49.68895339407027" lon="9.2245835904032">
<ele>147.2</ele>
<time>2024-05-09T12:46:26Z</time>
</trkpt>
<trkpt lat="49.68891140073538" lon="9.22456355765462">
<ele>147.2</ele>
<time>2024-05-09T12:46:27Z</time>
</trkpt>
<trkpt lat="49.68886563554406" lon="9.224539753049612">
<ele>147.4</ele>
<time>2024-05-09T12:46:28Z</time>
</trkpt>
<trkpt lat="49.68882364220917" lon="9.224518714472651">
<ele>147.4</ele>
<time>2024-05-09T12:46:29Z</time>
</trkpt>
<trkpt lat="49.688781732693315" lon="9.224492982029917">
<ele>147.6</ele>
<time>2024-05-09T12:46:30Z</time>
</trkpt>
<trkpt lat="49.688739739358425" lon="9.224468171596529">
<ele>147.6</ele>
<time>2024-05-09T12:46:31Z</time>
</trkpt>
<trkpt lat="49.68869397416711" lon="9.22444336116314">
<ele>147.6</ele>
<time>2024-05-09T12:46:32Z</time>
</trkpt>
<trkpt lat="49.68864820897579" lon="9.224421484395862">
<ele>147.8</ele>
<time>2024-05-09T12:46:33Z</time>
</trkpt>
<trkpt lat="49.6886062156409" lon="9.224399523809552">
<ele>147.8</ele>
<time>2024-05-09T12:46:34Z</time>
</trkpt>
<trkpt lat="49.68856422230601" lon="9.224376641213894">
<ele>147.8</ele>
<time>2024-05-09T12:46:35Z</time>
</trkpt>
<trkpt lat="49.688522312790155" lon="9.224353758618236">
<ele>148</ele>
<time>2024-05-09T12:46:36Z</time>
</trkpt>
<trkpt lat="49.688480319455266" lon="9.2243280261755">
<ele>148</ele>
<time>2024-05-09T12:46:37Z</time>
</trkpt>
<trkpt lat="49.68843840993941" lon="9.22430799342692">
<ele>148.2</ele>
<time>2024-05-09T12:46:38Z</time>
</trkpt>
<trkpt lat="49.688400188460946" lon="9.22428511083126">
<ele>148.2</ele>
<time>2024-05-09T12:46:39Z</time>
</trkpt>
<trkpt lat="49.68835827894509" lon="9.22426507808268">
<ele>148.4</ele>
<time>2024-05-09T12:46:40Z</time>
</trkpt>
<trkpt lat="49.68832014128566" lon="9.2242450453341">
<ele>148.6</ele>
<time>2024-05-09T12:46:41Z</time>
</trkpt>
<trkpt lat="49.68827814795077" lon="9.224221156910062">
<ele>148.8</ele>
<time>2024-05-09T12:46:42Z</time>
</trkpt>
<trkpt lat="49.68823615461588" lon="9.224198274314404">
<ele>148.8</ele>
<time>2024-05-09T12:46:43Z</time>
</trkpt>
<trkpt lat="49.68819801695645" lon="9.224176397547126">
<ele>149</ele>
<time>2024-05-09T12:46:44Z</time>
</trkpt>
<trkpt lat="49.68815610744059" lon="9.224156364798546">
<ele>149.2</ele>
<time>2024-05-09T12:46:45Z</time>
</trkpt>
<trkpt lat="49.6881141141057" lon="9.224135326221583">
<ele>149.2</ele>
<time>2024-05-09T12:46:46Z</time>
</trkpt>
<trkpt lat="49.68807220458984" lon="9.224115293473004">
<ele>149.2</ele>
<time>2024-05-09T12:46:47Z</time>
</trkpt>
<trkpt lat="49.688030211254954" lon="9.224095344543455">
<ele>149.4</ele>
<time>2024-05-09T12:46:48Z</time>
</trkpt>
<trkpt lat="49.687988217920065" lon="9.224075311794875">
<ele>149.4</ele>
<time>2024-05-09T12:46:49Z</time>
</trkpt>
<trkpt lat="49.68794630840421" lon="9.224055279046295">
<ele>149.4</ele>
<time>2024-05-09T12:46:50Z</time>
</trkpt>
<trkpt lat="49.68790431506932" lon="9.224033318459988">
<ele>149.4</ele>
<time>2024-05-09T12:46:51Z</time>
</trkpt>
<trkpt lat="49.68786232173443" lon="9.224011357873678">
<ele>149.4</ele>
<time>2024-05-09T12:46:52Z</time>
</trkpt>
<trkpt lat="49.68782041221857" lon="9.223991325125098">
<ele>149.6</ele>
<time>2024-05-09T12:46:53Z</time>
</trkpt>
<trkpt lat="49.68777841888368" lon="9.22396844252944">
<ele>149.6</ele>
<time>2024-05-09T12:46:54Z</time>
</trkpt>
<trkpt lat="49.687736509367824" lon="9.223944637924433">
<ele>149.6</ele>
<time>2024-05-09T12:46:55Z</time>
</trkpt>
<trkpt lat="49.687694516032934" lon="9.223923683166504">
<ele>149.6</ele>
<time>2024-05-09T12:46:56Z</time>
</trkpt>
<trkpt lat="49.68764875084162" lon="9.223899794742463">
<ele>149.6</ele>
<time>2024-05-09T12:46:57Z</time>
</trkpt>
<trkpt lat="49.68760675750673" lon="9.223879761993883">
<ele>149.6</ele>
<time>2024-05-09T12:46:58Z</time>
</trkpt>
<trkpt lat="49.68756484799087" lon="9.223859729245303">
<ele>149.6</ele>
<time>2024-05-09T12:46:59Z</time>
</trkpt>
<trkpt lat="49.68752285465598" lon="9.223841624334456">
<ele>149.8</ele>
<time>2024-05-09T12:47:00Z</time>
</trkpt>
<trkpt lat="49.68748471699655" lon="9.223821591585876">
<ele>149.8</ele>
<time>2024-05-09T12:47:01Z</time>
</trkpt>
<trkpt lat="49.687438951805234" lon="9.223799630999563">
<ele>150</ele>
<time>2024-05-09T12:47:02Z</time>
</trkpt>
<trkpt lat="49.687396958470345" lon="9.223776748403909">
<ele>150.2</ele>
<time>2024-05-09T12:47:03Z</time>
</trkpt>
<trkpt lat="49.687358820810914" lon="9.223758643493056">
<ele>150.4</ele>
<time>2024-05-09T12:47:04Z</time>
</trkpt>
<trkpt lat="49.687316827476025" lon="9.223741460591556">
<ele>150.6</ele>
<time>2024-05-09T12:47:05Z</time>
</trkpt>
<trkpt lat="49.68727491796017" lon="9.223723355680704">
<ele>150.8</ele>
<time>2024-05-09T12:47:06Z</time>
</trkpt>
<trkpt lat="49.687236780300736" lon="9.223703322932124">
<ele>151</ele>
<time>2024-05-09T12:47:07Z</time>
</trkpt>
<trkpt lat="49.68719478696585" lon="9.223685218021274">
<ele>151.2</ele>
<time>2024-05-09T12:47:08Z</time>
</trkpt>
<trkpt lat="49.68715664930642" lon="9.223665185272694">
<ele>151.2</ele>
<time>2024-05-09T12:47:09Z</time>
</trkpt>
<trkpt lat="49.68711465597153" lon="9.223645152524114">
<ele>151.4</ele>
<time>2024-05-09T12:47:10Z</time>
</trkpt>
<trkpt lat="49.6870765183121" lon="9.223627047613263">
<ele>151.8</ele>
<time>2024-05-09T12:47:11Z</time>
</trkpt>
<trkpt lat="49.68703452497721" lon="9.223607936874032">
<ele>152</ele>
<time>2024-05-09T12:47:12Z</time>
</trkpt>
<trkpt lat="49.68699638731778" lon="9.223586982116103">
<ele>152</ele>
<time>2024-05-09T12:47:13Z</time>
</trkpt>
<trkpt lat="49.68695447780192" lon="9.223566949367523">
<ele>152.2</ele>
<time>2024-05-09T12:47:14Z</time>
</trkpt>
<trkpt lat="49.68691248446703" lon="9.223545072600244">
<ele>152.2</ele>
<time>2024-05-09T12:47:15Z</time>
</trkpt>
<trkpt lat="49.68687057495117" lon="9.223523112013936">
<ele>152.4</ele>
<time>2024-05-09T12:47:16Z</time>
</trkpt>
<trkpt lat="49.68682858161628" lon="9.223501151427628">
<ele>152.4</ele>
<time>2024-05-09T12:47:17Z</time>
</trkpt>
<trkpt lat="49.68679044395685" lon="9.22347634099424">
<ele>152.4</ele>
<time>2024-05-09T12:47:18Z</time>
</trkpt>
<trkpt lat="49.68674845062196" lon="9.223451614379885">
<ele>152.6</ele>
<time>2024-05-09T12:47:19Z</time>
</trkpt>
<trkpt lat="49.686706541106105" lon="9.223426803946497">
<ele>152.6</ele>
<time>2024-05-09T12:47:20Z</time>
</trkpt>
<trkpt lat="49.686664547771215" lon="9.223402915522456">
<ele>152.8</ele>
<time>2024-05-09T12:47:21Z</time>
</trkpt>
<trkpt lat="49.686622554436326" lon="9.223378105089068">
<ele>153</ele>
<time>2024-05-09T12:47:22Z</time>
</trkpt>
<trkpt lat="49.68658064492047" lon="9.22335622832179">
<ele>153</ele>
<time>2024-05-09T12:47:23Z</time>
</trkpt>
<trkpt lat="49.68653487972915" lon="9.223331417888405">
<ele>153.2</ele>
<time>2024-05-09T12:47:24Z</time>
</trkpt>
<trkpt lat="49.6864890307188" lon="9.223308535292745">
<ele>153.2</ele>
<time>2024-05-09T12:47:25Z</time>
</trkpt>
<trkpt lat="49.686447121202946" lon="9.223284646868706">
<ele>153.4</ele>
<time>2024-05-09T12:47:26Z</time>
</trkpt>
<trkpt lat="49.686405127868056" lon="9.223266541957855">
<ele>153.6</ele>
<time>2024-05-09T12:47:27Z</time>
</trkpt>
<trkpt lat="49.6863632183522" lon="9.223248437047005">
<ele>153.6</ele>
<time>2024-05-09T12:47:28Z</time>
</trkpt>
<trkpt lat="49.68632122501731" lon="9.223230332136154">
<ele>153.8</ele>
<time>2024-05-09T12:47:29Z</time>
</trkpt>
<trkpt lat="49.68627923168242" lon="9.223211221396925">
<ele>154</ele>
<time>2024-05-09T12:47:30Z</time>
</trkpt>
<trkpt lat="49.68623732216656" lon="9.223188338801265">
<ele>154</ele>
<time>2024-05-09T12:47:31Z</time>
</trkpt>
<trkpt lat="49.686191556975245" lon="9.223163528367875">
<ele>154.2</ele>
<time>2024-05-09T12:47:32Z</time>
</trkpt>
<trkpt lat="49.68614193610847" lon="9.223134946078062">
<ele>154.2</ele>
<time>2024-05-09T12:47:33Z</time>
</trkpt>
<trkpt lat="49.686092315241694" lon="9.223105357959868">
<ele>154.2</ele>
<time>2024-05-09T12:47:34Z</time>
</trkpt>
<trkpt lat="49.68604277819395" lon="9.223074847832322">
<ele>154</ele>
<time>2024-05-09T12:47:35Z</time>
</trkpt>
<trkpt lat="49.685993157327175" lon="9.223045343533158">
<ele>154</ele>
<time>2024-05-09T12:47:36Z</time>
</trkpt>
<trkpt lat="49.68594739213586" lon="9.223014749586582">
<ele>154</ele>
<time>2024-05-09T12:47:37Z</time>
</trkpt>
<trkpt lat="49.68589777126908" lon="9.222988095134497">
<ele>153.8</ele>
<time>2024-05-09T12:47:38Z</time>
</trkpt>
<trkpt lat="49.68584823422134" lon="9.22296135686338">
<ele>153.8</ele>
<time>2024-05-09T12:47:39Z</time>
</trkpt>
<trkpt lat="49.68580238521099" lon="9.222934702411294">
<ele>153.8</ele>
<time>2024-05-09T12:47:40Z</time>
</trkpt>
<trkpt lat="49.68575284816325" lon="9.222907042130828">
<ele>153.8</ele>
<time>2024-05-09T12:47:41Z</time>
</trkpt>
<trkpt lat="49.68570322729647" lon="9.222876532003284">
<ele>153.6</ele>
<time>2024-05-09T12:47:42Z</time>
</trkpt>
<trkpt lat="49.685657462105155" lon="9.222851721569896">
<ele>153.6</ele>
<time>2024-05-09T12:47:43Z</time>
</trkpt>
<trkpt lat="49.68560784123838" lon="9.222826911136508">
<ele>153.6</ele>
<time>2024-05-09T12:47:44Z</time>
</trkpt>
<trkpt lat="49.68556207604706" lon="9.2228031065315">
<ele>153.6</ele>
<time>2024-05-09T12:47:45Z</time>
</trkpt>
<trkpt lat="49.685516310855746" lon="9.222780223935844">
<ele>153.6</ele>
<time>2024-05-09T12:47:46Z</time>
</trkpt>
<trkpt lat="49.68546668998897" lon="9.222755413502457">
<ele>153.4</ele>
<time>2024-05-09T12:47:47Z</time>
</trkpt>
<trkpt lat="49.68542478047311" lon="9.222729681059718">
<ele>153.4</ele>
<time>2024-05-09T12:47:48Z</time>
</trkpt>
<trkpt lat="49.6853790152818" lon="9.22270487062633">
<ele>153.4</ele>
<time>2024-05-09T12:47:49Z</time>
</trkpt>
<trkpt lat="49.68533325009048" lon="9.222681988030672">
<ele>153.4</ele>
<time>2024-05-09T12:47:50Z</time>
</trkpt>
<trkpt lat="49.68528740108013" lon="9.222660027444364">
<ele>153.4</ele>
<time>2024-05-09T12:47:51Z</time>
</trkpt>
<trkpt lat="49.685241635888815" lon="9.222638066858051">
<ele>153.4</ele>
<time>2024-05-09T12:47:52Z</time>
</trkpt>
<trkpt lat="49.68519972637296" lon="9.222616190090775">
<ele>153.4</ele>
<time>2024-05-09T12:47:53Z</time>
</trkpt>
<trkpt lat="49.68515773303807" lon="9.222593307495115">
<ele>153.4</ele>
<time>2024-05-09T12:47:54Z</time>
</trkpt>
<trkpt lat="49.68511196784675" lon="9.222570341080427">
<ele>153.4</ele>
<time>2024-05-09T12:47:55Z</time>
</trkpt>
<trkpt lat="49.685066202655435" lon="9.22254846431315">
<ele>153.4</ele>
<time>2024-05-09T12:47:56Z</time>
</trkpt>
<trkpt lat="49.68502043746412" lon="9.22252457588911">
<ele>153.4</ele>
<time>2024-05-09T12:47:57Z</time>
</trkpt>
<trkpt lat="49.68497844412923" lon="9.222503621131182">
<ele>153.4</ele>
<time>2024-05-09T12:47:58Z</time>
</trkpt>
<trkpt lat="49.68493267893791" lon="9.222479816526176">
<ele>153.4</ele>
<time>2024-05-09T12:47:59Z</time>
</trkpt>
<trkpt lat="49.68489068560302" lon="9.222456850111485">
<ele>153.4</ele>
<time>2024-05-09T12:48:00Z</time>
</trkpt>
<trkpt lat="49.684844920411706" lon="9.222431117668748">
<ele>153.4</ele>
<time>2024-05-09T12:48:01Z</time>
</trkpt>
<trkpt lat="49.684806782752275" lon="9.22240630723536">
<ele>153.4</ele>
<time>2024-05-09T12:48:02Z</time>
</trkpt>
<trkpt lat="49.684764789417386" lon="9.222383424639702">
<ele>153.4</ele>
<time>2024-05-09T12:48:03Z</time>
</trkpt>
<trkpt lat="49.68471902422607" lon="9.222358698025346">
<ele>153.4</ele>
<time>2024-05-09T12:48:04Z</time>
</trkpt>
<trkpt lat="49.68467325903475" lon="9.222334809601309">
<ele>153.4</ele>
<time>2024-05-09T12:48:05Z</time>
</trkpt>
<trkpt lat="49.68463126569986" lon="9.222312849014996">
<ele>153.4</ele>
<time>2024-05-09T12:48:06Z</time>
</trkpt>
<trkpt lat="49.68458550050855" lon="9.22228812240064">
<ele>153.4</ele>
<time>2024-05-09T12:48:07Z</time>
</trkpt>
<trkpt lat="49.68453973531723" lon="9.222263311967254">
<ele>153.4</ele>
<time>2024-05-09T12:48:08Z</time>
</trkpt>
<trkpt lat="49.68449782580137" lon="9.222240429371595">
<ele>153.4</ele>
<time>2024-05-09T12:48:09Z</time>
</trkpt>
<trkpt lat="49.684451976791024" lon="9.222218468785286">
<ele>153.4</ele>
<time>2024-05-09T12:48:10Z</time>
</trkpt>
<trkpt lat="49.68440621159971" lon="9.222196508198977">
<ele>153.4</ele>
<time>2024-05-09T12:48:11Z</time>
</trkpt>
<trkpt lat="49.68436430208385" lon="9.22217178158462">
<ele>153.4</ele>
<time>2024-05-09T12:48:12Z</time>
</trkpt>
<trkpt lat="49.68432230874896" lon="9.222145043313503">
<ele>153.4</ele>
<time>2024-05-09T12:48:13Z</time>
</trkpt>
<trkpt lat="49.68428031541407" lon="9.222120232880116">
<ele>153.4</ele>
<time>2024-05-09T12:48:14Z</time>
</trkpt>
<trkpt lat="49.68423840589821" lon="9.222100200131536">
<ele>153.4</ele>
<time>2024-05-09T12:48:15Z</time>
</trkpt>
<trkpt lat="49.6841926407069" lon="9.222078323364258">
<ele>153.4</ele>
<time>2024-05-09T12:48:16Z</time>
</trkpt>
<trkpt lat="49.68414687551558" lon="9.222058290615678">
<ele>153.4</ele>
<time>2024-05-09T12:48:17Z</time>
</trkpt>
<trkpt lat="49.68410488218069" lon="9.22203540802002">
<ele>153.4</ele>
<time>2024-05-09T12:48:18Z</time>
</trkpt>
<trkpt lat="49.684059116989374" lon="9.22201151959598">
<ele>153.4</ele>
<time>2024-05-09T12:48:19Z</time>
</trkpt>
<trkpt lat="49.68401335179806" lon="9.2219914868474">
<ele>153.4</ele>
<time>2024-05-09T12:48:20Z</time>
</trkpt>
<trkpt lat="49.68396758660674" lon="9.22197145409882">
<ele>153.4</ele>
<time>2024-05-09T12:48:21Z</time>
</trkpt>
<trkpt lat="49.68392173759639" lon="9.221948571503162">
<ele>153.4</ele>
<time>2024-05-09T12:48:22Z</time>
</trkpt>
<trkpt lat="49.683879828080535" lon="9.221926610916851">
<ele>153.4</ele>
<time>2024-05-09T12:48:23Z</time>
</trkpt>
<trkpt lat="49.683837834745646" lon="9.221903728321196">
<ele>153.4</ele>
<time>2024-05-09T12:48:24Z</time>
</trkpt>
<trkpt lat="49.68379206955433" lon="9.221879923716187">
<ele>153.2</ele>
<time>2024-05-09T12:48:25Z</time>
</trkpt>
<trkpt lat="49.68375007621944" lon="9.22185318544507">
<ele>153</ele>
<time>2024-05-09T12:48:26Z</time>
</trkpt>
<trkpt lat="49.68370431102812" lon="9.221826530992985">
<ele>153</ele>
<time>2024-05-09T12:48:27Z</time>
</trkpt>
<trkpt lat="49.683658545836806" lon="9.221797864884138">
<ele>152.8</ele>
<time>2024-05-09T12:48:28Z</time>
</trkpt>
<trkpt lat="49.68361663632095" lon="9.221771210432053">
<ele>152.8</ele>
<time>2024-05-09T12:48:29Z</time>
</trkpt>
<trkpt lat="49.6835707873106" lon="9.221750255674124">
<ele>152.8</ele>
<time>2024-05-09T12:48:30Z</time>
</trkpt>
<trkpt lat="49.68352502211928" lon="9.221728295087814">
<ele>152.8</ele>
<time>2024-05-09T12:48:31Z</time>
</trkpt>
<trkpt lat="49.68347925692797" lon="9.221706334501503">
<ele>152.8</ele>
<time>2024-05-09T12:48:32Z</time>
</trkpt>
<trkpt lat="49.68343349173665" lon="9.221683451905848">
<ele>152.8</ele>
<time>2024-05-09T12:48:33Z</time>
</trkpt>
<trkpt lat="49.683387726545334" lon="9.22165679745376">
<ele>152.8</ele>
<time>2024-05-09T12:48:34Z</time>
</trkpt>
<trkpt lat="49.68334196135402" lon="9.221630059182644">
<ele>152.8</ele>
<time>2024-05-09T12:48:35Z</time>
</trkpt>
<trkpt lat="49.68329996801913" lon="9.221606254577637">
<ele>152.8</ele>
<time>2024-05-09T12:48:36Z</time>
</trkpt>
<trkpt lat="49.68325034715235" lon="9.221585216000676">
<ele>152.8</ele>
<time>2024-05-09T12:48:37Z</time>
</trkpt>
<trkpt lat="49.68320458196104" lon="9.221561411395667">
<ele>152.6</ele>
<time>2024-05-09T12:48:38Z</time>
</trkpt>
<trkpt lat="49.68315881676972" lon="9.22153852880001">
<ele>152.6</ele>
<time>2024-05-09T12:48:39Z</time>
</trkpt>
<trkpt lat="49.6831130515784" lon="9.221513718366625">
<ele>152.6</ele>
<time>2024-05-09T12:48:40Z</time>
</trkpt>
<trkpt lat="49.683067286387086" lon="9.221487985923886">
<ele>152.6</ele>
<time>2024-05-09T12:48:41Z</time>
</trkpt>
<trkpt lat="49.68302152119577" lon="9.221461247652767">
<ele>152.6</ele>
<time>2024-05-09T12:48:42Z</time>
</trkpt>
<trkpt lat="49.68297575600445" lon="9.22143836505711">
<ele>152.6</ele>
<time>2024-05-09T12:48:43Z</time>
</trkpt>
<trkpt lat="49.682929990813136" lon="9.22141833230853">
<ele>152.8</ele>
<time>2024-05-09T12:48:44Z</time>
</trkpt>
<trkpt lat="49.68288799747825" lon="9.22139829955995">
<ele>152.8</ele>
<time>2024-05-09T12:48:45Z</time>
</trkpt>
<trkpt lat="49.68284223228693" lon="9.22137826681137">
<ele>152.8</ele>
<time>2024-05-09T12:48:46Z</time>
</trkpt>
<trkpt lat="49.68279646709561" lon="9.22136016190052">
<ele>152.8</ele>
<time>2024-05-09T12:48:47Z</time>
</trkpt>
<trkpt lat="49.68275447376072" lon="9.22134012915194">
<ele>153</ele>
<time>2024-05-09T12:48:48Z</time>
</trkpt>
<trkpt lat="49.682712480425835" lon="9.22132202424109">
<ele>153</ele>
<time>2024-05-09T12:48:49Z</time>
</trkpt>
<trkpt lat="49.68266671523452" lon="9.22130199149251">
<ele>153</ele>
<time>2024-05-09T12:48:50Z</time>
</trkpt>
<trkpt lat="49.68262480571866" lon="9.22128195874393">
<ele>153</ele>
<time>2024-05-09T12:48:51Z</time>
</trkpt>
<trkpt lat="49.68258281238377" lon="9.22125999815762">
<ele>153</ele>
<time>2024-05-09T12:48:52Z</time>
</trkpt>
<trkpt lat="49.682537047192454" lon="9.221238121390344">
<ele>153</ele>
<time>2024-05-09T12:48:53Z</time>
</trkpt>
<trkpt lat="49.682495053857565" lon="9.221218088641765">
<ele>153</ele>
<time>2024-05-09T12:48:54Z</time>
</trkpt>
<trkpt lat="49.68244928866625" lon="9.221197050064802">
<ele>153.2</ele>
<time>2024-05-09T12:48:55Z</time>
</trkpt>
<trkpt lat="49.68240737915039" lon="9.221177101135254">
<ele>153.2</ele>
<time>2024-05-09T12:48:56Z</time>
</trkpt>
<trkpt lat="49.68236153014004" lon="9.221157068386674">
<ele>153.2</ele>
<time>2024-05-09T12:48:57Z</time>
</trkpt>
<trkpt lat="49.682319620624185" lon="9.221137035638094">
<ele>153.2</ele>
<time>2024-05-09T12:48:58Z</time>
</trkpt>
<trkpt lat="49.68227385543287" lon="9.221115075051785">
<ele>153.2</ele>
<time>2024-05-09T12:48:59Z</time>
</trkpt>
<trkpt lat="49.68222800642252" lon="9.221091270446776">
<ele>153.2</ele>
<time>2024-05-09T12:49:00Z</time>
</trkpt>
<trkpt lat="49.68218609690666" lon="9.221071237698196">
<ele>153.2</ele>
<time>2024-05-09T12:49:01Z</time>
</trkpt>
<trkpt lat="49.682140331715345" lon="9.221051204949616">
<ele>153.2</ele>
<time>2024-05-09T12:49:02Z</time>
</trkpt>
<trkpt lat="49.682098338380456" lon="9.221031172201036">
<ele>153.2</ele>
<time>2024-05-09T12:49:03Z</time>
</trkpt>
<trkpt lat="49.68205257318914" lon="9.221012061461806">
<ele>153.2</ele>
<time>2024-05-09T12:49:04Z</time>
</trkpt>
<trkpt lat="49.68200680799782" lon="9.220990100875497">
<ele>153.2</ele>
<time>2024-05-09T12:49:05Z</time>
</trkpt>
<trkpt lat="49.681961042806506" lon="9.220970151945949">
<ele>153.2</ele>
<time>2024-05-09T12:49:06Z</time>
</trkpt>
<trkpt lat="49.68191527761519" lon="9.220951963216066">
<ele>153.2</ele>
<time>2024-05-09T12:49:07Z</time>
</trkpt>
<trkpt lat="49.68186942860484" lon="9.220934864133596">
<ele>153.2</ele>
<time>2024-05-09T12:49:08Z</time>
</trkpt>
<trkpt lat="49.681823663413525" lon="9.220918603241444">
<ele>153.2</ele>
<time>2024-05-09T12:49:09Z</time>
</trkpt>
<trkpt lat="49.68177789822221" lon="9.220901420339942">
<ele>153.2</ele>
<time>2024-05-09T12:49:10Z</time>
</trkpt>
<trkpt lat="49.681728361174464" lon="9.220883315429091">
<ele>153.2</ele>
<time>2024-05-09T12:49:11Z</time>
</trkpt>
<trkpt lat="49.68168251216411" lon="9.22086521051824">
<ele>153.2</ele>
<time>2024-05-09T12:49:12Z</time>
</trkpt>
<trkpt lat="49.6816367469728" lon="9.22084802761674">
<ele>153.2</ele>
<time>2024-05-09T12:49:13Z</time>
</trkpt>
<trkpt lat="49.681587209925056" lon="9.220829922705889">
<ele>153.2</ele>
<time>2024-05-09T12:49:14Z</time>
</trkpt>
<trkpt lat="49.68154136091471" lon="9.220813745632768">
<ele>153.2</ele>
<time>2024-05-09T12:49:15Z</time>
</trkpt>
<trkpt lat="49.68149945139885" lon="9.220796562731266">
<ele>153.2</ele>
<time>2024-05-09T12:49:16Z</time>
</trkpt>
<trkpt lat="49.68145368620753" lon="9.220783151686192">
<ele>153.2</ele>
<time>2024-05-09T12:49:17Z</time>
</trkpt>
<trkpt lat="49.681407921016216" lon="9.220771752297878">
<ele>153.2</ele>
<time>2024-05-09T12:49:18Z</time>
</trkpt>
<trkpt lat="49.68136207200587" lon="9.220756497234106">
<ele>153.2</ele>
<time>2024-05-09T12:49:19Z</time>
</trkpt>
<trkpt lat="49.68131630681455" lon="9.220741242170334">
<ele>153.2</ele>
<time>2024-05-09T12:49:20Z</time>
</trkpt>
<trkpt lat="49.681270541623235" lon="9.22072690911591">
<ele>153.2</ele>
<time>2024-05-09T12:49:21Z</time>
</trkpt>
<trkpt lat="49.68122477643192" lon="9.220711654052138">
<ele>153.2</ele>
<time>2024-05-09T12:49:22Z</time>
</trkpt>
<trkpt lat="49.68117515556514" lon="9.220698326826096">
<ele>153.2</ele>
<time>2024-05-09T12:49:23Z</time>
</trkpt>
<trkpt lat="49.681129390373826" lon="9.22068684361875">
<ele>153.2</ele>
<time>2024-05-09T12:49:24Z</time>
</trkpt>
<trkpt lat="49.68107985332608" lon="9.220673516392708">
<ele>153.2</ele>
<time>2024-05-09T12:49:25Z</time>
</trkpt>
<trkpt lat="49.68103023245931" lon="9.220663039013743">
<ele>153.4</ele>
<time>2024-05-09T12:49:26Z</time>
</trkpt>
<trkpt lat="49.68098446726799" lon="9.2206497117877">
<ele>153.6</ele>
<time>2024-05-09T12:49:27Z</time>
</trkpt>
<trkpt lat="49.680934846401215" lon="9.220638228580356">
<ele>153.6</ele>
<time>2024-05-09T12:49:28Z</time>
</trkpt>
<trkpt lat="49.68088530935347" lon="9.220624901354311">
<ele>153.8</ele>
<time>2024-05-09T12:49:29Z</time>
</trkpt>
<trkpt lat="49.68083946034312" lon="9.220615345984696">
<ele>153.8</ele>
<time>2024-05-09T12:49:30Z</time>
</trkpt>
<trkpt lat="49.680793695151806" lon="9.220606796443462">
<ele>154</ele>
<time>2024-05-09T12:49:31Z</time>
</trkpt>
<trkpt lat="49.68075178563595" lon="9.220596235245466">
<ele>154</ele>
<time>2024-05-09T12:49:32Z</time>
</trkpt>
<trkpt lat="49.68070216476917" lon="9.22058860771358">
<ele>154.2</ele>
<time>2024-05-09T12:49:33Z</time>
</trkpt>
<trkpt lat="49.680656399577856" lon="9.220580058172343">
<ele>154.2</ele>
<time>2024-05-09T12:49:34Z</time>
</trkpt>
<trkpt lat="49.68061063438654" lon="9.22057150863111">
<ele>154.2</ele>
<time>2024-05-09T12:49:35Z</time>
</trkpt>
<trkpt lat="49.68056486919522" lon="9.220562875270844">
<ele>154.2</ele>
<time>2024-05-09T12:49:36Z</time>
</trkpt>
<trkpt lat="49.68051524832845" lon="9.220555247738956">
<ele>154.4</ele>
<time>2024-05-09T12:49:37Z</time>
</trkpt>
<trkpt lat="49.68046948313713" lon="9.220548626035452">
<ele>154.4</ele>
<time>2024-05-09T12:49:38Z</time>
</trkpt>
<trkpt lat="49.680423717945814" lon="9.220541920512916">
<ele>154.4</ele>
<time>2024-05-09T12:49:39Z</time>
</trkpt>
<trkpt lat="49.6803779527545" lon="9.220536220818758">
<ele>154.4</ele>
<time>2024-05-09T12:49:40Z</time>
</trkpt>
<trkpt lat="49.68032833188772" lon="9.22053144313395">
<ele>154.2</ele>
<time>2024-05-09T12:49:41Z</time>
</trkpt>
<trkpt lat="49.680282566696405" lon="9.220522809773684">
<ele>154.2</ele>
<time>2024-05-09T12:49:42Z</time>
</trkpt>
<trkpt lat="49.68023680150509" lon="9.220516188070178">
<ele>154.2</ele>
<time>2024-05-09T12:49:43Z</time>
</trkpt>
<trkpt lat="49.68018718063831" lon="9.2205133382231">
<ele>154</ele>
<time>2024-05-09T12:49:44Z</time>
</trkpt>
<trkpt lat="49.680141415447" lon="9.2205133382231">
<ele>154</ele>
<time>2024-05-09T12:49:45Z</time>
</trkpt>
<trkpt lat="49.68009179458022" lon="9.22051040455699">
<ele>153.8</ele>
<time>2024-05-09T12:49:46Z</time>
</trkpt>
<trkpt lat="49.680046029388905" lon="9.220506632700562">
<ele>153.8</ele>
<time>2024-05-09T12:49:47Z</time>
</trkpt>
<trkpt lat="49.67999640852213" lon="9.220504704862831">
<ele>153.8</ele>
<time>2024-05-09T12:49:48Z</time>
</trkpt>
<trkpt lat="49.67995064333081" lon="9.220504704862831">
<ele>153.8</ele>
<time>2024-05-09T12:49:49Z</time>
</trkpt>
<trkpt lat="49.67990110628307" lon="9.220502777025104">
<ele>154</ele>
<time>2024-05-09T12:49:50Z</time>
</trkpt>
<trkpt lat="49.67985148541629" lon="9.220499927178023">
<ele>154</ele>
<time>2024-05-09T12:49:51Z</time>
</trkpt>
<trkpt lat="49.67980572022498" lon="9.220498083159328">
<ele>154</ele>
<time>2024-05-09T12:49:52Z</time>
</trkpt>
<trkpt lat="49.67975995503366" lon="9.220495149493216">
<ele>154</ele>
<time>2024-05-09T12:49:53Z</time>
</trkpt>
<trkpt lat="49.67971418984234" lon="9.220495149493216">
<ele>154</ele>
<time>2024-05-09T12:49:54Z</time>
</trkpt>
<trkpt lat="49.67966842465103" lon="9.220495149493216">
<ele>154</ele>
<time>2024-05-09T12:49:55Z</time>
</trkpt>
<trkpt lat="49.67962257564068" lon="9.220495149493216">
<ele>154.2</ele>
<time>2024-05-09T12:49:56Z</time>
</trkpt>
<trkpt lat="49.67957681044936" lon="9.220495149493216">
<ele>154.2</ele>
<time>2024-05-09T12:49:57Z</time>
</trkpt>
<trkpt lat="49.67952727340162" lon="9.220498083159328">
<ele>154.2</ele>
<time>2024-05-09T12:49:58Z</time>
</trkpt>
<trkpt lat="49.67948142439127" lon="9.220502777025104">
<ele>154.2</ele>
<time>2024-05-09T12:49:59Z</time>
</trkpt>
<trkpt lat="49.679431887343526" lon="9.220508560538292">
<ele>154.2</ele>
<time>2024-05-09T12:50:00Z</time>
</trkpt>
<trkpt lat="49.67938612215221" lon="9.22051040455699">
<ele>154.2</ele>
<time>2024-05-09T12:50:01Z</time>
</trkpt>
<trkpt lat="49.679336501285434" lon="9.22051141038537">
<ele>154.2</ele>
<time>2024-05-09T12:50:02Z</time>
</trkpt>
<trkpt lat="49.67928688041866" lon="9.22051141038537">
<ele>154.2</ele>
<time>2024-05-09T12:50:03Z</time>
</trkpt>
<trkpt lat="49.67924111522734" lon="9.2205133382231">
<ele>154.2</ele>
<time>2024-05-09T12:50:04Z</time>
</trkpt>
<trkpt lat="49.679195350036025" lon="9.220518032088876">
<ele>154.4</ele>
<time>2024-05-09T12:50:05Z</time>
</trkpt>
<trkpt lat="49.67915344052017" lon="9.220528593286872">
<ele>154.4</ele>
<time>2024-05-09T12:50:06Z</time>
</trkpt>
<trkpt lat="49.67911144718528" lon="9.220535214990376">
<ele>154.2</ele>
<time>2024-05-09T12:50:07Z</time>
</trkpt>
<trkpt lat="49.67907330952585" lon="9.220539992675183">
<ele>154.2</ele>
<time>2024-05-09T12:50:08Z</time>
</trkpt>
<trkpt lat="49.67902754433453" lon="9.220539992675183">
<ele>154.2</ele>
<time>2024-05-09T12:50:09Z</time>
</trkpt>
<trkpt lat="49.6789894066751" lon="9.220541920512916">
<ele>154</ele>
<time>2024-05-09T12:50:10Z</time>
</trkpt>
<trkpt lat="49.67895118519664" lon="9.220544770359991">
<ele>154</ele>
<time>2024-05-09T12:50:11Z</time>
</trkpt>
<trkpt lat="49.67890927568078" lon="9.220548626035452">
<ele>153.8</ele>
<time>2024-05-09T12:50:12Z</time>
</trkpt>
<trkpt lat="49.67886728234589" lon="9.220553319901228">
<ele>153.8</ele>
<time>2024-05-09T12:50:13Z</time>
</trkpt>
<trkpt lat="49.678821517154574" lon="9.220564803108571">
<ele>153.8</ele>
<time>2024-05-09T12:50:14Z</time>
</trkpt>
<trkpt lat="49.67877575196326" lon="9.220576286315918">
<ele>153.6</ele>
<time>2024-05-09T12:50:15Z</time>
</trkpt>
<trkpt lat="49.67872998677194" lon="9.220586763694882">
<ele>153.6</ele>
<time>2024-05-09T12:50:16Z</time>
</trkpt>
<trkpt lat="49.678684221580625" lon="9.22058961354196">
<ele>153.6</ele>
<time>2024-05-09T12:50:17Z</time>
</trkpt>
<trkpt lat="49.67863845638931" lon="9.22058961354196">
<ele>153.6</ele>
<time>2024-05-09T12:50:18Z</time>
</trkpt>
<trkpt lat="49.67858883552253" lon="9.220593385398388">
<ele>153.4</ele>
<time>2024-05-09T12:50:19Z</time>
</trkpt>
<trkpt lat="49.678543070331216" lon="9.220600090920923">
<ele>153.4</ele>
<time>2024-05-09T12:50:20Z</time>
</trkpt>
<trkpt lat="49.67849344946444" lon="9.22060864046216">
<ele>153.4</ele>
<time>2024-05-09T12:50:21Z</time>
</trkpt>
<trkpt lat="49.67844768427312" lon="9.220616267994046">
<ele>153.4</ele>
<time>2024-05-09T12:50:22Z</time>
</trkpt>
<trkpt lat="49.67839806340635" lon="9.220624901354311">
<ele>153.4</ele>
<time>2024-05-09T12:50:23Z</time>
</trkpt>
<trkpt lat="49.67834852635861" lon="9.22062867321074">
<ele>153.4</ele>
<time>2024-05-09T12:50:24Z</time>
</trkpt>
<trkpt lat="49.67829890549183" lon="9.220640156418083">
<ele>153.6</ele>
<time>2024-05-09T12:50:25Z</time>
</trkpt>
<trkpt lat="49.67824928462505" lon="9.220655411481856">
<ele>153.6</ele>
<time>2024-05-09T12:50:26Z</time>
</trkpt>
<trkpt lat="49.67819974757731" lon="9.2206687387079">
<ele>153.6</ele>
<time>2024-05-09T12:50:27Z</time>
</trkpt>
<trkpt lat="49.678150126710534" lon="9.220680221915243">
<ele>153.8</ele>
<time>2024-05-09T12:50:28Z</time>
</trkpt>
<trkpt lat="49.67810050584376" lon="9.220687849447131">
<ele>153.8</ele>
<time>2024-05-09T12:50:29Z</time>
</trkpt>
<trkpt lat="49.678050968796015" lon="9.220696398988366">
<ele>154</ele>
<time>2024-05-09T12:50:30Z</time>
</trkpt>
<trkpt lat="49.67800134792924" lon="9.22070687636733">
<ele>154</ele>
<time>2024-05-09T12:50:31Z</time>
</trkpt>
<trkpt lat="49.67795558273792" lon="9.220721209421754">
<ele>154</ele>
<time>2024-05-09T12:50:32Z</time>
</trkpt>
<trkpt lat="49.677909817546606" lon="9.220734536647797">
<ele>153.8</ele>
<time>2024-05-09T12:50:33Z</time>
</trkpt>
<trkpt lat="49.67786405235529" lon="9.220749791711569">
<ele>153.8</ele>
<time>2024-05-09T12:50:34Z</time>
</trkpt>
<trkpt lat="49.67781828716397" lon="9.220763202756643">
<ele>153.8</ele>
<time>2024-05-09T12:50:35Z</time>
</trkpt>
<trkpt lat="49.677772521972656" lon="9.220773680135608">
<ele>153.6</ele>
<time>2024-05-09T12:50:36Z</time>
</trkpt>
<trkpt lat="49.67772667296231" lon="9.220783151686192">
<ele>153.6</ele>
<time>2024-05-09T12:50:37Z</time>
</trkpt>
<trkpt lat="49.67768090777099" lon="9.220791785046458">
<ele>153.4</ele>
<time>2024-05-09T12:50:38Z</time>
</trkpt>
<trkpt lat="49.677638998255134" lon="9.220800334587691">
<ele>153.4</ele>
<time>2024-05-09T12:50:39Z</time>
</trkpt>
<trkpt lat="49.677593149244785" lon="9.220811817795038">
<ele>153.4</ele>
<time>2024-05-09T12:50:40Z</time>
</trkpt>
<trkpt lat="49.67755123972893" lon="9.220821373164654">
<ele>153.4</ele>
<time>2024-05-09T12:50:41Z</time>
</trkpt>
<trkpt lat="49.67750547453761" lon="9.220829922705889">
<ele>153.2</ele>
<time>2024-05-09T12:50:42Z</time>
</trkpt>
<trkpt lat="49.67746348120272" lon="9.220836628228426">
<ele>153.2</ele>
<time>2024-05-09T12:50:43Z</time>
</trkpt>
<trkpt lat="49.67742148786783" lon="9.220843249931931">
<ele>153.2</ele>
<time>2024-05-09T12:50:44Z</time>
</trkpt>
<trkpt lat="49.677379578351974" lon="9.220851883292198">
<ele>153.2</ele>
<time>2024-05-09T12:50:45Z</time>
</trkpt>
<trkpt lat="49.677337585017085" lon="9.220858504995704">
<ele>153.2</ele>
<time>2024-05-09T12:50:46Z</time>
</trkpt>
<trkpt lat="49.677299447357655" lon="9.22086521051824">
<ele>153.2</ele>
<time>2024-05-09T12:50:47Z</time>
</trkpt>
<trkpt lat="49.67725368216634" lon="9.220872838050129">
<ele>153.2</ele>
<time>2024-05-09T12:50:48Z</time>
</trkpt>
<trkpt lat="49.67721168883145" lon="9.220881387591362">
<ele>153.2</ele>
<time>2024-05-09T12:50:49Z</time>
</trkpt>
<trkpt lat="49.67717355117202" lon="9.220891948789358">
<ele>153.2</ele>
<time>2024-05-09T12:50:50Z</time>
</trkpt>
<trkpt lat="49.67713164165616" lon="9.220899576321244">
<ele>153.2</ele>
<time>2024-05-09T12:50:51Z</time>
</trkpt>
<trkpt lat="49.67708964832127" lon="9.220910053700209">
<ele>153.2</ele>
<time>2024-05-09T12:50:52Z</time>
</trkpt>
<trkpt lat="49.67704765498638" lon="9.220918603241444">
<ele>153.2</ele>
<time>2024-05-09T12:50:53Z</time>
</trkpt>
<trkpt lat="49.67700574547053" lon="9.220930086448789">
<ele>153.2</ele>
<time>2024-05-09T12:50:54Z</time>
</trkpt>
<trkpt lat="49.676963752135634" lon="9.220938635990024">
<ele>153.2</ele>
<time>2024-05-09T12:50:55Z</time>
</trkpt>
<trkpt lat="49.67692184261978" lon="9.22094819135964">
<ele>153.2</ele>
<time>2024-05-09T12:50:56Z</time>
</trkpt>
<trkpt lat="49.676883621141315" lon="9.220954813063145">
<ele>153.2</ele>
<time>2024-05-09T12:50:57Z</time>
</trkpt>
<trkpt lat="49.67684548348189" lon="9.220970151945949">
<ele>153.4</ele>
<time>2024-05-09T12:50:58Z</time>
</trkpt>
<trkpt lat="49.67681497335434" lon="9.220993034541609">
<ele>153.4</ele>
<time>2024-05-09T12:50:59Z</time>
</trkpt>
<trkpt lat="49.67677683569491" lon="9.221014911308885">
<ele>153.6</ele>
<time>2024-05-09T12:51:00Z</time>
</trkpt>
<trkpt lat="49.676750181242824" lon="9.22102832235396">
<ele>153.6</ele>
<time>2024-05-09T12:51:01Z</time>
</trkpt>
<trkpt lat="49.676723442971706" lon="9.221034944057465">
<ele>153.6</ele>
<time>2024-05-09T12:51:02Z</time>
</trkpt>
<trkpt lat="49.67671195976436" lon="9.221039721742272">
<ele>153.6</ele>
<time>2024-05-09T12:51:03Z</time>
</trkpt>
<trkpt lat="49.67671195976436" lon="9.221041649580002">
<ele>153.6</ele>
<time>2024-05-09T12:51:04Z</time>
</trkpt>
<trkpt lat="49.67671195976436" lon="9.221039721742272">
<ele>153.6</ele>
<time>2024-05-09T12:51:06Z</time>
</trkpt>
<trkpt lat="49.67671195976436" lon="9.221037793904545">
<ele>153.6</ele>
<time>2024-05-09T12:51:07Z</time>
</trkpt>
<trkpt lat="49.67671195976436" lon="9.221039721742272">
<ele>153.6</ele>
<time>2024-05-09T12:51:08Z</time>
</trkpt>
<trkpt lat="49.67671195976436" lon="9.221037793904545">
<ele>153.6</ele>
<time>2024-05-09T12:51:10Z</time>
</trkpt>
<trkpt lat="49.67671195976436" lon="9.221039721742272">
<ele>153.6</ele>
<time>2024-05-09T12:51:13Z</time>
</trkpt>
<trkpt lat="49.676708187907934" lon="9.221039721742272">
<ele>153.6</ele>
<time>2024-05-09T12:51:16Z</time>
</trkpt>
<trkpt lat="49.676708187907934" lon="9.221037793904545">
<ele>153.4</ele>
<time>2024-05-09T12:51:17Z</time>
</trkpt>
<trkpt lat="49.676708187907934" lon="9.221036871895194">
<ele>153.2</ele>
<time>2024-05-09T12:51:23Z</time>
</trkpt>
<trkpt lat="49.676704332232475" lon="9.221037793904545">
<ele>153</ele>
<time>2024-05-09T12:51:24Z</time>
</trkpt>
<trkpt lat="49.676704332232475" lon="9.221036871895194">
<ele>152.8</ele>
<time>2024-05-09T12:51:25Z</time>
</trkpt>
<trkpt lat="49.676708187907934" lon="9.221036871895194">
<ele>152.6</ele>
<time>2024-05-09T12:51:30Z</time>
</trkpt>
<trkpt lat="49.676708187907934" lon="9.221034944057465">
<ele>152.6</ele>
<time>2024-05-09T12:51:32Z</time>
</trkpt>
<trkpt lat="49.676708187907934" lon="9.221033016219735">
<ele>152.4</ele>
<time>2024-05-09T12:51:36Z</time>
</trkpt>
<trkpt lat="49.676708187907934" lon="9.221031172201036">
<ele>152.2</ele>
<time>2024-05-09T12:51:39Z</time>
</trkpt>
<trkpt lat="49.676708187907934" lon="9.221033016219735">
<ele>152</ele>
<time>2024-05-09T12:51:49Z</time>
</trkpt>
<trkpt lat="49.67671195976436" lon="9.221033016219735">
<ele>151.8</ele>
<time>2024-05-09T12:51:58Z</time>
</trkpt>
<trkpt lat="49.67671195976436" lon="9.221031172201036">
<ele>151.6</ele>
<time>2024-05-09T12:52:04Z</time>
</trkpt>
<trkpt lat="49.67671195976436" lon="9.221030166372657">
<ele>151.4</ele>
<time>2024-05-09T12:52:06Z</time>
</trkpt>
<trkpt lat="49.67671195976436" lon="9.221031172201036">
<ele>151.2</ele>
<time>2024-05-09T12:52:07Z</time>
</trkpt>
<trkpt lat="49.67671195976436" lon="9.221030166372657">
<ele>151.2</ele>
<time>2024-05-09T12:52:09Z</time>
</trkpt>
<trkpt lat="49.676704332232475" lon="9.221025388687847">
<ele>151</ele>
<time>2024-05-09T12:52:10Z</time>
</trkpt>
<trkpt lat="49.67669293284416" lon="9.221014911308885">
<ele>151</ele>
<time>2024-05-09T12:52:11Z</time>
</trkpt>
<trkpt lat="49.67667767778039" lon="9.22100828960538">
<ele>150.8</ele>
<time>2024-05-09T12:52:12Z</time>
</trkpt>
<trkpt lat="49.67665479518473" lon="9.221003511920571">
<ele>150.8</ele>
<time>2024-05-09T12:52:13Z</time>
</trkpt>
<trkpt lat="49.67662428505719" lon="9.220996806398034">
<ele>150.8</ele>
<time>2024-05-09T12:52:14Z</time>
</trkpt>
<trkpt lat="49.676589919254184" lon="9.220992028713226">
<ele>150.8</ele>
<time>2024-05-09T12:52:15Z</time>
</trkpt>
<trkpt lat="49.67655178159475" lon="9.220992028713226">
<ele>151</ele>
<time>2024-05-09T12:52:16Z</time>
</trkpt>
<trkpt lat="49.676490761339664" lon="9.220976773649454">
<ele>151.2</ele>
<time>2024-05-09T12:52:17Z</time>
</trkpt>
<trkpt lat="49.676433512941" lon="9.220971995964646">
<ele>151.2</ele>
<time>2024-05-09T12:52:18Z</time>
</trkpt>
<trkpt lat="49.676368637010455" lon="9.220963446423411">
<ele>151.4</ele>
<time>2024-05-09T12:52:19Z</time>
</trkpt>
<trkpt lat="49.67630384489894" lon="9.220951963216066">
<ele>151.6</ele>
<time>2024-05-09T12:52:20Z</time>
</trkpt>
<trkpt lat="49.67623896896839" lon="9.22094534151256">
<ele>151.8</ele>
<time>2024-05-09T12:52:21Z</time>
</trkpt>
<trkpt lat="49.67617032118142" lon="9.220938635990024">
<ele>152</ele>
<time>2024-05-09T12:52:22Z</time>
</trkpt>
<trkpt lat="49.67610544525087" lon="9.220930086448789">
<ele>152</ele>
<time>2024-05-09T12:52:23Z</time>
</trkpt>
<trkpt lat="49.67604056932032" lon="9.220919609069824">
<ele>152.2</ele>
<time>2024-05-09T12:52:24Z</time>
</trkpt>
<trkpt lat="49.675971921533346" lon="9.220912903547289">
<ele>152.4</ele>
<time>2024-05-09T12:52:25Z</time>
</trkpt>
<trkpt lat="49.67590327374637" lon="9.2209052760154">
<ele>152.4</ele>
<time>2024-05-09T12:52:26Z</time>
</trkpt>
<trkpt lat="49.67583462595939" lon="9.220898570492864">
<ele>152.6</ele>
<time>2024-05-09T12:52:27Z</time>
</trkpt>
<trkpt lat="49.67576212249696" lon="9.220892870798709">
<ele>152.8</ele>
<time>2024-05-09T12:52:28Z</time>
</trkpt>
<trkpt lat="49.67569347470999" lon="9.22088616527617">
<ele>153.2</ele>
<time>2024-05-09T12:52:29Z</time>
</trkpt>
<trkpt lat="49.67562859877944" lon="9.220881387591362">
<ele>153.4</ele>
<time>2024-05-09T12:52:30Z</time>
</trkpt>
<trkpt lat="49.675559950992465" lon="9.220881387591362">
<ele>153.8</ele>
<time>2024-05-09T12:52:31Z</time>
</trkpt>
<trkpt lat="49.67549507506192" lon="9.220879543572664">
<ele>154</ele>
<time>2024-05-09T12:52:32Z</time>
</trkpt>
<trkpt lat="49.675441682338715" lon="9.220879543572664">
<ele>154.2</ele>
<time>2024-05-09T12:52:33Z</time>
</trkpt>
<trkpt lat="49.675384517759085" lon="9.220881387591362">
<ele>154.4</ele>
<time>2024-05-09T12:52:34Z</time>
</trkpt>
<trkpt lat="49.67532726936042" lon="9.22088616527617">
<ele>154.8</ele>
<time>2024-05-09T12:52:35Z</time>
</trkpt>
<trkpt lat="49.67527002096176" lon="9.220891948789358">
<ele>155</ele>
<time>2024-05-09T12:52:36Z</time>
</trkpt>
<trkpt lat="49.67521285638213" lon="9.220898570492864">
<ele>155.2</ele>
<time>2024-05-09T12:52:37Z</time>
</trkpt>
<trkpt lat="49.67515560798347" lon="9.220901420339942">
<ele>155.4</ele>
<time>2024-05-09T12:52:38Z</time>
</trkpt>
<trkpt lat="49.67509458772838" lon="9.22090619802475">
<ele>155.6</ele>
<time>2024-05-09T12:52:39Z</time>
</trkpt>
<trkpt lat="49.67503356747329" lon="9.22090812586248">
<ele>155.8</ele>
<time>2024-05-09T12:52:40Z</time>
</trkpt>
<trkpt lat="49.67497631907463" lon="9.22090812586248">
<ele>156</ele>
<time>2024-05-09T12:52:41Z</time>
</trkpt>
<trkpt lat="49.67491907067597" lon="9.2209052760154">
<ele>156</ele>
<time>2024-05-09T12:52:42Z</time>
</trkpt>
<trkpt lat="49.67485805042088" lon="9.220891948789358">
<ele>156.2</ele>
<time>2024-05-09T12:52:43Z</time>
</trkpt>
<trkpt lat="49.67479703016579" lon="9.220871916040778">
<ele>156.2</ele>
<time>2024-05-09T12:52:44Z</time>
</trkpt>
<trkpt lat="49.6747360099107" lon="9.22084802761674">
<ele>156.2</ele>
<time>2024-05-09T12:52:45Z</time>
</trkpt>
<trkpt lat="49.67467876151204" lon="9.220821373164654">
<ele>156.4</ele>
<time>2024-05-09T12:52:46Z</time>
</trkpt>
<trkpt lat="49.67462151311338" lon="9.220793712884188">
<ele>156.6</ele>
<time>2024-05-09T12:52:47Z</time>
</trkpt>
<trkpt lat="49.67456812039018" lon="9.22076789662242">
<ele>156.8</ele>
<time>2024-05-09T12:52:48Z</time>
</trkpt>
<trkpt lat="49.674514727666974" lon="9.220736464485526">
<ele>157</ele>
<time>2024-05-09T12:52:49Z</time>
</trkpt>
<trkpt lat="49.67446133494377" lon="9.220703104510903">
<ele>157.2</ele>
<time>2024-05-09T12:52:50Z</time>
</trkpt>
<trkpt lat="49.67441171407699" lon="9.2206687387079">
<ele>157.2</ele>
<time>2024-05-09T12:52:51Z</time>
</trkpt>
<trkpt lat="49.67435832135379" lon="9.220631523057818">
<ele>157.4</ele>
<time>2024-05-09T12:52:52Z</time>
</trkpt>
<trkpt lat="49.67430492863059" lon="9.220598163083196">
<ele>157.4</ele>
<time>2024-05-09T12:52:53Z</time>
</trkpt>
<trkpt lat="49.67425153590739" lon="9.220561953261496">
<ele>157.6</ele>
<time>2024-05-09T12:52:54Z</time>
</trkpt>
<trkpt lat="49.674198143184185" lon="9.220522809773684">
<ele>157.6</ele>
<time>2024-05-09T12:52:55Z</time>
</trkpt>
<trkpt lat="49.67414852231741" lon="9.220481822267176">
<ele>157.8</ele>
<time>2024-05-09T12:52:56Z</time>
</trkpt>
<trkpt lat="49.67409512959421" lon="9.220441756770017">
<ele>158</ele>
<time>2024-05-09T12:52:57Z</time>
</trkpt>
<trkpt lat="49.67404173687101" lon="9.220399847254155">
<ele>158</ele>
<time>2024-05-09T12:52:58Z</time>
</trkpt>
<trkpt lat="49.67398826032877" lon="9.220359781756995">
<ele>158.2</ele>
<time>2024-05-09T12:52:59Z</time>
</trkpt>
<trkpt lat="49.67393486760557" lon="9.220319716259835">
<ele>158.2</ele>
<time>2024-05-09T12:53:00Z</time>
</trkpt>
<trkpt lat="49.67388533055782" lon="9.220278728753328">
<ele>158.4</ele>
<time>2024-05-09T12:53:01Z</time>
</trkpt>
<trkpt lat="49.67383193783462" lon="9.220232963562012">
<ele>158.4</ele>
<time>2024-05-09T12:53:02Z</time>
</trkpt>
<trkpt lat="49.673782316967845" lon="9.220191892236471">
<ele>158.4</ele>
<time>2024-05-09T12:53:03Z</time>
</trkpt>
<trkpt lat="49.67372892424464" lon="9.220148054882884">
<ele>158.6</ele>
<time>2024-05-09T12:53:04Z</time>
</trkpt>
<trkpt lat="49.67367930337787" lon="9.220100361853838">
<ele>158.8</ele>
<time>2024-05-09T12:53:05Z</time>
</trkpt>
<trkpt lat="49.67362968251109" lon="9.220046969130635">
<ele>158.8</ele>
<time>2024-05-09T12:53:06Z</time>
</trkpt>
<trkpt lat="49.67358014546335" lon="9.219987792894244">
<ele>158.8</ele>
<time>2024-05-09T12:53:07Z</time>
</trkpt>
<trkpt lat="49.673526752740145" lon="9.219931550323963">
<ele>158.8</ele>
<time>2024-05-09T12:53:08Z</time>
</trkpt>
<trkpt lat="49.67348098754883" lon="9.219876229763033">
<ele>158.8</ele>
<time>2024-05-09T12:53:09Z</time>
</trkpt>
<trkpt lat="49.67343136668205" lon="9.21981805935502">
<ele>158.8</ele>
<time>2024-05-09T12:53:10Z</time>
</trkpt>
<trkpt lat="49.67338174581528" lon="9.21975796110928">
<ele>158.6</ele>
<time>2024-05-09T12:53:11Z</time>
</trkpt>
<trkpt lat="49.673328353092074" lon="9.219697946682572">
<ele>158.6</ele>
<time>2024-05-09T12:53:12Z</time>
</trkpt>
<trkpt lat="49.67328258790076" lon="9.219639776274562">
<ele>158.4</ele>
<time>2024-05-09T12:53:13Z</time>
</trkpt>
<trkpt lat="49.67323296703398" lon="9.21958152204752">
<ele>158.2</ele>
<time>2024-05-09T12:53:14Z</time>
</trkpt>
<trkpt lat="49.67318342998624" lon="9.219519579783082">
<ele>158.2</ele>
<time>2024-05-09T12:53:15Z</time>
</trkpt>
<trkpt lat="49.67313380911946" lon="9.219458559527991">
<ele>158.2</ele>
<time>2024-05-09T12:53:16Z</time>
</trkpt>
<trkpt lat="49.673088043928146" lon="9.219393683597444">
<ele>158.2</ele>
<time>2024-05-09T12:53:17Z</time>
</trkpt>
<trkpt lat="49.67304605059326" lon="9.21932503581047">
<ele>158.2</ele>
<time>2024-05-09T12:53:18Z</time>
</trkpt>
<trkpt lat="49.67300028540194" lon="9.219256388023496">
<ele>158.4</ele>
<time>2024-05-09T12:53:19Z</time>
</trkpt>
<trkpt lat="49.672954520210624" lon="9.219193439930676">
<ele>158.4</ele>
<time>2024-05-09T12:53:20Z</time>
</trkpt>
<trkpt lat="49.67290875501931" lon="9.2191266361624">
<ele>158.4</ele>
<time>2024-05-09T12:53:21Z</time>
</trkpt>
<trkpt lat="49.67286298982799" lon="9.219063688069582">
<ele>158.4</ele>
<time>2024-05-09T12:53:22Z</time>
</trkpt>
<trkpt lat="49.672817224636674" lon="9.218999817967417">
<ele>158.4</ele>
<time>2024-05-09T12:53:23Z</time>
</trkpt>
<trkpt lat="49.672771375626326" lon="9.218937791883944">
<ele>158.4</ele>
<time>2024-05-09T12:53:24Z</time>
</trkpt>
<trkpt lat="49.67272561043501" lon="9.218876771628857">
<ele>158.4</ele>
<time>2024-05-09T12:53:25Z</time>
</trkpt>
<trkpt lat="49.67267984524369" lon="9.218818601220846">
<ele>158.4</ele>
<time>2024-05-09T12:53:26Z</time>
</trkpt>
<trkpt lat="49.67263030819595" lon="9.218759508803489">
<ele>158.4</ele>
<time>2024-05-09T12:53:27Z</time>
</trkpt>
<trkpt lat="49.6725844591856" lon="9.218700332567096">
<ele>158.4</ele>
<time>2024-05-09T12:53:28Z</time>
</trkpt>
<trkpt lat="49.67253492213786" lon="9.218643167987466">
<ele>158.4</ele>
<time>2024-05-09T12:53:29Z</time>
</trkpt>
<trkpt lat="49.67248915694654" lon="9.218583069741726">
<ele>158.4</ele>
<time>2024-05-09T12:53:30Z</time>
</trkpt>
<trkpt lat="49.67243953607976" lon="9.218522971495986">
<ele>158.4</ele>
<time>2024-05-09T12:53:31Z</time>
</trkpt>
<trkpt lat="49.67238991521299" lon="9.218464801087976">
<ele>158.4</ele>
<time>2024-05-09T12:53:32Z</time>
</trkpt>
<trkpt lat="49.672340378165245" lon="9.218406630679963">
<ele>158.4</ele>
<time>2024-05-09T12:53:33Z</time>
</trkpt>
<trkpt lat="49.67229075729847" lon="9.218353237956762">
<ele>158.4</ele>
<time>2024-05-09T12:53:34Z</time>
</trkpt>
<trkpt lat="49.672241136431694" lon="9.218303617089989">
<ele>158.4</ele>
<time>2024-05-09T12:53:35Z</time>
</trkpt>
<trkpt lat="49.67219159938395" lon="9.218250224366784">
<ele>158.4</ele>
<time>2024-05-09T12:53:36Z</time>
</trkpt>
<trkpt lat="49.67214960604906" lon="9.218188282102346">
<ele>158.4</ele>
<time>2024-05-09T12:53:37Z</time>
</trkpt>
<trkpt lat="49.67209621332586" lon="9.218132961541414">
<ele>158.4</ele>
<time>2024-05-09T12:53:38Z</time>
</trkpt>
<trkpt lat="49.6720389649272" lon="9.21808334067464">
<ele>158.4</ele>
<time>2024-05-09T12:53:39Z</time>
</trkpt>
<trkpt lat="49.67198942787945" lon="9.218028020113708">
<ele>158.4</ele>
<time>2024-05-09T12:53:40Z</time>
</trkpt>
<trkpt lat="49.67194743454456" lon="9.21796314418316">
<ele>158.4</ele>
<time>2024-05-09T12:53:41Z</time>
</trkpt>
<trkpt lat="49.67190166935325" lon="9.21790019609034">
<ele>158.2</ele>
<time>2024-05-09T12:53:42Z</time>
</trkpt>
<trkpt lat="49.67185590416193" lon="9.21784202568233">
<ele>158.2</ele>
<time>2024-05-09T12:53:43Z</time>
</trkpt>
<trkpt lat="49.671806283295155" lon="9.217782011255622">
<ele>158.2</ele>
<time>2024-05-09T12:53:44Z</time>
</trkpt>
<trkpt lat="49.67176051810384" lon="9.217721913009882">
<ele>158.4</ele>
<time>2024-05-09T12:53:45Z</time>
</trkpt>
<trkpt lat="49.67171475291252" lon="9.217663742601871">
<ele>158.4</ele>
<time>2024-05-09T12:53:46Z</time>
</trkpt>
<trkpt lat="49.671665132045746" lon="9.217610349878669">
<ele>158.6</ele>
<time>2024-05-09T12:53:47Z</time>
</trkpt>
<trkpt lat="49.67161936685443" lon="9.217556873336434">
<ele>158.8</ele>
<time>2024-05-09T12:53:48Z</time>
</trkpt>
<trkpt lat="49.671569745987654" lon="9.217503480613232">
<ele>159</ele>
<time>2024-05-09T12:53:49Z</time>
</trkpt>
<trkpt lat="49.67152398079634" lon="9.217454865574837">
<ele>159</ele>
<time>2024-05-09T12:53:50Z</time>
</trkpt>
<trkpt lat="49.67147444374859" lon="9.217403400689363">
<ele>159.2</ele>
<time>2024-05-09T12:53:51Z</time>
</trkpt>
<trkpt lat="49.67142482288182" lon="9.21735185198486">
<ele>159.4</ele>
<time>2024-05-09T12:53:52Z</time>
</trkpt>
<trkpt lat="49.671371430158615" lon="9.217303236946464">
<ele>159.4</ele>
<time>2024-05-09T12:53:53Z</time>
</trkpt>
<trkpt lat="49.67132180929184" lon="9.217260321602224">
<ele>159.4</ele>
<time>2024-05-09T12:53:54Z</time>
</trkpt>
<trkpt lat="49.67126841656864" lon="9.2172097787261">
<ele>159.4</ele>
<time>2024-05-09T12:53:55Z</time>
</trkpt>
<trkpt lat="49.67121879570186" lon="9.217163007706404">
<ele>159.4</ele>
<time>2024-05-09T12:53:56Z</time>
</trkpt>
<trkpt lat="49.67116540297866" lon="9.21711539849639">
<ele>159.6</ele>
<time>2024-05-09T12:53:57Z</time>
</trkpt>
<trkpt lat="49.67110823839903" lon="9.217068627476692">
<ele>159.6</ele>
<time>2024-05-09T12:53:58Z</time>
</trkpt>
<trkpt lat="49.671054761856794" lon="9.217020012438295">
<ele>159.6</ele>
<time>2024-05-09T12:53:59Z</time>
</trkpt>
<trkpt lat="49.670997597277164" lon="9.21697516925633">
<ele>159.6</ele>
<time>2024-05-09T12:54:00Z</time>
</trkpt>
<trkpt lat="49.6709403488785" lon="9.216931331902742">
<ele>159.6</ele>
<time>2024-05-09T12:54:01Z</time>
</trkpt>
<trkpt lat="49.67089072801173" lon="9.216888416558504">
<ele>159.6</ele>
<time>2024-05-09T12:54:02Z</time>
</trkpt>
<trkpt lat="49.67084119096398" lon="9.216841645538809">
<ele>159.6</ele>
<time>2024-05-09T12:54:03Z</time>
</trkpt>
<trkpt lat="49.67078779824078" lon="9.216798730194569">
<ele>159.8</ele>
<time>2024-05-09T12:54:04Z</time>
</trkpt>
<trkpt lat="49.670738177374005" lon="9.21675489284098">
<ele>159.8</ele>
<time>2024-05-09T12:54:05Z</time>
</trkpt>
<trkpt lat="49.67068855650723" lon="9.216716755181553">
<ele>160</ele>
<time>2024-05-09T12:54:06Z</time>
</trkpt>
<trkpt lat="49.67063516378403" lon="9.216674761846662">
<ele>160.2</ele>
<time>2024-05-09T12:54:07Z</time>
</trkpt>
<trkpt lat="49.67058562673628" lon="9.216634696349502">
<ele>160.2</ele>
<time>2024-05-09T12:54:08Z</time>
</trkpt>
<trkpt lat="49.67052837833762" lon="9.216596558690073">
<ele>160.4</ele>
<time>2024-05-09T12:54:09Z</time>
</trkpt>
<trkpt lat="49.67047498561442" lon="9.21656034886837">
<ele>160.4</ele>
<time>2024-05-09T12:54:10Z</time>
</trkpt>
<trkpt lat="49.67041773721576" lon="9.21652028337121">
<ele>160.4</ele>
<time>2024-05-09T12:54:11Z</time>
</trkpt>
<trkpt lat="49.67035671696067" lon="9.2164811398834">
<ele>160.6</ele>
<time>2024-05-09T12:54:12Z</time>
</trkpt>
<trkpt lat="49.670303324237466" lon="9.216443002223969">
<ele>160.6</ele>
<time>2024-05-09T12:54:13Z</time>
</trkpt>
<trkpt lat="49.6702460758388" lon="9.216402936726809">
<ele>160.8</ele>
<time>2024-05-09T12:54:14Z</time>
</trkpt>
<trkpt lat="49.6701926831156" lon="9.216364799067378">
<ele>160.8</ele>
<time>2024-05-09T12:54:15Z</time>
</trkpt>
<trkpt lat="49.67013543471694" lon="9.216328589245675">
<ele>161</ele>
<time>2024-05-09T12:54:16Z</time>
</trkpt>
<trkpt lat="49.67008204199374" lon="9.216291373595595">
<ele>161</ele>
<time>2024-05-09T12:54:17Z</time>
</trkpt>
<trkpt lat="49.670028649270535" lon="9.216248458251355">
<ele>160.8</ele>
<time>2024-05-09T12:54:18Z</time>
</trkpt>
<trkpt lat="49.66997902840376" lon="9.216208392754195">
<ele>160.8</ele>
<time>2024-05-09T12:54:19Z</time>
</trkpt>
<trkpt lat="49.669929491356015" lon="9.216170255094768">
<ele>160.6</ele>
<time>2024-05-09T12:54:20Z</time>
</trkpt>
<trkpt lat="49.6698837261647" lon="9.216133039444683">
<ele>160.6</ele>
<time>2024-05-09T12:54:21Z</time>
</trkpt>
<trkpt lat="49.66983787715435" lon="9.216101607307792">
<ele>160.4</ele>
<time>2024-05-09T12:54:22Z</time>
</trkpt>
<trkpt lat="49.66978834010661" lon="9.216074869036674">
<ele>160.4</ele>
<time>2024-05-09T12:54:23Z</time>
</trkpt>
<trkpt lat="49.66973871923983" lon="9.216048214584587">
<ele>160.4</ele>
<time>2024-05-09T12:54:24Z</time>
</trkpt>
<trkpt lat="49.669689098373055" lon="9.216021476313472">
<ele>160.2</ele>
<time>2024-05-09T12:54:25Z</time>
</trkpt>
<trkpt lat="49.66963956132531" lon="9.215992894023657">
<ele>160.2</ele>
<time>2024-05-09T12:54:26Z</time>
</trkpt>
<trkpt lat="49.669589940458536" lon="9.21596523374319">
<ele>160.2</ele>
<time>2024-05-09T12:54:27Z</time>
</trkpt>
<trkpt lat="49.66954040341079" lon="9.215934723615646">
<ele>160.4</ele>
<time>2024-05-09T12:54:28Z</time>
</trkpt>
<trkpt lat="49.6694984100759" lon="9.21590513549745">
<ele>160.4</ele>
<time>2024-05-09T12:54:29Z</time>
</trkpt>
<trkpt lat="49.66944878920913" lon="9.215874625369906">
<ele>160.6</ele>
<time>2024-05-09T12:54:30Z</time>
</trkpt>
<trkpt lat="49.66940302401781" lon="9.21584788709879">
<ele>160.6</ele>
<time>2024-05-09T12:54:31Z</time>
</trkpt>
<trkpt lat="49.66936111450195" lon="9.215823160484431">
<ele>160.6</ele>
<time>2024-05-09T12:54:32Z</time>
</trkpt>
<trkpt lat="49.66932289302349" lon="9.215803127735851">
<ele>160.8</ele>
<time>2024-05-09T12:54:33Z</time>
</trkpt>
<trkpt lat="49.66928098350763" lon="9.215785022825004">
<ele>160.8</ele>
<time>2024-05-09T12:54:34Z</time>
</trkpt>
<trkpt lat="49.66923521831632" lon="9.215764990076424">
<ele>160.8</ele>
<time>2024-05-09T12:54:35Z</time>
</trkpt>
<trkpt lat="49.66919322498143" lon="9.21574680134654">
<ele>160.8</ele>
<time>2024-05-09T12:54:36Z</time>
</trkpt>
<trkpt lat="49.66914745979011" lon="9.21572970226407">
<ele>160.8</ele>
<time>2024-05-09T12:54:37Z</time>
</trkpt>
<trkpt lat="49.669097838923335" lon="9.215711513534188">
<ele>161</ele>
<time>2024-05-09T12:54:38Z</time>
</trkpt>
<trkpt lat="49.66904830187559" lon="9.215693408623338">
<ele>161</ele>
<time>2024-05-09T12:54:39Z</time>
</trkpt>
<trkpt lat="49.66900245286524" lon="9.215676225721836">
<ele>161</ele>
<time>2024-05-09T12:54:40Z</time>
</trkpt>
<trkpt lat="49.668956687673926" lon="9.21565149910748">
<ele>161.2</ele>
<time>2024-05-09T12:54:41Z</time>
</trkpt>
<trkpt lat="49.66891477815807" lon="9.215628616511822">
<ele>161.2</ele>
<time>2024-05-09T12:54:42Z</time>
</trkpt>
<trkpt lat="49.66886901296675" lon="9.215608583763242">
<ele>161.2</ele>
<time>2024-05-09T12:54:43Z</time>
</trkpt>
<trkpt lat="49.6688231639564" lon="9.215588551014662">
<ele>161.2</ele>
<time>2024-05-09T12:54:44Z</time>
</trkpt>
<trkpt lat="49.66877739876509" lon="9.215570446103811">
<ele>161</ele>
<time>2024-05-09T12:54:45Z</time>
</trkpt>
<trkpt lat="49.66872786171734" lon="9.215559884905815">
<ele>161</ele>
<time>2024-05-09T12:54:46Z</time>
</trkpt>
<trkpt lat="49.66867446899414" lon="9.21555326320231">
<ele>161</ele>
<time>2024-05-09T12:54:47Z</time>
</trkpt>
<trkpt lat="49.668620992451906" lon="9.215550413355231">
<ele>161</ele>
<time>2024-05-09T12:54:48Z</time>
</trkpt>
<trkpt lat="49.66855997219682" lon="9.215546557679772">
<ele>161.2</ele>
<time>2024-05-09T12:54:49Z</time>
</trkpt>
<trkpt lat="49.66849509626627" lon="9.215544629842045">
<ele>161.2</ele>
<time>2024-05-09T12:54:50Z</time>
</trkpt>
<trkpt lat="49.66843407601118" lon="9.215544629842045">
<ele>161.2</ele>
<time>2024-05-09T12:54:51Z</time>
</trkpt>
<trkpt lat="49.66837305575609" lon="9.215548485517502">
<ele>161.2</ele>
<time>2024-05-09T12:54:52Z</time>
</trkpt>
<trkpt lat="49.66831580735743" lon="9.21555519104004">
<ele>161.2</ele>
<time>2024-05-09T12:54:53Z</time>
</trkpt>
<trkpt lat="49.6682586427778" lon="9.215564662590625">
<ele>161</ele>
<time>2024-05-09T12:54:54Z</time>
</trkpt>
<trkpt lat="49.66820139437914" lon="9.215575139969587">
<ele>161</ele>
<time>2024-05-09T12:54:55Z</time>
</trkpt>
<trkpt lat="49.66814414598048" lon="9.215583773329854">
<ele>161</ele>
<time>2024-05-09T12:54:56Z</time>
</trkpt>
<trkpt lat="49.66809460893273" lon="9.21559140086174">
<ele>161</ele>
<time>2024-05-09T12:54:57Z</time>
</trkpt>
<trkpt lat="49.66804498806596" lon="9.215601878240705">
<ele>161</ele>
<time>2024-05-09T12:54:58Z</time>
</trkpt>
<trkpt lat="49.66799922287464" lon="9.21561143361032">
<ele>160.8</ele>
<time>2024-05-09T12:54:59Z</time>
</trkpt>
<trkpt lat="49.667953457683325" lon="9.215621910989285">
<ele>160.8</ele>
<time>2024-05-09T12:55:00Z</time>
</trkpt>
<trkpt lat="49.667911464348435" lon="9.21562953852117">
<ele>160.6</ele>
<time>2024-05-09T12:55:01Z</time>
</trkpt>
<trkpt lat="49.66786569915712" lon="9.215633310377598">
<ele>160.6</ele>
<time>2024-05-09T12:55:02Z</time>
</trkpt>
<trkpt lat="49.6678199339658" lon="9.215633310377598">
<ele>160.4</ele>
<time>2024-05-09T12:55:03Z</time>
</trkpt>
<trkpt lat="49.66778179630637" lon="9.215628616511822">
<ele>160.4</ele>
<time>2024-05-09T12:55:04Z</time>
</trkpt>
<trkpt lat="49.66774365864694" lon="9.215622832998632">
<ele>160.4</ele>
<time>2024-05-09T12:55:05Z</time>
</trkpt>
<trkpt lat="49.66770929284394" lon="9.215615205466747">
<ele>160.4</ele>
<time>2024-05-09T12:55:06Z</time>
</trkpt>
<trkpt lat="49.66767878271639" lon="9.215604728087785">
<ele>160.4</ele>
<time>2024-05-09T12:55:07Z</time>
</trkpt>
<trkpt lat="49.66764450073242" lon="9.215598106384276">
<ele>160.2</ele>
<time>2024-05-09T12:55:08Z</time>
</trkpt>
<trkpt lat="49.66760627925396" lon="9.21559332869947">
<ele>160.2</ele>
<time>2024-05-09T12:55:09Z</time>
</trkpt>
<trkpt lat="49.66756051406264" lon="9.21559140086174">
<ele>160.2</ele>
<time>2024-05-09T12:55:10Z</time>
</trkpt>
<trkpt lat="49.667514748871326" lon="9.215584695339205">
<ele>160.2</ele>
<time>2024-05-09T12:55:11Z</time>
</trkpt>
<trkpt lat="49.66746898368001" lon="9.215583773329854">
<ele>160.2</ele>
<time>2024-05-09T12:55:12Z</time>
</trkpt>
<trkpt lat="49.66742321848869" lon="9.215583773329854">
<ele>160.2</ele>
<time>2024-05-09T12:55:13Z</time>
</trkpt>
<trkpt lat="49.66737359762192" lon="9.215570446103811">
<ele>160.2</ele>
<time>2024-05-09T12:55:14Z</time>
</trkpt>
<trkpt lat="49.66733168810606" lon="9.215546557679772">
<ele>160.2</ele>
<time>2024-05-09T12:55:15Z</time>
</trkpt>
<trkpt lat="49.66729732230306" lon="9.21551126986742">
<ele>160.4</ele>
<time>2024-05-09T12:55:16Z</time>
</trkpt>
<trkpt lat="49.66725532896817" lon="9.215479837730529">
<ele>160.4</ele>
<time>2024-05-09T12:55:17Z</time>
</trkpt>
<trkpt lat="49.66722104698419" lon="9.21545117162168">
<ele>160.6</ele>
<time>2024-05-09T12:55:18Z</time>
</trkpt>
<trkpt lat="49.66719430871308" lon="9.2154121119529">
<ele>160.6</ele>
<time>2024-05-09T12:55:19Z</time>
</trkpt>
<trkpt lat="49.66716765426099" lon="9.215370118618011">
<ele>160.8</ele>
<time>2024-05-09T12:55:20Z</time>
</trkpt>
<trkpt lat="49.66713328845799" lon="9.215336758643389">
<ele>160.8</ele>
<time>2024-05-09T12:55:21Z</time>
</trkpt>
<trkpt lat="49.66710655018687" lon="9.215296693146229">
<ele>161</ele>
<time>2024-05-09T12:55:22Z</time>
</trkpt>
<trkpt lat="49.66707604005933" lon="9.215261405333877">
<ele>161</ele>
<time>2024-05-09T12:55:23Z</time>
</trkpt>
<trkpt lat="49.66704175807536" lon="9.215223267674446">
<ele>161.2</ele>
<time>2024-05-09T12:55:24Z</time>
</trkpt>
<trkpt lat="49.66700739227235" lon="9.215183202177286">
<ele>161.2</ele>
<time>2024-05-09T12:55:25Z</time>
</trkpt>
<trkpt lat="49.66697311028838" lon="9.215133665129542">
<ele>161.2</ele>
<time>2024-05-09T12:55:26Z</time>
</trkpt>
<trkpt lat="49.66693488880992" lon="9.215091671794651">
<ele>161.4</ele>
<time>2024-05-09T12:55:27Z</time>
</trkpt>
<trkpt lat="49.66690060682595" lon="9.215053534135222">
<ele>161.6</ele>
<time>2024-05-09T12:55:28Z</time>
</trkpt>
<trkpt lat="49.666866241022944" lon="9.215013468638062">
<ele>161.6</ele>
<time>2024-05-09T12:55:29Z</time>
</trkpt>
<trkpt lat="49.666828103363514" lon="9.21498010866344">
<ele>161.8</ele>
<time>2024-05-09T12:55:30Z</time>
</trkpt>
<trkpt lat="49.666786193847656" lon="9.214948592707517">
<ele>161.8</ele>
<time>2024-05-09T12:55:31Z</time>
</trkpt>
<trkpt lat="49.66674420051277" lon="9.214911460876465">
<ele>161.8</ele>
<time>2024-05-09T12:55:32Z</time>
</trkpt>
<trkpt lat="49.666706062853336" lon="9.214883800596">
<ele>161.8</ele>
<time>2024-05-09T12:55:33Z</time>
</trkpt>
<trkpt lat="49.66666029766202" lon="9.214857062324882">
<ele>162</ele>
<time>2024-05-09T12:55:34Z</time>
</trkpt>
<trkpt lat="49.66662216000259" lon="9.214824624359608">
<ele>162</ele>
<time>2024-05-09T12:55:35Z</time>
</trkpt>
<trkpt lat="49.6665801666677" lon="9.21479981392622">
<ele>162</ele>
<time>2024-05-09T12:55:36Z</time>
</trkpt>
<trkpt lat="49.66653817333281" lon="9.214771231636403">
<ele>162</ele>
<time>2024-05-09T12:55:37Z</time>
</trkpt>
<trkpt lat="49.66650003567338" lon="9.21474357135594">
<ele>162</ele>
<time>2024-05-09T12:55:38Z</time>
</trkpt>
<trkpt lat="49.66646189801395" lon="9.214719766750932">
<ele>162</ele>
<time>2024-05-09T12:55:39Z</time>
</trkpt>
<trkpt lat="49.66641990467906" lon="9.214693028479816">
<ele>162</ele>
<time>2024-05-09T12:55:40Z</time>
</trkpt>
<trkpt lat="49.66638562269509" lon="9.214670145884156">
<ele>162</ele>
<time>2024-05-09T12:55:41Z</time>
</trkpt>
<trkpt lat="49.666351256892085" lon="9.214648185297849">
<ele>162</ele>
<time>2024-05-09T12:55:42Z</time>
</trkpt>
<trkpt lat="49.66630934737623" lon="9.214614825323224">
<ele>162</ele>
<time>2024-05-09T12:55:43Z</time>
</trkpt>
<trkpt lat="49.6662712097168" lon="9.2145814653486">
<ele>161.8</ele>
<time>2024-05-09T12:55:44Z</time>
</trkpt>
<trkpt lat="49.666232988238335" lon="9.21454332768917">
<ele>161.8</ele>
<time>2024-05-09T12:55:45Z</time>
</trkpt>
<trkpt lat="49.66619870625436" lon="9.214496556669474">
<ele>161.8</ele>
<time>2024-05-09T12:55:46Z</time>
</trkpt>
<trkpt lat="49.66616434045136" lon="9.214449869468808">
<ele>161.8</ele>
<time>2024-05-09T12:55:47Z</time>
</trkpt>
<trkpt lat="49.666137685999274" lon="9.214403098449113">
<ele>161.6</ele>
<time>2024-05-09T12:55:48Z</time>
</trkpt>
<trkpt lat="49.66610717587173" lon="9.214360183104873">
<ele>161.6</ele>
<time>2024-05-09T12:55:49Z</time>
</trkpt>
<trkpt lat="49.66606895439327" lon="9.214318273589017">
<ele>161.6</ele>
<time>2024-05-09T12:55:50Z</time>
</trkpt>
<trkpt lat="49.666034672409296" lon="9.21428482979536">
<ele>161.4</ele>
<time>2024-05-09T12:55:51Z</time>
</trkpt>
<trkpt lat="49.665996534749866" lon="9.214261947199702">
<ele>161.4</ele>
<time>2024-05-09T12:55:52Z</time>
</trkpt>
<trkpt lat="49.66591254808009" lon="9.214251469820738">
<ele>161.2</ele>
<time>2024-05-09T12:55:54Z</time>
</trkpt>
<trkpt lat="49.66587063856423" lon="9.214251469820738">
<ele>161.2</ele>
<time>2024-05-09T12:55:55Z</time>
</trkpt>
<trkpt lat="49.66582864522934" lon="9.214256247505546">
<ele>161.2</ele>
<time>2024-05-09T12:55:56Z</time>
</trkpt>
<trkpt lat="49.66578673571348" lon="9.214261947199702">
<ele>161.2</ele>
<time>2024-05-09T12:55:57Z</time>
</trkpt>
<trkpt lat="49.66574474237859" lon="9.21426479704678">
<ele>161.4</ele>
<time>2024-05-09T12:55:58Z</time>
</trkpt>
<trkpt lat="49.6657027490437" lon="9.214269574731588">
<ele>161.2</ele>
<time>2024-05-09T12:55:59Z</time>
</trkpt>
<trkpt lat="49.665660839527845" lon="9.214275358244777">
<ele>161.2</ele>
<time>2024-05-09T12:56:00Z</time>
</trkpt>
<trkpt lat="49.665622701868415" lon="9.214280052110553">
<ele>161.2</ele>
<time>2024-05-09T12:56:01Z</time>
</trkpt>
<trkpt lat="49.665584564208984" lon="9.214282985776665">
<ele>161.4</ele>
<time>2024-05-09T12:56:02Z</time>
</trkpt>
<trkpt lat="49.665542570874095" lon="9.21428868547082">
<ele>161.4</ele>
<time>2024-05-09T12:56:03Z</time>
</trkpt>
<trkpt lat="49.665504433214664" lon="9.214295307174323">
<ele>161.4</ele>
<time>2024-05-09T12:56:04Z</time>
</trkpt>
<trkpt lat="49.665466295555234" lon="9.214300084859133">
<ele>161.4</ele>
<time>2024-05-09T12:56:05Z</time>
</trkpt>
<trkpt lat="49.6654281578958" lon="9.21430679038167">
<ele>161.6</ele>
<time>2024-05-09T12:56:06Z</time>
</trkpt>
<trkpt lat="49.66538993641734" lon="9.214309640228748">
<ele>161.6</ele>
<time>2024-05-09T12:56:07Z</time>
</trkpt>
<trkpt lat="49.66535179875791" lon="9.2143087182194">
<ele>161.6</ele>
<time>2024-05-09T12:56:08Z</time>
</trkpt>
<trkpt lat="49.66530988924205" lon="9.21430679038167">
<ele>161.6</ele>
<time>2024-05-09T12:56:09Z</time>
</trkpt>
<trkpt lat="49.66527175158262" lon="9.214309640228748">
<ele>161.6</ele>
<time>2024-05-09T12:56:10Z</time>
</trkpt>
<trkpt lat="49.66523353010416" lon="9.214315339922903">
<ele>161.6</ele>
<time>2024-05-09T12:56:11Z</time>
</trkpt>
<trkpt lat="49.66519924812019" lon="9.214320117607713">
<ele>161.6</ele>
<time>2024-05-09T12:56:12Z</time>
</trkpt>
<trkpt lat="49.66516111046076" lon="9.21432682313025">
<ele>161.8</ele>
<time>2024-05-09T12:56:13Z</time>
</trkpt>
<trkpt lat="49.66512297280133" lon="9.214329672977328">
<ele>161.8</ele>
<time>2024-05-09T12:56:14Z</time>
</trkpt>
<trkpt lat="49.6650848351419" lon="9.214333528652787">
<ele>161.8</ele>
<time>2024-05-09T12:56:15Z</time>
</trkpt>
<trkpt lat="49.66504284180701" lon="9.214338222518563">
<ele>161.8</ele>
<time>2024-05-09T12:56:16Z</time>
</trkpt>
<trkpt lat="49.66500470414758" lon="9.214342078194022">
<ele>161.8</ele>
<time>2024-05-09T12:56:17Z</time>
</trkpt>
<trkpt lat="49.66496271081269" lon="9.214342078194022">
<ele>161.8</ele>
<time>2024-05-09T12:56:18Z</time>
</trkpt>
<trkpt lat="49.66491694562137" lon="9.2143449280411">
<ele>161.8</ele>
<time>2024-05-09T12:56:19Z</time>
</trkpt>
<trkpt lat="49.66487880796194" lon="9.214349705725908">
<ele>161.8</ele>
<time>2024-05-09T12:56:20Z</time>
</trkpt>
<trkpt lat="49.66483681462705" lon="9.214353561401367">
<ele>161.8</ele>
<time>2024-05-09T12:56:21Z</time>
</trkpt>
<trkpt lat="49.66479867696762" lon="9.214355405420063">
<ele>161.8</ele>
<time>2024-05-09T12:56:22Z</time>
</trkpt>
<trkpt lat="49.66475676745176" lon="9.214356411248446">
<ele>162</ele>
<time>2024-05-09T12:56:23Z</time>
</trkpt>
<trkpt lat="49.664714774116874" lon="9.214351633563638">
<ele>162</ele>
<time>2024-05-09T12:56:24Z</time>
</trkpt>
<trkpt lat="49.664672780781984" lon="9.2143449280411">
<ele>162</ele>
<time>2024-05-09T12:56:25Z</time>
</trkpt>
<trkpt lat="49.66463087126613" lon="9.214338222518563">
<ele>162.2</ele>
<time>2024-05-09T12:56:26Z</time>
</trkpt>
<trkpt lat="49.664592733606696" lon="9.214331600815058">
<ele>162.2</ele>
<time>2024-05-09T12:56:27Z</time>
</trkpt>
<trkpt lat="49.664554595947266" lon="9.214322967454793">
<ele>162.2</ele>
<time>2024-05-09T12:56:28Z</time>
</trkpt>
<trkpt lat="49.6645163744688" lon="9.214315339922903">
<ele>162.4</ele>
<time>2024-05-09T12:56:29Z</time>
</trkpt>
<trkpt lat="49.66447823680937" lon="9.21430679038167">
<ele>162.4</ele>
<time>2024-05-09T12:56:30Z</time>
</trkpt>
<trkpt lat="49.664436327293515" lon="9.214302934706213">
<ele>162.4</ele>
<time>2024-05-09T12:56:31Z</time>
</trkpt>
<trkpt lat="49.664398189634085" lon="9.214296313002706">
<ele>162.4</ele>
<time>2024-05-09T12:56:32Z</time>
</trkpt>
<trkpt lat="49.66435996815562" lon="9.21428675763309">
<ele>162.4</ele>
<time>2024-05-09T12:56:33Z</time>
</trkpt>
<trkpt lat="49.664318058639765" lon="9.214276280254126">
<ele>162.6</ele>
<time>2024-05-09T12:56:34Z</time>
</trkpt>
<trkpt lat="49.664279920980334" lon="9.21426672488451">
<ele>162.6</ele>
<time>2024-05-09T12:56:35Z</time>
</trkpt>
<trkpt lat="49.664241783320904" lon="9.214255325496197">
<ele>162.6</ele>
<time>2024-05-09T12:56:36Z</time>
</trkpt>
<trkpt lat="49.664199789986014" lon="9.2142447642982">
<ele>162.6</ele>
<time>2024-05-09T12:56:37Z</time>
</trkpt>
<trkpt lat="49.664161652326584" lon="9.214236214756966">
<ele>162.6</ele>
<time>2024-05-09T12:56:38Z</time>
</trkpt>
<trkpt lat="49.66412351466715" lon="9.214229509234428">
<ele>162.6</ele>
<time>2024-05-09T12:56:39Z</time>
</trkpt>
<trkpt lat="49.66408537700772" lon="9.214221881702542">
<ele>162.6</ele>
<time>2024-05-09T12:56:40Z</time>
</trkpt>
<trkpt lat="49.66404338367283" lon="9.214209476485848">
<ele>162.6</ele>
<time>2024-05-09T12:56:41Z</time>
</trkpt>
<trkpt lat="49.6640052460134" lon="9.214196149259806">
<ele>162.6</ele>
<time>2024-05-09T12:56:42Z</time>
</trkpt>
<trkpt lat="49.66396710835397" lon="9.214179972186685">
<ele>162.8</ele>
<time>2024-05-09T12:56:43Z</time>
</trkpt>
<trkpt lat="49.66392511501908" lon="9.21416848897934">
<ele>162.8</ele>
<time>2024-05-09T12:56:44Z</time>
</trkpt>
<trkpt lat="49.66388697735965" lon="9.214153233915567">
<ele>163</ele>
<time>2024-05-09T12:56:45Z</time>
</trkpt>
<trkpt lat="49.66384498402476" lon="9.214137978851795">
<ele>163</ele>
<time>2024-05-09T12:56:46Z</time>
</trkpt>
<trkpt lat="49.66380684636533" lon="9.214123645797372">
<ele>163</ele>
<time>2024-05-09T12:56:47Z</time>
</trkpt>
<trkpt lat="49.6637687087059" lon="9.21411031857133">
<ele>163</ele>
<time>2024-05-09T12:56:48Z</time>
</trkpt>
<trkpt lat="49.66372679919005" lon="9.214096991345286">
<ele>163.2</ele>
<time>2024-05-09T12:56:49Z</time>
</trkpt>
<trkpt lat="49.663684805855155" lon="9.214077880606055">
<ele>163.4</ele>
<time>2024-05-09T12:56:50Z</time>
</trkpt>
<trkpt lat="49.663646668195724" lon="9.214063631370664">
<ele>163.4</ele>
<time>2024-05-09T12:56:51Z</time>
</trkpt>
<trkpt lat="49.663604674860835" lon="9.21405022032559">
<ele>163.6</ele>
<time>2024-05-09T12:56:52Z</time>
</trkpt>
<trkpt lat="49.663566537201405" lon="9.21403312124312">
<ele>163.6</ele>
<time>2024-05-09T12:56:53Z</time>
</trkpt>
<trkpt lat="49.66352462768555" lon="9.214019710198045">
<ele>163.8</ele>
<time>2024-05-09T12:56:54Z</time>
</trkpt>
<trkpt lat="49.66348263435066" lon="9.214006382972002">
<ele>163.8</ele>
<time>2024-05-09T12:56:55Z</time>
</trkpt>
<trkpt lat="49.66343686915934" lon="9.21399020589888">
<ele>163.8</ele>
<time>2024-05-09T12:56:56Z</time>
</trkpt>
<trkpt lat="49.66339487582445" lon="9.213979644700885">
<ele>164</ele>
<time>2024-05-09T12:56:57Z</time>
</trkpt>
<trkpt lat="49.663352966308594" lon="9.213966317474842">
<ele>164</ele>
<time>2024-05-09T12:56:58Z</time>
</trkpt>
<trkpt lat="49.663310972973704" lon="9.213946284726262">
<ele>164</ele>
<time>2024-05-09T12:56:59Z</time>
</trkpt>
<trkpt lat="49.663272835314274" lon="9.213923402130604">
<ele>164</ele>
<time>2024-05-09T12:57:00Z</time>
</trkpt>
<trkpt lat="49.663230841979384" lon="9.213905297219751">
<ele>164</ele>
<time>2024-05-09T12:57:01Z</time>
</trkpt>
<trkpt lat="49.663192704319954" lon="9.21389196999371">
<ele>164</ele>
<time>2024-05-09T12:57:02Z</time>
</trkpt>
<trkpt lat="49.663150710985065" lon="9.21387285925448">
<ele>164</ele>
<time>2024-05-09T12:57:03Z</time>
</trkpt>
<trkpt lat="49.66310880146921" lon="9.2138528265059">
<ele>164</ele>
<time>2024-05-09T12:57:04Z</time>
</trkpt>
<trkpt lat="49.663070663809776" lon="9.213834721595047">
<ele>164</ele>
<time>2024-05-09T12:57:05Z</time>
</trkpt>
<trkpt lat="49.66302867047489" lon="9.213814688846467">
<ele>164</ele>
<time>2024-05-09T12:57:06Z</time>
</trkpt>
<trkpt lat="49.662990532815456" lon="9.213794656097887">
<ele>164</ele>
<time>2024-05-09T12:57:07Z</time>
</trkpt>
<trkpt lat="49.66294853948057" lon="9.213768001645803">
<ele>164</ele>
<time>2024-05-09T12:57:08Z</time>
</trkpt>
<trkpt lat="49.66291040182114" lon="9.213741263374686">
<ele>164</ele>
<time>2024-05-09T12:57:09Z</time>
</trkpt>
<trkpt lat="49.662872264161706" lon="9.213718380779028">
<ele>164</ele>
<time>2024-05-09T12:57:10Z</time>
</trkpt>
<trkpt lat="49.66283027082682" lon="9.21369642019272">
<ele>164.2</ele>
<time>2024-05-09T12:57:11Z</time>
</trkpt>
<trkpt lat="49.66278836131096" lon="9.21367353759706">
<ele>164.2</ele>
<time>2024-05-09T12:57:12Z</time>
</trkpt>
<trkpt lat="49.66275022365153" lon="9.21365157701075">
<ele>164.4</ele>
<time>2024-05-09T12:57:13Z</time>
</trkpt>
<trkpt lat="49.6627120859921" lon="9.213631628081204">
<ele>164.4</ele>
<time>2024-05-09T12:57:14Z</time>
</trkpt>
<trkpt lat="49.66267009265721" lon="9.213608661666512">
<ele>164.6</ele>
<time>2024-05-09T12:57:15Z</time>
</trkpt>
<trkpt lat="49.66262809932232" lon="9.213582929223776">
<ele>164.6</ele>
<time>2024-05-09T12:57:16Z</time>
</trkpt>
<trkpt lat="49.66258996166289" lon="9.21355627477169">
<ele>164.8</ele>
<time>2024-05-09T12:57:17Z</time>
</trkpt>
<trkpt lat="49.66254805214703" lon="9.213531464338304">
<ele>164.8</ele>
<time>2024-05-09T12:57:18Z</time>
</trkpt>
<trkpt lat="49.6625099144876" lon="9.213504726067184">
<ele>164.8</ele>
<time>2024-05-09T12:57:19Z</time>
</trkpt>
<trkpt lat="49.6624755486846" lon="9.21347706578672">
<ele>165</ele>
<time>2024-05-09T12:57:20Z</time>
</trkpt>
<trkpt lat="49.66243741102517" lon="9.213446555659177">
<ele>165</ele>
<time>2024-05-09T12:57:21Z</time>
</trkpt>
<trkpt lat="49.662399273365736" lon="9.21341990120709">
<ele>165</ele>
<time>2024-05-09T12:57:22Z</time>
</trkpt>
<trkpt lat="49.66236490756273" lon="9.213391235098245">
<ele>165</ele>
<time>2024-05-09T12:57:23Z</time>
</trkpt>
<trkpt lat="49.6623267699033" lon="9.213363574817777">
<ele>165</ele>
<time>2024-05-09T12:57:24Z</time>
</trkpt>
<trkpt lat="49.6622924041003" lon="9.213336920365691">
<ele>165</ele>
<time>2024-05-09T12:57:25Z</time>
</trkpt>
<trkpt lat="49.66225812211633" lon="9.213313031941652">
<ele>165</ele>
<time>2024-05-09T12:57:26Z</time>
</trkpt>
<trkpt lat="49.66222375631333" lon="9.213290149345994">
<ele>165</ele>
<time>2024-05-09T12:57:27Z</time>
</trkpt>
<trkpt lat="49.66218947432935" lon="9.213265338912606">
<ele>165.2</ele>
<time>2024-05-09T12:57:28Z</time>
</trkpt>
<trkpt lat="49.66215510852635" lon="9.21323960646987">
<ele>165.2</ele>
<time>2024-05-09T12:57:29Z</time>
</trkpt>
<trkpt lat="49.662124598398805" lon="9.213212952017784">
<ele>165</ele>
<time>2024-05-09T12:57:30Z</time>
</trkpt>
<trkpt lat="49.6620902325958" lon="9.213186213746669">
<ele>165</ele>
<time>2024-05-09T12:57:31Z</time>
</trkpt>
<trkpt lat="49.66205209493637" lon="9.21315955929458">
<ele>165</ele>
<time>2024-05-09T12:57:32Z</time>
</trkpt>
<trkpt lat="49.66201018542051" lon="9.213131899014115">
<ele>165</ele>
<time>2024-05-09T12:57:33Z</time>
</trkpt>
<trkpt lat="49.66197196394205" lon="9.21310130506754">
<ele>165</ele>
<time>2024-05-09T12:57:34Z</time>
</trkpt>
<trkpt lat="49.66193382628262" lon="9.213076578453183">
<ele>165</ele>
<time>2024-05-09T12:57:35Z</time>
</trkpt>
<trkpt lat="49.66189191676676" lon="9.213053695857525">
<ele>165</ele>
<time>2024-05-09T12:57:36Z</time>
</trkpt>
<trkpt lat="49.66184992343187" lon="9.213029807433486">
<ele>165</ele>
<time>2024-05-09T12:57:37Z</time>
</trkpt>
<trkpt lat="49.661808013916016" lon="9.213006924837828">
<ele>165</ele>
<time>2024-05-09T12:57:38Z</time>
</trkpt>
<trkpt lat="49.661766020581126" lon="9.212986892089248">
<ele>165</ele>
<time>2024-05-09T12:57:39Z</time>
</trkpt>
<trkpt lat="49.66172402724624" lon="9.212966859340668">
<ele>165</ele>
<time>2024-05-09T12:57:40Z</time>
</trkpt>
<trkpt lat="49.66168211773038" lon="9.212948754429815">
<ele>165</ele>
<time>2024-05-09T12:57:41Z</time>
</trkpt>
<trkpt lat="49.66164012439549" lon="9.212929643690586">
<ele>165</ele>
<time>2024-05-09T12:57:42Z</time>
</trkpt>
<trkpt lat="49.66160198673606" lon="9.212916316464543">
<ele>165</ele>
<time>2024-05-09T12:57:43Z</time>
</trkpt>
<trkpt lat="49.66155999340117" lon="9.2129029892385">
<ele>165</ele>
<time>2024-05-09T12:57:44Z</time>
</trkpt>
<trkpt lat="49.66151808388531" lon="9.212889662012458">
<ele>165</ele>
<time>2024-05-09T12:57:45Z</time>
</trkpt>
<trkpt lat="49.66147994622588" lon="9.212873401120303">
<ele>165.2</ele>
<time>2024-05-09T12:57:46Z</time>
</trkpt>
<trkpt lat="49.66143795289099" lon="9.212853368371723">
<ele>165.2</ele>
<time>2024-05-09T12:57:47Z</time>
</trkpt>
<trkpt lat="49.66140358708799" lon="9.212828557938336">
<ele>165.4</ele>
<time>2024-05-09T12:57:48Z</time>
</trkpt>
<trkpt lat="49.66136544942856" lon="9.212798047810791">
<ele>165.4</ele>
<time>2024-05-09T12:57:49Z</time>
</trkpt>
<trkpt lat="49.66133116744459" lon="9.212770387530329">
<ele>165.4</ele>
<time>2024-05-09T12:57:50Z</time>
</trkpt>
<trkpt lat="49.66129680164158" lon="9.212741805240512">
<ele>165.6</ele>
<time>2024-05-09T12:57:51Z</time>
</trkpt>
<trkpt lat="49.66126629151404" lon="9.21271037310362">
<ele>165.6</ele>
<time>2024-05-09T12:57:52Z</time>
</trkpt>
<trkpt lat="49.661235781386495" lon="9.212676929309964">
<ele>165.6</ele>
<time>2024-05-09T12:57:53Z</time>
</trkpt>
<trkpt lat="49.66120527125895" lon="9.21264356933534">
<ele>165.8</ele>
<time>2024-05-09T12:57:54Z</time>
</trkpt>
<trkpt lat="49.661174761131406" lon="9.212613059207795">
<ele>165.8</ele>
<time>2024-05-09T12:57:55Z</time>
</trkpt>
<trkpt lat="49.6611403953284" lon="9.21258632093668">
<ele>165.8</ele>
<time>2024-05-09T12:57:56Z</time>
</trkpt>
<trkpt lat="49.66110988520086" lon="9.212559666484594">
<ele>165.8</ele>
<time>2024-05-09T12:57:57Z</time>
</trkpt>
<trkpt lat="49.661075519397855" lon="9.212534856051208">
<ele>165.8</ele>
<time>2024-05-09T12:57:58Z</time>
</trkpt>
<trkpt lat="49.66104123741388" lon="9.212511973455548">
<ele>165.8</ele>
<time>2024-05-09T12:57:59Z</time>
</trkpt>
<trkpt lat="49.66101072728634" lon="9.212486241012812">
<ele>165.8</ele>
<time>2024-05-09T12:58:00Z</time>
</trkpt>
<trkpt lat="49.660980217158794" lon="9.212459502741694">
<ele>165.8</ele>
<time>2024-05-09T12:58:01Z</time>
</trkpt>
<trkpt lat="49.66094585135579" lon="9.212431842461228">
<ele>165.8</ele>
<time>2024-05-09T12:58:02Z</time>
</trkpt>
<trkpt lat="49.66091534122825" lon="9.212405188009145">
<ele>166</ele>
<time>2024-05-09T12:58:03Z</time>
</trkpt>
<trkpt lat="49.6608848311007" lon="9.212376521900296">
<ele>166</ele>
<time>2024-05-09T12:58:04Z</time>
</trkpt>
<trkpt lat="49.6608504652977" lon="9.21234793961048">
<ele>166</ele>
<time>2024-05-09T12:58:05Z</time>
</trkpt>
<trkpt lat="49.660819955170155" lon="9.21231457963586">
<ele>166.2</ele>
<time>2024-05-09T12:58:06Z</time>
</trkpt>
<trkpt lat="49.66079330071807" lon="9.212276441976428">
<ele>166.2</ele>
<time>2024-05-09T12:58:07Z</time>
</trkpt>
<trkpt lat="49.66077418997884" lon="9.21223352663219">
<ele>166.4</ele>
<time>2024-05-09T12:58:08Z</time>
</trkpt>
<trkpt lat="49.66076270677149" lon="9.212182983756064">
<ele>166.4</ele>
<time>2024-05-09T12:58:09Z</time>
</trkpt>
<trkpt lat="49.66075507923961" lon="9.212129591032864">
<ele>166.6</ele>
<time>2024-05-09T12:58:10Z</time>
</trkpt>
<trkpt lat="49.66075507923961" lon="9.21207326464355">
<ele>167</ele>
<time>2024-05-09T12:58:11Z</time>
</trkpt>
<trkpt lat="49.660758934915066" lon="9.212017022073267">
<ele>167.2</ele>
<time>2024-05-09T12:58:12Z</time>
</trkpt>
<trkpt lat="49.66077033430338" lon="9.211959773674607">
<ele>167.2</ele>
<time>2024-05-09T12:58:13Z</time>
</trkpt>
<trkpt lat="49.66078567318618" lon="9.211901603266597">
<ele>167.2</ele>
<time>2024-05-09T12:58:14Z</time>
</trkpt>
<trkpt lat="49.660797072574496" lon="9.211846282705665">
<ele>167.4</ele>
<time>2024-05-09T12:58:15Z</time>
</trkpt>
<trkpt lat="49.66081232763827" lon="9.211790040135384">
<ele>167.6</ele>
<time>2024-05-09T12:58:16Z</time>
</trkpt>
<trkpt lat="49.66082758270204" lon="9.211734719574451">
<ele>167.8</ele>
<time>2024-05-09T12:58:17Z</time>
</trkpt>
<trkpt lat="49.66084283776581" lon="9.2116804048419">
<ele>168</ele>
<time>2024-05-09T12:58:18Z</time>
</trkpt>
<trkpt lat="49.66086194850504" lon="9.211625084280968">
<ele>168.2</ele>
<time>2024-05-09T12:58:19Z</time>
</trkpt>
<trkpt lat="49.660877203568816" lon="9.211566913872955">
<ele>168.2</ele>
<time>2024-05-09T12:58:20Z</time>
</trkpt>
<trkpt lat="49.66089245863259" lon="9.211506815627216">
<ele>168.4</ele>
<time>2024-05-09T12:58:21Z</time>
</trkpt>
<trkpt lat="49.66090771369636" lon="9.21144193969667">
<ele>168.4</ele>
<time>2024-05-09T12:58:22Z</time>
</trkpt>
<trkpt lat="49.66093059629202" lon="9.211375219747424">
<ele>168.4</ele>
<time>2024-05-09T12:58:23Z</time>
</trkpt>
<trkpt lat="49.66096110641956" lon="9.211317049339414">
<ele>168.4</ele>
<time>2024-05-09T12:58:24Z</time>
</trkpt>
<trkpt lat="49.66100309975445" lon="9.21126650646329">
<ele>168.2</ele>
<time>2024-05-09T12:58:25Z</time>
</trkpt>
<trkpt lat="49.66104886494577" lon="9.211230212822556">
<ele>168.2</ele>
<time>2024-05-09T12:58:26Z</time>
</trkpt>
<trkpt lat="49.66109840199351" lon="9.21120640821755">
<ele>168</ele>
<time>2024-05-09T12:58:27Z</time>
</trkpt>
<trkpt lat="49.661159506067634" lon="9.21118637546897">
<ele>167.8</ele>
<time>2024-05-09T12:58:28Z</time>
</trkpt>
<trkpt lat="49.66122052632272" lon="9.211170114576817">
<ele>167.6</ele>
<time>2024-05-09T12:58:29Z</time>
</trkpt>
<trkpt lat="49.66128154657781" lon="9.211153015494348">
<ele>167.2</ele>
<time>2024-05-09T12:58:30Z</time>
</trkpt>
<trkpt lat="49.6613425668329" lon="9.211134910583496">
<ele>166.6</ele>
<time>2024-05-09T12:58:31Z</time>
</trkpt>
<trkpt lat="49.66139981523156" lon="9.211116721853614">
<ele>166.2</ele>
<time>2024-05-09T12:58:32Z</time>
</trkpt>
<trkpt lat="49.66146083548665" lon="9.211099622771144">
<ele>165.8</ele>
<time>2024-05-09T12:58:33Z</time>
</trkpt>
<trkpt lat="49.66152185574174" lon="9.211083361878991">
<ele>165.4</ele>
<time>2024-05-09T12:58:34Z</time>
</trkpt>
<trkpt lat="49.6615791041404" lon="9.211071962490678">
<ele>165</ele>
<time>2024-05-09T12:58:35Z</time>
</trkpt>
<trkpt lat="49.661628641188145" lon="9.211058551445603">
<ele>164.6</ele>
<time>2024-05-09T12:58:36Z</time>
</trkpt>
<trkpt lat="49.661670634523034" lon="9.211041368544102">
<ele>164</ele>
<time>2024-05-09T12:58:37Z</time>
</trkpt>
<trkpt lat="49.66170500032604" lon="9.211018485948443">
<ele>163.6</ele>
<time>2024-05-09T12:58:38Z</time>
</trkpt>
<trkpt lat="49.66172025538981" lon="9.210980348289011">
<ele>163</ele>
<time>2024-05-09T12:58:39Z</time>
</trkpt>
<trkpt lat="49.66172025538981" lon="9.210940282791851">
<ele>162.6</ele>
<time>2024-05-09T12:58:40Z</time>
</trkpt>
<trkpt lat="49.66170500032604" lon="9.210909772664309">
<ele>162.2</ele>
<time>2024-05-09T12:58:41Z</time>
</trkpt>
<trkpt lat="49.66167826205492" lon="9.210896445438266">
<ele>161.8</ele>
<time>2024-05-09T12:58:42Z</time>
</trkpt>
<trkpt lat="49.661651607602835" lon="9.210898373275995">
<ele>161.6</ele>
<time>2024-05-09T12:58:43Z</time>
</trkpt>
<trkpt lat="49.66162101365626" lon="9.210911700502038">
<ele>161.4</ele>
<time>2024-05-09T12:58:44Z</time>
</trkpt>
<trkpt lat="49.66159435920417" lon="9.210921255871654">
<ele>161</ele>
<time>2024-05-09T12:58:45Z</time>
</trkpt>
<trkpt lat="49.661567620933056" lon="9.210931733250618">
<ele>161</ele>
<time>2024-05-09T12:58:46Z</time>
</trkpt>
<trkpt lat="49.6615447383374" lon="9.210938438773155">
<ele>160.8</ele>
<time>2024-05-09T12:58:47Z</time>
</trkpt>
<trkpt lat="49.66151422820985" lon="9.21094506047666">
<ele>160.6</ele>
<time>2024-05-09T12:58:48Z</time>
</trkpt>
<trkpt lat="49.66148757375777" lon="9.210953693836927">
<ele>160.6</ele>
<time>2024-05-09T12:58:49Z</time>
</trkpt>
<trkpt lat="49.66145697981119" lon="9.210961321368814">
<ele>160.6</ele>
<time>2024-05-09T12:58:50Z</time>
</trkpt>
<trkpt lat="49.66142646968365" lon="9.21096794307232">
<ele>160.6</ele>
<time>2024-05-09T12:58:51Z</time>
</trkpt>
<trkpt lat="49.66139218769968" lon="9.210974648594856">
<ele>160.6</ele>
<time>2024-05-09T12:58:52Z</time>
</trkpt>
<trkpt lat="49.66136167757213" lon="9.210981354117392">
<ele>160.6</ele>
<time>2024-05-09T12:58:53Z</time>
</trkpt>
<trkpt lat="49.66132731176913" lon="9.21098705381155">
<ele>160.6</ele>
<time>2024-05-09T12:58:54Z</time>
</trkpt>
<trkpt lat="49.66129680164158" lon="9.210991831496358">
<ele>160.6</ele>
<time>2024-05-09T12:58:55Z</time>
</trkpt>
<trkpt lat="49.66126629151404" lon="9.210994681343436">
<ele>160.6</ele>
<time>2024-05-09T12:58:56Z</time>
</trkpt>
<trkpt lat="49.66123192571104" lon="9.211000381037593">
<ele>160.6</ele>
<time>2024-05-09T12:58:57Z</time>
</trkpt>
<trkpt lat="49.661197643727064" lon="9.2110051587224">
<ele>160.6</ele>
<time>2024-05-09T12:58:58Z</time>
</trkpt>
<trkpt lat="49.66116327792406" lon="9.211009936407208">
<ele>160.6</ele>
<time>2024-05-09T12:58:59Z</time>
</trkpt>
<trkpt lat="49.66112899594009" lon="9.211014714092016">
<ele>160.6</ele>
<time>2024-05-09T12:59:00Z</time>
</trkpt>
<trkpt lat="49.661094630137086" lon="9.211019491776824">
<ele>160.6</ele>
<time>2024-05-09T12:59:01Z</time>
</trkpt>
<trkpt lat="49.661056492477655" lon="9.211032819002869">
<ele>160.8</ele>
<time>2024-05-09T12:59:02Z</time>
</trkpt>
<trkpt lat="49.66102212667465" lon="9.211041368544102">
<ele>160.8</ele>
<time>2024-05-09T12:59:03Z</time>
</trkpt>
<trkpt lat="49.66099161654711" lon="9.211052851751449">
<ele>160.8</ele>
<time>2024-05-09T12:59:04Z</time>
</trkpt>
<trkpt lat="49.66095347888768" lon="9.21106525696814">
<ele>160.8</ele>
<time>2024-05-09T12:59:05Z</time>
</trkpt>
<trkpt lat="49.660919113084674" lon="9.211079590022564">
<ele>160.8</ele>
<time>2024-05-09T12:59:06Z</time>
</trkpt>
<trkpt lat="49.6608848311007" lon="9.211094845086336">
<ele>160.8</ele>
<time>2024-05-09T12:59:07Z</time>
</trkpt>
<trkpt lat="49.66085432097316" lon="9.211112949997188">
<ele>160.8</ele>
<time>2024-05-09T12:59:08Z</time>
</trkpt>
<trkpt lat="49.660819955170155" lon="9.211131976917386">
<ele>160.8</ele>
<time>2024-05-09T12:59:09Z</time>
</trkpt>
<trkpt lat="49.66078944504261" lon="9.211153015494348">
<ele>160.8</ele>
<time>2024-05-09T12:59:10Z</time>
</trkpt>
<trkpt lat="49.66075507923961" lon="9.211170114576817">
<ele>161</ele>
<time>2024-05-09T12:59:11Z</time>
</trkpt>
<trkpt lat="49.66072842478752" lon="9.21118545345962">
<ele>161</ele>
<time>2024-05-09T12:59:12Z</time>
</trkpt>
<trkpt lat="49.6607016865164" lon="9.211199702695012">
<ele>161</ele>
<time>2024-05-09T12:59:13Z</time>
</trkpt>
<trkpt lat="49.66067503206432" lon="9.21120833605528">
<ele>161</ele>
<time>2024-05-09T12:59:14Z</time>
</trkpt>
<trkpt lat="49.6606482937932" lon="9.211214957758784">
<ele>161</ele>
<time>2024-05-09T12:59:15Z</time>
</trkpt>
<trkpt lat="49.660629266873" lon="9.211214957758784">
<ele>161.2</ele>
<time>2024-05-09T12:59:16Z</time>
</trkpt>
<trkpt lat="49.66062163934112" lon="9.211214957758784">
<ele>161.2</ele>
<time>2024-05-09T12:59:17Z</time>
</trkpt>
<trkpt lat="49.66062163934112" lon="9.211216885596514">
<ele>161.2</ele>
<time>2024-05-09T12:59:21Z</time>
</trkpt>
<trkpt lat="49.66062163934112" lon="9.211217807605864">
<ele>161.2</ele>
<time>2024-05-09T12:59:22Z</time>
</trkpt>
<trkpt lat="49.66063303872943" lon="9.211217807605864">
<ele>161.2</ele>
<time>2024-05-09T12:59:23Z</time>
</trkpt>
<trkpt lat="49.660640666261315" lon="9.211216885596514">
<ele>161.2</ele>
<time>2024-05-09T12:59:24Z</time>
</trkpt>
<trkpt lat="49.660644521936774" lon="9.211214957758784">
<ele>161</ele>
<time>2024-05-09T12:59:25Z</time>
</trkpt>
<trkpt lat="49.6606482937932" lon="9.211213029921057">
<ele>161</ele>
<time>2024-05-09T12:59:26Z</time>
</trkpt>
<trkpt lat="49.6606482937932" lon="9.211216885596514">
<ele>161</ele>
<time>2024-05-09T12:59:29Z</time>
</trkpt>
<trkpt lat="49.6606482937932" lon="9.211217807605864">
<ele>161</ele>
<time>2024-05-09T12:59:30Z</time>
</trkpt>
<trkpt lat="49.66065214946866" lon="9.211217807605864">
<ele>160.8</ele>
<time>2024-05-09T12:59:32Z</time>
</trkpt>
<trkpt lat="49.66065214946866" lon="9.211216885596514">
<ele>160.8</ele>
<time>2024-05-09T12:59:33Z</time>
</trkpt>
<trkpt lat="49.66065214946866" lon="9.211217807605864">
<ele>160.6</ele>
<time>2024-05-09T12:59:36Z</time>
</trkpt>
<trkpt lat="49.66065592132509" lon="9.211216885596514">
<ele>160.6</ele>
<time>2024-05-09T12:59:37Z</time>
</trkpt>
<trkpt lat="49.66065977700055" lon="9.211216885596514">
<ele>160.4</ele>
<time>2024-05-09T12:59:46Z</time>
</trkpt>
<trkpt lat="49.66065977700055" lon="9.211217807605864">
<ele>160.2</ele>
<time>2024-05-09T12:59:48Z</time>
</trkpt>
<trkpt lat="49.66065977700055" lon="9.211219735443592">
<ele>160.2</ele>
<time>2024-05-09T12:59:54Z</time>
</trkpt>
<trkpt lat="49.66065977700055" lon="9.211217807605864">
<ele>160</ele>
<time>2024-05-09T13:00:05Z</time>
</trkpt>
<trkpt lat="49.66065977700055" lon="9.211216885596514">
<ele>159.8</ele>
<time>2024-05-09T13:00:08Z</time>
</trkpt>
<trkpt lat="49.66065977700055" lon="9.211214957758784">
<ele>159.8</ele>
<time>2024-05-09T13:00:18Z</time>
</trkpt>
<trkpt lat="49.66065977700055" lon="9.211213029921057">
<ele>159.6</ele>
<time>2024-05-09T13:00:22Z</time>
</trkpt>
<trkpt lat="49.66065977700055" lon="9.211211185902355">
<ele>159.4</ele>
<time>2024-05-09T13:00:26Z</time>
</trkpt>
<trkpt lat="49.66065977700055" lon="9.211210180073977">
<ele>159.4</ele>
<time>2024-05-09T13:00:30Z</time>
</trkpt>
<trkpt lat="49.66065977700055" lon="9.21120833605528">
<ele>159.2</ele>
<time>2024-05-09T13:00:34Z</time>
</trkpt>
<trkpt lat="49.66065977700055" lon="9.21120640821755">
<ele>159.2</ele>
<time>2024-05-09T13:00:43Z</time>
</trkpt>
<trkpt lat="49.66065977700055" lon="9.21120448037982">
<ele>159.2</ele>
<time>2024-05-09T13:00:49Z</time>
</trkpt>
<trkpt lat="49.660663548856974" lon="9.21120448037982">
<ele>159.2</ele>
<time>2024-05-09T13:00:52Z</time>
</trkpt>
<trkpt lat="49.660663548856974" lon="9.21120640821755">
<ele>159.2</ele>
<time>2024-05-09T13:00:53Z</time>
</trkpt>
<trkpt lat="49.660663548856974" lon="9.21120448037982">
<ele>159.2</ele>
<time>2024-05-09T13:00:59Z</time>
</trkpt>
<trkpt lat="49.660663548856974" lon="9.211203558370473">
<ele>159.4</ele>
<time>2024-05-09T13:01:04Z</time>
</trkpt>
<trkpt lat="49.66066740453243" lon="9.211203558370473">
<ele>159.4</ele>
<time>2024-05-09T13:01:11Z</time>
</trkpt>
<trkpt lat="49.66066740453243" lon="9.211201630532742">
<ele>159.6</ele>
<time>2024-05-09T13:01:12Z</time>
</trkpt>
<trkpt lat="49.66066740453243" lon="9.211199702695012">
<ele>159.8</ele>
<time>2024-05-09T13:01:21Z</time>
</trkpt>
<trkpt lat="49.660663548856974" lon="9.211199702695012">
<ele>159.8</ele>
<time>2024-05-09T13:01:30Z</time>
</trkpt>
<trkpt lat="49.66066740453243" lon="9.211198780685663">
<ele>160</ele>
<time>2024-05-09T13:01:35Z</time>
</trkpt>
<trkpt lat="49.66066740453243" lon="9.211196852847934">
<ele>160</ele>
<time>2024-05-09T13:01:42Z</time>
</trkpt>
<trkpt lat="49.66066740453243" lon="9.211194925010204">
<ele>160</ele>
<time>2024-05-09T13:01:51Z</time>
</trkpt>
<trkpt lat="49.660663548856974" lon="9.211193080991508">
<ele>160</ele>
<time>2024-05-09T13:02:07Z</time>
</trkpt>
<trkpt lat="49.660663548856974" lon="9.211192075163126">
<ele>160</ele>
<time>2024-05-09T13:02:21Z</time>
</trkpt>
<trkpt lat="49.660663548856974" lon="9.211190147325397">
<ele>160.2</ele>
<time>2024-05-09T13:02:29Z</time>
</trkpt>
<trkpt lat="49.66066740453243" lon="9.211190147325397">
<ele>160.2</ele>
<time>2024-05-09T13:02:31Z</time>
</trkpt>
<trkpt lat="49.66066740453243" lon="9.211192075163126">
<ele>160.2</ele>
<time>2024-05-09T13:02:35Z</time>
</trkpt>
<trkpt lat="49.66066740453243" lon="9.211193080991508">
<ele>160.2</ele>
<time>2024-05-09T13:02:38Z</time>
</trkpt>
<trkpt lat="49.660663548856974" lon="9.211193080991508">
<ele>160.2</ele>
<time>2024-05-09T13:02:41Z</time>
</trkpt>
<trkpt lat="49.660663548856974" lon="9.211192075163126">
<ele>160.2</ele>
<time>2024-05-09T13:02:42Z</time>
</trkpt>
<trkpt lat="49.660663548856974" lon="9.211190147325397">
<ele>160.2</ele>
<time>2024-05-09T13:02:54Z</time>
</trkpt>
<trkpt lat="49.660663548856974" lon="9.211192075163126">
<ele>160.2</ele>
<time>2024-05-09T13:02:56Z</time>
</trkpt>
<trkpt lat="49.660663548856974" lon="9.211190147325397">
<ele>160.2</ele>
<time>2024-05-09T13:03:01Z</time>
</trkpt>
<trkpt lat="49.660663548856974" lon="9.2111883033067">
<ele>160.4</ele>
<time>2024-05-09T13:03:06Z</time>
</trkpt>
<trkpt lat="49.660663548856974" lon="9.211190147325397">
<ele>160.4</ele>
<time>2024-05-09T13:03:21Z</time>
</trkpt>
<trkpt lat="49.660663548856974" lon="9.2111883033067">
<ele>160.4</ele>
<time>2024-05-09T13:03:26Z</time>
</trkpt>
<trkpt lat="49.660663548856974" lon="9.211190147325397">
<ele>160.4</ele>
<time>2024-05-09T13:03:42Z</time>
</trkpt>
<trkpt lat="49.660663548856974" lon="9.211192075163126">
<ele>160.4</ele>
<time>2024-05-09T13:03:47Z</time>
</trkpt>
<trkpt lat="49.660663548856974" lon="9.211193080991508">
<ele>160.4</ele>
<time>2024-05-09T13:04:05Z</time>
</trkpt>
<trkpt lat="49.660663548856974" lon="9.211192075163126">
<ele>160.4</ele>
<time>2024-05-09T13:04:07Z</time>
</trkpt>
<trkpt lat="49.660663548856974" lon="9.211193080991508">
<ele>160.4</ele>
<time>2024-05-09T13:04:22Z</time>
</trkpt>
<trkpt lat="49.660663548856974" lon="9.211194925010204">
<ele>160.4</ele>
<time>2024-05-09T13:04:30Z</time>
</trkpt>
<trkpt lat="49.660663548856974" lon="9.211193080991508">
<ele>160.4</ele>
<time>2024-05-09T13:04:32Z</time>
</trkpt>
<trkpt lat="49.660663548856974" lon="9.211192075163126">
<ele>160.4</ele>
<time>2024-05-09T13:04:35Z</time>
</trkpt>
<trkpt lat="49.66065977700055" lon="9.211192075163126">
<ele>160.4</ele>
<time>2024-05-09T13:04:37Z</time>
</trkpt>
<trkpt lat="49.66065977700055" lon="9.211190147325397">
<ele>160.4</ele>
<time>2024-05-09T13:04:38Z</time>
</trkpt>
<trkpt lat="49.66065977700055" lon="9.2111883033067">
<ele>160.4</ele>
<time>2024-05-09T13:04:43Z</time>
</trkpt>
<trkpt lat="49.66065977700055" lon="9.21118637546897">
<ele>160.4</ele>
<time>2024-05-09T13:04:47Z</time>
</trkpt>
<trkpt lat="49.66065977700055" lon="9.21118545345962">
<ele>160.4</ele>
<time>2024-05-09T13:04:50Z</time>
</trkpt>
<trkpt lat="49.66065977700055" lon="9.211183525621893">
<ele>160.4</ele>
<time>2024-05-09T13:04:54Z</time>
</trkpt>
<trkpt lat="49.66065977700055" lon="9.211181597784162">
<ele>160.4</ele>
<time>2024-05-09T13:04:59Z</time>
</trkpt>
<trkpt lat="49.66065977700055" lon="9.211183525621893">
<ele>160.4</ele>
<time>2024-05-09T13:05:03Z</time>
</trkpt>
<trkpt lat="49.66065977700055" lon="9.211181597784162">
<ele>160.4</ele>
<time>2024-05-09T13:05:05Z</time>
</trkpt>
<trkpt lat="49.66065977700055" lon="9.211179669946432">
<ele>160.4</ele>
<time>2024-05-09T13:05:09Z</time>
</trkpt>
<trkpt lat="49.660663548856974" lon="9.211181597784162">
<ele>160.4</ele>
<time>2024-05-09T13:05:15Z</time>
</trkpt>
<trkpt lat="49.660663548856974" lon="9.211183525621893">
<ele>160.4</ele>
<time>2024-05-09T13:05:16Z</time>
</trkpt>
<trkpt lat="49.660663548856974" lon="9.211181597784162">
<ele>160.4</ele>
<time>2024-05-09T13:05:20Z</time>
</trkpt>
<trkpt lat="49.660663548856974" lon="9.211179669946432">
<ele>160.4</ele>
<time>2024-05-09T13:05:25Z</time>
</trkpt>
<trkpt lat="49.66065977700055" lon="9.211179669946432">
<ele>160.4</ele>
<time>2024-05-09T13:05:37Z</time>
</trkpt>
<trkpt lat="49.66065977700055" lon="9.211178747937083">
<ele>160.4</ele>
<time>2024-05-09T13:05:42Z</time>
</trkpt>
<trkpt lat="49.66065977700055" lon="9.211176820099354">
<ele>160.4</ele>
<time>2024-05-09T13:05:50Z</time>
</trkpt>
<trkpt lat="49.66065977700055" lon="9.211174892261624">
<ele>160.4</ele>
<time>2024-05-09T13:05:56Z</time>
</trkpt>
<trkpt lat="49.66065977700055" lon="9.211176820099354">
<ele>160.4</ele>
<time>2024-05-09T13:06:00Z</time>
</trkpt>
<trkpt lat="49.66065977700055" lon="9.211178747937083">
<ele>160.4</ele>
<time>2024-05-09T13:06:02Z</time>
</trkpt>
<trkpt lat="49.66065977700055" lon="9.211179669946432">
<ele>160.4</ele>
<time>2024-05-09T13:06:11Z</time>
</trkpt>
<trkpt lat="49.66065977700055" lon="9.211178747937083">
<ele>160.4</ele>
<time>2024-05-09T13:06:12Z</time>
</trkpt>
<trkpt lat="49.66065977700055" lon="9.211179669946432">
<ele>160.4</ele>
<time>2024-05-09T13:06:13Z</time>
</trkpt>
<trkpt lat="49.66065977700055" lon="9.211178747937083">
<ele>160.4</ele>
<time>2024-05-09T13:06:15Z</time>
</trkpt>
<trkpt lat="49.66065592132509" lon="9.211176820099354">
<ele>160.4</ele>
<time>2024-05-09T13:06:16Z</time>
</trkpt>
<trkpt lat="49.6606482937932" lon="9.211174892261624">
<ele>160.4</ele>
<time>2024-05-09T13:06:17Z</time>
</trkpt>
<trkpt lat="49.66063303872943" lon="9.211172042414546">
<ele>160.4</ele>
<time>2024-05-09T13:06:18Z</time>
</trkpt>
<trkpt lat="49.66061401180923" lon="9.211163492873313">
<ele>160.4</ele>
<time>2024-05-09T13:06:19Z</time>
</trkpt>
<trkpt lat="49.66059104539454" lon="9.21116542071104">
<ele>160.4</ele>
<time>2024-05-09T13:06:20Z</time>
</trkpt>
<trkpt lat="49.660560535266995" lon="9.21116542071104">
<ele>160.4</ele>
<time>2024-05-09T13:06:21Z</time>
</trkpt>
<trkpt lat="49.66053002513945" lon="9.211161565035582">
<ele>160.4</ele>
<time>2024-05-09T13:06:22Z</time>
</trkpt>
<trkpt lat="49.66049188748002" lon="9.211153015494348">
<ele>160.4</ele>
<time>2024-05-09T13:06:23Z</time>
</trkpt>
<trkpt lat="49.66045374982059" lon="9.211141532287002">
<ele>160.4</ele>
<time>2024-05-09T13:06:24Z</time>
</trkpt>
<trkpt lat="49.66041938401759" lon="9.21112820506096">
<ele>160.4</ele>
<time>2024-05-09T13:06:25Z</time>
</trkpt>
<trkpt lat="49.66038124635816" lon="9.211111944168806">
<ele>160.4</ele>
<time>2024-05-09T13:06:26Z</time>
</trkpt>
<trkpt lat="49.660343108698726" lon="9.211092917248608">
<ele>160.4</ele>
<time>2024-05-09T13:06:27Z</time>
</trkpt>
<trkpt lat="49.660304971039295" lon="9.211074812337756">
<ele>160.4</ele>
<time>2024-05-09T13:06:28Z</time>
</trkpt>
<trkpt lat="49.66027068905533" lon="9.211054779589176">
<ele>160.4</ele>
<time>2024-05-09T13:06:29Z</time>
</trkpt>
<trkpt lat="49.66023632325232" lon="9.211038518697023">
<ele>160.4</ele>
<time>2024-05-09T13:06:30Z</time>
</trkpt>
<trkpt lat="49.66019818559289" lon="9.211018485948443">
<ele>160.4</ele>
<time>2024-05-09T13:06:31Z</time>
</trkpt>
<trkpt lat="49.66016004793346" lon="9.210994681343436">
<ele>160.4</ele>
<time>2024-05-09T13:06:32Z</time>
</trkpt>
<trkpt lat="49.66012191027403" lon="9.210969870910048">
<ele>160.4</ele>
<time>2024-05-09T13:06:33Z</time>
</trkpt>
<trkpt lat="49.66008368879557" lon="9.21094506047666">
<ele>160.4</ele>
<time>2024-05-09T13:06:34Z</time>
</trkpt>
<trkpt lat="49.660049406811595" lon="9.210916478186846">
<ele>160.6</ele>
<time>2024-05-09T13:06:35Z</time>
</trkpt>
<trkpt lat="49.66001126915216" lon="9.21088689006865">
<ele>160.6</ele>
<time>2024-05-09T13:06:36Z</time>
</trkpt>
<trkpt lat="49.659973131492734" lon="9.210860235616565">
<ele>160.6</ele>
<time>2024-05-09T13:06:37Z</time>
</trkpt>
<trkpt lat="49.6599349938333" lon="9.210833497345448">
<ele>160.8</ele>
<time>2024-05-09T13:06:38Z</time>
</trkpt>
<trkpt lat="49.65989677235484" lon="9.210806842893362">
<ele>160.8</ele>
<time>2024-05-09T13:06:39Z</time>
</trkpt>
<trkpt lat="49.65986249037087" lon="9.210776248946786">
<ele>160.8</ele>
<time>2024-05-09T13:06:40Z</time>
</trkpt>
<trkpt lat="49.659828124567866" lon="9.210744816809893">
<ele>161</ele>
<time>2024-05-09T13:06:41Z</time>
</trkpt>
<trkpt lat="49.65978998690843" lon="9.21071145683527">
<ele>161</ele>
<time>2024-05-09T13:06:42Z</time>
</trkpt>
<trkpt lat="49.659755704924464" lon="9.210681868717074">
<ele>161.2</ele>
<time>2024-05-09T13:06:43Z</time>
</trkpt>
<trkpt lat="49.659717483446" lon="9.21065328642726">
<ele>161.4</ele>
<time>2024-05-09T13:06:44Z</time>
</trkpt>
<trkpt lat="49.65968320146203" lon="9.210626548156142">
<ele>161.6</ele>
<time>2024-05-09T13:06:45Z</time>
</trkpt>
<trkpt lat="49.6596450638026" lon="9.210599893704057">
<ele>161.6</ele>
<time>2024-05-09T13:06:46Z</time>
</trkpt>
<trkpt lat="49.65960692614317" lon="9.21057030558586">
<ele>161.8</ele>
<time>2024-05-09T13:06:47Z</time>
</trkpt>
<trkpt lat="49.65956870466471" lon="9.210537867620587">
<ele>162</ele>
<time>2024-05-09T13:06:48Z</time>
</trkpt>
<trkpt lat="49.65953056700528" lon="9.21051020734012">
<ele>162</ele>
<time>2024-05-09T13:06:49Z</time>
</trkpt>
<trkpt lat="49.659496285021305" lon="9.210483469069004">
<ele>162.2</ele>
<time>2024-05-09T13:06:50Z</time>
</trkpt>
<trkpt lat="49.659458147361875" lon="9.21045203693211">
<ele>162.2</ele>
<time>2024-05-09T13:06:51Z</time>
</trkpt>
<trkpt lat="49.65942000970245" lon="9.210419598966835">
<ele>162.2</ele>
<time>2024-05-09T13:06:52Z</time>
</trkpt>
<trkpt lat="49.65938564389944" lon="9.210386238992214">
<ele>162.4</ele>
<time>2024-05-09T13:06:53Z</time>
</trkpt>
<trkpt lat="49.65934750624001" lon="9.210358578711748">
<ele>162.4</ele>
<time>2024-05-09T13:06:54Z</time>
</trkpt>
<trkpt lat="49.65930936858058" lon="9.210331840440633">
<ele>162.4</ele>
<time>2024-05-09T13:06:55Z</time>
</trkpt>
<trkpt lat="49.659275002777576" lon="9.210301330313088">
<ele>162.4</ele>
<time>2024-05-09T13:06:56Z</time>
</trkpt>
<trkpt lat="49.659236865118146" lon="9.210267970338464">
<ele>162.4</ele>
<time>2024-05-09T13:06:57Z</time>
</trkpt>
<trkpt lat="49.65920249931514" lon="9.210241315886378">
<ele>162.4</ele>
<time>2024-05-09T13:06:58Z</time>
</trkpt>
<trkpt lat="49.65916436165571" lon="9.210213655605912">
<ele>162.4</ele>
<time>2024-05-09T13:06:59Z</time>
</trkpt>
<trkpt lat="49.65913007967174" lon="9.210181217640638">
<ele>162.4</ele>
<time>2024-05-09T13:07:00Z</time>
</trkpt>
<trkpt lat="49.65908808633685" lon="9.210153557360172">
<ele>162.4</ele>
<time>2024-05-09T13:07:01Z</time>
</trkpt>
<trkpt lat="49.65905372053385" lon="9.210122041404247">
<ele>162.4</ele>
<time>2024-05-09T13:07:02Z</time>
</trkpt>
<trkpt lat="49.65901943854987" lon="9.210089603438972">
<ele>162.4</ele>
<time>2024-05-09T13:07:03Z</time>
</trkpt>
<trkpt lat="49.658981300890446" lon="9.21006009913981">
<ele>162.6</ele>
<time>2024-05-09T13:07:04Z</time>
</trkpt>
<trkpt lat="49.658943163231015" lon="9.210028583183885">
<ele>162.6</ele>
<time>2024-05-09T13:07:05Z</time>
</trkpt>
<trkpt lat="49.658905025571585" lon="9.20999807305634">
<ele>162.6</ele>
<time>2024-05-09T13:07:06Z</time>
</trkpt>
<trkpt lat="49.65886680409312" lon="9.209966640919449">
<ele>162.6</ele>
<time>2024-05-09T13:07:07Z</time>
</trkpt>
<trkpt lat="49.658824894577265" lon="9.209937052801251">
<ele>162.6</ele>
<time>2024-05-09T13:07:08Z</time>
</trkpt>
<trkpt lat="49.658786756917834" lon="9.209906542673709">
<ele>162.6</ele>
<time>2024-05-09T13:07:09Z</time>
</trkpt>
<trkpt lat="49.658744763582945" lon="9.209875026717782">
<ele>162.6</ele>
<time>2024-05-09T13:07:10Z</time>
</trkpt>
<trkpt lat="49.658706625923514" lon="9.209843594580889">
<ele>162.4</ele>
<time>2024-05-09T13:07:11Z</time>
</trkpt>
<trkpt lat="49.65866848826408" lon="9.209813084453344">
<ele>162.4</ele>
<time>2024-05-09T13:07:12Z</time>
</trkpt>
<trkpt lat="49.65863035060465" lon="9.20978156849742">
<ele>162.4</ele>
<time>2024-05-09T13:07:13Z</time>
</trkpt>
<trkpt lat="49.65859598480165" lon="9.209750136360526">
<ele>162.4</ele>
<time>2024-05-09T13:07:14Z</time>
</trkpt>
<trkpt lat="49.65855407528579" lon="9.209721554070711">
<ele>162.4</ele>
<time>2024-05-09T13:07:15Z</time>
</trkpt>
<trkpt lat="49.65851585380733" lon="9.209690038114786">
<ele>162.4</ele>
<time>2024-05-09T13:07:16Z</time>
</trkpt>
<trkpt lat="49.6584777161479" lon="9.209659527987242">
<ele>162.4</ele>
<time>2024-05-09T13:07:17Z</time>
</trkpt>
<trkpt lat="49.65843957848847" lon="9.209628095850348">
<ele>162.4</ele>
<time>2024-05-09T13:07:18Z</time>
</trkpt>
<trkpt lat="49.65840144082904" lon="9.209596579894423">
<ele>162.4</ele>
<time>2024-05-09T13:07:19Z</time>
</trkpt>
<trkpt lat="49.658367075026035" lon="9.2095632199198">
<ele>162.4</ele>
<time>2024-05-09T13:07:20Z</time>
</trkpt>
<trkpt lat="49.658328937366605" lon="9.209533631801603">
<ele>162.4</ele>
<time>2024-05-09T13:07:21Z</time>
</trkpt>
<trkpt lat="49.658290799707174" lon="9.20950312167406">
<ele>162.4</ele>
<time>2024-05-09T13:07:22Z</time>
</trkpt>
<trkpt lat="49.6582565177232" lon="9.209473533555864">
<ele>162.4</ele>
<time>2024-05-09T13:07:23Z</time>
</trkpt>
<trkpt lat="49.65821838006377" lon="9.20944687910378">
<ele>162.4</ele>
<time>2024-05-09T13:07:24Z</time>
</trkpt>
<trkpt lat="49.65818015858531" lon="9.209416368976235">
<ele>162.4</ele>
<time>2024-05-09T13:07:25Z</time>
</trkpt>
<trkpt lat="49.65814587660134" lon="9.20938678085804">
<ele>162.4</ele>
<time>2024-05-09T13:07:26Z</time>
</trkpt>
<trkpt lat="49.658111510798335" lon="9.209353420883415">
<ele>162.2</ele>
<time>2024-05-09T13:07:27Z</time>
</trkpt>
<trkpt lat="49.658073373138905" lon="9.209318133071063">
<ele>162.2</ele>
<time>2024-05-09T13:07:28Z</time>
</trkpt>
<trkpt lat="49.658035235479474" lon="9.209282845258713">
<ele>162.2</ele>
<time>2024-05-09T13:07:29Z</time>
</trkpt>
<trkpt lat="49.65799709782005" lon="9.209251329302788">
<ele>162.2</ele>
<time>2024-05-09T13:07:30Z</time>
</trkpt>
<trkpt lat="49.65795896016061" lon="9.209221825003624">
<ele>162.2</ele>
<time>2024-05-09T13:07:31Z</time>
</trkpt>
<trkpt lat="49.65792459435761" lon="9.20919131487608">
<ele>162.2</ele>
<time>2024-05-09T13:07:32Z</time>
</trkpt>
<trkpt lat="49.65788645669818" lon="9.209163654595612">
<ele>162.4</ele>
<time>2024-05-09T13:07:33Z</time>
</trkpt>
<trkpt lat="49.65784831903875" lon="9.209133144468067">
<ele>162.4</ele>
<time>2024-05-09T13:07:34Z</time>
</trkpt>
<trkpt lat="49.65781018137932" lon="9.209104478359222">
<ele>162.4</ele>
<time>2024-05-09T13:07:35Z</time>
</trkpt>
<trkpt lat="49.657775815576315" lon="9.209076818078756">
<ele>162.6</ele>
<time>2024-05-09T13:07:36Z</time>
</trkpt>
<trkpt lat="49.65773767791688" lon="9.20904823578894">
<ele>162.6</ele>
<time>2024-05-09T13:07:37Z</time>
</trkpt>
<trkpt lat="49.657699540257454" lon="9.209019653499126">
<ele>162.6</ele>
<time>2024-05-09T13:07:38Z</time>
</trkpt>
<trkpt lat="49.65766140259802" lon="9.20899199321866">
<ele>162.6</ele>
<time>2024-05-09T13:07:39Z</time>
</trkpt>
<trkpt lat="49.65762326493859" lon="9.208963327109814">
<ele>162.8</ele>
<time>2024-05-09T13:07:40Z</time>
</trkpt>
<trkpt lat="49.65758512727916" lon="9.20893281698227">
<ele>162.8</ele>
<time>2024-05-09T13:07:41Z</time>
</trkpt>
<trkpt lat="49.65754698961973" lon="9.208900379016995">
<ele>162.8</ele>
<time>2024-05-09T13:07:42Z</time>
</trkpt>
<trkpt lat="49.65750876814127" lon="9.208869868889453">
<ele>162.8</ele>
<time>2024-05-09T13:07:43Z</time>
</trkpt>
<trkpt lat="49.65747063048184" lon="9.208840364590287">
<ele>162.8</ele>
<time>2024-05-09T13:07:44Z</time>
</trkpt>
<trkpt lat="49.65743249282241" lon="9.20881169848144">
<ele>162.8</ele>
<time>2024-05-09T13:07:45Z</time>
</trkpt>
<trkpt lat="49.65739821083844" lon="9.208783116191626">
<ele>162.8</ele>
<time>2024-05-09T13:07:46Z</time>
</trkpt>
<trkpt lat="49.65736007317901" lon="9.20875453390181">
<ele>162.8</ele>
<time>2024-05-09T13:07:47Z</time>
</trkpt>
<trkpt lat="49.657321851700544" lon="9.208726873621345">
<ele>162.8</ele>
<time>2024-05-09T13:07:48Z</time>
</trkpt>
<trkpt lat="49.65728756971657" lon="9.208702063187957">
<ele>162.8</ele>
<time>2024-05-09T13:07:49Z</time>
</trkpt>
<trkpt lat="49.65725320391357" lon="9.20867633074522">
<ele>162.8</ele>
<time>2024-05-09T13:07:50Z</time>
</trkpt>
<trkpt lat="49.65721506625414" lon="9.208649592474105">
<ele>163</ele>
<time>2024-05-09T13:07:51Z</time>
</trkpt>
<trkpt lat="49.65718078427017" lon="9.208622854202986">
<ele>163</ele>
<time>2024-05-09T13:07:52Z</time>
</trkpt>
<trkpt lat="49.65714641846717" lon="9.2085961997509">
<ele>163</ele>
<time>2024-05-09T13:07:53Z</time>
</trkpt>
<trkpt lat="49.65710828080773" lon="9.208570467308164">
<ele>163</ele>
<time>2024-05-09T13:07:54Z</time>
</trkpt>
<trkpt lat="49.6570701431483" lon="9.208543729037046">
<ele>163.2</ele>
<time>2024-05-09T13:07:55Z</time>
</trkpt>
<trkpt lat="49.65703200548887" lon="9.20851992443204">
<ele>163.2</ele>
<time>2024-05-09T13:07:56Z</time>
</trkpt>
<trkpt lat="49.65699378401041" lon="9.208495113998652">
<ele>163.2</ele>
<time>2024-05-09T13:07:57Z</time>
</trkpt>
<trkpt lat="49.65695564635098" lon="9.208471225574613">
<ele>163.2</ele>
<time>2024-05-09T13:07:58Z</time>
</trkpt>
<trkpt lat="49.65691373683512" lon="9.208446498960257">
<ele>163.2</ele>
<time>2024-05-09T13:07:59Z</time>
</trkpt>
<trkpt lat="49.65687559917569" lon="9.208423532545568">
<ele>163.2</ele>
<time>2024-05-09T13:08:00Z</time>
</trkpt>
<trkpt lat="49.6568336058408" lon="9.20839972794056">
<ele>163.2</ele>
<time>2024-05-09T13:08:01Z</time>
</trkpt>
<trkpt lat="49.65679546818137" lon="9.208372989669442">
<ele>163.2</ele>
<time>2024-05-09T13:08:02Z</time>
</trkpt>
<trkpt lat="49.65675733052194" lon="9.208350107073784">
<ele>163.2</ele>
<time>2024-05-09T13:08:03Z</time>
</trkpt>
<trkpt lat="49.65671533718705" lon="9.208325380459428">
<ele>163.2</ele>
<time>2024-05-09T13:08:04Z</time>
</trkpt>
<trkpt lat="49.656673427671194" lon="9.208301492035387">
<ele>163.2</ele>
<time>2024-05-09T13:08:05Z</time>
</trkpt>
<trkpt lat="49.656631434336305" lon="9.208281459286807">
<ele>163.2</ele>
<time>2024-05-09T13:08:06Z</time>
</trkpt>
<trkpt lat="49.656589441001415" lon="9.208261426538227">
<ele>163.2</ele>
<time>2024-05-09T13:08:07Z</time>
</trkpt>
<trkpt lat="49.65654753148556" lon="9.20823854394257">
<ele>163.2</ele>
<time>2024-05-09T13:08:08Z</time>
</trkpt>
<trkpt lat="49.65650553815067" lon="9.208214739337564">
<ele>163.2</ele>
<time>2024-05-09T13:08:09Z</time>
</trkpt>
<trkpt lat="49.65646354481578" lon="9.208194706588984">
<ele>163.2</ele>
<time>2024-05-09T13:08:10Z</time>
</trkpt>
<trkpt lat="49.65642163529992" lon="9.208173751831056">
<ele>163.2</ele>
<time>2024-05-09T13:08:11Z</time>
</trkpt>
<trkpt lat="49.65638349764049" lon="9.208154641091824">
<ele>163.2</ele>
<time>2024-05-09T13:08:12Z</time>
</trkpt>
<trkpt lat="49.6563415043056" lon="9.208138464018704">
<ele>163.2</ele>
<time>2024-05-09T13:08:13Z</time>
</trkpt>
<trkpt lat="49.656295739114285" lon="9.2081231251359">
<ele>163</ele>
<time>2024-05-09T13:08:14Z</time>
</trkpt>
<trkpt lat="49.65624997392297" lon="9.208107870072126">
<ele>163</ele>
<time>2024-05-09T13:08:15Z</time>
</trkpt>
<trkpt lat="49.65620798058808" lon="9.208091692999004">
<ele>163</ele>
<time>2024-05-09T13:08:16Z</time>
</trkpt>
<trkpt lat="49.65616221539676" lon="9.20808020979166">
<ele>163</ele>
<time>2024-05-09T13:08:17Z</time>
</trkpt>
<trkpt lat="49.656116450205445" lon="9.208069732412696">
<ele>163</ele>
<time>2024-05-09T13:08:18Z</time>
</trkpt>
<trkpt lat="49.65607068501413" lon="9.208060260862112">
<ele>163</ele>
<time>2024-05-09T13:08:19Z</time>
</trkpt>
<trkpt lat="49.65602491982281" lon="9.208046849817038">
<ele>162.8</ele>
<time>2024-05-09T13:08:20Z</time>
</trkpt>
<trkpt lat="49.65598678216338" lon="9.208031594753264">
<ele>162.8</ele>
<time>2024-05-09T13:08:21Z</time>
</trkpt>
<trkpt lat="49.65594478882849" lon="9.208020195364952">
<ele>162.8</ele>
<time>2024-05-09T13:08:22Z</time>
</trkpt>
<trkpt lat="49.655899023637176" lon="9.208008712157609">
<ele>162.6</ele>
<time>2024-05-09T13:08:23Z</time>
</trkpt>
<trkpt lat="49.655857030302286" lon="9.207996306940911">
<ele>162.6</ele>
<time>2024-05-09T13:08:24Z</time>
</trkpt>
<trkpt lat="49.65581512078643" lon="9.207986751571298">
<ele>162.6</ele>
<time>2024-05-09T13:08:25Z</time>
</trkpt>
<trkpt lat="49.65577312745154" lon="9.207975352182984">
<ele>162.6</ele>
<time>2024-05-09T13:08:26Z</time>
</trkpt>
<trkpt lat="49.65573113411665" lon="9.20796294696629">
<ele>162.4</ele>
<time>2024-05-09T13:08:27Z</time>
</trkpt>
<trkpt lat="49.65568536892533" lon="9.207949619740248">
<ele>162.4</ele>
<time>2024-05-09T13:08:28Z</time>
</trkpt>
<trkpt lat="49.6556472312659" lon="9.207941992208362">
<ele>162.4</ele>
<time>2024-05-09T13:08:29Z</time>
</trkpt>
<trkpt lat="49.655601466074586" lon="9.207935286685824">
<ele>162.4</ele>
<time>2024-05-09T13:08:30Z</time>
</trkpt>
<trkpt lat="49.6555594727397" lon="9.207929586991668">
<ele>162.6</ele>
<time>2024-05-09T13:08:31Z</time>
</trkpt>
<trkpt lat="49.65551370754838" lon="9.20792673714459">
<ele>162.6</ele>
<time>2024-05-09T13:08:32Z</time>
</trkpt>
<trkpt lat="49.65546794235706" lon="9.20792288146913">
<ele>162.8</ele>
<time>2024-05-09T13:08:33Z</time>
</trkpt>
<trkpt lat="49.65542217716575" lon="9.207921959459782">
<ele>162.8</ele>
<time>2024-05-09T13:08:34Z</time>
</trkpt>
<trkpt lat="49.65537641197443" lon="9.207920031622052">
<ele>162.8</ele>
<time>2024-05-09T13:08:35Z</time>
</trkpt>
<trkpt lat="49.655326791107655" lon="9.207918103784325">
<ele>162.8</ele>
<time>2024-05-09T13:08:36Z</time>
</trkpt>
<trkpt lat="49.6552848815918" lon="9.207918103784325">
<ele>162.8</ele>
<time>2024-05-09T13:08:37Z</time>
</trkpt>
<trkpt lat="49.65523903258145" lon="9.207918103784325">
<ele>162.8</ele>
<time>2024-05-09T13:08:38Z</time>
</trkpt>
<trkpt lat="49.65519326739013" lon="9.207921959459782">
<ele>162.6</ele>
<time>2024-05-09T13:08:39Z</time>
</trkpt>
<trkpt lat="49.655147502198815" lon="9.20792673714459">
<ele>162.6</ele>
<time>2024-05-09T13:08:40Z</time>
</trkpt>
<trkpt lat="49.6551017370075" lon="9.207933358848097">
<ele>162.6</ele>
<time>2024-05-09T13:08:41Z</time>
</trkpt>
<trkpt lat="49.65505597181618" lon="9.207941992208362">
<ele>162.4</ele>
<time>2024-05-09T13:08:42Z</time>
</trkpt>
<trkpt lat="49.655010206624866" lon="9.207949619740248">
<ele>162.4</ele>
<time>2024-05-09T13:08:43Z</time>
</trkpt>
<trkpt lat="49.65496444143355" lon="9.207958169281484">
<ele>162.4</ele>
<time>2024-05-09T13:08:44Z</time>
</trkpt>
<trkpt lat="49.6549185924232" lon="9.20796680264175">
<ele>162.6</ele>
<time>2024-05-09T13:08:45Z</time>
</trkpt>
<trkpt lat="49.65487668290734" lon="9.207978202030064">
<ele>162.6</ele>
<time>2024-05-09T13:08:46Z</time>
</trkpt>
<trkpt lat="49.654830917716026" lon="9.207989685237408">
<ele>162.8</ele>
<time>2024-05-09T13:08:47Z</time>
</trkpt>
<trkpt lat="49.65478892438114" lon="9.208000162616372">
<ele>162.8</ele>
<time>2024-05-09T13:08:48Z</time>
</trkpt>
<trkpt lat="49.65474693104625" lon="9.208011562004684">
<ele>163</ele>
<time>2024-05-09T13:08:49Z</time>
</trkpt>
<trkpt lat="49.65470502153039" lon="9.208026817068458">
<ele>163</ele>
<time>2024-05-09T13:08:50Z</time>
</trkpt>
<trkpt lat="49.6546630281955" lon="9.20804207213223">
<ele>163.2</ele>
<time>2024-05-09T13:08:51Z</time>
</trkpt>
<trkpt lat="49.65462111867964" lon="9.208054477348924">
<ele>163.2</ele>
<time>2024-05-09T13:08:52Z</time>
</trkpt>
<trkpt lat="49.654575269669294" lon="9.208066882565618">
<ele>163.2</ele>
<time>2024-05-09T13:08:53Z</time>
</trkpt>
<trkpt lat="49.65453336015344" lon="9.208074510097504">
<ele>163.4</ele>
<time>2024-05-09T13:08:54Z</time>
</trkpt>
<trkpt lat="49.65449136681855" lon="9.20808314345777">
<ele>163.4</ele>
<time>2024-05-09T13:08:55Z</time>
</trkpt>
<trkpt lat="49.65444945730269" lon="9.208093620836737">
<ele>163.4</ele>
<time>2024-05-09T13:08:56Z</time>
</trkpt>
<trkpt lat="49.65440360829234" lon="9.20810317620635">
<ele>163.4</ele>
<time>2024-05-09T13:08:57Z</time>
</trkpt>
<trkpt lat="49.65436169877648" lon="9.208113653585317">
<ele>163.4</ele>
<time>2024-05-09T13:08:58Z</time>
</trkpt>
<trkpt lat="49.654319705441594" lon="9.208125052973628">
<ele>163.6</ele>
<time>2024-05-09T13:08:59Z</time>
</trkpt>
<trkpt lat="49.65428156778216" lon="9.208136536180971">
<ele>163.6</ele>
<time>2024-05-09T13:09:00Z</time>
</trkpt>
<trkpt lat="49.654239574447274" lon="9.208151791244743">
<ele>163.6</ele>
<time>2024-05-09T13:09:01Z</time>
</trkpt>
<trkpt lat="49.65419766493142" lon="9.208167968317866">
<ele>163.6</ele>
<time>2024-05-09T13:09:02Z</time>
</trkpt>
<trkpt lat="49.65415567159653" lon="9.20818322338164">
<ele>163.6</ele>
<time>2024-05-09T13:09:03Z</time>
</trkpt>
<trkpt lat="49.65411376208067" lon="9.20820040628314">
<ele>163.6</ele>
<time>2024-05-09T13:09:04Z</time>
</trkpt>
<trkpt lat="49.65407176874578" lon="9.208216667175291">
<ele>163.8</ele>
<time>2024-05-09T13:09:05Z</time>
</trkpt>
<trkpt lat="49.65402977541089" lon="9.208234772086143">
<ele>163.8</ele>
<time>2024-05-09T13:09:06Z</time>
</trkpt>
<trkpt lat="49.65399163775146" lon="9.20825664885342">
<ele>163.8</ele>
<time>2024-05-09T13:09:07Z</time>
</trkpt>
<trkpt lat="49.6539497282356" lon="9.208274837583303">
<ele>163.8</ele>
<time>2024-05-09T13:09:08Z</time>
</trkpt>
<trkpt lat="49.65390773490071" lon="9.20829671435058">
<ele>163.8</ele>
<time>2024-05-09T13:09:09Z</time>
</trkpt>
<trkpt lat="49.65386959724128" lon="9.20831674709916">
<ele>163.8</ele>
<time>2024-05-09T13:09:10Z</time>
</trkpt>
<trkpt lat="49.65383145958185" lon="9.208341557532547">
<ele>163.8</ele>
<time>2024-05-09T13:09:11Z</time>
</trkpt>
<trkpt lat="49.65378946624696" lon="9.208366367965937">
<ele>164</ele>
<time>2024-05-09T13:09:12Z</time>
</trkpt>
<trkpt lat="49.65375132858753" lon="9.208393022418022">
<ele>164</ele>
<time>2024-05-09T13:09:13Z</time>
</trkpt>
<trkpt lat="49.6537131909281" lon="9.208423532545568">
<ele>164</ele>
<time>2024-05-09T13:09:14Z</time>
</trkpt>
<trkpt lat="49.65367505326867" lon="9.20845789834857">
<ele>164.2</ele>
<time>2024-05-09T13:09:15Z</time>
</trkpt>
<trkpt lat="49.65364068746567" lon="9.208491258323193">
<ele>164.2</ele>
<time>2024-05-09T13:09:16Z</time>
</trkpt>
<trkpt lat="49.65360254980624" lon="9.20851992443204">
<ele>164.2</ele>
<time>2024-05-09T13:09:17Z</time>
</trkpt>
<trkpt lat="49.65356441214681" lon="9.208550434559584">
<ele>164.4</ele>
<time>2024-05-09T13:09:18Z</time>
</trkpt>
<trkpt lat="49.6535300463438" lon="9.208581866696475">
<ele>164.4</ele>
<time>2024-05-09T13:09:19Z</time>
</trkpt>
<trkpt lat="49.65349190868437" lon="9.208613382652402">
<ele>164.4</ele>
<time>2024-05-09T13:09:20Z</time>
</trkpt>
<trkpt lat="49.6534576267004" lon="9.208640037104487">
<ele>164.4</ele>
<time>2024-05-09T13:09:21Z</time>
</trkpt>
<trkpt lat="49.65341948904097" lon="9.208664847537875">
<ele>164.4</ele>
<time>2024-05-09T13:09:22Z</time>
</trkpt>
<trkpt lat="49.65337749570608" lon="9.208689657971265">
<ele>164.6</ele>
<time>2024-05-09T13:09:23Z</time>
</trkpt>
<trkpt lat="49.65334312990308" lon="9.208715390414">
<ele>164.6</ele>
<time>2024-05-09T13:09:24Z</time>
</trkpt>
<trkpt lat="49.65330499224365" lon="9.208738273009658">
<ele>164.6</ele>
<time>2024-05-09T13:09:25Z</time>
</trkpt>
<trkpt lat="49.65326308272779" lon="9.208756377920508">
<ele>164.8</ele>
<time>2024-05-09T13:09:26Z</time>
</trkpt>
<trkpt lat="49.653213461861014" lon="9.20877456665039">
<ele>165</ele>
<time>2024-05-09T13:09:27Z</time>
</trkpt>
<trkpt lat="49.65316006913781" lon="9.208801221102476">
<ele>165</ele>
<time>2024-05-09T13:09:28Z</time>
</trkpt>
<trkpt lat="49.65310282073915" lon="9.2088345810771">
<ele>165</ele>
<time>2024-05-09T13:09:29Z</time>
</trkpt>
<trkpt lat="49.653053283691406" lon="9.208865091204643">
<ele>165.2</ele>
<time>2024-05-09T13:09:30Z</time>
</trkpt>
<trkpt lat="49.65300743468106" lon="9.208900379016995">
<ele>165.2</ele>
<time>2024-05-09T13:09:31Z</time>
</trkpt>
<trkpt lat="49.65296166948974" lon="9.208929967135193">
<ele>165</ele>
<time>2024-05-09T13:09:32Z</time>
</trkpt>
<trkpt lat="49.65290827676654" lon="9.209036752581596">
<ele>165</ele>
<time>2024-05-09T13:09:33Z</time>
</trkpt>
<trkpt lat="49.65288539417088" lon="9.209096850827336">
<ele>164.8</ele>
<time>2024-05-09T13:09:34Z</time>
</trkpt>
<trkpt lat="49.65285865589976" lon="9.209155021235349">
<ele>164.8</ele>
<time>2024-05-09T13:09:35Z</time>
</trkpt>
<trkpt lat="49.652835773304105" lon="9.209223669022322">
<ele>164.8</ele>
<time>2024-05-09T13:09:36Z</time>
</trkpt>
<trkpt lat="49.65280911885202" lon="9.209282845258713">
<ele>164.6</ele>
<time>2024-05-09T13:09:37Z</time>
</trkpt>
<trkpt lat="49.65278623625636" lon="9.209338165819643">
<ele>164.6</ele>
<time>2024-05-09T13:09:38Z</time>
</trkpt>
<trkpt lat="49.65275949798525" lon="9.209391558542848">
<ele>164.6</ele>
<time>2024-05-09T13:09:39Z</time>
</trkpt>
<trkpt lat="49.6527289878577" lon="9.209440173581244">
<ele>164.6</ele>
<time>2024-05-09T13:09:40Z</time>
</trkpt>
<trkpt lat="49.65270610526204" lon="9.20948694460094">
<ele>164.6</ele>
<time>2024-05-09T13:09:41Z</time>
</trkpt>
<trkpt lat="49.65267936699093" lon="9.209533631801603">
<ele>164.6</ele>
<time>2024-05-09T13:09:42Z</time>
</trkpt>
<trkpt lat="49.652656484395266" lon="9.209581324830651">
<ele>164.6</ele>
<time>2024-05-09T13:09:43Z</time>
</trkpt>
<trkpt lat="49.65262982994318" lon="9.20962616801262">
<ele>164.6</ele>
<time>2024-05-09T13:09:44Z</time>
</trkpt>
<trkpt lat="49.65260309167206" lon="9.209674783051014">
<ele>164.6</ele>
<time>2024-05-09T13:09:45Z</time>
</trkpt>
<trkpt lat="49.65257643721998" lon="9.209719626232982">
<ele>164.6</ele>
<time>2024-05-09T13:09:46Z</time>
</trkpt>
<trkpt lat="49.65254969894886" lon="9.209772096946836">
<ele>164.6</ele>
<time>2024-05-09T13:09:47Z</time>
</trkpt>
<trkpt lat="49.65252296067774" lon="9.209823561832309">
<ele>164.6</ele>
<time>2024-05-09T13:09:48Z</time>
</trkpt>
<trkpt lat="49.65249630622566" lon="9.209875026717782">
<ele>164.6</ele>
<time>2024-05-09T13:09:49Z</time>
</trkpt>
<trkpt lat="49.65247342363" lon="9.209926575422289">
<ele>164.6</ele>
<time>2024-05-09T13:09:50Z</time>
</trkpt>
<trkpt lat="49.65244668535888" lon="9.209976196289063">
<ele>164.6</ele>
<time>2024-05-09T13:09:51Z</time>
</trkpt>
<trkpt lat="49.652423802763224" lon="9.210028583183885">
<ele>164.6</ele>
<time>2024-05-09T13:09:52Z</time>
</trkpt>
<trkpt lat="49.652400920167565" lon="9.21007820405066">
<ele>164.6</ele>
<time>2024-05-09T13:09:53Z</time>
</trkpt>
<trkpt lat="49.65237426571548" lon="9.210129668936132">
<ele>164.6</ele>
<time>2024-05-09T13:09:54Z</time>
</trkpt>
<trkpt lat="49.65235129930079" lon="9.210180211812258">
<ele>164.6</ele>
<time>2024-05-09T13:09:55Z</time>
</trkpt>
<trkpt lat="49.652324644848704" lon="9.210231760516765">
<ele>164.6</ele>
<time>2024-05-09T13:09:56Z</time>
</trkpt>
<trkpt lat="49.65229790657759" lon="9.210285153239964">
<ele>164.6</ele>
<time>2024-05-09T13:09:57Z</time>
</trkpt>
<trkpt lat="49.6522712521255" lon="9.210339467972515">
<ele>164.6</ele>
<time>2024-05-09T13:09:58Z</time>
</trkpt>
<trkpt lat="49.652244513854384" lon="9.21039478853345">
<ele>164.8</ele>
<time>2024-05-09T13:09:59Z</time>
</trkpt>
<trkpt lat="49.6522178594023" lon="9.210454886779187">
<ele>164.8</ele>
<time>2024-05-09T13:10:00Z</time>
</trkpt>
<trkpt lat="49.65218726545572" lon="9.210524540394545">
<ele>165</ele>
<time>2024-05-09T13:10:01Z</time>
</trkpt>
<trkpt lat="49.65215675532818" lon="9.210599893704057">
<ele>165</ele>
<time>2024-05-09T13:10:02Z</time>
</trkpt>
<trkpt lat="49.65213010087609" lon="9.21067331917584">
<ele>165</ele>
<time>2024-05-09T13:10:03Z</time>
</trkpt>
<trkpt lat="49.65211484581232" lon="9.210740039125085">
<ele>165.2</ele>
<time>2024-05-09T13:10:04Z</time>
</trkpt>
<trkpt lat="49.652103362604976" lon="9.210800137370825">
<ele>165.2</ele>
<time>2024-05-09T13:10:05Z</time>
</trkpt>
<trkpt lat="49.6520881075412" lon="9.210856379941106">
<ele>165.2</ele>
<time>2024-05-09T13:10:06Z</time>
</trkpt>
<trkpt lat="49.65207670815289" lon="9.210913628339767">
<ele>165.4</ele>
<time>2024-05-09T13:10:07Z</time>
</trkpt>
<trkpt lat="49.65206145308912" lon="9.21096509322524">
<ele>165.4</ele>
<time>2024-05-09T13:10:08Z</time>
</trkpt>
<trkpt lat="49.65203857049346" lon="9.211014714092016">
<ele>165.6</ele>
<time>2024-05-09T13:10:09Z</time>
</trkpt>
<trkpt lat="49.65202331542969" lon="9.21106525696814">
<ele>165.8</ele>
<time>2024-05-09T13:10:10Z</time>
</trkpt>
<trkpt lat="49.652000349015" lon="9.211118649691343">
<ele>165.8</ele>
<time>2024-05-09T13:10:11Z</time>
</trkpt>
<trkpt lat="49.65197746641934" lon="9.211173048242928">
<ele>165.8</ele>
<time>2024-05-09T13:10:12Z</time>
</trkpt>
<trkpt lat="49.65195458382368" lon="9.211230212822556">
<ele>165.8</ele>
<time>2024-05-09T13:10:13Z</time>
</trkpt>
<trkpt lat="49.651927929371595" lon="9.21128461137414">
<ele>166</ele>
<time>2024-05-09T13:10:14Z</time>
</trkpt>
<trkpt lat="49.65190504677594" lon="9.211339931935072">
<ele>166.2</ele>
<time>2024-05-09T13:10:15Z</time>
</trkpt>
<trkpt lat="49.65187830850482" lon="9.211395252496004">
<ele>166.2</ele>
<time>2024-05-09T13:10:16Z</time>
</trkpt>
<trkpt lat="49.651851654052734" lon="9.211448645219209">
<ele>166.4</ele>
<time>2024-05-09T13:10:17Z</time>
</trkpt>
<trkpt lat="49.65182491578162" lon="9.211504887789488">
<ele>166.6</ele>
<time>2024-05-09T13:10:18Z</time>
</trkpt>
<trkpt lat="49.651805805042386" lon="9.211555430665612">
<ele>166.6</ele>
<time>2024-05-09T13:10:19Z</time>
</trkpt>
<trkpt lat="49.6517791505903" lon="9.211607901379466">
<ele>166.8</ele>
<time>2024-05-09T13:10:20Z</time>
</trkpt>
<trkpt lat="49.65175241231918" lon="9.211665149778128">
<ele>166.8</ele>
<time>2024-05-09T13:10:21Z</time>
</trkpt>
<trkpt lat="49.6517257578671" lon="9.21171854250133">
<ele>167</ele>
<time>2024-05-09T13:10:22Z</time>
</trkpt>
<trkpt lat="49.65169901959598" lon="9.21177671290934">
<ele>167</ele>
<time>2024-05-09T13:10:23Z</time>
</trkpt>
<trkpt lat="49.65167613700032" lon="9.211832955479622">
<ele>167</ele>
<time>2024-05-09T13:10:24Z</time>
</trkpt>
<trkpt lat="49.65164562687278" lon="9.211894981563091">
<ele>166.8</ele>
<time>2024-05-09T13:10:25Z</time>
</trkpt>
<trkpt lat="49.65161888860166" lon="9.211953151971102">
<ele>166.8</ele>
<time>2024-05-09T13:10:26Z</time>
</trkpt>
<trkpt lat="49.65158837847411" lon="9.212006544694304">
<ele>166.6</ele>
<time>2024-05-09T13:10:27Z</time>
</trkpt>
<trkpt lat="49.651554096490145" lon="9.212051387876272">
<ele>166.6</ele>
<time>2024-05-09T13:10:28Z</time>
</trkpt>
<trkpt lat="49.651515958830714" lon="9.212089525535704">
<ele>166.4</ele>
<time>2024-05-09T13:10:29Z</time>
</trkpt>
<trkpt lat="49.65148159302771" lon="9.212128585204482">
<ele>166.2</ele>
<time>2024-05-09T13:10:30Z</time>
</trkpt>
<trkpt lat="49.65144345536828" lon="9.212166722863913">
<ele>166</ele>
<time>2024-05-09T13:10:31Z</time>
</trkpt>
<trkpt lat="49.65140908956528" lon="9.212204860523345">
<ele>165.8</ele>
<time>2024-05-09T13:10:32Z</time>
</trkpt>
<trkpt lat="49.65138243511319" lon="9.21225355938077">
<ele>165.6</ele>
<time>2024-05-09T13:10:33Z</time>
</trkpt>
<trkpt lat="49.65135955251753" lon="9.212305024266245">
<ele>165.4</ele>
<time>2024-05-09T13:10:34Z</time>
</trkpt>
<trkpt lat="49.651332814246416" lon="9.212354645133018">
<ele>165.4</ele>
<time>2024-05-09T13:10:35Z</time>
</trkpt>
<trkpt lat="49.6513060759753" lon="9.212403260171412">
<ele>165.2</ele>
<time>2024-05-09T13:10:36Z</time>
</trkpt>
<trkpt lat="49.65128319337964" lon="9.21244994737208">
<ele>165.2</ele>
<time>2024-05-09T13:10:37Z</time>
</trkpt>
<trkpt lat="49.651256538927555" lon="9.212496718391776">
<ele>165.2</ele>
<time>2024-05-09T13:10:38Z</time>
</trkpt>
<trkpt lat="49.6512336563319" lon="9.212545333430173">
<ele>165</ele>
<time>2024-05-09T13:10:39Z</time>
</trkpt>
<trkpt lat="49.65121077373624" lon="9.212598726153374">
<ele>165</ele>
<time>2024-05-09T13:10:40Z</time>
</trkpt>
<trkpt lat="49.65118403546512" lon="9.212651196867228">
<ele>165</ele>
<time>2024-05-09T13:10:41Z</time>
</trkpt>
<trkpt lat="49.651157297194" lon="9.21270366758108">
<ele>165</ele>
<time>2024-05-09T13:10:42Z</time>
</trkpt>
<trkpt lat="49.65112678706646" lon="9.212751360610127">
<ele>165</ele>
<time>2024-05-09T13:10:43Z</time>
</trkpt>
<trkpt lat="49.651096276938915" lon="9.212799975648522">
<ele>164.8</ele>
<time>2024-05-09T13:10:44Z</time>
</trkpt>
<trkpt lat="49.65106962248683" lon="9.212849596515298">
<ele>164.8</ele>
<time>2024-05-09T13:10:45Z</time>
</trkpt>
<trkpt lat="49.651039112359285" lon="9.212896283715963">
<ele>164.8</ele>
<time>2024-05-09T13:10:46Z</time>
</trkpt>
<trkpt lat="49.65101622976363" lon="9.21294498257339">
<ele>164.8</ele>
<time>2024-05-09T13:10:47Z</time>
</trkpt>
<trkpt lat="49.65098563581705" lon="9.212989741936326">
<ele>164.8</ele>
<time>2024-05-09T13:10:48Z</time>
</trkpt>
<trkpt lat="49.65095135383308" lon="9.213031735271215">
<ele>165</ele>
<time>2024-05-09T13:10:49Z</time>
</trkpt>
<trkpt lat="49.65091698803008" lon="9.213073728606105">
<ele>165</ele>
<time>2024-05-09T13:10:50Z</time>
</trkpt>
<trkpt lat="49.650882706046104" lon="9.213111866265535">
<ele>165</ele>
<time>2024-05-09T13:10:51Z</time>
</trkpt>
<trkpt lat="49.650844568386674" lon="9.213143298402429">
<ele>165</ele>
<time>2024-05-09T13:10:52Z</time>
</trkpt>
<trkpt lat="49.65080634690821" lon="9.213170036673546">
<ele>165</ele>
<time>2024-05-09T13:10:53Z</time>
</trkpt>
<trkpt lat="49.65076820924878" lon="9.213194847106934">
<ele>165.2</ele>
<time>2024-05-09T13:10:54Z</time>
</trkpt>
<trkpt lat="49.65073007158935" lon="9.21322150155902">
<ele>165.4</ele>
<time>2024-05-09T13:10:55Z</time>
</trkpt>
<trkpt lat="49.65068816207349" lon="9.21323960646987">
<ele>165.4</ele>
<time>2024-05-09T13:10:56Z</time>
</trkpt>
<trkpt lat="49.65065002441406" lon="9.213266344740989">
<ele>165.6</ele>
<time>2024-05-09T13:10:57Z</time>
</trkpt>
<trkpt lat="49.6506118029356" lon="9.213292077183723">
<ele>165.6</ele>
<time>2024-05-09T13:10:58Z</time>
</trkpt>
<trkpt lat="49.65056989341974" lon="9.21331973746419">
<ele>165.6</ele>
<time>2024-05-09T13:10:59Z</time>
</trkpt>
<trkpt lat="49.65053175576031" lon="9.213348319754004">
<ele>165.6</ele>
<time>2024-05-09T13:11:00Z</time>
</trkpt>
<trkpt lat="49.65048976242542" lon="9.213376985862851">
<ele>165.6</ele>
<time>2024-05-09T13:11:01Z</time>
</trkpt>
<trkpt lat="49.65045162476599" lon="9.213410345837474">
<ele>165.6</ele>
<time>2024-05-09T13:11:02Z</time>
</trkpt>
<trkpt lat="49.65041348710656" lon="9.213443705812097">
<ele>165.6</ele>
<time>2024-05-09T13:11:03Z</time>
</trkpt>
<trkpt lat="49.65037534944713" lon="9.21347706578672">
<ele>165.6</ele>
<time>2024-05-09T13:11:04Z</time>
</trkpt>
<trkpt lat="49.65034098364413" lon="9.213509503751991">
<ele>165.6</ele>
<time>2024-05-09T13:11:05Z</time>
</trkpt>
<trkpt lat="49.65030670166016" lon="9.213546719402077">
<ele>165.6</ele>
<time>2024-05-09T13:11:06Z</time>
</trkpt>
<trkpt lat="49.650268480181694" lon="9.213582929223776">
<ele>165.6</ele>
<time>2024-05-09T13:11:07Z</time>
</trkpt>
<trkpt lat="49.65023034252226" lon="9.213618217036128">
<ele>165.6</ele>
<time>2024-05-09T13:11:08Z</time>
</trkpt>
<trkpt lat="49.65019220486283" lon="9.21365350484848">
<ele>165.6</ele>
<time>2024-05-09T13:11:09Z</time>
</trkpt>
<trkpt lat="49.65015792287886" lon="9.213689798489211">
<ele>165.6</ele>
<time>2024-05-09T13:11:10Z</time>
</trkpt>
<trkpt lat="49.65012355707586" lon="9.213721230626106">
<ele>165.6</ele>
<time>2024-05-09T13:11:11Z</time>
</trkpt>
<trkpt lat="49.65008541941643" lon="9.21375366859138">
<ele>165.6</ele>
<time>2024-05-09T13:11:12Z</time>
</trkpt>
<trkpt lat="49.650051053613424" lon="9.213787950575352">
<ele>165.6</ele>
<time>2024-05-09T13:11:13Z</time>
</trkpt>
<trkpt lat="49.65001677162945" lon="9.213825166225432">
<ele>165.6</ele>
<time>2024-05-09T13:11:14Z</time>
</trkpt>
<trkpt lat="49.64998240582645" lon="9.213859532028437">
<ele>165.6</ele>
<time>2024-05-09T13:11:15Z</time>
</trkpt>
<trkpt lat="49.649948040023446" lon="9.213894819840789">
<ele>165.6</ele>
<time>2024-05-09T13:11:16Z</time>
</trkpt>
<trkpt lat="49.649909902364016" lon="9.21393203549087">
<ele>165.6</ele>
<time>2024-05-09T13:11:17Z</time>
</trkpt>
<trkpt lat="49.649871764704585" lon="9.213968245312572">
<ele>165.8</ele>
<time>2024-05-09T13:11:18Z</time>
</trkpt>
<trkpt lat="49.64983748272061" lon="9.214003533124924">
<ele>165.8</ele>
<time>2024-05-09T13:11:19Z</time>
</trkpt>
<trkpt lat="49.64980311691761" lon="9.214036893099546">
<ele>166</ele>
<time>2024-05-09T13:11:20Z</time>
</trkpt>
<trkpt lat="49.64976875111461" lon="9.21407125890255">
<ele>166</ele>
<time>2024-05-09T13:11:21Z</time>
</trkpt>
<trkpt lat="49.649734469130635" lon="9.214106546714902">
<ele>166.2</ele>
<time>2024-05-09T13:11:22Z</time>
</trkpt>
<trkpt lat="49.649696331471205" lon="9.214143678545952">
<ele>166.2</ele>
<time>2024-05-09T13:11:23Z</time>
</trkpt>
<trkpt lat="49.6496619656682" lon="9.214178044348955">
<ele>166.4</ele>
<time>2024-05-09T13:11:24Z</time>
</trkpt>
<trkpt lat="49.64962768368423" lon="9.214213332161307">
<ele>166.4</ele>
<time>2024-05-09T13:11:25Z</time>
</trkpt>
<trkpt lat="49.64958946220577" lon="9.21424861997366">
<ele>166.6</ele>
<time>2024-05-09T13:11:26Z</time>
</trkpt>
<trkpt lat="49.64955518022179" lon="9.214281979948282">
<ele>166.6</ele>
<time>2024-05-09T13:11:27Z</time>
</trkpt>
<trkpt lat="49.649517042562366" lon="9.214315339922903">
<ele>166.6</ele>
<time>2024-05-09T13:11:28Z</time>
</trkpt>
<trkpt lat="49.649478904902935" lon="9.21434685587883">
<ele>166.6</ele>
<time>2024-05-09T13:11:29Z</time>
</trkpt>
<trkpt lat="49.64944453909993" lon="9.214381137862802">
<ele>166.6</ele>
<time>2024-05-09T13:11:30Z</time>
</trkpt>
<trkpt lat="49.64941017329693" lon="9.214418353512883">
<ele>166.8</ele>
<time>2024-05-09T13:11:31Z</time>
</trkpt>
<trkpt lat="49.6493720356375" lon="9.214454647153616">
<ele>166.8</ele>
<time>2024-05-09T13:11:32Z</time>
</trkpt>
<trkpt lat="49.64933389797807" lon="9.214493706822395">
<ele>166.8</ele>
<time>2024-05-09T13:11:33Z</time>
</trkpt>
<trkpt lat="49.649299615994096" lon="9.2145280726254">
<ele>166.8</ele>
<time>2024-05-09T13:11:34Z</time>
</trkpt>
<trkpt lat="49.64926902204752" lon="9.214558582752945">
<ele>166.8</ele>
<time>2024-05-09T13:11:35Z</time>
</trkpt>
<trkpt lat="49.64923474006355" lon="9.21458624303341">
<ele>166.8</ele>
<time>2024-05-09T13:11:36Z</time>
</trkpt>
<trkpt lat="49.64919660240412" lon="9.214612897485496">
<ele>166.8</ele>
<time>2024-05-09T13:11:37Z</time>
</trkpt>
<trkpt lat="49.64915460906923" lon="9.214632930234076">
<ele>166.6</ele>
<time>2024-05-09T13:11:38Z</time>
</trkpt>
<trkpt lat="49.6491164714098" lon="9.214646257460116">
<ele>166.6</ele>
<time>2024-05-09T13:11:39Z</time>
</trkpt>
<trkpt lat="49.64907833375037" lon="9.214646257460116">
<ele>166.6</ele>
<time>2024-05-09T13:11:40Z</time>
</trkpt>
<trkpt lat="49.64903256855905" lon="9.214650113135576">
<ele>166.6</ele>
<time>2024-05-09T13:11:41Z</time>
</trkpt>
<trkpt lat="49.648986803367734" lon="9.214652040973306">
<ele>166.4</ele>
<time>2024-05-09T13:11:42Z</time>
</trkpt>
<trkpt lat="49.64894103817642" lon="9.214650113135576">
<ele>166.6</ele>
<time>2024-05-09T13:11:43Z</time>
</trkpt>
<trkpt lat="49.64889518916607" lon="9.214645335450768">
<ele>166.6</ele>
<time>2024-05-09T13:11:44Z</time>
</trkpt>
<trkpt lat="49.64885327965021" lon="9.214645335450768">
<ele>166.4</ele>
<time>2024-05-09T13:11:45Z</time>
</trkpt>
<trkpt lat="49.648807514458895" lon="9.21464156359434">
<ele>166.4</ele>
<time>2024-05-09T13:11:46Z</time>
</trkpt>
<trkpt lat="49.64876174926758" lon="9.214645335450768">
<ele>166.4</ele>
<time>2024-05-09T13:11:47Z</time>
</trkpt>
<trkpt lat="49.64871590025723" lon="9.214646257460116">
<ele>166.4</ele>
<time>2024-05-09T13:11:48Z</time>
</trkpt>
<trkpt lat="49.64867399074137" lon="9.214648185297849">
<ele>166.4</ele>
<time>2024-05-09T13:11:49Z</time>
</trkpt>
<trkpt lat="49.64863585308194" lon="9.214652040973306">
<ele>166.6</ele>
<time>2024-05-09T13:11:50Z</time>
</trkpt>
<trkpt lat="49.64859771542251" lon="9.214656818658112">
<ele>166.6</ele>
<time>2024-05-09T13:11:51Z</time>
</trkpt>
<trkpt lat="49.64855949394405" lon="9.214665368199348">
<ele>166.6</ele>
<time>2024-05-09T13:11:52Z</time>
</trkpt>
<trkpt lat="49.64851372875273" lon="9.214676851406692">
<ele>166.6</ele>
<time>2024-05-09T13:11:53Z</time>
</trkpt>
<trkpt lat="49.648471819236875" lon="9.214690178632736">
<ele>166.6</ele>
<time>2024-05-09T13:11:54Z</time>
</trkpt>
<trkpt lat="49.648429825901985" lon="9.214706355705856">
<ele>166.6</ele>
<time>2024-05-09T13:11:55Z</time>
</trkpt>
<trkpt lat="49.648387832567096" lon="9.21472161076963">
<ele>166.6</ele>
<time>2024-05-09T13:11:56Z</time>
</trkpt>
<trkpt lat="49.64834592305124" lon="9.214736865833402">
<ele>166.4</ele>
<time>2024-05-09T13:11:57Z</time>
</trkpt>
<trkpt lat="49.64830778539181" lon="9.214755054563284">
<ele>166.4</ele>
<time>2024-05-09T13:11:58Z</time>
</trkpt>
<trkpt lat="49.64826579205692" lon="9.214771231636403">
<ele>166.2</ele>
<time>2024-05-09T13:11:59Z</time>
</trkpt>
<trkpt lat="49.648231426253915" lon="9.214784558862448">
<ele>165.8</ele>
<time>2024-05-09T13:12:00Z</time>
</trkpt>
<trkpt lat="49.64819328859448" lon="9.21479981392622">
<ele>165.8</ele>
<time>2024-05-09T13:12:01Z</time>
</trkpt>
<trkpt lat="49.64815137907863" lon="9.214816996827722">
<ele>165.8</ele>
<time>2024-05-09T13:12:02Z</time>
</trkpt>
<trkpt lat="49.64810938574374" lon="9.21483795158565">
<ele>165.6</ele>
<time>2024-05-09T13:12:03Z</time>
</trkpt>
<trkpt lat="49.64807124808431" lon="9.214864689856768">
<ele>165.8</ele>
<time>2024-05-09T13:12:04Z</time>
</trkpt>
<trkpt lat="49.64803311042488" lon="9.214895199984312">
<ele>165.8</ele>
<time>2024-05-09T13:12:05Z</time>
</trkpt>
<trkpt lat="49.64799874462187" lon="9.214926715940235">
<ele>165.8</ele>
<time>2024-05-09T13:12:06Z</time>
</trkpt>
<trkpt lat="49.6479644626379" lon="9.214962925761938">
<ele>165.8</ele>
<time>2024-05-09T13:12:07Z</time>
</trkpt>
<trkpt lat="49.6479300968349" lon="9.21499821357429">
<ele>166</ele>
<time>2024-05-09T13:12:08Z</time>
</trkpt>
<trkpt lat="49.64789195917547" lon="9.21503635123372">
<ele>166.2</ele>
<time>2024-05-09T13:12:09Z</time>
</trkpt>
<trkpt lat="49.647857593372464" lon="9.215069711208344">
<ele>166.4</ele>
<time>2024-05-09T13:12:10Z</time>
</trkpt>
<trkpt lat="49.64782331138849" lon="9.215103071182966">
<ele>166.6</ele>
<time>2024-05-09T13:12:11Z</time>
</trkpt>
<trkpt lat="49.64779280126095" lon="9.215131737291811">
<ele>166.8</ele>
<time>2024-05-09T13:12:12Z</time>
</trkpt>
<trkpt lat="49.647758435457945" lon="9.215163169428706">
<ele>167</ele>
<time>2024-05-09T13:12:13Z</time>
</trkpt>
<trkpt lat="49.64773178100586" lon="9.215196529403327">
<ele>167</ele>
<time>2024-05-09T13:12:14Z</time>
</trkpt>
<trkpt lat="49.647697415202856" lon="9.215225195512176">
<ele>167.2</ele>
<time>2024-05-09T13:12:15Z</time>
</trkpt>
<trkpt lat="49.64766690507531" lon="9.215248078107834">
<ele>167.4</ele>
<time>2024-05-09T13:12:16Z</time>
</trkpt>
<trkpt lat="49.64762876741588" lon="9.215278588235378">
<ele>167.4</ele>
<time>2024-05-09T13:12:17Z</time>
</trkpt>
<trkpt lat="49.64759825728834" lon="9.21531479805708">
<ele>167.4</ele>
<time>2024-05-09T13:12:18Z</time>
</trkpt>
<trkpt lat="49.64756389148533" lon="9.21535201370716">
<ele>167.4</ele>
<time>2024-05-09T13:12:19Z</time>
</trkpt>
<trkpt lat="49.64753338135779" lon="9.21539207920432">
<ele>167.4</ele>
<time>2024-05-09T13:12:20Z</time>
</trkpt>
<trkpt lat="49.647502871230245" lon="9.21543306671083">
<ele>167.4</ele>
<time>2024-05-09T13:12:21Z</time>
</trkpt>
<trkpt lat="49.6474723611027" lon="9.21547313220799">
<ele>167.4</ele>
<time>2024-05-09T13:12:22Z</time>
</trkpt>
<trkpt lat="49.64744185097515" lon="9.215516969561577">
<ele>167.2</ele>
<time>2024-05-09T13:12:23Z</time>
</trkpt>
<trkpt lat="49.64741134084761" lon="9.215561812743545">
<ele>167.2</ele>
<time>2024-05-09T13:12:24Z</time>
</trkpt>
<trkpt lat="49.647380746901035" lon="9.215608583763242">
<ele>167</ele>
<time>2024-05-09T13:12:25Z</time>
</trkpt>
<trkpt lat="49.64735409244895" lon="9.215653343126178">
<ele>166.8</ele>
<time>2024-05-09T13:12:26Z</time>
</trkpt>
<trkpt lat="49.64732735417783" lon="9.21568963676691">
<ele>166.6</ele>
<time>2024-05-09T13:12:27Z</time>
</trkpt>
<trkpt lat="49.64729684405029" lon="9.21572869643569">
<ele>166.6</ele>
<time>2024-05-09T13:12:28Z</time>
</trkpt>
<trkpt lat="49.6472701895982" lon="9.21576876193285">
<ele>166.6</ele>
<time>2024-05-09T13:12:29Z</time>
</trkpt>
<trkpt lat="49.647243451327085" lon="9.215811677277088">
<ele>166.4</ele>
<time>2024-05-09T13:12:30Z</time>
</trkpt>
<trkpt lat="49.647216796875" lon="9.215851742774248">
<ele>166.4</ele>
<time>2024-05-09T13:12:31Z</time>
</trkpt>
<trkpt lat="49.64719005860388" lon="9.215891808271408">
<ele>166.4</ele>
<time>2024-05-09T13:12:32Z</time>
</trkpt>
<trkpt lat="49.64715954847634" lon="9.21592994593084">
<ele>166.2</ele>
<time>2024-05-09T13:12:33Z</time>
</trkpt>
<trkpt lat="49.64713281020522" lon="9.21596523374319">
<ele>166.2</ele>
<time>2024-05-09T13:12:34Z</time>
</trkpt>
<trkpt lat="49.64710230007768" lon="9.215998593717812">
<ele>166.2</ele>
<time>2024-05-09T13:12:35Z</time>
</trkpt>
<trkpt lat="49.64707564562559" lon="9.2160234041512">
<ele>166.2</ele>
<time>2024-05-09T13:12:36Z</time>
</trkpt>
<trkpt lat="49.64704513549805" lon="9.216036731377244">
<ele>166.2</ele>
<time>2024-05-09T13:12:37Z</time>
</trkpt>
<trkpt lat="49.64701454155147" lon="9.216056764125824">
<ele>166</ele>
<time>2024-05-09T13:12:38Z</time>
</trkpt>
<trkpt lat="49.646987887099385" lon="9.216076796874404">
<ele>166</ele>
<time>2024-05-09T13:12:39Z</time>
</trkpt>
<trkpt lat="49.64696500450373" lon="9.216101607307792">
<ele>166</ele>
<time>2024-05-09T13:12:40Z</time>
</trkpt>
<trkpt lat="49.646945893764496" lon="9.21612641774118">
<ele>166</ele>
<time>2024-05-09T13:12:41Z</time>
</trkpt>
<trkpt lat="49.64693063870072" lon="9.21614452265203">
<ele>166</ele>
<time>2024-05-09T13:12:42Z</time>
</trkpt>
<trkpt lat="49.64691538363695" lon="9.21616455540061">
<ele>166</ele>
<time>2024-05-09T13:12:43Z</time>
</trkpt>
<trkpt lat="49.64690398424864" lon="9.216181738302112">
<ele>165.8</ele>
<time>2024-05-09T13:12:44Z</time>
</trkpt>
<trkpt lat="49.64690012857318" lon="9.216196993365884">
<ele>165.8</ele>
<time>2024-05-09T13:12:45Z</time>
</trkpt>
<trkpt lat="49.64689635671675" lon="9.216211242601275">
<ele>165.6</ele>
<time>2024-05-09T13:12:46Z</time>
</trkpt>
<trkpt lat="49.64690012857318" lon="9.216226497665048">
<ele>165.6</ele>
<time>2024-05-09T13:12:47Z</time>
</trkpt>
<trkpt lat="49.64690398424864" lon="9.21624368056655">
<ele>165.6</ele>
<time>2024-05-09T13:12:48Z</time>
</trkpt>
<trkpt lat="49.64690398424864" lon="9.216266563162208">
<ele>165.8</ele>
<time>2024-05-09T13:12:49Z</time>
</trkpt>
<trkpt lat="49.64690012857318" lon="9.216300006955862">
<ele>165.8</ele>
<time>2024-05-09T13:12:50Z</time>
</trkpt>
<trkpt lat="49.64689250104129" lon="9.216336216777565">
<ele>165.8</ele>
<time>2024-05-09T13:12:51Z</time>
</trkpt>
<trkpt lat="49.64688487350941" lon="9.216378210112453">
<ele>165.8</ele>
<time>2024-05-09T13:12:52Z</time>
</trkpt>
<trkpt lat="49.646873474121094" lon="9.21642204746604">
<ele>165.6</ele>
<time>2024-05-09T13:12:53Z</time>
</trkpt>
<trkpt lat="49.646865762770176" lon="9.216469740495086">
<ele>165.6</ele>
<time>2024-05-09T13:12:54Z</time>
</trkpt>
<trkpt lat="49.64685813523829" lon="9.21651835553348">
<ele>165.6</ele>
<time>2024-05-09T13:12:55Z</time>
</trkpt>
<trkpt lat="49.6468505077064" lon="9.216565126553178">
<ele>165.6</ele>
<time>2024-05-09T13:12:56Z</time>
</trkpt>
<trkpt lat="49.64684288017452" lon="9.216611813753843">
<ele>165.8</ele>
<time>2024-05-09T13:12:57Z</time>
</trkpt>
<trkpt lat="49.64683148078621" lon="9.216656656935813">
<ele>165.8</ele>
<time>2024-05-09T13:12:58Z</time>
</trkpt>
<trkpt lat="49.64682385325432" lon="9.21670150011778">
<ele>165.8</ele>
<time>2024-05-09T13:12:59Z</time>
</trkpt>
<trkpt lat="49.64681622572243" lon="9.216746259480717">
<ele>166</ele>
<time>2024-05-09T13:13:00Z</time>
</trkpt>
<trkpt lat="49.64680474251509" lon="9.216792024672031">
<ele>166</ele>
<time>2024-05-09T13:13:01Z</time>
</trkpt>
<trkpt lat="49.646793343126774" lon="9.21683787368238">
<ele>166</ele>
<time>2024-05-09T13:13:02Z</time>
</trkpt>
<trkpt lat="49.64678571559489" lon="9.216884560883043">
<ele>166</ele>
<time>2024-05-09T13:13:03Z</time>
</trkpt>
<trkpt lat="49.64677046053112" lon="9.216928482055664">
<ele>166</ele>
<time>2024-05-09T13:13:04Z</time>
</trkpt>
<trkpt lat="49.64675897732377" lon="9.2169732414186">
<ele>166</ele>
<time>2024-05-09T13:13:05Z</time>
</trkpt>
<trkpt lat="49.64674757793546" lon="9.217016156762838">
<ele>166</ele>
<time>2024-05-09T13:13:06Z</time>
</trkpt>
<trkpt lat="49.646732322871685" lon="9.217061921954157">
<ele>166</ele>
<time>2024-05-09T13:13:07Z</time>
</trkpt>
<trkpt lat="49.64672083966434" lon="9.217106765136124">
<ele>166</ele>
<time>2024-05-09T13:13:08Z</time>
</trkpt>
<trkpt lat="49.64670558460057" lon="9.21715160831809">
<ele>166</ele>
<time>2024-05-09T13:13:09Z</time>
</trkpt>
<trkpt lat="49.64669410139322" lon="9.217200223356484">
<ele>166</ele>
<time>2024-05-09T13:13:10Z</time>
</trkpt>
<trkpt lat="49.64668270200491" lon="9.217247916385531">
<ele>166.2</ele>
<time>2024-05-09T13:13:11Z</time>
</trkpt>
<trkpt lat="49.64666744694114" lon="9.217298459261656">
<ele>166.2</ele>
<time>2024-05-09T13:13:12Z</time>
</trkpt>
<trkpt lat="49.64665596373379" lon="9.217346152290702">
<ele>166.2</ele>
<time>2024-05-09T13:13:13Z</time>
</trkpt>
<trkpt lat="49.64664456434548" lon="9.217396695166826">
<ele>166.2</ele>
<time>2024-05-09T13:13:14Z</time>
</trkpt>
<trkpt lat="49.64663693681359" lon="9.2174481600523">
<ele>166.4</ele>
<time>2024-05-09T13:13:15Z</time>
</trkpt>
<trkpt lat="49.64662930928171" lon="9.217501636594534">
<ele>166.6</ele>
<time>2024-05-09T13:13:16Z</time>
</trkpt>
<trkpt lat="49.64662168174982" lon="9.217555029317737">
<ele>166.6</ele>
<time>2024-05-09T13:13:17Z</time>
</trkpt>
<trkpt lat="49.646614054217935" lon="9.21760649420321">
<ele>166.8</ele>
<time>2024-05-09T13:13:18Z</time>
</trkpt>
<trkpt lat="49.64660642668605" lon="9.217658042907717">
<ele>167.2</ele>
<time>2024-05-09T13:13:19Z</time>
</trkpt>
<trkpt lat="49.64659879915416" lon="9.217709507793188">
<ele>167.4</ele>
<time>2024-05-09T13:13:20Z</time>
</trkpt>
<trkpt lat="49.64658731594682" lon="9.217760050669312">
<ele>167.6</ele>
<time>2024-05-09T13:13:21Z</time>
</trkpt>
<trkpt lat="49.64657968841493" lon="9.217808665707707">
<ele>168</ele>
<time>2024-05-09T13:13:22Z</time>
</trkpt>
<trkpt lat="49.64656828902662" lon="9.217855436727405">
<ele>168.2</ele>
<time>2024-05-09T13:13:23Z</time>
</trkpt>
<trkpt lat="49.64656066149473" lon="9.21790312975645">
<ele>168.4</ele>
<time>2024-05-09T13:13:24Z</time>
</trkpt>
<trkpt lat="49.646553033962846" lon="9.217949816957116">
<ele>168.4</ele>
<time>2024-05-09T13:13:25Z</time>
</trkpt>
<trkpt lat="49.646553033962846" lon="9.217996587976812">
<ele>168.6</ele>
<time>2024-05-09T13:13:26Z</time>
</trkpt>
<trkpt lat="49.646553033962846" lon="9.218046125024555">
<ele>168.6</ele>
<time>2024-05-09T13:13:27Z</time>
</trkpt>
<trkpt lat="49.646553033962846" lon="9.218094823881984">
<ele>168.6</ele>
<time>2024-05-09T13:13:28Z</time>
</trkpt>
<trkpt lat="49.646553033962846" lon="9.218146288767455">
<ele>168.4</ele>
<time>2024-05-09T13:13:29Z</time>
</trkpt>
<trkpt lat="49.64655680581927" lon="9.21819683164358">
<ele>168.4</ele>
<time>2024-05-09T13:13:30Z</time>
</trkpt>
<trkpt lat="49.64655680581927" lon="9.218244524672627">
<ele>168.2</ele>
<time>2024-05-09T13:13:31Z</time>
</trkpt>
<trkpt lat="49.646553033962846" lon="9.218290289863944">
<ele>168.2</ele>
<time>2024-05-09T13:13:32Z</time>
</trkpt>
<trkpt lat="49.64654540643096" lon="9.218333205208182">
<ele>168</ele>
<time>2024-05-09T13:13:33Z</time>
</trkpt>
<trkpt lat="49.64653015136719" lon="9.21837804839015">
<ele>168</ele>
<time>2024-05-09T13:13:34Z</time>
</trkpt>
<trkpt lat="49.646514812484384" lon="9.218419957906008">
<ele>167.8</ele>
<time>2024-05-09T13:13:35Z</time>
</trkpt>
<trkpt lat="49.6464881580323" lon="9.218460023403168">
<ele>167.8</ele>
<time>2024-05-09T13:13:36Z</time>
</trkpt>
<trkpt lat="49.64646527543664" lon="9.218498161062598">
<ele>167.8</ele>
<time>2024-05-09T13:13:37Z</time>
</trkpt>
<trkpt lat="49.64644239284098" lon="9.218536298722029">
<ele>167.8</ele>
<time>2024-05-09T13:13:38Z</time>
</trkpt>
<trkpt lat="49.64641951024532" lon="9.21857158653438">
<ele>167.6</ele>
<time>2024-05-09T13:13:39Z</time>
</trkpt>
<trkpt lat="49.646396627649665" lon="9.218605030328035">
<ele>167.6</ele>
<time>2024-05-09T13:13:40Z</time>
</trkpt>
<trkpt lat="49.646377516910434" lon="9.218636462464929">
<ele>167.6</ele>
<time>2024-05-09T13:13:41Z</time>
</trkpt>
<trkpt lat="49.64636226184666" lon="9.218663200736046">
<ele>167.6</ele>
<time>2024-05-09T13:13:42Z</time>
</trkpt>
<trkpt lat="49.646339379251" lon="9.218696560710669">
<ele>167.6</ele>
<time>2024-05-09T13:13:43Z</time>
</trkpt>
<trkpt lat="49.64632026851177" lon="9.21873184852302">
<ele>167.6</ele>
<time>2024-05-09T13:13:44Z</time>
</trkpt>
<trkpt lat="49.64630886912346" lon="9.218765208497643">
<ele>167.6</ele>
<time>2024-05-09T13:13:45Z</time>
</trkpt>
<trkpt lat="49.64630124159157" lon="9.218799574300649">
<ele>167.6</ele>
<time>2024-05-09T13:13:46Z</time>
</trkpt>
<trkpt lat="49.646297385916114" lon="9.21883201226592">
<ele>167.4</ele>
<time>2024-05-09T13:13:47Z</time>
</trkpt>
<trkpt lat="49.64630124159157" lon="9.218859672546388">
<ele>167.4</ele>
<time>2024-05-09T13:13:48Z</time>
</trkpt>
<trkpt lat="49.646305013448" lon="9.218898732215166">
<ele>167.2</ele>
<time>2024-05-09T13:13:49Z</time>
</trkpt>
<trkpt lat="49.646312640979886" lon="9.218934942036867">
<ele>167</ele>
<time>2024-05-09T13:13:50Z</time>
</trkpt>
<trkpt lat="49.64632789604366" lon="9.218966457992792">
<ele>166.8</ele>
<time>2024-05-09T13:13:51Z</time>
</trkpt>
<trkpt lat="49.64634315110743" lon="9.219004595652224">
<ele>166.8</ele>
<time>2024-05-09T13:13:52Z</time>
</trkpt>
<trkpt lat="49.64636226184666" lon="9.219039883464577">
<ele>166.6</ele>
<time>2024-05-09T13:13:53Z</time>
</trkpt>
<trkpt lat="49.64638137258589" lon="9.219078021124004">
<ele>166.6</ele>
<time>2024-05-09T13:13:54Z</time>
</trkpt>
<trkpt lat="49.64640039950609" lon="9.21910853125155">
<ele>166.4</ele>
<time>2024-05-09T13:13:55Z</time>
</trkpt>
<trkpt lat="49.64642328210175" lon="9.219142897054551">
<ele>166.4</ele>
<time>2024-05-09T13:13:56Z</time>
</trkpt>
<trkpt lat="49.64644239284098" lon="9.219178184866903">
<ele>166.4</ele>
<time>2024-05-09T13:13:57Z</time>
</trkpt>
<trkpt lat="49.64646527543664" lon="9.219218250364063">
<ele>166.4</ele>
<time>2024-05-09T13:13:58Z</time>
</trkpt>
<trkpt lat="49.64648430235684" lon="9.219263009727">
<ele>166.6</ele>
<time>2024-05-09T13:13:59Z</time>
</trkpt>
<trkpt lat="49.64649955742061" lon="9.219296453520656">
<ele>166.8</ele>
<time>2024-05-09T13:14:00Z</time>
</trkpt>
<trkpt lat="49.6465071849525" lon="9.2193269636482">
<ele>167</ele>
<time>2024-05-09T13:14:01Z</time>
</trkpt>
<trkpt lat="49.6465071849525" lon="9.219354623928666">
<ele>167</ele>
<time>2024-05-09T13:14:02Z</time>
</trkpt>
<trkpt lat="49.64651104062795" lon="9.219387983903289">
<ele>167</ele>
<time>2024-05-09T13:14:03Z</time>
</trkpt>
<trkpt lat="49.64651866815984" lon="9.219418494030831">
<ele>167.2</ele>
<time>2024-05-09T13:14:04Z</time>
</trkpt>
<trkpt lat="49.64653015136719" lon="9.219449926167728">
<ele>167.2</ele>
<time>2024-05-09T13:14:05Z</time>
</trkpt>
<trkpt lat="49.64653015136719" lon="9.21948621980846">
<ele>167.4</ele>
<time>2024-05-09T13:14:06Z</time>
</trkpt>
<trkpt lat="49.64653015136719" lon="9.219521507620811">
<ele>167.4</ele>
<time>2024-05-09T13:14:07Z</time>
</trkpt>
<trkpt lat="49.64652629569173" lon="9.21955863945186">
<ele>167.6</ele>
<time>2024-05-09T13:14:08Z</time>
</trkpt>
<trkpt lat="49.646514812484384" lon="9.219594933092594">
<ele>167.8</ele>
<time>2024-05-09T13:14:09Z</time>
</trkpt>
<trkpt lat="49.6465071849525" lon="9.219630220904946">
<ele>167.8</ele>
<time>2024-05-09T13:14:10Z</time>
</trkpt>
<trkpt lat="49.646491929888725" lon="9.219663580879567">
<ele>168</ele>
<time>2024-05-09T13:14:11Z</time>
</trkpt>
<trkpt lat="49.646472902968526" lon="9.219703646376727">
<ele>168.2</ele>
<time>2024-05-09T13:14:12Z</time>
</trkpt>
<trkpt lat="49.646453792229295" lon="9.21974178403616">
<ele>168.2</ele>
<time>2024-05-09T13:14:13Z</time>
</trkpt>
<trkpt lat="49.64644239284098" lon="9.219775144010782">
<ele>168.4</ele>
<time>2024-05-09T13:14:14Z</time>
</trkpt>
<trkpt lat="49.64643090963364" lon="9.219808503985403">
<ele>168.4</ele>
<time>2024-05-09T13:14:15Z</time>
</trkpt>
<trkpt lat="49.646415654569864" lon="9.219836164265873">
<ele>168.6</ele>
<time>2024-05-09T13:14:16Z</time>
</trkpt>
<trkpt lat="49.64640802703798" lon="9.219866674393415">
<ele>168.6</ele>
<time>2024-05-09T13:14:17Z</time>
</trkpt>
<trkpt lat="49.646396627649665" lon="9.21989819034934">
<ele>168.6</ele>
<time>2024-05-09T13:14:18Z</time>
</trkpt>
<trkpt lat="49.64638137258589" lon="9.219936328008773">
<ele>168.8</ele>
<time>2024-05-09T13:14:19Z</time>
</trkpt>
<trkpt lat="49.64636226184666" lon="9.219976393505933">
<ele>168.8</ele>
<time>2024-05-09T13:14:20Z</time>
</trkpt>
<trkpt lat="49.64634700678289" lon="9.220013609156013">
<ele>169</ele>
<time>2024-05-09T13:14:21Z</time>
</trkpt>
<trkpt lat="49.646335523575544" lon="9.220045041292906">
<ele>169</ele>
<time>2024-05-09T13:14:22Z</time>
</trkpt>
<trkpt lat="49.64632026851177" lon="9.22007362358272">
<ele>169.2</ele>
<time>2024-05-09T13:14:23Z</time>
</trkpt>
<trkpt lat="49.646305013448" lon="9.220098434016109">
<ele>169.4</ele>
<time>2024-05-09T13:14:24Z</time>
</trkpt>
<trkpt lat="49.64628213085234" lon="9.220107067376375">
<ele>169.4</ele>
<time>2024-05-09T13:14:25Z</time>
</trkpt>
<trkpt lat="49.64625924825668" lon="9.220109917223454">
<ele>169.6</ele>
<time>2024-05-09T13:14:26Z</time>
</trkpt>
<trkpt lat="49.646236365661025" lon="9.220103211700916">
<ele>169.6</ele>
<time>2024-05-09T13:14:27Z</time>
</trkpt>
<trkpt lat="49.64621348306537" lon="9.220091812312605">
<ele>169.6</ele>
<time>2024-05-09T13:14:28Z</time>
</trkpt>
<trkpt lat="49.64619445614517" lon="9.220083178952336">
<ele>169.8</ele>
<time>2024-05-09T13:14:29Z</time>
</trkpt>
<trkpt lat="49.64617148973048" lon="9.22007655724883">
<ele>169.6</ele>
<time>2024-05-09T13:14:30Z</time>
</trkpt>
<trkpt lat="49.64615246281028" lon="9.220071779564025">
<ele>169.6</ele>
<time>2024-05-09T13:14:31Z</time>
</trkpt>
<trkpt lat="49.64613335207105" lon="9.22007362358272">
<ele>169.6</ele>
<time>2024-05-09T13:14:32Z</time>
</trkpt>
<trkpt lat="49.64611432515085" lon="9.220080329105258">
<ele>169.6</ele>
<time>2024-05-09T13:14:33Z</time>
</trkpt>
<trkpt lat="49.646095214411616" lon="9.22009466215968">
<ele>169.6</ele>
<time>2024-05-09T13:14:34Z</time>
</trkpt>
<trkpt lat="49.6460838150233" lon="9.220125172287226">
<ele>169.6</ele>
<time>2024-05-09T13:14:35Z</time>
</trkpt>
<trkpt lat="49.64607618749142" lon="9.22015660442412">
<ele>169.6</ele>
<time>2024-05-09T13:14:36Z</time>
</trkpt>
<trkpt lat="49.64606470428407" lon="9.220190048217772">
<ele>169.6</ele>
<time>2024-05-09T13:14:37Z</time>
</trkpt>
<trkpt lat="49.646057076752186" lon="9.220219552516935">
<ele>169.6</ele>
<time>2024-05-09T13:14:38Z</time>
</trkpt>
<trkpt lat="49.64604567736387" lon="9.220251990482211">
<ele>169.6</ele>
<time>2024-05-09T13:14:39Z</time>
</trkpt>
<trkpt lat="49.64603419415653" lon="9.220279650762675">
<ele>169.6</ele>
<time>2024-05-09T13:14:40Z</time>
</trkpt>
<trkpt lat="49.64602656662464" lon="9.2203130107373">
<ele>169.6</ele>
<time>2024-05-09T13:14:41Z</time>
</trkpt>
<trkpt lat="49.64601516723633" lon="9.220350226387382">
<ele>169.6</ele>
<time>2024-05-09T13:14:42Z</time>
</trkpt>
<trkpt lat="49.64600368402898" lon="9.220386436209084">
<ele>169.8</ele>
<time>2024-05-09T13:14:43Z</time>
</trkpt>
<trkpt lat="49.6459960564971" lon="9.220419880002735">
<ele>169.8</ele>
<time>2024-05-09T13:14:44Z</time>
</trkpt>
<trkpt lat="49.64598842896521" lon="9.220448462292552">
<ele>170</ele>
<time>2024-05-09T13:14:45Z</time>
</trkpt>
<trkpt lat="49.645980801433325" lon="9.220479894429443">
<ele>170.2</ele>
<time>2024-05-09T13:14:46Z</time>
</trkpt>
<trkpt lat="49.64597317390144" lon="9.2205133382231">
<ele>170.4</ele>
<time>2024-05-09T13:14:47Z</time>
</trkpt>
<trkpt lat="49.64596554636955" lon="9.220548626035452">
<ele>170.4</ele>
<time>2024-05-09T13:14:48Z</time>
</trkpt>
<trkpt lat="49.64595406316221" lon="9.220582908019423">
<ele>170.6</ele>
<time>2024-05-09T13:14:49Z</time>
</trkpt>
<trkpt lat="49.645942663773894" lon="9.220620123669503">
<ele>170.8</ele>
<time>2024-05-09T13:14:50Z</time>
</trkpt>
<trkpt lat="49.64593503624201" lon="9.220653483644128">
<ele>171</ele>
<time>2024-05-09T13:14:51Z</time>
</trkpt>
<trkpt lat="49.64592355303466" lon="9.220687849447131">
<ele>171</ele>
<time>2024-05-09T13:14:52Z</time>
</trkpt>
<trkpt lat="49.64591215364635" lon="9.22072498127818">
<ele>171.2</ele>
<time>2024-05-09T13:14:53Z</time>
</trkpt>
<trkpt lat="49.645904526114464" lon="9.220760269090531">
<ele>171.2</ele>
<time>2024-05-09T13:14:54Z</time>
</trkpt>
<trkpt lat="49.64589304290712" lon="9.220796562731266">
<ele>171.4</ele>
<time>2024-05-09T13:14:55Z</time>
</trkpt>
<trkpt lat="49.64588541537523" lon="9.220829922705889">
<ele>171.4</ele>
<time>2024-05-09T13:14:56Z</time>
</trkpt>
<trkpt lat="49.64587778784335" lon="9.22086521051824">
<ele>171.4</ele>
<time>2024-05-09T13:14:57Z</time>
</trkpt>
<trkpt lat="49.64586638845503" lon="9.220899576321244">
<ele>171.4</ele>
<time>2024-05-09T13:14:58Z</time>
</trkpt>
<trkpt lat="49.64585490524769" lon="9.220934864133596">
<ele>171.4</ele>
<time>2024-05-09T13:14:59Z</time>
</trkpt>
<trkpt lat="49.6458472777158" lon="9.220976773649454">
<ele>171.6</ele>
<time>2024-05-09T13:15:00Z</time>
</trkpt>
<trkpt lat="49.64583579450846" lon="9.221014911308885">
<ele>171.6</ele>
<time>2024-05-09T13:15:01Z</time>
</trkpt>
<trkpt lat="49.645824395120144" lon="9.221053048968315">
<ele>171.6</ele>
<time>2024-05-09T13:15:02Z</time>
</trkpt>
<trkpt lat="49.6458129119128" lon="9.221090264618397">
<ele>171.6</ele>
<time>2024-05-09T13:15:03Z</time>
</trkpt>
<trkpt lat="49.64580528438091" lon="9.221131252124906">
<ele>171.6</ele>
<time>2024-05-09T13:15:04Z</time>
</trkpt>
<trkpt lat="49.6457938849926" lon="9.221170395612717">
<ele>171.6</ele>
<time>2024-05-09T13:15:05Z</time>
</trkpt>
<trkpt lat="49.645782401785254" lon="9.221206605434418">
<ele>171.6</ele>
<time>2024-05-09T13:15:06Z</time>
</trkpt>
<trkpt lat="49.64577100239694" lon="9.22124289907515">
<ele>171.6</ele>
<time>2024-05-09T13:15:07Z</time>
</trkpt>
<trkpt lat="49.6457595191896" lon="9.2212800309062">
<ele>171.4</ele>
<time>2024-05-09T13:15:08Z</time>
</trkpt>
<trkpt lat="49.645744264125824" lon="9.221309619024396">
<ele>171.4</ele>
<time>2024-05-09T13:15:09Z</time>
</trkpt>
<trkpt lat="49.64572900906205" lon="9.221336357295511">
<ele>171.4</ele>
<time>2024-05-09T13:15:10Z</time>
</trkpt>
<trkpt lat="49.64571375399828" lon="9.221366867423058">
<ele>171.4</ele>
<time>2024-05-09T13:15:11Z</time>
</trkpt>
<trkpt lat="49.645702354609966" lon="9.221393521875145">
<ele>171.4</ele>
<time>2024-05-09T13:15:12Z</time>
</trkpt>
<trkpt lat="49.64569087140262" lon="9.22142026014626">
<ele>171.4</ele>
<time>2024-05-09T13:15:13Z</time>
</trkpt>
<trkpt lat="49.645683243870735" lon="9.22144029289484">
<ele>171.4</ele>
<time>2024-05-09T13:15:14Z</time>
</trkpt>
<trkpt lat="49.64567947201431" lon="9.221454542130232">
<ele>171.4</ele>
<time>2024-05-09T13:15:15Z</time>
</trkpt>
<trkpt lat="49.64566798880696" lon="9.221473652869465">
<ele>171.4</ele>
<time>2024-05-09T13:15:16Z</time>
</trkpt>
<trkpt lat="49.64566036127508" lon="9.221491757780312">
<ele>171.4</ele>
<time>2024-05-09T13:15:17Z</time>
</trkpt>
<trkpt lat="49.64566036127508" lon="9.2215165682137">
<ele>171.4</ele>
<time>2024-05-09T13:15:18Z</time>
</trkpt>
<trkpt lat="49.64567184448242" lon="9.221527045592666">
<ele>171.4</ele>
<time>2024-05-09T13:15:19Z</time>
</trkpt>
<trkpt lat="49.64567184448242" lon="9.221523273736238">
<ele>171.4</ele>
<time>2024-05-09T13:15:20Z</time>
</trkpt>
<trkpt lat="49.64567947201431" lon="9.221511790528892">
<ele>171.4</ele>
<time>2024-05-09T13:15:21Z</time>
</trkpt>
<trkpt lat="49.645687099546194" lon="9.221493685618045">
<ele>171.4</ele>
<time>2024-05-09T13:15:22Z</time>
</trkpt>
<trkpt lat="49.645687099546194" lon="9.221467953175306">
<ele>171.4</ele>
<time>2024-05-09T13:15:23Z</time>
</trkpt>
<trkpt lat="49.64569849893451" lon="9.22144314274192">
<ele>171.4</ele>
<time>2024-05-09T13:15:24Z</time>
</trkpt>
<trkpt lat="49.64570612646639" lon="9.22142026014626">
<ele>171.4</ele>
<time>2024-05-09T13:15:25Z</time>
</trkpt>
<trkpt lat="49.64571375399828" lon="9.22139637172222">
<ele>171.4</ele>
<time>2024-05-09T13:15:26Z</time>
</trkpt>
<trkpt lat="49.645725237205625" lon="9.221369717270136">
<ele>171.2</ele>
<time>2024-05-09T13:15:27Z</time>
</trkpt>
<trkpt lat="49.64573286473751" lon="9.221344906836748">
<ele>171</ele>
<time>2024-05-09T13:15:28Z</time>
</trkpt>
<trkpt lat="49.64573663659394" lon="9.221318168565633">
<ele>171</ele>
<time>2024-05-09T13:15:29Z</time>
</trkpt>
<trkpt lat="49.6457404922694" lon="9.221289586275816">
<ele>170.8</ele>
<time>2024-05-09T13:15:30Z</time>
</trkpt>
<trkpt lat="49.645744264125824" lon="9.221249520778656">
<ele>170.6</ele>
<time>2024-05-09T13:15:31Z</time>
</trkpt>
<trkpt lat="49.64573663659394" lon="9.221210461109877">
<ele>170.6</ele>
<time>2024-05-09T13:15:32Z</time>
</trkpt>
<trkpt lat="49.645721381530166" lon="9.221173245459797">
<ele>170.4</ele>
<time>2024-05-09T13:15:33Z</time>
</trkpt>
<trkpt lat="49.64569849893451" lon="9.221137957647445">
<ele>170.4</ele>
<time>2024-05-09T13:15:34Z</time>
</trkpt>
<trkpt lat="49.64567947201431" lon="9.22110459767282">
<ele>170.4</ele>
<time>2024-05-09T13:15:35Z</time>
</trkpt>
<trkpt lat="49.64566036127508" lon="9.221073081716897">
<ele>170.2</ele>
<time>2024-05-09T13:15:36Z</time>
</trkpt>
<trkpt lat="49.645645106211305" lon="9.22104449942708">
<ele>170.4</ele>
<time>2024-05-09T13:15:37Z</time>
</trkpt>
<trkpt lat="49.645625995472074" lon="9.221013067290189">
<ele>170.4</ele>
<time>2024-05-09T13:15:38Z</time>
</trkpt>
<trkpt lat="49.645606968551874" lon="9.220993034541609">
<ele>170.6</ele>
<time>2024-05-09T13:15:39Z</time>
</trkpt>
<trkpt lat="49.64558785781264" lon="9.220983479171991">
<ele>170.8</ele>
<time>2024-05-09T13:15:40Z</time>
</trkpt>
<trkpt lat="49.64557260274887" lon="9.220973001793029">
<ele>170.8</ele>
<time>2024-05-09T13:15:41Z</time>
</trkpt>
<trkpt lat="49.645545948296785" lon="9.220952969044449">
<ele>171</ele>
<time>2024-05-09T13:15:42Z</time>
</trkpt>
<trkpt lat="49.64552306570113" lon="9.220930086448789">
<ele>171</ele>
<time>2024-05-09T13:15:43Z</time>
</trkpt>
<trkpt lat="49.64550018310547" lon="9.22090619802475">
<ele>171.2</ele>
<time>2024-05-09T13:15:44Z</time>
</trkpt>
<trkpt lat="49.645484844222665" lon="9.2208880931139">
<ele>171.6</ele>
<time>2024-05-09T13:15:45Z</time>
</trkpt>
<trkpt lat="49.64546958915889" lon="9.220869988203049">
<ele>171.8</ele>
<time>2024-05-09T13:15:46Z</time>
</trkpt>
<trkpt lat="49.64545056223869" lon="9.22084710560739">
<ele>172.2</ele>
<time>2024-05-09T13:15:47Z</time>
</trkpt>
<trkpt lat="49.64544293470681" lon="9.220829922705889">
<ele>172.6</ele>
<time>2024-05-09T13:15:48Z</time>
</trkpt>
<trkpt lat="49.64543530717492" lon="9.220809889957309">
<ele>172.8</ele>
<time>2024-05-09T13:15:49Z</time>
</trkpt>
<trkpt lat="49.645427679643035" lon="9.220783151686192">
<ele>173.2</ele>
<time>2024-05-09T13:15:50Z</time>
</trkpt>
<trkpt lat="49.64542005211115" lon="9.220754569396377">
<ele>173.6</ele>
<time>2024-05-09T13:15:51Z</time>
</trkpt>
<trkpt lat="49.64541619643569" lon="9.22072498127818">
<ele>173.8</ele>
<time>2024-05-09T13:15:52Z</time>
</trkpt>
<trkpt lat="49.64541242457926" lon="9.220698326826096">
<ele>174.2</ele>
<time>2024-05-09T13:15:53Z</time>
</trkpt>
<trkpt lat="49.64541242457926" lon="9.22066681087017">
<ele>174.4</ele>
<time>2024-05-09T13:15:54Z</time>
</trkpt>
<trkpt lat="49.64541242457926" lon="9.220635378733276">
<ele>174.8</ele>
<time>2024-05-09T13:15:55Z</time>
</trkpt>
<trkpt lat="49.64541242457926" lon="9.220606796443462">
<ele>175.2</ele>
<time>2024-05-09T13:15:56Z</time>
</trkpt>
<trkpt lat="49.64541619643569" lon="9.220580058172343">
<ele>175.4</ele>
<time>2024-05-09T13:15:57Z</time>
</trkpt>
<trkpt lat="49.64541619643569" lon="9.220560025423763">
<ele>175.6</ele>
<time>2024-05-09T13:15:58Z</time>
</trkpt>
<trkpt lat="49.64542005211115" lon="9.220528593286872">
<ele>175.6</ele>
<time>2024-05-09T13:15:59Z</time>
</trkpt>
<trkpt lat="49.64542005211115" lon="9.22049330547452">
<ele>175.8</ele>
<time>2024-05-09T13:16:00Z</time>
</trkpt>
<trkpt lat="49.645423823967576" lon="9.22045323997736">
<ele>176</ele>
<time>2024-05-09T13:16:01Z</time>
</trkpt>
<trkpt lat="49.645423823967576" lon="9.220417952165008">
<ele>176</ele>
<time>2024-05-09T13:16:02Z</time>
</trkpt>
<trkpt lat="49.645427679643035" lon="9.220386436209084">
<ele>176</ele>
<time>2024-05-09T13:16:03Z</time>
</trkpt>
<trkpt lat="49.64543145149946" lon="9.220348298549652">
<ele>176.2</ele>
<time>2024-05-09T13:16:04Z</time>
</trkpt>
<trkpt lat="49.64544293470681" lon="9.220310160890222">
<ele>176.2</ele>
<time>2024-05-09T13:16:05Z</time>
</trkpt>
<trkpt lat="49.64545056223869" lon="9.220278728753328">
<ele>176.4</ele>
<time>2024-05-09T13:16:06Z</time>
</trkpt>
<trkpt lat="49.64545433409512" lon="9.220248218625784">
<ele>176.4</ele>
<time>2024-05-09T13:16:07Z</time>
</trkpt>
<trkpt lat="49.64545818977058" lon="9.220219552516935">
<ele>176.4</ele>
<time>2024-05-09T13:16:08Z</time>
</trkpt>
<trkpt lat="49.64546196162701" lon="9.22019666992128">
<ele>176.4</ele>
<time>2024-05-09T13:16:09Z</time>
</trkpt>
<trkpt lat="49.64546958915889" lon="9.220171859487891">
<ele>176.4</ele>
<time>2024-05-09T13:16:10Z</time>
</trkpt>
<trkpt lat="49.64547344483435" lon="9.220148054882884">
<ele>176.4</ele>
<time>2024-05-09T13:16:11Z</time>
</trkpt>
<trkpt lat="49.64546958915889" lon="9.220129949972034">
<ele>176.2</ele>
<time>2024-05-09T13:16:12Z</time>
</trkpt>
<trkpt lat="49.64546196162701" lon="9.220118466764688">
<ele>176.2</ele>
<time>2024-05-09T13:16:13Z</time>
</trkpt>
<trkpt lat="49.645465817302465" lon="9.220111845061185">
<ele>176.2</ele>
<time>2024-05-09T13:16:14Z</time>
</trkpt>
<trkpt lat="49.645465817302465" lon="9.220109917223454">
<ele>176.2</ele>
<time>2024-05-09T13:16:16Z</time>
</trkpt>
<trkpt lat="49.64546196162701" lon="9.220111845061185">
<ele>176</ele>
<time>2024-05-09T13:16:17Z</time>
</trkpt>
<trkpt lat="49.64545818977058" lon="9.220111845061185">
<ele>176</ele>
<time>2024-05-09T13:16:19Z</time>
</trkpt>
<trkpt lat="49.64545818977058" lon="9.22011469490826">
<ele>175.8</ele>
<time>2024-05-09T13:16:21Z</time>
</trkpt>
<trkpt lat="49.64545818977058" lon="9.220118466764688">
<ele>175.6</ele>
<time>2024-05-09T13:16:22Z</time>
</trkpt>
<trkpt lat="49.64545818977058" lon="9.220120394602418">
<ele>175.4</ele>
<time>2024-05-09T13:16:23Z</time>
</trkpt>
<trkpt lat="49.64545818977058" lon="9.220121316611769">
<ele>175.2</ele>
<time>2024-05-09T13:16:24Z</time>
</trkpt>
<trkpt lat="49.645465817302465" lon="9.220120394602418">
<ele>175</ele>
<time>2024-05-09T13:16:25Z</time>
</trkpt>
<trkpt lat="49.64546958915889" lon="9.220118466764688">
<ele>175</ele>
<time>2024-05-09T13:16:26Z</time>
</trkpt>
<trkpt lat="49.64547344483435" lon="9.220118466764688">
<ele>175</ele>
<time>2024-05-09T13:16:27Z</time>
</trkpt>
<trkpt lat="49.64547344483435" lon="9.220120394602418">
<ele>174.8</ele>
<time>2024-05-09T13:16:30Z</time>
</trkpt>
<trkpt lat="49.64547721669078" lon="9.220120394602418">
<ele>174.8</ele>
<time>2024-05-09T13:16:34Z</time>
</trkpt>
<trkpt lat="49.64547721669078" lon="9.22011469490826">
<ele>174.6</ele>
<time>2024-05-09T13:16:35Z</time>
</trkpt>
<trkpt lat="49.64548107236624" lon="9.22011368907988">
<ele>174.6</ele>
<time>2024-05-09T13:16:37Z</time>
</trkpt>
<trkpt lat="49.64548107236624" lon="9.220111845061185">
<ele>174.4</ele>
<time>2024-05-09T13:16:38Z</time>
</trkpt>
<trkpt lat="49.64548107236624" lon="9.22011368907988">
<ele>174.4</ele>
<time>2024-05-09T13:16:40Z</time>
</trkpt>
<trkpt lat="49.64548107236624" lon="9.22011469490826">
<ele>174.2</ele>
<time>2024-05-09T13:16:43Z</time>
</trkpt>
<trkpt lat="49.645484844222665" lon="9.22011469490826">
<ele>174.2</ele>
<time>2024-05-09T13:16:44Z</time>
</trkpt>
<trkpt lat="49.645484844222665" lon="9.22011653892696">
<ele>174</ele>
<time>2024-05-09T13:16:45Z</time>
</trkpt>
<trkpt lat="49.64548869989813" lon="9.220118466764688">
<ele>173.8</ele>
<time>2024-05-09T13:16:47Z</time>
</trkpt>
<trkpt lat="49.64549247175455" lon="9.220120394602418">
<ele>173.8</ele>
<time>2024-05-09T13:16:48Z</time>
</trkpt>
<trkpt lat="49.64549632743001" lon="9.220121316611769">
<ele>173.8</ele>
<time>2024-05-09T13:16:49Z</time>
</trkpt>
<trkpt lat="49.64550018310547" lon="9.220125172287226">
<ele>173.6</ele>
<time>2024-05-09T13:16:50Z</time>
</trkpt>
<trkpt lat="49.64550018310547" lon="9.220127100124955">
<ele>173.6</ele>
<time>2024-05-09T13:16:51Z</time>
</trkpt>
<trkpt lat="49.645503954961896" lon="9.220128022134304">
<ele>173.6</ele>
<time>2024-05-09T13:16:52Z</time>
</trkpt>
<trkpt lat="49.645507810637355" lon="9.220129949972034">
<ele>173.4</ele>
<time>2024-05-09T13:16:53Z</time>
</trkpt>
<trkpt lat="49.64551158249378" lon="9.22013372182846">
<ele>173.4</ele>
<time>2024-05-09T13:16:55Z</time>
</trkpt>
<trkpt lat="49.64551158249378" lon="9.22013472765684">
<ele>173.4</ele>
<time>2024-05-09T13:16:56Z</time>
</trkpt>
<trkpt lat="49.64551543816924" lon="9.22013657167554">
<ele>173.4</ele>
<time>2024-05-09T13:16:57Z</time>
</trkpt>
<trkpt lat="49.64551543816924" lon="9.220138499513268">
<ele>173.4</ele>
<time>2024-05-09T13:16:58Z</time>
</trkpt>
<trkpt lat="49.64551543816924" lon="9.220140427350998">
<ele>173.4</ele>
<time>2024-05-09T13:16:59Z</time>
</trkpt>
<trkpt lat="49.64551921002567" lon="9.220141349360349">
<ele>173.4</ele>
<time>2024-05-09T13:17:00Z</time>
</trkpt>
<trkpt lat="49.64552306570113" lon="9.220143277198076">
<ele>173.4</ele>
<time>2024-05-09T13:17:01Z</time>
</trkpt>
<trkpt lat="49.645526837557554" lon="9.220147132873535">
<ele>173.4</ele>
<time>2024-05-09T13:17:03Z</time>
</trkpt>
<trkpt lat="49.64553069323301" lon="9.220149982720612">
<ele>173.2</ele>
<time>2024-05-09T13:17:04Z</time>
</trkpt>
<trkpt lat="49.64553446508944" lon="9.22015375457704">
<ele>173.2</ele>
<time>2024-05-09T13:17:05Z</time>
</trkpt>
<trkpt lat="49.64553069323301" lon="9.22015375457704">
<ele>173</ele>
<time>2024-05-09T13:17:06Z</time>
</trkpt>
<trkpt lat="49.64553446508944" lon="9.22015660442412">
<ele>173</ele>
<time>2024-05-09T13:17:07Z</time>
</trkpt>
<trkpt lat="49.6455383207649" lon="9.22015660442412">
<ele>172.8</ele>
<time>2024-05-09T13:17:08Z</time>
</trkpt>
<trkpt lat="49.6455383207649" lon="9.220158532261848">
<ele>172.8</ele>
<time>2024-05-09T13:17:09Z</time>
</trkpt>
<trkpt lat="49.6455383207649" lon="9.220161382108929">
<ele>172.6</ele>
<time>2024-05-09T13:17:10Z</time>
</trkpt>
<trkpt lat="49.645545948296785" lon="9.220165237784386">
<ele>172.6</ele>
<time>2024-05-09T13:17:11Z</time>
</trkpt>
<trkpt lat="49.64554972015321" lon="9.220170015469192">
<ele>172.6</ele>
<time>2024-05-09T13:17:12Z</time>
</trkpt>
<trkpt lat="49.64555357582867" lon="9.220172865316272">
<ele>172.6</ele>
<time>2024-05-09T13:17:13Z</time>
</trkpt>
<trkpt lat="49.6455573476851" lon="9.22017470933497">
<ele>172.4</ele>
<time>2024-05-09T13:17:14Z</time>
</trkpt>
<trkpt lat="49.645545948296785" lon="9.220171859487891">
<ele>172.4</ele>
<time>2024-05-09T13:17:15Z</time>
</trkpt>
<trkpt lat="49.645542092621326" lon="9.220171859487891">
<ele>172.4</ele>
<time>2024-05-09T13:17:17Z</time>
</trkpt>
<trkpt lat="49.6455383207649" lon="9.220171859487891">
<ele>172.4</ele>
<time>2024-05-09T13:17:18Z</time>
</trkpt>
<trkpt lat="49.6455383207649" lon="9.220172865316272">
<ele>172.4</ele>
<time>2024-05-09T13:17:21Z</time>
</trkpt>
<trkpt lat="49.645542092621326" lon="9.22017470933497">
<ele>172.4</ele>
<time>2024-05-09T13:17:22Z</time>
</trkpt>
<trkpt lat="49.645545948296785" lon="9.220178565010428">
<ele>172.4</ele>
<time>2024-05-09T13:17:23Z</time>
</trkpt>
<trkpt lat="49.64554972015321" lon="9.220179487019776">
<ele>172.4</ele>
<time>2024-05-09T13:17:24Z</time>
</trkpt>
<trkpt lat="49.64554972015321" lon="9.220181414857509">
<ele>172.4</ele>
<time>2024-05-09T13:17:25Z</time>
</trkpt>
<trkpt lat="49.64555357582867" lon="9.220183342695236">
<ele>172.4</ele>
<time>2024-05-09T13:17:26Z</time>
</trkpt>
<trkpt lat="49.6455573476851" lon="9.220185270532966">
<ele>172.4</ele>
<time>2024-05-09T13:17:27Z</time>
</trkpt>
<trkpt lat="49.6455573476851" lon="9.220188120380044">
<ele>172.4</ele>
<time>2024-05-09T13:17:28Z</time>
</trkpt>
<trkpt lat="49.64556120336056" lon="9.220190048217772">
<ele>172.4</ele>
<time>2024-05-09T13:17:29Z</time>
</trkpt>
<trkpt lat="49.645564975216985" lon="9.220192898064852">
<ele>172.4</ele>
<time>2024-05-09T13:17:30Z</time>
</trkpt>
<trkpt lat="49.64556883089245" lon="9.22019666992128">
<ele>172.4</ele>
<time>2024-05-09T13:17:31Z</time>
</trkpt>
<trkpt lat="49.645564975216985" lon="9.22019666992128">
<ele>172.4</ele>
<time>2024-05-09T13:17:32Z</time>
</trkpt>
<trkpt lat="49.645564975216985" lon="9.220198597759008">
<ele>172.4</ele>
<time>2024-05-09T13:17:33Z</time>
</trkpt>
<trkpt lat="49.64556883089245" lon="9.220201447606089">
<ele>172.4</ele>
<time>2024-05-09T13:17:34Z</time>
</trkpt>
<trkpt lat="49.645564975216985" lon="9.220201447606089">
<ele>172.4</ele>
<time>2024-05-09T13:17:35Z</time>
</trkpt>
<trkpt lat="49.645564975216985" lon="9.220203375443816">
<ele>172.6</ele>
<time>2024-05-09T13:17:37Z</time>
</trkpt>
<trkpt lat="49.645564975216985" lon="9.220205303281546">
<ele>172.6</ele>
<time>2024-05-09T13:17:40Z</time>
</trkpt>
<trkpt lat="49.645564975216985" lon="9.220206225290896">
<ele>172.8</ele>
<time>2024-05-09T13:17:41Z</time>
</trkpt>
<trkpt lat="49.645564975216985" lon="9.220209997147322">
<ele>172.8</ele>
<time>2024-05-09T13:17:43Z</time>
</trkpt>
<trkpt lat="49.64556883089245" lon="9.220211924985051">
<ele>173</ele>
<time>2024-05-09T13:17:44Z</time>
</trkpt>
<trkpt lat="49.64557260274887" lon="9.220212930813432">
<ele>173</ele>
<time>2024-05-09T13:17:45Z</time>
</trkpt>
<trkpt lat="49.64558023028076" lon="9.220218630507588">
<ele>173</ele>
<time>2024-05-09T13:17:46Z</time>
</trkpt>
<trkpt lat="49.6455917134881" lon="9.220225252211094">
<ele>173.2</ele>
<time>2024-05-09T13:17:47Z</time>
</trkpt>
<trkpt lat="49.64559934101999" lon="9.220228185877204">
<ele>173.2</ele>
<time>2024-05-09T13:17:48Z</time>
</trkpt>
<trkpt lat="49.64559548534453" lon="9.220228185877204">
<ele>173.2</ele>
<time>2024-05-09T13:17:49Z</time>
</trkpt>
<trkpt lat="49.6455917134881" lon="9.220226258039474">
<ele>173.2</ele>
<time>2024-05-09T13:17:50Z</time>
</trkpt>
<trkpt lat="49.64559934101999" lon="9.220230029895902">
<ele>173.2</ele>
<time>2024-05-09T13:17:51Z</time>
</trkpt>
<trkpt lat="49.6455917134881" lon="9.220226258039474">
<ele>173.2</ele>
<time>2024-05-09T13:17:52Z</time>
</trkpt>
<trkpt lat="49.64559934101999" lon="9.220231957733631">
<ele>173.2</ele>
<time>2024-05-09T13:17:53Z</time>
</trkpt>
<trkpt lat="49.64558023028076" lon="9.220221480354668">
<ele>173.2</ele>
<time>2024-05-09T13:17:54Z</time>
</trkpt>
<trkpt lat="49.6455917134881" lon="9.220226258039474">
<ele>173.2</ele>
<time>2024-05-09T13:17:55Z</time>
</trkpt>
<trkpt lat="49.645584085956216" lon="9.220219552516935">
<ele>173.2</ele>
<time>2024-05-09T13:17:56Z</time>
</trkpt>
<trkpt lat="49.64556120336056" lon="9.22021477483213">
<ele>173.2</ele>
<time>2024-05-09T13:17:57Z</time>
</trkpt>
<trkpt lat="49.64556883089245" lon="9.220218630507588">
<ele>173.2</ele>
<time>2024-05-09T13:17:58Z</time>
</trkpt>
<trkpt lat="49.645526837557554" lon="9.220186192542316">
<ele>173.2</ele>
<time>2024-05-09T13:17:59Z</time>
</trkpt>
<trkpt lat="49.64553446508944" lon="9.220190048217772">
<ele>173</ele>
<time>2024-05-09T13:18:00Z</time>
</trkpt>
<trkpt lat="49.64551543816924" lon="9.22017470933497">
<ele>173</ele>
<time>2024-05-09T13:18:01Z</time>
</trkpt>
<trkpt lat="49.64549632743001" lon="9.22015660442412">
<ele>172.8</ele>
<time>2024-05-09T13:18:02Z</time>
</trkpt>
<trkpt lat="49.64550018310547" lon="9.220158532261848">
<ele>172.8</ele>
<time>2024-05-09T13:18:03Z</time>
</trkpt>
<trkpt lat="49.645503954961896" lon="9.220159454271196">
<ele>172.8</ele>
<time>2024-05-09T13:18:04Z</time>
</trkpt>
<trkpt lat="49.64551158249378" lon="9.220165237784386">
<ele>172.6</ele>
<time>2024-05-09T13:18:05Z</time>
</trkpt>
<trkpt lat="49.64551543816924" lon="9.220166159793736">
<ele>172.6</ele>
<time>2024-05-09T13:18:06Z</time>
</trkpt>
<trkpt lat="49.64551921002567" lon="9.220168087631464">
<ele>172.6</ele>
<time>2024-05-09T13:18:07Z</time>
</trkpt>
<trkpt lat="49.64552306570113" lon="9.22017470933497">
<ele>172.4</ele>
<time>2024-05-09T13:18:08Z</time>
</trkpt>
<trkpt lat="49.64551543816924" lon="9.220168087631464">
<ele>172.4</ele>
<time>2024-05-09T13:18:09Z</time>
</trkpt>
<trkpt lat="49.64552306570113" lon="9.220172865316272">
<ele>172.4</ele>
<time>2024-05-09T13:18:10Z</time>
</trkpt>
<trkpt lat="49.64553446508944" lon="9.220172865316272">
<ele>172.4</ele>
<time>2024-05-09T13:18:11Z</time>
</trkpt>
<trkpt lat="49.645545948296785" lon="9.220171859487891">
<ele>172.4</ele>
<time>2024-05-09T13:18:12Z</time>
</trkpt>
<trkpt lat="49.64555357582867" lon="9.2201766371727">
<ele>172.4</ele>
<time>2024-05-09T13:18:13Z</time>
</trkpt>
<trkpt lat="49.645564975216985" lon="9.220181414857509">
<ele>172.4</ele>
<time>2024-05-09T13:18:14Z</time>
</trkpt>
<trkpt lat="49.64557260274887" lon="9.220186192542316">
<ele>172.4</ele>
<time>2024-05-09T13:18:15Z</time>
</trkpt>
<trkpt lat="49.64558023028076" lon="9.220191892236471">
<ele>172.6</ele>
<time>2024-05-09T13:18:16Z</time>
</trkpt>
<trkpt lat="49.64557645842433" lon="9.220190048217772">
<ele>172.6</ele>
<time>2024-05-09T13:18:17Z</time>
</trkpt>
<trkpt lat="49.64557645842433" lon="9.220191892236471">
<ele>172.6</ele>
<time>2024-05-09T13:18:20Z</time>
</trkpt>
<trkpt lat="49.64557260274887" lon="9.220190048217772">
<ele>172.6</ele>
<time>2024-05-09T13:18:21Z</time>
</trkpt>
<trkpt lat="49.64557645842433" lon="9.220190048217772">
<ele>172.6</ele>
<time>2024-05-09T13:18:22Z</time>
</trkpt>
<trkpt lat="49.64558023028076" lon="9.220192898064852">
<ele>172.6</ele>
<time>2024-05-09T13:18:23Z</time>
</trkpt>
<trkpt lat="49.645584085956216" lon="9.220198597759008">
<ele>172.6</ele>
<time>2024-05-09T13:18:24Z</time>
</trkpt>
<trkpt lat="49.64559548534453" lon="9.220206225290896">
<ele>172.8</ele>
<time>2024-05-09T13:18:25Z</time>
</trkpt>
<trkpt lat="49.645603112876415" lon="9.22021477483213">
<ele>172.8</ele>
<time>2024-05-09T13:18:26Z</time>
</trkpt>
<trkpt lat="49.6456107404083" lon="9.220219552516935">
<ele>172.6</ele>
<time>2024-05-09T13:18:27Z</time>
</trkpt>
<trkpt lat="49.64559934101999" lon="9.22021670266986">
<ele>172.6</ele>
<time>2024-05-09T13:18:28Z</time>
</trkpt>
<trkpt lat="49.64559934101999" lon="9.220218630507588">
<ele>172.6</ele>
<time>2024-05-09T13:18:29Z</time>
</trkpt>
<trkpt lat="49.64559548534453" lon="9.220218630507588">
<ele>172.6</ele>
<time>2024-05-09T13:18:30Z</time>
</trkpt>
<trkpt lat="49.64559934101999" lon="9.220219552516935">
<ele>172.6</ele>
<time>2024-05-09T13:18:31Z</time>
</trkpt>
<trkpt lat="49.645603112876415" lon="9.220223408192396">
<ele>172.6</ele>
<time>2024-05-09T13:18:33Z</time>
</trkpt>
<trkpt lat="49.645603112876415" lon="9.220226258039474">
<ele>172.6</ele>
<time>2024-05-09T13:18:34Z</time>
</trkpt>
<trkpt lat="49.645606968551874" lon="9.220228185877204">
<ele>172.6</ele>
<time>2024-05-09T13:18:35Z</time>
</trkpt>
<trkpt lat="49.64561459608376" lon="9.220232963562012">
<ele>172.8</ele>
<time>2024-05-09T13:18:36Z</time>
</trkpt>
<trkpt lat="49.64561836794019" lon="9.22023673541844">
<ele>172.8</ele>
<time>2024-05-09T13:18:37Z</time>
</trkpt>
<trkpt lat="49.645625995472074" lon="9.220241513103248">
<ele>172.8</ele>
<time>2024-05-09T13:18:38Z</time>
</trkpt>
<trkpt lat="49.64562985114753" lon="9.220246290788054">
<ele>173</ele>
<time>2024-05-09T13:18:39Z</time>
</trkpt>
<trkpt lat="49.645641250535846" lon="9.220251990482211">
<ele>173</ele>
<time>2024-05-09T13:18:40Z</time>
</trkpt>
<trkpt lat="49.645645106211305" lon="9.22025484032929">
<ele>173</ele>
<time>2024-05-09T13:18:41Z</time>
</trkpt>
<trkpt lat="49.64565273374319" lon="9.220258696004748">
<ele>173</ele>
<time>2024-05-09T13:18:42Z</time>
</trkpt>
<trkpt lat="49.64566036127508" lon="9.220261545851828">
<ele>173.2</ele>
<time>2024-05-09T13:18:43Z</time>
</trkpt>
<trkpt lat="49.64566798880696" lon="9.220266323536634">
<ele>173.2</ele>
<time>2024-05-09T13:18:44Z</time>
</trkpt>
<trkpt lat="49.645645106211305" lon="9.22025291249156">
<ele>173.2</ele>
<time>2024-05-09T13:18:45Z</time>
</trkpt>
<trkpt lat="49.64564887806773" lon="9.22025676816702">
<ele>173.2</ele>
<time>2024-05-09T13:18:46Z</time>
</trkpt>
<trkpt lat="49.64563747867942" lon="9.220251990482211">
<ele>173.2</ele>
<time>2024-05-09T13:18:47Z</time>
</trkpt>
<trkpt lat="49.64562985114753" lon="9.220246290788054">
<ele>173.2</ele>
<time>2024-05-09T13:18:48Z</time>
</trkpt>
<trkpt lat="49.64563362300396" lon="9.220250062644482">
<ele>173.2</ele>
<time>2024-05-09T13:18:49Z</time>
</trkpt>
<trkpt lat="49.645645106211305" lon="9.22025484032929">
<ele>173.2</ele>
<time>2024-05-09T13:18:51Z</time>
</trkpt>
<trkpt lat="49.64559548534453" lon="9.220228185877204">
<ele>173</ele>
<time>2024-05-09T13:18:52Z</time>
</trkpt>
<trkpt lat="49.645603112876415" lon="9.220231957733631">
<ele>173</ele>
<time>2024-05-09T13:18:53Z</time>
</trkpt>
<trkpt lat="49.6456107404083" lon="9.22023480758071">
<ele>173</ele>
<time>2024-05-09T13:18:54Z</time>
</trkpt>
<trkpt lat="49.64561836794019" lon="9.220239585265515">
<ele>172.8</ele>
<time>2024-05-09T13:18:55Z</time>
</trkpt>
<trkpt lat="49.645622223615646" lon="9.220243440940976">
<ele>172.8</ele>
<time>2024-05-09T13:18:56Z</time>
</trkpt>
<trkpt lat="49.645606968551874" lon="9.22023480758071">
<ele>172.8</ele>
<time>2024-05-09T13:18:57Z</time>
</trkpt>
<trkpt lat="49.64561459608376" lon="9.22023673541844">
<ele>173</ele>
<time>2024-05-09T13:18:58Z</time>
</trkpt>
<trkpt lat="49.64561836794019" lon="9.220239585265515">
<ele>173</ele>
<time>2024-05-09T13:18:59Z</time>
</trkpt>
<trkpt lat="49.645584085956216" lon="9.220223408192396">
<ele>173</ele>
<time>2024-05-09T13:19:00Z</time>
</trkpt>
<trkpt lat="49.64557645842433" lon="9.220219552516935">
<ele>173.2</ele>
<time>2024-05-09T13:19:01Z</time>
</trkpt>
<trkpt lat="49.64558023028076" lon="9.220221480354668">
<ele>173.2</ele>
<time>2024-05-09T13:19:02Z</time>
</trkpt>
<trkpt lat="49.64557645842433" lon="9.220219552516935">
<ele>173.2</ele>
<time>2024-05-09T13:19:03Z</time>
</trkpt>
<trkpt lat="49.64556883089245" lon="9.22021670266986">
<ele>173.2</ele>
<time>2024-05-09T13:19:04Z</time>
</trkpt>
<trkpt lat="49.64557260274887" lon="9.220219552516935">
<ele>173.2</ele>
<time>2024-05-09T13:19:05Z</time>
</trkpt>
<trkpt lat="49.64557645842433" lon="9.220221480354668">
<ele>173.2</ele>
<time>2024-05-09T13:19:06Z</time>
</trkpt>
<trkpt lat="49.64557645842433" lon="9.220223408192396">
<ele>173.2</ele>
<time>2024-05-09T13:19:07Z</time>
</trkpt>
<trkpt lat="49.64558023028076" lon="9.220226258039474">
<ele>173.4</ele>
<time>2024-05-09T13:19:08Z</time>
</trkpt>
<trkpt lat="49.645584085956216" lon="9.220228185877204">
<ele>173.4</ele>
<time>2024-05-09T13:19:09Z</time>
</trkpt>
<trkpt lat="49.64558785781264" lon="9.220230029895902">
<ele>173.4</ele>
<time>2024-05-09T13:19:11Z</time>
</trkpt>
<trkpt lat="49.6455917134881" lon="9.220231957733631">
<ele>173.4</ele>
<time>2024-05-09T13:19:12Z</time>
</trkpt>
<trkpt lat="49.64559548534453" lon="9.220232963562012">
<ele>173.4</ele>
<time>2024-05-09T13:19:13Z</time>
</trkpt>
<trkpt lat="49.64559934101999" lon="9.22023673541844">
<ele>173.4</ele>
<time>2024-05-09T13:19:14Z</time>
</trkpt>
<trkpt lat="49.645603112876415" lon="9.220238663256168">
<ele>173.4</ele>
<time>2024-05-09T13:19:15Z</time>
</trkpt>
<trkpt lat="49.645606968551874" lon="9.220241513103248">
<ele>173.6</ele>
<time>2024-05-09T13:19:16Z</time>
</trkpt>
<trkpt lat="49.6456107404083" lon="9.220243440940976">
<ele>173.6</ele>
<time>2024-05-09T13:19:17Z</time>
</trkpt>
<trkpt lat="49.6456107404083" lon="9.220245284959674">
<ele>173.6</ele>
<time>2024-05-09T13:19:18Z</time>
</trkpt>
<trkpt lat="49.64561459608376" lon="9.220246290788054">
<ele>173.6</ele>
<time>2024-05-09T13:19:19Z</time>
</trkpt>
<trkpt lat="49.64561459608376" lon="9.220248218625784">
<ele>173.6</ele>
<time>2024-05-09T13:19:20Z</time>
</trkpt>
<trkpt lat="49.64561836794019" lon="9.220248218625784">
<ele>173.6</ele>
<time>2024-05-09T13:19:21Z</time>
</trkpt>
<trkpt lat="49.64561836794019" lon="9.220250062644482">
<ele>173.8</ele>
<time>2024-05-09T13:19:22Z</time>
</trkpt>
<trkpt lat="49.64561836794019" lon="9.220251990482211">
<ele>173.8</ele>
<time>2024-05-09T13:19:23Z</time>
</trkpt>
<trkpt lat="49.645622223615646" lon="9.220251990482211">
<ele>173.8</ele>
<time>2024-05-09T13:19:24Z</time>
</trkpt>
<trkpt lat="49.64561836794019" lon="9.220251990482211">
<ele>174</ele>
<time>2024-05-09T13:19:25Z</time>
</trkpt>
<trkpt lat="49.64561836794019" lon="9.22025291249156">
<ele>174</ele>
<time>2024-05-09T13:19:27Z</time>
</trkpt>
<trkpt lat="49.64561836794019" lon="9.220251990482211">
<ele>174.2</ele>
<time>2024-05-09T13:19:29Z</time>
</trkpt>
<trkpt lat="49.64561836794019" lon="9.22025291249156">
<ele>174.2</ele>
<time>2024-05-09T13:19:31Z</time>
</trkpt>
<trkpt lat="49.64561836794019" lon="9.22025484032929">
<ele>174.2</ele>
<time>2024-05-09T13:19:34Z</time>
</trkpt>
<trkpt lat="49.64561836794019" lon="9.22025676816702">
<ele>174.4</ele>
<time>2024-05-09T13:19:36Z</time>
</trkpt>
<trkpt lat="49.64561836794019" lon="9.220258696004748">
<ele>174.4</ele>
<time>2024-05-09T13:19:39Z</time>
</trkpt>
<trkpt lat="49.64561836794019" lon="9.220259618014095">
<ele>174.4</ele>
<time>2024-05-09T13:19:40Z</time>
</trkpt>
<trkpt lat="49.645622223615646" lon="9.220259618014095">
<ele>174.4</ele>
<time>2024-05-09T13:19:41Z</time>
</trkpt>
<trkpt lat="49.645625995472074" lon="9.220261545851828">
<ele>174.4</ele>
<time>2024-05-09T13:19:43Z</time>
</trkpt>
<trkpt lat="49.645625995472074" lon="9.220263473689556">
<ele>174.6</ele>
<time>2024-05-09T13:19:45Z</time>
</trkpt>
<trkpt lat="49.645625995472074" lon="9.220266323536634">
<ele>174.6</ele>
<time>2024-05-09T13:19:47Z</time>
</trkpt>
<trkpt lat="49.64562985114753" lon="9.220268167555332">
<ele>174.6</ele>
<time>2024-05-09T13:19:48Z</time>
</trkpt>
<trkpt lat="49.64562985114753" lon="9.220272023230793">
<ele>174.6</ele>
<time>2024-05-09T13:19:49Z</time>
</trkpt>
<trkpt lat="49.64563362300396" lon="9.22027294524014">
<ele>174.6</ele>
<time>2024-05-09T13:19:50Z</time>
</trkpt>
<trkpt lat="49.64563362300396" lon="9.2202768009156">
<ele>174.6</ele>
<time>2024-05-09T13:19:51Z</time>
</trkpt>
<trkpt lat="49.64563747867942" lon="9.220278728753328">
<ele>174.6</ele>
<time>2024-05-09T13:19:52Z</time>
</trkpt>
<trkpt lat="49.645641250535846" lon="9.220279650762675">
<ele>174.6</ele>
<time>2024-05-09T13:19:53Z</time>
</trkpt>
<trkpt lat="49.645641250535846" lon="9.220281578600408">
<ele>174.6</ele>
<time>2024-05-09T13:19:57Z</time>
</trkpt>
<trkpt lat="49.645641250535846" lon="9.220283506438136">
<ele>174.6</ele>
<time>2024-05-09T13:19:58Z</time>
</trkpt>
<trkpt lat="49.645645106211305" lon="9.220285350456834">
<ele>174.6</ele>
<time>2024-05-09T13:19:59Z</time>
</trkpt>
<trkpt lat="49.645641250535846" lon="9.220286356285214">
<ele>174.6</ele>
<time>2024-05-09T13:20:01Z</time>
</trkpt>
<trkpt lat="49.645645106211305" lon="9.220286356285214">
<ele>174.6</ele>
<time>2024-05-09T13:20:02Z</time>
</trkpt>
<trkpt lat="49.645645106211305" lon="9.220288200303912">
<ele>174.6</ele>
<time>2024-05-09T13:20:03Z</time>
</trkpt>
<trkpt lat="49.645645106211305" lon="9.220290128141642">
<ele>174.6</ele>
<time>2024-05-09T13:20:04Z</time>
</trkpt>
<trkpt lat="49.645645106211305" lon="9.220292055979373">
<ele>174.4</ele>
<time>2024-05-09T13:20:05Z</time>
</trkpt>
<trkpt lat="49.645645106211305" lon="9.22029297798872">
<ele>174.4</ele>
<time>2024-05-09T13:20:06Z</time>
</trkpt>
<trkpt lat="49.64564887806773" lon="9.22029490582645">
<ele>174.4</ele>
<time>2024-05-09T13:20:07Z</time>
</trkpt>
<trkpt lat="49.64565273374319" lon="9.220298761501908">
<ele>174.4</ele>
<time>2024-05-09T13:20:09Z</time>
</trkpt>
<trkpt lat="49.64565650559962" lon="9.220299683511255">
<ele>174.4</ele>
<time>2024-05-09T13:20:10Z</time>
</trkpt>
<trkpt lat="49.64565650559962" lon="9.220301611348988">
<ele>174.4</ele>
<time>2024-05-09T13:20:11Z</time>
</trkpt>
<trkpt lat="49.64565650559962" lon="9.220303455367684">
<ele>174.4</ele>
<time>2024-05-09T13:20:12Z</time>
</trkpt>
<trkpt lat="49.64566036127508" lon="9.220305383205414">
<ele>174.4</ele>
<time>2024-05-09T13:20:14Z</time>
</trkpt>
<trkpt lat="49.64566036127508" lon="9.220306389033794">
<ele>174.4</ele>
<time>2024-05-09T13:20:15Z</time>
</trkpt>
<trkpt lat="49.645664133131504" lon="9.220306389033794">
<ele>174.4</ele>
<time>2024-05-09T13:20:16Z</time>
</trkpt>
<trkpt lat="49.645664133131504" lon="9.220310160890222">
<ele>174.4</ele>
<time>2024-05-09T13:20:17Z</time>
</trkpt>
<trkpt lat="49.64566798880696" lon="9.220310160890222">
<ele>174.4</ele>
<time>2024-05-09T13:20:18Z</time>
</trkpt>
<trkpt lat="49.64566798880696" lon="9.220312088727953">
<ele>174.4</ele>
<time>2024-05-09T13:20:19Z</time>
</trkpt>
<trkpt lat="49.64567184448242" lon="9.2203130107373">
<ele>174.4</ele>
<time>2024-05-09T13:20:20Z</time>
</trkpt>
<trkpt lat="49.64567184448242" lon="9.22031493857503">
<ele>174.4</ele>
<time>2024-05-09T13:20:21Z</time>
</trkpt>
<trkpt lat="49.64567561633885" lon="9.220318794250488">
<ele>174.4</ele>
<time>2024-05-09T13:20:22Z</time>
</trkpt>
<trkpt lat="49.64567561633885" lon="9.220319716259835">
<ele>174.4</ele>
<time>2024-05-09T13:20:24Z</time>
</trkpt>
<trkpt lat="49.64567947201431" lon="9.220321644097568">
<ele>174.4</ele>
<time>2024-05-09T13:20:25Z</time>
</trkpt>
<trkpt lat="49.645683243870735" lon="9.220321644097568">
<ele>174.4</ele>
<time>2024-05-09T13:20:26Z</time>
</trkpt>
<trkpt lat="49.645683243870735" lon="9.220325415953994">
<ele>174.4</ele>
<time>2024-05-09T13:20:27Z</time>
</trkpt>
<trkpt lat="49.645683243870735" lon="9.220326421782374">
<ele>174.4</ele>
<time>2024-05-09T13:20:29Z</time>
</trkpt>
<trkpt lat="49.64567947201431" lon="9.220325415953994">
<ele>174.4</ele>
<time>2024-05-09T13:20:31Z</time>
</trkpt>
<trkpt lat="49.64567947201431" lon="9.220326421782374">
<ele>174.4</ele>
<time>2024-05-09T13:20:33Z</time>
</trkpt>
<trkpt lat="49.64567947201431" lon="9.220328265801072">
<ele>174.4</ele>
<time>2024-05-09T13:20:35Z</time>
</trkpt>
<trkpt lat="49.64567947201431" lon="9.220330193638802">
<ele>174.4</ele>
<time>2024-05-09T13:20:37Z</time>
</trkpt>
<trkpt lat="49.645683243870735" lon="9.220330193638802">
<ele>174.4</ele>
<time>2024-05-09T13:20:39Z</time>
</trkpt>
<trkpt lat="49.645683243870735" lon="9.22033111564815">
<ele>174.4</ele>
<time>2024-05-09T13:20:40Z</time>
</trkpt>
<trkpt lat="49.645687099546194" lon="9.22033304348588">
<ele>174.4</ele>
<time>2024-05-09T13:20:42Z</time>
</trkpt>
<trkpt lat="49.645687099546194" lon="9.22033497132361">
<ele>174.4</ele>
<time>2024-05-09T13:20:43Z</time>
</trkpt>
<trkpt lat="49.64569087140262" lon="9.22033689916134">
<ele>174.4</ele>
<time>2024-05-09T13:20:45Z</time>
</trkpt>
<trkpt lat="49.64569472707808" lon="9.220337821170688">
<ele>174.4</ele>
<time>2024-05-09T13:20:47Z</time>
</trkpt>
<trkpt lat="49.64569849893451" lon="9.220339749008415">
<ele>174.4</ele>
<time>2024-05-09T13:20:48Z</time>
</trkpt>
<trkpt lat="49.64569849893451" lon="9.220341676846148">
<ele>174.4</ele>
<time>2024-05-09T13:20:49Z</time>
</trkpt>
<trkpt lat="49.645702354609966" lon="9.220341676846148">
<ele>174.4</ele>
<time>2024-05-09T13:20:51Z</time>
</trkpt>
<trkpt lat="49.645702354609966" lon="9.220343520864844">
<ele>174.4</ele>
<time>2024-05-09T13:20:52Z</time>
</trkpt>
<trkpt lat="49.64570612646639" lon="9.220344526693223">
<ele>174.4</ele>
<time>2024-05-09T13:20:53Z</time>
</trkpt>
<trkpt lat="49.64570612646639" lon="9.220346370711924">
<ele>174.4</ele>
<time>2024-05-09T13:20:54Z</time>
</trkpt>
<trkpt lat="49.64570998214185" lon="9.220348298549652">
<ele>174.4</ele>
<time>2024-05-09T13:20:55Z</time>
</trkpt>
<trkpt lat="49.64570998214185" lon="9.220350226387382">
<ele>174.4</ele>
<time>2024-05-09T13:20:57Z</time>
</trkpt>
<trkpt lat="49.64571375399828" lon="9.22035114839673">
<ele>174.4</ele>
<time>2024-05-09T13:20:59Z</time>
</trkpt>
<trkpt lat="49.64571375399828" lon="9.22035307623446">
<ele>174.4</ele>
<time>2024-05-09T13:21:01Z</time>
</trkpt>
<trkpt lat="49.64571760967374" lon="9.22035500407219">
<ele>174.4</ele>
<time>2024-05-09T13:21:03Z</time>
</trkpt>
<trkpt lat="49.64571760967374" lon="9.22035693190992">
<ele>174.4</ele>
<time>2024-05-09T13:21:04Z</time>
</trkpt>
<trkpt lat="49.64571760967374" lon="9.220357853919268">
<ele>174.4</ele>
<time>2024-05-09T13:21:06Z</time>
</trkpt>
<trkpt lat="49.645721381530166" lon="9.220357853919268">
<ele>174.4</ele>
<time>2024-05-09T13:21:07Z</time>
</trkpt>
<trkpt lat="49.645721381530166" lon="9.220359781756995">
<ele>174.4</ele>
<time>2024-05-09T13:21:08Z</time>
</trkpt>
<trkpt lat="49.64571760967374" lon="9.220361709594728">
<ele>174.4</ele>
<time>2024-05-09T13:21:10Z</time>
</trkpt>
<trkpt lat="49.645721381530166" lon="9.220361709594728">
<ele>174.4</ele>
<time>2024-05-09T13:21:11Z</time>
</trkpt>
<trkpt lat="49.645721381530166" lon="9.220364559441805">
<ele>174.4</ele>
<time>2024-05-09T13:21:12Z</time>
</trkpt>
<trkpt lat="49.645721381530166" lon="9.220366403460504">
<ele>174.4</ele>
<time>2024-05-09T13:21:13Z</time>
</trkpt>
<trkpt lat="49.645721381530166" lon="9.220368331298232">
<ele>174.4</ele>
<time>2024-05-09T13:21:14Z</time>
</trkpt>
<trkpt lat="49.645725237205625" lon="9.22037118114531">
<ele>174.4</ele>
<time>2024-05-09T13:21:15Z</time>
</trkpt>
<trkpt lat="49.645725237205625" lon="9.22037310898304">
<ele>174.4</ele>
<time>2024-05-09T13:21:16Z</time>
</trkpt>
<trkpt lat="49.64572900906205" lon="9.22037503682077">
<ele>174.4</ele>
<time>2024-05-09T13:21:17Z</time>
</trkpt>
<trkpt lat="49.64573286473751" lon="9.2203769646585">
<ele>174.4</ele>
<time>2024-05-09T13:21:18Z</time>
</trkpt>
<trkpt lat="49.64573286473751" lon="9.220377886667848">
<ele>174.4</ele>
<time>2024-05-09T13:21:19Z</time>
</trkpt>
<trkpt lat="49.64573286473751" lon="9.220379814505575">
<ele>174.4</ele>
<time>2024-05-09T13:21:20Z</time>
</trkpt>
<trkpt lat="49.64573286473751" lon="9.220381658524277">
<ele>174.4</ele>
<time>2024-05-09T13:21:21Z</time>
</trkpt>
<trkpt lat="49.64573286473751" lon="9.220383586362004">
<ele>174.4</ele>
<time>2024-05-09T13:21:22Z</time>
</trkpt>
<trkpt lat="49.64573286473751" lon="9.220384592190385">
<ele>174.4</ele>
<time>2024-05-09T13:21:23Z</time>
</trkpt>
<trkpt lat="49.64573663659394" lon="9.220386436209084">
<ele>174.4</ele>
<time>2024-05-09T13:21:24Z</time>
</trkpt>
<trkpt lat="49.64573663659394" lon="9.220388364046812">
<ele>174.4</ele>
<time>2024-05-09T13:21:25Z</time>
</trkpt>
<trkpt lat="49.6457404922694" lon="9.22039121389389">
<ele>174.4</ele>
<time>2024-05-09T13:21:26Z</time>
</trkpt>
<trkpt lat="49.6457404922694" lon="9.22039314173162">
<ele>174.4</ele>
<time>2024-05-09T13:21:27Z</time>
</trkpt>
<trkpt lat="49.64573663659394" lon="9.220390291884542">
<ele>174.4</ele>
<time>2024-05-09T13:21:28Z</time>
</trkpt>
<trkpt lat="49.64573286473751" lon="9.220388364046812">
<ele>174.4</ele>
<time>2024-05-09T13:21:29Z</time>
</trkpt>
<trkpt lat="49.64572900906205" lon="9.220388364046812">
<ele>174.4</ele>
<time>2024-05-09T13:21:30Z</time>
</trkpt>
<trkpt lat="49.64572900906205" lon="9.220390291884542">
<ele>174.4</ele>
<time>2024-05-09T13:21:35Z</time>
</trkpt>
<trkpt lat="49.64572900906205" lon="9.22039121389389">
<ele>174.4</ele>
<time>2024-05-09T13:21:36Z</time>
</trkpt>
<trkpt lat="49.64573286473751" lon="9.22039314173162">
<ele>174.4</ele>
<time>2024-05-09T13:21:37Z</time>
</trkpt>
<trkpt lat="49.64573663659394" lon="9.22039506956935">
<ele>174.4</ele>
<time>2024-05-09T13:21:39Z</time>
</trkpt>
<trkpt lat="49.64573663659394" lon="9.220396913588049">
<ele>174.4</ele>
<time>2024-05-09T13:21:40Z</time>
</trkpt>
<trkpt lat="49.64573663659394" lon="9.220397919416428">
<ele>174.4</ele>
<time>2024-05-09T13:21:42Z</time>
</trkpt>
<trkpt lat="49.64573663659394" lon="9.220399847254155">
<ele>174.4</ele>
<time>2024-05-09T13:21:43Z</time>
</trkpt>
<trkpt lat="49.64573663659394" lon="9.220401691272857">
<ele>174.4</ele>
<time>2024-05-09T13:21:44Z</time>
</trkpt>
<trkpt lat="49.6457404922694" lon="9.220403619110584">
<ele>174.4</ele>
<time>2024-05-09T13:21:45Z</time>
</trkpt>
<trkpt lat="49.6457404922694" lon="9.220404624938965">
<ele>174.4</ele>
<time>2024-05-09T13:21:46Z</time>
</trkpt>
<trkpt lat="49.645744264125824" lon="9.220406468957664">
<ele>174.4</ele>
<time>2024-05-09T13:21:47Z</time>
</trkpt>
<trkpt lat="49.645744264125824" lon="9.220408396795392">
<ele>174.4</ele>
<time>2024-05-09T13:21:48Z</time>
</trkpt>
<trkpt lat="49.64574811980128" lon="9.22041032463312">
<ele>174.4</ele>
<time>2024-05-09T13:21:49Z</time>
</trkpt>
<trkpt lat="49.64574811980128" lon="9.22041124664247">
<ele>174.4</ele>
<time>2024-05-09T13:21:50Z</time>
</trkpt>
<trkpt lat="49.64574811980128" lon="9.2204131744802">
<ele>174.4</ele>
<time>2024-05-09T13:21:51Z</time>
</trkpt>
<trkpt lat="49.64575189165771" lon="9.2204131744802">
<ele>174.4</ele>
<time>2024-05-09T13:21:52Z</time>
</trkpt>
<trkpt lat="49.64575189165771" lon="9.22041510231793">
<ele>174.4</ele>
<time>2024-05-09T13:21:53Z</time>
</trkpt>
<trkpt lat="49.64575574733317" lon="9.220416946336629">
<ele>174.4</ele>
<time>2024-05-09T13:21:54Z</time>
</trkpt>
<trkpt lat="49.64575574733317" lon="9.220417952165008">
<ele>174.4</ele>
<time>2024-05-09T13:21:55Z</time>
</trkpt>
<trkpt lat="49.6457595191896" lon="9.220419880002735">
<ele>174.4</ele>
<time>2024-05-09T13:21:56Z</time>
</trkpt>
<trkpt lat="49.6457595191896" lon="9.220421724021437">
<ele>174.4</ele>
<time>2024-05-09T13:21:57Z</time>
</trkpt>
<trkpt lat="49.6457595191896" lon="9.220423651859164">
<ele>174.4</ele>
<time>2024-05-09T13:21:58Z</time>
</trkpt>
<trkpt lat="49.6457595191896" lon="9.220424573868511">
<ele>174.4</ele>
<time>2024-05-09T13:21:59Z</time>
</trkpt>
<trkpt lat="49.6457595191896" lon="9.220426501706244">
<ele>174.4</ele>
<time>2024-05-09T13:22:00Z</time>
</trkpt>
<trkpt lat="49.6457595191896" lon="9.2204303573817">
<ele>174.4</ele>
<time>2024-05-09T13:22:01Z</time>
</trkpt>
<trkpt lat="49.645763374865055" lon="9.22043127939105">
<ele>174.4</ele>
<time>2024-05-09T13:22:02Z</time>
</trkpt>
<trkpt lat="49.6457595191896" lon="9.22043127939105">
<ele>174.4</ele>
<time>2024-05-09T13:22:04Z</time>
</trkpt>
<trkpt lat="49.645763374865055" lon="9.22043320722878">
<ele>174.4</ele>
<time>2024-05-09T13:22:05Z</time>
</trkpt>
<trkpt lat="49.64576714672148" lon="9.22043513506651">
<ele>174.4</ele>
<time>2024-05-09T13:22:07Z</time>
</trkpt>
<trkpt lat="49.64577100239694" lon="9.22043513506651">
<ele>174.4</ele>
<time>2024-05-09T13:22:08Z</time>
</trkpt>
<trkpt lat="49.64577100239694" lon="9.220436979085209">
<ele>174.4</ele>
<time>2024-05-09T13:22:09Z</time>
</trkpt>
<trkpt lat="49.64577477425337" lon="9.220436979085209">
<ele>174.4</ele>
<time>2024-05-09T13:22:10Z</time>
</trkpt>
<trkpt lat="49.64577477425337" lon="9.220437984913588">
<ele>174.4</ele>
<time>2024-05-09T13:22:11Z</time>
</trkpt>
<trkpt lat="49.64577477425337" lon="9.220439828932284">
<ele>174.4</ele>
<time>2024-05-09T13:22:12Z</time>
</trkpt>
<trkpt lat="49.64577862992883" lon="9.220441756770017">
<ele>174.4</ele>
<time>2024-05-09T13:22:13Z</time>
</trkpt>
<trkpt lat="49.64577862992883" lon="9.220443684607744">
<ele>174.4</ele>
<time>2024-05-09T13:22:15Z</time>
</trkpt>
<trkpt lat="49.645782401785254" lon="9.220444606617091">
<ele>174.4</ele>
<time>2024-05-09T13:22:16Z</time>
</trkpt>
<trkpt lat="49.645782401785254" lon="9.220446534454824">
<ele>174.4</ele>
<time>2024-05-09T13:22:17Z</time>
</trkpt>
<trkpt lat="49.645782401785254" lon="9.220448462292552">
<ele>174.4</ele>
<time>2024-05-09T13:22:19Z</time>
</trkpt>
<trkpt lat="49.645782401785254" lon="9.220446534454824">
<ele>174.4</ele>
<time>2024-05-09T13:22:24Z</time>
</trkpt>
<trkpt lat="49.64577862992883" lon="9.220446534454824">
<ele>174.4</ele>
<time>2024-05-09T13:22:25Z</time>
</trkpt>
<trkpt lat="49.645782401785254" lon="9.220448462292552">
<ele>174.4</ele>
<time>2024-05-09T13:22:29Z</time>
</trkpt>
<trkpt lat="49.645782401785254" lon="9.22045039013028">
<ele>174.4</ele>
<time>2024-05-09T13:22:30Z</time>
</trkpt>
<trkpt lat="49.64578625746071" lon="9.22045131213963">
<ele>174.4</ele>
<time>2024-05-09T13:22:31Z</time>
</trkpt>
<trkpt lat="49.64578625746071" lon="9.22045323997736">
<ele>174.4</ele>
<time>2024-05-09T13:22:32Z</time>
</trkpt>
<trkpt lat="49.64579002931714" lon="9.22045323997736">
<ele>174.4</ele>
<time>2024-05-09T13:22:33Z</time>
</trkpt>
<trkpt lat="49.64579002931714" lon="9.22045516781509">
<ele>174.4</ele>
<time>2024-05-09T13:22:34Z</time>
</trkpt>
<trkpt lat="49.64579002931714" lon="9.220457011833789">
<ele>174.4</ele>
<time>2024-05-09T13:22:36Z</time>
</trkpt>
<trkpt lat="49.64579002931714" lon="9.220458017662168">
<ele>174.4</ele>
<time>2024-05-09T13:22:41Z</time>
</trkpt>
<trkpt lat="49.64579002931714" lon="9.220457011833789">
<ele>174.4</ele>
<time>2024-05-09T13:22:42Z</time>
</trkpt>
<trkpt lat="49.64579002931714" lon="9.220458017662168">
<ele>174.4</ele>
<time>2024-05-09T13:22:43Z</time>
</trkpt>
<trkpt lat="49.6457938849926" lon="9.220459861680864">
<ele>174.4</ele>
<time>2024-05-09T13:22:45Z</time>
</trkpt>
<trkpt lat="49.6457938849926" lon="9.220461789518597">
<ele>174.4</ele>
<time>2024-05-09T13:22:47Z</time>
</trkpt>
<trkpt lat="49.64579765684903" lon="9.220463717356324">
<ele>174.4</ele>
<time>2024-05-09T13:22:48Z</time>
</trkpt>
<trkpt lat="49.645801512524486" lon="9.220464639365671">
<ele>174.4</ele>
<time>2024-05-09T13:22:52Z</time>
</trkpt>
<trkpt lat="49.645801512524486" lon="9.220466567203404">
<ele>174.4</ele>
<time>2024-05-09T13:22:54Z</time>
</trkpt>
<trkpt lat="49.645801512524486" lon="9.220468495041132">
<ele>174.4</ele>
<time>2024-05-09T13:22:56Z</time>
</trkpt>
<trkpt lat="49.64579765684903" lon="9.22047042287886">
<ele>174.4</ele>
<time>2024-05-09T13:22:57Z</time>
</trkpt>
<trkpt lat="49.64579765684903" lon="9.22047134488821">
<ele>174.4</ele>
<time>2024-05-09T13:22:58Z</time>
</trkpt>
<trkpt lat="49.64579765684903" lon="9.22047327272594">
<ele>174.4</ele>
<time>2024-05-09T13:22:59Z</time>
</trkpt>
<trkpt lat="49.6457938849926" lon="9.22047327272594">
<ele>174.4</ele>
<time>2024-05-09T13:23:01Z</time>
</trkpt>
<trkpt lat="49.64579002931714" lon="9.22047327272594">
<ele>174.4</ele>
<time>2024-05-09T13:23:05Z</time>
</trkpt>
<trkpt lat="49.6457938849926" lon="9.220475116744636">
<ele>174.4</ele>
<time>2024-05-09T13:23:06Z</time>
</trkpt>
<trkpt lat="49.64579002931714" lon="9.220475116744636">
<ele>174.4</ele>
<time>2024-05-09T13:23:07Z</time>
</trkpt>
<trkpt lat="49.64579002931714" lon="9.220477044582369">
<ele>174.4</ele>
<time>2024-05-09T13:23:11Z</time>
</trkpt>
<trkpt lat="49.6457938849926" lon="9.220477044582369">
<ele>174.4</ele>
<time>2024-05-09T13:23:12Z</time>
</trkpt>
<trkpt lat="49.64579002931714" lon="9.220477044582369">
<ele>174.4</ele>
<time>2024-05-09T13:23:13Z</time>
</trkpt>
<trkpt lat="49.64579002931714" lon="9.220478050410748">
<ele>174.4</ele>
<time>2024-05-09T13:23:15Z</time>
</trkpt>
<trkpt lat="49.64579002931714" lon="9.220477044582369">
<ele>174.4</ele>
<time>2024-05-09T13:23:16Z</time>
</trkpt>
<trkpt lat="49.64579002931714" lon="9.220478050410748">
<ele>174.4</ele>
<time>2024-05-09T13:23:18Z</time>
</trkpt>
<trkpt lat="49.64579002931714" lon="9.220479894429443">
<ele>174.4</ele>
<time>2024-05-09T13:23:20Z</time>
</trkpt>
<trkpt lat="49.64578625746071" lon="9.220479894429443">
<ele>174.4</ele>
<time>2024-05-09T13:23:23Z</time>
</trkpt>
<trkpt lat="49.645782401785254" lon="9.220479894429443">
<ele>174.4</ele>
<time>2024-05-09T13:23:25Z</time>
</trkpt>
<trkpt lat="49.645782401785254" lon="9.220478050410748">
<ele>174.4</ele>
<time>2024-05-09T13:23:26Z</time>
</trkpt>
<trkpt lat="49.64577862992883" lon="9.220478050410748">
<ele>174.4</ele>
<time>2024-05-09T13:23:27Z</time>
</trkpt>
<trkpt lat="49.64577477425337" lon="9.220477044582369">
<ele>174.4</ele>
<time>2024-05-09T13:23:30Z</time>
</trkpt>
<trkpt lat="49.64577100239694" lon="9.220475116744636">
<ele>174.4</ele>
<time>2024-05-09T13:23:32Z</time>
</trkpt>
<trkpt lat="49.64576714672148" lon="9.22047327272594">
<ele>174.4</ele>
<time>2024-05-09T13:23:34Z</time>
</trkpt>
<trkpt lat="49.645763374865055" lon="9.22047327272594">
<ele>174.4</ele>
<time>2024-05-09T13:23:36Z</time>
</trkpt>
<trkpt lat="49.645763374865055" lon="9.22047134488821">
<ele>174.4</ele>
<time>2024-05-09T13:23:38Z</time>
</trkpt>
<trkpt lat="49.6457595191896" lon="9.22047134488821">
<ele>174.4</ele>
<time>2024-05-09T13:23:39Z</time>
</trkpt>
<trkpt lat="49.64575574733317" lon="9.22047042287886">
<ele>174.4</ele>
<time>2024-05-09T13:23:44Z</time>
</trkpt>
<trkpt lat="49.64575189165771" lon="9.220468495041132">
<ele>174.4</ele>
<time>2024-05-09T13:23:45Z</time>
</trkpt>
<trkpt lat="49.64574811980128" lon="9.220468495041132">
<ele>174.4</ele>
<time>2024-05-09T13:23:46Z</time>
</trkpt>
<trkpt lat="49.645744264125824" lon="9.220466567203404">
<ele>174.4</ele>
<time>2024-05-09T13:23:47Z</time>
</trkpt>
<trkpt lat="49.6457404922694" lon="9.220466567203404">
<ele>174.4</ele>
<time>2024-05-09T13:23:50Z</time>
</trkpt>
<trkpt lat="49.6457404922694" lon="9.220464639365671">
<ele>174.4</ele>
<time>2024-05-09T13:23:52Z</time>
</trkpt>
<trkpt lat="49.64573663659394" lon="9.220464639365671">
<ele>174.4</ele>
<time>2024-05-09T13:23:53Z</time>
</trkpt>
<trkpt lat="49.64573286473751" lon="9.220463717356324">
<ele>174.4</ele>
<time>2024-05-09T13:23:56Z</time>
</trkpt>
<trkpt lat="49.64572900906205" lon="9.220463717356324">
<ele>174.4</ele>
<time>2024-05-09T13:23:58Z</time>
</trkpt>
<trkpt lat="49.64572900906205" lon="9.220461789518597">
<ele>174.4</ele>
<time>2024-05-09T13:23:59Z</time>
</trkpt>
<trkpt lat="49.645725237205625" lon="9.220461789518597">
<ele>174.4</ele>
<time>2024-05-09T13:24:00Z</time>
</trkpt>
<trkpt lat="49.64572900906205" lon="9.220463717356324">
<ele>174.4</ele>
<time>2024-05-09T13:24:02Z</time>
</trkpt>
<trkpt lat="49.645725237205625" lon="9.220463717356324">
<ele>174.4</ele>
<time>2024-05-09T13:24:03Z</time>
</trkpt>
<trkpt lat="49.645725237205625" lon="9.220464639365671">
<ele>174.4</ele>
<time>2024-05-09T13:24:08Z</time>
</trkpt>
<trkpt lat="49.645725237205625" lon="9.220466567203404">
<ele>174.4</ele>
<time>2024-05-09T13:24:12Z</time>
</trkpt>
<trkpt lat="49.645725237205625" lon="9.220464639365671">
<ele>174.4</ele>
<time>2024-05-09T13:24:13Z</time>
</trkpt>
<trkpt lat="49.645721381530166" lon="9.220464639365671">
<ele>174.4</ele>
<time>2024-05-09T13:24:16Z</time>
</trkpt>
<trkpt lat="49.645721381530166" lon="9.220463717356324">
<ele>174.4</ele>
<time>2024-05-09T13:24:19Z</time>
</trkpt>
<trkpt lat="49.64571760967374" lon="9.220463717356324">
<ele>174.4</ele>
<time>2024-05-09T13:24:20Z</time>
</trkpt>
<trkpt lat="49.64571760967374" lon="9.220464639365671">
<ele>174.4</ele>
<time>2024-05-09T13:24:21Z</time>
</trkpt>
<trkpt lat="49.64571760967374" lon="9.220463717356324">
<ele>174.4</ele>
<time>2024-05-09T13:24:23Z</time>
</trkpt>
<trkpt lat="49.64571375399828" lon="9.220463717356324">
<ele>174.4</ele>
<time>2024-05-09T13:24:24Z</time>
</trkpt>
<trkpt lat="49.64571760967374" lon="9.220464639365671">
<ele>174.4</ele>
<time>2024-05-09T13:24:31Z</time>
</trkpt>
<trkpt lat="49.64571375399828" lon="9.220464639365671">
<ele>174.4</ele>
<time>2024-05-09T13:24:33Z</time>
</trkpt>
<trkpt lat="49.64570998214185" lon="9.220466567203404">
<ele>174.4</ele>
<time>2024-05-09T13:24:35Z</time>
</trkpt>
<trkpt lat="49.64570998214185" lon="9.220468495041132">
<ele>174.4</ele>
<time>2024-05-09T13:24:38Z</time>
</trkpt>
<trkpt lat="49.64570612646639" lon="9.220468495041132">
<ele>174.4</ele>
<time>2024-05-09T13:24:40Z</time>
</trkpt>
<trkpt lat="49.64570612646639" lon="9.220466567203404">
<ele>174.4</ele>
<time>2024-05-09T13:24:41Z</time>
</trkpt>
<trkpt lat="49.645702354609966" lon="9.220464639365671">
<ele>174.4</ele>
<time>2024-05-09T13:24:44Z</time>
</trkpt>
<trkpt lat="49.64569849893451" lon="9.220464639365671">
<ele>174.4</ele>
<time>2024-05-09T13:24:48Z</time>
</trkpt>
<trkpt lat="49.64569849893451" lon="9.220463717356324">
<ele>174.4</ele>
<time>2024-05-09T13:24:50Z</time>
</trkpt>
<trkpt lat="49.64569472707808" lon="9.220463717356324">
<ele>174.4</ele>
<time>2024-05-09T13:24:52Z</time>
</trkpt>
<trkpt lat="49.64569472707808" lon="9.220461789518597">
<ele>174.4</ele>
<time>2024-05-09T13:24:54Z</time>
</trkpt>
<trkpt lat="49.64569087140262" lon="9.220463717356324">
<ele>174.4</ele>
<time>2024-05-09T13:24:56Z</time>
</trkpt>
<trkpt lat="49.64569087140262" lon="9.220461789518597">
<ele>174.4</ele>
<time>2024-05-09T13:24:57Z</time>
</trkpt>
<trkpt lat="49.645687099546194" lon="9.220461789518597">
<ele>174.4</ele>
<time>2024-05-09T13:25:01Z</time>
</trkpt>
<trkpt lat="49.645687099546194" lon="9.220459861680864">
<ele>174.4</ele>
<time>2024-05-09T13:25:03Z</time>
</trkpt>
<trkpt lat="49.645683243870735" lon="9.220459861680864">
<ele>174.4</ele>
<time>2024-05-09T13:25:04Z</time>
</trkpt>
<trkpt lat="49.64567947201431" lon="9.220459861680864">
<ele>174.4</ele>
<time>2024-05-09T13:25:09Z</time>
</trkpt>
<trkpt lat="49.64567947201431" lon="9.220458017662168">
<ele>174.4</ele>
<time>2024-05-09T13:25:10Z</time>
</trkpt>
<trkpt lat="49.64567561633885" lon="9.220457011833789">
<ele>174.4</ele>
<time>2024-05-09T13:25:13Z</time>
</trkpt>
<trkpt lat="49.64567561633885" lon="9.220458017662168">
<ele>174.4</ele>
<time>2024-05-09T13:25:14Z</time>
</trkpt>
<trkpt lat="49.64567561633885" lon="9.220457011833789">
<ele>174.4</ele>
<time>2024-05-09T13:25:18Z</time>
</trkpt>
<trkpt lat="49.64567184448242" lon="9.220457011833789">
<ele>174.4</ele>
<time>2024-05-09T13:25:19Z</time>
</trkpt>
<trkpt lat="49.64567184448242" lon="9.22045516781509">
<ele>174.4</ele>
<time>2024-05-09T13:25:22Z</time>
</trkpt>
<trkpt lat="49.64567184448242" lon="9.220457011833789">
<ele>174.4</ele>
<time>2024-05-09T13:25:25Z</time>
</trkpt>
<trkpt lat="49.64566798880696" lon="9.22045516781509">
<ele>174.4</ele>
<time>2024-05-09T13:25:26Z</time>
</trkpt>
<trkpt lat="49.64566798880696" lon="9.220457011833789">
<ele>174.4</ele>
<time>2024-05-09T13:25:27Z</time>
</trkpt>
<trkpt lat="49.64566798880696" lon="9.22045516781509">
<ele>174.4</ele>
<time>2024-05-09T13:25:29Z</time>
</trkpt>
<trkpt lat="49.645664133131504" lon="9.22045516781509">
<ele>174.4</ele>
<time>2024-05-09T13:25:34Z</time>
</trkpt>
<trkpt lat="49.645664133131504" lon="9.22045323997736">
<ele>174.4</ele>
<time>2024-05-09T13:25:35Z</time>
</trkpt>
<trkpt lat="49.645664133131504" lon="9.22045516781509">
<ele>174.4</ele>
<time>2024-05-09T13:25:36Z</time>
</trkpt>
<trkpt lat="49.645664133131504" lon="9.22045323997736">
<ele>174.4</ele>
<time>2024-05-09T13:25:39Z</time>
</trkpt>
<trkpt lat="49.645664133131504" lon="9.22045516781509">
<ele>174.4</ele>
<time>2024-05-09T13:25:41Z</time>
</trkpt>
<trkpt lat="49.645664133131504" lon="9.22045323997736">
<ele>174.4</ele>
<time>2024-05-09T13:25:42Z</time>
</trkpt>
<trkpt lat="49.64566036127508" lon="9.22045323997736">
<ele>174.4</ele>
<time>2024-05-09T13:25:43Z</time>
</trkpt>
<trkpt lat="49.64566036127508" lon="9.22045131213963">
<ele>174.4</ele>
<time>2024-05-09T13:25:44Z</time>
</trkpt>
<trkpt lat="49.64566036127508" lon="9.22045039013028">
<ele>174.4</ele>
<time>2024-05-09T13:25:49Z</time>
</trkpt>
<trkpt lat="49.64565650559962" lon="9.22045039013028">
<ele>174.4</ele>
<time>2024-05-09T13:25:50Z</time>
</trkpt>
<trkpt lat="49.64565650559962" lon="9.220448462292552">
<ele>174.4</ele>
<time>2024-05-09T13:25:52Z</time>
</trkpt>
<trkpt lat="49.64565650559962" lon="9.220446534454824">
<ele>174.4</ele>
<time>2024-05-09T13:25:56Z</time>
</trkpt>
<trkpt lat="49.64565273374319" lon="9.220444606617091">
<ele>174.4</ele>
<time>2024-05-09T13:26:00Z</time>
</trkpt>
<trkpt lat="49.64564887806773" lon="9.220443684607744">
<ele>174.4</ele>
<time>2024-05-09T13:26:04Z</time>
</trkpt>
<trkpt lat="49.64564887806773" lon="9.220441756770017">
<ele>174.4</ele>
<time>2024-05-09T13:26:05Z</time>
</trkpt>
<trkpt lat="49.645645106211305" lon="9.220441756770017">
<ele>174.4</ele>
<time>2024-05-09T13:26:06Z</time>
</trkpt>
<trkpt lat="49.645645106211305" lon="9.220439828932284">
<ele>174.4</ele>
<time>2024-05-09T13:26:07Z</time>
</trkpt>
<trkpt lat="49.645645106211305" lon="9.220437984913588">
<ele>174.4</ele>
<time>2024-05-09T13:26:11Z</time>
</trkpt>
<trkpt lat="49.645641250535846" lon="9.220437984913588">
<ele>174.4</ele>
<time>2024-05-09T13:26:12Z</time>
</trkpt>
<trkpt lat="49.64563747867942" lon="9.220436979085209">
<ele>174.4</ele>
<time>2024-05-09T13:26:14Z</time>
</trkpt>
<trkpt lat="49.64563362300396" lon="9.220436979085209">
<ele>174.4</ele>
<time>2024-05-09T13:26:17Z</time>
</trkpt>
<trkpt lat="49.64563362300396" lon="9.22043513506651">
<ele>174.4</ele>
<time>2024-05-09T13:26:19Z</time>
</trkpt>
<trkpt lat="49.64562985114753" lon="9.22043320722878">
<ele>174.4</ele>
<time>2024-05-09T13:26:21Z</time>
</trkpt>
<trkpt lat="49.64562985114753" lon="9.22043127939105">
<ele>174.4</ele>
<time>2024-05-09T13:26:23Z</time>
</trkpt>
<trkpt lat="49.64562985114753" lon="9.2204303573817">
<ele>174.4</ele>
<time>2024-05-09T13:26:24Z</time>
</trkpt>
<trkpt lat="49.64562985114753" lon="9.22043127939105">
<ele>174.4</ele>
<time>2024-05-09T13:26:25Z</time>
</trkpt>
<trkpt lat="49.645625995472074" lon="9.2204303573817">
<ele>174.4</ele>
<time>2024-05-09T13:26:26Z</time>
</trkpt>
<trkpt lat="49.645625995472074" lon="9.220428429543972">
<ele>174.4</ele>
<time>2024-05-09T13:26:28Z</time>
</trkpt>
<trkpt lat="49.645622223615646" lon="9.220428429543972">
<ele>174.4</ele>
<time>2024-05-09T13:26:31Z</time>
</trkpt>
<trkpt lat="49.645622223615646" lon="9.220426501706244">
<ele>174.4</ele>
<time>2024-05-09T13:26:32Z</time>
</trkpt>
<trkpt lat="49.645622223615646" lon="9.220424573868511">
<ele>174.4</ele>
<time>2024-05-09T13:26:33Z</time>
</trkpt>
<trkpt lat="49.64561836794019" lon="9.220423651859164">
<ele>174.4</ele>
<time>2024-05-09T13:26:35Z</time>
</trkpt>
<trkpt lat="49.64561836794019" lon="9.220421724021437">
<ele>174.4</ele>
<time>2024-05-09T13:26:36Z</time>
</trkpt>
<trkpt lat="49.64561836794019" lon="9.220419880002735">
<ele>174.4</ele>
<time>2024-05-09T13:26:37Z</time>
</trkpt>
<trkpt lat="49.64561459608376" lon="9.220419880002735">
<ele>174.4</ele>
<time>2024-05-09T13:26:38Z</time>
</trkpt>
<trkpt lat="49.64561459608376" lon="9.220417952165008">
<ele>174.4</ele>
<time>2024-05-09T13:26:39Z</time>
</trkpt>
<trkpt lat="49.6456107404083" lon="9.220416946336629">
<ele>174.4</ele>
<time>2024-05-09T13:26:41Z</time>
</trkpt>
<trkpt lat="49.6456107404083" lon="9.22041510231793">
<ele>174.4</ele>
<time>2024-05-09T13:26:42Z</time>
</trkpt>
<trkpt lat="49.645606968551874" lon="9.22041510231793">
<ele>174.4</ele>
<time>2024-05-09T13:26:45Z</time>
</trkpt>
<trkpt lat="49.645606968551874" lon="9.2204131744802">
<ele>174.4</ele>
<time>2024-05-09T13:26:47Z</time>
</trkpt>
<trkpt lat="49.645603112876415" lon="9.22041124664247">
<ele>174.4</ele>
<time>2024-05-09T13:26:50Z</time>
</trkpt>
<trkpt lat="49.645603112876415" lon="9.22041032463312">
<ele>174.4</ele>
<time>2024-05-09T13:26:54Z</time>
</trkpt>
<trkpt lat="49.64559934101999" lon="9.220408396795392">
<ele>174.4</ele>
<time>2024-05-09T13:26:58Z</time>
</trkpt>
<trkpt lat="49.64559934101999" lon="9.220406468957664">
<ele>174.4</ele>
<time>2024-05-09T13:27:00Z</time>
</trkpt>
<trkpt lat="49.64559548534453" lon="9.220404624938965">
<ele>174.4</ele>
<time>2024-05-09T13:27:01Z</time>
</trkpt>
<trkpt lat="49.64559548534453" lon="9.220403619110584">
<ele>174.4</ele>
<time>2024-05-09T13:27:03Z</time>
</trkpt>
<trkpt lat="49.6455917134881" lon="9.220406468957664">
<ele>174.4</ele>
<time>2024-05-09T13:27:06Z</time>
</trkpt>
<trkpt lat="49.6455917134881" lon="9.220404624938965">
<ele>174.4</ele>
<time>2024-05-09T13:27:07Z</time>
</trkpt>
<trkpt lat="49.64558785781264" lon="9.220401691272857">
<ele>174.4</ele>
<time>2024-05-09T13:27:08Z</time>
</trkpt>
<trkpt lat="49.6455917134881" lon="9.220397919416428">
<ele>174.4</ele>
<time>2024-05-09T13:27:09Z</time>
</trkpt>
<trkpt lat="49.64558785781264" lon="9.220396913588049">
<ele>174.4</ele>
<time>2024-05-09T13:27:10Z</time>
</trkpt>
<trkpt lat="49.64558785781264" lon="9.22039506956935">
<ele>174.4</ele>
<time>2024-05-09T13:27:12Z</time>
</trkpt>
<trkpt lat="49.64558785781264" lon="9.22039314173162">
<ele>174.4</ele>
<time>2024-05-09T13:27:13Z</time>
</trkpt>
<trkpt lat="49.64558785781264" lon="9.22039121389389">
<ele>174.4</ele>
<time>2024-05-09T13:27:14Z</time>
</trkpt>
<trkpt lat="49.64558785781264" lon="9.220390291884542">
<ele>174.4</ele>
<time>2024-05-09T13:27:15Z</time>
</trkpt>
<trkpt lat="49.64558785781264" lon="9.220386436209084">
<ele>174.4</ele>
<time>2024-05-09T13:27:16Z</time>
</trkpt>
<trkpt lat="49.64558785781264" lon="9.220383586362004">
<ele>174.4</ele>
<time>2024-05-09T13:27:17Z</time>
</trkpt>
<trkpt lat="49.645584085956216" lon="9.220361709594728">
<ele>174.4</ele>
<time>2024-05-09T13:27:18Z</time>
</trkpt>
<trkpt lat="49.64557260274887" lon="9.220319716259835">
<ele>174.4</ele>
<time>2024-05-09T13:27:19Z</time>
</trkpt>
<trkpt lat="49.6455573476851" lon="9.22027294524014">
<ele>174.4</ele>
<time>2024-05-09T13:27:20Z</time>
</trkpt>
<trkpt lat="49.645545948296785" lon="9.220231957733631">
<ele>174.4</ele>
<time>2024-05-09T13:27:21Z</time>
</trkpt>
<trkpt lat="49.6455383207649" lon="9.220191892236471">
<ele>174.4</ele>
<time>2024-05-09T13:27:22Z</time>
</trkpt>
<trkpt lat="49.645526837557554" lon="9.220138499513268">
<ele>174.4</ele>
<time>2024-05-09T13:27:23Z</time>
</trkpt>
<trkpt lat="49.64551158249378" lon="9.22009650617838">
<ele>174.4</ele>
<time>2024-05-09T13:27:24Z</time>
</trkpt>
<trkpt lat="49.64550018310547" lon="9.220058368518949">
<ele>174.4</ele>
<time>2024-05-09T13:27:25Z</time>
</trkpt>
<trkpt lat="49.64548869989813" lon="9.2200212366879">
<ele>174.4</ele>
<time>2024-05-09T13:27:26Z</time>
</trkpt>
<trkpt lat="49.645465817302465" lon="9.2199744656682">
<ele>174.4</ele>
<time>2024-05-09T13:27:27Z</time>
</trkpt>
<trkpt lat="49.64544293470681" lon="9.219946805387735">
<ele>174.4</ele>
<time>2024-05-09T13:27:28Z</time>
</trkpt>
<trkpt lat="49.64542005211115" lon="9.219935405999422">
<ele>174.4</ele>
<time>2024-05-09T13:27:29Z</time>
</trkpt>
<trkpt lat="49.64539331384003" lon="9.219931550323963">
<ele>174.4</ele>
<time>2024-05-09T13:27:30Z</time>
</trkpt>
<trkpt lat="49.64537043124437" lon="9.219926772639155">
<ele>174.6</ele>
<time>2024-05-09T13:27:31Z</time>
</trkpt>
<trkpt lat="49.645347548648715" lon="9.219911517575383">
<ele>174.6</ele>
<time>2024-05-09T13:27:32Z</time>
</trkpt>
<trkpt lat="49.64532852172851" lon="9.219895340502262">
<ele>174.6</ele>
<time>2024-05-09T13:27:33Z</time>
</trkpt>
<trkpt lat="49.64529792778194" lon="9.219875307753682">
<ele>174.8</ele>
<time>2024-05-09T13:27:34Z</time>
</trkpt>
<trkpt lat="49.645271273329854" lon="9.219853347167373">
<ele>174.8</ele>
<time>2024-05-09T13:27:35Z</time>
</trkpt>
<trkpt lat="49.64524453505874" lon="9.219836164265873">
<ele>175</ele>
<time>2024-05-09T13:27:36Z</time>
</trkpt>
<trkpt lat="49.64521788060665" lon="9.21981998719275">
<ele>175.2</ele>
<time>2024-05-09T13:27:37Z</time>
</trkpt>
<trkpt lat="49.64518737047911" lon="9.219809509813786">
<ele>175.4</ele>
<time>2024-05-09T13:27:38Z</time>
</trkpt>
<trkpt lat="49.64516063220799" lon="9.219808503985403">
<ele>175.6</ele>
<time>2024-05-09T13:27:39Z</time>
</trkpt>
<trkpt lat="49.64513389393687" lon="9.219808503985403">
<ele>175.8</ele>
<time>2024-05-09T13:27:40Z</time>
</trkpt>
<trkpt lat="49.64511486701667" lon="9.219815209507942">
<ele>175.8</ele>
<time>2024-05-09T13:27:41Z</time>
</trkpt>
<trkpt lat="49.645091984421015" lon="9.21981998719275">
<ele>176</ele>
<time>2024-05-09T13:27:42Z</time>
</trkpt>
<trkpt lat="49.645072873681784" lon="9.219824764877558">
<ele>176</ele>
<time>2024-05-09T13:27:43Z</time>
</trkpt>
<trkpt lat="49.645049991086125" lon="9.219831386581063">
<ele>175.8</ele>
<time>2024-05-09T13:27:44Z</time>
</trkpt>
<trkpt lat="49.645030964165926" lon="9.21984001994133">
<ele>175.8</ele>
<time>2024-05-09T13:27:45Z</time>
</trkpt>
<trkpt lat="49.645011853426695" lon="9.219844797626138">
<ele>175.8</ele>
<time>2024-05-09T13:27:46Z</time>
</trkpt>
<trkpt lat="49.644992826506495" lon="9.219844797626138">
<ele>175.8</ele>
<time>2024-05-09T13:27:47Z</time>
</trkpt>
<trkpt lat="49.644973715767264" lon="9.219842869788408">
<ele>175.8</ele>
<time>2024-05-09T13:27:48Z</time>
</trkpt>
<trkpt lat="49.64495460502803" lon="9.219842869788408">
<ele>175.8</ele>
<time>2024-05-09T13:27:49Z</time>
</trkpt>
<trkpt lat="49.64493934996426" lon="9.219842869788408">
<ele>175.8</ele>
<time>2024-05-09T13:27:50Z</time>
</trkpt>
<trkpt lat="49.64492409490049" lon="9.21984194777906">
<ele>175.8</ele>
<time>2024-05-09T13:27:51Z</time>
</trkpt>
<trkpt lat="49.64490506798029" lon="9.219836164265873">
<ele>175.4</ele>
<time>2024-05-09T13:27:52Z</time>
</trkpt>
<trkpt lat="49.64488595724106" lon="9.219833314418793">
<ele>175.4</ele>
<time>2024-05-09T13:27:53Z</time>
</trkpt>
<trkpt lat="49.6448630746454" lon="9.219828536733983">
<ele>175.2</ele>
<time>2024-05-09T13:27:54Z</time>
</trkpt>
<trkpt lat="49.6448440477252" lon="9.219824764877558">
<ele>175.2</ele>
<time>2024-05-09T13:27:55Z</time>
</trkpt>
<trkpt lat="49.64482493698597" lon="9.21982191503048">
<ele>175.2</ele>
<time>2024-05-09T13:27:56Z</time>
</trkpt>
<trkpt lat="49.64480582624674" lon="9.219815209507942">
<ele>175.2</ele>
<time>2024-05-09T13:27:57Z</time>
</trkpt>
<trkpt lat="49.64478679932654" lon="9.219809509813786">
<ele>175.2</ele>
<time>2024-05-09T13:27:58Z</time>
</trkpt>
<trkpt lat="49.64476768858731" lon="9.219802804291248">
<ele>175.2</ele>
<time>2024-05-09T13:27:59Z</time>
</trkpt>
<trkpt lat="49.644752433523536" lon="9.219793248921633">
<ele>175</ele>
<time>2024-05-09T13:28:00Z</time>
</trkpt>
<trkpt lat="49.644733406603336" lon="9.219784699380398">
<ele>175</ele>
<time>2024-05-09T13:28:01Z</time>
</trkpt>
<trkpt lat="49.64471815153957" lon="9.219773216173053">
<ele>175</ele>
<time>2024-05-09T13:28:02Z</time>
</trkpt>
<trkpt lat="49.64470289647579" lon="9.219766594469547">
<ele>175</ele>
<time>2024-05-09T13:28:03Z</time>
</trkpt>
<trkpt lat="49.64468378573656" lon="9.219763744622467">
<ele>175</ele>
<time>2024-05-09T13:28:04Z</time>
</trkpt>
<trkpt lat="49.6446609031409" lon="9.219757039099932">
<ele>175</ele>
<time>2024-05-09T13:28:05Z</time>
</trkpt>
<trkpt lat="49.64463802054525" lon="9.219753183424473">
<ele>175</ele>
<time>2024-05-09T13:28:06Z</time>
</trkpt>
<trkpt lat="49.64461890980601" lon="9.219746561720967">
<ele>175</ele>
<time>2024-05-09T13:28:07Z</time>
</trkpt>
<trkpt lat="49.644599882885814" lon="9.219744633883238">
<ele>175</ele>
<time>2024-05-09T13:28:08Z</time>
</trkpt>
<trkpt lat="49.64458462782204" lon="9.219744633883238">
<ele>175</ele>
<time>2024-05-09T13:28:09Z</time>
</trkpt>
<trkpt lat="49.64458077214658" lon="9.219744633883238">
<ele>175</ele>
<time>2024-05-09T13:28:10Z</time>
</trkpt>
<trkpt lat="49.644577000290155" lon="9.219743711873887">
<ele>175</ele>
<time>2024-05-09T13:28:11Z</time>
</trkpt>
<trkpt lat="49.644577000290155" lon="9.21974178403616">
<ele>175</ele>
<time>2024-05-09T13:28:12Z</time>
</trkpt>
<trkpt lat="49.644577000290155" lon="9.21973985619843">
<ele>174.8</ele>
<time>2024-05-09T13:28:13Z</time>
</trkpt>
<trkpt lat="49.6445731446147" lon="9.219735078513622">
<ele>174.8</ele>
<time>2024-05-09T13:28:20Z</time>
</trkpt>
<trkpt lat="49.64456937275827" lon="9.219733234494925">
<ele>174.8</ele>
<time>2024-05-09T13:28:22Z</time>
</trkpt>
<trkpt lat="49.64456937275827" lon="9.219731306657197">
<ele>174.6</ele>
<time>2024-05-09T13:28:23Z</time>
</trkpt>
<trkpt lat="49.64456551708281" lon="9.219731306657197">
<ele>174.4</ele>
<time>2024-05-09T13:28:24Z</time>
</trkpt>
<trkpt lat="49.64456551708281" lon="9.219730300828816">
<ele>174.4</ele>
<time>2024-05-09T13:28:26Z</time>
</trkpt>
<trkpt lat="49.64456551708281" lon="9.219728456810117">
<ele>174.2</ele>
<time>2024-05-09T13:28:30Z</time>
</trkpt>
<trkpt lat="49.64456551708281" lon="9.219726528972387">
<ele>174</ele>
<time>2024-05-09T13:28:31Z</time>
</trkpt>
<trkpt lat="49.64456551708281" lon="9.219724601134658">
<ele>173.8</ele>
<time>2024-05-09T13:28:33Z</time>
</trkpt>
<trkpt lat="49.64456174522638" lon="9.21971982344985">
<ele>173.6</ele>
<time>2024-05-09T13:28:34Z</time>
</trkpt>
<trkpt lat="49.64455788955093" lon="9.219716973602772">
<ele>173.4</ele>
<time>2024-05-09T13:28:35Z</time>
</trkpt>
<trkpt lat="49.6445541176945" lon="9.219715045765042">
<ele>173.2</ele>
<time>2024-05-09T13:28:36Z</time>
</trkpt>
<trkpt lat="49.6445541176945" lon="9.219713201746345">
<ele>173</ele>
<time>2024-05-09T13:28:37Z</time>
</trkpt>
<trkpt lat="49.6445541176945" lon="9.219711273908615">
<ele>173</ele>
<time>2024-05-09T13:28:38Z</time>
</trkpt>
<trkpt lat="49.64454263448715" lon="9.219706496223807">
<ele>172.8</ele>
<time>2024-05-09T13:28:39Z</time>
</trkpt>
<trkpt lat="49.644535006955266" lon="9.219710268080236">
<ele>172.8</ele>
<time>2024-05-09T13:28:40Z</time>
</trkpt>
<trkpt lat="49.64453123509884" lon="9.219716973602772">
<ele>172.6</ele>
<time>2024-05-09T13:28:41Z</time>
</trkpt>
<trkpt lat="49.64453123509884" lon="9.219717979431152">
<ele>172.6</ele>
<time>2024-05-09T13:28:42Z</time>
</trkpt>
<trkpt lat="49.64453123509884" lon="9.219716973602772">
<ele>172.6</ele>
<time>2024-05-09T13:28:43Z</time>
</trkpt>
<trkpt lat="49.64453123509884" lon="9.219715045765042">
<ele>172.2</ele>
<time>2024-05-09T13:28:44Z</time>
</trkpt>
<trkpt lat="49.64453123509884" lon="9.219713201746345">
<ele>172</ele>
<time>2024-05-09T13:28:45Z</time>
</trkpt>
<trkpt lat="49.644535006955266" lon="9.219713201746345">
<ele>172</ele>
<time>2024-05-09T13:28:46Z</time>
</trkpt>
<trkpt lat="49.64453123509884" lon="9.219711273908615">
<ele>172</ele>
<time>2024-05-09T13:28:47Z</time>
</trkpt>
<trkpt lat="49.64452737942338" lon="9.219711273908615">
<ele>172</ele>
<time>2024-05-09T13:28:48Z</time>
</trkpt>
<trkpt lat="49.64452360756695" lon="9.219711273908615">
<ele>172</ele>
<time>2024-05-09T13:28:49Z</time>
</trkpt>
<trkpt lat="49.64451598003507" lon="9.219713201746345">
<ele>172.2</ele>
<time>2024-05-09T13:28:50Z</time>
</trkpt>
<trkpt lat="49.64450835250318" lon="9.219715045765042">
<ele>172.2</ele>
<time>2024-05-09T13:28:51Z</time>
</trkpt>
<trkpt lat="49.64450449682772" lon="9.21972175128758">
<ele>172.2</ele>
<time>2024-05-09T13:28:52Z</time>
</trkpt>
<trkpt lat="49.644496869295835" lon="9.219726528972387">
<ele>172.4</ele>
<time>2024-05-09T13:28:53Z</time>
</trkpt>
<trkpt lat="49.64449309743941" lon="9.219730300828816">
<ele>172.4</ele>
<time>2024-05-09T13:28:54Z</time>
</trkpt>
<trkpt lat="49.64448546990752" lon="9.219731306657197">
<ele>172.4</ele>
<time>2024-05-09T13:28:55Z</time>
</trkpt>
<trkpt lat="49.64448161423206" lon="9.219733234494925">
<ele>172.6</ele>
<time>2024-05-09T13:28:56Z</time>
</trkpt>
<trkpt lat="49.64447784237563" lon="9.219735078513622">
<ele>172.6</ele>
<time>2024-05-09T13:28:57Z</time>
</trkpt>
<trkpt lat="49.64448161423206" lon="9.219737006351352">
<ele>172.8</ele>
<time>2024-05-09T13:28:58Z</time>
</trkpt>
<trkpt lat="49.64448161423206" lon="9.2197379283607">
<ele>173</ele>
<time>2024-05-09T13:29:03Z</time>
</trkpt>
<trkpt lat="49.64448161423206" lon="9.21973985619843">
<ele>173</ele>
<time>2024-05-09T13:29:04Z</time>
</trkpt>
<trkpt lat="49.64448546990752" lon="9.21973985619843">
<ele>173.2</ele>
<time>2024-05-09T13:29:05Z</time>
</trkpt>
<trkpt lat="49.64448546990752" lon="9.2197379283607">
<ele>173.4</ele>
<time>2024-05-09T13:29:06Z</time>
</trkpt>
<trkpt lat="49.64448924176395" lon="9.2197379283607">
<ele>173.6</ele>
<time>2024-05-09T13:29:08Z</time>
</trkpt>
<trkpt lat="49.64449309743941" lon="9.21973985619843">
<ele>173.8</ele>
<time>2024-05-09T13:29:09Z</time>
</trkpt>
<trkpt lat="49.64449309743941" lon="9.2197379283607">
<ele>174</ele>
<time>2024-05-09T13:29:10Z</time>
</trkpt>
<trkpt lat="49.644500724971294" lon="9.2197379283607">
<ele>174.2</ele>
<time>2024-05-09T13:29:12Z</time>
</trkpt>
<trkpt lat="49.644500724971294" lon="9.21973985619843">
<ele>174.4</ele>
<time>2024-05-09T13:29:13Z</time>
</trkpt>
<trkpt lat="49.64450835250318" lon="9.2197379283607">
<ele>174.4</ele>
<time>2024-05-09T13:29:15Z</time>
</trkpt>
<trkpt lat="49.644519751891494" lon="9.219733234494925">
<ele>174.6</ele>
<time>2024-05-09T13:29:16Z</time>
</trkpt>
<trkpt lat="49.64453123509884" lon="9.219731306657197">
<ele>174.8</ele>
<time>2024-05-09T13:29:17Z</time>
</trkpt>
<trkpt lat="49.644538862630725" lon="9.219726528972387">
<ele>175</ele>
<time>2024-05-09T13:29:18Z</time>
</trkpt>
<trkpt lat="49.64454649016261" lon="9.219723679125307">
<ele>175</ele>
<time>2024-05-09T13:29:19Z</time>
</trkpt>
<trkpt lat="49.6445541176945" lon="9.21971982344985">
<ele>175.2</ele>
<time>2024-05-09T13:29:20Z</time>
</trkpt>
<trkpt lat="49.64456174522638" lon="9.219717979431152">
<ele>175.4</ele>
<time>2024-05-09T13:29:21Z</time>
</trkpt>
<trkpt lat="49.64456174522638" lon="9.219716973602772">
<ele>175.4</ele>
<time>2024-05-09T13:29:22Z</time>
</trkpt>
<trkpt lat="49.64456551708281" lon="9.219713201746345">
<ele>175.6</ele>
<time>2024-05-09T13:29:24Z</time>
</trkpt>
<trkpt lat="49.64456937275827" lon="9.219711273908615">
<ele>175.6</ele>
<time>2024-05-09T13:29:26Z</time>
</trkpt>
<trkpt lat="49.64456937275827" lon="9.219708424061537">
<ele>175.8</ele>
<time>2024-05-09T13:29:28Z</time>
</trkpt>
<trkpt lat="49.64456551708281" lon="9.219710268080236">
<ele>175.8</ele>
<time>2024-05-09T13:29:31Z</time>
</trkpt>
<trkpt lat="49.64456551708281" lon="9.219708424061537">
<ele>175.8</ele>
<time>2024-05-09T13:29:33Z</time>
</trkpt>
<trkpt lat="49.64456174522638" lon="9.219704568386078">
<ele>175.8</ele>
<time>2024-05-09T13:29:34Z</time>
</trkpt>
<trkpt lat="49.64456174522638" lon="9.219703646376727">
<ele>175.8</ele>
<time>2024-05-09T13:29:35Z</time>
</trkpt>
<trkpt lat="49.64456551708281" lon="9.219695013016462">
<ele>175.8</ele>
<time>2024-05-09T13:29:36Z</time>
</trkpt>
<trkpt lat="49.64456551708281" lon="9.219690319150686">
<ele>175.6</ele>
<time>2024-05-09T13:29:37Z</time>
</trkpt>
<trkpt lat="49.64456551708281" lon="9.219686463475227">
<ele>175.6</ele>
<time>2024-05-09T13:29:38Z</time>
</trkpt>
<trkpt lat="49.64456174522638" lon="9.219683613628147">
<ele>175.4</ele>
<time>2024-05-09T13:29:39Z</time>
</trkpt>
<trkpt lat="49.64456174522638" lon="9.21967975795269">
<ele>175.2</ele>
<time>2024-05-09T13:29:40Z</time>
</trkpt>
<trkpt lat="49.64456551708281" lon="9.219675064086914">
<ele>175.2</ele>
<time>2024-05-09T13:29:41Z</time>
</trkpt>
<trkpt lat="49.6445731446147" lon="9.219668358564377">
<ele>175</ele>
<time>2024-05-09T13:29:42Z</time>
</trkpt>
<trkpt lat="49.6445731446147" lon="9.219650253653526">
<ele>174.8</ele>
<time>2024-05-09T13:29:43Z</time>
</trkpt>
<trkpt lat="49.6445731446147" lon="9.219614965841174">
<ele>174.8</ele>
<time>2024-05-09T13:29:44Z</time>
</trkpt>
<trkpt lat="49.64456174522638" lon="9.21957867220044">
<ele>174.8</ele>
<time>2024-05-09T13:29:45Z</time>
</trkpt>
<trkpt lat="49.64454649016261" lon="9.219556795433164">
<ele>174.8</ele>
<time>2024-05-09T13:29:46Z</time>
</trkpt>
<trkpt lat="49.64453123509884" lon="9.219514802098274">
<ele>174.8</ele>
<time>2024-05-09T13:29:47Z</time>
</trkpt>
<trkpt lat="49.64450835250318" lon="9.219478592276571">
<ele>174.8</ele>
<time>2024-05-09T13:29:48Z</time>
</trkpt>
<trkpt lat="49.64448546990752" lon="9.21944330446422">
<ele>174.6</ele>
<time>2024-05-09T13:29:49Z</time>
</trkpt>
<trkpt lat="49.64446635916829" lon="9.21940323896706">
<ele>174.6</ele>
<time>2024-05-09T13:29:50Z</time>
</trkpt>
<trkpt lat="49.64444347657263" lon="9.219367951154709">
<ele>174.6</ele>
<time>2024-05-09T13:29:51Z</time>
</trkpt>
<trkpt lat="49.64441673830152" lon="9.219347918406129">
<ele>174.8</ele>
<time>2024-05-09T13:29:52Z</time>
</trkpt>
<trkpt lat="49.64439008384943" lon="9.219321180135012">
<ele>174.8</ele>
<time>2024-05-09T13:29:53Z</time>
</trkpt>
<trkpt lat="49.64436720125377" lon="9.21928304247558">
<ele>174.8</ele>
<time>2024-05-09T13:29:54Z</time>
</trkpt>
<trkpt lat="49.64435194619" lon="9.219233505427836">
<ele>174.8</ele>
<time>2024-05-09T13:29:55Z</time>
</trkpt>
<trkpt lat="49.64434809051454" lon="9.21918673440814">
<ele>174.6</ele>
<time>2024-05-09T13:29:56Z</time>
</trkpt>
<trkpt lat="49.644340462982655" lon="9.219141891226172">
<ele>174.6</ele>
<time>2024-05-09T13:29:57Z</time>
</trkpt>
<trkpt lat="49.64433283545077" lon="9.219081876799464">
<ele>174.4</ele>
<time>2024-05-09T13:29:58Z</time>
</trkpt>
<trkpt lat="49.64432520791888" lon="9.219017000868917">
<ele>174.4</ele>
<time>2024-05-09T13:29:59Z</time>
</trkpt>
<trkpt lat="49.64432906359434" lon="9.21895313076675">
<ele>174.2</ele>
<time>2024-05-09T13:30:00Z</time>
</trkpt>
<trkpt lat="49.64433669112623" lon="9.218881549313664">
<ele>174</ele>
<time>2024-05-09T13:30:01Z</time>
</trkpt>
<trkpt lat="49.64434431865811" lon="9.218806196004152">
<ele>174</ele>
<time>2024-05-09T13:30:02Z</time>
</trkpt>
<trkpt lat="49.64435194619" lon="9.21873184852302">
<ele>173.8</ele>
<time>2024-05-09T13:30:03Z</time>
</trkpt>
<trkpt lat="49.64436334557831" lon="9.21865364536643">
<ele>173.6</ele>
<time>2024-05-09T13:30:04Z</time>
</trkpt>
<trkpt lat="49.644382456317544" lon="9.218580219894648">
<ele>173.4</ele>
<time>2024-05-09T13:30:05Z</time>
</trkpt>
<trkpt lat="49.64440148323774" lon="9.218508638441564">
<ele>173.2</ele>
<time>2024-05-09T13:30:06Z</time>
</trkpt>
<trkpt lat="49.644420593976974" lon="9.21843621879816">
<ele>173.2</ele>
<time>2024-05-09T13:30:07Z</time>
</trkpt>
<trkpt lat="49.644439620897174" lon="9.218373270705342">
<ele>173</ele>
<time>2024-05-09T13:30:08Z</time>
</trkpt>
<trkpt lat="49.644458731636405" lon="9.21831795014441">
<ele>172.8</ele>
<time>2024-05-09T13:30:09Z</time>
</trkpt>
<trkpt lat="49.64447784237563" lon="9.2182597797364">
<ele>172.6</ele>
<time>2024-05-09T13:30:10Z</time>
</trkpt>
<trkpt lat="49.64449309743941" lon="9.21819875948131">
<ele>172.4</ele>
<time>2024-05-09T13:30:11Z</time>
</trkpt>
<trkpt lat="49.64451212435961" lon="9.21814151108265">
<ele>172.2</ele>
<time>2024-05-09T13:30:12Z</time>
</trkpt>
<trkpt lat="49.64452737942338" lon="9.218086190521715">
<ele>172</ele>
<time>2024-05-09T13:30:13Z</time>
</trkpt>
<trkpt lat="49.64454263448715" lon="9.218033719807863">
<ele>172</ele>
<time>2024-05-09T13:30:14Z</time>
</trkpt>
<trkpt lat="49.64455788955093" lon="9.21798133291304">
<ele>172</ele>
<time>2024-05-09T13:30:15Z</time>
</trkpt>
<trkpt lat="49.64456937275827" lon="9.217926934361458">
<ele>171.8</ele>
<time>2024-05-09T13:30:16Z</time>
</trkpt>
<trkpt lat="49.64458077214658" lon="9.217869685962796">
<ele>171.8</ele>
<time>2024-05-09T13:30:17Z</time>
</trkpt>
<trkpt lat="49.64459225535393" lon="9.217818221077325">
<ele>171.6</ele>
<time>2024-05-09T13:30:18Z</time>
</trkpt>
<trkpt lat="49.64460365474224" lon="9.217771450057626">
<ele>171.6</ele>
<time>2024-05-09T13:30:19Z</time>
</trkpt>
<trkpt lat="49.6446265373379" lon="9.217718057334425">
<ele>171.6</ele>
<time>2024-05-09T13:30:20Z</time>
</trkpt>
<trkpt lat="49.6446418762207" lon="9.21766852028668">
<ele>171.6</ele>
<time>2024-05-09T13:30:21Z</time>
</trkpt>
<trkpt lat="49.644657131284475" lon="9.217619821429253">
<ele>171.6</ele>
<time>2024-05-09T13:30:22Z</time>
</trkpt>
<trkpt lat="49.64467238634825" lon="9.217573134228587">
<ele>171.6</ele>
<time>2024-05-09T13:30:23Z</time>
</trkpt>
<trkpt lat="49.64468764141202" lon="9.217531140893698">
<ele>171.4</ele>
<time>2024-05-09T13:30:24Z</time>
</trkpt>
<trkpt lat="49.64469904080033" lon="9.217493003234267">
<ele>171.4</ele>
<time>2024-05-09T13:30:25Z</time>
</trkpt>
<trkpt lat="49.64471052400768" lon="9.217456793412566">
<ele>171.2</ele>
<time>2024-05-09T13:30:26Z</time>
</trkpt>
<trkpt lat="49.64471815153957" lon="9.217426283285022">
<ele>171.2</ele>
<time>2024-05-09T13:30:27Z</time>
</trkpt>
<trkpt lat="49.64472577907145" lon="9.217398623004556">
<ele>171</ele>
<time>2024-05-09T13:30:28Z</time>
</trkpt>
<trkpt lat="49.644733406603336" lon="9.217371884733438">
<ele>170.8</ele>
<time>2024-05-09T13:30:29Z</time>
</trkpt>
<trkpt lat="49.64473717845976" lon="9.217346152290702">
<ele>170.8</ele>
<time>2024-05-09T13:30:30Z</time>
</trkpt>
<trkpt lat="49.64474103413522" lon="9.217314720153809">
<ele>170.6</ele>
<time>2024-05-09T13:30:31Z</time>
</trkpt>
<trkpt lat="49.64474866166711" lon="9.217287059873344">
<ele>170.4</ele>
<time>2024-05-09T13:30:32Z</time>
</trkpt>
<trkpt lat="49.644756289198995" lon="9.217258393764496">
<ele>170.2</ele>
<time>2024-05-09T13:30:33Z</time>
</trkpt>
<trkpt lat="49.64476391673088" lon="9.21722981147468">
<ele>169.8</ele>
<time>2024-05-09T13:30:34Z</time>
</trkpt>
<trkpt lat="49.64477154426277" lon="9.217200223356484">
<ele>169.6</ele>
<time>2024-05-09T13:30:35Z</time>
</trkpt>
<trkpt lat="49.644775316119194" lon="9.217168791219592">
<ele>169.4</ele>
<time>2024-05-09T13:30:36Z</time>
</trkpt>
<trkpt lat="49.644775316119194" lon="9.21712964773178">
<ele>169.2</ele>
<time>2024-05-09T13:30:37Z</time>
</trkpt>
<trkpt lat="49.64477917179465" lon="9.21709151007235">
<ele>169</ele>
<time>2024-05-09T13:30:38Z</time>
</trkpt>
<trkpt lat="49.64477917179465" lon="9.217056222259998">
<ele>168.8</ele>
<time>2024-05-09T13:30:39Z</time>
</trkpt>
<trkpt lat="49.64478294365108" lon="9.217022862285376">
<ele>168.6</ele>
<time>2024-05-09T13:30:40Z</time>
</trkpt>
<trkpt lat="49.644775316119194" lon="9.21699327416718">
<ele>168.4</ele>
<time>2024-05-09T13:30:41Z</time>
</trkpt>
<trkpt lat="49.64477154426277" lon="9.216970391571522">
<ele>168.2</ele>
<time>2024-05-09T13:30:42Z</time>
</trkpt>
<trkpt lat="49.64474866166711" lon="9.216959914192556">
<ele>168</ele>
<time>2024-05-09T13:30:43Z</time>
</trkpt>
<trkpt lat="49.64472577907145" lon="9.21695706434548">
<ele>168</ele>
<time>2024-05-09T13:30:44Z</time>
</trkpt>
<trkpt lat="49.644695268943906" lon="9.21695513650775">
<ele>167.8</ele>
<time>2024-05-09T13:30:45Z</time>
</trkpt>
<trkpt lat="49.64466853067279" lon="9.21695513650775">
<ele>167.8</ele>
<time>2024-05-09T13:30:46Z</time>
</trkpt>
<trkpt lat="49.64463802054525" lon="9.21695513650775">
<ele>167.8</ele>
<time>2024-05-09T13:30:47Z</time>
</trkpt>
<trkpt lat="49.64460365474224" lon="9.216946586966516">
<ele>167.8</ele>
<time>2024-05-09T13:30:48Z</time>
</trkpt>
<trkpt lat="49.64456937275827" lon="9.21693317592144">
<ele>168</ele>
<time>2024-05-09T13:30:49Z</time>
</trkpt>
<trkpt lat="49.644535006955266" lon="9.216924626380203">
<ele>168</ele>
<time>2024-05-09T13:30:50Z</time>
</trkpt>
<trkpt lat="49.64450449682772" lon="9.216917920857668">
<ele>168</ele>
<time>2024-05-09T13:30:51Z</time>
</trkpt>
<trkpt lat="49.64447021484375" lon="9.21691507101059">
<ele>168.2</ele>
<time>2024-05-09T13:30:52Z</time>
</trkpt>
<trkpt lat="49.64443584904075" lon="9.216911299154162">
<ele>168.4</ele>
<time>2024-05-09T13:30:53Z</time>
</trkpt>
<trkpt lat="49.64440148323774" lon="9.216903671622276">
<ele>168.4</ele>
<time>2024-05-09T13:30:54Z</time>
</trkpt>
<trkpt lat="49.64437482878566" lon="9.21689503826201">
<ele>168.8</ele>
<time>2024-05-09T13:30:55Z</time>
</trkpt>
<trkpt lat="49.64434431865811" lon="9.216877855360508">
<ele>169</ele>
<time>2024-05-09T13:30:56Z</time>
</trkpt>
<trkpt lat="49.64431758038699" lon="9.216866455972196">
<ele>169.2</ele>
<time>2024-05-09T13:30:57Z</time>
</trkpt>
<trkpt lat="49.64429084211588" lon="9.216863606125116">
<ele>169.4</ele>
<time>2024-05-09T13:30:58Z</time>
</trkpt>
<trkpt lat="49.644260331988335" lon="9.216859750449656">
<ele>169.6</ele>
<time>2024-05-09T13:30:59Z</time>
</trkpt>
<trkpt lat="49.64423367753625" lon="9.21685497276485">
<ele>169.8</ele>
<time>2024-05-09T13:31:00Z</time>
</trkpt>
<trkpt lat="49.64420693926513" lon="9.21685497276485">
<ele>170</ele>
<time>2024-05-09T13:31:01Z</time>
</trkpt>
<trkpt lat="49.64418028481305" lon="9.216846423223616">
<ele>170.2</ele>
<time>2024-05-09T13:31:02Z</time>
</trkpt>
<trkpt lat="49.64415354654193" lon="9.21683787368238">
<ele>170.2</ele>
<time>2024-05-09T13:31:03Z</time>
</trkpt>
<trkpt lat="49.64412689208984" lon="9.216836867854">
<ele>170.4</ele>
<time>2024-05-09T13:31:04Z</time>
</trkpt>
<trkpt lat="49.64410015381873" lon="9.21683494001627">
<ele>170.4</ele>
<time>2024-05-09T13:31:05Z</time>
</trkpt>
<trkpt lat="49.64406578801572" lon="9.216831168159842">
<ele>170.6</ele>
<time>2024-05-09T13:31:06Z</time>
</trkpt>
<trkpt lat="49.64403913356364" lon="9.21683494001627">
<ele>170.6</ele>
<time>2024-05-09T13:31:07Z</time>
</trkpt>
<trkpt lat="49.64401239529252" lon="9.216836867854">
<ele>170.8</ele>
<time>2024-05-09T13:31:08Z</time>
</trkpt>
<trkpt lat="49.64399336837232" lon="9.216836867854">
<ele>170.8</ele>
<time>2024-05-09T13:31:09Z</time>
</trkpt>
<trkpt lat="49.643981885164976" lon="9.216836867854">
<ele>170.8</ele>
<time>2024-05-09T13:31:10Z</time>
</trkpt>
<trkpt lat="49.64397048577666" lon="9.216831168159842">
<ele>170.8</ele>
<time>2024-05-09T13:31:11Z</time>
</trkpt>
<trkpt lat="49.6439666301012" lon="9.216833095997572">
<ele>170.8</ele>
<time>2024-05-09T13:31:12Z</time>
</trkpt>
<trkpt lat="49.6439666301012" lon="9.216831168159842">
<ele>170.8</ele>
<time>2024-05-09T13:31:13Z</time>
</trkpt>
<trkpt lat="49.64396285824478" lon="9.216826390475036">
<ele>170.8</ele>
<time>2024-05-09T13:31:14Z</time>
</trkpt>
<trkpt lat="49.64395900256932" lon="9.216823540627956">
<ele>170.8</ele>
<time>2024-05-09T13:31:15Z</time>
</trkpt>
<trkpt lat="49.64395523071289" lon="9.216826390475036">
<ele>170.8</ele>
<time>2024-05-09T13:31:16Z</time>
</trkpt>
<trkpt lat="49.643943747505546" lon="9.216830246150494">
<ele>170.6</ele>
<time>2024-05-09T13:31:17Z</time>
</trkpt>
<trkpt lat="49.64393989183009" lon="9.216826390475036">
<ele>170.4</ele>
<time>2024-05-09T13:31:18Z</time>
</trkpt>
<trkpt lat="49.64392849244177" lon="9.216823540627956">
<ele>170.4</ele>
<time>2024-05-09T13:31:19Z</time>
</trkpt>
<trkpt lat="49.64392086490989" lon="9.2168178409338">
<ele>170.2</ele>
<time>2024-05-09T13:31:20Z</time>
</trkpt>
<trkpt lat="49.643913237378" lon="9.216813063248992">
<ele>170</ele>
<time>2024-05-09T13:31:21Z</time>
</trkpt>
<trkpt lat="49.643905609846115" lon="9.216812057420611">
<ele>169.8</ele>
<time>2024-05-09T13:31:22Z</time>
</trkpt>
<trkpt lat="49.64389798231423" lon="9.216806357726457">
<ele>169.8</ele>
<time>2024-05-09T13:31:23Z</time>
</trkpt>
<trkpt lat="49.64388649910688" lon="9.216801580041649">
<ele>169.6</ele>
<time>2024-05-09T13:31:24Z</time>
</trkpt>
<trkpt lat="49.64387509971857" lon="9.216783475130796">
<ele>169.6</ele>
<time>2024-05-09T13:31:25Z</time>
</trkpt>
<trkpt lat="49.643867472186685" lon="9.216783475130796">
<ele>169.4</ele>
<time>2024-05-09T13:31:26Z</time>
</trkpt>
<trkpt lat="49.6438598446548" lon="9.216783475130796">
<ele>169.4</ele>
<time>2024-05-09T13:31:27Z</time>
</trkpt>
<trkpt lat="49.64385598897934" lon="9.216783475130796">
<ele>169.4</ele>
<time>2024-05-09T13:31:28Z</time>
</trkpt>
<trkpt lat="49.64384836144745" lon="9.216783475130796">
<ele>169.4</ele>
<time>2024-05-09T13:31:29Z</time>
</trkpt>
<trkpt lat="49.64384073391557" lon="9.216785402968526">
<ele>169.4</ele>
<time>2024-05-09T13:31:30Z</time>
</trkpt>
<trkpt lat="49.64383310638368" lon="9.216785402968526">
<ele>169.4</ele>
<time>2024-05-09T13:31:31Z</time>
</trkpt>
<trkpt lat="49.643825478851795" lon="9.216783475130796">
<ele>169.6</ele>
<time>2024-05-09T13:31:32Z</time>
</trkpt>
<trkpt lat="49.64381785131991" lon="9.216783475130796">
<ele>169.4</ele>
<time>2024-05-09T13:31:33Z</time>
</trkpt>
<trkpt lat="49.6438064519316" lon="9.216783475130796">
<ele>169.4</ele>
<time>2024-05-09T13:31:34Z</time>
</trkpt>
<trkpt lat="49.64379882439971" lon="9.216781547293069">
<ele>169.4</ele>
<time>2024-05-09T13:31:35Z</time>
</trkpt>
<trkpt lat="49.643791196867824" lon="9.21677970327437">
<ele>169.4</ele>
<time>2024-05-09T13:31:36Z</time>
</trkpt>
<trkpt lat="49.64378356933594" lon="9.21677970327437">
<ele>169.4</ele>
<time>2024-05-09T13:31:37Z</time>
</trkpt>
<trkpt lat="49.64377585798502" lon="9.216778697445989">
<ele>169.4</ele>
<time>2024-05-09T13:31:38Z</time>
</trkpt>
<trkpt lat="49.64377208612859" lon="9.216778697445989">
<ele>169.4</ele>
<time>2024-05-09T13:31:39Z</time>
</trkpt>
<trkpt lat="49.643768230453134" lon="9.216778697445989">
<ele>169.4</ele>
<time>2024-05-09T13:31:40Z</time>
</trkpt>
<trkpt lat="49.64375683106482" lon="9.21677676960826">
<ele>169.4</ele>
<time>2024-05-09T13:31:42Z</time>
</trkpt>
<trkpt lat="49.643749203532934" lon="9.216778697445989">
<ele>169.4</ele>
<time>2024-05-09T13:31:43Z</time>
</trkpt>
<trkpt lat="49.64374157600105" lon="9.216778697445989">
<ele>169.6</ele>
<time>2024-05-09T13:31:44Z</time>
</trkpt>
<trkpt lat="49.6437300927937" lon="9.216778697445989">
<ele>169.6</ele>
<time>2024-05-09T13:31:45Z</time>
</trkpt>
<trkpt lat="49.64372246526182" lon="9.216778697445989">
<ele>170</ele>
<time>2024-05-09T13:31:46Z</time>
</trkpt>
<trkpt lat="49.64371483772993" lon="9.21677970327437">
<ele>170.2</ele>
<time>2024-05-09T13:31:47Z</time>
</trkpt>
<trkpt lat="49.643707210198045" lon="9.21677970327437">
<ele>170.4</ele>
<time>2024-05-09T13:31:48Z</time>
</trkpt>
<trkpt lat="49.64370343834162" lon="9.216781547293069">
<ele>170.6</ele>
<time>2024-05-09T13:31:49Z</time>
</trkpt>
<trkpt lat="49.64369195513427" lon="9.216781547293069">
<ele>170.8</ele>
<time>2024-05-09T13:31:50Z</time>
</trkpt>
<trkpt lat="49.64368432760239" lon="9.216781547293069">
<ele>171</ele>
<time>2024-05-09T13:31:51Z</time>
</trkpt>
<trkpt lat="49.6436767000705" lon="9.216783475130796">
<ele>171</ele>
<time>2024-05-09T13:31:52Z</time>
</trkpt>
<trkpt lat="49.64366530068219" lon="9.216785402968526">
<ele>171.2</ele>
<time>2024-05-09T13:31:53Z</time>
</trkpt>
<trkpt lat="49.64365381747484" lon="9.216790180653334">
<ele>171.2</ele>
<time>2024-05-09T13:31:54Z</time>
</trkpt>
<trkpt lat="49.64364241808653" lon="9.216793030500412">
<ele>171.4</ele>
<time>2024-05-09T13:31:55Z</time>
</trkpt>
<trkpt lat="49.64363479055464" lon="9.21679495833814">
<ele>171.4</ele>
<time>2024-05-09T13:31:56Z</time>
</trkpt>
<trkpt lat="49.64362716302276" lon="9.21679680235684">
<ele>171.4</ele>
<time>2024-05-09T13:31:57Z</time>
</trkpt>
<trkpt lat="49.64361953549087" lon="9.216798730194569">
<ele>171.6</ele>
<time>2024-05-09T13:31:58Z</time>
</trkpt>
<trkpt lat="49.643611907958984" lon="9.21679973602295">
<ele>171.6</ele>
<time>2024-05-09T13:31:59Z</time>
</trkpt>
<trkpt lat="49.643608052283525" lon="9.216801580041649">
<ele>171.6</ele>
<time>2024-05-09T13:32:00Z</time>
</trkpt>
<trkpt lat="49.64360042475164" lon="9.216803507879376">
<ele>171.6</ele>
<time>2024-05-09T13:32:01Z</time>
</trkpt>
<trkpt lat="49.64359656907618" lon="9.216801580041649">
<ele>171.6</ele>
<time>2024-05-09T13:32:02Z</time>
</trkpt>
<trkpt lat="49.643588941544294" lon="9.21679973602295">
<ele>171.6</ele>
<time>2024-05-09T13:32:03Z</time>
</trkpt>
<trkpt lat="49.64358516968787" lon="9.216798730194569">
<ele>171.6</ele>
<time>2024-05-09T13:32:04Z</time>
</trkpt>
<trkpt lat="49.64357368648052" lon="9.216805435717106">
<ele>171.6</ele>
<time>2024-05-09T13:32:05Z</time>
</trkpt>
<trkpt lat="49.64355843141675" lon="9.216813063248992">
<ele>171.6</ele>
<time>2024-05-09T13:32:06Z</time>
</trkpt>
<trkpt lat="49.64354703202844" lon="9.21681499108672">
<ele>171.6</ele>
<time>2024-05-09T13:32:07Z</time>
</trkpt>
<trkpt lat="49.643531776964664" lon="9.216813063248992">
<ele>171.6</ele>
<time>2024-05-09T13:32:08Z</time>
</trkpt>
<trkpt lat="49.64352029375732" lon="9.21681683510542">
<ele>171.6</ele>
<time>2024-05-09T13:32:09Z</time>
</trkpt>
<trkpt lat="49.64351266622543" lon="9.216810213401914">
<ele>171.6</ele>
<time>2024-05-09T13:32:10Z</time>
</trkpt>
<trkpt lat="49.64350126683712" lon="9.216810213401914">
<ele>171.6</ele>
<time>2024-05-09T13:32:11Z</time>
</trkpt>
<trkpt lat="49.643489783629775" lon="9.216810213401914">
<ele>171.6</ele>
<time>2024-05-09T13:32:12Z</time>
</trkpt>
<trkpt lat="49.64348215609789" lon="9.216813063248992">
<ele>171.6</ele>
<time>2024-05-09T13:32:13Z</time>
</trkpt>
<trkpt lat="49.64347838424146" lon="9.21681683510542">
<ele>171.6</ele>
<time>2024-05-09T13:32:14Z</time>
</trkpt>
<trkpt lat="49.643470756709576" lon="9.216821612790229">
<ele>171.8</ele>
<time>2024-05-09T13:32:15Z</time>
</trkpt>
<trkpt lat="49.64346312917769" lon="9.216826390475036">
<ele>171.8</ele>
<time>2024-05-09T13:32:16Z</time>
</trkpt>
<trkpt lat="49.64345927350223" lon="9.216830246150494">
<ele>171.8</ele>
<time>2024-05-09T13:32:17Z</time>
</trkpt>
<trkpt lat="49.643451645970345" lon="9.216828318312764">
<ele>171.8</ele>
<time>2024-05-09T13:32:18Z</time>
</trkpt>
<trkpt lat="49.64344401843846" lon="9.216826390475036">
<ele>171.8</ele>
<time>2024-05-09T13:32:19Z</time>
</trkpt>
<trkpt lat="49.64344401843846" lon="9.2168178409338">
<ele>171.8</ele>
<time>2024-05-09T13:32:20Z</time>
</trkpt>
<trkpt lat="49.64344401843846" lon="9.216813063248992">
<ele>171.8</ele>
<time>2024-05-09T13:32:21Z</time>
</trkpt>
<trkpt lat="49.64344024658203" lon="9.216806357726457">
<ele>171.8</ele>
<time>2024-05-09T13:32:22Z</time>
</trkpt>
<trkpt lat="49.64343639090657" lon="9.216805435717106">
<ele>171.8</ele>
<time>2024-05-09T13:32:24Z</time>
</trkpt>
<trkpt lat="49.64343639090657" lon="9.216801580041649">
<ele>171.8</ele>
<time>2024-05-09T13:32:25Z</time>
</trkpt>
<trkpt lat="49.64343639090657" lon="9.216803507879376">
<ele>171.8</ele>
<time>2024-05-09T13:32:26Z</time>
</trkpt>
<trkpt lat="49.64343639090657" lon="9.216805435717106">
<ele>171.8</ele>
<time>2024-05-09T13:32:29Z</time>
</trkpt>
<trkpt lat="49.64343639090657" lon="9.216806357726457">
<ele>172</ele>
<time>2024-05-09T13:32:31Z</time>
</trkpt>
<trkpt lat="49.64343639090657" lon="9.216808285564184">
<ele>172</ele>
<time>2024-05-09T13:32:32Z</time>
</trkpt>
<trkpt lat="49.64344024658203" lon="9.216806357726457">
<ele>172.2</ele>
<time>2024-05-09T13:32:33Z</time>
</trkpt>
<trkpt lat="49.64344024658203" lon="9.216808285564184">
<ele>172.2</ele>
<time>2024-05-09T13:32:38Z</time>
</trkpt>
<trkpt lat="49.64344401843846" lon="9.216808285564184">
<ele>172.2</ele>
<time>2024-05-09T13:32:40Z</time>
</trkpt>
<trkpt lat="49.64344401843846" lon="9.216810213401914">
<ele>172.2</ele>
<time>2024-05-09T13:32:43Z</time>
</trkpt>
<trkpt lat="49.64344787411392" lon="9.216810213401914">
<ele>172</ele>
<time>2024-05-09T13:32:46Z</time>
</trkpt>
<trkpt lat="49.64344787411392" lon="9.216808285564184">
<ele>172</ele>
<time>2024-05-09T13:32:49Z</time>
</trkpt>
<trkpt lat="49.64345927350223" lon="9.216786324977877">
<ele>168.2</ele>
<time>2024-05-09T13:32:52Z</time>
</trkpt>
<trkpt lat="49.64345927350223" lon="9.216785402968526">
<ele>168.2</ele>
<time>2024-05-09T13:32:57Z</time>
</trkpt>
<trkpt lat="49.6434555016458" lon="9.216785402968526">
<ele>168.2</ele>
<time>2024-05-09T13:32:58Z</time>
</trkpt>
<trkpt lat="49.6434555016458" lon="9.216783475130796">
<ele>168.2</ele>
<time>2024-05-09T13:32:59Z</time>
</trkpt>
<trkpt lat="49.6434555016458" lon="9.216781547293069">
<ele>168.2</ele>
<time>2024-05-09T13:33:00Z</time>
</trkpt>
<trkpt lat="49.643451645970345" lon="9.216781547293069">
<ele>168.2</ele>
<time>2024-05-09T13:33:01Z</time>
</trkpt>
<trkpt lat="49.643451645970345" lon="9.21677970327437">
<ele>168.2</ele>
<time>2024-05-09T13:33:03Z</time>
</trkpt>
<trkpt lat="49.643451645970345" lon="9.216778697445989">
<ele>168.2</ele>
<time>2024-05-09T13:33:06Z</time>
</trkpt>
<trkpt lat="49.643451645970345" lon="9.21677676960826">
<ele>168.2</ele>
<time>2024-05-09T13:33:09Z</time>
</trkpt>
<trkpt lat="49.643451645970345" lon="9.21677492558956">
<ele>168.2</ele>
<time>2024-05-09T13:33:10Z</time>
</trkpt>
<trkpt lat="49.643451645970345" lon="9.216772997751832">
<ele>168.2</ele>
<time>2024-05-09T13:33:14Z</time>
</trkpt>
<trkpt lat="49.6434555016458" lon="9.216772997751832">
<ele>168.2</ele>
<time>2024-05-09T13:33:22Z</time>
</trkpt>
<trkpt lat="49.64345927350223" lon="9.21677492558956">
<ele>168.2</ele>
<time>2024-05-09T13:33:32Z</time>
</trkpt>
<trkpt lat="49.64345927350223" lon="9.21677676960826">
<ele>168.2</ele>
<time>2024-05-09T13:33:36Z</time>
</trkpt>
<trkpt lat="49.64345927350223" lon="9.216778697445989">
<ele>168.2</ele>
<time>2024-05-09T13:33:41Z</time>
</trkpt>
<trkpt lat="49.64345927350223" lon="9.21677970327437">
<ele>168.2</ele>
<time>2024-05-09T13:33:44Z</time>
</trkpt>
<trkpt lat="49.64346312917769" lon="9.21677970327437">
<ele>168.2</ele>
<time>2024-05-09T13:33:47Z</time>
</trkpt>
<trkpt lat="49.64346312917769" lon="9.216781547293069">
<ele>168.2</ele>
<time>2024-05-09T13:33:48Z</time>
</trkpt>
<trkpt lat="49.64346312917769" lon="9.216783475130796">
<ele>168.2</ele>
<time>2024-05-09T13:33:54Z</time>
</trkpt>
<trkpt lat="49.64346312917769" lon="9.216788252815604">
<ele>168.2</ele>
<time>2024-05-09T13:34:02Z</time>
</trkpt>
<trkpt lat="49.64346690103412" lon="9.216792024672031">
<ele>168.2</ele>
<time>2024-05-09T13:34:03Z</time>
</trkpt>
<trkpt lat="49.64346690103412" lon="9.21679495833814">
<ele>168.2</ele>
<time>2024-05-09T13:34:04Z</time>
</trkpt>
<trkpt lat="49.643470756709576" lon="9.216798730194569">
<ele>168.2</ele>
<time>2024-05-09T13:34:05Z</time>
</trkpt>
<trkpt lat="49.643470756709576" lon="9.216803507879376">
<ele>168.2</ele>
<time>2024-05-09T13:34:06Z</time>
</trkpt>
<trkpt lat="49.643470756709576" lon="9.216808285564184">
<ele>168.2</ele>
<time>2024-05-09T13:34:07Z</time>
</trkpt>
<trkpt lat="49.64346690103412" lon="9.216812057420611">
<ele>168.2</ele>
<time>2024-05-09T13:34:08Z</time>
</trkpt>
<trkpt lat="49.64346690103412" lon="9.21681499108672">
<ele>168.2</ele>
<time>2024-05-09T13:34:09Z</time>
</trkpt>
<trkpt lat="49.64346312917769" lon="9.21681683510542">
<ele>168.2</ele>
<time>2024-05-09T13:34:10Z</time>
</trkpt>
<trkpt lat="49.64346312917769" lon="9.2168178409338">
<ele>168.2</ele>
<time>2024-05-09T13:34:11Z</time>
</trkpt>
<trkpt lat="49.64345927350223" lon="9.216823540627956">
<ele>168.2</ele>
<time>2024-05-09T13:34:12Z</time>
</trkpt>
<trkpt lat="49.6434555016458" lon="9.216824462637303">
<ele>168.2</ele>
<time>2024-05-09T13:34:13Z</time>
</trkpt>
<trkpt lat="49.643451645970345" lon="9.216826390475036">
<ele>168.2</ele>
<time>2024-05-09T13:34:14Z</time>
</trkpt>
<trkpt lat="49.64344787411392" lon="9.216828318312764">
<ele>168.2</ele>
<time>2024-05-09T13:34:15Z</time>
</trkpt>
<trkpt lat="49.64344024658203" lon="9.216828318312764">
<ele>168.2</ele>
<time>2024-05-09T13:34:16Z</time>
</trkpt>
<trkpt lat="49.64343639090657" lon="9.216830246150494">
<ele>168.2</ele>
<time>2024-05-09T13:34:18Z</time>
</trkpt>
<trkpt lat="49.643428763374686" lon="9.216830246150494">
<ele>168.2</ele>
<time>2024-05-09T13:34:19Z</time>
</trkpt>
<trkpt lat="49.64342490769923" lon="9.216830246150494">
<ele>168.2</ele>
<time>2024-05-09T13:34:20Z</time>
</trkpt>
<trkpt lat="49.64342490769923" lon="9.216831168159842">
<ele>168.2</ele>
<time>2024-05-09T13:34:21Z</time>
</trkpt>
<trkpt lat="49.64342490769923" lon="9.216833095997572">
<ele>168.2</ele>
<time>2024-05-09T13:34:22Z</time>
</trkpt>
<trkpt lat="49.6434211358428" lon="9.216836867854">
<ele>168.2</ele>
<time>2024-05-09T13:34:23Z</time>
</trkpt>
<trkpt lat="49.6434211358428" lon="9.21683494001627">
<ele>168.2</ele>
<time>2024-05-09T13:34:25Z</time>
</trkpt>
<trkpt lat="49.64341728016734" lon="9.21683494001627">
<ele>168.2</ele>
<time>2024-05-09T13:34:26Z</time>
</trkpt>
<trkpt lat="49.64341728016734" lon="9.216833095997572">
<ele>168.2</ele>
<time>2024-05-09T13:34:27Z</time>
</trkpt>
<trkpt lat="49.64341728016734" lon="9.216831168159842">
<ele>168.2</ele>
<time>2024-05-09T13:34:30Z</time>
</trkpt>
<trkpt lat="49.643413508310914" lon="9.216830246150494">
<ele>168.2</ele>
<time>2024-05-09T13:34:32Z</time>
</trkpt>
<trkpt lat="49.643413508310914" lon="9.216828318312764">
<ele>168.2</ele>
<time>2024-05-09T13:34:33Z</time>
</trkpt>
<trkpt lat="49.643413508310914" lon="9.216826390475036">
<ele>168.2</ele>
<time>2024-05-09T13:34:35Z</time>
</trkpt>
<trkpt lat="49.643409652635455" lon="9.216824462637303">
<ele>168.2</ele>
<time>2024-05-09T13:34:40Z</time>
</trkpt>
<trkpt lat="49.643413508310914" lon="9.216826390475036">
<ele>168.2</ele>
<time>2024-05-09T13:34:42Z</time>
</trkpt>
<trkpt lat="49.643413508310914" lon="9.216828318312764">
<ele>168.2</ele>
<time>2024-05-09T13:34:43Z</time>
</trkpt>
<trkpt lat="49.643413508310914" lon="9.216830246150494">
<ele>168.2</ele>
<time>2024-05-09T13:34:45Z</time>
</trkpt>
<trkpt lat="49.643413508310914" lon="9.216831168159842">
<ele>168.2</ele>
<time>2024-05-09T13:34:46Z</time>
</trkpt>
<trkpt lat="49.643413508310914" lon="9.216830246150494">
<ele>168.2</ele>
<time>2024-05-09T13:34:47Z</time>
</trkpt>
<trkpt lat="49.643413508310914" lon="9.216831168159842">
<ele>168.2</ele>
<time>2024-05-09T13:34:50Z</time>
</trkpt>
<trkpt lat="49.643413508310914" lon="9.216830246150494">
<ele>168.2</ele>
<time>2024-05-09T13:34:55Z</time>
</trkpt>
<trkpt lat="49.643413508310914" lon="9.216831168159842">
<ele>168.2</ele>
<time>2024-05-09T13:34:57Z</time>
</trkpt>
<trkpt lat="49.643413508310914" lon="9.216830246150494">
<ele>168.2</ele>
<time>2024-05-09T13:34:58Z</time>
</trkpt>
<trkpt lat="49.643413508310914" lon="9.216828318312764">
<ele>168.2</ele>
<time>2024-05-09T13:35:02Z</time>
</trkpt>
<trkpt lat="49.643413508310914" lon="9.216826390475036">
<ele>168.2</ele>
<time>2024-05-09T13:35:11Z</time>
</trkpt>
<trkpt lat="49.643413508310914" lon="9.216824462637303">
<ele>168.2</ele>
<time>2024-05-09T13:35:16Z</time>
</trkpt>
<trkpt lat="49.643413508310914" lon="9.216823540627956">
<ele>168.2</ele>
<time>2024-05-09T13:35:20Z</time>
</trkpt>
<trkpt lat="49.64341728016734" lon="9.216823540627956">
<ele>168.2</ele>
<time>2024-05-09T13:35:25Z</time>
</trkpt>
<trkpt lat="49.643413508310914" lon="9.216823540627956">
<ele>168.2</ele>
<time>2024-05-09T13:35:26Z</time>
</trkpt>
<trkpt lat="49.643413508310914" lon="9.216821612790229">
<ele>168.2</ele>
<time>2024-05-09T13:35:33Z</time>
</trkpt>
<trkpt lat="49.643413508310914" lon="9.216819684952496">
<ele>168.2</ele>
<time>2024-05-09T13:35:41Z</time>
</trkpt>
<trkpt lat="49.643409652635455" lon="9.216819684952496">
<ele>168.2</ele>
<time>2024-05-09T13:35:48Z</time>
</trkpt>
<trkpt lat="49.64340588077903" lon="9.216821612790229">
<ele>168.2</ele>
<time>2024-05-09T13:35:50Z</time>
</trkpt>
<trkpt lat="49.643409652635455" lon="9.216819684952496">
<ele>168.2</ele>
<time>2024-05-09T13:35:51Z</time>
</trkpt>
<trkpt lat="49.643413508310914" lon="9.2168178409338">
<ele>168.2</ele>
<time>2024-05-09T13:35:55Z</time>
</trkpt>
<trkpt lat="49.643409652635455" lon="9.21681683510542">
<ele>168.2</ele>
<time>2024-05-09T13:35:57Z</time>
</trkpt>
<trkpt lat="49.643413508310914" lon="9.2168178409338">
<ele>168.2</ele>
<time>2024-05-09T13:36:00Z</time>
</trkpt>
<trkpt lat="49.643409652635455" lon="9.2168178409338">
<ele>168.2</ele>
<time>2024-05-09T13:36:01Z</time>
</trkpt>
<trkpt lat="49.643409652635455" lon="9.21681683510542">
<ele>168.2</ele>
<time>2024-05-09T13:36:06Z</time>
</trkpt>
<trkpt lat="49.643409652635455" lon="9.2168178409338">
<ele>168.2</ele>
<time>2024-05-09T13:36:09Z</time>
</trkpt>
<trkpt lat="49.643409652635455" lon="9.21681683510542">
<ele>168.2</ele>
<time>2024-05-09T13:36:10Z</time>
</trkpt>
<trkpt lat="49.643409652635455" lon="9.21681499108672">
<ele>168.2</ele>
<time>2024-05-09T13:36:17Z</time>
</trkpt>
<trkpt lat="49.643409652635455" lon="9.216813063248992">
<ele>168.2</ele>
<time>2024-05-09T13:36:27Z</time>
</trkpt>
<trkpt lat="49.643409652635455" lon="9.21681499108672">
<ele>168.2</ele>
<time>2024-05-09T13:36:29Z</time>
</trkpt>
<trkpt lat="49.64340588077903" lon="9.21681499108672">
<ele>168.2</ele>
<time>2024-05-09T13:36:32Z</time>
</trkpt>
<trkpt lat="49.643409652635455" lon="9.21681499108672">
<ele>168.2</ele>
<time>2024-05-09T13:36:36Z</time>
</trkpt>
<trkpt lat="49.64340202510357" lon="9.21681499108672">
<ele>168.2</ele>
<time>2024-05-09T13:36:38Z</time>
</trkpt>
<trkpt lat="49.64339825324714" lon="9.2168178409338">
<ele>168.2</ele>
<time>2024-05-09T13:36:39Z</time>
</trkpt>
<trkpt lat="49.64339439757168" lon="9.216819684952496">
<ele>168.2</ele>
<time>2024-05-09T13:36:40Z</time>
</trkpt>
<trkpt lat="49.643390625715256" lon="9.21681499108672">
<ele>168.2</ele>
<time>2024-05-09T13:36:41Z</time>
</trkpt>
<trkpt lat="49.6433867700398" lon="9.21681499108672">
<ele>168.2</ele>
<time>2024-05-09T13:36:42Z</time>
</trkpt>
<trkpt lat="49.64338299818337" lon="9.21681683510542">
<ele>168.2</ele>
<time>2024-05-09T13:36:43Z</time>
</trkpt>
<trkpt lat="49.64337537065148" lon="9.2168178409338">
<ele>168.2</ele>
<time>2024-05-09T13:36:44Z</time>
</trkpt>
<trkpt lat="49.643371514976025" lon="9.216821612790229">
<ele>168.2</ele>
<time>2024-05-09T13:36:45Z</time>
</trkpt>
<trkpt lat="49.6433677431196" lon="9.216823540627956">
<ele>168.2</ele>
<time>2024-05-09T13:36:46Z</time>
</trkpt>
<trkpt lat="49.64336011558771" lon="9.216826390475036">
<ele>168.2</ele>
<time>2024-05-09T13:36:47Z</time>
</trkpt>
<trkpt lat="49.64336011558771" lon="9.216830246150494">
<ele>168.2</ele>
<time>2024-05-09T13:36:48Z</time>
</trkpt>
<trkpt lat="49.643352488055825" lon="9.21683494001627">
<ele>168.2</ele>
<time>2024-05-09T13:36:49Z</time>
</trkpt>
<trkpt lat="49.643348632380366" lon="9.216839717701076">
<ele>168.2</ele>
<time>2024-05-09T13:36:50Z</time>
</trkpt>
<trkpt lat="49.64334486052394" lon="9.216841645538809">
<ele>168.2</ele>
<time>2024-05-09T13:36:51Z</time>
</trkpt>
<trkpt lat="49.64334486052394" lon="9.216843573376536">
<ele>168.2</ele>
<time>2024-05-09T13:36:52Z</time>
</trkpt>
<trkpt lat="49.64334486052394" lon="9.216844495385883">
<ele>168.2</ele>
<time>2024-05-09T13:36:53Z</time>
</trkpt>
<trkpt lat="49.64334100484848" lon="9.216843573376536">
<ele>168.2</ele>
<time>2024-05-09T13:36:54Z</time>
</trkpt>
<trkpt lat="49.64334100484848" lon="9.216841645538809">
<ele>168.2</ele>
<time>2024-05-09T13:36:55Z</time>
</trkpt>
<trkpt lat="49.64334100484848" lon="9.216843573376536">
<ele>168.2</ele>
<time>2024-05-09T13:36:56Z</time>
</trkpt>
<trkpt lat="49.64333723299205" lon="9.216843573376536">
<ele>168.2</ele>
<time>2024-05-09T13:36:57Z</time>
</trkpt>
<trkpt lat="49.643333377316594" lon="9.216848351061344">
<ele>168.2</ele>
<time>2024-05-09T13:36:58Z</time>
</trkpt>
<trkpt lat="49.64332574978471" lon="9.216851200908422">
<ele>168.2</ele>
<time>2024-05-09T13:36:59Z</time>
</trkpt>
<trkpt lat="49.64331812225282" lon="9.21685690060258">
<ele>168.2</ele>
<time>2024-05-09T13:37:00Z</time>
</trkpt>
<trkpt lat="49.643310494720936" lon="9.216859750449656">
<ele>168.2</ele>
<time>2024-05-09T13:37:01Z</time>
</trkpt>
<trkpt lat="49.64330286718905" lon="9.216868383809924">
<ele>168.2</ele>
<time>2024-05-09T13:37:02Z</time>
</trkpt>
<trkpt lat="49.643291467800736" lon="9.216888416558504">
<ele>168.2</ele>
<time>2024-05-09T13:37:03Z</time>
</trkpt>
<trkpt lat="49.64328384026885" lon="9.216904593631623">
<ele>168.2</ele>
<time>2024-05-09T13:37:04Z</time>
</trkpt>
<trkpt lat="49.64327621273696" lon="9.21691507101059">
<ele>168.2</ele>
<time>2024-05-09T13:37:05Z</time>
</trkpt>
<trkpt lat="49.64326858520508" lon="9.216917920857668">
<ele>168.2</ele>
<time>2024-05-09T13:37:06Z</time>
</trkpt>
<trkpt lat="49.64326087385416" lon="9.216921776533129">
<ele>168.2</ele>
<time>2024-05-09T13:37:07Z</time>
</trkpt>
<trkpt lat="49.643253246322274" lon="9.216926554217936">
<ele>168.2</ele>
<time>2024-05-09T13:37:08Z</time>
</trkpt>
<trkpt lat="49.64324947446585" lon="9.216931331902742">
<ele>168.2</ele>
<time>2024-05-09T13:37:09Z</time>
</trkpt>
<trkpt lat="49.64324184693396" lon="9.2169370315969">
<ele>168.2</ele>
<time>2024-05-09T13:37:10Z</time>
</trkpt>
<trkpt lat="49.643230363726616" lon="9.216941809281709">
<ele>168.2</ele>
<time>2024-05-09T13:37:11Z</time>
</trkpt>
<trkpt lat="49.64322273619473" lon="9.216946586966516">
<ele>168.2</ele>
<time>2024-05-09T13:37:12Z</time>
</trkpt>
<trkpt lat="49.64321510866285" lon="9.21695320867002">
<ele>168.2</ele>
<time>2024-05-09T13:37:13Z</time>
</trkpt>
<trkpt lat="49.64320748113096" lon="9.216961842030289">
<ele>168.2</ele>
<time>2024-05-09T13:37:14Z</time>
</trkpt>
<trkpt lat="49.64319608174264" lon="9.216971397399902">
<ele>168.2</ele>
<time>2024-05-09T13:37:15Z</time>
</trkpt>
<trkpt lat="49.64318845421076" lon="9.216986652463676">
<ele>168.2</ele>
<time>2024-05-09T13:37:16Z</time>
</trkpt>
<trkpt lat="49.64318082667887" lon="9.217001907527449">
<ele>168.2</ele>
<time>2024-05-09T13:37:17Z</time>
</trkpt>
<trkpt lat="49.64317697100341" lon="9.21701523475349">
<ele>168.2</ele>
<time>2024-05-09T13:37:18Z</time>
</trkpt>
<trkpt lat="49.64318082667887" lon="9.217036189511418">
<ele>168.2</ele>
<time>2024-05-09T13:37:19Z</time>
</trkpt>
<trkpt lat="49.6431845985353" lon="9.217058150097728">
<ele>168.2</ele>
<time>2024-05-09T13:37:20Z</time>
</trkpt>
<trkpt lat="49.64318845421076" lon="9.217078182846308">
<ele>168.2</ele>
<time>2024-05-09T13:37:21Z</time>
</trkpt>
<trkpt lat="49.64319608174264" lon="9.217096287757158">
<ele>168.2</ele>
<time>2024-05-09T13:37:22Z</time>
</trkpt>
<trkpt lat="49.64319985359907" lon="9.21711347065866">
<ele>168.2</ele>
<time>2024-05-09T13:37:23Z</time>
</trkpt>
<trkpt lat="49.64320370927453" lon="9.21713350340724">
<ele>168.2</ele>
<time>2024-05-09T13:37:24Z</time>
</trkpt>
<trkpt lat="49.64320748113096" lon="9.21715353615582">
<ele>168.2</ele>
<time>2024-05-09T13:37:25Z</time>
</trkpt>
<trkpt lat="49.64321133680642" lon="9.21716971322894">
<ele>168.2</ele>
<time>2024-05-09T13:37:26Z</time>
</trkpt>
<trkpt lat="49.64321510866285" lon="9.217186896130444">
<ele>168.2</ele>
<time>2024-05-09T13:37:27Z</time>
</trkpt>
<trkpt lat="49.6432189643383" lon="9.217201229184866">
<ele>168.2</ele>
<time>2024-05-09T13:37:28Z</time>
</trkpt>
<trkpt lat="49.64322273619473" lon="9.217218328267336">
<ele>168.2</ele>
<time>2024-05-09T13:37:29Z</time>
</trkpt>
<trkpt lat="49.64322273619473" lon="9.217236516997218">
<ele>168.2</ele>
<time>2024-05-09T13:37:30Z</time>
</trkpt>
<trkpt lat="49.64322659187019" lon="9.217254621908069">
<ele>168.2</ele>
<time>2024-05-09T13:37:31Z</time>
</trkpt>
<trkpt lat="49.64322659187019" lon="9.21727180480957">
<ele>168.2</ele>
<time>2024-05-09T13:37:32Z</time>
</trkpt>
<trkpt lat="49.64322659187019" lon="9.217285132035611">
<ele>168.2</ele>
<time>2024-05-09T13:37:33Z</time>
</trkpt>
<trkpt lat="49.643234219402075" lon="9.217298459261656">
<ele>168.2</ele>
<time>2024-05-09T13:37:34Z</time>
</trkpt>
<trkpt lat="49.6432379912585" lon="9.217308014631271">
<ele>168.2</ele>
<time>2024-05-09T13:37:35Z</time>
</trkpt>
<trkpt lat="49.643234219402075" lon="9.217318492010236">
<ele>168.2</ele>
<time>2024-05-09T13:37:36Z</time>
</trkpt>
<trkpt lat="49.643234219402075" lon="9.21732704155147">
<ele>168.2</ele>
<time>2024-05-09T13:37:37Z</time>
</trkpt>
<trkpt lat="49.643230363726616" lon="9.21732997521758">
<ele>168.2</ele>
<time>2024-05-09T13:37:38Z</time>
</trkpt>
<trkpt lat="49.643230363726616" lon="9.217336596921086">
<ele>168.2</ele>
<time>2024-05-09T13:37:39Z</time>
</trkpt>
<trkpt lat="49.64322659187019" lon="9.217345230281351">
<ele>168.2</ele>
<time>2024-05-09T13:37:40Z</time>
</trkpt>
<trkpt lat="49.64322273619473" lon="9.21735285781324">
<ele>168.2</ele>
<time>2024-05-09T13:37:41Z</time>
</trkpt>
<trkpt lat="49.64322273619473" lon="9.217365263029931">
<ele>168.2</ele>
<time>2024-05-09T13:37:42Z</time>
</trkpt>
<trkpt lat="49.64322273619473" lon="9.217376662418246">
<ele>168.2</ele>
<time>2024-05-09T13:37:43Z</time>
</trkpt>
<trkpt lat="49.6432189643383" lon="9.217388145625591">
<ele>168.2</ele>
<time>2024-05-09T13:37:44Z</time>
</trkpt>
<trkpt lat="49.6432189643383" lon="9.217396695166826">
<ele>168.2</ele>
<time>2024-05-09T13:37:45Z</time>
</trkpt>
<trkpt lat="49.6432189643383" lon="9.217401472851634">
<ele>168.2</ele>
<time>2024-05-09T13:37:46Z</time>
</trkpt>
<trkpt lat="49.64322273619473" lon="9.217401472851634">
<ele>168.2</ele>
<time>2024-05-09T13:37:47Z</time>
</trkpt>
<trkpt lat="49.64322273619473" lon="9.217406250536442">
<ele>168.2</ele>
<time>2024-05-09T13:37:48Z</time>
</trkpt>
<trkpt lat="49.64322273619473" lon="9.217411950230598">
<ele>168.2</ele>
<time>2024-05-09T13:37:49Z</time>
</trkpt>
<trkpt lat="49.64322273619473" lon="9.217414800077677">
<ele>168.2</ele>
<time>2024-05-09T13:37:50Z</time>
</trkpt>
<trkpt lat="49.64322273619473" lon="9.217416727915406">
<ele>168.2</ele>
<time>2024-05-09T13:37:52Z</time>
</trkpt>
<trkpt lat="49.64322659187019" lon="9.21742812730372">
<ele>168.2</ele>
<time>2024-05-09T13:37:53Z</time>
</trkpt>
<trkpt lat="49.643230363726616" lon="9.217446316033602">
<ele>168.2</ele>
<time>2024-05-09T13:37:54Z</time>
</trkpt>
<trkpt lat="49.6432379912585" lon="9.217466348782182">
<ele>168.2</ele>
<time>2024-05-09T13:37:55Z</time>
</trkpt>
<trkpt lat="49.6432379912585" lon="9.21748822554946">
<ele>168.2</ele>
<time>2024-05-09T13:37:56Z</time>
</trkpt>
<trkpt lat="49.64324561879039" lon="9.217516891658306">
<ele>168.2</ele>
<time>2024-05-09T13:37:57Z</time>
</trkpt>
<trkpt lat="49.643253246322274" lon="9.217550251632929">
<ele>168.2</ele>
<time>2024-05-09T13:37:58Z</time>
</trkpt>
<trkpt lat="49.643253246322274" lon="9.217583611607552">
<ele>168.2</ele>
<time>2024-05-09T13:37:59Z</time>
</trkpt>
<trkpt lat="49.64324947446585" lon="9.217613199725749">
<ele>168.2</ele>
<time>2024-05-09T13:38:00Z</time>
</trkpt>
<trkpt lat="49.64324947446585" lon="9.217637004330754">
<ele>168.2</ele>
<time>2024-05-09T13:38:01Z</time>
</trkpt>
<trkpt lat="49.643253246322274" lon="9.21764463186264">
<ele>168.2</ele>
<time>2024-05-09T13:38:02Z</time>
</trkpt>
<trkpt lat="49.64325710199773" lon="9.21764655970037">
<ele>168.2</ele>
<time>2024-05-09T13:38:08Z</time>
</trkpt>
<trkpt lat="49.64325710199773" lon="9.2176484875381">
<ele>168.2</ele>
<time>2024-05-09T13:38:11Z</time>
</trkpt>
<trkpt lat="49.64325710199773" lon="9.217650331556795">
<ele>168.2</ele>
<time>2024-05-09T13:38:12Z</time>
</trkpt>
<trkpt lat="49.64325710199773" lon="9.217651337385178">
<ele>168.2</ele>
<time>2024-05-09T13:38:14Z</time>
</trkpt>
<trkpt lat="49.64326087385416" lon="9.217653265222909">
<ele>168.2</ele>
<time>2024-05-09T13:38:23Z</time>
</trkpt>
<trkpt lat="49.64325710199773" lon="9.217653265222909">
<ele>168.2</ele>
<time>2024-05-09T13:38:25Z</time>
</trkpt>
<trkpt lat="49.64325710199773" lon="9.217651337385178">
<ele>168.2</ele>
<time>2024-05-09T13:38:26Z</time>
</trkpt>
<trkpt lat="49.64325710199773" lon="9.217653265222909">
<ele>168.2</ele>
<time>2024-05-09T13:38:27Z</time>
</trkpt>
<trkpt lat="49.64325710199773" lon="9.217658042907717">
<ele>168.2</ele>
<time>2024-05-09T13:38:28Z</time>
</trkpt>
<trkpt lat="49.643253246322274" lon="9.217657037079334">
<ele>168.2</ele>
<time>2024-05-09T13:38:32Z</time>
</trkpt>
<trkpt lat="49.643253246322274" lon="9.217658042907717">
<ele>168.2</ele>
<time>2024-05-09T13:38:33Z</time>
</trkpt>
<trkpt lat="49.643253246322274" lon="9.217657037079334">
<ele>168.2</ele>
<time>2024-05-09T13:38:34Z</time>
</trkpt>
<trkpt lat="49.64325710199773" lon="9.217655109241605">
<ele>168.2</ele>
<time>2024-05-09T13:38:36Z</time>
</trkpt>
<trkpt lat="49.643253246322274" lon="9.217655109241605">
<ele>168.2</ele>
<time>2024-05-09T13:38:37Z</time>
</trkpt>
<trkpt lat="49.643253246322274" lon="9.217657037079334">
<ele>168.2</ele>
<time>2024-05-09T13:38:38Z</time>
</trkpt>
<trkpt lat="49.643253246322274" lon="9.217658042907717">
<ele>168.2</ele>
<time>2024-05-09T13:38:39Z</time>
</trkpt>
<trkpt lat="49.64325710199773" lon="9.217655109241605">
<ele>168.2</ele>
<time>2024-05-09T13:38:40Z</time>
</trkpt>
<trkpt lat="49.64325710199773" lon="9.217653265222909">
<ele>168.2</ele>
<time>2024-05-09T13:38:42Z</time>
</trkpt>
<trkpt lat="49.64325710199773" lon="9.217651337385178">
<ele>168.2</ele>
<time>2024-05-09T13:38:43Z</time>
</trkpt>
<trkpt lat="49.643253246322274" lon="9.217653265222909">
<ele>168.2</ele>
<time>2024-05-09T13:38:44Z</time>
</trkpt>
<trkpt lat="49.643253246322274" lon="9.217655109241605">
<ele>168.2</ele>
<time>2024-05-09T13:38:45Z</time>
</trkpt>
<trkpt lat="49.643253246322274" lon="9.217653265222909">
<ele>168.2</ele>
<time>2024-05-09T13:38:49Z</time>
</trkpt>
<trkpt lat="49.64324947446585" lon="9.217653265222909">
<ele>168.2</ele>
<time>2024-05-09T13:38:51Z</time>
</trkpt>
<trkpt lat="49.64324947446585" lon="9.217655109241605">
<ele>168.2</ele>
<time>2024-05-09T13:38:52Z</time>
</trkpt>
<trkpt lat="49.643253246322274" lon="9.217655109241605">
<ele>168.2</ele>
<time>2024-05-09T13:38:53Z</time>
</trkpt>
<trkpt lat="49.643253246322274" lon="9.217657037079334">
<ele>168.2</ele>
<time>2024-05-09T13:38:54Z</time>
</trkpt>
<trkpt lat="49.64324947446585" lon="9.217657037079334">
<ele>168.2</ele>
<time>2024-05-09T13:38:55Z</time>
</trkpt>
<trkpt lat="49.643253246322274" lon="9.217658042907717">
<ele>168.2</ele>
<time>2024-05-09T13:38:57Z</time>
</trkpt>
<trkpt lat="49.643253246322274" lon="9.217659886926413">
<ele>168.2</ele>
<time>2024-05-09T13:39:01Z</time>
</trkpt>
<trkpt lat="49.643253246322274" lon="9.217661814764142">
<ele>168.2</ele>
<time>2024-05-09T13:39:08Z</time>
</trkpt>
<trkpt lat="49.643253246322274" lon="9.217659886926413">
<ele>168.2</ele>
<time>2024-05-09T13:39:09Z</time>
</trkpt>
<trkpt lat="49.643253246322274" lon="9.217661814764142">
<ele>168.2</ele>
<time>2024-05-09T13:39:11Z</time>
</trkpt>
<trkpt lat="49.64325710199773" lon="9.217671370133758">
<ele>168.2</ele>
<time>2024-05-09T13:39:18Z</time>
</trkpt>
<trkpt lat="49.643253246322274" lon="9.217681847512722">
<ele>168.2</ele>
<time>2024-05-09T13:39:19Z</time>
</trkpt>
<trkpt lat="49.643253246322274" lon="9.21768662519753">
<ele>168.2</ele>
<time>2024-05-09T13:39:20Z</time>
</trkpt>
<trkpt lat="49.643253246322274" lon="9.217690397053955">
<ele>168.2</ele>
<time>2024-05-09T13:39:21Z</time>
</trkpt>
<trkpt lat="49.64325710199773" lon="9.21768855303526">
<ele>168.2</ele>
<time>2024-05-09T13:39:23Z</time>
</trkpt>
<trkpt lat="49.64325710199773" lon="9.217690397053955">
<ele>168.2</ele>
<time>2024-05-09T13:39:24Z</time>
</trkpt>
<trkpt lat="49.643253246322274" lon="9.217690397053955">
<ele>168.2</ele>
<time>2024-05-09T13:39:25Z</time>
</trkpt>
<trkpt lat="49.643253246322274" lon="9.217691402882338">
<ele>168.2</ele>
<time>2024-05-09T13:39:30Z</time>
</trkpt>
<trkpt lat="49.643253246322274" lon="9.21768855303526">
<ele>168.2</ele>
<time>2024-05-09T13:39:31Z</time>
</trkpt>
<trkpt lat="49.643253246322274" lon="9.217690397053955">
<ele>168.2</ele>
<time>2024-05-09T13:39:35Z</time>
</trkpt>
<trkpt lat="49.643253246322274" lon="9.21768855303526">
<ele>168.2</ele>
<time>2024-05-09T13:39:40Z</time>
</trkpt>
<trkpt lat="49.643253246322274" lon="9.217690397053955">
<ele>168.2</ele>
<time>2024-05-09T13:39:46Z</time>
</trkpt>
<trkpt lat="49.643253246322274" lon="9.217691402882338">
<ele>168.2</ele>
<time>2024-05-09T13:39:47Z</time>
</trkpt>
<trkpt lat="49.64324947446585" lon="9.217691402882338">
<ele>168.2</ele>
<time>2024-05-09T13:39:48Z</time>
</trkpt>
<trkpt lat="49.643253246322274" lon="9.217691402882338">
<ele>168.2</ele>
<time>2024-05-09T13:39:50Z</time>
</trkpt>
<trkpt lat="49.643253246322274" lon="9.217699952423573">
<ele>168.2</ele>
<time>2024-05-09T13:39:54Z</time>
</trkpt>
<trkpt lat="49.643253246322274" lon="9.21770665794611">
<ele>168.2</ele>
<time>2024-05-09T13:39:55Z</time>
</trkpt>
<trkpt lat="49.643253246322274" lon="9.21770858578384">
<ele>168.2</ele>
<time>2024-05-09T13:39:57Z</time>
</trkpt>
<trkpt lat="49.643253246322274" lon="9.217709507793188">
<ele>168.2</ele>
<time>2024-05-09T13:39:59Z</time>
</trkpt>
<trkpt lat="49.643253246322274" lon="9.21770665794611">
<ele>168.2</ele>
<time>2024-05-09T13:40:01Z</time>
</trkpt>
<trkpt lat="49.643253246322274" lon="9.21770858578384">
<ele>168.2</ele>
<time>2024-05-09T13:40:05Z</time>
</trkpt>
<trkpt lat="49.643253246322274" lon="9.217711435630918">
<ele>168.2</ele>
<time>2024-05-09T13:40:06Z</time>
</trkpt>
<trkpt lat="49.643253246322274" lon="9.217719985172153">
<ele>168.2</ele>
<time>2024-05-09T13:40:07Z</time>
</trkpt>
<trkpt lat="49.64325710199773" lon="9.217729540541768">
<ele>168.2</ele>
<time>2024-05-09T13:40:08Z</time>
</trkpt>
<trkpt lat="49.64326087385416" lon="9.217741945758462">
<ele>168.2</ele>
<time>2024-05-09T13:40:09Z</time>
</trkpt>
<trkpt lat="49.64326472952962" lon="9.217760050669312">
<ele>168.2</ele>
<time>2024-05-09T13:40:10Z</time>
</trkpt>
<trkpt lat="49.64326472952962" lon="9.217780083417892">
<ele>168.2</ele>
<time>2024-05-09T13:40:11Z</time>
</trkpt>
<trkpt lat="49.64326472952962" lon="9.21780489385128">
<ele>168.2</ele>
<time>2024-05-09T13:40:12Z</time>
</trkpt>
<trkpt lat="49.64326472952962" lon="9.217833476141095">
<ele>168.2</ele>
<time>2024-05-09T13:40:13Z</time>
</trkpt>
<trkpt lat="49.64326858520508" lon="9.217856358736752">
<ele>168.2</ele>
<time>2024-05-09T13:40:14Z</time>
</trkpt>
<trkpt lat="49.64326472952962" lon="9.217886868864298">
<ele>168.2</ele>
<time>2024-05-09T13:40:15Z</time>
</trkpt>
<trkpt lat="49.64326087385416" lon="9.217925006523728">
<ele>168.2</ele>
<time>2024-05-09T13:40:16Z</time>
</trkpt>
<trkpt lat="49.643253246322274" lon="9.217965072020888">
<ele>168.2</ele>
<time>2024-05-09T13:40:17Z</time>
</trkpt>
<trkpt lat="49.64324561879039" lon="9.21800320968032">
<ele>168.4</ele>
<time>2024-05-09T13:40:18Z</time>
</trkpt>
<trkpt lat="49.64324184693396" lon="9.2180404253304">
<ele>168.4</ele>
<time>2024-05-09T13:40:19Z</time>
</trkpt>
<trkpt lat="49.64324184693396" lon="9.218078562989833">
<ele>168.6</ele>
<time>2024-05-09T13:40:20Z</time>
</trkpt>
<trkpt lat="49.64324184693396" lon="9.218111922964454">
<ele>168.8</ele>
<time>2024-05-09T13:40:21Z</time>
</trkpt>
<trkpt lat="49.6432379912585" lon="9.218146288767455">
<ele>169</ele>
<time>2024-05-09T13:40:22Z</time>
</trkpt>
<trkpt lat="49.643230363726616" lon="9.21818157657981">
<ele>169.2</ele>
<time>2024-05-09T13:40:23Z</time>
</trkpt>
<trkpt lat="49.64322659187019" lon="9.21821971423924">
<ele>169.2</ele>
<time>2024-05-09T13:40:24Z</time>
</trkpt>
<trkpt lat="49.64322659187019" lon="9.218253074213862">
<ele>169.4</ele>
<time>2024-05-09T13:40:25Z</time>
</trkpt>
<trkpt lat="49.64322273619473" lon="9.218288362026216">
<ele>169.6</ele>
<time>2024-05-09T13:40:26Z</time>
</trkpt>
<trkpt lat="49.64321510866285" lon="9.218321722000836">
<ele>169.6</ele>
<time>2024-05-09T13:40:27Z</time>
</trkpt>
<trkpt lat="49.64321133680642" lon="9.21835700981319">
<ele>169.8</ele>
<time>2024-05-09T13:40:28Z</time>
</trkpt>
<trkpt lat="49.64320370927453" lon="9.218393303453922">
<ele>169.8</ele>
<time>2024-05-09T13:40:29Z</time>
</trkpt>
<trkpt lat="49.64319608174264" lon="9.218424735590816">
<ele>170</ele>
<time>2024-05-09T13:40:30Z</time>
</trkpt>
<trkpt lat="49.6431845985353" lon="9.218462873250246">
<ele>170.2</ele>
<time>2024-05-09T13:40:31Z</time>
</trkpt>
<trkpt lat="49.64317697100341" lon="9.218502016738055">
<ele>170.2</ele>
<time>2024-05-09T13:40:32Z</time>
</trkpt>
<trkpt lat="49.643173199146986" lon="9.21853537671268">
<ele>170.4</ele>
<time>2024-05-09T13:40:33Z</time>
</trkpt>
<trkpt lat="49.643173199146986" lon="9.218558259308338">
<ele>170.4</ele>
<time>2024-05-09T13:40:34Z</time>
</trkpt>
<trkpt lat="49.64316934347153" lon="9.218578292056918">
<ele>170.4</ele>
<time>2024-05-09T13:40:35Z</time>
</trkpt>
<trkpt lat="49.6431655716151" lon="9.21859446913004">
<ele>170.4</ele>
<time>2024-05-09T13:40:36Z</time>
</trkpt>
<trkpt lat="49.64316934347153" lon="9.218603102490306">
<ele>170.4</ele>
<time>2024-05-09T13:40:37Z</time>
</trkpt>
<trkpt lat="49.643173199146986" lon="9.218606874346731">
<ele>170.4</ele>
<time>2024-05-09T13:40:38Z</time>
</trkpt>
<trkpt lat="49.64317697100341" lon="9.21861165203154">
<ele>170.6</ele>
<time>2024-05-09T13:40:39Z</time>
</trkpt>
<trkpt lat="49.64318082667887" lon="9.21861357986927">
<ele>170.6</ele>
<time>2024-05-09T13:40:40Z</time>
</trkpt>
<trkpt lat="49.64318082667887" lon="9.218616429716349">
<ele>170.6</ele>
<time>2024-05-09T13:40:41Z</time>
</trkpt>
<trkpt lat="49.64318082667887" lon="9.21861450187862">
<ele>170.8</ele>
<time>2024-05-09T13:40:42Z</time>
</trkpt>
<trkpt lat="49.64318082667887" lon="9.218616429716349">
<ele>170.8</ele>
<time>2024-05-09T13:40:43Z</time>
</trkpt>
<trkpt lat="49.64318082667887" lon="9.218618357554078">
<ele>170.8</ele>
<time>2024-05-09T13:40:45Z</time>
</trkpt>
<trkpt lat="49.64318082667887" lon="9.218620285391808">
<ele>171</ele>
<time>2024-05-09T13:40:50Z</time>
</trkpt>
<trkpt lat="49.64318082667887" lon="9.218621207401156">
<ele>171</ele>
<time>2024-05-09T13:40:51Z</time>
</trkpt>
<trkpt lat="49.6431845985353" lon="9.218623135238886">
<ele>171</ele>
<time>2024-05-09T13:40:52Z</time>
</trkpt>
<trkpt lat="49.64318845421076" lon="9.218621207401156">
<ele>171</ele>
<time>2024-05-09T13:40:53Z</time>
</trkpt>
<trkpt lat="49.64318845421076" lon="9.218623135238886">
<ele>171</ele>
<time>2024-05-09T13:40:55Z</time>
</trkpt>
<trkpt lat="49.64318845421076" lon="9.218625063076615">
<ele>171.2</ele>
<time>2024-05-09T13:40:56Z</time>
</trkpt>
<trkpt lat="49.64318845421076" lon="9.218627912923694">
<ele>171.2</ele>
<time>2024-05-09T13:40:57Z</time>
</trkpt>
<trkpt lat="49.64318845421076" lon="9.218629756942391">
<ele>171.2</ele>
<time>2024-05-09T13:40:58Z</time>
</trkpt>
<trkpt lat="49.64318845421076" lon="9.218627912923694">
<ele>171.2</ele>
<time>2024-05-09T13:40:59Z</time>
</trkpt>
<trkpt lat="49.64318845421076" lon="9.21863168478012">
<ele>171</ele>
<time>2024-05-09T13:41:02Z</time>
</trkpt>
<trkpt lat="49.6431845985353" lon="9.21863168478012">
<ele>171</ele>
<time>2024-05-09T13:41:03Z</time>
</trkpt>
<trkpt lat="49.64318845421076" lon="9.21863168478012">
<ele>170.8</ele>
<time>2024-05-09T13:41:04Z</time>
</trkpt>
<trkpt lat="49.6431845985353" lon="9.2186345346272">
<ele>170.8</ele>
<time>2024-05-09T13:41:05Z</time>
</trkpt>
<trkpt lat="49.64318082667887" lon="9.218636462464929">
<ele>170.8</ele>
<time>2024-05-09T13:41:06Z</time>
</trkpt>
<trkpt lat="49.64318082667887" lon="9.218641240149736">
<ele>170.8</ele>
<time>2024-05-09T13:41:07Z</time>
</trkpt>
<trkpt lat="49.6431845985353" lon="9.218649789690971">
<ele>170.8</ele>
<time>2024-05-09T13:41:08Z</time>
</trkpt>
<trkpt lat="49.64318845421076" lon="9.21865364536643">
<ele>170.8</ele>
<time>2024-05-09T13:41:09Z</time>
</trkpt>
<trkpt lat="49.64318845421076" lon="9.218656495213509">
<ele>170.8</ele>
<time>2024-05-09T13:41:10Z</time>
</trkpt>
<trkpt lat="49.64318845421076" lon="9.218658423051238">
<ele>170.8</ele>
<time>2024-05-09T13:41:11Z</time>
</trkpt>
<trkpt lat="49.6431845985353" lon="9.218656495213509">
<ele>170.6</ele>
<time>2024-05-09T13:41:13Z</time>
</trkpt>
<trkpt lat="49.64318082667887" lon="9.218658423051238">
<ele>170.6</ele>
<time>2024-05-09T13:41:15Z</time>
</trkpt>
<trkpt lat="49.64318082667887" lon="9.218665044754744">
<ele>170.6</ele>
<time>2024-05-09T13:41:16Z</time>
</trkpt>
<trkpt lat="49.64317697100341" lon="9.218678455799818">
<ele>170.6</ele>
<time>2024-05-09T13:41:17Z</time>
</trkpt>
<trkpt lat="49.64317697100341" lon="9.218700332567096">
<ele>170.6</ele>
<time>2024-05-09T13:41:18Z</time>
</trkpt>
<trkpt lat="49.6431655716151" lon="9.218723215162754">
<ele>170.4</ele>
<time>2024-05-09T13:41:19Z</time>
</trkpt>
<trkpt lat="49.6431655716151" lon="9.21873377636075">
<ele>170.4</ele>
<time>2024-05-09T13:41:20Z</time>
</trkpt>
<trkpt lat="49.64316171593964" lon="9.218740398064256">
<ele>170.4</ele>
<time>2024-05-09T13:41:21Z</time>
</trkpt>
<trkpt lat="49.64316171593964" lon="9.218743247911334">
<ele>170.4</ele>
<time>2024-05-09T13:41:22Z</time>
</trkpt>
<trkpt lat="49.643157944083214" lon="9.218766130506992">
<ele>170.4</ele>
<time>2024-05-09T13:41:23Z</time>
</trkpt>
<trkpt lat="49.643154088407755" lon="9.218785241246223">
<ele>170.4</ele>
<time>2024-05-09T13:41:24Z</time>
</trkpt>
<trkpt lat="49.64316171593964" lon="9.21883293427527">
<ele>170.4</ele>
<time>2024-05-09T13:41:25Z</time>
</trkpt>
<trkpt lat="49.643173199146986" lon="9.218846261501312">
<ele>170.4</ele>
<time>2024-05-09T13:41:26Z</time>
</trkpt>
<trkpt lat="49.6431845985353" lon="9.218859672546388">
<ele>170.4</ele>
<time>2024-05-09T13:41:27Z</time>
</trkpt>
<trkpt lat="49.64318845421076" lon="9.21887299977243">
<ele>170.4</ele>
<time>2024-05-09T13:41:28Z</time>
</trkpt>
<trkpt lat="49.643192226067185" lon="9.218879621475937">
<ele>170.4</ele>
<time>2024-05-09T13:41:29Z</time>
</trkpt>
<trkpt lat="49.64320748113096" lon="9.218886326998472">
<ele>170.4</ele>
<time>2024-05-09T13:41:30Z</time>
</trkpt>
<trkpt lat="49.64322273619473" lon="9.21889303252101">
<ele>170.4</ele>
<time>2024-05-09T13:41:31Z</time>
</trkpt>
<trkpt lat="49.6432379912585" lon="9.218905437737703">
<ele>170.6</ele>
<time>2024-05-09T13:41:32Z</time>
</trkpt>
<trkpt lat="49.64324561879039" lon="9.21893117018044">
<ele>170.6</ele>
<time>2024-05-09T13:41:33Z</time>
</trkpt>
<trkpt lat="49.64324947446585" lon="9.21897022984922">
<ele>170.8</ele>
<time>2024-05-09T13:41:34Z</time>
</trkpt>
<trkpt lat="49.64324561879039" lon="9.21901130117476">
<ele>170.8</ele>
<time>2024-05-09T13:41:35Z</time>
</trkpt>
<trkpt lat="49.6432379912585" lon="9.21905036084354">
<ele>170.8</ele>
<time>2024-05-09T13:41:36Z</time>
</trkpt>
<trkpt lat="49.64322659187019" lon="9.21908657066524">
<ele>170.6</ele>
<time>2024-05-09T13:41:37Z</time>
</trkpt>
<trkpt lat="49.6432189643383" lon="9.219116158783436">
<ele>170.6</ele>
<time>2024-05-09T13:41:38Z</time>
</trkpt>
<trkpt lat="49.64321133680642" lon="9.219135269522669">
<ele>170.8</ele>
<time>2024-05-09T13:41:39Z</time>
</trkpt>
<trkpt lat="49.64318845421076" lon="9.219141891226172">
<ele>170.8</ele>
<time>2024-05-09T13:41:40Z</time>
</trkpt>
<trkpt lat="49.64316171593964" lon="9.21914474107325">
<ele>171</ele>
<time>2024-05-09T13:41:41Z</time>
</trkpt>
<trkpt lat="49.64313883334398" lon="9.21914474107325">
<ele>171.2</ele>
<time>2024-05-09T13:41:42Z</time>
</trkpt>
<trkpt lat="49.64312357828021" lon="9.21914859674871">
<ele>171.4</ele>
<time>2024-05-09T13:41:43Z</time>
</trkpt>
<trkpt lat="49.64310832321644" lon="9.219156224280596">
<ele>171.6</ele>
<time>2024-05-09T13:41:44Z</time>
</trkpt>
<trkpt lat="49.643096923828125" lon="9.21916670165956">
<ele>171.6</ele>
<time>2024-05-09T13:41:45Z</time>
</trkpt>
<trkpt lat="49.64308158494532" lon="9.219178184866903">
<ele>171.8</ele>
<time>2024-05-09T13:41:46Z</time>
</trkpt>
<trkpt lat="49.64306632988155" lon="9.21918958425522">
<ele>171.8</ele>
<time>2024-05-09T13:41:47Z</time>
</trkpt>
<trkpt lat="49.64304730296135" lon="9.219200061634185">
<ele>172</ele>
<time>2024-05-09T13:41:48Z</time>
</trkpt>
<trkpt lat="49.64303204789758" lon="9.219209617003798">
<ele>172.2</ele>
<time>2024-05-09T13:41:49Z</time>
</trkpt>
<trkpt lat="49.643016792833805" lon="9.219222022220492">
<ele>172.4</ele>
<time>2024-05-09T13:41:50Z</time>
</trkpt>
<trkpt lat="49.64300153777003" lon="9.219240127131345">
<ele>172.6</ele>
<time>2024-05-09T13:41:51Z</time>
</trkpt>
<trkpt lat="49.64298628270626" lon="9.219258232042192">
<ele>172.6</ele>
<time>2024-05-09T13:41:52Z</time>
</trkpt>
<trkpt lat="49.64296717196703" lon="9.219276420772076">
<ele>172.6</ele>
<time>2024-05-09T13:41:53Z</time>
</trkpt>
<trkpt lat="49.64294814504683" lon="9.21928689815104">
<ele>172.6</ele>
<time>2024-05-09T13:41:54Z</time>
</trkpt>
<trkpt lat="49.64292526245117" lon="9.219300225377085">
<ele>173</ele>
<time>2024-05-09T13:41:55Z</time>
</trkpt>
<trkpt lat="49.64290992356837" lon="9.219314558431506">
<ele>173.2</ele>
<time>2024-05-09T13:41:56Z</time>
</trkpt>
<trkpt lat="49.64288704097271" lon="9.219329813495278">
<ele>173.6</ele>
<time>2024-05-09T13:41:57Z</time>
</trkpt>
<trkpt lat="49.64287178590894" lon="9.219349846243858">
<ele>173.8</ele>
<time>2024-05-09T13:41:58Z</time>
</trkpt>
<trkpt lat="49.64285275898874" lon="9.2193631734699">
<ele>174</ele>
<time>2024-05-09T13:41:59Z</time>
</trkpt>
<trkpt lat="49.64283364824951" lon="9.219374656677246">
<ele>174</ele>
<time>2024-05-09T13:42:00Z</time>
</trkpt>
<trkpt lat="49.642818393185735" lon="9.21938513405621">
<ele>174</ele>
<time>2024-05-09T13:42:01Z</time>
</trkpt>
<trkpt lat="49.64280313812196" lon="9.219391755759716">
<ele>174</ele>
<time>2024-05-09T13:42:02Z</time>
</trkpt>
<trkpt lat="49.64278788305819" lon="9.219401311129332">
<ele>174.2</ele>
<time>2024-05-09T13:42:03Z</time>
</trkpt>
<trkpt lat="49.64277262799442" lon="9.219409860670568">
<ele>174.4</ele>
<time>2024-05-09T13:42:04Z</time>
</trkpt>
<trkpt lat="49.642757372930646" lon="9.219418494030831">
<ele>174.6</ele>
<time>2024-05-09T13:42:05Z</time>
</trkpt>
<trkpt lat="49.642738262191415" lon="9.219429893419148">
<ele>174.8</ele>
<time>2024-05-09T13:42:06Z</time>
</trkpt>
<trkpt lat="49.64272300712764" lon="9.219441376626492">
<ele>174.8</ele>
<time>2024-05-09T13:42:07Z</time>
</trkpt>
<trkpt lat="49.64270398020744" lon="9.219453781843184">
<ele>174.8</ele>
<time>2024-05-09T13:42:08Z</time>
</trkpt>
<trkpt lat="49.64268486946821" lon="9.219468114897609">
<ele>175</ele>
<time>2024-05-09T13:42:09Z</time>
</trkpt>
<trkpt lat="49.6426734700799" lon="9.219481442123652">
<ele>175.2</ele>
<time>2024-05-09T13:42:10Z</time>
</trkpt>
<trkpt lat="49.64265821501613" lon="9.219492841511965">
<ele>175.6</ele>
<time>2024-05-09T13:42:11Z</time>
</trkpt>
<trkpt lat="49.642642959952354" lon="9.21950625255704">
<ele>175.8</ele>
<time>2024-05-09T13:42:12Z</time>
</trkpt>
<trkpt lat="49.64263147674501" lon="9.219518657773731">
<ele>176</ele>
<time>2024-05-09T13:42:13Z</time>
</trkpt>
<trkpt lat="49.642620077356696" lon="9.219531984999776">
<ele>176.2</ele>
<time>2024-05-09T13:42:14Z</time>
</trkpt>
<trkpt lat="49.64260482229293" lon="9.219548162072895">
<ele>176.4</ele>
<time>2024-05-09T13:42:15Z</time>
</trkpt>
<trkpt lat="49.64258571155369" lon="9.21956341713667">
<ele>176.6</ele>
<time>2024-05-09T13:42:16Z</time>
</trkpt>
<trkpt lat="49.64256660081446" lon="9.21957867220044">
<ele>176.8</ele>
<time>2024-05-09T13:42:17Z</time>
</trkpt>
<trkpt lat="49.6425437182188" lon="9.219593005254865">
<ele>176.8</ele>
<time>2024-05-09T13:42:18Z</time>
</trkpt>
<trkpt lat="49.64252846315503" lon="9.21960541047156">
<ele>176.8</ele>
<time>2024-05-09T13:42:19Z</time>
</trkpt>
<trkpt lat="49.64250558055937" lon="9.219616809859872">
<ele>176.8</ele>
<time>2024-05-09T13:42:20Z</time>
</trkpt>
<trkpt lat="49.642482697963715" lon="9.219626365229487">
<ele>176.6</ele>
<time>2024-05-09T13:42:21Z</time>
</trkpt>
<trkpt lat="49.642459815368056" lon="9.219633070752025">
<ele>176.6</ele>
<time>2024-05-09T13:42:22Z</time>
</trkpt>
<trkpt lat="49.6424369327724" lon="9.219634998589754">
<ele>176.6</ele>
<time>2024-05-09T13:42:23Z</time>
</trkpt>
<trkpt lat="49.64241405017674" lon="9.219634998589754">
<ele>176.4</ele>
<time>2024-05-09T13:42:24Z</time>
</trkpt>
<trkpt lat="49.64239116758108" lon="9.219634998589754">
<ele>176.4</ele>
<time>2024-05-09T13:42:25Z</time>
</trkpt>
<trkpt lat="49.64236442930997" lon="9.219633070752025">
<ele>176.4</ele>
<time>2024-05-09T13:42:26Z</time>
</trkpt>
<trkpt lat="49.642341546714306" lon="9.219636842608452">
<ele>176.2</ele>
<time>2024-05-09T13:42:27Z</time>
</trkpt>
<trkpt lat="49.64231489226222" lon="9.219636842608452">
<ele>176.2</ele>
<time>2024-05-09T13:42:28Z</time>
</trkpt>
<trkpt lat="49.64229200966656" lon="9.219634998589754">
<ele>176.2</ele>
<time>2024-05-09T13:42:29Z</time>
</trkpt>
<trkpt lat="49.642265271395445" lon="9.219633070752025">
<ele>176.2</ele>
<time>2024-05-09T13:42:30Z</time>
</trkpt>
<trkpt lat="49.6422347612679" lon="9.219636842608452">
<ele>176.2</ele>
<time>2024-05-09T13:42:31Z</time>
</trkpt>
<trkpt lat="49.64220425114035" lon="9.219637848436832">
<ele>176</ele>
<time>2024-05-09T13:42:32Z</time>
</trkpt>
<trkpt lat="49.64217374101281" lon="9.219639776274562">
<ele>176</ele>
<time>2024-05-09T13:42:33Z</time>
</trkpt>
<trkpt lat="49.64214323088527" lon="9.21964162029326">
<ele>176</ele>
<time>2024-05-09T13:42:34Z</time>
</trkpt>
<trkpt lat="49.64211649261415" lon="9.219643548130987">
<ele>176</ele>
<time>2024-05-09T13:42:35Z</time>
</trkpt>
<trkpt lat="49.642089838162065" lon="9.219643548130987">
<ele>176</ele>
<time>2024-05-09T13:42:36Z</time>
</trkpt>
<trkpt lat="49.64205924421549" lon="9.219646397978067">
<ele>176.2</ele>
<time>2024-05-09T13:42:37Z</time>
</trkpt>
<trkpt lat="49.6420325897634" lon="9.219648325815797">
<ele>176.4</ele>
<time>2024-05-09T13:42:38Z</time>
</trkpt>
<trkpt lat="49.64200207963586" lon="9.219653103500605">
<ele>176.6</ele>
<time>2024-05-09T13:42:39Z</time>
</trkpt>
<trkpt lat="49.64197534136474" lon="9.219663580879567">
<ele>176.8</ele>
<time>2024-05-09T13:42:40Z</time>
</trkpt>
<trkpt lat="49.6419448312372" lon="9.219670286402106">
<ele>177</ele>
<time>2024-05-09T13:42:41Z</time>
</trkpt>
<trkpt lat="49.64191817678511" lon="9.219675064086914">
<ele>177</ele>
<time>2024-05-09T13:42:42Z</time>
</trkpt>
<trkpt lat="49.641887582838535" lon="9.219683613628147">
<ele>177.2</ele>
<time>2024-05-09T13:42:43Z</time>
</trkpt>
<trkpt lat="49.64185707271099" lon="9.219688391312957">
<ele>177.4</ele>
<time>2024-05-09T13:42:44Z</time>
</trkpt>
<trkpt lat="49.64182656258345" lon="9.219696940854192">
<ele>177.6</ele>
<time>2024-05-09T13:42:45Z</time>
</trkpt>
<trkpt lat="49.6417960524559" lon="9.219697946682572">
<ele>177.6</ele>
<time>2024-05-09T13:42:46Z</time>
</trkpt>
<trkpt lat="49.64176177047193" lon="9.21969979070127">
<ele>177.6</ele>
<time>2024-05-09T13:42:47Z</time>
</trkpt>
<trkpt lat="49.64173503220081" lon="9.219701718539">
<ele>177.6</ele>
<time>2024-05-09T13:42:48Z</time>
</trkpt>
<trkpt lat="49.64170452207327" lon="9.219706496223807">
<ele>178</ele>
<time>2024-05-09T13:42:49Z</time>
</trkpt>
<trkpt lat="49.64167778380215" lon="9.219711273908615">
<ele>178</ele>
<time>2024-05-09T13:42:50Z</time>
</trkpt>
<trkpt lat="49.64165490120649" lon="9.219715045765042">
<ele>178.2</ele>
<time>2024-05-09T13:42:51Z</time>
</trkpt>
<trkpt lat="49.641632018610835" lon="9.219726528972387">
<ele>178.2</ele>
<time>2024-05-09T13:42:52Z</time>
</trkpt>
<trkpt lat="49.64161676354706" lon="9.21973985619843">
<ele>178.2</ele>
<time>2024-05-09T13:42:53Z</time>
</trkpt>
<trkpt lat="49.641593880951405" lon="9.219753183424473">
<ele>178.2</ele>
<time>2024-05-09T13:42:54Z</time>
</trkpt>
<trkpt lat="49.64157862588763" lon="9.219777071848512">
<ele>178.2</ele>
<time>2024-05-09T13:42:55Z</time>
</trkpt>
<trkpt lat="49.64156337082386" lon="9.219806659966707">
<ele>178.2</ele>
<time>2024-05-09T13:42:56Z</time>
</trkpt>
<trkpt lat="49.64155959896743" lon="9.21984001994133">
<ele>178.2</ele>
<time>2024-05-09T13:42:57Z</time>
</trkpt>
<trkpt lat="49.641555743291974" lon="9.219876229763033">
<ele>178</ele>
<time>2024-05-09T13:42:58Z</time>
</trkpt>
<trkpt lat="49.641555743291974" lon="9.219923000782728">
<ele>178</ele>
<time>2024-05-09T13:42:59Z</time>
</trkpt>
<trkpt lat="49.64155959896743" lon="9.219966838136315">
<ele>178.2</ele>
<time>2024-05-09T13:43:00Z</time>
</trkpt>
<trkpt lat="49.641570998355746" lon="9.220004975795746">
<ele>178.2</ele>
<time>2024-05-09T13:43:01Z</time>
</trkpt>
<trkpt lat="49.64158248156309" lon="9.220043113455176">
<ele>178.4</ele>
<time>2024-05-09T13:43:02Z</time>
</trkpt>
<trkpt lat="49.64159773662686" lon="9.22007655724883">
<ele>178.4</ele>
<time>2024-05-09T13:43:03Z</time>
</trkpt>
<trkpt lat="49.64161299169064" lon="9.220107989385724">
<ele>178.4</ele>
<time>2024-05-09T13:43:04Z</time>
</trkpt>
<trkpt lat="49.64162824675441" lon="9.220143277198076">
<ele>178.4</ele>
<time>2024-05-09T13:43:05Z</time>
</trkpt>
<trkpt lat="49.64164350181818" lon="9.220178565010428">
<ele>178.4</ele>
<time>2024-05-09T13:43:06Z</time>
</trkpt>
<trkpt lat="49.64165490120649" lon="9.220218630507588">
<ele>178.4</ele>
<time>2024-05-09T13:43:07Z</time>
</trkpt>
<trkpt lat="49.64166638441384" lon="9.22025676816702">
<ele>178.4</ele>
<time>2024-05-09T13:43:08Z</time>
</trkpt>
<trkpt lat="49.64167778380215" lon="9.22029683366418">
<ele>178.4</ele>
<time>2024-05-09T13:43:09Z</time>
</trkpt>
<trkpt lat="49.6416892670095" lon="9.22033689916134">
<ele>178.4</ele>
<time>2024-05-09T13:43:10Z</time>
</trkpt>
<trkpt lat="49.64170066639781" lon="9.220379814505575">
<ele>178.2</ele>
<time>2024-05-09T13:43:11Z</time>
</trkpt>
<trkpt lat="49.641708293929696" lon="9.220421724021437">
<ele>178.4</ele>
<time>2024-05-09T13:43:12Z</time>
</trkpt>
<trkpt lat="49.64171592146158" lon="9.220464639365671">
<ele>178.4</ele>
<time>2024-05-09T13:43:13Z</time>
</trkpt>
<trkpt lat="49.6417236328125" lon="9.22051040455699">
<ele>178.4</ele>
<time>2024-05-09T13:43:14Z</time>
</trkpt>
<trkpt lat="49.64173503220081" lon="9.220553319901228">
<ele>178.6</ele>
<time>2024-05-09T13:43:15Z</time>
</trkpt>
<trkpt lat="49.64173888787627" lon="9.220600090920923">
<ele>178.6</ele>
<time>2024-05-09T13:43:16Z</time>
</trkpt>
<trkpt lat="49.64174651540816" lon="9.220644934102893">
<ele>178.6</ele>
<time>2024-05-09T13:43:17Z</time>
</trkpt>
<trkpt lat="49.641750287264585" lon="9.220689693465827">
<ele>178.6</ele>
<time>2024-05-09T13:43:18Z</time>
</trkpt>
<trkpt lat="49.64175414294005" lon="9.220736464485526">
<ele>178.8</ele>
<time>2024-05-09T13:43:19Z</time>
</trkpt>
<trkpt lat="49.64175791479647" lon="9.220783151686192">
<ele>178.8</ele>
<time>2024-05-09T13:43:20Z</time>
</trkpt>
<trkpt lat="49.64176554232836" lon="9.22082799486816">
<ele>178.8</ele>
<time>2024-05-09T13:43:21Z</time>
</trkpt>
<trkpt lat="49.64176939800382" lon="9.220874765887856">
<ele>179</ele>
<time>2024-05-09T13:43:22Z</time>
</trkpt>
<trkpt lat="49.64177316986024" lon="9.220919609069824">
<ele>179</ele>
<time>2024-05-09T13:43:23Z</time>
</trkpt>
<trkpt lat="49.64178079739213" lon="9.220963446423411">
<ele>179.2</ele>
<time>2024-05-09T13:43:24Z</time>
</trkpt>
<trkpt lat="49.64178465306759" lon="9.221003511920571">
<ele>179.2</ele>
<time>2024-05-09T13:43:25Z</time>
</trkpt>
<trkpt lat="49.641788424924016" lon="9.221041649580002">
<ele>179.4</ele>
<time>2024-05-09T13:43:26Z</time>
</trkpt>
<trkpt lat="49.641788424924016" lon="9.221081715077162">
<ele>179.4</ele>
<time>2024-05-09T13:43:27Z</time>
</trkpt>
<trkpt lat="49.6417960524559" lon="9.221119852736592">
<ele>179.6</ele>
<time>2024-05-09T13:43:28Z</time>
</trkpt>
<trkpt lat="49.64179990813136" lon="9.22116176225245">
<ele>179.6</ele>
<time>2024-05-09T13:43:29Z</time>
</trkpt>
<trkpt lat="49.64180367998779" lon="9.22120182774961">
<ele>179.6</ele>
<time>2024-05-09T13:43:30Z</time>
</trkpt>
<trkpt lat="49.64180367998779" lon="9.22124289907515">
<ele>179.8</ele>
<time>2024-05-09T13:43:31Z</time>
</trkpt>
<trkpt lat="49.64180367998779" lon="9.2212800309062">
<ele>179.8</ele>
<time>2024-05-09T13:43:32Z</time>
</trkpt>
<trkpt lat="49.64180753566325" lon="9.221313474699857">
<ele>180</ele>
<time>2024-05-09T13:43:33Z</time>
</trkpt>
<trkpt lat="49.641811307519674" lon="9.221344906836748">
<ele>180.2</ele>
<time>2024-05-09T13:43:34Z</time>
</trkpt>
<trkpt lat="49.641811307519674" lon="9.221373489126565">
<ele>180.2</ele>
<time>2024-05-09T13:43:35Z</time>
</trkpt>
<trkpt lat="49.64180753566325" lon="9.22140022739768">
<ele>180.4</ele>
<time>2024-05-09T13:43:36Z</time>
</trkpt>
<trkpt lat="49.64180367998779" lon="9.22142118215561">
<ele>180.4</ele>
<time>2024-05-09T13:43:37Z</time>
</trkpt>
<trkpt lat="49.64179990813136" lon="9.221441214904187">
<ele>180.6</ele>
<time>2024-05-09T13:43:38Z</time>
</trkpt>
<trkpt lat="49.6417960524559" lon="9.221465103328228">
<ele>180.6</ele>
<time>2024-05-09T13:43:39Z</time>
</trkpt>
<trkpt lat="49.6417960524559" lon="9.221491757780312">
<ele>180.6</ele>
<time>2024-05-09T13:43:40Z</time>
</trkpt>
<trkpt lat="49.64179990813136" lon="9.22152042388916">
<ele>180.6</ele>
<time>2024-05-09T13:43:41Z</time>
</trkpt>
<trkpt lat="49.641811307519674" lon="9.221548000350596">
<ele>180.8</ele>
<time>2024-05-09T13:43:42Z</time>
</trkpt>
<trkpt lat="49.64182279072702" lon="9.22157859429717">
<ele>180.8</ele>
<time>2024-05-09T13:43:43Z</time>
</trkpt>
<trkpt lat="49.64183419011533" lon="9.221610026434064">
<ele>180.8</ele>
<time>2024-05-09T13:43:44Z</time>
</trkpt>
<trkpt lat="49.64184567332268" lon="9.221645314246416">
<ele>181</ele>
<time>2024-05-09T13:43:45Z</time>
</trkpt>
<trkpt lat="49.64185707271099" lon="9.221681524068115">
<ele>181</ele>
<time>2024-05-09T13:43:46Z</time>
</trkpt>
<trkpt lat="49.64186470024288" lon="9.221719661727548">
<ele>181.2</ele>
<time>2024-05-09T13:43:47Z</time>
</trkpt>
<trkpt lat="49.641868555918336" lon="9.22175687737763">
<ele>181.4</ele>
<time>2024-05-09T13:43:48Z</time>
</trkpt>
<trkpt lat="49.641868555918336" lon="9.22179501503706">
<ele>181.6</ele>
<time>2024-05-09T13:43:49Z</time>
</trkpt>
<trkpt lat="49.64187232777476" lon="9.221831308677793">
<ele>181.6</ele>
<time>2024-05-09T13:43:50Z</time>
</trkpt>
<trkpt lat="49.64187618345022" lon="9.221870368346572">
<ele>181.8</ele>
<time>2024-05-09T13:43:51Z</time>
</trkpt>
<trkpt lat="49.64187618345022" lon="9.221908506006002">
<ele>181.8</ele>
<time>2024-05-09T13:43:52Z</time>
</trkpt>
<trkpt lat="49.64187995530665" lon="9.221948571503162">
<ele>182</ele>
<time>2024-05-09T13:43:53Z</time>
</trkpt>
<trkpt lat="49.64188381098211" lon="9.2219914868474">
<ele>182</ele>
<time>2024-05-09T13:43:54Z</time>
</trkpt>
<trkpt lat="49.641887582838535" lon="9.222038257867098">
<ele>182</ele>
<time>2024-05-09T13:43:55Z</time>
</trkpt>
<trkpt lat="49.641887582838535" lon="9.222084945067763">
<ele>182.2</ele>
<time>2024-05-09T13:43:56Z</time>
</trkpt>
<trkpt lat="49.641891438513994" lon="9.222127860412002">
<ele>182.2</ele>
<time>2024-05-09T13:43:57Z</time>
</trkpt>
<trkpt lat="49.641891438513994" lon="9.2221746314317">
<ele>182.4</ele>
<time>2024-05-09T13:43:58Z</time>
</trkpt>
<trkpt lat="49.64189529418945" lon="9.222220396623015">
<ele>182.6</ele>
<time>2024-05-09T13:43:59Z</time>
</trkpt>
<trkpt lat="49.64189906604588" lon="9.22226808965206">
<ele>182.6</ele>
<time>2024-05-09T13:44:00Z</time>
</trkpt>
<trkpt lat="49.64189906604588" lon="9.222316704690456">
<ele>182.8</ele>
<time>2024-05-09T13:44:01Z</time>
</trkpt>
<trkpt lat="49.64189906604588" lon="9.222363391891122">
<ele>183</ele>
<time>2024-05-09T13:44:02Z</time>
</trkpt>
<trkpt lat="49.64190292172134" lon="9.222412090748549">
<ele>183</ele>
<time>2024-05-09T13:44:03Z</time>
</trkpt>
<trkpt lat="49.641906693577766" lon="9.222457855939863">
<ele>183.2</ele>
<time>2024-05-09T13:44:04Z</time>
</trkpt>
<trkpt lat="49.641906693577766" lon="9.222501693293452">
<ele>183.4</ele>
<time>2024-05-09T13:44:05Z</time>
</trkpt>
<trkpt lat="49.64191432110965" lon="9.22254653647542">
<ele>183.6</ele>
<time>2024-05-09T13:44:06Z</time>
</trkpt>
<trkpt lat="49.64191817678511" lon="9.222597079351544">
<ele>183.8</ele>
<time>2024-05-09T13:44:07Z</time>
</trkpt>
<trkpt lat="49.64191817678511" lon="9.22264670021832">
<ele>183.8</ele>
<time>2024-05-09T13:44:08Z</time>
</trkpt>
<trkpt lat="49.64191817678511" lon="9.222696237266064">
<ele>184</ele>
<time>2024-05-09T13:44:09Z</time>
</trkpt>
<trkpt lat="49.64191817678511" lon="9.222749629989266">
<ele>184.2</ele>
<time>2024-05-09T13:44:10Z</time>
</trkpt>
<trkpt lat="49.64192194864154" lon="9.2228031065315">
<ele>184.4</ele>
<time>2024-05-09T13:44:11Z</time>
</trkpt>
<trkpt lat="49.641925804317" lon="9.222856499254704">
<ele>184.6</ele>
<time>2024-05-09T13:44:12Z</time>
</trkpt>
<trkpt lat="49.641929576173425" lon="9.222911819815636">
<ele>184.8</ele>
<time>2024-05-09T13:44:13Z</time>
</trkpt>
<trkpt lat="49.64193720370531" lon="9.222967140376568">
<ele>185.2</ele>
<time>2024-05-09T13:44:14Z</time>
</trkpt>
<trkpt lat="49.64194105938077" lon="9.22302145510912">
<ele>185.6</ele>
<time>2024-05-09T13:44:15Z</time>
</trkpt>
<trkpt lat="49.6419448312372" lon="9.223076775670052">
<ele>185.8</ele>
<time>2024-05-09T13:44:16Z</time>
</trkpt>
<trkpt lat="49.64195245876908" lon="9.223130168393254">
<ele>186</ele>
<time>2024-05-09T13:44:17Z</time>
</trkpt>
<trkpt lat="49.64195245876908" lon="9.223186410963535">
<ele>186.2</ele>
<time>2024-05-09T13:44:18Z</time>
</trkpt>
<trkpt lat="49.64196008630097" lon="9.223241731524467">
<ele>186.4</ele>
<time>2024-05-09T13:44:19Z</time>
</trkpt>
<trkpt lat="49.64196394197643" lon="9.223299901932478">
<ele>186.6</ele>
<time>2024-05-09T13:44:20Z</time>
</trkpt>
<trkpt lat="49.641967713832855" lon="9.223358072340488">
<ele>186.6</ele>
<time>2024-05-09T13:44:21Z</time>
</trkpt>
<trkpt lat="49.64197534136474" lon="9.22341339290142">
<ele>186.8</ele>
<time>2024-05-09T13:44:22Z</time>
</trkpt>
<trkpt lat="49.6419791970402" lon="9.223468713462353">
<ele>186.8</ele>
<time>2024-05-09T13:44:23Z</time>
</trkpt>
<trkpt lat="49.641986824572086" lon="9.223525039851664">
<ele>186.8</ele>
<time>2024-05-09T13:44:24Z</time>
</trkpt>
<trkpt lat="49.64199059642851" lon="9.223580360412598">
<ele>186.8</ele>
<time>2024-05-09T13:44:25Z</time>
</trkpt>
<trkpt lat="49.6419982239604" lon="9.22363467514515">
<ele>186.8</ele>
<time>2024-05-09T13:44:26Z</time>
</trkpt>
<trkpt lat="49.6419982239604" lon="9.22369192354381">
<ele>186.8</ele>
<time>2024-05-09T13:44:27Z</time>
</trkpt>
<trkpt lat="49.64200207963586" lon="9.223748166114092">
<ele>187</ele>
<time>2024-05-09T13:44:28Z</time>
</trkpt>
<trkpt lat="49.642009707167745" lon="9.223803486675024">
<ele>187</ele>
<time>2024-05-09T13:44:29Z</time>
</trkpt>
<trkpt lat="49.64201347902417" lon="9.223857801407576">
<ele>187</ele>
<time>2024-05-09T13:44:30Z</time>
</trkpt>
<trkpt lat="49.64202110655606" lon="9.22391127794981">
<ele>187</ele>
<time>2024-05-09T13:44:31Z</time>
</trkpt>
<trkpt lat="49.64202496223152" lon="9.223966598510742">
<ele>187</ele>
<time>2024-05-09T13:44:32Z</time>
</trkpt>
<trkpt lat="49.6420325897634" lon="9.224019991233943">
<ele>187</ele>
<time>2024-05-09T13:44:33Z</time>
</trkpt>
<trkpt lat="49.64204021729529" lon="9.224073383957148">
<ele>187</ele>
<time>2024-05-09T13:44:34Z</time>
</trkpt>
<trkpt lat="49.64204398915171" lon="9.22412677668035">
<ele>187.2</ele>
<time>2024-05-09T13:44:35Z</time>
</trkpt>
<trkpt lat="49.6420516166836" lon="9.224180169403551">
<ele>187.2</ele>
<time>2024-05-09T13:44:36Z</time>
</trkpt>
<trkpt lat="49.64205924421549" lon="9.224234567955136">
<ele>187.2</ele>
<time>2024-05-09T13:44:37Z</time>
</trkpt>
<trkpt lat="49.642066955566406" lon="9.224286954849958">
<ele>187.2</ele>
<time>2024-05-09T13:44:38Z</time>
</trkpt>
<trkpt lat="49.64207072742283" lon="9.224340431392193">
<ele>187.2</ele>
<time>2024-05-09T13:44:39Z</time>
</trkpt>
<trkpt lat="49.64207835495472" lon="9.224398601800203">
<ele>187.2</ele>
<time>2024-05-09T13:44:40Z</time>
</trkpt>
<trkpt lat="49.64208221063018" lon="9.224456772208214">
<ele>187.2</ele>
<time>2024-05-09T13:44:41Z</time>
</trkpt>
<trkpt lat="49.642089838162065" lon="9.224516786634922">
<ele>187.2</ele>
<time>2024-05-09T13:44:42Z</time>
</trkpt>
<trkpt lat="49.64209746569395" lon="9.224575040861964">
<ele>187.2</ele>
<time>2024-05-09T13:44:43Z</time>
</trkpt>
<trkpt lat="49.64210123755038" lon="9.224633211269976">
<ele>187.2</ele>
<time>2024-05-09T13:44:44Z</time>
</trkpt>
<trkpt lat="49.64210509322584" lon="9.224690375849605">
<ele>187.2</ele>
<time>2024-05-09T13:44:45Z</time>
</trkpt>
<trkpt lat="49.64211272075772" lon="9.224748546257617">
<ele>187</ele>
<time>2024-05-09T13:44:46Z</time>
</trkpt>
<trkpt lat="49.64211649261415" lon="9.224806716665626">
<ele>187</ele>
<time>2024-05-09T13:44:47Z</time>
</trkpt>
<trkpt lat="49.64212034828961" lon="9.224864887073636">
<ele>187</ele>
<time>2024-05-09T13:44:48Z</time>
</trkpt>
<trkpt lat="49.64212412014603" lon="9.224921213462949">
<ele>187</ele>
<time>2024-05-09T13:44:49Z</time>
</trkpt>
<trkpt lat="49.642127975821495" lon="9.22497837804258">
<ele>186.8</ele>
<time>2024-05-09T13:44:50Z</time>
</trkpt>
<trkpt lat="49.64213560335338" lon="9.22503654845059">
<ele>186.8</ele>
<time>2024-05-09T13:44:51Z</time>
</trkpt>
<trkpt lat="49.64213937520981" lon="9.22509664669633">
<ele>186.6</ele>
<time>2024-05-09T13:44:52Z</time>
</trkpt>
<trkpt lat="49.64214323088527" lon="9.225159594789147">
<ele>186.6</ele>
<time>2024-05-09T13:44:53Z</time>
</trkpt>
<trkpt lat="49.64213937520981" lon="9.225223464891316">
<ele>186.4</ele>
<time>2024-05-09T13:44:54Z</time>
</trkpt>
<trkpt lat="49.64213937520981" lon="9.225286412984133">
<ele>186.2</ele>
<time>2024-05-09T13:44:55Z</time>
</trkpt>
<trkpt lat="49.64213937520981" lon="9.22535321675241">
<ele>186.2</ele>
<time>2024-05-09T13:44:56Z</time>
</trkpt>
<trkpt lat="49.64214323088527" lon="9.225418008863926">
<ele>186</ele>
<time>2024-05-09T13:44:57Z</time>
</trkpt>
<trkpt lat="49.64214323088527" lon="9.225484812632205">
<ele>185.8</ele>
<time>2024-05-09T13:44:58Z</time>
</trkpt>
<trkpt lat="49.64214323088527" lon="9.225555388256907">
<ele>185.6</ele>
<time>2024-05-09T13:44:59Z</time>
</trkpt>
<trkpt lat="49.64214323088527" lon="9.22562973573804">
<ele>185.4</ele>
<time>2024-05-09T13:45:00Z</time>
</trkpt>
<trkpt lat="49.64214323088527" lon="9.225701317191124">
<ele>185.2</ele>
<time>2024-05-09T13:45:01Z</time>
</trkpt>
<trkpt lat="49.642147002741694" lon="9.225774742662908">
<ele>185</ele>
<time>2024-05-09T13:45:02Z</time>
</trkpt>
<trkpt lat="49.64215085841715" lon="9.22584624029696">
<ele>184.8</ele>
<time>2024-05-09T13:45:03Z</time>
</trkpt>
<trkpt lat="49.64214323088527" lon="9.225919665768744">
<ele>184.6</ele>
<time>2024-05-09T13:45:04Z</time>
</trkpt>
<trkpt lat="49.64213174767792" lon="9.225995019078256">
<ele>184.4</ele>
<time>2024-05-09T13:45:05Z</time>
</trkpt>
<trkpt lat="49.64212034828961" lon="9.22606467269361">
<ele>184.2</ele>
<time>2024-05-09T13:45:06Z</time>
</trkpt>
<trkpt lat="49.64211272075772" lon="9.226133320480583">
<ele>184.2</ele>
<time>2024-05-09T13:45:07Z</time>
</trkpt>
<trkpt lat="49.64209746569395" lon="9.226195262745025">
<ele>184</ele>
<time>2024-05-09T13:45:08Z</time>
</trkpt>
<trkpt lat="49.64207835495472" lon="9.226248739287255">
<ele>183.8</ele>
<time>2024-05-09T13:45:09Z</time>
</trkpt>
<trkpt lat="49.64206309989095" lon="9.22630020417273">
<ele>183.6</ele>
<time>2024-05-09T13:45:10Z</time>
</trkpt>
<trkpt lat="49.6420516166836" lon="9.226346891373396">
<ele>183.6</ele>
<time>2024-05-09T13:45:11Z</time>
</trkpt>
<trkpt lat="49.64203636161983" lon="9.226391734555364">
<ele>183.6</ele>
<time>2024-05-09T13:45:12Z</time>
</trkpt>
<trkpt lat="49.64202110655606" lon="9.22643850557506">
<ele>183.6</ele>
<time>2024-05-09T13:45:13Z</time>
</trkpt>
<trkpt lat="49.64200207963586" lon="9.226488042622805">
<ele>183.6</ele>
<time>2024-05-09T13:45:14Z</time>
</trkpt>
<trkpt lat="49.641986824572086" lon="9.226534813642502">
<ele>183.6</ele>
<time>2024-05-09T13:45:15Z</time>
</trkpt>
<trkpt lat="49.641971569508314" lon="9.226583428680897">
<ele>183.6</ele>
<time>2024-05-09T13:45:16Z</time>
</trkpt>
<trkpt lat="49.64195245876908" lon="9.226626344025137">
<ele>183.6</ele>
<time>2024-05-09T13:45:17Z</time>
</trkpt>
<trkpt lat="49.64194105938077" lon="9.226668337360024">
<ele>183.4</ele>
<time>2024-05-09T13:45:18Z</time>
</trkpt>
<trkpt lat="49.641929576173425" lon="9.226699769496918">
<ele>183.4</ele>
<time>2024-05-09T13:45:19Z</time>
</trkpt>
<trkpt lat="49.64191817678511" lon="9.226731285452844">
<ele>183.2</ele>
<time>2024-05-09T13:45:20Z</time>
</trkpt>
<trkpt lat="49.64191817678511" lon="9.226763723418117">
<ele>183</ele>
<time>2024-05-09T13:45:21Z</time>
</trkpt>
<trkpt lat="49.641925804317" lon="9.22679322771728">
<ele>182.8</ele>
<time>2024-05-09T13:45:22Z</time>
</trkpt>
<trkpt lat="49.64193720370531" lon="9.226823737844825">
<ele>182.6</ele>
<time>2024-05-09T13:45:23Z</time>
</trkpt>
<trkpt lat="49.64196008630097" lon="9.226844776421784">
<ele>182.4</ele>
<time>2024-05-09T13:45:24Z</time>
</trkpt>
<trkpt lat="49.64198296889663" lon="9.226861875504255">
<ele>182.2</ele>
<time>2024-05-09T13:45:25Z</time>
</trkpt>
<trkpt lat="49.642009707167745" lon="9.22687143087387">
<ele>182</ele>
<time>2024-05-09T13:45:26Z</time>
</trkpt>
<trkpt lat="49.64204021729529" lon="9.226882914081216">
<ele>181.8</ele>
<time>2024-05-09T13:45:27Z</time>
</trkpt>
<trkpt lat="49.64207458309829" lon="9.226900096982718">
<ele>181.8</ele>
<time>2024-05-09T13:45:28Z</time>
</trkpt>
<trkpt lat="49.642108865082264" lon="9.22691535204649">
<ele>181.8</ele>
<time>2024-05-09T13:45:29Z</time>
</trkpt>
<trkpt lat="49.64214323088527" lon="9.22692960128188">
<ele>181.6</ele>
<time>2024-05-09T13:45:30Z</time>
</trkpt>
<trkpt lat="49.64217751286924" lon="9.226943012326956">
<ele>181.2</ele>
<time>2024-05-09T13:45:31Z</time>
</trkpt>
<trkpt lat="49.64221187867224" lon="9.22695348970592">
<ele>181</ele>
<time>2024-05-09T13:45:32Z</time>
</trkpt>
<trkpt lat="49.642246244475245" lon="9.226962961256504">
<ele>180.6</ele>
<time>2024-05-09T13:45:33Z</time>
</trkpt>
<trkpt lat="49.64227675460279" lon="9.226978300139308">
<ele>180.4</ele>
<time>2024-05-09T13:45:34Z</time>
</trkpt>
<trkpt lat="49.642303409054875" lon="9.227004954591392">
<ele>180.2</ele>
<time>2024-05-09T13:45:35Z</time>
</trkpt>
<trkpt lat="49.64231866411865" lon="9.227046947926285">
<ele>180</ele>
<time>2024-05-09T13:45:36Z</time>
</trkpt>
<trkpt lat="49.64231866411865" lon="9.227093635126948">
<ele>179.8</ele>
<time>2024-05-09T13:45:37Z</time>
</trkpt>
<trkpt lat="49.642307264730334" lon="9.227138478308916">
<ele>179.8</ele>
<time>2024-05-09T13:45:38Z</time>
</trkpt>
<trkpt lat="49.64229200966656" lon="9.227181393653154">
<ele>179.6</ele>
<time>2024-05-09T13:45:39Z</time>
</trkpt>
<trkpt lat="49.64227675460279" lon="9.22723000869155">
<ele>179.6</ele>
<time>2024-05-09T13:45:40Z</time>
</trkpt>
<trkpt lat="49.64226149953902" lon="9.227276779711246">
<ele>179.4</ele>
<time>2024-05-09T13:45:41Z</time>
</trkpt>
<trkpt lat="49.64225001633167" lon="9.22732539474964">
<ele>179.4</ele>
<time>2024-05-09T13:45:42Z</time>
</trkpt>
<trkpt lat="49.6422347612679" lon="9.22737023793161">
<ele>179.4</ele>
<time>2024-05-09T13:45:43Z</time>
</trkpt>
<trkpt lat="49.642223278060555" lon="9.227416925132276">
<ele>179.4</ele>
<time>2024-05-09T13:45:44Z</time>
</trkpt>
<trkpt lat="49.64221565052867" lon="9.227459840476511">
<ele>179.4</ele>
<time>2024-05-09T13:45:45Z</time>
</trkpt>
<trkpt lat="49.6422003954649" lon="9.22750661149621">
<ele>179.4</ele>
<time>2024-05-09T13:45:46Z</time>
</trkpt>
<trkpt lat="49.642188996076584" lon="9.227549526840448">
<ele>179.4</ele>
<time>2024-05-09T13:45:47Z</time>
</trkpt>
<trkpt lat="49.64217374101281" lon="9.227596214041114">
<ele>179.6</ele>
<time>2024-05-09T13:45:48Z</time>
</trkpt>
<trkpt lat="49.64216225780547" lon="9.227642985060813">
<ele>179.6</ele>
<time>2024-05-09T13:45:49Z</time>
</trkpt>
<trkpt lat="49.642147002741694" lon="9.227688750252128">
<ele>179.8</ele>
<time>2024-05-09T13:45:50Z</time>
</trkpt>
<trkpt lat="49.64213560335338" lon="9.227733593434095">
<ele>180</ele>
<time>2024-05-09T13:45:51Z</time>
</trkpt>
<trkpt lat="49.64212412014603" lon="9.227778352797031">
<ele>180.2</ele>
<time>2024-05-09T13:45:52Z</time>
</trkpt>
<trkpt lat="49.64211649261415" lon="9.227823195979">
<ele>180.4</ele>
<time>2024-05-09T13:45:53Z</time>
</trkpt>
<trkpt lat="49.64210123755038" lon="9.227868039160969">
<ele>180.8</ele>
<time>2024-05-09T13:45:54Z</time>
</trkpt>
<trkpt lat="49.64209361001849" lon="9.227912882342936">
<ele>181</ele>
<time>2024-05-09T13:45:55Z</time>
</trkpt>
<trkpt lat="49.64208221063018" lon="9.227958647534251">
<ele>181.2</ele>
<time>2024-05-09T13:45:56Z</time>
</trkpt>
<trkpt lat="49.64207072742283" lon="9.228005334734917">
<ele>181.2</ele>
<time>2024-05-09T13:45:57Z</time>
</trkpt>
<trkpt lat="49.64205547235906" lon="9.228053027763965">
<ele>181.4</ele>
<time>2024-05-09T13:45:58Z</time>
</trkpt>
<trkpt lat="49.64204398915171" lon="9.228103570640087">
<ele>181.6</ele>
<time>2024-05-09T13:45:59Z</time>
</trkpt>
<trkpt lat="49.6420325897634" lon="9.228151263669131">
<ele>181.6</ele>
<time>2024-05-09T13:46:00Z</time>
</trkpt>
<trkpt lat="49.64202110655606" lon="9.22819803468883">
<ele>181.8</ele>
<time>2024-05-09T13:46:01Z</time>
</trkpt>
<trkpt lat="49.642005851492286" lon="9.228242794051766">
<ele>182</ele>
<time>2024-05-09T13:46:02Z</time>
</trkpt>
<trkpt lat="49.64199059642851" lon="9.228288643062116">
<ele>182</ele>
<time>2024-05-09T13:46:03Z</time>
</trkpt>
<trkpt lat="49.6419791970402" lon="9.22833533026278">
<ele>182.2</ele>
<time>2024-05-09T13:46:04Z</time>
</trkpt>
<trkpt lat="49.641971569508314" lon="9.228378245607018">
<ele>182.2</ele>
<time>2024-05-09T13:46:05Z</time>
</trkpt>
<trkpt lat="49.64195631444454" lon="9.228427866473794">
<ele>182.4</ele>
<time>2024-05-09T13:46:06Z</time>
</trkpt>
<trkpt lat="49.64194105938077" lon="9.228478409349918">
<ele>182.4</ele>
<time>2024-05-09T13:46:07Z</time>
</trkpt>
<trkpt lat="49.641929576173425" lon="9.228527024388312">
<ele>182.6</ele>
<time>2024-05-09T13:46:08Z</time>
</trkpt>
<trkpt lat="49.64191432110965" lon="9.228576645255089">
<ele>182.8</ele>
<time>2024-05-09T13:46:09Z</time>
</trkpt>
<trkpt lat="49.64189906604588" lon="9.228625260293484">
<ele>182.8</ele>
<time>2024-05-09T13:46:10Z</time>
</trkpt>
<trkpt lat="49.64187995530665" lon="9.22867295332253">
<ele>183</ele>
<time>2024-05-09T13:46:11Z</time>
</trkpt>
<trkpt lat="49.64186470024288" lon="9.228721568360925">
<ele>183</ele>
<time>2024-05-09T13:46:12Z</time>
</trkpt>
<trkpt lat="49.64185330085456" lon="9.22877311706543">
<ele>183.2</ele>
<time>2024-05-09T13:46:13Z</time>
</trkpt>
<trkpt lat="49.64183804579079" lon="9.228826509788632">
<ele>183.2</ele>
<time>2024-05-09T13:46:14Z</time>
</trkpt>
<trkpt lat="49.64182656258345" lon="9.228879902511837">
<ele>183.4</ele>
<time>2024-05-09T13:46:15Z</time>
</trkpt>
<trkpt lat="49.64181516319513" lon="9.228931367397308">
<ele>183.6</ele>
<time>2024-05-09T13:46:16Z</time>
</trkpt>
<trkpt lat="49.64179990813136" lon="9.228984760120513">
<ele>183.6</ele>
<time>2024-05-09T13:46:17Z</time>
</trkpt>
<trkpt lat="49.64178465306759" lon="9.229036308825016">
<ele>183.6</ele>
<time>2024-05-09T13:46:18Z</time>
</trkpt>
<trkpt lat="49.64176939800382" lon="9.22908877953887">
<ele>183.8</ele>
<time>2024-05-09T13:46:19Z</time>
</trkpt>
<trkpt lat="49.64175414294005" lon="9.229138316586614">
<ele>183.6</ele>
<time>2024-05-09T13:46:20Z</time>
</trkpt>
<trkpt lat="49.64173888787627" lon="9.22918793745339">
<ele>183.6</ele>
<time>2024-05-09T13:46:21Z</time>
</trkpt>
<trkpt lat="49.6417236328125" lon="9.229238480329514">
<ele>183.6</ele>
<time>2024-05-09T13:46:22Z</time>
</trkpt>
<trkpt lat="49.641708293929696" lon="9.22928617335856">
<ele>183.6</ele>
<time>2024-05-09T13:46:23Z</time>
</trkpt>
<trkpt lat="49.64169303886592" lon="9.229331938549876">
<ele>183.6</ele>
<time>2024-05-09T13:46:24Z</time>
</trkpt>
<trkpt lat="49.64167778380215" lon="9.229379631578922">
<ele>183.6</ele>
<time>2024-05-09T13:46:25Z</time>
</trkpt>
<trkpt lat="49.64166252873838" lon="9.229432102292776">
<ele>183.6</ele>
<time>2024-05-09T13:46:26Z</time>
</trkpt>
<trkpt lat="49.64164350181818" lon="9.22948163934052">
<ele>183.6</ele>
<time>2024-05-09T13:46:27Z</time>
</trkpt>
<trkpt lat="49.64162439107895" lon="9.229535032063724">
<ele>183.8</ele>
<time>2024-05-09T13:46:28Z</time>
</trkpt>
<trkpt lat="49.64160913601518" lon="9.229591358453035">
<ele>184</ele>
<time>2024-05-09T13:46:29Z</time>
</trkpt>
<trkpt lat="49.64159010909498" lon="9.229646679013968">
<ele>184</ele>
<time>2024-05-09T13:46:30Z</time>
</trkpt>
<trkpt lat="49.641574854031205" lon="9.229702921584249">
<ele>184</ele>
<time>2024-05-09T13:46:31Z</time>
</trkpt>
<trkpt lat="49.64155959896743" lon="9.229753464460371">
<ele>183.8</ele>
<time>2024-05-09T13:46:32Z</time>
</trkpt>
<trkpt lat="49.64154426008463" lon="9.229804929345846">
<ele>183.8</ele>
<time>2024-05-09T13:46:33Z</time>
</trkpt>
<trkpt lat="49.64153286069632" lon="9.229854550212622">
<ele>183.6</ele>
<time>2024-05-09T13:46:34Z</time>
</trkpt>
<trkpt lat="49.64152900502086" lon="9.229900315403938">
<ele>183.4</ele>
<time>2024-05-09T13:46:35Z</time>
</trkpt>
<trkpt lat="49.64152523316443" lon="9.229934681206942">
<ele>183.4</ele>
<time>2024-05-09T13:46:36Z</time>
</trkpt>
<trkpt lat="49.64152523316443" lon="9.229967035353184">
<ele>183.2</ele>
<time>2024-05-09T13:46:37Z</time>
</trkpt>
<trkpt lat="49.64152900502086" lon="9.230003328993917">
<ele>183</ele>
<time>2024-05-09T13:46:38Z</time>
</trkpt>
<trkpt lat="49.64154426008463" lon="9.230039538815618">
<ele>182.8</ele>
<time>2024-05-09T13:46:39Z</time>
</trkpt>
<trkpt lat="49.64156722649932" lon="9.230071976780891">
<ele>182.6</ele>
<time>2024-05-09T13:46:40Z</time>
</trkpt>
<trkpt lat="49.641593880951405" lon="9.230098715052009">
<ele>182.4</ele>
<time>2024-05-09T13:46:41Z</time>
</trkpt>
<trkpt lat="49.64162439107895" lon="9.230125369504094">
<ele>182.2</ele>
<time>2024-05-09T13:46:42Z</time>
</trkpt>
<trkpt lat="49.64165490120649" lon="9.230148252099752">
<ele>181.8</ele>
<time>2024-05-09T13:46:43Z</time>
</trkpt>
<trkpt lat="49.64168163947761" lon="9.23017306253314">
<ele>181.8</ele>
<time>2024-05-09T13:46:44Z</time>
</trkpt>
<trkpt lat="49.64171592146158" lon="9.230203572660685">
<ele>181.6</ele>
<time>2024-05-09T13:46:45Z</time>
</trkpt>
<trkpt lat="49.64174651540816" lon="9.23023508861661">
<ele>181.4</ele>
<time>2024-05-09T13:46:46Z</time>
</trkpt>
<trkpt lat="49.64178079739213" lon="9.230268448591232">
<ele>181.2</ele>
<time>2024-05-09T13:46:47Z</time>
</trkpt>
<trkpt lat="49.64181516319513" lon="9.230299880728126">
<ele>181</ele>
<time>2024-05-09T13:46:48Z</time>
</trkpt>
<trkpt lat="49.641849445179105" lon="9.23033139668405">
<ele>180.8</ele>
<time>2024-05-09T13:46:49Z</time>
</trkpt>
<trkpt lat="49.64187995530665" lon="9.230362828820944">
<ele>180.6</ele>
<time>2024-05-09T13:46:50Z</time>
</trkpt>
<trkpt lat="49.641910549253225" lon="9.23039149492979">
<ele>180.4</ele>
<time>2024-05-09T13:46:51Z</time>
</trkpt>
<trkpt lat="49.641948686912656" lon="9.230416221544148">
<ele>180.4</ele>
<time>2024-05-09T13:46:52Z</time>
</trkpt>
<trkpt lat="49.64198296889663" lon="9.230444887652991">
<ele>180.2</ele>
<time>2024-05-09T13:46:53Z</time>
</trkpt>
<trkpt lat="49.64201733469963" lon="9.23047154210508">
<ele>180</ele>
<time>2024-05-09T13:46:54Z</time>
</trkpt>
<trkpt lat="49.6420516166836" lon="9.230502052232625">
<ele>180</ele>
<time>2024-05-09T13:46:55Z</time>
</trkpt>
<trkpt lat="49.642085982486606" lon="9.23052686266601">
<ele>179.8</ele>
<time>2024-05-09T13:46:56Z</time>
</trkpt>
<trkpt lat="49.64211649261415" lon="9.230553600937128">
<ele>179.6</ele>
<time>2024-05-09T13:46:57Z</time>
</trkpt>
<trkpt lat="49.642147002741694" lon="9.23058503307402">
<ele>179.6</ele>
<time>2024-05-09T13:46:58Z</time>
</trkpt>
<trkpt lat="49.64217751286924" lon="9.230614621192217">
<ele>179.4</ele>
<time>2024-05-09T13:46:59Z</time>
</trkpt>
<trkpt lat="49.6422003954649" lon="9.230641359463334">
<ele>179.2</ele>
<time>2024-05-09T13:47:00Z</time>
</trkpt>
<trkpt lat="49.642227133736014" lon="9.230663236230612">
<ele>179</ele>
<time>2024-05-09T13:47:01Z</time>
</trkpt>
<trkpt lat="49.64225001633167" lon="9.23068519681692">
<ele>178.8</ele>
<time>2024-05-09T13:47:02Z</time>
</trkpt>
<trkpt lat="49.642265271395445" lon="9.23070807941258">
<ele>178.8</ele>
<time>2024-05-09T13:47:03Z</time>
</trkpt>
<trkpt lat="49.642269127070904" lon="9.230743367224932">
<ele>178.6</ele>
<time>2024-05-09T13:47:04Z</time>
</trkpt>
<trkpt lat="49.64227289892733" lon="9.230783432722092">
<ele>178.6</ele>
<time>2024-05-09T13:47:05Z</time>
</trkpt>
<trkpt lat="49.642265271395445" lon="9.230830119922755">
<ele>178.6</ele>
<time>2024-05-09T13:47:06Z</time>
</trkpt>
<trkpt lat="49.64226149953902" lon="9.230881668627262">
<ele>178.6</ele>
<time>2024-05-09T13:47:07Z</time>
</trkpt>
<trkpt lat="49.64225764386356" lon="9.230928355827928">
<ele>178.4</ele>
<time>2024-05-09T13:47:08Z</time>
</trkpt>
<trkpt lat="49.64225001633167" lon="9.230971271172166">
<ele>178.4</ele>
<time>2024-05-09T13:47:09Z</time>
</trkpt>
<trkpt lat="49.642246244475245" lon="9.231013264507055">
<ele>178.4</ele>
<time>2024-05-09T13:47:10Z</time>
</trkpt>
<trkpt lat="49.64224238879979" lon="9.231058107689025">
<ele>178.2</ele>
<time>2024-05-09T13:47:11Z</time>
</trkpt>
<trkpt lat="49.6422347612679" lon="9.231104794889688">
<ele>178.2</ele>
<time>2024-05-09T13:47:12Z</time>
</trkpt>
<trkpt lat="49.642223278060555" lon="9.231149638071656">
<ele>178</ele>
<time>2024-05-09T13:47:13Z</time>
</trkpt>
<trkpt lat="49.64221950620413" lon="9.231195403262973">
<ele>177.8</ele>
<time>2024-05-09T13:47:14Z</time>
</trkpt>
<trkpt lat="49.64221187867224" lon="9.23124309629202">
<ele>177.8</ele>
<time>2024-05-09T13:47:15Z</time>
</trkpt>
<trkpt lat="49.6422003954649" lon="9.231291711330414">
<ele>177.6</ele>
<time>2024-05-09T13:47:16Z</time>
</trkpt>
<trkpt lat="49.64219276793301" lon="9.23134133219719">
<ele>177.6</ele>
<time>2024-05-09T13:47:17Z</time>
</trkpt>
<trkpt lat="49.6421813685447" lon="9.231394724920392">
<ele>177.4</ele>
<time>2024-05-09T13:47:18Z</time>
</trkpt>
<trkpt lat="49.64217374101281" lon="9.231450045481324">
<ele>177.4</ele>
<time>2024-05-09T13:47:19Z</time>
</trkpt>
<trkpt lat="49.64216225780547" lon="9.231508215889336">
<ele>177.4</ele>
<time>2024-05-09T13:47:20Z</time>
</trkpt>
<trkpt lat="49.64215463027358" lon="9.231568314135076">
<ele>177.4</ele>
<time>2024-05-09T13:47:21Z</time>
</trkpt>
<trkpt lat="49.64214323088527" lon="9.231626484543083">
<ele>177.2</ele>
<time>2024-05-09T13:47:22Z</time>
</trkpt>
<trkpt lat="49.64213937520981" lon="9.231684654951096">
<ele>177</ele>
<time>2024-05-09T13:47:23Z</time>
</trkpt>
<trkpt lat="49.64213174767792" lon="9.231748525053264">
<ele>177</ele>
<time>2024-05-09T13:47:24Z</time>
</trkpt>
<trkpt lat="49.64213174767792" lon="9.23181340098381">
<ele>176.8</ele>
<time>2024-05-09T13:47:25Z</time>
</trkpt>
<trkpt lat="49.64213174767792" lon="9.231878276914358">
<ele>176.6</ele>
<time>2024-05-09T13:47:26Z</time>
</trkpt>
<trkpt lat="49.642127975821495" lon="9.231946924701331">
<ele>176.6</ele>
<time>2024-05-09T13:47:27Z</time>
</trkpt>
<trkpt lat="49.642127975821495" lon="9.23201465047896">
<ele>176.6</ele>
<time>2024-05-09T13:47:28Z</time>
</trkpt>
<trkpt lat="49.642127975821495" lon="9.232081370428205">
<ele>176.4</ele>
<time>2024-05-09T13:47:29Z</time>
</trkpt>
<trkpt lat="49.642127975821495" lon="9.23214809037745">
<ele>176.4</ele>
<time>2024-05-09T13:47:30Z</time>
</trkpt>
<trkpt lat="49.64213174767792" lon="9.232214894145727">
<ele>176.4</ele>
<time>2024-05-09T13:47:31Z</time>
</trkpt>
<trkpt lat="49.64213174767792" lon="9.232283541932702">
<ele>176.4</ele>
<time>2024-05-09T13:47:32Z</time>
</trkpt>
<trkpt lat="49.64213560335338" lon="9.232351267710328">
<ele>176.4</ele>
<time>2024-05-09T13:47:33Z</time>
</trkpt>
<trkpt lat="49.64213937520981" lon="9.232423771172762">
<ele>176.4</ele>
<time>2024-05-09T13:47:34Z</time>
</trkpt>
<trkpt lat="49.64214323088527" lon="9.232495268806815">
<ele>176.2</ele>
<time>2024-05-09T13:47:35Z</time>
</trkpt>
<trkpt lat="49.64215085841715" lon="9.232566766440868">
<ele>176</ele>
<time>2024-05-09T13:47:36Z</time>
</trkpt>
<trkpt lat="49.64215848594904" lon="9.232636420056224">
<ele>175.8</ele>
<time>2024-05-09T13:47:37Z</time>
</trkpt>
<trkpt lat="49.642166113480926" lon="9.23270314000547">
<ele>175.8</ele>
<time>2024-05-09T13:47:38Z</time>
</trkpt>
<trkpt lat="49.64216988533735" lon="9.232768015936015">
<ele>175.6</ele>
<time>2024-05-09T13:47:39Z</time>
</trkpt>
<trkpt lat="49.64217751286924" lon="9.232832891866565">
<ele>175.6</ele>
<time>2024-05-09T13:47:40Z</time>
</trkpt>
<trkpt lat="49.642188996076584" lon="9.23290153965354">
<ele>175.8</ele>
<time>2024-05-09T13:47:41Z</time>
</trkpt>
<trkpt lat="49.6422003954649" lon="9.232968259602783">
<ele>175.8</ele>
<time>2024-05-09T13:47:42Z</time>
</trkpt>
<trkpt lat="49.64221187867224" lon="9.233036991208792">
<ele>175.8</ele>
<time>2024-05-09T13:47:43Z</time>
</trkpt>
<trkpt lat="49.642223278060555" lon="9.233104633167386">
<ele>175.8</ele>
<time>2024-05-09T13:47:44Z</time>
</trkpt>
<trkpt lat="49.64223861694336" lon="9.23317520879209">
<ele>175.6</ele>
<time>2024-05-09T13:47:45Z</time>
</trkpt>
<trkpt lat="49.64225387200713" lon="9.233244862407446">
<ele>175.6</ele>
<time>2024-05-09T13:47:46Z</time>
</trkpt>
<trkpt lat="49.642269127070904" lon="9.23331543803215">
<ele>175.4</ele>
<time>2024-05-09T13:47:47Z</time>
</trkpt>
<trkpt lat="49.64228052645922" lon="9.233383163809776">
<ele>175.4</ele>
<time>2024-05-09T13:47:48Z</time>
</trkpt>
<trkpt lat="49.64229578152299" lon="9.233447033911943">
<ele>175.2</ele>
<time>2024-05-09T13:47:49Z</time>
</trkpt>
<trkpt lat="49.642307264730334" lon="9.233509982004762">
<ele>175.2</ele>
<time>2024-05-09T13:47:50Z</time>
</trkpt>
<trkpt lat="49.64231489226222" lon="9.2335719242692">
<ele>175</ele>
<time>2024-05-09T13:47:51Z</time>
</trkpt>
<trkpt lat="49.642326291650534" lon="9.233636800199749">
<ele>175</ele>
<time>2024-05-09T13:47:52Z</time>
</trkpt>
<trkpt lat="49.64233777485788" lon="9.233701676130297">
<ele>174.8</ele>
<time>2024-05-09T13:47:53Z</time>
</trkpt>
<trkpt lat="49.642345402389765" lon="9.23376839607954">
<ele>174.8</ele>
<time>2024-05-09T13:47:54Z</time>
</trkpt>
<trkpt lat="49.64235680177808" lon="9.233835199847816">
<ele>174.8</ele>
<time>2024-05-09T13:47:55Z</time>
</trkpt>
<trkpt lat="49.64237205684185" lon="9.233901919797065">
<ele>174.8</ele>
<time>2024-05-09T13:47:56Z</time>
</trkpt>
<trkpt lat="49.64238731190562" lon="9.23396486788988">
<ele>174.8</ele>
<time>2024-05-09T13:47:57Z</time>
</trkpt>
<trkpt lat="49.64239879511297" lon="9.23402689397335">
<ele>174.8</ele>
<time>2024-05-09T13:47:58Z</time>
</trkpt>
<trkpt lat="49.6424179058522" lon="9.23408791422844">
<ele>174.8</ele>
<time>2024-05-09T13:47:59Z</time>
</trkpt>
<trkpt lat="49.64242930524051" lon="9.234149856492875">
<ele>175</ele>
<time>2024-05-09T13:48:00Z</time>
</trkpt>
<trkpt lat="49.64244456030429" lon="9.234209954738615">
<ele>175</ele>
<time>2024-05-09T13:48:01Z</time>
</trkpt>
<trkpt lat="49.642459815368056" lon="9.234265275299547">
<ele>175.2</ele>
<time>2024-05-09T13:48:02Z</time>
</trkpt>
<trkpt lat="49.64247507043183" lon="9.234316824004054">
<ele>175.2</ele>
<time>2024-05-09T13:48:03Z</time>
</trkpt>
<trkpt lat="49.64248655363917" lon="9.234368288889527">
<ele>175.4</ele>
<time>2024-05-09T13:48:04Z</time>
</trkpt>
<trkpt lat="49.642501808702946" lon="9.234416903927922">
<ele>175.4</ele>
<time>2024-05-09T13:48:05Z</time>
</trkpt>
<trkpt lat="49.64251320809126" lon="9.23446367494762">
<ele>175.4</ele>
<time>2024-05-09T13:48:06Z</time>
</trkpt>
<trkpt lat="49.642520835623145" lon="9.234510362148283">
<ele>175.6</ele>
<time>2024-05-09T13:48:07Z</time>
</trkpt>
<trkpt lat="49.64252846315503" lon="9.234556127339602">
<ele>175.6</ele>
<time>2024-05-09T13:48:08Z</time>
</trkpt>
<trkpt lat="49.642539946362376" lon="9.2346028983593">
<ele>175.6</ele>
<time>2024-05-09T13:48:09Z</time>
</trkpt>
<trkpt lat="49.64255134575069" lon="9.234653441235425">
<ele>175.6</ele>
<time>2024-05-09T13:48:10Z</time>
</trkpt>
<trkpt lat="49.642558973282576" lon="9.234700128436089">
<ele>175.6</ele>
<time>2024-05-09T13:48:11Z</time>
</trkpt>
<trkpt lat="49.64257045648992" lon="9.234747821465136">
<ele>175.6</ele>
<time>2024-05-09T13:48:12Z</time>
</trkpt>
<trkpt lat="49.642581939697266" lon="9.234794592484832">
<ele>175.6</ele>
<time>2024-05-09T13:48:13Z</time>
</trkpt>
<trkpt lat="49.64258956722915" lon="9.234843207523229">
<ele>175.8</ele>
<time>2024-05-09T13:48:14Z</time>
</trkpt>
<trkpt lat="49.64259719476104" lon="9.234891822561622">
<ele>175.8</ele>
<time>2024-05-09T13:48:15Z</time>
</trkpt>
<trkpt lat="49.64260482229293" lon="9.234941443428395">
<ele>175.8</ele>
<time>2024-05-09T13:48:16Z</time>
</trkpt>
<trkpt lat="49.64261244982481" lon="9.234991986304522">
<ele>175.8</ele>
<time>2024-05-09T13:48:17Z</time>
</trkpt>
<trkpt lat="49.642620077356696" lon="9.235041607171295">
<ele>175.8</ele>
<time>2024-05-09T13:48:18Z</time>
</trkpt>
<trkpt lat="49.64262770488858" lon="9.23509307205677">
<ele>175.8</ele>
<time>2024-05-09T13:48:19Z</time>
</trkpt>
<trkpt lat="49.64263147674501" lon="9.235144536942244">
<ele>175.8</ele>
<time>2024-05-09T13:48:20Z</time>
</trkpt>
<trkpt lat="49.64263147674501" lon="9.235197007656096">
<ele>175.8</ele>
<time>2024-05-09T13:48:21Z</time>
</trkpt>
<trkpt lat="49.64263147674501" lon="9.2352504003793">
<ele>175.8</ele>
<time>2024-05-09T13:48:22Z</time>
</trkpt>
<trkpt lat="49.64263533242047" lon="9.235302871093154">
<ele>175.6</ele>
<time>2024-05-09T13:48:23Z</time>
</trkpt>
<trkpt lat="49.64263533242047" lon="9.235356263816357">
<ele>175.6</ele>
<time>2024-05-09T13:48:24Z</time>
</trkpt>
<trkpt lat="49.64263533242047" lon="9.23540873453021">
<ele>175.6</ele>
<time>2024-05-09T13:48:25Z</time>
</trkpt>
<trkpt lat="49.642639104276896" lon="9.235460199415684">
<ele>175.4</ele>
<time>2024-05-09T13:48:26Z</time>
</trkpt>
<trkpt lat="49.642639104276896" lon="9.23550982028246">
<ele>175.4</ele>
<time>2024-05-09T13:48:27Z</time>
</trkpt>
<trkpt lat="49.642639104276896" lon="9.235561368986964">
<ele>175.2</ele>
<time>2024-05-09T13:48:28Z</time>
</trkpt>
<trkpt lat="49.64263533242047" lon="9.235614761710169">
<ele>175.2</ele>
<time>2024-05-09T13:48:29Z</time>
</trkpt>
<trkpt lat="49.64263533242047" lon="9.23566815443337">
<ele>175.2</ele>
<time>2024-05-09T13:48:30Z</time>
</trkpt>
<trkpt lat="49.64263147674501" lon="9.235719619318845">
<ele>175.2</ele>
<time>2024-05-09T13:48:31Z</time>
</trkpt>
<trkpt lat="49.64262770488858" lon="9.235770162194967">
<ele>175.2</ele>
<time>2024-05-09T13:48:32Z</time>
</trkpt>
<trkpt lat="49.642620077356696" lon="9.235819783061745">
<ele>175.2</ele>
<time>2024-05-09T13:48:33Z</time>
</trkpt>
<trkpt lat="49.642620077356696" lon="9.235868398100138">
<ele>175.2</ele>
<time>2024-05-09T13:48:34Z</time>
</trkpt>
<trkpt lat="49.64261244982481" lon="9.235918018966911">
<ele>175.2</ele>
<time>2024-05-09T13:48:35Z</time>
</trkpt>
<trkpt lat="49.64260482229293" lon="9.235969483852386">
<ele>175.2</ele>
<time>2024-05-09T13:48:36Z</time>
</trkpt>
<trkpt lat="49.64259719476104" lon="9.23602195456624">
<ele>175.2</ele>
<time>2024-05-09T13:48:37Z</time>
</trkpt>
<trkpt lat="49.64258956722915" lon="9.236075347289445">
<ele>175.2</ele>
<time>2024-05-09T13:48:38Z</time>
</trkpt>
<trkpt lat="49.64257808402181" lon="9.236131589859724">
<ele>175.2</ele>
<time>2024-05-09T13:48:39Z</time>
</trkpt>
<trkpt lat="49.64257045648992" lon="9.236189760267736">
<ele>175.2</ele>
<time>2024-05-09T13:48:40Z</time>
</trkpt>
<trkpt lat="49.642562828958035" lon="9.236251786351204">
<ele>175.2</ele>
<time>2024-05-09T13:48:41Z</time>
</trkpt>
<trkpt lat="49.64255134575069" lon="9.236316662281752">
<ele>175.2</ele>
<time>2024-05-09T13:48:42Z</time>
</trkpt>
<trkpt lat="49.6425437182188" lon="9.236386232078075">
<ele>175.2</ele>
<time>2024-05-09T13:48:43Z</time>
</trkpt>
<trkpt lat="49.64253609068692" lon="9.236459657549858">
<ele>175.2</ele>
<time>2024-05-09T13:48:44Z</time>
</trkpt>
<trkpt lat="49.64252846315503" lon="9.236537860706449">
<ele>175.2</ele>
<time>2024-05-09T13:48:45Z</time>
</trkpt>
<trkpt lat="49.642520835623145" lon="9.23661514185369">
<ele>175.2</ele>
<time>2024-05-09T13:48:46Z</time>
</trkpt>
<trkpt lat="49.64250943623483" lon="9.236689489334822">
<ele>175.2</ele>
<time>2024-05-09T13:48:47Z</time>
</trkpt>
<trkpt lat="49.642501808702946" lon="9.236766770482063">
<ele>175.2</ele>
<time>2024-05-09T13:48:48Z</time>
</trkpt>
<trkpt lat="49.64249418117106" lon="9.236841201782228">
<ele>175.2</ele>
<time>2024-05-09T13:48:49Z</time>
</trkpt>
<trkpt lat="49.64248655363917" lon="9.2369116935879">
<ele>175.2</ele>
<time>2024-05-09T13:48:50Z</time>
</trkpt>
<trkpt lat="49.64247892610729" lon="9.236981347203256">
<ele>175.2</ele>
<time>2024-05-09T13:48:51Z</time>
</trkpt>
<trkpt lat="49.6424712985754" lon="9.23704999499023">
<ele>175.2</ele>
<time>2024-05-09T13:48:52Z</time>
</trkpt>
<trkpt lat="49.642459815368056" lon="9.237116798758509">
<ele>175.2</ele>
<time>2024-05-09T13:48:53Z</time>
</trkpt>
<trkpt lat="49.64245218783617" lon="9.237181590870025">
<ele>175.2</ele>
<time>2024-05-09T13:48:54Z</time>
</trkpt>
<trkpt lat="49.64244078844786" lon="9.23725032247603">
<ele>175.2</ele>
<time>2024-05-09T13:48:55Z</time>
</trkpt>
<trkpt lat="49.64242930524051" lon="9.237317042425277">
<ele>175.2</ele>
<time>2024-05-09T13:48:56Z</time>
</trkpt>
<trkpt lat="49.6424179058522" lon="9.2373847682029">
<ele>175.2</ele>
<time>2024-05-09T13:48:57Z</time>
</trkpt>
<trkpt lat="49.642406422644854" lon="9.237455343827603">
<ele>175.2</ele>
<time>2024-05-09T13:48:58Z</time>
</trkpt>
<trkpt lat="49.64239493943751" lon="9.237524913623927">
<ele>175.2</ele>
<time>2024-05-09T13:48:59Z</time>
</trkpt>
<trkpt lat="49.64237591251731" lon="9.237587861716747">
<ele>175.2</ele>
<time>2024-05-09T13:49:00Z</time>
</trkpt>
<trkpt lat="49.64234917424619" lon="9.23764318227768">
<ele>175.2</ele>
<time>2024-05-09T13:49:01Z</time>
</trkpt>
<trkpt lat="49.642326291650534" lon="9.237687103450298">
<ele>175.2</ele>
<time>2024-05-09T13:49:02Z</time>
</trkpt>
<trkpt lat="49.64229578152299" lon="9.237723313272">
<ele>175.2</ele>
<time>2024-05-09T13:49:03Z</time>
</trkpt>
<trkpt lat="49.642265271395445" lon="9.2377595230937">
<ele>175.2</ele>
<time>2024-05-09T13:49:04Z</time>
</trkpt>
<trkpt lat="49.6422347612679" lon="9.237794810906053">
<ele>175.2</ele>
<time>2024-05-09T13:49:05Z</time>
</trkpt>
<trkpt lat="49.64220802299678" lon="9.237828254699709">
<ele>175.2</ele>
<time>2024-05-09T13:49:06Z</time>
</trkpt>
<trkpt lat="49.64217751286924" lon="9.237870164215565">
<ele>175.4</ele>
<time>2024-05-09T13:49:07Z</time>
</trkpt>
<trkpt lat="49.642147002741694" lon="9.237916935235262">
<ele>175.4</ele>
<time>2024-05-09T13:49:08Z</time>
</trkpt>
<trkpt lat="49.64211649261415" lon="9.237963622435927">
<ele>175.6</ele>
<time>2024-05-09T13:49:09Z</time>
</trkpt>
<trkpt lat="49.642089838162065" lon="9.238011315464972">
<ele>175.6</ele>
<time>2024-05-09T13:49:10Z</time>
</trkpt>
<trkpt lat="49.64206309989095" lon="9.23805515281856">
<ele>175.6</ele>
<time>2024-05-09T13:49:11Z</time>
</trkpt>
<trkpt lat="49.64203636161983" lon="9.238102845847608">
<ele>175.8</ele>
<time>2024-05-09T13:49:12Z</time>
</trkpt>
<trkpt lat="49.64201347902417" lon="9.238153388723733">
<ele>175.8</ele>
<time>2024-05-09T13:49:13Z</time>
</trkpt>
<trkpt lat="49.641986824572086" lon="9.238206781446934">
<ele>175.8</ele>
<time>2024-05-09T13:49:14Z</time>
</trkpt>
<trkpt lat="49.64196394197643" lon="9.23825833015144">
<ele>175.8</ele>
<time>2024-05-09T13:49:15Z</time>
</trkpt>
<trkpt lat="49.64194105938077" lon="9.23831172287464">
<ele>176</ele>
<time>2024-05-09T13:49:16Z</time>
</trkpt>
<trkpt lat="49.64191817678511" lon="9.238367043435574">
<ele>176</ele>
<time>2024-05-09T13:49:17Z</time>
</trkpt>
<trkpt lat="49.64189529418945" lon="9.238419514149427">
<ele>176</ele>
<time>2024-05-09T13:49:18Z</time>
</trkpt>
<trkpt lat="49.64187232777476" lon="9.23847290687263">
<ele>176</ele>
<time>2024-05-09T13:49:19Z</time>
</trkpt>
<trkpt lat="49.641849445179105" lon="9.238530155271292">
<ele>176</ele>
<time>2024-05-09T13:49:20Z</time>
</trkpt>
<trkpt lat="49.64182656258345" lon="9.238586397841573">
<ele>176</ele>
<time>2024-05-09T13:49:21Z</time>
</trkpt>
<trkpt lat="49.64179990813136" lon="9.238641718402503">
<ele>176</ele>
<time>2024-05-09T13:49:22Z</time>
</trkpt>
<trkpt lat="49.64177316986024" lon="9.238697038963435">
<ele>176</ele>
<time>2024-05-09T13:49:23Z</time>
</trkpt>
<trkpt lat="49.64174651540816" lon="9.238751353695989">
<ele>176</ele>
<time>2024-05-09T13:49:24Z</time>
</trkpt>
<trkpt lat="49.64171977713704" lon="9.23880667425692">
<ele>176</ele>
<time>2024-05-09T13:49:25Z</time>
</trkpt>
<trkpt lat="49.64169303886592" lon="9.238860066980124">
<ele>176</ele>
<time>2024-05-09T13:49:26Z</time>
</trkpt>
<trkpt lat="49.641670156270266" lon="9.238911615684628">
<ele>176</ele>
<time>2024-05-09T13:49:27Z</time>
</trkpt>
<trkpt lat="49.64164350181818" lon="9.238961152732372">
<ele>176</ele>
<time>2024-05-09T13:49:28Z</time>
</trkpt>
<trkpt lat="49.64161676354706" lon="9.239013623446226">
<ele>176</ele>
<time>2024-05-09T13:49:29Z</time>
</trkpt>
<trkpt lat="49.64159010909498" lon="9.2390650883317">
<ele>176</ele>
<time>2024-05-09T13:49:30Z</time>
</trkpt>
<trkpt lat="49.64156337082386" lon="9.239116637036204">
<ele>176</ele>
<time>2024-05-09T13:49:31Z</time>
</trkpt>
<trkpt lat="49.64153663255274" lon="9.23916625790298">
<ele>176</ele>
<time>2024-05-09T13:49:32Z</time>
</trkpt>
<trkpt lat="49.64150997810066" lon="9.239216800779104">
<ele>176</ele>
<time>2024-05-09T13:49:33Z</time>
</trkpt>
<trkpt lat="49.641487095505" lon="9.239266337826848">
<ele>176</ele>
<time>2024-05-09T13:49:34Z</time>
</trkpt>
<trkpt lat="49.64146035723388" lon="9.239314952865245">
<ele>176</ele>
<time>2024-05-09T13:49:35Z</time>
</trkpt>
<trkpt lat="49.6414337027818" lon="9.239364573732018">
<ele>176</ele>
<time>2024-05-09T13:49:36Z</time>
</trkpt>
<trkpt lat="49.64141082018614" lon="9.239417044445872">
<ele>176.2</ele>
<time>2024-05-09T13:49:37Z</time>
</trkpt>
<trkpt lat="49.64138793759048" lon="9.239468509331346">
<ele>176.2</ele>
<time>2024-05-09T13:49:38Z</time>
</trkpt>
<trkpt lat="49.64136497117579" lon="9.23952005803585">
<ele>176.2</ele>
<time>2024-05-09T13:49:39Z</time>
</trkpt>
<trkpt lat="49.64134208858013" lon="9.239571522921324">
<ele>176.2</ele>
<time>2024-05-09T13:49:40Z</time>
</trkpt>
<trkpt lat="49.64131920598447" lon="9.239622987806795">
<ele>176.2</ele>
<time>2024-05-09T13:49:41Z</time>
</trkpt>
<trkpt lat="49.641296323388815" lon="9.239676464349031">
<ele>176.2</ele>
<time>2024-05-09T13:49:42Z</time>
</trkpt>
<trkpt lat="49.64126966893673" lon="9.239729857072234">
<ele>176.2</ele>
<time>2024-05-09T13:49:43Z</time>
</trkpt>
<trkpt lat="49.64124678634107" lon="9.239781321957707">
<ele>176.2</ele>
<time>2024-05-09T13:49:44Z</time>
</trkpt>
<trkpt lat="49.641220048069954" lon="9.23983664251864">
<ele>176.4</ele>
<time>2024-05-09T13:49:45Z</time>
</trkpt>
<trkpt lat="49.64119330979884" lon="9.239890035241842">
<ele>176.4</ele>
<time>2024-05-09T13:49:46Z</time>
</trkpt>
<trkpt lat="49.64116665534675" lon="9.239943427965043">
<ele>176.6</ele>
<time>2024-05-09T13:49:47Z</time>
</trkpt>
<trkpt lat="49.641139917075634" lon="9.23999497666955">
<ele>176.6</ele>
<time>2024-05-09T13:49:48Z</time>
</trkpt>
<trkpt lat="49.64111326262355" lon="9.240050297230482">
<ele>176.4</ele>
<time>2024-05-09T13:49:49Z</time>
</trkpt>
<trkpt lat="49.64108652435243" lon="9.240103689953685">
<ele>176.4</ele>
<time>2024-05-09T13:49:50Z</time>
</trkpt>
<trkpt lat="49.641059869900346" lon="9.240158004686236">
<ele>176.4</ele>
<time>2024-05-09T13:49:51Z</time>
</trkpt>
<trkpt lat="49.64103698730469" lon="9.240213325247169">
<ele>176.2</ele>
<time>2024-05-09T13:49:52Z</time>
</trkpt>
<trkpt lat="49.64101402089" lon="9.240264873951674">
<ele>176.2</ele>
<time>2024-05-09T13:49:53Z</time>
</trkpt>
<trkpt lat="49.64098736643791" lon="9.240316338837149">
<ele>176.2</ele>
<time>2024-05-09T13:49:54Z</time>
</trkpt>
<trkpt lat="49.640964483842254" lon="9.240367887541652">
<ele>176.4</ele>
<time>2024-05-09T13:49:55Z</time>
</trkpt>
<trkpt lat="49.64093774557114" lon="9.240420274436474">
<ele>176.4</ele>
<time>2024-05-09T13:49:56Z</time>
</trkpt>
<trkpt lat="49.64091486297548" lon="9.240474672988055">
<ele>176.4</ele>
<time>2024-05-09T13:49:57Z</time>
</trkpt>
<trkpt lat="49.64088820852339" lon="9.24052999354899">
<ele>176.4</ele>
<time>2024-05-09T13:49:58Z</time>
</trkpt>
<trkpt lat="49.64086909778416" lon="9.240581458434464">
<ele>176.4</ele>
<time>2024-05-09T13:49:59Z</time>
</trkpt>
<trkpt lat="49.6408462151885" lon="9.240634851157663">
<ele>176.4</ele>
<time>2024-05-09T13:50:00Z</time>
</trkpt>
<trkpt lat="49.64082710444927" lon="9.240690171718596">
<ele>176.4</ele>
<time>2024-05-09T13:50:01Z</time>
</trkpt>
<trkpt lat="49.64080807752907" lon="9.24074649810791">
<ele>176.4</ele>
<time>2024-05-09T13:50:02Z</time>
</trkpt>
<trkpt lat="49.64078896678984" lon="9.240806512534618">
<ele>176.4</ele>
<time>2024-05-09T13:50:03Z</time>
</trkpt>
<trkpt lat="49.64076993986964" lon="9.240864682942629">
<ele>176.4</ele>
<time>2024-05-09T13:50:04Z</time>
</trkpt>
<trkpt lat="49.640747057273984" lon="9.24092285335064">
<ele>176.4</ele>
<time>2024-05-09T13:50:05Z</time>
</trkpt>
<trkpt lat="49.64073180221021" lon="9.240978173911572">
<ele>176.4</ele>
<time>2024-05-09T13:50:06Z</time>
</trkpt>
<trkpt lat="49.64070891961455" lon="9.241035422310231">
<ele>176.4</ele>
<time>2024-05-09T13:50:07Z</time>
</trkpt>
<trkpt lat="49.64068980887532" lon="9.241089820861816">
<ele>176.4</ele>
<time>2024-05-09T13:50:08Z</time>
</trkpt>
<trkpt lat="49.64067455381155" lon="9.241145057603717">
<ele>176.6</ele>
<time>2024-05-09T13:50:09Z</time>
</trkpt>
<trkpt lat="49.64065167121589" lon="9.241200378164647">
<ele>176.6</ele>
<time>2024-05-09T13:50:10Z</time>
</trkpt>
<trkpt lat="49.64063641615212" lon="9.241256704553962">
<ele>176.6</ele>
<time>2024-05-09T13:50:11Z</time>
</trkpt>
<trkpt lat="49.64061730541289" lon="9.241314874961972">
<ele>176.6</ele>
<time>2024-05-09T13:50:12Z</time>
</trkpt>
<trkpt lat="49.64060205034912" lon="9.241372039541602">
<ele>176.4</ele>
<time>2024-05-09T13:50:13Z</time>
</trkpt>
<trkpt lat="49.6405906509608" lon="9.241430209949613">
<ele>176.4</ele>
<time>2024-05-09T13:50:14Z</time>
</trkpt>
<trkpt lat="49.64057916775346" lon="9.241490308195353">
<ele>176.6</ele>
<time>2024-05-09T13:50:15Z</time>
</trkpt>
<trkpt lat="49.64057154022157" lon="9.24155132845044">
<ele>176.6</ele>
<time>2024-05-09T13:50:16Z</time>
</trkpt>
<trkpt lat="49.640563912689686" lon="9.24161335453391">
<ele>176.8</ele>
<time>2024-05-09T13:50:17Z</time>
</trkpt>
<trkpt lat="49.64056014083326" lon="9.241676302626727">
<ele>176.8</ele>
<time>2024-05-09T13:50:18Z</time>
</trkpt>
<trkpt lat="49.64056014083326" lon="9.241740172728896">
<ele>176.8</ele>
<time>2024-05-09T13:50:19Z</time>
</trkpt>
<trkpt lat="49.640563912689686" lon="9.241798343136908">
<ele>177</ele>
<time>2024-05-09T13:50:20Z</time>
</trkpt>
<trkpt lat="49.640567768365145" lon="9.241858441382648">
<ele>177</ele>
<time>2024-05-09T13:50:21Z</time>
</trkpt>
<trkpt lat="49.640567768365145" lon="9.241918539628386">
<ele>177.2</ele>
<time>2024-05-09T13:50:22Z</time>
</trkpt>
<trkpt lat="49.640567768365145" lon="9.241979559883475">
<ele>177.2</ele>
<time>2024-05-09T13:50:23Z</time>
</trkpt>
<trkpt lat="49.64057154022157" lon="9.242038652300836">
<ele>177.2</ele>
<time>2024-05-09T13:50:24Z</time>
</trkpt>
<trkpt lat="49.64057154022157" lon="9.242096822708843">
<ele>177.2</ele>
<time>2024-05-09T13:50:25Z</time>
</trkpt>
<trkpt lat="49.64057154022157" lon="9.242154993116856">
<ele>177.2</ele>
<time>2024-05-09T13:50:26Z</time>
</trkpt>
<trkpt lat="49.64057154022157" lon="9.242213247343898">
<ele>177.4</ele>
<time>2024-05-09T13:50:27Z</time>
</trkpt>
<trkpt lat="49.64057154022157" lon="9.242271417751908">
<ele>177.4</ele>
<time>2024-05-09T13:50:28Z</time>
</trkpt>
<trkpt lat="49.64057154022157" lon="9.24232958815992">
<ele>177.4</ele>
<time>2024-05-09T13:50:29Z</time>
</trkpt>
<trkpt lat="49.64057154022157" lon="9.242386752739549">
<ele>177.4</ele>
<time>2024-05-09T13:50:30Z</time>
</trkpt>
<trkpt lat="49.640567768365145" lon="9.24244307912886">
<ele>177.4</ele>
<time>2024-05-09T13:50:31Z</time>
</trkpt>
<trkpt lat="49.64056014083326" lon="9.242501249536872">
<ele>177.4</ele>
<time>2024-05-09T13:50:32Z</time>
</trkpt>
<trkpt lat="49.64056014083326" lon="9.24256511963904">
<ele>177.4</ele>
<time>2024-05-09T13:50:33Z</time>
</trkpt>
<trkpt lat="49.64055251330137" lon="9.242626139894128">
<ele>177.4</ele>
<time>2024-05-09T13:50:34Z</time>
</trkpt>
<trkpt lat="49.640548657625914" lon="9.24268531613052">
<ele>177.4</ele>
<time>2024-05-09T13:50:35Z</time>
</trkpt>
<trkpt lat="49.64054103009403" lon="9.2427415587008">
<ele>177.4</ele>
<time>2024-05-09T13:50:36Z</time>
</trkpt>
<trkpt lat="49.640529630705714" lon="9.242794951424004">
<ele>177.4</ele>
<time>2024-05-09T13:50:37Z</time>
</trkpt>
<trkpt lat="49.64051429182291" lon="9.242843566462398">
<ele>177.6</ele>
<time>2024-05-09T13:50:38Z</time>
</trkpt>
<trkpt lat="49.64049140922725" lon="9.242884553968906">
<ele>177.6</ele>
<time>2024-05-09T13:50:39Z</time>
</trkpt>
<trkpt lat="49.64046089909971" lon="9.242924619466066">
<ele>177.8</ele>
<time>2024-05-09T13:50:40Z</time>
</trkpt>
<trkpt lat="49.64043038897216" lon="9.242961835116148">
<ele>177.8</ele>
<time>2024-05-09T13:50:41Z</time>
</trkpt>
<trkpt lat="49.64039987884462" lon="9.243002822622657">
<ele>178</ele>
<time>2024-05-09T13:50:42Z</time>
</trkpt>
<trkpt lat="49.64036559686065" lon="9.243041966110468">
<ele>178</ele>
<time>2024-05-09T13:50:43Z</time>
</trkpt>
<trkpt lat="49.64033500291407" lon="9.24307624809444">
<ele>178.2</ele>
<time>2024-05-09T13:50:44Z</time>
</trkpt>
<trkpt lat="49.6403007209301" lon="9.243109691888094">
<ele>178.2</ele>
<time>2024-05-09T13:50:45Z</time>
</trkpt>
<trkpt lat="49.640270210802555" lon="9.243144979700446">
<ele>178.4</ele>
<time>2024-05-09T13:50:46Z</time>
</trkpt>
<trkpt lat="49.64023584499955" lon="9.243186889216304">
<ele>178.6</ele>
<time>2024-05-09T13:50:47Z</time>
</trkpt>
<trkpt lat="49.64020156301558" lon="9.243226954713464">
<ele>178.8</ele>
<time>2024-05-09T13:50:48Z</time>
</trkpt>
<trkpt lat="49.64017096906901" lon="9.243265092372894">
<ele>178.8</ele>
<time>2024-05-09T13:50:49Z</time>
</trkpt>
<trkpt lat="49.64013668708503" lon="9.243305157870054">
<ele>178.8</ele>
<time>2024-05-09T13:50:50Z</time>
</trkpt>
<trkpt lat="49.640109948813915" lon="9.243346145376565">
<ele>178.8</ele>
<time>2024-05-09T13:50:51Z</time>
</trkpt>
<trkpt lat="49.64008329436183" lon="9.243386210873725">
<ele>178.8</ele>
<time>2024-05-09T13:50:52Z</time>
</trkpt>
<trkpt lat="49.64005655609071" lon="9.243425354361534">
<ele>178.8</ele>
<time>2024-05-09T13:50:53Z</time>
</trkpt>
<trkpt lat="49.64002990163863" lon="9.243461564183235">
<ele>178.8</ele>
<time>2024-05-09T13:50:54Z</time>
</trkpt>
<trkpt lat="49.64000701904297" lon="9.243501629680395">
<ele>178.6</ele>
<time>2024-05-09T13:50:55Z</time>
</trkpt>
<trkpt lat="49.63998790830374" lon="9.243546472862365">
<ele>178.6</ele>
<time>2024-05-09T13:50:56Z</time>
</trkpt>
<trkpt lat="49.63996502570808" lon="9.243595087900758">
<ele>178.8</ele>
<time>2024-05-09T13:50:57Z</time>
</trkpt>
<trkpt lat="49.63994214311242" lon="9.243643702939153">
<ele>178.8</ele>
<time>2024-05-09T13:50:58Z</time>
</trkpt>
<trkpt lat="49.63991926051676" lon="9.24368946813047">
<ele>178.8</ele>
<time>2024-05-09T13:50:59Z</time>
</trkpt>
<trkpt lat="49.63990014977753" lon="9.243735233321786">
<ele>178.8</ele>
<time>2024-05-09T13:51:00Z</time>
</trkpt>
<trkpt lat="49.63986963964999" lon="9.243762893602252">
<ele>178.8</ele>
<time>2024-05-09T13:51:01Z</time>
</trkpt>
<trkpt lat="49.6398429851979" lon="9.243766749277713">
<ele>178.8</ele>
<time>2024-05-09T13:51:02Z</time>
</trkpt>
<trkpt lat="49.639812391251326" lon="9.243758199736476">
<ele>178.8</ele>
<time>2024-05-09T13:51:03Z</time>
</trkpt>
<trkpt lat="49.63978950865567" lon="9.2437447886914">
<ele>178.8</ele>
<time>2024-05-09T13:51:04Z</time>
</trkpt>
<trkpt lat="49.63976662606001" lon="9.24372861161828">
<ele>178.8</ele>
<time>2024-05-09T13:51:05Z</time>
</trkpt>
<trkpt lat="49.63973997160792" lon="9.243706651031973">
<ele>178.8</ele>
<time>2024-05-09T13:51:06Z</time>
</trkpt>
<trkpt lat="49.63972086086869" lon="9.243684690445662">
<ele>178.8</ele>
<time>2024-05-09T13:51:07Z</time>
</trkpt>
<trkpt lat="49.63970183394849" lon="9.24367044121027">
<ele>178.8</ele>
<time>2024-05-09T13:51:08Z</time>
</trkpt>
<trkpt lat="49.639675095677376" lon="9.243653258308768">
<ele>179</ele>
<time>2024-05-09T13:51:09Z</time>
</trkpt>
<trkpt lat="49.63964835740626" lon="9.243638003244996">
<ele>179.2</ele>
<time>2024-05-09T13:51:10Z</time>
</trkpt>
<trkpt lat="49.63961407542229" lon="9.24362844787538">
<ele>179.2</ele>
<time>2024-05-09T13:51:11Z</time>
</trkpt>
<trkpt lat="49.6395720820874" lon="9.24363129772246">
<ele>179.2</ele>
<time>2024-05-09T13:51:12Z</time>
</trkpt>
<trkpt lat="49.63953017257154" lon="9.243641775101423">
<ele>179.4</ele>
<time>2024-05-09T13:51:13Z</time>
</trkpt>
<trkpt lat="49.63949580676854" lon="9.243655186146498">
<ele>179.4</ele>
<time>2024-05-09T13:51:14Z</time>
</trkpt>
<trkpt lat="49.63946144096553" lon="9.24367136321962">
<ele>179.4</ele>
<time>2024-05-09T13:51:15Z</time>
</trkpt>
<trkpt lat="49.639438558369875" lon="9.243693323805928">
<ele>179.4</ele>
<time>2024-05-09T13:51:16Z</time>
</trkpt>
<trkpt lat="49.6394233033061" lon="9.243721906095743">
<ele>179.4</ele>
<time>2024-05-09T13:51:17Z</time>
</trkpt>
<trkpt lat="49.63941190391779" lon="9.243753422051668">
<ele>179.4</ele>
<time>2024-05-09T13:51:18Z</time>
</trkpt>
<trkpt lat="49.639400420710444" lon="9.24378963187337">
<ele>179.4</ele>
<time>2024-05-09T13:51:19Z</time>
</trkpt>
<trkpt lat="49.639400420710444" lon="9.24382969737053">
<ele>179.4</ele>
<time>2024-05-09T13:51:20Z</time>
</trkpt>
<trkpt lat="49.639400420710444" lon="9.243873534724116">
<ele>179.4</ele>
<time>2024-05-09T13:51:21Z</time>
</trkpt>
<trkpt lat="49.639400420710444" lon="9.243913600221276">
<ele>179.4</ele>
<time>2024-05-09T13:51:22Z</time>
</trkpt>
<trkpt lat="49.639400420710444" lon="9.243953665718436">
<ele>179.4</ele>
<time>2024-05-09T13:51:23Z</time>
</trkpt>
<trkpt lat="49.63939664885402" lon="9.243989875540136">
<ele>179.4</ele>
<time>2024-05-09T13:51:24Z</time>
</trkpt>
<trkpt lat="49.63939279317856" lon="9.24402616918087">
<ele>179.4</ele>
<time>2024-05-09T13:51:25Z</time>
</trkpt>
<trkpt lat="49.63938902132213" lon="9.244056679308414">
<ele>179.4</ele>
<time>2024-05-09T13:51:26Z</time>
</trkpt>
<trkpt lat="49.63938516564667" lon="9.244088111445308">
<ele>179.4</ele>
<time>2024-05-09T13:51:27Z</time>
</trkpt>
<trkpt lat="49.639381393790245" lon="9.24412339925766">
<ele>179.4</ele>
<time>2024-05-09T13:51:28Z</time>
</trkpt>
<trkpt lat="49.639377538114786" lon="9.244168242439628">
<ele>179.4</ele>
<time>2024-05-09T13:51:29Z</time>
</trkpt>
<trkpt lat="49.63936613872647" lon="9.24422163516283">
<ele>179.4</ele>
<time>2024-05-09T13:51:30Z</time>
</trkpt>
<trkpt lat="49.63935851119459" lon="9.244271256029606">
<ele>179.4</ele>
<time>2024-05-09T13:51:31Z</time>
</trkpt>
<trkpt lat="49.639343256130815" lon="9.24432179890573">
<ele>179.4</ele>
<time>2024-05-09T13:51:32Z</time>
</trkpt>
<trkpt lat="49.63933177292347" lon="9.244371335953474">
<ele>179.4</ele>
<time>2024-05-09T13:51:33Z</time>
</trkpt>
<trkpt lat="49.63931266218424" lon="9.24442288465798">
<ele>179.6</ele>
<time>2024-05-09T13:51:34Z</time>
</trkpt>
<trkpt lat="49.639301262795925" lon="9.244473427534103">
<ele>179.6</ele>
<time>2024-05-09T13:51:35Z</time>
</trkpt>
<trkpt lat="49.639282152056694" lon="9.244524892419577">
<ele>179.4</ele>
<time>2024-05-09T13:51:36Z</time>
</trkpt>
<trkpt lat="49.63926689699292" lon="9.244574513286352">
<ele>179.2</ele>
<time>2024-05-09T13:51:37Z</time>
</trkpt>
<trkpt lat="49.63925549760461" lon="9.244625056162477">
<ele>179.2</ele>
<time>2024-05-09T13:51:38Z</time>
</trkpt>
<trkpt lat="49.63924401439726" lon="9.244671743363142">
<ele>179</ele>
<time>2024-05-09T13:51:39Z</time>
</trkpt>
<trkpt lat="49.63922875933349" lon="9.24471851438284">
<ele>179</ele>
<time>2024-05-09T13:51:40Z</time>
</trkpt>
<trkpt lat="49.63921350426972" lon="9.244768135249616">
<ele>179</ele>
<time>2024-05-09T13:51:41Z</time>
</trkpt>
<trkpt lat="49.639202104881406" lon="9.24481675028801">
<ele>179.2</ele>
<time>2024-05-09T13:51:42Z</time>
</trkpt>
<trkpt lat="49.63919062167406" lon="9.244863437488675">
<ele>179.2</ele>
<time>2024-05-09T13:51:43Z</time>
</trkpt>
<trkpt lat="49.63917922228575" lon="9.24491305835545">
<ele>179.4</ele>
<time>2024-05-09T13:51:44Z</time>
</trkpt>
<trkpt lat="49.6391677390784" lon="9.244963601231577">
<ele>179.8</ele>
<time>2024-05-09T13:51:45Z</time>
</trkpt>
<trkpt lat="49.63915633969009" lon="9.245008444413545">
<ele>180</ele>
<time>2024-05-09T13:51:46Z</time>
</trkpt>
<trkpt lat="49.639144856482744" lon="9.245055131614208">
<ele>180.2</ele>
<time>2024-05-09T13:51:47Z</time>
</trkpt>
<trkpt lat="49.6391333732754" lon="9.245099974796176">
<ele>180.6</ele>
<time>2024-05-09T13:51:48Z</time>
</trkpt>
<trkpt lat="49.63912574574351" lon="9.245144817978144">
<ele>180.8</ele>
<time>2024-05-09T13:51:49Z</time>
</trkpt>
<trkpt lat="49.6391143463552" lon="9.245189661160111">
<ele>181</ele>
<time>2024-05-09T13:51:50Z</time>
</trkpt>
<trkpt lat="49.639106718823314" lon="9.245236348360775">
<ele>181</ele>
<time>2024-05-09T13:51:51Z</time>
</trkpt>
<trkpt lat="49.63909909129143" lon="9.245283119380474">
<ele>181</ele>
<time>2024-05-09T13:51:52Z</time>
</trkpt>
<trkpt lat="49.63909146375954" lon="9.245331734418867">
<ele>181</ele>
<time>2024-05-09T13:51:53Z</time>
</trkpt>
<trkpt lat="49.639083836227655" lon="9.245380349457264">
<ele>181</ele>
<time>2024-05-09T13:51:54Z</time>
</trkpt>
<trkpt lat="49.63907620869577" lon="9.24542712047696">
<ele>181</ele>
<time>2024-05-09T13:51:55Z</time>
</trkpt>
<trkpt lat="49.639064725488424" lon="9.245474813506007">
<ele>180.8</ele>
<time>2024-05-09T13:51:56Z</time>
</trkpt>
<trkpt lat="49.63905709795654" lon="9.245523428544402">
<ele>180.8</ele>
<time>2024-05-09T13:51:57Z</time>
</trkpt>
<trkpt lat="49.63905332610011" lon="9.245572965592146">
<ele>180.6</ele>
<time>2024-05-09T13:51:58Z</time>
</trkpt>
<trkpt lat="49.639045698568225" lon="9.24562350846827">
<ele>180.4</ele>
<time>2024-05-09T13:51:59Z</time>
</trkpt>
<trkpt lat="49.63903421536088" lon="9.245673129335046">
<ele>180.2</ele>
<time>2024-05-09T13:52:00Z</time>
</trkpt>
<trkpt lat="49.63902281597257" lon="9.24572174437344">
<ele>180</ele>
<time>2024-05-09T13:52:01Z</time>
</trkpt>
<trkpt lat="49.639007560908794" lon="9.245770443230867">
<ele>180</ele>
<time>2024-05-09T13:52:02Z</time>
</trkpt>
<trkpt lat="49.63899993337691" lon="9.245818136259912">
<ele>179.8</ele>
<time>2024-05-09T13:52:03Z</time>
</trkpt>
<trkpt lat="49.63899230584502" lon="9.24586289562285">
<ele>179.6</ele>
<time>2024-05-09T13:52:04Z</time>
</trkpt>
<trkpt lat="49.638984678313136" lon="9.24590488895774">
<ele>179.2</ele>
<time>2024-05-09T13:52:05Z</time>
</trkpt>
<trkpt lat="49.63897319510579" lon="9.245938248932362">
<ele>179</ele>
<time>2024-05-09T13:52:06Z</time>
</trkpt>
<trkpt lat="49.638965567573905" lon="9.245969764888288">
<ele>178.8</ele>
<time>2024-05-09T13:52:07Z</time>
</trkpt>
<trkpt lat="49.638961711898446" lon="9.246000275015833">
<ele>178.8</ele>
<time>2024-05-09T13:52:08Z</time>
</trkpt>
<trkpt lat="49.63895031251013" lon="9.246034556999804">
<ele>178.6</ele>
<time>2024-05-09T13:52:09Z</time>
</trkpt>
<trkpt lat="49.638946456834674" lon="9.246074622496964">
<ele>178.6</ele>
<time>2024-05-09T13:52:10Z</time>
</trkpt>
<trkpt lat="49.63895031251013" lon="9.24611854366958">
<ele>178.6</ele>
<time>2024-05-09T13:52:11Z</time>
</trkpt>
<trkpt lat="49.63895031251013" lon="9.24615953117609">
<ele>178.6</ele>
<time>2024-05-09T13:52:12Z</time>
</trkpt>
<trkpt lat="49.63895031251013" lon="9.246201440691948">
<ele>178.6</ele>
<time>2024-05-09T13:52:13Z</time>
</trkpt>
<trkpt lat="49.63895408436656" lon="9.246248211711643">
<ele>178.6</ele>
<time>2024-05-09T13:52:14Z</time>
</trkpt>
<trkpt lat="49.63895031251013" lon="9.24629489891231">
<ele>178.6</ele>
<time>2024-05-09T13:52:15Z</time>
</trkpt>
<trkpt lat="49.63895031251013" lon="9.246344519779086">
<ele>178.6</ele>
<time>2024-05-09T13:52:16Z</time>
</trkpt>
<trkpt lat="49.63895031251013" lon="9.246390284970404">
<ele>178.6</ele>
<time>2024-05-09T13:52:17Z</time>
</trkpt>
<trkpt lat="49.63895031251013" lon="9.24643512815237">
<ele>178.6</ele>
<time>2024-05-09T13:52:18Z</time>
</trkpt>
<trkpt lat="49.63895031251013" lon="9.246478043496609">
<ele>178.6</ele>
<time>2024-05-09T13:52:19Z</time>
</trkpt>
<trkpt lat="49.63895408436656" lon="9.246520036831498">
<ele>178.6</ele>
<time>2024-05-09T13:52:20Z</time>
</trkpt>
<trkpt lat="49.63895031251013" lon="9.246561946347356">
<ele>178.8</ele>
<time>2024-05-09T13:52:21Z</time>
</trkpt>
<trkpt lat="49.638946456834674" lon="9.246598239988089">
<ele>178.8</ele>
<time>2024-05-09T13:52:22Z</time>
</trkpt>
<trkpt lat="49.63894268497825" lon="9.246628750115631">
<ele>178.8</ele>
<time>2024-05-09T13:52:23Z</time>
</trkpt>
<trkpt lat="49.6389312017709" lon="9.246651632711291">
<ele>178.8</ele>
<time>2024-05-09T13:52:24Z</time>
</trkpt>
<trkpt lat="49.6389121748507" lon="9.246673509478567">
<ele>178.6</ele>
<time>2024-05-09T13:52:25Z</time>
</trkpt>
<trkpt lat="49.63888166472316" lon="9.246689770370722">
<ele>178.6</ele>
<time>2024-05-09T13:52:26Z</time>
</trkpt>
<trkpt lat="49.63885492645204" lon="9.246705025434494">
<ele>178.4</ele>
<time>2024-05-09T13:52:27Z</time>
</trkpt>
<trkpt lat="49.638824416324496" lon="9.246720280498266">
<ele>178.6</ele>
<time>2024-05-09T13:52:28Z</time>
</trkpt>
<trkpt lat="49.63879390619695" lon="9.24673461355269">
<ele>178.6</ele>
<time>2024-05-09T13:52:29Z</time>
</trkpt>
<trkpt lat="49.63876339606941" lon="9.246749868616462">
<ele>178.8</ele>
<time>2024-05-09T13:52:30Z</time>
</trkpt>
<trkpt lat="49.63873288594186" lon="9.246766967698932">
<ele>179</ele>
<time>2024-05-09T13:52:31Z</time>
</trkpt>
<trkpt lat="49.638706147670746" lon="9.246783228591084">
<ele>179.2</ele>
<time>2024-05-09T13:52:32Z</time>
</trkpt>
<trkpt lat="49.63867949321866" lon="9.246800411492586">
<ele>179.4</ele>
<time>2024-05-09T13:52:33Z</time>
</trkpt>
<trkpt lat="49.63865275494754" lon="9.246818516403437">
<ele>179.8</ele>
<time>2024-05-09T13:52:34Z</time>
</trkpt>
<trkpt lat="49.638626016676426" lon="9.24683184362948">
<ele>180</ele>
<time>2024-05-09T13:52:35Z</time>
</trkpt>
<trkpt lat="49.63859936222434" lon="9.246846176683905">
<ele>180.4</ele>
<time>2024-05-09T13:52:36Z</time>
</trkpt>
<trkpt lat="49.6385688520968" lon="9.246863359585404">
<ele>180.6</ele>
<time>2024-05-09T13:52:37Z</time>
</trkpt>
<trkpt lat="49.63854211382568" lon="9.246883392333984">
<ele>180.8</ele>
<time>2024-05-09T13:52:38Z</time>
</trkpt>
<trkpt lat="49.63851545937359" lon="9.246899569407104">
<ele>181</ele>
<time>2024-05-09T13:52:39Z</time>
</trkpt>
<trkpt lat="49.63848872110248" lon="9.246919602155684">
<ele>181.2</ele>
<time>2024-05-09T13:52:40Z</time>
</trkpt>
<trkpt lat="49.63846206665039" lon="9.246939634904264">
<ele>181.6</ele>
<time>2024-05-09T13:52:41Z</time>
</trkpt>
<trkpt lat="49.638431472703815" lon="9.246961511671543">
<ele>181.8</ele>
<time>2024-05-09T13:52:42Z</time>
</trkpt>
<trkpt lat="49.63840481825173" lon="9.246983472257853">
<ele>182</ele>
<time>2024-05-09T13:52:43Z</time>
</trkpt>
<trkpt lat="49.63837807998061" lon="9.247003505006433">
<ele>182.4</ele>
<time>2024-05-09T13:52:44Z</time>
</trkpt>
<trkpt lat="49.638351425528526" lon="9.247021609917285">
<ele>182.6</ele>
<time>2024-05-09T13:52:45Z</time>
</trkpt>
<trkpt lat="49.63832854293287" lon="9.247041642665865">
<ele>183</ele>
<time>2024-05-09T13:52:46Z</time>
</trkpt>
<trkpt lat="49.63830180466175" lon="9.247061675414445">
<ele>183.2</ele>
<time>2024-05-09T13:52:47Z</time>
</trkpt>
<trkpt lat="49.63827892206609" lon="9.247081708163025">
<ele>183.6</ele>
<time>2024-05-09T13:52:48Z</time>
</trkpt>
<trkpt lat="49.638252183794975" lon="9.247103668749332">
<ele>183.8</ele>
<time>2024-05-09T13:52:49Z</time>
</trkpt>
<trkpt lat="49.63822930119932" lon="9.24712462350726">
<ele>184</ele>
<time>2024-05-09T13:52:50Z</time>
</trkpt>
<trkpt lat="49.63820641860366" lon="9.24714465625584">
<ele>184.2</ele>
<time>2024-05-09T13:52:51Z</time>
</trkpt>
<trkpt lat="49.638183536008" lon="9.247161839157345">
<ele>184.2</ele>
<time>2024-05-09T13:52:52Z</time>
</trkpt>
<trkpt lat="49.63816065341234" lon="9.247179944068192">
<ele>184.4</ele>
<time>2024-05-09T13:52:53Z</time>
</trkpt>
<trkpt lat="49.63813777081669" lon="9.247198048979044">
<ele>184.4</ele>
<time>2024-05-09T13:52:54Z</time>
</trkpt>
<trkpt lat="49.63811103254557" lon="9.247213304042816">
<ele>184.6</ele>
<time>2024-05-09T13:52:55Z</time>
</trkpt>
<trkpt lat="49.63808814994991" lon="9.247229564934967">
<ele>184.8</ele>
<time>2024-05-09T13:52:56Z</time>
</trkpt>
<trkpt lat="49.63806526735425" lon="9.24724666401744">
<ele>185</ele>
<time>2024-05-09T13:52:57Z</time>
</trkpt>
<trkpt lat="49.63804624043405" lon="9.24726485274732">
<ele>185.2</ele>
<time>2024-05-09T13:52:58Z</time>
</trkpt>
<trkpt lat="49.63802335783839" lon="9.247282957658172">
<ele>185.2</ele>
<time>2024-05-09T13:52:59Z</time>
</trkpt>
<trkpt lat="49.63800810277462" lon="9.247300140559672">
<ele>185.4</ele>
<time>2024-05-09T13:53:00Z</time>
</trkpt>
<trkpt lat="49.63798522017896" lon="9.247318245470524">
<ele>185.6</ele>
<time>2024-05-09T13:53:01Z</time>
</trkpt>
<trkpt lat="49.63796610943973" lon="9.247333500534296">
<ele>185.8</ele>
<time>2024-05-09T13:53:02Z</time>
</trkpt>
<trkpt lat="49.63794708251953" lon="9.24734682776034">
<ele>186</ele>
<time>2024-05-09T13:53:03Z</time>
</trkpt>
<trkpt lat="49.63793174363673" lon="9.247360154986382">
<ele>186.2</ele>
<time>2024-05-09T13:53:04Z</time>
</trkpt>
<trkpt lat="49.63790886104107" lon="9.247378343716264">
<ele>186.2</ele>
<time>2024-05-09T13:53:05Z</time>
</trkpt>
<trkpt lat="49.63788597844541" lon="9.247396448627114">
<ele>186.4</ele>
<time>2024-05-09T13:53:06Z</time>
</trkpt>
<trkpt lat="49.63786309584975" lon="9.247411703690886">
<ele>186.6</ele>
<time>2024-05-09T13:53:07Z</time>
</trkpt>
<trkpt lat="49.637840213254094" lon="9.2474231030792">
<ele>187</ele>
<time>2024-05-09T13:53:08Z</time>
</trkpt>
<trkpt lat="49.63781733065843" lon="9.247436514124274">
<ele>187.2</ele>
<time>2024-05-09T13:53:09Z</time>
</trkpt>
<trkpt lat="49.63779444806278" lon="9.247447913512588">
<ele>187.4</ele>
<time>2024-05-09T13:53:10Z</time>
</trkpt>
<trkpt lat="49.63777156546712" lon="9.247456546872854">
<ele>187.6</ele>
<time>2024-05-09T13:53:11Z</time>
</trkpt>
<trkpt lat="49.63775631040335" lon="9.24746124073863">
<ele>188</ele>
<time>2024-05-09T13:53:12Z</time>
</trkpt>
<trkpt lat="49.63773719966411" lon="9.247467946261168">
<ele>188.2</ele>
<time>2024-05-09T13:53:13Z</time>
</trkpt>
<trkpt lat="49.63771817274392" lon="9.247473645955324">
<ele>188.4</ele>
<time>2024-05-09T13:53:14Z</time>
</trkpt>
<trkpt lat="49.637702917680144" lon="9.247476495802402">
<ele>188.6</ele>
<time>2024-05-09T13:53:15Z</time>
</trkpt>
<trkpt lat="49.63768380694091" lon="9.247478423640132">
<ele>188.8</ele>
<time>2024-05-09T13:53:16Z</time>
</trkpt>
<trkpt lat="49.637664780020714" lon="9.24748035147786">
<ele>189.2</ele>
<time>2024-05-09T13:53:17Z</time>
</trkpt>
<trkpt lat="49.63764952495694" lon="9.247478423640132">
<ele>189.4</ele>
<time>2024-05-09T13:53:18Z</time>
</trkpt>
<trkpt lat="49.63762664236128" lon="9.247471801936626">
<ele>189.6</ele>
<time>2024-05-09T13:53:19Z</time>
</trkpt>
<trkpt lat="49.63761138729751" lon="9.24746316857636">
<ele>189.8</ele>
<time>2024-05-09T13:53:20Z</time>
</trkpt>
<trkpt lat="49.63759227655828" lon="9.247451769188046">
<ele>190</ele>
<time>2024-05-09T13:53:21Z</time>
</trkpt>
<trkpt lat="49.63757316581905" lon="9.2474402859807">
<ele>190.4</ele>
<time>2024-05-09T13:53:22Z</time>
</trkpt>
<trkpt lat="49.63755413889885" lon="9.247427880764008">
<ele>190.6</ele>
<time>2024-05-09T13:53:23Z</time>
</trkpt>
<trkpt lat="49.63753502815962" lon="9.247416481375694">
<ele>190.8</ele>
<time>2024-05-09T13:53:24Z</time>
</trkpt>
<trkpt lat="49.637519773095846" lon="9.24740499816835">
<ele>191</ele>
<time>2024-05-09T13:53:25Z</time>
</trkpt>
<trkpt lat="49.63750074617565" lon="9.247391670942308">
<ele>191.2</ele>
<time>2024-05-09T13:53:26Z</time>
</trkpt>
<trkpt lat="49.637485491111875" lon="9.247374488040805">
<ele>191.6</ele>
<time>2024-05-09T13:53:27Z</time>
</trkpt>
<trkpt lat="49.63746638037264" lon="9.247356383129954">
<ele>191.8</ele>
<time>2024-05-09T13:53:28Z</time>
</trkpt>
<trkpt lat="49.63745112530887" lon="9.247335428372024">
<ele>192</ele>
<time>2024-05-09T13:53:29Z</time>
</trkpt>
<trkpt lat="49.6374358702451" lon="9.247313467785716">
<ele>192.2</ele>
<time>2024-05-09T13:53:30Z</time>
</trkpt>
<trkpt lat="49.63742061518133" lon="9.247291507199408">
<ele>192.6</ele>
<time>2024-05-09T13:53:31Z</time>
</trkpt>
<trkpt lat="49.637405360117555" lon="9.247271474450828">
<ele>192.8</ele>
<time>2024-05-09T13:53:32Z</time>
</trkpt>
<trkpt lat="49.63739010505378" lon="9.247253369539976">
<ele>193</ele>
<time>2024-05-09T13:53:33Z</time>
</trkpt>
<trkpt lat="49.63737484999001" lon="9.247231408953668">
<ele>193.2</ele>
<time>2024-05-09T13:53:34Z</time>
</trkpt>
<trkpt lat="49.63735959492624" lon="9.247211376205088">
<ele>193.4</ele>
<time>2024-05-09T13:53:35Z</time>
</trkpt>
<trkpt lat="49.637344339862466" lon="9.247190421447158">
<ele>193.8</ele>
<time>2024-05-09T13:53:36Z</time>
</trkpt>
<trkpt lat="49.637329084798694" lon="9.247168460860848">
<ele>194</ele>
<time>2024-05-09T13:53:37Z</time>
</trkpt>
<trkpt lat="49.63731382973492" lon="9.24714465625584">
<ele>194.4</ele>
<time>2024-05-09T13:53:38Z</time>
</trkpt>
<trkpt lat="49.63729857467115" lon="9.247119845822452">
<ele>194.8</ele>
<time>2024-05-09T13:53:39Z</time>
</trkpt>
<trkpt lat="49.63728331960738" lon="9.247096963226795">
<ele>195.2</ele>
<time>2024-05-09T13:53:40Z</time>
</trkpt>
<trkpt lat="49.637268064543605" lon="9.247073158621788">
<ele>195.4</ele>
<time>2024-05-09T13:53:41Z</time>
</trkpt>
<trkpt lat="49.637248953804374" lon="9.24705027602613">
<ele>195.8</ele>
<time>2024-05-09T13:53:42Z</time>
</trkpt>
<trkpt lat="49.6372336987406" lon="9.24702638760209">
<ele>196</ele>
<time>2024-05-09T13:53:43Z</time>
</trkpt>
<trkpt lat="49.63721844367683" lon="9.247001577168705">
<ele>196.2</ele>
<time>2024-05-09T13:53:44Z</time>
</trkpt>
<trkpt lat="49.63720318861306" lon="9.246976850554349">
<ele>196.6</ele>
<time>2024-05-09T13:53:45Z</time>
</trkpt>
<trkpt lat="49.63719170540571" lon="9.24695011228323">
<ele>196.8</ele>
<time>2024-05-09T13:53:46Z</time>
</trkpt>
<trkpt lat="49.63717267848551" lon="9.246925301849842">
<ele>197.2</ele>
<time>2024-05-09T13:53:47Z</time>
</trkpt>
<trkpt lat="49.63715742342174" lon="9.246898647397757">
<ele>197.4</ele>
<time>2024-05-09T13:53:48Z</time>
</trkpt>
<trkpt lat="49.63714216835797" lon="9.246872831135988">
<ele>197.6</ele>
<time>2024-05-09T13:53:49Z</time>
</trkpt>
<trkpt lat="49.63712305761874" lon="9.246848104521632">
<ele>197.8</ele>
<time>2024-05-09T13:53:50Z</time>
</trkpt>
<trkpt lat="49.637107802554965" lon="9.246820444241166">
<ele>198</ele>
<time>2024-05-09T13:53:51Z</time>
</trkpt>
<trkpt lat="49.637088775634766" lon="9.24679177813232">
<ele>198.2</ele>
<time>2024-05-09T13:53:52Z</time>
</trkpt>
<trkpt lat="49.637069664895535" lon="9.246763195842505">
<ele>198.4</ele>
<time>2024-05-09T13:53:53Z</time>
</trkpt>
<trkpt lat="49.6370505541563" lon="9.24673461355269">
<ele>198.6</ele>
<time>2024-05-09T13:53:54Z</time>
</trkpt>
<trkpt lat="49.637031527236104" lon="9.246707875281572">
<ele>198.8</ele>
<time>2024-05-09T13:53:55Z</time>
</trkpt>
<trkpt lat="49.637008644640446" lon="9.246681137010455">
<ele>198.8</ele>
<time>2024-05-09T13:53:56Z</time>
</trkpt>
<trkpt lat="49.63698576204479" lon="9.24665540456772">
<ele>199</ele>
<time>2024-05-09T13:53:57Z</time>
</trkpt>
<trkpt lat="49.63696665130555" lon="9.246631599962711">
<ele>199</ele>
<time>2024-05-09T13:53:58Z</time>
</trkpt>
<trkpt lat="49.6369437687099" lon="9.246608717367051">
<ele>199</ele>
<time>2024-05-09T13:53:59Z</time>
</trkpt>
<trkpt lat="49.63692088611424" lon="9.246588684618471">
<ele>199</ele>
<time>2024-05-09T13:54:00Z</time>
</trkpt>
<trkpt lat="49.63689414784312" lon="9.246569573879242">
<ele>199</ele>
<time>2024-05-09T13:54:01Z</time>
</trkpt>
<trkpt lat="49.636871265247464" lon="9.246549541130662">
<ele>199</ele>
<time>2024-05-09T13:54:02Z</time>
</trkpt>
<trkpt lat="49.63684461079538" lon="9.246529508382082">
<ele>199</ele>
<time>2024-05-09T13:54:03Z</time>
</trkpt>
<trkpt lat="49.63682172819972" lon="9.246511403471231">
<ele>199.2</ele>
<time>2024-05-09T13:54:04Z</time>
</trkpt>
<trkpt lat="49.636791218072176" lon="9.24649329856038">
<ele>199.2</ele>
<time>2024-05-09T13:54:05Z</time>
</trkpt>
<trkpt lat="49.63676070794463" lon="9.246482821181417">
<ele>199.2</ele>
<time>2024-05-09T13:54:06Z</time>
</trkpt>
<trkpt lat="49.636730113998055" lon="9.246471337974072">
<ele>199.4</ele>
<time>2024-05-09T13:54:07Z</time>
</trkpt>
<trkpt lat="49.63669583201408" lon="9.246463710442184">
<ele>199.4</ele>
<time>2024-05-09T13:54:08Z</time>
</trkpt>
<trkpt lat="49.63666146621108" lon="9.24645323306322">
<ele>199.2</ele>
<time>2024-05-09T13:54:09Z</time>
</trkpt>
<trkpt lat="49.63662718422711" lon="9.246450383216144">
<ele>199.2</ele>
<time>2024-05-09T13:54:10Z</time>
</trkpt>
<trkpt lat="49.636596674099565" lon="9.246450383216144">
<ele>199.2</ele>
<time>2024-05-09T13:54:11Z</time>
</trkpt>
<trkpt lat="49.6365584526211" lon="9.24645323306322">
<ele>199</ele>
<time>2024-05-09T13:54:12Z</time>
</trkpt>
<trkpt lat="49.63652417063713" lon="9.24645516090095">
<ele>199</ele>
<time>2024-05-09T13:54:13Z</time>
</trkpt>
<trkpt lat="49.63648980483413" lon="9.246458010748029">
<ele>198.8</ele>
<time>2024-05-09T13:54:14Z</time>
</trkpt>
<trkpt lat="49.6364516671747" lon="9.246461866423488">
<ele>198.8</ele>
<time>2024-05-09T13:54:15Z</time>
</trkpt>
<trkpt lat="49.636413529515266" lon="9.246461866423488">
<ele>198.8</ele>
<time>2024-05-09T13:54:16Z</time>
</trkpt>
<trkpt lat="49.63637153618038" lon="9.246459938585758">
<ele>199</ele>
<time>2024-05-09T13:54:17Z</time>
</trkpt>
<trkpt lat="49.63633339852095" lon="9.246463710442184">
<ele>198.8</ele>
<time>2024-05-09T13:54:18Z</time>
</trkpt>
<trkpt lat="49.63629526086152" lon="9.246468488126991">
<ele>198.8</ele>
<time>2024-05-09T13:54:19Z</time>
</trkpt>
<trkpt lat="49.636257123202085" lon="9.2464732658118">
<ele>198.8</ele>
<time>2024-05-09T13:54:20Z</time>
</trkpt>
<trkpt lat="49.636218985542655" lon="9.246479971334338">
<ele>198.8</ele>
<time>2024-05-09T13:54:21Z</time>
</trkpt>
<trkpt lat="49.636176992207766" lon="9.246484749019146">
<ele>198.8</ele>
<time>2024-05-09T13:54:22Z</time>
</trkpt>
<trkpt lat="49.63613508269191" lon="9.246490448713304">
<ele>198.8</ele>
<time>2024-05-09T13:54:23Z</time>
</trkpt>
<trkpt lat="49.63609308935702" lon="9.246498076245189">
<ele>198.8</ele>
<time>2024-05-09T13:54:24Z</time>
</trkpt>
<trkpt lat="49.63605109602213" lon="9.246506625786424">
<ele>198.8</ele>
<time>2024-05-09T13:54:25Z</time>
</trkpt>
<trkpt lat="49.63600918650627" lon="9.24651525914669">
<ele>199</ele>
<time>2024-05-09T13:54:26Z</time>
</trkpt>
<trkpt lat="49.63596719317138" lon="9.246526658535004">
<ele>199</ele>
<time>2024-05-09T13:54:27Z</time>
</trkpt>
<trkpt lat="49.63592528365552" lon="9.24653336405754">
<ele>199</ele>
<time>2024-05-09T13:54:28Z</time>
</trkpt>
<trkpt lat="49.635883290320635" lon="9.246541913598776">
<ele>199.2</ele>
<time>2024-05-09T13:54:29Z</time>
</trkpt>
<trkpt lat="49.6358451526612" lon="9.246549541130662">
<ele>199.2</ele>
<time>2024-05-09T13:54:30Z</time>
</trkpt>
<trkpt lat="49.635803159326315" lon="9.2465562466532">
<ele>199.4</ele>
<time>2024-05-09T13:54:31Z</time>
</trkpt>
<trkpt lat="49.63576502166688" lon="9.246564796194434">
<ele>199.4</ele>
<time>2024-05-09T13:54:32Z</time>
</trkpt>
<trkpt lat="49.635726884007454" lon="9.2465734295547">
<ele>199.4</ele>
<time>2024-05-09T13:54:33Z</time>
</trkpt>
<trkpt lat="49.63568874634802" lon="9.246582984924316">
<ele>199.2</ele>
<time>2024-05-09T13:54:34Z</time>
</trkpt>
<trkpt lat="49.63565060868859" lon="9.246591534465551">
<ele>199.4</ele>
<time>2024-05-09T13:54:35Z</time>
</trkpt>
<trkpt lat="49.63561247102916" lon="9.246602933853865">
<ele>199.4</ele>
<time>2024-05-09T13:54:36Z</time>
</trkpt>
<trkpt lat="49.63557433336973" lon="9.24661349505186">
<ele>199.6</ele>
<time>2024-05-09T13:54:37Z</time>
</trkpt>
<trkpt lat="49.63553996756673" lon="9.246622966602445">
<ele>199.6</ele>
<time>2024-05-09T13:54:38Z</time>
</trkpt>
<trkpt lat="49.6355018299073" lon="9.24663352780044">
<ele>199.8</ele>
<time>2024-05-09T13:54:39Z</time>
</trkpt>
<trkpt lat="49.635467464104295" lon="9.246640149503946">
<ele>200</ele>
<time>2024-05-09T13:54:40Z</time>
</trkpt>
<trkpt lat="49.63543318212032" lon="9.246648782864211">
<ele>200</ele>
<time>2024-05-09T13:54:41Z</time>
</trkpt>
<trkpt lat="49.63539881631732" lon="9.246658254414797">
<ele>200.2</ele>
<time>2024-05-09T13:54:42Z</time>
</trkpt>
<trkpt lat="49.63536067865789" lon="9.246667809784412">
<ele>200.2</ele>
<time>2024-05-09T13:54:43Z</time>
</trkpt>
<trkpt lat="49.63532254099846" lon="9.246680215001106">
<ele>200.4</ele>
<time>2024-05-09T13:54:44Z</time>
</trkpt>
<trkpt lat="49.635288175195456" lon="9.246689770370722">
<ele>200.4</ele>
<time>2024-05-09T13:54:45Z</time>
</trkpt>
<trkpt lat="49.635250037536025" lon="9.246701169759037">
<ele>200.4</ele>
<time>2024-05-09T13:54:46Z</time>
</trkpt>
<trkpt lat="49.63521575555205" lon="9.246711730957031">
<ele>200.4</ele>
<time>2024-05-09T13:54:47Z</time>
</trkpt>
<trkpt lat="49.63518138974905" lon="9.246725058183074">
<ele>200.4</ele>
<time>2024-05-09T13:54:48Z</time>
</trkpt>
<trkpt lat="49.63514702394605" lon="9.246736457571387">
<ele>200.6</ele>
<time>2024-05-09T13:54:49Z</time>
</trkpt>
<trkpt lat="49.635112741962075" lon="9.246747940778732">
<ele>200.6</ele>
<time>2024-05-09T13:54:50Z</time>
</trkpt>
<trkpt lat="49.63507837615907" lon="9.246760345995426">
<ele>200.8</ele>
<time>2024-05-09T13:54:51Z</time>
</trkpt>
<trkpt lat="49.63504786603153" lon="9.24677174538374">
<ele>201</ele>
<time>2024-05-09T13:54:52Z</time>
</trkpt>
<trkpt lat="49.63501350022853" lon="9.246783228591084">
<ele>201.2</ele>
<time>2024-05-09T13:54:53Z</time>
</trkpt>
<trkpt lat="49.63497921824455" lon="9.246794627979398">
<ele>201.4</ele>
<time>2024-05-09T13:54:54Z</time>
</trkpt>
<trkpt lat="49.63494870811701" lon="9.246807033196092">
<ele>201.4</ele>
<time>2024-05-09T13:54:55Z</time>
</trkpt>
<trkpt lat="49.634914342314005" lon="9.246814660727978">
<ele>201.6</ele>
<time>2024-05-09T13:54:56Z</time>
</trkpt>
<trkpt lat="49.63488383218646" lon="9.246818516403437">
<ele>201.8</ele>
<time>2024-05-09T13:54:57Z</time>
</trkpt>
<trkpt lat="49.63485332205891" lon="9.246823294088244">
<ele>202</ele>
<time>2024-05-09T13:54:58Z</time>
</trkpt>
<trkpt lat="49.634815184399486" lon="9.246828071773052">
<ele>202.2</ele>
<time>2024-05-09T13:54:59Z</time>
</trkpt>
<trkpt lat="49.63478467427194" lon="9.246838549152017">
<ele>202.4</ele>
<time>2024-05-09T13:55:00Z</time>
</trkpt>
<trkpt lat="49.63475030846894" lon="9.24684994854033">
<ele>202.6</ele>
<time>2024-05-09T13:55:01Z</time>
</trkpt>
<trkpt lat="49.63471979834139" lon="9.246861431747677">
<ele>202.8</ele>
<time>2024-05-09T13:55:02Z</time>
</trkpt>
<trkpt lat="49.63468551635742" lon="9.24687190912664">
<ele>203</ele>
<time>2024-05-09T13:55:03Z</time>
</trkpt>
<trkpt lat="49.634654922410846" lon="9.246881464496257">
<ele>203</ele>
<time>2024-05-09T13:55:04Z</time>
</trkpt>
<trkpt lat="49.634620640426874" lon="9.246892863884568">
<ele>203.2</ele>
<time>2024-05-09T13:55:05Z</time>
</trkpt>
<trkpt lat="49.63458627462387" lon="9.246906274929644">
<ele>203.4</ele>
<time>2024-05-09T13:55:06Z</time>
</trkpt>
<trkpt lat="49.634555764496326" lon="9.246919602155684">
<ele>203.6</ele>
<time>2024-05-09T13:55:07Z</time>
</trkpt>
<trkpt lat="49.63452525436878" lon="9.246934857219458">
<ele>203.8</ele>
<time>2024-05-09T13:55:08Z</time>
</trkpt>
<trkpt lat="49.63449474424124" lon="9.24695204012096">
<ele>204</ele>
<time>2024-05-09T13:55:09Z</time>
</trkpt>
<trkpt lat="49.63446423411369" lon="9.246966289356353">
<ele>204.2</ele>
<time>2024-05-09T13:55:10Z</time>
</trkpt>
<trkpt lat="49.63443372398615" lon="9.246979700401424">
<ele>204.4</ele>
<time>2024-05-09T13:55:11Z</time>
</trkpt>
<trkpt lat="49.63440321385861" lon="9.246996799483895">
<ele>204.6</ele>
<time>2024-05-09T13:55:12Z</time>
</trkpt>
<trkpt lat="49.63437270373106" lon="9.247013060376048">
<ele>204.8</ele>
<time>2024-05-09T13:55:13Z</time>
</trkpt>
<trkpt lat="49.63433833792806" lon="9.24703024327755">
<ele>205</ele>
<time>2024-05-09T13:55:14Z</time>
</trkpt>
<trkpt lat="49.63430782780051" lon="9.24704449251294">
<ele>205.2</ele>
<time>2024-05-09T13:55:15Z</time>
</trkpt>
<trkpt lat="49.63427731767297" lon="9.247059747576714">
<ele>205.4</ele>
<time>2024-05-09T13:55:16Z</time>
</trkpt>
<trkpt lat="49.63424680754542" lon="9.247076930478215">
<ele>205.6</ele>
<time>2024-05-09T13:55:17Z</time>
</trkpt>
<trkpt lat="49.634220069274306" lon="9.247095035389066">
<ele>206</ele>
<time>2024-05-09T13:55:18Z</time>
</trkpt>
<trkpt lat="49.63418955914676" lon="9.247116995975375">
<ele>206.2</ele>
<time>2024-05-09T13:55:19Z</time>
</trkpt>
<trkpt lat="49.634162820875645" lon="9.247137950733304">
<ele>206.6</ele>
<time>2024-05-09T13:55:20Z</time>
</trkpt>
<trkpt lat="49.6341323107481" lon="9.247159911319612">
<ele>207</ele>
<time>2024-05-09T13:55:21Z</time>
</trkpt>
<trkpt lat="49.634105656296015" lon="9.247183799743652">
<ele>207.2</ele>
<time>2024-05-09T13:55:22Z</time>
</trkpt>
<trkpt lat="49.63407514616847" lon="9.247208526358008">
<ele>207.2</ele>
<time>2024-05-09T13:55:23Z</time>
</trkpt>
<trkpt lat="49.63404840789735" lon="9.247233336791396">
<ele>207.4</ele>
<time>2024-05-09T13:55:24Z</time>
</trkpt>
<trkpt lat="49.63402175344527" lon="9.247258147224784">
<ele>207.6</ele>
<time>2024-05-09T13:55:25Z</time>
</trkpt>
<trkpt lat="49.63399501517415" lon="9.247282957658172">
<ele>207.6</ele>
<time>2024-05-09T13:55:26Z</time>
</trkpt>
<trkpt lat="49.63396827690303" lon="9.247308690100908">
<ele>207.8</ele>
<time>2024-05-09T13:55:27Z</time>
</trkpt>
<trkpt lat="49.63394162245095" lon="9.247335428372024">
<ele>207.8</ele>
<time>2024-05-09T13:55:28Z</time>
</trkpt>
<trkpt lat="49.63391488417983" lon="9.247363088652492">
<ele>208</ele>
<time>2024-05-09T13:55:29Z</time>
</trkpt>
<trkpt lat="49.63389200158417" lon="9.247387815266848">
<ele>208.2</ele>
<time>2024-05-09T13:55:30Z</time>
</trkpt>
<trkpt lat="49.633869118988514" lon="9.247413631528616">
<ele>208.2</ele>
<time>2024-05-09T13:55:31Z</time>
</trkpt>
<trkpt lat="49.63384246453643" lon="9.247436514124274">
<ele>208.4</ele>
<time>2024-05-09T13:55:32Z</time>
</trkpt>
<trkpt lat="49.63381572626531" lon="9.247456546872854">
<ele>208.6</ele>
<time>2024-05-09T13:55:33Z</time>
</trkpt>
<trkpt lat="49.633788987994194" lon="9.24748035147786">
<ele>208.8</ele>
<time>2024-05-09T13:55:34Z</time>
</trkpt>
<trkpt lat="49.63376233354211" lon="9.24750323407352">
<ele>208.8</ele>
<time>2024-05-09T13:55:35Z</time>
</trkpt>
<trkpt lat="49.63373559527099" lon="9.247528044506907">
<ele>208.8</ele>
<time>2024-05-09T13:55:36Z</time>
</trkpt>
<trkpt lat="49.63370508514345" lon="9.247556626796722">
<ele>209</ele>
<time>2024-05-09T13:55:37Z</time>
</trkpt>
<trkpt lat="49.63367843069136" lon="9.24757950939238">
<ele>209</ele>
<time>2024-05-09T13:55:38Z</time>
</trkpt>
<trkpt lat="49.63365169242024" lon="9.24760146997869">
<ele>209</ele>
<time>2024-05-09T13:55:39Z</time>
</trkpt>
<trkpt lat="49.63362495414913" lon="9.247623430565">
<ele>209.2</ele>
<time>2024-05-09T13:55:40Z</time>
</trkpt>
<trkpt lat="49.63359829969704" lon="9.247648157179356">
<ele>209.4</ele>
<time>2024-05-09T13:55:41Z</time>
</trkpt>
<trkpt lat="49.63357541710138" lon="9.247674895450473">
<ele>209.4</ele>
<time>2024-05-09T13:55:42Z</time>
</trkpt>
<trkpt lat="49.633548678830266" lon="9.247705405578015">
<ele>209.6</ele>
<time>2024-05-09T13:55:43Z</time>
</trkpt>
<trkpt lat="49.63351816870272" lon="9.24773977138102">
<ele>209.8</ele>
<time>2024-05-09T13:55:44Z</time>
</trkpt>
<trkpt lat="49.63348765857518" lon="9.247773131355643">
<ele>210</ele>
<time>2024-05-09T13:55:45Z</time>
</trkpt>
<trkpt lat="49.633453292772174" lon="9.247801713645458">
<ele>210</ele>
<time>2024-05-09T13:55:46Z</time>
</trkpt>
<trkpt lat="49.63342663832009" lon="9.247830379754305">
<ele>210.2</ele>
<time>2024-05-09T13:55:47Z</time>
</trkpt>
<trkpt lat="49.633392272517085" lon="9.247859884053469">
<ele>210.4</ele>
<time>2024-05-09T13:55:48Z</time>
</trkpt>
<trkpt lat="49.63336176238954" lon="9.24789517186582">
<ele>210.8</ele>
<time>2024-05-09T13:55:49Z</time>
</trkpt>
<trkpt lat="49.633331252262" lon="9.247929537668824">
<ele>211</ele>
<time>2024-05-09T13:55:50Z</time>
</trkpt>
<trkpt lat="49.63330074213445" lon="9.247962897643449">
<ele>211.2</ele>
<time>2024-05-09T13:55:51Z</time>
</trkpt>
<trkpt lat="49.63327023200691" lon="9.247993407770991">
<ele>211.4</ele>
<time>2024-05-09T13:55:52Z</time>
</trkpt>
<trkpt lat="49.63323972187936" lon="9.248022995889189">
<ele>211.6</ele>
<time>2024-05-09T13:55:53Z</time>
</trkpt>
<trkpt lat="49.63320535607636" lon="9.248048728331923">
<ele>211.6</ele>
<time>2024-05-09T13:55:54Z</time>
</trkpt>
<trkpt lat="49.63317107409239" lon="9.24807831645012">
<ele>211.8</ele>
<time>2024-05-09T13:55:55Z</time>
</trkpt>
<trkpt lat="49.633136708289385" lon="9.248103126883509">
<ele>211.8</ele>
<time>2024-05-09T13:55:56Z</time>
</trkpt>
<trkpt lat="49.63310234248638" lon="9.248127937316896">
<ele>212</ele>
<time>2024-05-09T13:55:57Z</time>
</trkpt>
<trkpt lat="49.63306420482695" lon="9.248151741921902">
<ele>212</ele>
<time>2024-05-09T13:55:58Z</time>
</trkpt>
<trkpt lat="49.63302992284298" lon="9.248173702508211">
<ele>212</ele>
<time>2024-05-09T13:55:59Z</time>
</trkpt>
<trkpt lat="49.63299178518355" lon="9.24819465726614">
<ele>211.8</ele>
<time>2024-05-09T13:56:00Z</time>
</trkpt>
<trkpt lat="49.63295356370509" lon="9.248211840167642">
<ele>211.8</ele>
<time>2024-05-09T13:56:01Z</time>
</trkpt>
<trkpt lat="49.632919281721115" lon="9.248228017240764">
<ele>211.8</ele>
<time>2024-05-09T13:56:02Z</time>
</trkpt>
<trkpt lat="49.63288491591811" lon="9.248247127979994">
<ele>211.6</ele>
<time>2024-05-09T13:56:03Z</time>
</trkpt>
<trkpt lat="49.63284677825868" lon="9.248261377215384">
<ele>211.6</ele>
<time>2024-05-09T13:56:04Z</time>
</trkpt>
<trkpt lat="49.63280864059925" lon="9.24827478826046">
<ele>211.6</ele>
<time>2024-05-09T13:56:05Z</time>
</trkpt>
<trkpt lat="49.63277050293982" lon="9.248288115486504">
<ele>211.6</ele>
<time>2024-05-09T13:56:06Z</time>
</trkpt>
<trkpt lat="49.63272850960493" lon="9.248303370550277">
<ele>211.4</ele>
<time>2024-05-09T13:56:07Z</time>
</trkpt>
<trkpt lat="49.632682744413614" lon="9.24831292591989">
<ele>211.4</ele>
<time>2024-05-09T13:56:08Z</time>
</trkpt>
<trkpt lat="49.63264083489776" lon="9.248318625614049">
<ele>211.4</ele>
<time>2024-05-09T13:56:09Z</time>
</trkpt>
<trkpt lat="49.63259498588741" lon="9.248319547623396">
<ele>211.2</ele>
<time>2024-05-09T13:56:10Z</time>
</trkpt>
<trkpt lat="49.63254922069609" lon="9.248325331136584">
<ele>211</ele>
<time>2024-05-09T13:56:11Z</time>
</trkpt>
<trkpt lat="49.632503455504775" lon="9.248330108821392">
<ele>211</ele>
<time>2024-05-09T13:56:12Z</time>
</trkpt>
<trkpt lat="49.63245769031346" lon="9.248338658362629">
<ele>210.8</ele>
<time>2024-05-09T13:56:13Z</time>
</trkpt>
<trkpt lat="49.63240806944668" lon="9.248341508209704">
<ele>210.6</ele>
<time>2024-05-09T13:56:14Z</time>
</trkpt>
<trkpt lat="49.632362304255366" lon="9.248341508209704">
<ele>210.6</ele>
<time>2024-05-09T13:56:15Z</time>
</trkpt>
<trkpt lat="49.63231653906405" lon="9.248341508209704">
<ele>210.4</ele>
<time>2024-05-09T13:56:16Z</time>
</trkpt>
<trkpt lat="49.63226314634085" lon="9.248339580371976">
<ele>210.4</ele>
<time>2024-05-09T13:56:17Z</time>
</trkpt>
<trkpt lat="49.63221352547407" lon="9.248336730524898">
<ele>210.2</ele>
<time>2024-05-09T13:56:18Z</time>
</trkpt>
<trkpt lat="49.63216398842633" lon="9.248330108821392">
<ele>210</ele>
<time>2024-05-09T13:56:19Z</time>
</trkpt>
<trkpt lat="49.632110595703125" lon="9.248323403298857">
<ele>210</ele>
<time>2024-05-09T13:56:20Z</time>
</trkpt>
<trkpt lat="49.63205711916089" lon="9.24831485375762">
<ele>209.8</ele>
<time>2024-05-09T13:56:21Z</time>
</trkpt>
<trkpt lat="49.63200758211315" lon="9.248306220397351">
<ele>209.8</ele>
<time>2024-05-09T13:56:22Z</time>
</trkpt>
<trkpt lat="49.63195796124637" lon="9.24829289317131">
<ele>209.8</ele>
<time>2024-05-09T13:56:23Z</time>
</trkpt>
<trkpt lat="49.6319083403796" lon="9.248278560116889">
<ele>209.8</ele>
<time>2024-05-09T13:56:24Z</time>
</trkpt>
<trkpt lat="49.63185880333185" lon="9.248263305053117">
<ele>209.8</ele>
<time>2024-05-09T13:56:25Z</time>
</trkpt>
<trkpt lat="49.63180918246507" lon="9.248247127979994">
<ele>209.8</ele>
<time>2024-05-09T13:56:26Z</time>
</trkpt>
<trkpt lat="49.6317595615983" lon="9.24823371693492">
<ele>209.8</ele>
<time>2024-05-09T13:56:27Z</time>
</trkpt>
<trkpt lat="49.63171002455056" lon="9.24821661785245">
<ele>209.8</ele>
<time>2024-05-09T13:56:28Z</time>
</trkpt>
<trkpt lat="49.63166040368378" lon="9.24819465726614">
<ele>210</ele>
<time>2024-05-09T13:56:29Z</time>
</trkpt>
<trkpt lat="49.63161086663604" lon="9.24817655235529">
<ele>209.8</ele>
<time>2024-05-09T13:56:30Z</time>
</trkpt>
<trkpt lat="49.63156124576926" lon="9.248160291463137">
<ele>209.8</ele>
<time>2024-05-09T13:56:31Z</time>
</trkpt>
<trkpt lat="49.63151162490249" lon="9.248145036399364">
<ele>209.6</ele>
<time>2024-05-09T13:56:32Z</time>
</trkpt>
<trkpt lat="49.63145823217928" lon="9.248129781335592">
<ele>209.4</ele>
<time>2024-05-09T13:56:33Z</time>
</trkpt>
<trkpt lat="49.63140483945608" lon="9.248111676424742">
<ele>209</ele>
<time>2024-05-09T13:56:34Z</time>
</trkpt>
<trkpt lat="49.63135144673288" lon="9.248093571513891">
<ele>208.8</ele>
<time>2024-05-09T13:56:35Z</time>
</trkpt>
<trkpt lat="49.6313018258661" lon="9.24807638861239">
<ele>208.8</ele>
<time>2024-05-09T13:56:36Z</time>
</trkpt>
<trkpt lat="49.63124457746744" lon="9.248060211539268">
<ele>208.8</ele>
<time>2024-05-09T13:56:37Z</time>
</trkpt>
<trkpt lat="49.6311950404197" lon="9.248042106628418">
<ele>208.6</ele>
<time>2024-05-09T13:56:38Z</time>
</trkpt>
<trkpt lat="49.631141647696495" lon="9.248022073879838">
<ele>208.6</ele>
<time>2024-05-09T13:56:39Z</time>
</trkpt>
<trkpt lat="49.63108825497329" lon="9.2479981854558">
<ele>208.4</ele>
<time>2024-05-09T13:56:40Z</time>
</trkpt>
<trkpt lat="49.63103477843106" lon="9.24797530286014">
<ele>208.4</ele>
<time>2024-05-09T13:56:41Z</time>
</trkpt>
<trkpt lat="49.630981385707855" lon="9.247951498255134">
<ele>208.2</ele>
<time>2024-05-09T13:56:42Z</time>
</trkpt>
<trkpt lat="49.630924221128225" lon="9.247928615659475">
<ele>208.2</ele>
<time>2024-05-09T13:56:43Z</time>
</trkpt>
<trkpt lat="49.63087074458599" lon="9.247908582910895">
<ele>208.2</ele>
<time>2024-05-09T13:56:44Z</time>
</trkpt>
<trkpt lat="49.63081358000636" lon="9.247890394181011">
<ele>208</ele>
<time>2024-05-09T13:56:45Z</time>
</trkpt>
<trkpt lat="49.63076018728316" lon="9.247871367260814">
<ele>207.8</ele>
<time>2024-05-09T13:56:46Z</time>
</trkpt>
<trkpt lat="49.6307029388845" lon="9.247851334512234">
<ele>207.8</ele>
<time>2024-05-09T13:56:47Z</time>
</trkpt>
<trkpt lat="49.63064191862941" lon="9.247831301763654">
<ele>207.6</ele>
<time>2024-05-09T13:56:48Z</time>
</trkpt>
<trkpt lat="49.630584670230746" lon="9.247810347005723">
<ele>207.6</ele>
<time>2024-05-09T13:56:49Z</time>
</trkpt>
<trkpt lat="49.63052364997566" lon="9.247788386419415">
<ele>207.6</ele>
<time>2024-05-09T13:56:50Z</time>
</trkpt>
<trkpt lat="49.63046640157699" lon="9.247770281508563">
<ele>207.6</ele>
<time>2024-05-09T13:56:51Z</time>
</trkpt>
<trkpt lat="49.63040538132191" lon="9.247751170769334">
<ele>207.6</ele>
<time>2024-05-09T13:56:52Z</time>
</trkpt>
<trkpt lat="49.63034436106682" lon="9.247733065858483">
<ele>207.6</ele>
<time>2024-05-09T13:56:53Z</time>
</trkpt>
<trkpt lat="49.63028334081173" lon="9.247714960947633">
<ele>207.6</ele>
<time>2024-05-09T13:56:54Z</time>
</trkpt>
<trkpt lat="49.63022609241307" lon="9.247693000361323">
<ele>207.6</ele>
<time>2024-05-09T13:56:55Z</time>
</trkpt>
<trkpt lat="49.63016507215798" lon="9.247672045603396">
<ele>207.6</ele>
<time>2024-05-09T13:56:56Z</time>
</trkpt>
<trkpt lat="49.63010782375932" lon="9.247652012854816">
<ele>207.8</ele>
<time>2024-05-09T13:56:57Z</time>
</trkpt>
<trkpt lat="49.63005065917969" lon="9.247626280412078">
<ele>207.6</ele>
<time>2024-05-09T13:56:58Z</time>
</trkpt>
<trkpt lat="49.629993410781026" lon="9.24759954214096">
<ele>207.6</ele>
<time>2024-05-09T13:56:59Z</time>
</trkpt>
<trkpt lat="49.62993239052594" lon="9.247574731707571">
<ele>207.4</ele>
<time>2024-05-09T13:57:00Z</time>
</trkpt>
<trkpt lat="49.629875142127275" lon="9.247554698958991">
<ele>207.4</ele>
<time>2024-05-09T13:57:01Z</time>
</trkpt>
<trkpt lat="49.62981412187219" lon="9.247534750029445">
<ele>207.2</ele>
<time>2024-05-09T13:57:02Z</time>
</trkpt>
<trkpt lat="49.629756873473525" lon="9.247514717280865">
<ele>207</ele>
<time>2024-05-09T13:57:03Z</time>
</trkpt>
<trkpt lat="49.62970348075032" lon="9.247493678703904">
<ele>207</ele>
<time>2024-05-09T13:57:04Z</time>
</trkpt>
<trkpt lat="49.62965008802712" lon="9.247474651783705">
<ele>206.8</ele>
<time>2024-05-09T13:57:05Z</time>
</trkpt>
<trkpt lat="49.62959669530392" lon="9.24746031872928">
<ele>206.6</ele>
<time>2024-05-09T13:57:06Z</time>
</trkpt>
<trkpt lat="49.62954707443714" lon="9.24744313582778">
<ele>206.4</ele>
<time>2024-05-09T13:57:07Z</time>
</trkpt>
<trkpt lat="49.62950508110225" lon="9.24742695875466">
<ele>206.4</ele>
<time>2024-05-09T13:57:08Z</time>
</trkpt>
<trkpt lat="49.629463171586394" lon="9.24740692600608">
<ele>206.4</ele>
<time>2024-05-09T13:57:09Z</time>
</trkpt>
<trkpt lat="49.629421178251505" lon="9.2473868932575">
<ele>206.4</ele>
<time>2024-05-09T13:57:10Z</time>
</trkpt>
<trkpt lat="49.62937926873565" lon="9.247371638193728">
<ele>206.2</ele>
<time>2024-05-09T13:57:11Z</time>
</trkpt>
<trkpt lat="49.62933727540076" lon="9.247358310967684">
<ele>206.2</ele>
<time>2024-05-09T13:57:12Z</time>
</trkpt>
<trkpt lat="49.629302909597754" lon="9.247343055903912">
<ele>206.2</ele>
<time>2024-05-09T13:57:13Z</time>
</trkpt>
<trkpt lat="49.62926477193832" lon="9.24732486717403">
<ele>206.4</ele>
<time>2024-05-09T13:57:14Z</time>
</trkpt>
<trkpt lat="49.629222862422466" lon="9.247309612110255">
<ele>206.4</ele>
<time>2024-05-09T13:57:15Z</time>
</trkpt>
<trkpt lat="49.62918849661946" lon="9.247298212721944">
<ele>206.4</ele>
<time>2024-05-09T13:57:16Z</time>
</trkpt>
<trkpt lat="49.62915035896003" lon="9.2472867295146">
<ele>206.6</ele>
<time>2024-05-09T13:57:17Z</time>
</trkpt>
<trkpt lat="49.62911599315703" lon="9.247275330126286">
<ele>206.6</ele>
<time>2024-05-09T13:57:18Z</time>
</trkpt>
<trkpt lat="49.62907408364117" lon="9.24726485274732">
<ele>206.8</ele>
<time>2024-05-09T13:57:19Z</time>
</trkpt>
<trkpt lat="49.629028318449855" lon="9.247256219387054">
<ele>206.8</ele>
<time>2024-05-09T13:57:20Z</time>
</trkpt>
<trkpt lat="49.62899009697139" lon="9.247248591855168">
<ele>206.8</ele>
<time>2024-05-09T13:57:21Z</time>
</trkpt>
<trkpt lat="49.628948187455535" lon="9.24724481999874">
<ele>207</ele>
<time>2024-05-09T13:57:22Z</time>
</trkpt>
<trkpt lat="49.628910049796104" lon="9.247235264629126">
<ele>207</ele>
<time>2024-05-09T13:57:23Z</time>
</trkpt>
<trkpt lat="49.628868056461215" lon="9.247231408953668">
<ele>207</ele>
<time>2024-05-09T13:57:24Z</time>
</trkpt>
<trkpt lat="49.62883369065821" lon="9.247233336791396">
<ele>207.2</ele>
<time>2024-05-09T13:57:25Z</time>
</trkpt>
<trkpt lat="49.628791781142354" lon="9.247238114476204">
<ele>207.6</ele>
<time>2024-05-09T13:57:26Z</time>
</trkpt>
<trkpt lat="49.628749787807465" lon="9.247236186638474">
<ele>207.8</ele>
<time>2024-05-09T13:57:27Z</time>
</trkpt>
<trkpt lat="49.62870402261615" lon="9.247240042313932">
<ele>208</ele>
<time>2024-05-09T13:57:28Z</time>
</trkpt>
<trkpt lat="49.62866588495672" lon="9.247248591855168">
<ele>208</ele>
<time>2024-05-09T13:57:29Z</time>
</trkpt>
<trkpt lat="49.62862389162183" lon="9.247249597683547">
<ele>208.2</ele>
<time>2024-05-09T13:57:30Z</time>
</trkpt>
<trkpt lat="49.62857812643051" lon="9.247256219387054">
<ele>208.2</ele>
<time>2024-05-09T13:57:31Z</time>
</trkpt>
<trkpt lat="49.628536216914654" lon="9.24726669676602">
<ele>208.2</ele>
<time>2024-05-09T13:57:32Z</time>
</trkpt>
<trkpt lat="49.62849422357976" lon="9.247276252135634">
<ele>208.2</ele>
<time>2024-05-09T13:57:33Z</time>
</trkpt>
<trkpt lat="49.628456085920334" lon="9.247288657352328">
<ele>208</ele>
<time>2024-05-09T13:57:34Z</time>
</trkpt>
<trkpt lat="49.62841409258544" lon="9.247295362874866">
<ele>208</ele>
<time>2024-05-09T13:57:35Z</time>
</trkpt>
<trkpt lat="49.62837218306959" lon="9.247301984578373">
<ele>208</ele>
<time>2024-05-09T13:57:36Z</time>
</trkpt>
<trkpt lat="49.6283301897347" lon="9.24730676226318">
<ele>208.2</ele>
<time>2024-05-09T13:57:37Z</time>
</trkpt>
<trkpt lat="49.62829205207527" lon="9.247311539947988">
<ele>208.2</ele>
<time>2024-05-09T13:57:38Z</time>
</trkpt>
<trkpt lat="49.62825005874038" lon="9.247313467785716">
<ele>208.2</ele>
<time>2024-05-09T13:57:39Z</time>
</trkpt>
<trkpt lat="49.62821192108095" lon="9.247315395623446">
<ele>208.4</ele>
<time>2024-05-09T13:57:40Z</time>
</trkpt>
<trkpt lat="49.62817001156509" lon="9.247316317632794">
<ele>208.6</ele>
<time>2024-05-09T13:57:41Z</time>
</trkpt>
<trkpt lat="49.62813179008663" lon="9.247316317632794">
<ele>208.8</ele>
<time>2024-05-09T13:57:42Z</time>
</trkpt>
<trkpt lat="49.62808602489531" lon="9.247315395623446">
<ele>208.8</ele>
<time>2024-05-09T13:57:43Z</time>
</trkpt>
<trkpt lat="49.62804411537945" lon="9.247315395623446">
<ele>208.8</ele>
<time>2024-05-09T13:57:44Z</time>
</trkpt>
<trkpt lat="49.62800212204456" lon="9.247313467785716">
<ele>209</ele>
<time>2024-05-09T13:57:45Z</time>
</trkpt>
<trkpt lat="49.627960128709674" lon="9.247313467785716">
<ele>209</ele>
<time>2024-05-09T13:57:46Z</time>
</trkpt>
<trkpt lat="49.62792199105024" lon="9.247311539947988">
<ele>209.2</ele>
<time>2024-05-09T13:57:47Z</time>
</trkpt>
<trkpt lat="49.627880081534386" lon="9.247308690100908">
<ele>209.2</ele>
<time>2024-05-09T13:57:48Z</time>
</trkpt>
<trkpt lat="49.627841943874955" lon="9.247302990406752">
<ele>209.2</ele>
<time>2024-05-09T13:57:49Z</time>
</trkpt>
<trkpt lat="49.62780757807195" lon="9.247296284884214">
<ele>209.4</ele>
<time>2024-05-09T13:57:50Z</time>
</trkpt>
<trkpt lat="49.62777321226895" lon="9.247289579361675">
<ele>209.6</ele>
<time>2024-05-09T13:57:51Z</time>
</trkpt>
<trkpt lat="49.62773507460952" lon="9.247282957658172">
<ele>209.6</ele>
<time>2024-05-09T13:57:52Z</time>
</trkpt>
<trkpt lat="49.62769316509366" lon="9.247276252135634">
<ele>209.8</ele>
<time>2024-05-09T13:57:53Z</time>
</trkpt>
<trkpt lat="49.62765117175877" lon="9.24726669676602">
<ele>210</ele>
<time>2024-05-09T13:57:54Z</time>
</trkpt>
<trkpt lat="49.62760917842388" lon="9.247258147224784">
<ele>210</ele>
<time>2024-05-09T13:57:55Z</time>
</trkpt>
<trkpt lat="49.62757104076445" lon="9.247251441702248">
<ele>210.2</ele>
<time>2024-05-09T13:57:56Z</time>
</trkpt>
<trkpt lat="49.62752913124859" lon="9.24724666401744">
<ele>210.2</ele>
<time>2024-05-09T13:57:57Z</time>
</trkpt>
<trkpt lat="49.62749099358916" lon="9.247240042313932">
<ele>210.4</ele>
<time>2024-05-09T13:57:58Z</time>
</trkpt>
<trkpt lat="49.6274527721107" lon="9.247235264629126">
<ele>210.6</ele>
<time>2024-05-09T13:57:59Z</time>
</trkpt>
<trkpt lat="49.62741849012673" lon="9.247229564934967">
<ele>210.6</ele>
<time>2024-05-09T13:58:00Z</time>
</trkpt>
<trkpt lat="49.6273803524673" lon="9.24722478725016">
<ele>210.8</ele>
<time>2024-05-09T13:58:01Z</time>
</trkpt>
<trkpt lat="49.62734221480787" lon="9.247220009565352">
<ele>210.8</ele>
<time>2024-05-09T13:58:02Z</time>
</trkpt>
<trkpt lat="49.62730407714844" lon="9.247215231880546">
<ele>211</ele>
<time>2024-05-09T13:58:03Z</time>
</trkpt>
<trkpt lat="49.627265855669975" lon="9.247209532186387">
<ele>211</ele>
<time>2024-05-09T13:58:04Z</time>
</trkpt>
<trkpt lat="49.627227718010545" lon="9.247202826663852">
<ele>211.2</ele>
<time>2024-05-09T13:58:05Z</time>
</trkpt>
<trkpt lat="49.627189580351114" lon="9.247196121141316">
<ele>211.4</ele>
<time>2024-05-09T13:58:06Z</time>
</trkpt>
<trkpt lat="49.62715144269168" lon="9.247191427275538">
<ele>211.4</ele>
<time>2024-05-09T13:58:07Z</time>
</trkpt>
<trkpt lat="49.62711330503225" lon="9.247190421447158">
<ele>211.6</ele>
<time>2024-05-09T13:58:08Z</time>
</trkpt>
<trkpt lat="49.62707516737282" lon="9.247188493609428">
<ele>211.6</ele>
<time>2024-05-09T13:58:09Z</time>
</trkpt>
<trkpt lat="49.62704080156982" lon="9.247183799743652">
<ele>211.8</ele>
<time>2024-05-09T13:58:10Z</time>
</trkpt>
<trkpt lat="49.62700266391039" lon="9.247178016230464">
<ele>211.8</ele>
<time>2024-05-09T13:58:11Z</time>
</trkpt>
<trkpt lat="49.62696452625096" lon="9.247173238545656">
<ele>211.8</ele>
<time>2024-05-09T13:58:12Z</time>
</trkpt>
<trkpt lat="49.62692638859153" lon="9.247168460860848">
<ele>212</ele>
<time>2024-05-09T13:58:13Z</time>
</trkpt>
<trkpt lat="49.6268882509321" lon="9.247163766995072">
<ele>212</ele>
<time>2024-05-09T13:58:14Z</time>
</trkpt>
<trkpt lat="49.62685011327267" lon="9.247157983481884">
<ele>212.2</ele>
<time>2024-05-09T13:58:15Z</time>
</trkpt>
<trkpt lat="49.62681197561323" lon="9.247153205797076">
<ele>212.2</ele>
<time>2024-05-09T13:58:16Z</time>
</trkpt>
<trkpt lat="49.626773754134774" lon="9.247150355949998">
<ele>212.4</ele>
<time>2024-05-09T13:58:17Z</time>
</trkpt>
<trkpt lat="49.626735616475344" lon="9.2471485119313">
<ele>212.4</ele>
<time>2024-05-09T13:58:18Z</time>
</trkpt>
<trkpt lat="49.62669747881591" lon="9.24714658409357">
<ele>212.6</ele>
<time>2024-05-09T13:58:19Z</time>
</trkpt>
<trkpt lat="49.62665934115648" lon="9.247143734246492">
<ele>212.6</ele>
<time>2024-05-09T13:58:20Z</time>
</trkpt>
<trkpt lat="49.62662505917251" lon="9.247141806408765">
<ele>212.6</ele>
<time>2024-05-09T13:58:21Z</time>
</trkpt>
<trkpt lat="49.62658683769405" lon="9.247137028723955">
<ele>212.8</ele>
<time>2024-05-09T13:58:22Z</time>
</trkpt>
<trkpt lat="49.62654870003462" lon="9.2471313290298">
<ele>212.8</ele>
<time>2024-05-09T13:58:23Z</time>
</trkpt>
<trkpt lat="49.62650679051876" lon="9.24712655134499">
<ele>213</ele>
<time>2024-05-09T13:58:24Z</time>
</trkpt>
<trkpt lat="49.62646865285933" lon="9.247119845822452">
<ele>213</ele>
<time>2024-05-09T13:58:25Z</time>
</trkpt>
<trkpt lat="49.62643043138087" lon="9.247113224118948">
<ele>213.2</ele>
<time>2024-05-09T13:58:26Z</time>
</trkpt>
<trkpt lat="49.62638852186501" lon="9.24710651859641">
<ele>213.2</ele>
<time>2024-05-09T13:58:27Z</time>
</trkpt>
<trkpt lat="49.62635038420558" lon="9.247099813073874">
<ele>213.4</ele>
<time>2024-05-09T13:58:28Z</time>
</trkpt>
<trkpt lat="49.62630839087069" lon="9.247095035389066">
<ele>213.4</ele>
<time>2024-05-09T13:58:29Z</time>
</trkpt>
<trkpt lat="49.62627025321126" lon="9.247090257704258">
<ele>213.6</ele>
<time>2024-05-09T13:58:30Z</time>
</trkpt>
<trkpt lat="49.62622825987637" lon="9.2470845580101">
<ele>213.6</ele>
<time>2024-05-09T13:58:31Z</time>
</trkpt>
<trkpt lat="49.62618635036051" lon="9.247077936306596">
<ele>213.6</ele>
<time>2024-05-09T13:58:32Z</time>
</trkpt>
<trkpt lat="49.62614435702562" lon="9.24707123078406">
<ele>213.6</ele>
<time>2024-05-09T13:58:33Z</time>
</trkpt>
<trkpt lat="49.626102447509766" lon="9.247063603252172">
<ele>213.6</ele>
<time>2024-05-09T13:58:34Z</time>
</trkpt>
<trkpt lat="49.62605659849942" lon="9.247053125873208">
<ele>213.6</ele>
<time>2024-05-09T13:58:35Z</time>
</trkpt>
<trkpt lat="49.62601846083999" lon="9.247043570503592">
<ele>213.8</ele>
<time>2024-05-09T13:58:36Z</time>
</trkpt>
<trkpt lat="49.62597655132413" lon="9.2470311652869">
<ele>213.8</ele>
<time>2024-05-09T13:58:37Z</time>
</trkpt>
<trkpt lat="49.62593455798924" lon="9.247019765898584">
<ele>213.8</ele>
<time>2024-05-09T13:58:38Z</time>
</trkpt>
<trkpt lat="49.62589256465435" lon="9.24701021052897">
<ele>213.8</ele>
<time>2024-05-09T13:58:39Z</time>
</trkpt>
<trkpt lat="49.62585442699492" lon="9.246999733150004">
<ele>213.8</ele>
<time>2024-05-09T13:58:40Z</time>
</trkpt>
<trkpt lat="49.62581251747906" lon="9.24698824994266">
<ele>214</ele>
<time>2024-05-09T13:58:41Z</time>
</trkpt>
<trkpt lat="49.62577052414417" lon="9.246974922716618">
<ele>213.8</ele>
<time>2024-05-09T13:58:42Z</time>
</trkpt>
<trkpt lat="49.62572853080928" lon="9.246961511671543">
<ele>213.8</ele>
<time>2024-05-09T13:58:43Z</time>
</trkpt>
<trkpt lat="49.625686621293426" lon="9.24695011228323">
<ele>213.8</ele>
<time>2024-05-09T13:58:44Z</time>
</trkpt>
<trkpt lat="49.625644627958536" lon="9.246938629075885">
<ele>213.8</ele>
<time>2024-05-09T13:58:45Z</time>
</trkpt>
<trkpt lat="49.62559886276722" lon="9.246926307678224">
<ele>213.8</ele>
<time>2024-05-09T13:58:46Z</time>
</trkpt>
<trkpt lat="49.6255530975759" lon="9.24691004678607">
<ele>214</ele>
<time>2024-05-09T13:58:47Z</time>
</trkpt>
<trkpt lat="49.62551110424101" lon="9.246896719560027">
<ele>214.2</ele>
<time>2024-05-09T13:58:48Z</time>
</trkpt>
<trkpt lat="49.62546919472515" lon="9.246881464496257">
<ele>214.2</ele>
<time>2024-05-09T13:58:49Z</time>
</trkpt>
<trkpt lat="49.625427201390266" lon="9.24686805345118">
<ele>214.2</ele>
<time>2024-05-09T13:58:50Z</time>
</trkpt>
<trkpt lat="49.62538520805538" lon="9.246856654062867">
<ele>214.2</ele>
<time>2024-05-09T13:58:51Z</time>
</trkpt>
<trkpt lat="49.62534329853952" lon="9.246843326836824">
<ele>214.2</ele>
<time>2024-05-09T13:58:52Z</time>
</trkpt>
<trkpt lat="49.62530516088009" lon="9.24682991579175">
<ele>214.4</ele>
<time>2024-05-09T13:58:53Z</time>
</trkpt>
<trkpt lat="49.62526702322066" lon="9.246818516403437">
<ele>214.4</ele>
<time>2024-05-09T13:58:54Z</time>
</trkpt>
<trkpt lat="49.62522880174219" lon="9.246807033196092">
<ele>214.6</ele>
<time>2024-05-09T13:58:55Z</time>
</trkpt>
<trkpt lat="49.625190664082766" lon="9.246796555817127">
<ele>214.6</ele>
<time>2024-05-09T13:58:56Z</time>
</trkpt>
<trkpt lat="49.625156382098794" lon="9.246785156428814">
<ele>214.8</ele>
<time>2024-05-09T13:58:57Z</time>
</trkpt>
<trkpt lat="49.62511824443936" lon="9.246769901365042">
<ele>215</ele>
<time>2024-05-09T13:58:58Z</time>
</trkpt>
<trkpt lat="49.62508387863636" lon="9.246756490319967">
<ele>215</ele>
<time>2024-05-09T13:58:59Z</time>
</trkpt>
<trkpt lat="49.62504951283336" lon="9.246741235256197">
<ele>215.2</ele>
<time>2024-05-09T13:59:00Z</time>
</trkpt>
<trkpt lat="49.625015230849385" lon="9.246726986020803">
<ele>215.4</ele>
<time>2024-05-09T13:59:01Z</time>
</trkpt>
<trkpt lat="49.62498086504638" lon="9.246709803119302">
<ele>215.4</ele>
<time>2024-05-09T13:59:02Z</time>
</trkpt>
<trkpt lat="49.62494658306241" lon="9.246691698208451">
<ele>215.6</ele>
<time>2024-05-09T13:59:03Z</time>
</trkpt>
<trkpt lat="49.62490844540298" lon="9.24667451530695">
<ele>215.6</ele>
<time>2024-05-09T13:59:04Z</time>
</trkpt>
<trkpt lat="49.62487022392452" lon="9.246658254414797">
<ele>215.8</ele>
<time>2024-05-09T13:59:05Z</time>
</trkpt>
<trkpt lat="49.62483208626509" lon="9.246642999351025">
<ele>216</ele>
<time>2024-05-09T13:59:06Z</time>
</trkpt>
<trkpt lat="49.62479394860566" lon="9.246629672124982">
<ele>216.2</ele>
<time>2024-05-09T13:59:07Z</time>
</trkpt>
<trkpt lat="49.624755810946226" lon="9.24661533907056">
<ele>216.2</ele>
<time>2024-05-09T13:59:08Z</time>
</trkpt>
<trkpt lat="49.6247176732868" lon="9.246600084006786">
<ele>216.4</ele>
<time>2024-05-09T13:59:09Z</time>
</trkpt>
<trkpt lat="49.624679535627365" lon="9.246580051258206">
<ele>216.6</ele>
<time>2024-05-09T13:59:10Z</time>
</trkpt>
<trkpt lat="49.624641397967935" lon="9.246562952175736">
<ele>216.8</ele>
<time>2024-05-09T13:59:11Z</time>
</trkpt>
<trkpt lat="49.62460703216493" lon="9.246544763445854">
<ele>217</ele>
<time>2024-05-09T13:59:12Z</time>
</trkpt>
<trkpt lat="49.62457275018096" lon="9.246521880850196">
<ele>217</ele>
<time>2024-05-09T13:59:13Z</time>
</trkpt>
<trkpt lat="49.6245345287025" lon="9.246501848101616">
<ele>217.2</ele>
<time>2024-05-09T13:59:14Z</time>
</trkpt>
<trkpt lat="49.624500246718526" lon="9.246486593037844">
<ele>217.2</ele>
<time>2024-05-09T13:59:15Z</time>
</trkpt>
<trkpt lat="49.62446588091552" lon="9.246464716270566">
<ele>217.4</ele>
<time>2024-05-09T13:59:16Z</time>
</trkpt>
<trkpt lat="49.62443159893155" lon="9.246444683521986">
<ele>217.6</ele>
<time>2024-05-09T13:59:17Z</time>
</trkpt>
<trkpt lat="49.62439723312855" lon="9.246421800926328">
<ele>217.6</ele>
<time>2024-05-09T13:59:18Z</time>
</trkpt>
<trkpt lat="49.624362867325544" lon="9.246397912502289">
<ele>217.8</ele>
<time>2024-05-09T13:59:19Z</time>
</trkpt>
<trkpt lat="49.62432858534157" lon="9.24637502990663">
<ele>218</ele>
<time>2024-05-09T13:59:20Z</time>
</trkpt>
<trkpt lat="49.62429421953857" lon="9.246348375454543">
<ele>218.2</ele>
<time>2024-05-09T13:59:21Z</time>
</trkpt>
<trkpt lat="49.6242599375546" lon="9.246323565021155">
<ele>218.2</ele>
<time>2024-05-09T13:59:22Z</time>
</trkpt>
<trkpt lat="49.62423319928348" lon="9.24629682675004">
<ele>218.4</ele>
<time>2024-05-09T13:59:23Z</time>
</trkpt>
<trkpt lat="49.62419883348048" lon="9.246270172297956">
<ele>218.4</ele>
<time>2024-05-09T13:59:24Z</time>
</trkpt>
<trkpt lat="49.624164551496506" lon="9.246241506189108">
<ele>218.6</ele>
<time>2024-05-09T13:59:25Z</time>
</trkpt>
<trkpt lat="49.6241301856935" lon="9.246212923899291">
<ele>218.6</ele>
<time>2024-05-09T13:59:26Z</time>
</trkpt>
<trkpt lat="49.62409967556596" lon="9.246188113465903">
<ele>218.8</ele>
<time>2024-05-09T13:59:27Z</time>
</trkpt>
<trkpt lat="49.624069165438414" lon="9.24615852534771">
<ele>219</ele>
<time>2024-05-09T13:59:28Z</time>
</trkpt>
<trkpt lat="49.62403865531087" lon="9.246129943057896">
<ele>219</ele>
<time>2024-05-09T13:59:29Z</time>
</trkpt>
<trkpt lat="49.624004289507866" lon="9.2461003549397">
<ele>219.2</ele>
<time>2024-05-09T13:59:30Z</time>
</trkpt>
<trkpt lat="49.62397377938032" lon="9.246069844812157">
<ele>219.4</ele>
<time>2024-05-09T13:59:31Z</time>
</trkpt>
<trkpt lat="49.62394326925278" lon="9.24603841267526">
<ele>219.6</ele>
<time>2024-05-09T13:59:32Z</time>
</trkpt>
<trkpt lat="49.623908987268806" lon="9.246007902547715">
<ele>219.8</ele>
<time>2024-05-09T13:59:33Z</time>
</trkpt>
<trkpt lat="49.62387847714126" lon="9.245974458754064">
<ele>219.8</ele>
<time>2024-05-09T13:59:34Z</time>
</trkpt>
<trkpt lat="49.623847883194685" lon="9.24594210460782">
<ele>220</ele>
<time>2024-05-09T13:59:35Z</time>
</trkpt>
<trkpt lat="49.62381360121071" lon="9.245908660814166">
<ele>220</ele>
<time>2024-05-09T13:59:36Z</time>
</trkpt>
<trkpt lat="49.62378309108317" lon="9.245871528983116">
<ele>220.2</ele>
<time>2024-05-09T13:59:37Z</time>
</trkpt>
<trkpt lat="49.62375635281205" lon="9.245836241170764">
<ele>220.2</ele>
<time>2024-05-09T13:59:38Z</time>
</trkpt>
<trkpt lat="49.623729698359966" lon="9.245798103511332">
<ele>220.2</ele>
<time>2024-05-09T13:59:39Z</time>
</trkpt>
<trkpt lat="49.62370296008885" lon="9.245759882032871">
<ele>220.2</ele>
<time>2024-05-09T13:59:40Z</time>
</trkpt>
<trkpt lat="49.62367622181773" lon="9.24572174437344">
<ele>220.2</ele>
<time>2024-05-09T13:59:41Z</time>
</trkpt>
<trkpt lat="49.623653339222074" lon="9.245679834857585">
<ele>220.2</ele>
<time>2024-05-09T13:59:42Z</time>
</trkpt>
<trkpt lat="49.62362282909453" lon="9.245637841522694">
<ele>220.2</ele>
<time>2024-05-09T13:59:43Z</time>
</trkpt>
<trkpt lat="49.62359617464245" lon="9.245596854016185">
<ele>220.2</ele>
<time>2024-05-09T13:59:44Z</time>
</trkpt>
<trkpt lat="49.623569436371326" lon="9.245554860681295">
<ele>220.2</ele>
<time>2024-05-09T13:59:45Z</time>
</trkpt>
<trkpt lat="49.62354278191924" lon="9.245512951165438">
<ele>220.2</ele>
<time>2024-05-09T13:59:46Z</time>
</trkpt>
<trkpt lat="49.623512187972665" lon="9.24546810798347">
<ele>220.2</ele>
<time>2024-05-09T13:59:47Z</time>
</trkpt>
<trkpt lat="49.62348930537701" lon="9.245423264801502">
<ele>220.2</ele>
<time>2024-05-09T13:59:48Z</time>
</trkpt>
<trkpt lat="49.62346642278135" lon="9.245371799916027">
<ele>220.4</ele>
<time>2024-05-09T13:59:49Z</time>
</trkpt>
<trkpt lat="49.62344354018569" lon="9.245316479355097">
<ele>220.4</ele>
<time>2024-05-09T13:59:50Z</time>
</trkpt>
<trkpt lat="49.62342065759003" lon="9.245260236784816">
<ele>220.4</ele>
<time>2024-05-09T13:59:51Z</time>
</trkpt>
<trkpt lat="49.623394003137946" lon="9.245204916223884">
<ele>220.4</ele>
<time>2024-05-09T13:59:52Z</time>
</trkpt>
<trkpt lat="49.62337112054229" lon="9.245149595662951">
<ele>220.4</ele>
<time>2024-05-09T13:59:53Z</time>
</trkpt>
<trkpt lat="49.6233481541276" lon="9.245098046958448">
<ele>220.6</ele>
<time>2024-05-09T13:59:54Z</time>
</trkpt>
<trkpt lat="49.62332149967551" lon="9.245048509910704">
<ele>220.6</ele>
<time>2024-05-09T13:59:55Z</time>
</trkpt>
<trkpt lat="49.623298617079854" lon="9.244996961206198">
<ele>220.8</ele>
<time>2024-05-09T13:59:56Z</time>
</trkpt>
<trkpt lat="49.62327950634062" lon="9.244946418330072">
<ele>220.8</ele>
<time>2024-05-09T13:59:57Z</time>
</trkpt>
<trkpt lat="49.623256623744965" lon="9.244898725301027">
<ele>221</ele>
<time>2024-05-09T13:59:58Z</time>
</trkpt>
<trkpt lat="49.623237596824765" lon="9.244852038100362">
<ele>221</ele>
<time>2024-05-09T13:59:59Z</time>
</trkpt>
<trkpt lat="49.62321471422911" lon="9.244805267080665">
<ele>221</ele>
<time>2024-05-09T14:00:00Z</time>
</trkpt>
<trkpt lat="49.62319183163345" lon="9.244763357564809">
<ele>221</ele>
<time>2024-05-09T14:00:01Z</time>
</trkpt>
<trkpt lat="49.62316509336233" lon="9.244723292067649">
<ele>221.2</ele>
<time>2024-05-09T14:00:02Z</time>
</trkpt>
<trkpt lat="49.623138355091214" lon="9.24467652104795">
<ele>221.2</ele>
<time>2024-05-09T14:00:03Z</time>
</trkpt>
<trkpt lat="49.62311170063913" lon="9.244625056162477">
<ele>221.2</ele>
<time>2024-05-09T14:00:04Z</time>
</trkpt>
<trkpt lat="49.62308496236801" lon="9.244571663439274">
<ele>221.2</ele>
<time>2024-05-09T14:00:05Z</time>
</trkpt>
<trkpt lat="49.623058307915926" lon="9.24452304840088">
<ele>221.4</ele>
<time>2024-05-09T14:00:06Z</time>
</trkpt>
<trkpt lat="49.62303542532027" lon="9.244478205218911">
<ele>221.4</ele>
<time>2024-05-09T14:00:07Z</time>
</trkpt>
<trkpt lat="49.62301254272461" lon="9.244433362036943">
<ele>221.4</ele>
<time>2024-05-09T14:00:08Z</time>
</trkpt>
<trkpt lat="49.62298580445349" lon="9.244386591017246">
<ele>221.6</ele>
<time>2024-05-09T14:00:09Z</time>
</trkpt>
<trkpt lat="49.62295529432595" lon="9.244337053969502">
<ele>221.6</ele>
<time>2024-05-09T14:00:10Z</time>
</trkpt>
<trkpt lat="49.6229247841984" lon="9.244291288778186">
<ele>221.4</ele>
<time>2024-05-09T14:00:11Z</time>
</trkpt>
<trkpt lat="49.62289427407086" lon="9.244253151118755">
<ele>221.4</ele>
<time>2024-05-09T14:00:12Z</time>
</trkpt>
<trkpt lat="49.62286753579974" lon="9.244217863306403">
<ele>221.4</ele>
<time>2024-05-09T14:00:13Z</time>
</trkpt>
<trkpt lat="49.622840881347656" lon="9.244176791980864">
<ele>221.4</ele>
<time>2024-05-09T14:00:14Z</time>
</trkpt>
<trkpt lat="49.62281028740108" lon="9.24414535984397">
<ele>221.4</ele>
<time>2024-05-09T14:00:15Z</time>
</trkpt>
<trkpt lat="49.622779777273536" lon="9.244114849716423">
<ele>221.4</ele>
<time>2024-05-09T14:00:16Z</time>
</trkpt>
<trkpt lat="49.62274549528957" lon="9.2440833337605">
<ele>221.2</ele>
<time>2024-05-09T14:00:17Z</time>
</trkpt>
<trkpt lat="49.62271498516202" lon="9.244051901623608">
<ele>221.2</ele>
<time>2024-05-09T14:00:18Z</time>
</trkpt>
<trkpt lat="49.62267684750259" lon="9.244023319333792">
<ele>221.2</ele>
<time>2024-05-09T14:00:19Z</time>
</trkpt>
<trkpt lat="49.6226348541677" lon="9.243998508900404">
<ele>221.2</ele>
<time>2024-05-09T14:00:20Z</time>
</trkpt>
<trkpt lat="49.62259671650827" lon="9.243973698467016">
<ele>221</ele>
<time>2024-05-09T14:00:21Z</time>
</trkpt>
<trkpt lat="49.62255095131695" lon="9.243949810042976">
<ele>221</ele>
<time>2024-05-09T14:00:22Z</time>
</trkpt>
<trkpt lat="49.62250518612563" lon="9.243931705132129">
<ele>221</ele>
<time>2024-05-09T14:00:23Z</time>
</trkpt>
<trkpt lat="49.62245556525886" lon="9.243918377906084">
<ele>220.8</ele>
<time>2024-05-09T14:00:24Z</time>
</trkpt>
<trkpt lat="49.62240217253566" lon="9.243909828364847">
<ele>220.8</ele>
<time>2024-05-09T14:00:25Z</time>
</trkpt>
<trkpt lat="49.622348779812455" lon="9.243911672383549">
<ele>220.6</ele>
<time>2024-05-09T14:00:26Z</time>
</trkpt>
<trkpt lat="49.622291531413794" lon="9.243921227753162">
<ele>220.4</ele>
<time>2024-05-09T14:00:27Z</time>
</trkpt>
<trkpt lat="49.62223813869059" lon="9.243938410654664">
<ele>220.2</ele>
<time>2024-05-09T14:00:28Z</time>
</trkpt>
<trkpt lat="49.622188517823815" lon="9.24396799877286">
<ele>220</ele>
<time>2024-05-09T14:00:29Z</time>
</trkpt>
<trkpt lat="49.62213889695704" lon="9.244000352919102">
<ele>219.6</ele>
<time>2024-05-09T14:00:30Z</time>
</trkpt>
<trkpt lat="49.62208550423384" lon="9.244036646559834">
<ele>219.2</ele>
<time>2024-05-09T14:00:31Z</time>
</trkpt>
<trkpt lat="49.62202833965421" lon="9.244072856381536">
<ele>218.8</ele>
<time>2024-05-09T14:00:32Z</time>
</trkpt>
<trkpt lat="49.62197486311197" lon="9.244112921878695">
<ele>218.6</ele>
<time>2024-05-09T14:00:33Z</time>
</trkpt>
<trkpt lat="49.62191769853234" lon="9.244152987375855">
<ele>218.2</ele>
<time>2024-05-09T14:00:34Z</time>
</trkpt>
<trkpt lat="49.62186807766557" lon="9.244194980710745">
<ele>217.8</ele>
<time>2024-05-09T14:00:35Z</time>
</trkpt>
<trkpt lat="49.62181091308594" lon="9.244248373433948">
<ele>217.4</ele>
<time>2024-05-09T14:00:36Z</time>
</trkpt>
<trkpt lat="49.6217574365437" lon="9.244296988472342">
<ele>217</ele>
<time>2024-05-09T14:00:37Z</time>
</trkpt>
<trkpt lat="49.6217040438205" lon="9.244346609339118">
<ele>216.8</ele>
<time>2024-05-09T14:00:38Z</time>
</trkpt>
<trkpt lat="49.621658278629184" lon="9.24440000206232">
<ele>216.4</ele>
<time>2024-05-09T14:00:39Z</time>
</trkpt>
<trkpt lat="49.62161251343787" lon="9.244456244632602">
<ele>216.4</ele>
<time>2024-05-09T14:00:40Z</time>
</trkpt>
<trkpt lat="49.62156674824655" lon="9.244513493031263">
<ele>216.2</ele>
<time>2024-05-09T14:00:41Z</time>
</trkpt>
<trkpt lat="49.621517127379775" lon="9.244560180231929">
<ele>216.2</ele>
<time>2024-05-09T14:00:42Z</time>
</trkpt>
<trkpt lat="49.62147136218846" lon="9.244603095576169">
<ele>216</ele>
<time>2024-05-09T14:00:43Z</time>
</trkpt>
<trkpt lat="49.62142559699714" lon="9.244651794433594">
<ele>216</ele>
<time>2024-05-09T14:00:44Z</time>
</trkpt>
<trkpt lat="49.621379831805825" lon="9.244694709777832">
<ele>215.8</ele>
<time>2024-05-09T14:00:45Z</time>
</trkpt>
<trkpt lat="49.621337838470936" lon="9.244739469140768">
<ele>215.8</ele>
<time>2024-05-09T14:00:46Z</time>
</trkpt>
<trkpt lat="49.62128821760416" lon="9.244786240160463">
<ele>215.8</ele>
<time>2024-05-09T14:00:47Z</time>
</trkpt>
<trkpt lat="49.6212463080883" lon="9.24483292736113">
<ele>215.8</ele>
<time>2024-05-09T14:00:48Z</time>
</trkpt>
<trkpt lat="49.621200542896986" lon="9.244881626218556">
<ele>215.8</ele>
<time>2024-05-09T14:00:49Z</time>
</trkpt>
<trkpt lat="49.6211585495621" lon="9.244926385581492">
<ele>216</ele>
<time>2024-05-09T14:00:50Z</time>
</trkpt>
<trkpt lat="49.62111655622721" lon="9.24497122876346">
<ele>216</ele>
<time>2024-05-09T14:00:51Z</time>
</trkpt>
<trkpt lat="49.62107079103589" lon="9.245015066117048">
<ele>216</ele>
<time>2024-05-09T14:00:52Z</time>
</trkpt>
<trkpt lat="49.62102125398815" lon="9.24505328759551">
<ele>216.2</ele>
<time>2024-05-09T14:00:53Z</time>
</trkpt>
<trkpt lat="49.62097548879683" lon="9.245089497417212">
<ele>216.2</ele>
<time>2024-05-09T14:00:54Z</time>
</trkpt>
<trkpt lat="49.62092963978648" lon="9.245126713067291">
<ele>216.2</ele>
<time>2024-05-09T14:00:55Z</time>
</trkpt>
<trkpt lat="49.620887730270624" lon="9.245164850726724">
<ele>216.4</ele>
<time>2024-05-09T14:00:56Z</time>
</trkpt>
<trkpt lat="49.62084196507931" lon="9.245200138539076">
<ele>216.4</ele>
<time>2024-05-09T14:00:57Z</time>
</trkpt>
<trkpt lat="49.62079997174442" lon="9.245235426351428">
<ele>216.4</ele>
<time>2024-05-09T14:00:58Z</time>
</trkpt>
<trkpt lat="49.62075797840953" lon="9.2452697083354">
<ele>216.4</ele>
<time>2024-05-09T14:00:59Z</time>
</trkpt>
<trkpt lat="49.62071606889367" lon="9.245296446606517">
<ele>216.4</ele>
<time>2024-05-09T14:01:00Z</time>
</trkpt>
<trkpt lat="49.62067407555878" lon="9.245320251211524">
<ele>216.4</ele>
<time>2024-05-09T14:01:01Z</time>
</trkpt>
<trkpt lat="49.62063216604293" lon="9.245341289788485">
<ele>216.4</ele>
<time>2024-05-09T14:01:02Z</time>
</trkpt>
<trkpt lat="49.620590172708035" lon="9.245358388870956">
<ele>216.4</ele>
<time>2024-05-09T14:01:03Z</time>
</trkpt>
<trkpt lat="49.62054440751672" lon="9.245374649763107">
<ele>216.4</ele>
<time>2024-05-09T14:01:04Z</time>
</trkpt>
<trkpt lat="49.62050241418183" lon="9.245394682511687">
<ele>216.4</ele>
<time>2024-05-09T14:01:05Z</time>
</trkpt>
<trkpt lat="49.62045664899051" lon="9.24540800973773">
<ele>216.6</ele>
<time>2024-05-09T14:01:06Z</time>
</trkpt>
<trkpt lat="49.620410883799195" lon="9.245421336963773">
<ele>216.6</ele>
<time>2024-05-09T14:01:07Z</time>
</trkpt>
<trkpt lat="49.62036511860788" lon="9.245431898161767">
<ele>216.8</ele>
<time>2024-05-09T14:01:08Z</time>
</trkpt>
<trkpt lat="49.6203154977411" lon="9.245436592027543">
<ele>216.8</ele>
<time>2024-05-09T14:01:09Z</time>
</trkpt>
<trkpt lat="49.62026973254979" lon="9.245445225387812">
<ele>216.8</ele>
<time>2024-05-09T14:01:10Z</time>
</trkpt>
<trkpt lat="49.62022011168301" lon="9.245452852919698">
<ele>217</ele>
<time>2024-05-09T14:01:11Z</time>
</trkpt>
<trkpt lat="49.620174346491694" lon="9.245458552613854">
<ele>217</ele>
<time>2024-05-09T14:01:12Z</time>
</trkpt>
<trkpt lat="49.62012858130038" lon="9.245465258136392">
<ele>217</ele>
<time>2024-05-09T14:01:13Z</time>
</trkpt>
<trkpt lat="49.62008281610906" lon="9.245471879839895">
<ele>217</ele>
<time>2024-05-09T14:01:14Z</time>
</trkpt>
<trkpt lat="49.620033195242286" lon="9.245478585362434">
<ele>217</ele>
<time>2024-05-09T14:01:15Z</time>
</trkpt>
<trkpt lat="49.61998365819454" lon="9.245485290884972">
<ele>217</ele>
<time>2024-05-09T14:01:16Z</time>
</trkpt>
<trkpt lat="49.619937893003225" lon="9.24548814073205">
<ele>217</ele>
<time>2024-05-09T14:01:17Z</time>
</trkpt>
<trkpt lat="49.61988827213645" lon="9.24549006856978">
<ele>217</ele>
<time>2024-05-09T14:01:18Z</time>
</trkpt>
<trkpt lat="49.61984250694513" lon="9.245496690273283">
<ele>217</ele>
<time>2024-05-09T14:01:19Z</time>
</trkpt>
<trkpt lat="49.61979674175382" lon="9.24550817348063">
<ele>216.8</ele>
<time>2024-05-09T14:01:20Z</time>
</trkpt>
<trkpt lat="49.61975474841893" lon="9.245516723021863">
<ele>216.8</ele>
<time>2024-05-09T14:01:21Z</time>
</trkpt>
<trkpt lat="49.61970898322761" lon="9.245519572868943">
<ele>217</ele>
<time>2024-05-09T14:01:22Z</time>
</trkpt>
<trkpt lat="49.619663218036294" lon="9.245521500706673">
<ele>217</ele>
<time>2024-05-09T14:01:23Z</time>
</trkpt>
<trkpt lat="49.61961745284498" lon="9.245523428544402">
<ele>217</ele>
<time>2024-05-09T14:01:24Z</time>
</trkpt>
<trkpt lat="49.61957160383463" lon="9.245521500706673">
<ele>217.2</ele>
<time>2024-05-09T14:01:25Z</time>
</trkpt>
<trkpt lat="49.61952969431877" lon="9.245519572868943">
<ele>217.4</ele>
<time>2024-05-09T14:01:26Z</time>
</trkpt>
<trkpt lat="49.619480073452" lon="9.245514795184135">
<ele>217.6</ele>
<time>2024-05-09T14:01:27Z</time>
</trkpt>
<trkpt lat="49.61943430826068" lon="9.24551010131836">
<ele>217.6</ele>
<time>2024-05-09T14:01:28Z</time>
</trkpt>
<trkpt lat="49.619384687393904" lon="9.245511945337055">
<ele>217.8</ele>
<time>2024-05-09T14:01:29Z</time>
</trkpt>
<trkpt lat="49.619342777878046" lon="9.245505323633552">
<ele>218</ele>
<time>2024-05-09T14:01:30Z</time>
</trkpt>
<trkpt lat="49.61929701268673" lon="9.245499540120363">
<ele>218</ele>
<time>2024-05-09T14:01:31Z</time>
</trkpt>
<trkpt lat="49.61925501935184" lon="9.245494762435555">
<ele>218.2</ele>
<time>2024-05-09T14:01:32Z</time>
</trkpt>
<trkpt lat="49.619205398485065" lon="9.24548814073205">
<ele>218.4</ele>
<time>2024-05-09T14:01:33Z</time>
</trkpt>
<trkpt lat="49.61916348896921" lon="9.245485290884972">
<ele>218.6</ele>
<time>2024-05-09T14:01:34Z</time>
</trkpt>
<trkpt lat="49.61911772377789" lon="9.245481435209513">
<ele>218.8</ele>
<time>2024-05-09T14:01:35Z</time>
</trkpt>
<trkpt lat="49.619071958586574" lon="9.245479507371783">
<ele>218.8</ele>
<time>2024-05-09T14:01:36Z</time>
</trkpt>
<trkpt lat="49.619026109576225" lon="9.245479507371783">
<ele>218.8</ele>
<time>2024-05-09T14:01:37Z</time>
</trkpt>
<trkpt lat="49.61898034438491" lon="9.245483363047242">
<ele>218.8</ele>
<time>2024-05-09T14:01:38Z</time>
</trkpt>
<trkpt lat="49.61893457919359" lon="9.245483363047242">
<ele>218.8</ele>
<time>2024-05-09T14:01:39Z</time>
</trkpt>
<trkpt lat="49.61888118647039" lon="9.245478585362434">
<ele>218.6</ele>
<time>2024-05-09T14:01:40Z</time>
</trkpt>
<trkpt lat="49.618831565603614" lon="9.245476657524703">
<ele>218.6</ele>
<time>2024-05-09T14:01:41Z</time>
</trkpt>
<trkpt lat="49.61878202855587" lon="9.245476657524703">
<ele>218.4</ele>
<time>2024-05-09T14:01:42Z</time>
</trkpt>
<trkpt lat="49.61872863583267" lon="9.245471879839895">
<ele>218.2</ele>
<time>2024-05-09T14:01:43Z</time>
</trkpt>
<trkpt lat="49.61868278682232" lon="9.245472885668278">
<ele>218</ele>
<time>2024-05-09T14:01:44Z</time>
</trkpt>
<trkpt lat="49.618633249774575" lon="9.2454700358212">
<ele>218</ele>
<time>2024-05-09T14:01:45Z</time>
</trkpt>
<trkpt lat="49.61857985705137" lon="9.2454700358212">
<ele>217.8</ele>
<time>2024-05-09T14:01:46Z</time>
</trkpt>
<trkpt lat="49.61852638050914" lon="9.24546618014574">
<ele>217.8</ele>
<time>2024-05-09T14:01:47Z</time>
</trkpt>
<trkpt lat="49.618476843461394" lon="9.245463330298662">
<ele>217.6</ele>
<time>2024-05-09T14:01:48Z</time>
</trkpt>
<trkpt lat="49.61842722259462" lon="9.245458552613854">
<ele>217.6</ele>
<time>2024-05-09T14:01:49Z</time>
</trkpt>
<trkpt lat="49.618377685546875" lon="9.245454780757427">
<ele>217.4</ele>
<time>2024-05-09T14:01:50Z</time>
</trkpt>
<trkpt lat="49.61832420900464" lon="9.245451847091315">
<ele>217.4</ele>
<time>2024-05-09T14:01:51Z</time>
</trkpt>
<trkpt lat="49.6182746719569" lon="9.24544807523489">
<ele>217.2</ele>
<time>2024-05-09T14:01:52Z</time>
</trkpt>
<trkpt lat="49.618221279233694" lon="9.245441369712353">
<ele>217</ele>
<time>2024-05-09T14:01:53Z</time>
</trkpt>
<trkpt lat="49.61817165836692" lon="9.245431898161767">
<ele>216.8</ele>
<time>2024-05-09T14:01:54Z</time>
</trkpt>
<trkpt lat="49.61811826564371" lon="9.24542712047696">
<ele>216.8</ele>
<time>2024-05-09T14:01:55Z</time>
</trkpt>
<trkpt lat="49.61806487292051" lon="9.245418487116694">
<ele>216.6</ele>
<time>2024-05-09T14:01:56Z</time>
</trkpt>
<trkpt lat="49.61801139637828" lon="9.24540708772838">
<ele>216.4</ele>
<time>2024-05-09T14:01:57Z</time>
</trkpt>
<trkpt lat="49.61791223846376" lon="9.245380349457264">
<ele>216</ele>
<time>2024-05-09T14:01:59Z</time>
</trkpt>
<trkpt lat="49.617862701416016" lon="9.24536702223122">
<ele>215.8</ele>
<time>2024-05-09T14:02:00Z</time>
</trkpt>
<trkpt lat="49.61781308054924" lon="9.245356544852257">
<ele>215.6</ele>
<time>2024-05-09T14:02:01Z</time>
</trkpt>
<trkpt lat="49.61775968782604" lon="9.24534791149199">
<ele>215.4</ele>
<time>2024-05-09T14:02:02Z</time>
</trkpt>
<trkpt lat="49.61771006695926" lon="9.245338439941406">
<ele>215.4</ele>
<time>2024-05-09T14:02:03Z</time>
</trkpt>
<trkpt lat="49.617660446092486" lon="9.24532787874341">
<ele>215.2</ele>
<time>2024-05-09T14:02:04Z</time>
</trkpt>
<trkpt lat="49.61761468090117" lon="9.245316479355097">
<ele>215.2</ele>
<time>2024-05-09T14:02:05Z</time>
</trkpt>
<trkpt lat="49.617565143853426" lon="9.245303152129054">
<ele>215.2</ele>
<time>2024-05-09T14:02:06Z</time>
</trkpt>
<trkpt lat="49.61752315051854" lon="9.24528974108398">
<ele>215.2</ele>
<time>2024-05-09T14:02:07Z</time>
</trkpt>
<trkpt lat="49.61747738532722" lon="9.245278341695666">
<ele>215.2</ele>
<time>2024-05-09T14:02:08Z</time>
</trkpt>
<trkpt lat="49.6174316201359" lon="9.245267864316702">
<ele>215</ele>
<time>2024-05-09T14:02:09Z</time>
</trkpt>
<trkpt lat="49.61738585494459" lon="9.245256381109357">
<ele>214.8</ele>
<time>2024-05-09T14:02:10Z</time>
</trkpt>
<trkpt lat="49.61734000593424" lon="9.245244897902012">
<ele>214.8</ele>
<time>2024-05-09T14:02:11Z</time>
</trkpt>
<trkpt lat="49.617290468886495" lon="9.24523157067597">
<ele>214.8</ele>
<time>2024-05-09T14:02:12Z</time>
</trkpt>
<trkpt lat="49.61724470369518" lon="9.245218243449926">
<ele>214.8</ele>
<time>2024-05-09T14:02:13Z</time>
</trkpt>
<trkpt lat="49.61719893850386" lon="9.24520676024258">
<ele>215</ele>
<time>2024-05-09T14:02:14Z</time>
</trkpt>
<trkpt lat="49.61715308949351" lon="9.24519150517881">
<ele>215</ele>
<time>2024-05-09T14:02:15Z</time>
</trkpt>
<trkpt lat="49.6171073243022" lon="9.245178177952766">
<ele>215</ele>
<time>2024-05-09T14:02:16Z</time>
</trkpt>
<trkpt lat="49.61706155911088" lon="9.245164850726724">
<ele>215.2</ele>
<time>2024-05-09T14:02:17Z</time>
</trkpt>
<trkpt lat="49.61701579391956" lon="9.24515336751938">
<ele>215.4</ele>
<time>2024-05-09T14:02:18Z</time>
</trkpt>
<trkpt lat="49.61697002872825" lon="9.245141968131064">
<ele>215.4</ele>
<time>2024-05-09T14:02:19Z</time>
</trkpt>
<trkpt lat="49.61692426353693" lon="9.245129562914371">
<ele>215.6</ele>
<time>2024-05-09T14:02:20Z</time>
</trkpt>
<trkpt lat="49.61687849834561" lon="9.245120007544756">
<ele>215.6</ele>
<time>2024-05-09T14:02:21Z</time>
</trkpt>
<trkpt lat="49.61682887747884" lon="9.245109530165792">
<ele>215.6</ele>
<time>2024-05-09T14:02:22Z</time>
</trkpt>
<trkpt lat="49.61678688414395" lon="9.245104752480984">
<ele>215.8</ele>
<time>2024-05-09T14:02:23Z</time>
</trkpt>
<trkpt lat="49.61674111895263" lon="9.245096202939749">
<ele>216</ele>
<time>2024-05-09T14:02:24Z</time>
</trkpt>
<trkpt lat="49.616699209436774" lon="9.245088575407864">
<ele>216</ele>
<time>2024-05-09T14:02:25Z</time>
</trkpt>
<trkpt lat="49.616653360426426" lon="9.245081869885324">
<ele>216</ele>
<time>2024-05-09T14:02:26Z</time>
</trkpt>
<trkpt lat="49.61661145091057" lon="9.245075164362788">
<ele>216</ele>
<time>2024-05-09T14:02:27Z</time>
</trkpt>
<trkpt lat="49.61656568571925" lon="9.24507139250636">
<ele>215.8</ele>
<time>2024-05-09T14:02:28Z</time>
</trkpt>
<trkpt lat="49.616519920527935" lon="9.24507038667798">
<ele>215.8</ele>
<time>2024-05-09T14:02:29Z</time>
</trkpt>
<trkpt lat="49.616477927193046" lon="9.24507038667798">
<ele>215.8</ele>
<time>2024-05-09T14:02:30Z</time>
</trkpt>
<trkpt lat="49.61643593385816" lon="9.245075164362788">
<ele>215.8</ele>
<time>2024-05-09T14:02:31Z</time>
</trkpt>
<trkpt lat="49.61639016866684" lon="9.245082791894674">
<ele>216</ele>
<time>2024-05-09T14:02:32Z</time>
</trkpt>
<trkpt lat="49.61634825915098" lon="9.24509326927364">
<ele>216</ele>
<time>2024-05-09T14:02:33Z</time>
</trkpt>
<trkpt lat="49.616302410140634" lon="9.245106680318711">
<ele>216.2</ele>
<time>2024-05-09T14:02:34Z</time>
</trkpt>
<trkpt lat="49.61625664494932" lon="9.245122857391834">
<ele>216.2</ele>
<time>2024-05-09T14:02:35Z</time>
</trkpt>
<trkpt lat="49.616210879758" lon="9.245141968131064">
<ele>216.4</ele>
<time>2024-05-09T14:02:36Z</time>
</trkpt>
<trkpt lat="49.61616511456669" lon="9.245162922888994">
<ele>216.6</ele>
<time>2024-05-09T14:02:37Z</time>
</trkpt>
<trkpt lat="49.616123121231794" lon="9.245186727494">
<ele>216.8</ele>
<time>2024-05-09T14:02:38Z</time>
</trkpt>
<trkpt lat="49.61607735604048" lon="9.24521346576512">
<ele>217</ele>
<time>2024-05-09T14:02:39Z</time>
</trkpt>
<trkpt lat="49.61603544652462" lon="9.245240204036236">
<ele>217.2</ele>
<time>2024-05-09T14:02:40Z</time>
</trkpt>
<trkpt lat="49.61599345318973" lon="9.2452697083354">
<ele>217.4</ele>
<time>2024-05-09T14:02:41Z</time>
</trkpt>
<trkpt lat="49.6159553155303" lon="9.245298374444246">
<ele>217.6</ele>
<time>2024-05-09T14:02:42Z</time>
</trkpt>
<trkpt lat="49.61591332219541" lon="9.245320251211524">
<ele>217.8</ele>
<time>2024-05-09T14:02:43Z</time>
</trkpt>
<trkpt lat="49.61587904021144" lon="9.245345061644912">
<ele>218</ele>
<time>2024-05-09T14:02:44Z</time>
</trkpt>
<trkpt lat="49.615848530083895" lon="9.24536702223122">
<ele>218.2</ele>
<time>2024-05-09T14:02:45Z</time>
</trkpt>
<trkpt lat="49.61581801995635" lon="9.245393676683308">
<ele>218.2</ele>
<time>2024-05-09T14:02:46Z</time>
</trkpt>
<trkpt lat="49.615787426009774" lon="9.245418487116694">
<ele>218.4</ele>
<time>2024-05-09T14:02:47Z</time>
</trkpt>
<trkpt lat="49.6157531440258" lon="9.245443297550082">
<ele>218.4</ele>
<time>2024-05-09T14:02:48Z</time>
</trkpt>
<trkpt lat="49.615726405754685" lon="9.245465258136392">
<ele>218.6</ele>
<time>2024-05-09T14:02:49Z</time>
</trkpt>
<trkpt lat="49.6156997513026" lon="9.245485290884972">
<ele>218.6</ele>
<time>2024-05-09T14:02:50Z</time>
</trkpt>
<trkpt lat="49.61567686870694" lon="9.245503395795822">
<ele>218.8</ele>
<time>2024-05-09T14:02:51Z</time>
</trkpt>
<trkpt lat="49.61566161364317" lon="9.245516723021863">
<ele>218.8</ele>
<time>2024-05-09T14:02:52Z</time>
</trkpt>
<trkpt lat="49.61565398611128" lon="9.245521500706673">
<ele>218.8</ele>
<time>2024-05-09T14:02:53Z</time>
</trkpt>
<trkpt lat="49.6156463585794" lon="9.24552627839148">
<ele>218.8</ele>
<time>2024-05-09T14:02:54Z</time>
</trkpt>
<trkpt lat="49.6156463585794" lon="9.245530050247908">
<ele>218.8</ele>
<time>2024-05-09T14:02:55Z</time>
</trkpt>
<trkpt lat="49.6156463585794" lon="9.24552820622921">
<ele>218.8</ele>
<time>2024-05-09T14:02:56Z</time>
</trkpt>
<trkpt lat="49.61564250290394" lon="9.245530050247908">
<ele>218.8</ele>
<time>2024-05-09T14:02:57Z</time>
</trkpt>
<trkpt lat="49.61563873104751" lon="9.245530050247908">
<ele>218.8</ele>
<time>2024-05-09T14:02:58Z</time>
</trkpt>
<trkpt lat="49.61563873104751" lon="9.245531978085635">
<ele>218.8</ele>
<time>2024-05-09T14:02:59Z</time>
</trkpt>
<trkpt lat="49.61563487537205" lon="9.245531978085635">
<ele>218.6</ele>
<time>2024-05-09T14:03:00Z</time>
</trkpt>
<trkpt lat="49.61563487537205" lon="9.245532983914018">
<ele>218.6</ele>
<time>2024-05-09T14:03:01Z</time>
</trkpt>
<trkpt lat="49.61563487537205" lon="9.245534827932715">
<ele>218.6</ele>
<time>2024-05-09T14:03:05Z</time>
</trkpt>
<trkpt lat="49.61563487537205" lon="9.245532983914018">
<ele>218.4</ele>
<time>2024-05-09T14:03:17Z</time>
</trkpt>
<trkpt lat="49.61563487537205" lon="9.245534827932715">
<ele>218.2</ele>
<time>2024-05-09T14:03:31Z</time>
</trkpt>
<trkpt lat="49.61563487537205" lon="9.245536755770445">
<ele>218</ele>
<time>2024-05-09T14:03:33Z</time>
</trkpt>
<trkpt lat="49.61563487537205" lon="9.245538683608174">
<ele>217.8</ele>
<time>2024-05-09T14:03:36Z</time>
</trkpt>
<trkpt lat="49.61563487537205" lon="9.245539605617523">
<ele>217.6</ele>
<time>2024-05-09T14:03:39Z</time>
</trkpt>
<trkpt lat="49.61563487537205" lon="9.245541533455253">
<ele>217.2</ele>
<time>2024-05-09T14:03:41Z</time>
</trkpt>
<trkpt lat="49.61563487537205" lon="9.245543461292982">
<ele>217</ele>
<time>2024-05-09T14:03:44Z</time>
</trkpt>
<trkpt lat="49.61563487537205" lon="9.24554530531168">
<ele>216.8</ele>
<time>2024-05-09T14:03:46Z</time>
</trkpt>
<trkpt lat="49.61563487537205" lon="9.24554631114006">
<ele>216.8</ele>
<time>2024-05-09T14:03:50Z</time>
</trkpt>
<trkpt lat="49.61563487537205" lon="9.24554530531168">
<ele>216.6</ele>
<time>2024-05-09T14:03:56Z</time>
</trkpt>
<trkpt lat="49.61563487537205" lon="9.24554631114006">
<ele>216.4</ele>
<time>2024-05-09T14:04:03Z</time>
</trkpt>
<trkpt lat="49.61563487537205" lon="9.24554530531168">
<ele>216.4</ele>
<time>2024-05-09T14:04:10Z</time>
</trkpt>
<trkpt lat="49.61563487537205" lon="9.245543461292982">
<ele>216.4</ele>
<time>2024-05-09T14:04:19Z</time>
</trkpt>
<trkpt lat="49.61563487537205" lon="9.245541533455253">
<ele>216.4</ele>
<time>2024-05-09T14:04:21Z</time>
</trkpt>
<trkpt lat="49.61563487537205" lon="9.245539605617523">
<ele>216.4</ele>
<time>2024-05-09T14:04:23Z</time>
</trkpt>
<trkpt lat="49.61563487537205" lon="9.245538683608174">
<ele>216.4</ele>
<time>2024-05-09T14:04:26Z</time>
</trkpt>
<trkpt lat="49.61563487537205" lon="9.245536755770445">
<ele>216.4</ele>
<time>2024-05-09T14:04:28Z</time>
</trkpt>
<trkpt lat="49.61563487537205" lon="9.245534827932715">
<ele>216.6</ele>
<time>2024-05-09T14:04:29Z</time>
</trkpt>
<trkpt lat="49.61563487537205" lon="9.245532983914018">
<ele>216.6</ele>
<time>2024-05-09T14:04:32Z</time>
</trkpt>
<trkpt lat="49.615631103515625" lon="9.245534827932715">
<ele>216.8</ele>
<time>2024-05-09T14:04:37Z</time>
</trkpt>
<trkpt lat="49.615631103515625" lon="9.245532983914018">
<ele>217</ele>
<time>2024-05-09T14:04:38Z</time>
</trkpt>
<trkpt lat="49.615631103515625" lon="9.245531978085635">
<ele>217.2</ele>
<time>2024-05-09T14:04:40Z</time>
</trkpt>
<trkpt lat="49.615631103515625" lon="9.245532983914018">
<ele>217.2</ele>
<time>2024-05-09T14:04:41Z</time>
</trkpt>
<trkpt lat="49.615631103515625" lon="9.245530050247908">
<ele>217.4</ele>
<time>2024-05-09T14:04:42Z</time>
</trkpt>
<trkpt lat="49.615631103515625" lon="9.245531978085635">
<ele>217.6</ele>
<time>2024-05-09T14:04:45Z</time>
</trkpt>
<trkpt lat="49.615631103515625" lon="9.245530050247908">
<ele>217.6</ele>
<time>2024-05-09T14:04:48Z</time>
</trkpt>
<trkpt lat="49.615631103515625" lon="9.245531978085635">
<ele>217.8</ele>
<time>2024-05-09T14:04:49Z</time>
</trkpt>
<trkpt lat="49.615631103515625" lon="9.245532983914018">
<ele>218</ele>
<time>2024-05-09T14:04:50Z</time>
</trkpt>
<trkpt lat="49.615631103515625" lon="9.245531978085635">
<ele>218</ele>
<time>2024-05-09T14:04:51Z</time>
</trkpt>
<trkpt lat="49.615631103515625" lon="9.245530050247908">
<ele>218.2</ele>
<time>2024-05-09T14:04:53Z</time>
</trkpt>
<trkpt lat="49.615627247840166" lon="9.245530050247908">
<ele>218.2</ele>
<time>2024-05-09T14:04:59Z</time>
</trkpt>
<trkpt lat="49.615627247840166" lon="9.24552820622921">
<ele>218.4</ele>
<time>2024-05-09T14:05:01Z</time>
</trkpt>
<trkpt lat="49.615627247840166" lon="9.24552627839148">
<ele>218.4</ele>
<time>2024-05-09T14:05:02Z</time>
</trkpt>
<trkpt lat="49.615627247840166" lon="9.245525356382132">
<ele>218.4</ele>
<time>2024-05-09T14:05:06Z</time>
</trkpt>
<trkpt lat="49.615627247840166" lon="9.24552627839148">
<ele>218.4</ele>
<time>2024-05-09T14:05:10Z</time>
</trkpt>
<trkpt lat="49.615627247840166" lon="9.245525356382132">
<ele>218.6</ele>
<time>2024-05-09T14:05:12Z</time>
</trkpt>
<trkpt lat="49.615627247840166" lon="9.24552627839148">
<ele>218.6</ele>
<time>2024-05-09T14:05:13Z</time>
</trkpt>
<trkpt lat="49.615627247840166" lon="9.24552820622921">
<ele>218.6</ele>
<time>2024-05-09T14:05:14Z</time>
</trkpt>
<trkpt lat="49.615627247840166" lon="9.24552627839148">
<ele>218.6</ele>
<time>2024-05-09T14:05:15Z</time>
</trkpt>
<trkpt lat="49.615627247840166" lon="9.24552820622921">
<ele>218.6</ele>
<time>2024-05-09T14:05:16Z</time>
</trkpt>
<trkpt lat="49.615627247840166" lon="9.245530050247908">
<ele>218.6</ele>
<time>2024-05-09T14:05:18Z</time>
</trkpt>
<trkpt lat="49.615627247840166" lon="9.245531978085635">
<ele>218.6</ele>
<time>2024-05-09T14:05:22Z</time>
</trkpt>
<trkpt lat="49.61562339216471" lon="9.245530050247908">
<ele>218.6</ele>
<time>2024-05-09T14:05:24Z</time>
</trkpt>
<trkpt lat="49.61561576463282" lon="9.245536755770445">
<ele>218.6</ele>
<time>2024-05-09T14:05:25Z</time>
</trkpt>
<trkpt lat="49.615608137100935" lon="9.245541533455253">
<ele>218.6</ele>
<time>2024-05-09T14:05:26Z</time>
</trkpt>
<trkpt lat="49.61559673771262" lon="9.24554823897779">
<ele>218.6</ele>
<time>2024-05-09T14:05:27Z</time>
</trkpt>
<trkpt lat="49.61557762697339" lon="9.245588220655918">
<ele>218.6</ele>
<time>2024-05-09T14:05:28Z</time>
</trkpt>
<trkpt lat="49.61555860005319" lon="9.245613031089306">
<ele>218.6</ele>
<time>2024-05-09T14:05:29Z</time>
</trkpt>
<trkpt lat="49.61554334498942" lon="9.245633063837886">
<ele>218.8</ele>
<time>2024-05-09T14:05:30Z</time>
</trkpt>
<trkpt lat="49.61552808992565" lon="9.245650246739388">
<ele>218.8</ele>
<time>2024-05-09T14:05:31Z</time>
</trkpt>
<trkpt lat="49.615508979186416" lon="9.245673129335046">
<ele>218.6</ele>
<time>2024-05-09T14:05:32Z</time>
</trkpt>
<trkpt lat="49.615489952266216" lon="9.245686456561089">
<ele>218.6</ele>
<time>2024-05-09T14:05:33Z</time>
</trkpt>
<trkpt lat="49.615470841526985" lon="9.245710344985127">
<ele>218.8</ele>
<time>2024-05-09T14:05:34Z</time>
</trkpt>
<trkpt lat="49.615451730787754" lon="9.245736999437211">
<ele>218.8</ele>
<time>2024-05-09T14:05:35Z</time>
</trkpt>
<trkpt lat="49.615428848192096" lon="9.24576465971768">
<ele>218.8</ele>
<time>2024-05-09T14:05:36Z</time>
</trkpt>
<trkpt lat="49.61540219374001" lon="9.245795169845223">
<ele>219</ele>
<time>2024-05-09T14:05:37Z</time>
</trkpt>
<trkpt lat="49.61537545546889" lon="9.24582283012569">
<ele>219.2</ele>
<time>2024-05-09T14:05:38Z</time>
</trkpt>
<trkpt lat="49.615352572873235" lon="9.245851496234536">
<ele>219.4</ele>
<time>2024-05-09T14:05:39Z</time>
</trkpt>
<trkpt lat="49.615329690277576" lon="9.24588200636208">
<ele>219.6</ele>
<time>2024-05-09T14:05:40Z</time>
</trkpt>
<trkpt lat="49.61530303582549" lon="9.245911594480276">
<ele>219.6</ele>
<time>2024-05-09T14:05:41Z</time>
</trkpt>
<trkpt lat="49.6152800694108" lon="9.245946882292628">
<ele>219.8</ele>
<time>2024-05-09T14:05:42Z</time>
</trkpt>
<trkpt lat="49.615253414958715" lon="9.2459811642766">
<ele>220</ele>
<time>2024-05-09T14:05:43Z</time>
</trkpt>
<trkpt lat="49.61523053236306" lon="9.246018379926682">
<ele>220</ele>
<time>2024-05-09T14:05:44Z</time>
</trkpt>
<trkpt lat="49.61520379409194" lon="9.246054589748384">
<ele>220</ele>
<time>2024-05-09T14:05:45Z</time>
</trkpt>
<trkpt lat="49.61518091149628" lon="9.246093733236194">
<ele>220.2</ele>
<time>2024-05-09T14:05:46Z</time>
</trkpt>
<trkpt lat="49.61515425704419" lon="9.246134720742702">
<ele>220.4</ele>
<time>2024-05-09T14:05:47Z</time>
</trkpt>
<trkpt lat="49.61512374691665" lon="9.246172858402131">
<ele>220.6</ele>
<time>2024-05-09T14:05:48Z</time>
</trkpt>
<trkpt lat="49.61509315297008" lon="9.24621669575572">
<ele>220.8</ele>
<time>2024-05-09T14:05:49Z</time>
</trkpt>
<trkpt lat="49.61506264284253" lon="9.24625868909061">
<ele>220.8</ele>
<time>2024-05-09T14:05:50Z</time>
</trkpt>
<trkpt lat="49.61503213271499" lon="9.246299676597118">
<ele>221</ele>
<time>2024-05-09T14:05:51Z</time>
</trkpt>
<trkpt lat="49.61500162258744" lon="9.246341669932008">
<ele>221</ele>
<time>2024-05-09T14:05:52Z</time>
</trkpt>
<trkpt lat="49.61497496813536" lon="9.246377879753709">
<ele>221</ele>
<time>2024-05-09T14:05:53Z</time>
</trkpt>
<trkpt lat="49.614940602332354" lon="9.24641509540379">
<ele>221</ele>
<time>2024-05-09T14:05:54Z</time>
</trkpt>
<trkpt lat="49.61491009220481" lon="9.246451305225492">
<ele>221</ele>
<time>2024-05-09T14:05:55Z</time>
</trkpt>
<trkpt lat="49.614879582077265" lon="9.246488520875571">
<ele>221</ele>
<time>2024-05-09T14:05:56Z</time>
</trkpt>
<trkpt lat="49.61484521627426" lon="9.246522886678576">
<ele>221.2</ele>
<time>2024-05-09T14:05:57Z</time>
</trkpt>
<trkpt lat="49.61481470614672" lon="9.24655532464385">
<ele>221.2</ele>
<time>2024-05-09T14:05:58Z</time>
</trkpt>
<trkpt lat="49.61477656848729" lon="9.246582984924316">
<ele>221.2</ele>
<time>2024-05-09T14:05:59Z</time>
</trkpt>
<trkpt lat="49.61474605835974" lon="9.24661349505186">
<ele>221.4</ele>
<time>2024-05-09T14:06:00Z</time>
</trkpt>
<trkpt lat="49.61471169255674" lon="9.246642999351025">
<ele>221.4</ele>
<time>2024-05-09T14:06:01Z</time>
</trkpt>
<trkpt lat="49.61467741057277" lon="9.246667809784412">
<ele>221.6</ele>
<time>2024-05-09T14:06:02Z</time>
</trkpt>
<trkpt lat="49.61463927291334" lon="9.246693542227147">
<ele>221.6</ele>
<time>2024-05-09T14:06:03Z</time>
</trkpt>
<trkpt lat="49.61460490711033" lon="9.246718352660537">
<ele>221.6</ele>
<time>2024-05-09T14:06:04Z</time>
</trkpt>
<trkpt lat="49.6145667694509" lon="9.246740313246846">
<ele>221.6</ele>
<time>2024-05-09T14:06:05Z</time>
</trkpt>
<trkpt lat="49.61452477611601" lon="9.246758418157697">
<ele>221.6</ele>
<time>2024-05-09T14:06:06Z</time>
</trkpt>
<trkpt lat="49.6144790109247" lon="9.246773673221467">
<ele>221.8</ele>
<time>2024-05-09T14:06:07Z</time>
</trkpt>
<trkpt lat="49.61443324573338" lon="9.246788006275892">
<ele>221.8</ele>
<time>2024-05-09T14:06:08Z</time>
</trkpt>
<trkpt lat="49.614387480542064" lon="9.246801333501937">
<ele>221.8</ele>
<time>2024-05-09T14:06:09Z</time>
</trkpt>
<trkpt lat="49.61433785967529" lon="9.246816588565707">
<ele>221.6</ele>
<time>2024-05-09T14:06:10Z</time>
</trkpt>
<trkpt lat="49.614288322627544" lon="9.246827065944672">
<ele>221.6</ele>
<time>2024-05-09T14:06:11Z</time>
</trkpt>
<trkpt lat="49.61423484608531" lon="9.246833771467209">
<ele>221.6</ele>
<time>2024-05-09T14:06:12Z</time>
</trkpt>
<trkpt lat="49.61418145336211" lon="9.246845170855522">
<ele>221.6</ele>
<time>2024-05-09T14:06:13Z</time>
</trkpt>
<trkpt lat="49.614128060638905" lon="9.246856654062867">
<ele>221.6</ele>
<time>2024-05-09T14:06:14Z</time>
</trkpt>
<trkpt lat="49.61407843977213" lon="9.24686805345118">
<ele>221.4</ele>
<time>2024-05-09T14:06:15Z</time>
</trkpt>
<trkpt lat="49.614025047048926" lon="9.246881464496257">
<ele>221.4</ele>
<time>2024-05-09T14:06:16Z</time>
</trkpt>
<trkpt lat="49.61397551000118" lon="9.246892863884568">
<ele>221.4</ele>
<time>2024-05-09T14:06:17Z</time>
</trkpt>
<trkpt lat="49.61392588913441" lon="9.246905269101262">
<ele>221.4</ele>
<time>2024-05-09T14:06:18Z</time>
</trkpt>
<trkpt lat="49.6138724964112" lon="9.246914824470878">
<ele>221.2</ele>
<time>2024-05-09T14:06:19Z</time>
</trkpt>
<trkpt lat="49.613819103688" lon="9.246923374012113">
<ele>221</ele>
<time>2024-05-09T14:06:20Z</time>
</trkpt>
<trkpt lat="49.6137657109648" lon="9.246934857219458">
<ele>220.8</ele>
<time>2024-05-09T14:06:21Z</time>
</trkpt>
<trkpt lat="49.613712234422565" lon="9.246945334598422">
<ele>220.4</ele>
<time>2024-05-09T14:06:22Z</time>
</trkpt>
<trkpt lat="49.613655069842935" lon="9.246958661824465">
<ele>220.4</ele>
<time>2024-05-09T14:06:23Z</time>
</trkpt>
<trkpt lat="49.61360167711973" lon="9.24697207286954">
<ele>220.2</ele>
<time>2024-05-09T14:06:24Z</time>
</trkpt>
<trkpt lat="49.61354442872107" lon="9.246985400095582">
<ele>220</ele>
<time>2024-05-09T14:06:25Z</time>
</trkpt>
<trkpt lat="49.61348340846598" lon="9.247001577168705">
<ele>220</ele>
<time>2024-05-09T14:06:26Z</time>
</trkpt>
<trkpt lat="49.61342616006732" lon="9.247019765898584">
<ele>220</ele>
<time>2024-05-09T14:06:27Z</time>
</trkpt>
<trkpt lat="49.61336891166866" lon="9.247043570503592">
<ele>220</ele>
<time>2024-05-09T14:06:28Z</time>
</trkpt>
<trkpt lat="49.61330789141357" lon="9.24707030877471">
<ele>220</ele>
<time>2024-05-09T14:06:29Z</time>
</trkpt>
<trkpt lat="49.61324687115848" lon="9.247096963226795">
<ele>220</ele>
<time>2024-05-09T14:06:30Z</time>
</trkpt>
<trkpt lat="49.61318585090339" lon="9.24712462350726">
<ele>220</ele>
<time>2024-05-09T14:06:31Z</time>
</trkpt>
<trkpt lat="49.6131248306483" lon="9.247157983481884">
<ele>220</ele>
<time>2024-05-09T14:06:32Z</time>
</trkpt>
<trkpt lat="49.613059954717755" lon="9.247191427275538">
<ele>220</ele>
<time>2024-05-09T14:06:33Z</time>
</trkpt>
<trkpt lat="49.61299893446267" lon="9.247228559106588">
<ele>219.8</ele>
<time>2024-05-09T14:06:34Z</time>
</trkpt>
<trkpt lat="49.61293791420758" lon="9.24726485274732">
<ele>219.6</ele>
<time>2024-05-09T14:06:35Z</time>
</trkpt>
<trkpt lat="49.61287681013346" lon="9.247301984578373">
<ele>219.4</ele>
<time>2024-05-09T14:06:36Z</time>
</trkpt>
<trkpt lat="49.61281578987837" lon="9.247338278219104">
<ele>219.4</ele>
<time>2024-05-09T14:06:37Z</time>
</trkpt>
<trkpt lat="49.61275476962328" lon="9.247374488040805">
<ele>219.2</ele>
<time>2024-05-09T14:06:38Z</time>
</trkpt>
<trkpt lat="49.61269374936819" lon="9.247411703690886">
<ele>219.2</ele>
<time>2024-05-09T14:06:39Z</time>
</trkpt>
<trkpt lat="49.61263650096953" lon="9.247447913512588">
<ele>219.2</ele>
<time>2024-05-09T14:06:40Z</time>
</trkpt>
<trkpt lat="49.61257548071444" lon="9.24748512916267">
<ele>219</ele>
<time>2024-05-09T14:06:41Z</time>
</trkpt>
<trkpt lat="49.61251823231578" lon="9.24752041697502">
<ele>219</ele>
<time>2024-05-09T14:06:42Z</time>
</trkpt>
<trkpt lat="49.612464839592576" lon="9.247552854940295">
<ele>219</ele>
<time>2024-05-09T14:06:43Z</time>
</trkpt>
<trkpt lat="49.612407675012946" lon="9.247585292905567">
<ele>218.8</ele>
<time>2024-05-09T14:06:44Z</time>
</trkpt>
<trkpt lat="49.612350426614285" lon="9.24761957488954">
<ele>218.8</ele>
<time>2024-05-09T14:06:45Z</time>
</trkpt>
<trkpt lat="49.61229317821562" lon="9.247654862701893">
<ele>218.6</ele>
<time>2024-05-09T14:06:46Z</time>
</trkpt>
<trkpt lat="49.61223978549242" lon="9.247688222676516">
<ele>218.6</ele>
<time>2024-05-09T14:06:47Z</time>
</trkpt>
<trkpt lat="49.61218639276922" lon="9.247724516317248">
<ele>218.4</ele>
<time>2024-05-09T14:06:48Z</time>
</trkpt>
<trkpt lat="49.61213677190244" lon="9.247764581814408">
<ele>218.4</ele>
<time>2024-05-09T14:06:49Z</time>
</trkpt>
<trkpt lat="49.61208337917924" lon="9.247803641483188">
<ele>218.4</ele>
<time>2024-05-09T14:06:50Z</time>
</trkpt>
<trkpt lat="49.61202998645604" lon="9.247841779142618">
<ele>218.4</ele>
<time>2024-05-09T14:06:51Z</time>
</trkpt>
<trkpt lat="49.61198036558926" lon="9.247879916802049">
<ele>218.2</ele>
<time>2024-05-09T14:06:52Z</time>
</trkpt>
<trkpt lat="49.61192697286606" lon="9.24791621044278">
<ele>218.2</ele>
<time>2024-05-09T14:06:53Z</time>
</trkpt>
<trkpt lat="49.61186980828643" lon="9.247951498255134">
<ele>218.2</ele>
<time>2024-05-09T14:06:54Z</time>
</trkpt>
<trkpt lat="49.61182018741965" lon="9.247989635914564">
<ele>218.2</ele>
<time>2024-05-09T14:06:55Z</time>
</trkpt>
<trkpt lat="49.61177056655288" lon="9.248031545430422">
<ele>218.2</ele>
<time>2024-05-09T14:06:56Z</time>
</trkpt>
<trkpt lat="49.611721029505134" lon="9.248071610927582">
<ele>218.2</ele>
<time>2024-05-09T14:06:57Z</time>
</trkpt>
<trkpt lat="49.61167140863836" lon="9.248109748587012">
<ele>218.2</ele>
<time>2024-05-09T14:06:58Z</time>
</trkpt>
<trkpt lat="49.611618015915155" lon="9.248146964237094">
<ele>218.2</ele>
<time>2024-05-09T14:06:59Z</time>
</trkpt>
<trkpt lat="49.61156462319195" lon="9.248185101896524">
<ele>218.2</ele>
<time>2024-05-09T14:07:00Z</time>
</trkpt>
<trkpt lat="49.61151500232518" lon="9.248223239555957">
<ele>218.4</ele>
<time>2024-05-09T14:07:01Z</time>
</trkpt>
<trkpt lat="49.6114653814584" lon="9.248261377215384">
<ele>218.4</ele>
<time>2024-05-09T14:07:02Z</time>
</trkpt>
<trkpt lat="49.6114119887352" lon="9.248299598693848">
<ele>218.4</ele>
<time>2024-05-09T14:07:03Z</time>
</trkpt>
<trkpt lat="49.611362451687455" lon="9.248339580371976">
<ele>218.4</ele>
<time>2024-05-09T14:07:04Z</time>
</trkpt>
<trkpt lat="49.61130897514522" lon="9.248374868184328">
<ele>218.4</ele>
<time>2024-05-09T14:07:05Z</time>
</trkpt>
<trkpt lat="49.61125943809748" lon="9.248414933681488">
<ele>218.6</ele>
<time>2024-05-09T14:07:06Z</time>
</trkpt>
<trkpt lat="49.6112098172307" lon="9.248457849025726">
<ele>218.6</ele>
<time>2024-05-09T14:07:07Z</time>
</trkpt>
<trkpt lat="49.611164052039385" lon="9.248501770198343">
<ele>218.6</ele>
<time>2024-05-09T14:07:08Z</time>
</trkpt>
<trkpt lat="49.61111828684807" lon="9.24854652956128">
<ele>218.6</ele>
<time>2024-05-09T14:07:09Z</time>
</trkpt>
<trkpt lat="49.611064894124866" lon="9.24858852289617">
<ele>218.6</ele>
<time>2024-05-09T14:07:10Z</time>
</trkpt>
<trkpt lat="49.61101527325809" lon="9.24862858839333">
<ele>218.8</ele>
<time>2024-05-09T14:07:11Z</time>
</trkpt>
<trkpt lat="49.610965652391315" lon="9.24866957589984">
<ele>218.8</ele>
<time>2024-05-09T14:07:12Z</time>
</trkpt>
<trkpt lat="49.6109198872" lon="9.248711569234729">
<ele>219</ele>
<time>2024-05-09T14:07:13Z</time>
</trkpt>
<trkpt lat="49.610870350152254" lon="9.248751634731889">
<ele>219.2</ele>
<time>2024-05-09T14:07:14Z</time>
</trkpt>
<trkpt lat="49.61082458496094" lon="9.248791616410015">
<ele>219.4</ele>
<time>2024-05-09T14:07:15Z</time>
</trkpt>
<trkpt lat="49.61077873595059" lon="9.248831681907175">
<ele>219.6</ele>
<time>2024-05-09T14:07:16Z</time>
</trkpt>
<trkpt lat="49.610729198902845" lon="9.248865125700831">
<ele>219.8</ele>
<time>2024-05-09T14:07:17Z</time>
</trkpt>
<trkpt lat="49.61067957803607" lon="9.248889852315187">
<ele>219.8</ele>
<time>2024-05-09T14:07:18Z</time>
</trkpt>
<trkpt lat="49.61063381284475" lon="9.248916590586305">
<ele>219.8</ele>
<time>2024-05-09T14:07:19Z</time>
</trkpt>
<trkpt lat="49.61058804765344" lon="9.24894517287612">
<ele>220</ele>
<time>2024-05-09T14:07:20Z</time>
</trkpt>
<trkpt lat="49.61054605431855" lon="9.248972833156586">
<ele>220.2</ele>
<time>2024-05-09T14:07:21Z</time>
</trkpt>
<trkpt lat="49.6104965172708" lon="9.249001499265432">
<ele>220.4</ele>
<time>2024-05-09T14:07:22Z</time>
</trkpt>
<trkpt lat="49.610454523935914" lon="9.249030081555247">
<ele>220.6</ele>
<time>2024-05-09T14:07:23Z</time>
</trkpt>
<trkpt lat="49.61040490306914" lon="9.249059669673445">
<ele>220.8</ele>
<time>2024-05-09T14:07:24Z</time>
</trkpt>
<trkpt lat="49.61035913787782" lon="9.249088251963258">
<ele>221.2</ele>
<time>2024-05-09T14:07:25Z</time>
</trkpt>
<trkpt lat="49.61030960083008" lon="9.249114990234377">
<ele>221.4</ele>
<time>2024-05-09T14:07:26Z</time>
</trkpt>
<trkpt lat="49.6102599799633" lon="9.249137872830032">
<ele>221.6</ele>
<time>2024-05-09T14:07:27Z</time>
</trkpt>
<trkpt lat="49.61021035909653" lon="9.249159749597313">
<ele>221.8</ele>
<time>2024-05-09T14:07:28Z</time>
</trkpt>
<trkpt lat="49.61016082204878" lon="9.249177854508162">
<ele>222</ele>
<time>2024-05-09T14:07:29Z</time>
</trkpt>
<trkpt lat="49.61011120118201" lon="9.249199815094473">
<ele>222</ele>
<time>2024-05-09T14:07:30Z</time>
</trkpt>
<trkpt lat="49.610053952783346" lon="9.249219847843053">
<ele>222.2</ele>
<time>2024-05-09T14:07:31Z</time>
</trkpt>
<trkpt lat="49.61000056006014" lon="9.2492379527539">
<ele>222.2</ele>
<time>2024-05-09T14:07:32Z</time>
</trkpt>
<trkpt lat="49.60994331166148" lon="9.249255135655403">
<ele>222.4</ele>
<time>2024-05-09T14:07:33Z</time>
</trkpt>
<trkpt lat="49.60988614708185" lon="9.249268462881446">
<ele>222.6</ele>
<time>2024-05-09T14:07:34Z</time>
</trkpt>
<trkpt lat="49.60982512682676" lon="9.24928187392652">
<ele>222.8</ele>
<time>2024-05-09T14:07:35Z</time>
</trkpt>
<trkpt lat="49.60976402275264" lon="9.249293273314834">
<ele>222.8</ele>
<time>2024-05-09T14:07:36Z</time>
</trkpt>
<trkpt lat="49.60969923064113" lon="9.24930475652218">
<ele>222.8</ele>
<time>2024-05-09T14:07:37Z</time>
</trkpt>
<trkpt lat="49.60963435471058" lon="9.249313306063414">
<ele>222.8</ele>
<time>2024-05-09T14:07:38Z</time>
</trkpt>
<trkpt lat="49.6095657069236" lon="9.24932286143303">
<ele>222.8</ele>
<time>2024-05-09T14:07:39Z</time>
</trkpt>
<trkpt lat="49.60949705913663" lon="9.249329566955566">
<ele>222.8</ele>
<time>2024-05-09T14:07:40Z</time>
</trkpt>
<trkpt lat="49.60942832753062" lon="9.249335266649725">
<ele>222.8</ele>
<time>2024-05-09T14:07:41Z</time>
</trkpt>
<trkpt lat="49.60935590788722" lon="9.2493381164968">
<ele>222.6</ele>
<time>2024-05-09T14:07:42Z</time>
</trkpt>
<trkpt lat="49.60928340442479" lon="9.24934289418161">
<ele>222.6</ele>
<time>2024-05-09T14:07:43Z</time>
</trkpt>
<trkpt lat="49.609207129105926" lon="9.249346666038036">
<ele>222.6</ele>
<time>2024-05-09T14:07:44Z</time>
</trkpt>
<trkpt lat="49.609130853787065" lon="9.249349515885116">
<ele>222.6</ele>
<time>2024-05-09T14:07:45Z</time>
</trkpt>
<trkpt lat="49.60905449464917" lon="9.249353371560574">
<ele>222.6</ele>
<time>2024-05-09T14:07:46Z</time>
</trkpt>
<trkpt lat="49.60897821933031" lon="9.249356221407652">
<ele>222.4</ele>
<time>2024-05-09T14:07:47Z</time>
</trkpt>
<trkpt lat="49.60890194401145" lon="9.249353371560574">
<ele>222.4</ele>
<time>2024-05-09T14:07:48Z</time>
</trkpt>
<trkpt lat="49.60882566869259" lon="9.249348593875766">
<ele>222.6</ele>
<time>2024-05-09T14:07:49Z</time>
</trkpt>
<trkpt lat="49.608749309554696" lon="9.24934482201934">
<ele>222.6</ele>
<time>2024-05-09T14:07:50Z</time>
</trkpt>
<trkpt lat="49.60866926237941" lon="9.24934289418161">
<ele>222.4</ele>
<time>2024-05-09T14:07:51Z</time>
</trkpt>
<trkpt lat="49.60859298706055" lon="9.2493381164968">
<ele>222.4</ele>
<time>2024-05-09T14:07:52Z</time>
</trkpt>
<trkpt lat="49.60851285606623" lon="9.249329566955566">
<ele>222.2</ele>
<time>2024-05-09T14:07:53Z</time>
</trkpt>
<trkpt lat="49.608436580747366" lon="9.249316155910492">
<ele>222</ele>
<time>2024-05-09T14:07:54Z</time>
</trkpt>
<trkpt lat="49.608356449753046" lon="9.24930475652218">
<ele>221.8</ele>
<time>2024-05-09T14:07:55Z</time>
</trkpt>
<trkpt lat="49.608280174434185" lon="9.249291345477104">
<ele>221.4</ele>
<time>2024-05-09T14:07:56Z</time>
</trkpt>
<trkpt lat="49.60820381529629" lon="9.249277096241713">
<ele>221</ele>
<time>2024-05-09T14:07:57Z</time>
</trkpt>
<trkpt lat="49.60812753997743" lon="9.24926184117794">
<ele>220.8</ele>
<time>2024-05-09T14:07:58Z</time>
</trkpt>
<trkpt lat="49.608055036515" lon="9.24924180842936">
<ele>220.8</ele>
<time>2024-05-09T14:07:59Z</time>
</trkpt>
<trkpt lat="49.60798638872802" lon="9.24922177568078">
<ele>220.6</ele>
<time>2024-05-09T14:08:00Z</time>
</trkpt>
<trkpt lat="49.60791396908462" lon="9.2492017429322">
<ele>220.6</ele>
<time>2024-05-09T14:08:01Z</time>
</trkpt>
<trkpt lat="49.60784146562219" lon="9.24918171018362">
<ele>220.6</ele>
<time>2024-05-09T14:08:02Z</time>
</trkpt>
<trkpt lat="49.60777281783521" lon="9.24916452728212">
<ele>220.4</ele>
<time>2024-05-09T14:08:03Z</time>
</trkpt>
<trkpt lat="49.607704086229205" lon="9.249148350208998">
<ele>220.2</ele>
<time>2024-05-09T14:08:04Z</time>
</trkpt>
<trkpt lat="49.60763543844223" lon="9.249131167307496">
<ele>220.2</ele>
<time>2024-05-09T14:08:05Z</time>
</trkpt>
<trkpt lat="49.607570646330714" lon="9.249114990234377">
<ele>220</ele>
<time>2024-05-09T14:08:06Z</time>
</trkpt>
<trkpt lat="49.60750577040017" lon="9.249099651351573">
<ele>220</ele>
<time>2024-05-09T14:08:07Z</time>
</trkpt>
<trkpt lat="49.60744089446962" lon="9.249088251963258">
<ele>219.8</ele>
<time>2024-05-09T14:08:08Z</time>
</trkpt>
<trkpt lat="49.60737987421453" lon="9.249074924737217">
<ele>219.8</ele>
<time>2024-05-09T14:08:09Z</time>
</trkpt>
<trkpt lat="49.60731499828398" lon="9.2490653693676">
<ele>219.8</ele>
<time>2024-05-09T14:08:10Z</time>
</trkpt>
<trkpt lat="49.60725397802889" lon="9.249059669673445">
<ele>220</ele>
<time>2024-05-09T14:08:11Z</time>
</trkpt>
<trkpt lat="49.607192957773805" lon="9.249054891988637">
<ele>219.8</ele>
<time>2024-05-09T14:08:12Z</time>
</trkpt>
<trkpt lat="49.60713193751872" lon="9.249052042141557">
<ele>219.8</ele>
<time>2024-05-09T14:08:13Z</time>
</trkpt>
<trkpt lat="49.60707091726363" lon="9.249050114303827">
<ele>219.6</ele>
<time>2024-05-09T14:08:14Z</time>
</trkpt>
<trkpt lat="49.607013668864965" lon="9.249046258628368">
<ele>219.6</ele>
<time>2024-05-09T14:08:15Z</time>
</trkpt>
<trkpt lat="49.606956420466304" lon="9.24904533661902">
<ele>219.4</ele>
<time>2024-05-09T14:08:16Z</time>
</trkpt>
<trkpt lat="49.606895400211215" lon="9.249039636924865">
<ele>219.2</ele>
<time>2024-05-09T14:08:17Z</time>
</trkpt>
<trkpt lat="49.60683815181255" lon="9.249032931402326">
<ele>219</ele>
<time>2024-05-09T14:08:18Z</time>
</trkpt>
<trkpt lat="49.606777131557465" lon="9.24902530387044">
<ele>219</ele>
<time>2024-05-09T14:08:19Z</time>
</trkpt>
<trkpt lat="49.606719966977835" lon="9.249012898653746">
<ele>218.8</ele>
<time>2024-05-09T14:08:20Z</time>
</trkpt>
<trkpt lat="49.60666271857917" lon="9.24900334328413">
<ele>218.6</ele>
<time>2024-05-09T14:08:21Z</time>
</trkpt>
<trkpt lat="49.60660932585597" lon="9.248991943895817">
<ele>218.6</ele>
<time>2024-05-09T14:08:22Z</time>
</trkpt>
<trkpt lat="49.60655593313277" lon="9.248981466516852">
<ele>218.4</ele>
<time>2024-05-09T14:08:23Z</time>
</trkpt>
<trkpt lat="49.60650245659053" lon="9.248971911147237">
<ele>218.4</ele>
<time>2024-05-09T14:08:24Z</time>
</trkpt>
<trkpt lat="49.6064452920109" lon="9.248959505930545">
<ele>218.2</ele>
<time>2024-05-09T14:08:25Z</time>
</trkpt>
<trkpt lat="49.6063918992877" lon="9.248951878398657">
<ele>218.2</ele>
<time>2024-05-09T14:08:26Z</time>
</trkpt>
<trkpt lat="49.606338422745466" lon="9.248941401019692">
<ele>218.2</ele>
<time>2024-05-09T14:08:27Z</time>
</trkpt>
<trkpt lat="49.60628503002226" lon="9.248929917812347">
<ele>218.2</ele>
<time>2024-05-09T14:08:28Z</time>
</trkpt>
<trkpt lat="49.60623163729906" lon="9.248914662748575">
<ele>218.2</ele>
<time>2024-05-09T14:08:29Z</time>
</trkpt>
<trkpt lat="49.6061743889004" lon="9.248900413513184">
<ele>218</ele>
<time>2024-05-09T14:08:30Z</time>
</trkpt>
<trkpt lat="49.6061209961772" lon="9.248881302773952">
<ele>217.8</ele>
<time>2024-05-09T14:08:31Z</time>
</trkpt>
<trkpt lat="49.60607145912945" lon="9.248865125700831">
<ele>217.8</ele>
<time>2024-05-09T14:08:32Z</time>
</trkpt>
<trkpt lat="49.60601806640625" lon="9.248849786818027">
<ele>217.6</ele>
<time>2024-05-09T14:08:33Z</time>
</trkpt>
<trkpt lat="49.605964589864016" lon="9.248836459591985">
<ele>217.6</ele>
<time>2024-05-09T14:08:34Z</time>
</trkpt>
<trkpt lat="49.60591505281627" lon="9.248821204528213">
<ele>217.4</ele>
<time>2024-05-09T14:08:35Z</time>
</trkpt>
<trkpt lat="49.60586166009307" lon="9.24880787730217">
<ele>217.4</ele>
<time>2024-05-09T14:08:36Z</time>
</trkpt>
<trkpt lat="49.605808183550835" lon="9.248791616410015">
<ele>217.2</ele>
<time>2024-05-09T14:08:37Z</time>
</trkpt>
<trkpt lat="49.60575479082763" lon="9.24876781180501">
<ele>217.2</ele>
<time>2024-05-09T14:08:38Z</time>
</trkpt>
<trkpt lat="49.60570525377989" lon="9.248743001371622">
<ele>217.2</ele>
<time>2024-05-09T14:08:39Z</time>
</trkpt>
<trkpt lat="49.605651777237654" lon="9.248718190938234">
<ele>217.2</ele>
<time>2024-05-09T14:08:40Z</time>
</trkpt>
<trkpt lat="49.60560224018991" lon="9.248691536486149">
<ele>217.2</ele>
<time>2024-05-09T14:08:41Z</time>
</trkpt>
<trkpt lat="49.605552619323134" lon="9.248664798215032">
<ele>217.2</ele>
<time>2024-05-09T14:08:42Z</time>
</trkpt>
<trkpt lat="49.60550685413182" lon="9.248636215925217">
<ele>217.2</ele>
<time>2024-05-09T14:08:43Z</time>
</trkpt>
<trkpt lat="49.60545723326504" lon="9.248604699969292">
<ele>217.2</ele>
<time>2024-05-09T14:08:44Z</time>
</trkpt>
<trkpt lat="49.6054076962173" lon="9.248573267832398">
<ele>217.2</ele>
<time>2024-05-09T14:08:45Z</time>
</trkpt>
<trkpt lat="49.60536193102598" lon="9.248539907857776">
<ele>217.2</ele>
<time>2024-05-09T14:08:46Z</time>
</trkpt>
<trkpt lat="49.605316082015634" lon="9.24850646406412">
<ele>217.2</ele>
<time>2024-05-09T14:08:47Z</time>
</trkpt>
<trkpt lat="49.60526654496789" lon="9.2484731040895">
<ele>217.2</ele>
<time>2024-05-09T14:08:48Z</time>
</trkpt>
<trkpt lat="49.605216924101114" lon="9.248441671952603">
<ele>217.2</ele>
<time>2024-05-09T14:08:49Z</time>
</trkpt>
<trkpt lat="49.60516738705337" lon="9.248408311977984">
<ele>217.2</ele>
<time>2024-05-09T14:08:50Z</time>
</trkpt>
<trkpt lat="49.605117766186595" lon="9.248376796022058">
<ele>217.2</ele>
<time>2024-05-09T14:08:51Z</time>
</trkpt>
<trkpt lat="49.60506814531982" lon="9.248346285894511">
<ele>217.2</ele>
<time>2024-05-09T14:08:52Z</time>
</trkpt>
<trkpt lat="49.60501860827208" lon="9.24831292591989">
<ele>217.2</ele>
<time>2024-05-09T14:08:53Z</time>
</trkpt>
<trkpt lat="49.6049689874053" lon="9.248281409963964">
<ele>217.4</ele>
<time>2024-05-09T14:08:54Z</time>
</trkpt>
<trkpt lat="49.604919366538525" lon="9.248248049989344">
<ele>217.4</ele>
<time>2024-05-09T14:08:55Z</time>
</trkpt>
<trkpt lat="49.60486982949078" lon="9.248213768005373">
<ele>217.4</ele>
<time>2024-05-09T14:08:56Z</time>
</trkpt>
<trkpt lat="49.604824064299464" lon="9.24817848019302">
<ele>217.4</ele>
<time>2024-05-09T14:08:57Z</time>
</trkpt>
<trkpt lat="49.60477444343269" lon="9.248145036399364">
<ele>217.4</ele>
<time>2024-05-09T14:08:58Z</time>
</trkpt>
<trkpt lat="49.60472482256591" lon="9.248111676424742">
<ele>217.4</ele>
<time>2024-05-09T14:08:59Z</time>
</trkpt>
<trkpt lat="49.6046790573746" lon="9.248083094134929">
<ele>217.4</ele>
<time>2024-05-09T14:09:00Z</time>
</trkpt>
<trkpt lat="49.60462943650782" lon="9.24805635586381">
<ele>217.2</ele>
<time>2024-05-09T14:09:01Z</time>
</trkpt>
<trkpt lat="49.60457989946008" lon="9.248031545430422">
<ele>217.2</ele>
<time>2024-05-09T14:09:02Z</time>
</trkpt>
<trkpt lat="49.604526506736875" lon="9.248004890978336">
<ele>217.2</ele>
<time>2024-05-09T14:09:03Z</time>
</trkpt>
<trkpt lat="49.6044768858701" lon="9.24797815270722">
<ele>217.4</ele>
<time>2024-05-09T14:09:04Z</time>
</trkpt>
<trkpt lat="49.604423493146896" lon="9.24795527011156">
<ele>217.4</ele>
<time>2024-05-09T14:09:05Z</time>
</trkpt>
<trkpt lat="49.60437772795558" lon="9.247933309525251">
<ele>217.4</ele>
<time>2024-05-09T14:09:06Z</time>
</trkpt>
<trkpt lat="49.6043281070888" lon="9.247911432757974">
<ele>217.4</ele>
<time>2024-05-09T14:09:07Z</time>
</trkpt>
<trkpt lat="49.60427848622203" lon="9.247890394181011">
<ele>217.4</ele>
<time>2024-05-09T14:09:08Z</time>
</trkpt>
<trkpt lat="49.604228949174285" lon="9.247870445251465">
<ele>217.4</ele>
<time>2024-05-09T14:09:09Z</time>
</trkpt>
<trkpt lat="49.60417932830751" lon="9.247850412502885">
<ele>217.4</ele>
<time>2024-05-09T14:09:10Z</time>
</trkpt>
<trkpt lat="49.604129791259766" lon="9.247833229601383">
<ele>217.4</ele>
<time>2024-05-09T14:09:11Z</time>
</trkpt>
<trkpt lat="49.60407631471753" lon="9.247815124690533">
<ele>217.4</ele>
<time>2024-05-09T14:09:12Z</time>
</trkpt>
<trkpt lat="49.60402292199433" lon="9.247791236266494">
<ele>217.4</ele>
<time>2024-05-09T14:09:13Z</time>
</trkpt>
<trkpt lat="49.603969529271126" lon="9.247764581814408">
<ele>217.2</ele>
<time>2024-05-09T14:09:14Z</time>
</trkpt>
<trkpt lat="49.60391613654792" lon="9.247736921533942">
<ele>217.2</ele>
<time>2024-05-09T14:09:15Z</time>
</trkpt>
<trkpt lat="49.60386651568115" lon="9.247703477740288">
<ele>217</ele>
<time>2024-05-09T14:09:16Z</time>
</trkpt>
<trkpt lat="49.60382075048983" lon="9.247668189927936">
<ele>217</ele>
<time>2024-05-09T14:09:17Z</time>
</trkpt>
<trkpt lat="49.603774985298514" lon="9.247630052268503">
<ele>216.8</ele>
<time>2024-05-09T14:09:18Z</time>
</trkpt>
<trkpt lat="49.6037292201072" lon="9.247589986771343">
<ele>216.6</ele>
<time>2024-05-09T14:09:19Z</time>
</trkpt>
<trkpt lat="49.60368345491588" lon="9.247548077255487">
<ele>216.4</ele>
<time>2024-05-09T14:09:20Z</time>
</trkpt>
<trkpt lat="49.603633834049106" lon="9.247509939596055">
<ele>216.2</ele>
<time>2024-05-09T14:09:21Z</time>
</trkpt>
<trkpt lat="49.60358806885779" lon="9.247478423640132">
<ele>216</ele>
<time>2024-05-09T14:09:22Z</time>
</trkpt>
<trkpt lat="49.60353844799101" lon="9.247451769188046">
<ele>215.8</ele>
<time>2024-05-09T14:09:23Z</time>
</trkpt>
<trkpt lat="49.60348891094327" lon="9.247431736439466">
<ele>215.4</ele>
<time>2024-05-09T14:09:24Z</time>
</trkpt>
<trkpt lat="49.60344314575195" lon="9.247414553537965">
<ele>215.2</ele>
<time>2024-05-09T14:09:25Z</time>
</trkpt>
<trkpt lat="49.60339352488518" lon="9.247401226311922">
<ele>215</ele>
<time>2024-05-09T14:09:26Z</time>
</trkpt>
<trkpt lat="49.60334775969386" lon="9.247393598780036">
<ele>215</ele>
<time>2024-05-09T14:09:27Z</time>
</trkpt>
<trkpt lat="49.60330962203443" lon="9.2473868932575">
<ele>214.8</ele>
<time>2024-05-09T14:09:28Z</time>
</trkpt>
<trkpt lat="49.60326762869954" lon="9.247376415878534">
<ele>214.6</ele>
<time>2024-05-09T14:09:29Z</time>
</trkpt>
<trkpt lat="49.60323326289654" lon="9.24736686050892">
<ele>214.4</ele>
<time>2024-05-09T14:09:30Z</time>
</trkpt>
<trkpt lat="49.60319512523711" lon="9.247360154986382">
<ele>214.4</ele>
<time>2024-05-09T14:09:31Z</time>
</trkpt>
<trkpt lat="49.603160843253136" lon="9.247353533282876">
<ele>214.2</ele>
<time>2024-05-09T14:09:32Z</time>
</trkpt>
<trkpt lat="49.60312647745013" lon="9.24734682776034">
<ele>214</ele>
<time>2024-05-09T14:09:33Z</time>
</trkpt>
<trkpt lat="49.60308448411524" lon="9.247338278219104">
<ele>214</ele>
<time>2024-05-09T14:09:34Z</time>
</trkpt>
<trkpt lat="49.60304634645581" lon="9.247329644858835">
<ele>214</ele>
<time>2024-05-09T14:09:35Z</time>
</trkpt>
<trkpt lat="49.603004436939955" lon="9.247320173308252">
<ele>214.2</ele>
<time>2024-05-09T14:09:36Z</time>
</trkpt>
<trkpt lat="49.602962443605065" lon="9.247313467785716">
<ele>214.2</ele>
<time>2024-05-09T14:09:37Z</time>
</trkpt>
<trkpt lat="49.602924305945635" lon="9.247302990406752">
<ele>214.4</ele>
<time>2024-05-09T14:09:38Z</time>
</trkpt>
<trkpt lat="49.602882312610745" lon="9.247289579361675">
<ele>214.4</ele>
<time>2024-05-09T14:09:39Z</time>
</trkpt>
<trkpt lat="49.60284040309489" lon="9.247278179973364">
<ele>214.4</ele>
<time>2024-05-09T14:09:40Z</time>
</trkpt>
<trkpt lat="49.60279840976" lon="9.24726669676602">
<ele>214.4</ele>
<time>2024-05-09T14:09:41Z</time>
</trkpt>
<trkpt lat="49.60276027210057" lon="9.247255297377706">
<ele>214.4</ele>
<time>2024-05-09T14:09:42Z</time>
</trkpt>
<trkpt lat="49.60272213444114" lon="9.247241970151665">
<ele>214.4</ele>
<time>2024-05-09T14:09:43Z</time>
</trkpt>
<trkpt lat="49.602687768638134" lon="9.247233336791396">
<ele>214.6</ele>
<time>2024-05-09T14:09:44Z</time>
</trkpt>
<trkpt lat="49.6026496309787" lon="9.247228559106588">
<ele>214.8</ele>
<time>2024-05-09T14:09:45Z</time>
</trkpt>
<trkpt lat="49.60261149331927" lon="9.247229564934967">
<ele>215</ele>
<time>2024-05-09T14:09:46Z</time>
</trkpt>
<trkpt lat="49.60257335565984" lon="9.247233336791396">
<ele>215</ele>
<time>2024-05-09T14:09:47Z</time>
</trkpt>
<trkpt lat="49.60253521800041" lon="9.247236186638474">
<ele>215.2</ele>
<time>2024-05-09T14:09:48Z</time>
</trkpt>
<trkpt lat="49.60250085219741" lon="9.247242892161012">
<ele>215.2</ele>
<time>2024-05-09T14:09:49Z</time>
</trkpt>
<trkpt lat="49.60246271453798" lon="9.247255297377706">
<ele>215.2</ele>
<time>2024-05-09T14:09:50Z</time>
</trkpt>
<trkpt lat="49.60242457687855" lon="9.247269630432127">
<ele>215.4</ele>
<time>2024-05-09T14:09:51Z</time>
</trkpt>
<trkpt lat="49.60238643921912" lon="9.2472848854959">
<ele>215.4</ele>
<time>2024-05-09T14:09:52Z</time>
</trkpt>
<trkpt lat="49.602352073416114" lon="9.247301984578373">
<ele>215.4</ele>
<time>2024-05-09T14:09:53Z</time>
</trkpt>
<trkpt lat="49.60231779143214" lon="9.247318245470524">
<ele>215.6</ele>
<time>2024-05-09T14:09:54Z</time>
</trkpt>
<trkpt lat="49.60228342562914" lon="9.247340122237802">
<ele>215.8</ele>
<time>2024-05-09T14:09:55Z</time>
</trkpt>
<trkpt lat="49.60224528796971" lon="9.24736493267119">
<ele>215.8</ele>
<time>2024-05-09T14:09:56Z</time>
</trkpt>
<trkpt lat="49.602210922166705" lon="9.247394520789385">
<ele>216</ele>
<time>2024-05-09T14:09:57Z</time>
</trkpt>
<trkpt lat="49.60217664018273" lon="9.247429808601735">
<ele>216</ele>
<time>2024-05-09T14:09:58Z</time>
</trkpt>
<trkpt lat="49.60214227437973" lon="9.24746509641409">
<ele>216</ele>
<time>2024-05-09T14:09:59Z</time>
</trkpt>
<trkpt lat="49.602111764252186" lon="9.24750130623579">
<ele>216</ele>
<time>2024-05-09T14:10:00Z</time>
</trkpt>
<trkpt lat="49.602077482268214" lon="9.24754137173295">
<ele>216</ele>
<time>2024-05-09T14:10:01Z</time>
</trkpt>
<trkpt lat="49.60204311646521" lon="9.24758143723011">
<ele>216</ele>
<time>2024-05-09T14:10:02Z</time>
</trkpt>
<trkpt lat="49.60201260633767" lon="9.247618652880192">
<ele>216</ele>
<time>2024-05-09T14:10:03Z</time>
</trkpt>
<trkpt lat="49.60198209621012" lon="9.247654862701893">
<ele>216</ele>
<time>2024-05-09T14:10:04Z</time>
</trkpt>
<trkpt lat="49.60195158608258" lon="9.247692078351974">
<ele>216</ele>
<time>2024-05-09T14:10:05Z</time>
</trkpt>
<trkpt lat="49.601917220279574" lon="9.247730216011403">
<ele>216</ele>
<time>2024-05-09T14:10:06Z</time>
</trkpt>
<trkpt lat="49.60188671015203" lon="9.247766425833106">
<ele>216</ele>
<time>2024-05-09T14:10:07Z</time>
</trkpt>
<trkpt lat="49.601856200024486" lon="9.247803641483188">
<ele>216</ele>
<time>2024-05-09T14:10:08Z</time>
</trkpt>
<trkpt lat="49.60182183422148" lon="9.247839851304889">
<ele>216</ele>
<time>2024-05-09T14:10:09Z</time>
</trkpt>
<trkpt lat="49.60179132409394" lon="9.24787513911724">
<ele>216.2</ele>
<time>2024-05-09T14:10:10Z</time>
</trkpt>
<trkpt lat="49.60176081396639" lon="9.247906655073166">
<ele>216.2</ele>
<time>2024-05-09T14:10:11Z</time>
</trkpt>
<trkpt lat="49.60172653198242" lon="9.24793624319136">
<ele>216.4</ele>
<time>2024-05-09T14:10:12Z</time>
</trkpt>
<trkpt lat="49.60169216617942" lon="9.247961975634098">
<ele>216.4</ele>
<time>2024-05-09T14:10:13Z</time>
</trkpt>
<trkpt lat="49.601661656051874" lon="9.247988630086184">
<ele>216.6</ele>
<time>2024-05-09T14:10:14Z</time>
</trkpt>
<trkpt lat="49.60162729024887" lon="9.2480153683573">
<ele>216.6</ele>
<time>2024-05-09T14:10:15Z</time>
</trkpt>
<trkpt lat="49.6015930082649" lon="9.248044956475496">
<ele>216.6</ele>
<time>2024-05-09T14:10:16Z</time>
</trkpt>
<trkpt lat="49.60155487060547" lon="9.248069683089852">
<ele>216.6</ele>
<time>2024-05-09T14:10:17Z</time>
</trkpt>
<trkpt lat="49.60152427665889" lon="9.248093571513891">
<ele>216.6</ele>
<time>2024-05-09T14:10:18Z</time>
</trkpt>
<trkpt lat="49.60148999467492" lon="9.248113604262471">
<ele>216.6</ele>
<time>2024-05-09T14:10:19Z</time>
</trkpt>
<trkpt lat="49.60145562887192" lon="9.248129781335592">
<ele>216.6</ele>
<time>2024-05-09T14:10:20Z</time>
</trkpt>
<trkpt lat="49.601421346887946" lon="9.248149814084172">
<ele>216.6</ele>
<time>2024-05-09T14:10:21Z</time>
</trkpt>
<trkpt lat="49.60138320922851" lon="9.248167918995025">
<ele>216.6</ele>
<time>2024-05-09T14:10:22Z</time>
</trkpt>
<trkpt lat="49.60134884342551" lon="9.248187029734254">
<ele>216.6</ele>
<time>2024-05-09T14:10:23Z</time>
</trkpt>
<trkpt lat="49.60131833329797" lon="9.248203206807377">
<ele>216.8</ele>
<time>2024-05-09T14:10:24Z</time>
</trkpt>
<trkpt lat="49.60128019563854" lon="9.248221395537255">
<ele>216.8</ele>
<time>2024-05-09T14:10:25Z</time>
</trkpt>
<trkpt lat="49.601245829835534" lon="9.248243272304537">
<ele>217</ele>
<time>2024-05-09T14:10:26Z</time>
</trkpt>
<trkpt lat="49.60121154785156" lon="9.248266154900191">
<ele>217</ele>
<time>2024-05-09T14:10:27Z</time>
</trkpt>
<trkpt lat="49.601180953904986" lon="9.24829188734293">
<ele>217.2</ele>
<time>2024-05-09T14:10:28Z</time>
</trkpt>
<trkpt lat="49.60115044377744" lon="9.248319547623396">
<ele>217.2</ele>
<time>2024-05-09T14:10:29Z</time>
</trkpt>
<trkpt lat="49.6011199336499" lon="9.248354835435748">
<ele>217.2</ele>
<time>2024-05-09T14:10:30Z</time>
</trkpt>
<trkpt lat="49.60108942352235" lon="9.24839205108583">
<ele>217.4</ele>
<time>2024-05-09T14:10:31Z</time>
</trkpt>
<trkpt lat="49.60106276907027" lon="9.24843018874526">
<ele>217.4</ele>
<time>2024-05-09T14:10:32Z</time>
</trkpt>
<trkpt lat="49.60103603079915" lon="9.24846832640469">
<ele>217.4</ele>
<time>2024-05-09T14:10:33Z</time>
</trkpt>
<trkpt lat="49.60100929252803" lon="9.248511241748927">
<ele>217.6</ele>
<time>2024-05-09T14:10:34Z</time>
</trkpt>
<trkpt lat="49.600986409932375" lon="9.248559940606356">
<ele>217.6</ele>
<time>2024-05-09T14:10:35Z</time>
</trkpt>
<trkpt lat="49.600967383012176" lon="9.24860855564475">
<ele>217.8</ele>
<time>2024-05-09T14:10:36Z</time>
</trkpt>
<trkpt lat="49.600948272272944" lon="9.248658176511526">
<ele>217.8</ele>
<time>2024-05-09T14:10:37Z</time>
</trkpt>
<trkpt lat="49.60093301720917" lon="9.248709641397">
<ele>218</ele>
<time>2024-05-09T14:10:38Z</time>
</trkpt>
<trkpt lat="49.60092161782086" lon="9.248758256435394">
<ele>218</ele>
<time>2024-05-09T14:10:39Z</time>
</trkpt>
<trkpt lat="49.60090636275709" lon="9.24880687147379">
<ele>218.2</ele>
<time>2024-05-09T14:10:40Z</time>
</trkpt>
<trkpt lat="49.600887252017856" lon="9.248856492340565">
<ele>218.2</ele>
<time>2024-05-09T14:10:41Z</time>
</trkpt>
<trkpt lat="49.600868225097656" lon="9.248900413513184">
<ele>218.2</ele>
<time>2024-05-09T14:10:42Z</time>
</trkpt>
<trkpt lat="49.60084148682654" lon="9.248941401019692">
<ele>218.2</ele>
<time>2024-05-09T14:10:43Z</time>
</trkpt>
<trkpt lat="49.60081860423088" lon="9.24898331053555">
<ele>218.4</ele>
<time>2024-05-09T14:10:44Z</time>
</trkpt>
<trkpt lat="49.60079572163522" lon="9.249026225879788">
<ele>218.4</ele>
<time>2024-05-09T14:10:45Z</time>
</trkpt>
<trkpt lat="49.600768983364105" lon="9.249066291376948">
<ele>218.4</ele>
<time>2024-05-09T14:10:46Z</time>
</trkpt>
<trkpt lat="49.60074610076845" lon="9.24910350702703">
<ele>218.6</ele>
<time>2024-05-09T14:10:47Z</time>
</trkpt>
<trkpt lat="49.60071944631636" lon="9.24914357252419">
<ele>218.6</ele>
<time>2024-05-09T14:10:48Z</time>
</trkpt>
<trkpt lat="49.60069270804525" lon="9.24918363802135">
<ele>218.8</ele>
<time>2024-05-09T14:10:49Z</time>
</trkpt>
<trkpt lat="49.6006621979177" lon="9.24922177568078">
<ele>219</ele>
<time>2024-05-09T14:10:50Z</time>
</trkpt>
<trkpt lat="49.600631687790155" lon="9.249263685196638">
<ele>219</ele>
<time>2024-05-09T14:10:51Z</time>
</trkpt>
<trkpt lat="49.60060494951904" lon="9.24930282868445">
<ele>219.2</ele>
<time>2024-05-09T14:10:52Z</time>
</trkpt>
<trkpt lat="49.60058592259884" lon="9.249346666038036">
<ele>219.2</ele>
<time>2024-05-09T14:10:53Z</time>
</trkpt>
<trkpt lat="49.60056681185961" lon="9.249395364895465">
<ele>219.2</ele>
<time>2024-05-09T14:10:54Z</time>
</trkpt>
<trkpt lat="49.600551556795835" lon="9.249446829780936">
<ele>219.4</ele>
<time>2024-05-09T14:10:55Z</time>
</trkpt>
<trkpt lat="49.60054392926395" lon="9.24950022250414">
<ele>219.4</ele>
<time>2024-05-09T14:10:56Z</time>
</trkpt>
<trkpt lat="49.60054015740752" lon="9.249549843370914">
<ele>219.4</ele>
<time>2024-05-09T14:10:57Z</time>
</trkpt>
<trkpt lat="49.60053630173206" lon="9.249603236094115">
<ele>219.4</ele>
<time>2024-05-09T14:10:58Z</time>
</trkpt>
<trkpt lat="49.60053630173206" lon="9.24965470097959">
<ele>219.4</ele>
<time>2024-05-09T14:10:59Z</time>
</trkpt>
<trkpt lat="49.60054015740752" lon="9.249706249684095">
<ele>219.4</ele>
<time>2024-05-09T14:11:00Z</time>
</trkpt>
<trkpt lat="49.60054015740752" lon="9.249759642407298">
<ele>219.4</ele>
<time>2024-05-09T14:11:01Z</time>
</trkpt>
<trkpt lat="49.60054778493941" lon="9.2498130351305">
<ele>219.4</ele>
<time>2024-05-09T14:11:02Z</time>
</trkpt>
<trkpt lat="49.600551556795835" lon="9.249861650168896">
<ele>219.6</ele>
<time>2024-05-09T14:11:03Z</time>
</trkpt>
<trkpt lat="49.60055918432772" lon="9.249911271035671">
<ele>219.8</ele>
<time>2024-05-09T14:11:04Z</time>
</trkpt>
<trkpt lat="49.60056681185961" lon="9.249966591596603">
<ele>219.8</ele>
<time>2024-05-09T14:11:05Z</time>
</trkpt>
<trkpt lat="49.600574439391494" lon="9.250018056482077">
<ele>220</ele>
<time>2024-05-09T14:11:06Z</time>
</trkpt>
<trkpt lat="49.60057829506695" lon="9.25007144920528">
<ele>220.2</ele>
<time>2024-05-09T14:11:07Z</time>
</trkpt>
<trkpt lat="49.600593550130725" lon="9.250124925747514">
<ele>220.4</ele>
<time>2024-05-09T14:11:08Z</time>
</trkpt>
<trkpt lat="49.60059732198715" lon="9.250178318470716">
<ele>220.6</ele>
<time>2024-05-09T14:11:09Z</time>
</trkpt>
<trkpt lat="49.60060494951904" lon="9.25022978335619">
<ele>220.8</ele>
<time>2024-05-09T14:11:10Z</time>
</trkpt>
<trkpt lat="49.6006088051945" lon="9.250283176079392">
<ele>221</ele>
<time>2024-05-09T14:11:11Z</time>
</trkpt>
<trkpt lat="49.60060494951904" lon="9.250338496640325">
<ele>221.2</ele>
<time>2024-05-09T14:11:12Z</time>
</trkpt>
<trkpt lat="49.60060494951904" lon="9.250394739210606">
<ele>221.6</ele>
<time>2024-05-09T14:11:13Z</time>
</trkpt>
<trkpt lat="49.6006088051945" lon="9.25044821575284">
<ele>221.8</ele>
<time>2024-05-09T14:11:14Z</time>
</trkpt>
<trkpt lat="49.60060494951904" lon="9.25050538033247">
<ele>222</ele>
<time>2024-05-09T14:11:15Z</time>
</trkpt>
<trkpt lat="49.60060494951904" lon="9.250559778884051">
<ele>222.2</ele>
<time>2024-05-09T14:11:16Z</time>
</trkpt>
<trkpt lat="49.60059732198715" lon="9.250619877129791">
<ele>222.4</ele>
<time>2024-05-09T14:11:17Z</time>
</trkpt>
<trkpt lat="49.60058206692338" lon="9.250671342015266">
<ele>222.4</ele>
<time>2024-05-09T14:11:18Z</time>
</trkpt>
<trkpt lat="49.60056681185961" lon="9.25072473473847">
<ele>222.6</ele>
<time>2024-05-09T14:11:19Z</time>
</trkpt>
<trkpt lat="49.60054778493941" lon="9.250775277614594">
<ele>222.6</ele>
<time>2024-05-09T14:11:20Z</time>
</trkpt>
<trkpt lat="49.60052490234375" lon="9.25082297064364">
<ele>222.8</ele>
<time>2024-05-09T14:11:21Z</time>
</trkpt>
<trkpt lat="49.60050193592906" lon="9.250866807997228">
<ele>222.8</ele>
<time>2024-05-09T14:11:22Z</time>
</trkpt>
<trkpt lat="49.6004790533334" lon="9.250913579016924">
<ele>222.8</ele>
<time>2024-05-09T14:11:23Z</time>
</trkpt>
<trkpt lat="49.60045617073774" lon="9.250956494361162">
<ele>222.6</ele>
<time>2024-05-09T14:11:24Z</time>
</trkpt>
<trkpt lat="49.600433288142085" lon="9.25100326538086">
<ele>222.4</ele>
<time>2024-05-09T14:11:25Z</time>
</trkpt>
<trkpt lat="49.60041040554643" lon="9.251045174896715">
<ele>222.4</ele>
<time>2024-05-09T14:11:26Z</time>
</trkpt>
<trkpt lat="49.60038752295077" lon="9.251086162403226">
<ele>222.4</ele>
<time>2024-05-09T14:11:27Z</time>
</trkpt>
<trkpt lat="49.60036464035511" lon="9.251128155738115">
<ele>222.4</ele>
<time>2024-05-09T14:11:28Z</time>
</trkpt>
<trkpt lat="49.60034175775945" lon="9.251170149073005">
<ele>222.4</ele>
<time>2024-05-09T14:11:29Z</time>
</trkpt>
<trkpt lat="49.600315019488335" lon="9.251210130751131">
<ele>222.6</ele>
<time>2024-05-09T14:11:30Z</time>
</trkpt>
<trkpt lat="49.60028836503625" lon="9.251253046095371">
<ele>222.6</ele>
<time>2024-05-09T14:11:31Z</time>
</trkpt>
<trkpt lat="49.60026548244059" lon="9.25129696726799">
<ele>222.6</ele>
<time>2024-05-09T14:11:32Z</time>
</trkpt>
<trkpt lat="49.600238744169474" lon="9.2513379547745">
<ele>222.6</ele>
<time>2024-05-09T14:11:33Z</time>
</trkpt>
<trkpt lat="49.60021208971739" lon="9.25137802027166">
<ele>222.6</ele>
<time>2024-05-09T14:11:34Z</time>
</trkpt>
<trkpt lat="49.60018535144627" lon="9.251420013606548">
<ele>222.6</ele>
<time>2024-05-09T14:11:35Z</time>
</trkpt>
<trkpt lat="49.60016246885061" lon="9.251462928950788">
<ele>222.6</ele>
<time>2024-05-09T14:11:36Z</time>
</trkpt>
<trkpt lat="49.600139586254954" lon="9.251506766304374">
<ele>222.6</ele>
<time>2024-05-09T14:11:37Z</time>
</trkpt>
<trkpt lat="49.60011284798384" lon="9.251544903963804">
<ele>222.6</ele>
<time>2024-05-09T14:11:38Z</time>
</trkpt>
<trkpt lat="49.60008619353175" lon="9.251584969460964">
<ele>222.8</ele>
<time>2024-05-09T14:11:39Z</time>
</trkpt>
<trkpt lat="49.60006331093609" lon="9.251621179282663">
<ele>223.2</ele>
<time>2024-05-09T14:11:40Z</time>
</trkpt>
<trkpt lat="49.600036572664976" lon="9.251660322770476">
<ele>223.4</ele>
<time>2024-05-09T14:11:41Z</time>
</trkpt>
<trkpt lat="49.60001369006932" lon="9.251696532592176">
<ele>223.6</ele>
<time>2024-05-09T14:11:42Z</time>
</trkpt>
<trkpt lat="49.59999457933009" lon="9.25173182040453">
<ele>223.8</ele>
<time>2024-05-09T14:11:43Z</time>
</trkpt>
<trkpt lat="49.59997169673443" lon="9.25176803022623">
<ele>223.8</ele>
<time>2024-05-09T14:11:44Z</time>
</trkpt>
<trkpt lat="49.59994504228234" lon="9.251805245876312">
<ele>224</ele>
<time>2024-05-09T14:11:45Z</time>
</trkpt>
<trkpt lat="49.59992593154311" lon="9.251839611679316">
<ele>224.2</ele>
<time>2024-05-09T14:11:46Z</time>
</trkpt>
<trkpt lat="49.59990304894745" lon="9.251874899491668">
<ele>224.4</ele>
<time>2024-05-09T14:11:47Z</time>
</trkpt>
<trkpt lat="49.599880166351795" lon="9.25190825946629">
<ele>224.6</ele>
<time>2024-05-09T14:11:48Z</time>
</trkpt>
<trkpt lat="49.59985728375614" lon="9.251943547278644">
<ele>224.8</ele>
<time>2024-05-09T14:11:49Z</time>
</trkpt>
<trkpt lat="49.59983440116048" lon="9.251976907253264">
<ele>225</ele>
<time>2024-05-09T14:11:50Z</time>
</trkpt>
<trkpt lat="49.59981151856482" lon="9.252010267227888">
<ele>225</ele>
<time>2024-05-09T14:11:51Z</time>
</trkpt>
<trkpt lat="49.59978863596916" lon="9.252037927508354">
<ele>225.2</ele>
<time>2024-05-09T14:11:52Z</time>
</trkpt>
<trkpt lat="49.599765753373504" lon="9.252063743770124">
<ele>225.4</ele>
<time>2024-05-09T14:11:53Z</time>
</trkpt>
<trkpt lat="49.59974664263427" lon="9.252090398222208">
<ele>225.4</ele>
<time>2024-05-09T14:11:54Z</time>
</trkpt>
<trkpt lat="49.599723760038614" lon="9.252118058502674">
<ele>225.6</ele>
<time>2024-05-09T14:11:55Z</time>
</trkpt>
<trkpt lat="49.599704733118415" lon="9.25214856863022">
<ele>225.8</ele>
<time>2024-05-09T14:11:56Z</time>
</trkpt>
<trkpt lat="49.599685622379184" lon="9.252176228910685">
<ele>226</ele>
<time>2024-05-09T14:11:57Z</time>
</trkpt>
<trkpt lat="49.599662739783525" lon="9.252206739038227">
<ele>226.2</ele>
<time>2024-05-09T14:11:58Z</time>
</trkpt>
<trkpt lat="49.599643629044294" lon="9.252233477309346">
<ele>226.6</ele>
<time>2024-05-09T14:11:59Z</time>
</trkpt>
<trkpt lat="49.599624602124095" lon="9.252258287742734">
<ele>226.8</ele>
<time>2024-05-09T14:12:00Z</time>
</trkpt>
<trkpt lat="49.59960934706032" lon="9.252286870032547">
<ele>227.2</ele>
<time>2024-05-09T14:12:01Z</time>
</trkpt>
<trkpt lat="49.59959023632109" lon="9.252311680465937">
<ele>227.4</ele>
<time>2024-05-09T14:12:02Z</time>
</trkpt>
<trkpt lat="49.59956735372543" lon="9.252336490899324">
<ele>227.8</ele>
<time>2024-05-09T14:12:03Z</time>
</trkpt>
<trkpt lat="49.599548326805234" lon="9.25236314535141">
<ele>228</ele>
<time>2024-05-09T14:12:04Z</time>
</trkpt>
<trkpt lat="49.599525444209576" lon="9.252387955784798">
<ele>228.4</ele>
<time>2024-05-09T14:12:05Z</time>
</trkpt>
<trkpt lat="49.59950256161392" lon="9.252407988533378">
<ele>228.6</ele>
<time>2024-05-09T14:12:06Z</time>
</trkpt>
<trkpt lat="49.599483450874686" lon="9.252431793138385">
<ele>228.8</ele>
<time>2024-05-09T14:12:07Z</time>
</trkpt>
<trkpt lat="49.59946056827903" lon="9.25246330909431">
<ele>229</ele>
<time>2024-05-09T14:12:08Z</time>
</trkpt>
<trkpt lat="49.599445313215256" lon="9.252494741231205">
<ele>229.4</ele>
<time>2024-05-09T14:12:09Z</time>
</trkpt>
<trkpt lat="49.59941857494414" lon="9.25252147950232">
<ele>229.6</ele>
<time>2024-05-09T14:12:10Z</time>
</trkpt>
<trkpt lat="49.59939954802394" lon="9.2525415122509">
<ele>230</ele>
<time>2024-05-09T14:12:11Z</time>
</trkpt>
<trkpt lat="49.59937280975282" lon="9.252556767314672">
<ele>230.4</ele>
<time>2024-05-09T14:12:12Z</time>
</trkpt>
<trkpt lat="49.599346155300736" lon="9.252574872225525">
<ele>230.8</ele>
<time>2024-05-09T14:12:13Z</time>
</trkpt>
<trkpt lat="49.59932327270508" lon="9.252592055127025">
<ele>231</ele>
<time>2024-05-09T14:12:14Z</time>
</trkpt>
<trkpt lat="49.59929653443396" lon="9.252606388181448">
<ele>231.2</ele>
<time>2024-05-09T14:12:15Z</time>
</trkpt>
<trkpt lat="49.59926979616285" lon="9.25262164324522">
<ele>231.6</ele>
<time>2024-05-09T14:12:16Z</time>
</trkpt>
<trkpt lat="49.59924314171076" lon="9.25263782031834">
<ele>231.8</ele>
<time>2024-05-09T14:12:17Z</time>
</trkpt>
<trkpt lat="49.599212631583214" lon="9.252653075382112">
<ele>232.2</ele>
<time>2024-05-09T14:12:18Z</time>
</trkpt>
<trkpt lat="49.59918212145567" lon="9.252670258283615">
<ele>232.4</ele>
<time>2024-05-09T14:12:19Z</time>
</trkpt>
<trkpt lat="49.59915538318455" lon="9.252688363194466">
<ele>232.6</ele>
<time>2024-05-09T14:12:20Z</time>
</trkpt>
<trkpt lat="49.599128644913435" lon="9.252708395943046">
<ele>232.8</ele>
<time>2024-05-09T14:12:21Z</time>
</trkpt>
<trkpt lat="49.59909813478589" lon="9.252728428691626">
<ele>233</ele>
<time>2024-05-09T14:12:22Z</time>
</trkpt>
<trkpt lat="49.599071480333805" lon="9.252746533602476">
<ele>233.2</ele>
<time>2024-05-09T14:12:23Z</time>
</trkpt>
<trkpt lat="49.5990371145308" lon="9.252764638513328">
<ele>233.4</ele>
<time>2024-05-09T14:12:24Z</time>
</trkpt>
<trkpt lat="49.59900660440326" lon="9.252784671261908">
<ele>233.8</ele>
<time>2024-05-09T14:12:25Z</time>
</trkpt>
<trkpt lat="49.59897609427571" lon="9.25279992632568">
<ele>234</ele>
<time>2024-05-09T14:12:26Z</time>
</trkpt>
<trkpt lat="49.59894558414817" lon="9.252811409533024">
<ele>234.4</ele>
<time>2024-05-09T14:12:27Z</time>
</trkpt>
<trkpt lat="49.598915074020624" lon="9.252824736759068">
<ele>234.6</ele>
<time>2024-05-09T14:12:28Z</time>
</trkpt>
<trkpt lat="49.59888456389308" lon="9.25283806398511">
<ele>234.8</ele>
<time>2024-05-09T14:12:29Z</time>
</trkpt>
<trkpt lat="49.598854053765535" lon="9.252851475030184">
<ele>235.2</ele>
<time>2024-05-09T14:12:30Z</time>
</trkpt>
<trkpt lat="49.59881968796253" lon="9.252861952409148">
<ele>235.4</ele>
<time>2024-05-09T14:12:31Z</time>
</trkpt>
<trkpt lat="49.59878917783499" lon="9.252871507778764">
<ele>235.6</ele>
<time>2024-05-09T14:12:32Z</time>
</trkpt>
<trkpt lat="49.598754812031984" lon="9.25288005732">
<ele>235.8</ele>
<time>2024-05-09T14:12:33Z</time>
</trkpt>
<trkpt lat="49.59872053004801" lon="9.252886762842536">
<ele>236</ele>
<time>2024-05-09T14:12:34Z</time>
</trkpt>
<trkpt lat="49.59868616424501" lon="9.25289338454604">
<ele>236.2</ele>
<time>2024-05-09T14:12:35Z</time>
</trkpt>
<trkpt lat="49.59864802658558" lon="9.25290009006858">
<ele>236.4</ele>
<time>2024-05-09T14:12:36Z</time>
</trkpt>
<trkpt lat="49.598613660782576" lon="9.252906795591116">
<ele>236.6</ele>
<time>2024-05-09T14:12:37Z</time>
</trkpt>
<trkpt lat="49.59858315065503" lon="9.252909645438194">
<ele>236.8</ele>
<time>2024-05-09T14:12:38Z</time>
</trkpt>
<trkpt lat="49.59855264052749" lon="9.252911489456892">
<ele>237</ele>
<time>2024-05-09T14:12:39Z</time>
</trkpt>
<trkpt lat="49.598518358543515" lon="9.2529162671417">
<ele>237.2</ele>
<time>2024-05-09T14:12:40Z</time>
</trkpt>
<trkpt lat="49.59848399274051" lon="9.25292012281716">
<ele>237.4</ele>
<time>2024-05-09T14:12:41Z</time>
</trkpt>
<trkpt lat="49.59844962693751" lon="9.252922972664235">
<ele>237.6</ele>
<time>2024-05-09T14:12:42Z</time>
</trkpt>
<trkpt lat="49.59841534495354" lon="9.252924900501966">
<ele>237.8</ele>
<time>2024-05-09T14:12:43Z</time>
</trkpt>
<trkpt lat="49.598380979150534" lon="9.252926744520664">
<ele>238</ele>
<time>2024-05-09T14:12:44Z</time>
</trkpt>
<trkpt lat="49.59834669716656" lon="9.252929678186774">
<ele>238</ele>
<time>2024-05-09T14:12:45Z</time>
</trkpt>
<trkpt lat="49.59830855950713" lon="9.252928672358394">
<ele>238</ele>
<time>2024-05-09T14:12:46Z</time>
</trkpt>
<trkpt lat="49.59827419370413" lon="9.252928672358394">
<ele>238.2</ele>
<time>2024-05-09T14:12:47Z</time>
</trkpt>
<trkpt lat="49.598239827901125" lon="9.252929678186774">
<ele>238.2</ele>
<time>2024-05-09T14:12:48Z</time>
</trkpt>
<trkpt lat="49.598201690241694" lon="9.252926744520664">
<ele>238.2</ele>
<time>2024-05-09T14:12:49Z</time>
</trkpt>
<trkpt lat="49.59815978072584" lon="9.25292012281716">
<ele>238.4</ele>
<time>2024-05-09T14:12:50Z</time>
</trkpt>
<trkpt lat="49.598121643066406" lon="9.252915345132353">
<ele>238.4</ele>
<time>2024-05-09T14:12:51Z</time>
</trkpt>
<trkpt lat="49.59807964973152" lon="9.252908639609814">
<ele>238.6</ele>
<time>2024-05-09T14:12:52Z</time>
</trkpt>
<trkpt lat="49.5980338845402" lon="9.252902017906308">
<ele>238.6</ele>
<time>2024-05-09T14:12:53Z</time>
</trkpt>
<trkpt lat="49.59798811934888" lon="9.252884835004808">
<ele>238.8</ele>
<time>2024-05-09T14:12:54Z</time>
</trkpt>
<trkpt lat="49.597946126013994" lon="9.252869579941034">
<ele>238.8</ele>
<time>2024-05-09T14:12:55Z</time>
</trkpt>
<trkpt lat="49.59789650514722" lon="9.252851475030184">
<ele>238.8</ele>
<time>2024-05-09T14:12:56Z</time>
</trkpt>
<trkpt lat="49.5978507399559" lon="9.252828592434524">
<ele>238.8</ele>
<time>2024-05-09T14:12:57Z</time>
</trkpt>
<trkpt lat="49.597804974764585" lon="9.252804704010488">
<ele>239</ele>
<time>2024-05-09T14:12:58Z</time>
</trkpt>
<trkpt lat="49.59775158204138" lon="9.252781821414828">
<ele>239</ele>
<time>2024-05-09T14:12:59Z</time>
</trkpt>
<trkpt lat="49.59769818931818" lon="9.25275801680982">
<ele>238.8</ele>
<time>2024-05-09T14:13:00Z</time>
</trkpt>
<trkpt lat="49.59764479659498" lon="9.252735134214165">
<ele>238.8</ele>
<time>2024-05-09T14:13:01Z</time>
</trkpt>
<trkpt lat="49.59758369252086" lon="9.252710323780777">
<ele>238.6</ele>
<time>2024-05-09T14:13:02Z</time>
</trkpt>
<trkpt lat="49.59752267226577" lon="9.252683585509658">
<ele>238.4</ele>
<time>2024-05-09T14:13:03Z</time>
</trkpt>
<trkpt lat="49.59746165201068" lon="9.252653075382112">
<ele>238.2</ele>
<time>2024-05-09T14:13:04Z</time>
</trkpt>
<trkpt lat="49.59739677608013" lon="9.25262164324522">
<ele>238</ele>
<time>2024-05-09T14:13:05Z</time>
</trkpt>
<trkpt lat="49.597331983968616" lon="9.252590127289295">
<ele>237.8</ele>
<time>2024-05-09T14:13:06Z</time>
</trkpt>
<trkpt lat="49.59726333618164" lon="9.252552911639214">
<ele>237.6</ele>
<time>2024-05-09T14:13:07Z</time>
</trkpt>
<trkpt lat="49.59719846025109" lon="9.252516701817513">
<ele>237.4</ele>
<time>2024-05-09T14:13:08Z</time>
</trkpt>
<trkpt lat="49.597133584320545" lon="9.252478564158082">
<ele>237.2</ele>
<time>2024-05-09T14:13:09Z</time>
</trkpt>
<trkpt lat="49.59706493653357" lon="9.252440426498652">
<ele>237.2</ele>
<time>2024-05-09T14:13:10Z</time>
</trkpt>
<trkpt lat="49.59700006060302" lon="9.252396505326033">
<ele>237</ele>
<time>2024-05-09T14:13:11Z</time>
</trkpt>
<trkpt lat="49.59693141281605" lon="9.252353589981794">
<ele>236.8</ele>
<time>2024-05-09T14:13:12Z</time>
</trkpt>
<trkpt lat="49.59686276502907" lon="9.252311680465937">
<ele>236.6</ele>
<time>2024-05-09T14:13:13Z</time>
</trkpt>
<trkpt lat="49.596797889098525" lon="9.252269687131047">
<ele>236.4</ele>
<time>2024-05-09T14:13:14Z</time>
</trkpt>
<trkpt lat="49.59673301316798" lon="9.252228699624538">
<ele>236</ele>
<time>2024-05-09T14:13:15Z</time>
</trkpt>
<trkpt lat="49.59666822105646" lon="9.252188634127378">
<ele>235.8</ele>
<time>2024-05-09T14:13:16Z</time>
</trkpt>
<trkpt lat="49.596603345125914" lon="9.25214856863022">
<ele>235.6</ele>
<time>2024-05-09T14:13:17Z</time>
</trkpt>
<trkpt lat="49.596542324870825" lon="9.252113280817866">
<ele>235.4</ele>
<time>2024-05-09T14:13:18Z</time>
</trkpt>
<trkpt lat="49.596481304615736" lon="9.252075143158436">
<ele>235.4</ele>
<time>2024-05-09T14:13:19Z</time>
</trkpt>
<trkpt lat="49.59642028436065" lon="9.252043711021544">
<ele>235.2</ele>
<time>2024-05-09T14:13:20Z</time>
</trkpt>
<trkpt lat="49.59636680781841" lon="9.252016972750424">
<ele>235</ele>
<time>2024-05-09T14:13:21Z</time>
</trkpt>
<trkpt lat="49.59630964323878" lon="9.251991240307689">
<ele>235</ele>
<time>2024-05-09T14:13:22Z</time>
</trkpt>
<trkpt lat="49.59625625051558" lon="9.2519664298743">
<ele>234.8</ele>
<time>2024-05-09T14:13:23Z</time>
</trkpt>
<trkpt lat="49.596206629648805" lon="9.251939691603184">
<ele>234.8</ele>
<time>2024-05-09T14:13:24Z</time>
</trkpt>
<trkpt lat="49.59615700878203" lon="9.251918736845257">
<ele>234.6</ele>
<time>2024-05-09T14:13:25Z</time>
</trkpt>
<trkpt lat="49.59611124359071" lon="9.251898704096677">
<ele>234.4</ele>
<time>2024-05-09T14:13:26Z</time>
</trkpt>
<trkpt lat="49.59606547839939" lon="9.251878671348097">
<ele>234.2</ele>
<time>2024-05-09T14:13:27Z</time>
</trkpt>
<trkpt lat="49.59601971320808" lon="9.251858638599517">
<ele>234.2</ele>
<time>2024-05-09T14:13:28Z</time>
</trkpt>
<trkpt lat="49.59597394801676" lon="9.251839611679316">
<ele>234.2</ele>
<time>2024-05-09T14:13:29Z</time>
</trkpt>
<trkpt lat="49.595928182825446" lon="9.251826284453273">
<ele>234.2</ele>
<time>2024-05-09T14:13:30Z</time>
</trkpt>
<trkpt lat="49.59587856195867" lon="9.25181195139885">
<ele>234.2</ele>
<time>2024-05-09T14:13:31Z</time>
</trkpt>
<trkpt lat="49.595832796767354" lon="9.251801474019883">
<ele>234.4</ele>
<time>2024-05-09T14:13:32Z</time>
</trkpt>
<trkpt lat="49.59578703157604" lon="9.25179191865027">
<ele>234.4</ele>
<time>2024-05-09T14:13:33Z</time>
</trkpt>
<trkpt lat="49.59574503824115" lon="9.251785213127732">
<ele>234.6</ele>
<time>2024-05-09T14:13:34Z</time>
</trkpt>
<trkpt lat="49.59570304490626" lon="9.251781441271303">
<ele>234.8</ele>
<time>2024-05-09T14:13:35Z</time>
</trkpt>
<trkpt lat="49.5956611353904" lon="9.251781441271303">
<ele>234.8</ele>
<time>2024-05-09T14:13:36Z</time>
</trkpt>
<trkpt lat="49.59561914205551" lon="9.251779513433576">
<ele>235</ele>
<time>2024-05-09T14:13:37Z</time>
</trkpt>
<trkpt lat="49.595577232539654" lon="9.251783369109036">
<ele>235</ele>
<time>2024-05-09T14:13:38Z</time>
</trkpt>
<trkpt lat="49.59553901106119" lon="9.251786218956113">
<ele>235.2</ele>
<time>2024-05-09T14:13:39Z</time>
</trkpt>
<trkpt lat="49.595493245869875" lon="9.251794768497348">
<ele>235.2</ele>
<time>2024-05-09T14:13:40Z</time>
</trkpt>
<trkpt lat="49.595455108210444" lon="9.251799546182156">
<ele>235.2</ele>
<time>2024-05-09T14:13:41Z</time>
</trkpt>
<trkpt lat="49.59541319869459" lon="9.251803318038585">
<ele>235.4</ele>
<time>2024-05-09T14:13:42Z</time>
</trkpt>
<trkpt lat="49.59537506103515" lon="9.251806251704693">
<ele>235.4</ele>
<time>2024-05-09T14:13:43Z</time>
</trkpt>
<trkpt lat="49.595336839556694" lon="9.251812873408198">
<ele>235.4</ele>
<time>2024-05-09T14:13:44Z</time>
</trkpt>
<trkpt lat="49.59529493004083" lon="9.251821506768463">
<ele>235.6</ele>
<time>2024-05-09T14:13:45Z</time>
</trkpt>
<trkpt lat="49.59526056423783" lon="9.25182812847197">
<ele>235.6</ele>
<time>2024-05-09T14:13:46Z</time>
</trkpt>
<trkpt lat="49.5952224265784" lon="9.251832906156778">
<ele>235.8</ele>
<time>2024-05-09T14:13:47Z</time>
</trkpt>
<trkpt lat="49.59518428891897" lon="9.251838605850937">
<ele>235.8</ele>
<time>2024-05-09T14:13:48Z</time>
</trkpt>
<trkpt lat="49.59514615125954" lon="9.25184816122055">
<ele>236</ele>
<time>2024-05-09T14:13:49Z</time>
</trkpt>
<trkpt lat="49.59510801360011" lon="9.251856794580815">
<ele>236</ele>
<time>2024-05-09T14:13:50Z</time>
</trkpt>
<trkpt lat="49.59506987594068" lon="9.2518662661314">
<ele>236</ele>
<time>2024-05-09T14:13:51Z</time>
</trkpt>
<trkpt lat="49.59503173828125" lon="9.251872971653938">
<ele>236.2</ele>
<time>2024-05-09T14:13:52Z</time>
</trkpt>
<trkpt lat="49.59499351680279" lon="9.251883449032904">
<ele>236.4</ele>
<time>2024-05-09T14:13:53Z</time>
</trkpt>
<trkpt lat="49.59495537914336" lon="9.251893004402518">
<ele>236.6</ele>
<time>2024-05-09T14:13:54Z</time>
</trkpt>
<trkpt lat="49.594921097159386" lon="9.251905409619212">
<ele>236.8</ele>
<time>2024-05-09T14:13:55Z</time>
</trkpt>
<trkpt lat="49.59488673135638" lon="9.251914964988828">
<ele>237</ele>
<time>2024-05-09T14:13:56Z</time>
</trkpt>
<trkpt lat="49.59484859369695" lon="9.251923514530064">
<ele>237</ele>
<time>2024-05-09T14:13:57Z</time>
</trkpt>
<trkpt lat="49.59481808356941" lon="9.251933069899678">
<ele>237.2</ele>
<time>2024-05-09T14:13:58Z</time>
</trkpt>
<trkpt lat="49.59477994590998" lon="9.25194639712572">
<ele>237.4</ele>
<time>2024-05-09T14:13:59Z</time>
</trkpt>
<trkpt lat="49.594745580106974" lon="9.251959724351764">
<ele>237.6</ele>
<time>2024-05-09T14:14:00Z</time>
</trkpt>
<trkpt lat="49.594711298123" lon="9.25197028554976">
<ele>237.8</ele>
<time>2024-05-09T14:14:01Z</time>
</trkpt>
<trkpt lat="49.59467307664454" lon="9.251984534785151">
<ele>238</ele>
<time>2024-05-09T14:14:02Z</time>
</trkpt>
<trkpt lat="49.594642566516995" lon="9.251999789848924">
<ele>238.2</ele>
<time>2024-05-09T14:14:03Z</time>
</trkpt>
<trkpt lat="49.594608284533024" lon="9.252019822597504">
<ele>238.4</ele>
<time>2024-05-09T14:14:04Z</time>
</trkpt>
<trkpt lat="49.59457391873002" lon="9.252044633030891">
<ele>238.4</ele>
<time>2024-05-09T14:14:05Z</time>
</trkpt>
<trkpt lat="49.59454340860248" lon="9.252070365473628">
<ele>238.6</ele>
<time>2024-05-09T14:14:06Z</time>
</trkpt>
<trkpt lat="49.59451289847493" lon="9.252093248069286">
<ele>238.8</ele>
<time>2024-05-09T14:14:07Z</time>
</trkpt>
<trkpt lat="49.59447853267193" lon="9.252117136493323">
<ele>238.8</ele>
<time>2024-05-09T14:14:08Z</time>
</trkpt>
<trkpt lat="49.59445187821984" lon="9.252141946926711">
<ele>239</ele>
<time>2024-05-09T14:14:09Z</time>
</trkpt>
<trkpt lat="49.5944213680923" lon="9.25216960720718">
<ele>239.2</ele>
<time>2024-05-09T14:14:10Z</time>
</trkpt>
<trkpt lat="49.594390857964754" lon="9.252198189496994">
<ele>239.4</ele>
<time>2024-05-09T14:14:11Z</time>
</trkpt>
<trkpt lat="49.59436411969364" lon="9.252228699624538">
<ele>239.6</ele>
<time>2024-05-09T14:14:12Z</time>
</trkpt>
<trkpt lat="49.59433738142252" lon="9.252256359905005">
<ele>240</ele>
<time>2024-05-09T14:14:13Z</time>
</trkpt>
<trkpt lat="49.594306871294975" lon="9.25228494219482">
<ele>240.2</ele>
<time>2024-05-09T14:14:14Z</time>
</trkpt>
<trkpt lat="49.59427636116743" lon="9.252313608303666">
<ele>240.4</ele>
<time>2024-05-09T14:14:15Z</time>
</trkpt>
<trkpt lat="49.594249706715345" lon="9.252340262755752">
<ele>240.4</ele>
<time>2024-05-09T14:14:16Z</time>
</trkpt>
<trkpt lat="49.5942191965878" lon="9.25236507318914">
<ele>240.6</ele>
<time>2024-05-09T14:14:17Z</time>
</trkpt>
<trkpt lat="49.59419245831669" lon="9.252387033775449">
<ele>241</ele>
<time>2024-05-09T14:14:18Z</time>
</trkpt>
<trkpt lat="49.59416572004557" lon="9.252409916371109">
<ele>241.2</ele>
<time>2024-05-09T14:14:19Z</time>
</trkpt>
<trkpt lat="49.59413520991802" lon="9.252433720976114">
<ele>241.4</ele>
<time>2024-05-09T14:14:20Z</time>
</trkpt>
<trkpt lat="49.59410855546594" lon="9.252456603571773">
<ele>241.6</ele>
<time>2024-05-09T14:14:21Z</time>
</trkpt>
<trkpt lat="49.59407804533839" lon="9.252474708482625">
<ele>241.8</ele>
<time>2024-05-09T14:14:22Z</time>
</trkpt>
<trkpt lat="49.59404367953539" lon="9.252496669068933">
<ele>242</ele>
<time>2024-05-09T14:14:23Z</time>
</trkpt>
<trkpt lat="49.594013169407845" lon="9.25252147950232">
<ele>242.4</ele>
<time>2024-05-09T14:14:24Z</time>
</trkpt>
<trkpt lat="49.5939826592803" lon="9.252545284107327">
<ele>242.6</ele>
<time>2024-05-09T14:14:25Z</time>
</trkpt>
<trkpt lat="49.59395214915275" lon="9.252566322684288">
<ele>243</ele>
<time>2024-05-09T14:14:26Z</time>
</trkpt>
<trkpt lat="49.59392163902521" lon="9.252586355432868">
<ele>243.2</ele>
<time>2024-05-09T14:14:27Z</time>
</trkpt>
<trkpt lat="49.593894900754094" lon="9.252610160037875">
<ele>243.4</ele>
<time>2024-05-09T14:14:28Z</time>
</trkpt>
<trkpt lat="49.59386439062655" lon="9.252633042633532">
<ele>243.8</ele>
<time>2024-05-09T14:14:29Z</time>
</trkpt>
<trkpt lat="49.593833880499005" lon="9.252656931057572">
<ele>244</ele>
<time>2024-05-09T14:14:30Z</time>
</trkpt>
<trkpt lat="49.593799514696" lon="9.252675035968425">
<ele>244.2</ele>
<time>2024-05-09T14:14:31Z</time>
</trkpt>
<trkpt lat="49.59376900456846" lon="9.2526969127357">
<ele>244.4</ele>
<time>2024-05-09T14:14:32Z</time>
</trkpt>
<trkpt lat="49.59373849444091" lon="9.25271795131266">
<ele>244.6</ele>
<time>2024-05-09T14:14:33Z</time>
</trkpt>
<trkpt lat="49.59370798431337" lon="9.25273697823286">
<ele>245</ele>
<time>2024-05-09T14:14:34Z</time>
</trkpt>
<trkpt lat="49.593677474185824" lon="9.252755083143713">
<ele>245.2</ele>
<time>2024-05-09T14:14:35Z</time>
</trkpt>
<trkpt lat="49.59364310838282" lon="9.252771344035864">
<ele>245.4</ele>
<time>2024-05-09T14:14:36Z</time>
</trkpt>
<trkpt lat="49.59361259825528" lon="9.252784671261908">
<ele>245.6</ele>
<time>2024-05-09T14:14:37Z</time>
</trkpt>
<trkpt lat="49.593578316271305" lon="9.25279992632568">
<ele>246</ele>
<time>2024-05-09T14:14:38Z</time>
</trkpt>
<trkpt lat="49.593540178611875" lon="9.252813337370752">
<ele>246</ele>
<time>2024-05-09T14:14:39Z</time>
</trkpt>
<trkpt lat="49.59350966848433" lon="9.252826664596796">
<ele>246.2</ele>
<time>2024-05-09T14:14:40Z</time>
</trkpt>
<trkpt lat="49.59347530268133" lon="9.252841919660568">
<ele>246.4</ele>
<time>2024-05-09T14:14:41Z</time>
</trkpt>
<trkpt lat="49.59344093687832" lon="9.252853319048882">
<ele>246.6</ele>
<time>2024-05-09T14:14:42Z</time>
</trkpt>
<trkpt lat="49.59340665489435" lon="9.252866730093956">
<ele>247</ele>
<time>2024-05-09T14:14:43Z</time>
</trkpt>
<trkpt lat="49.59337228909135" lon="9.25287620164454">
<ele>247.2</ele>
<time>2024-05-09T14:14:44Z</time>
</trkpt>
<trkpt lat="49.59334177896381" lon="9.252895312383773">
<ele>247.4</ele>
<time>2024-05-09T14:14:45Z</time>
</trkpt>
<trkpt lat="49.59331126883626" lon="9.252906795591116">
<ele>247.6</ele>
<time>2024-05-09T14:14:46Z</time>
</trkpt>
<trkpt lat="49.59327690303326" lon="9.252915345132353">
<ele>247.6</ele>
<time>2024-05-09T14:14:47Z</time>
</trkpt>
<trkpt lat="49.593238765373826" lon="9.252922972664235">
<ele>247.8</ele>
<time>2024-05-09T14:14:48Z</time>
</trkpt>
<trkpt lat="49.593204483389854" lon="9.2529334500432">
<ele>248</ele>
<time>2024-05-09T14:14:49Z</time>
</trkpt>
<trkpt lat="49.59317397326231" lon="9.252944933250546">
<ele>248.2</ele>
<time>2024-05-09T14:14:50Z</time>
</trkpt>
<trkpt lat="49.59313575178385" lon="9.252949710935354">
<ele>248.2</ele>
<time>2024-05-09T14:14:51Z</time>
</trkpt>
<trkpt lat="49.59309761412442" lon="9.25295348279178">
<ele>248.4</ele>
<time>2024-05-09T14:14:52Z</time>
</trkpt>
<trkpt lat="49.59305947646499" lon="9.25295348279178">
<ele>248.4</ele>
<time>2024-05-09T14:14:53Z</time>
</trkpt>
<trkpt lat="49.59302133880555" lon="9.25295541062951">
<ele>248.6</ele>
<time>2024-05-09T14:14:54Z</time>
</trkpt>
<trkpt lat="49.5929794292897" lon="9.25295348279178">
<ele>248.6</ele>
<time>2024-05-09T14:14:55Z</time>
</trkpt>
<trkpt lat="49.592945063486695" lon="9.252951554954052">
<ele>248.8</ele>
<time>2024-05-09T14:14:56Z</time>
</trkpt>
<trkpt lat="49.592906925827265" lon="9.252951554954052">
<ele>248.8</ele>
<time>2024-05-09T14:14:57Z</time>
</trkpt>
<trkpt lat="49.592864932492375" lon="9.25295348279178">
<ele>248.8</ele>
<time>2024-05-09T14:14:58Z</time>
</trkpt>
<trkpt lat="49.592826794832945" lon="9.25295348279178">
<ele>249</ele>
<time>2024-05-09T14:14:59Z</time>
</trkpt>
<trkpt lat="49.592784801498055" lon="9.252951554954052">
<ele>249</ele>
<time>2024-05-09T14:15:00Z</time>
</trkpt>
<trkpt lat="49.592746663838625" lon="9.252946777269244">
<ele>249</ele>
<time>2024-05-09T14:15:01Z</time>
</trkpt>
<trkpt lat="49.59270475432277" lon="9.252943005412815">
<ele>249</ele>
<time>2024-05-09T14:15:02Z</time>
</trkpt>
<trkpt lat="49.59265898913145" lon="9.252935377880933">
<ele>249.2</ele>
<time>2024-05-09T14:15:03Z</time>
</trkpt>
<trkpt lat="49.59262076765299" lon="9.252922972664235">
<ele>249.2</ele>
<time>2024-05-09T14:15:04Z</time>
</trkpt>
<trkpt lat="49.59258262999356" lon="9.25291341729462">
<ele>249.2</ele>
<time>2024-05-09T14:15:05Z</time>
</trkpt>
<trkpt lat="49.59253686480224" lon="9.252904867753386">
<ele>249.4</ele>
<time>2024-05-09T14:15:06Z</time>
</trkpt>
<trkpt lat="49.592494955286384" lon="9.25289816223085">
<ele>249.4</ele>
<time>2024-05-09T14:15:07Z</time>
</trkpt>
<trkpt lat="49.59244533441961" lon="9.252889612689614">
<ele>249.4</ele>
<time>2024-05-09T14:15:08Z</time>
</trkpt>
<trkpt lat="49.59239956922829" lon="9.252881985157728">
<ele>249.6</ele>
<time>2024-05-09T14:15:09Z</time>
</trkpt>
<trkpt lat="49.59234994836152" lon="9.252868574112654">
<ele>249.6</ele>
<time>2024-05-09T14:15:10Z</time>
</trkpt>
<trkpt lat="49.592292783781886" lon="9.252851475030184">
<ele>249.6</ele>
<time>2024-05-09T14:15:11Z</time>
</trkpt>
<trkpt lat="49.59224316291511" lon="9.25283806398511">
<ele>249.6</ele>
<time>2024-05-09T14:15:12Z</time>
</trkpt>
<trkpt lat="49.59218977019191" lon="9.252828592434524">
<ele>249.6</ele>
<time>2024-05-09T14:15:13Z</time>
</trkpt>
<trkpt lat="49.592132521793246" lon="9.252815181389453">
<ele>249.6</ele>
<time>2024-05-09T14:15:14Z</time>
</trkpt>
<trkpt lat="49.592075273394585" lon="9.2527970764786">
<ele>249.6</ele>
<time>2024-05-09T14:15:15Z</time>
</trkpt>
<trkpt lat="49.59202188067138" lon="9.252783749252558">
<ele>249.6</ele>
<time>2024-05-09T14:15:16Z</time>
</trkpt>
<trkpt lat="49.59196848794818" lon="9.252770422026517">
<ele>249.6</ele>
<time>2024-05-09T14:15:17Z</time>
</trkpt>
<trkpt lat="49.59190746769309" lon="9.252751311287284">
<ele>249.6</ele>
<time>2024-05-09T14:15:18Z</time>
</trkpt>
<trkpt lat="49.59184259176254" lon="9.252733206376432">
<ele>249.6</ele>
<time>2024-05-09T14:15:19Z</time>
</trkpt>
<trkpt lat="49.59177779965103" lon="9.25271694548428">
<ele>249.6</ele>
<time>2024-05-09T14:15:20Z</time>
</trkpt>
<trkpt lat="49.591716695576906" lon="9.252701690420508">
<ele>249.4</ele>
<time>2024-05-09T14:15:21Z</time>
</trkpt>
<trkpt lat="49.59165567532182" lon="9.252688363194466">
<ele>249.2</ele>
<time>2024-05-09T14:15:22Z</time>
</trkpt>
<trkpt lat="49.59158702753484" lon="9.252676963806152">
<ele>249.2</ele>
<time>2024-05-09T14:15:23Z</time>
</trkpt>
<trkpt lat="49.591522151604295" lon="9.252663552761078">
<ele>248.8</ele>
<time>2024-05-09T14:15:24Z</time>
</trkpt>
<trkpt lat="49.59145350381732" lon="9.252648297697306">
<ele>248.6</ele>
<time>2024-05-09T14:15:25Z</time>
</trkpt>
<trkpt lat="49.591384856030345" lon="9.252633042633532">
<ele>248.2</ele>
<time>2024-05-09T14:15:26Z</time>
</trkpt>
<trkpt lat="49.59131620824337" lon="9.25261870957911">
<ele>247.8</ele>
<time>2024-05-09T14:15:27Z</time>
</trkpt>
<trkpt lat="49.591243704780936" lon="9.252606388181448">
<ele>247.6</ele>
<time>2024-05-09T14:15:28Z</time>
</trkpt>
<trkpt lat="49.5911712013185" lon="9.252594904974105">
<ele>247.4</ele>
<time>2024-05-09T14:15:29Z</time>
</trkpt>
<trkpt lat="49.59109492599964" lon="9.25258157774806">
<ele>247</ele>
<time>2024-05-09T14:15:30Z</time>
</trkpt>
<trkpt lat="49.59101865068078" lon="9.252568166702986">
<ele>246.8</ele>
<time>2024-05-09T14:15:31Z</time>
</trkpt>
<trkpt lat="49.59094614721835" lon="9.252556767314672">
<ele>246.6</ele>
<time>2024-05-09T14:15:32Z</time>
</trkpt>
<trkpt lat="49.590869871899486" lon="9.252545284107327">
<ele>246.6</ele>
<time>2024-05-09T14:15:33Z</time>
</trkpt>
<trkpt lat="49.590793596580625" lon="9.252532878890634">
<ele>246.4</ele>
<time>2024-05-09T14:15:34Z</time>
</trkpt>
<trkpt lat="49.59072109311819" lon="9.252525251358747">
<ele>246</ele>
<time>2024-05-09T14:15:35Z</time>
</trkpt>
<trkpt lat="49.59064481779933" lon="9.252514773979785">
<ele>245.8</ele>
<time>2024-05-09T14:15:36Z</time>
</trkpt>
<trkpt lat="49.59056854248047" lon="9.252506224438548">
<ele>245.6</ele>
<time>2024-05-09T14:15:37Z</time>
</trkpt>
<trkpt lat="49.59048841148615" lon="9.25249951891601">
<ele>245.4</ele>
<time>2024-05-09T14:15:38Z</time>
</trkpt>
<trkpt lat="49.59041213616729" lon="9.252492897212504">
<ele>245</ele>
<time>2024-05-09T14:15:39Z</time>
</trkpt>
<trkpt lat="49.59033200517297" lon="9.252491891384125">
<ele>244.8</ele>
<time>2024-05-09T14:15:40Z</time>
</trkpt>
<trkpt lat="49.59025187417865" lon="9.252486191689968">
<ele>244.6</ele>
<time>2024-05-09T14:15:41Z</time>
</trkpt>
<trkpt lat="49.59017559885979" lon="9.25248526968062">
<ele>244.4</ele>
<time>2024-05-09T14:15:42Z</time>
</trkpt>
<trkpt lat="49.59009546786547" lon="9.25248141400516">
<ele>244.2</ele>
<time>2024-05-09T14:15:43Z</time>
</trkpt>
<trkpt lat="49.590019192546606" lon="9.252478564158082">
<ele>244</ele>
<time>2024-05-09T14:15:44Z</time>
</trkpt>
<trkpt lat="49.589939061552286" lon="9.252472864463924">
<ele>243.8</ele>
<time>2024-05-09T14:15:45Z</time>
</trkpt>
<trkpt lat="49.58986655808985" lon="9.252470014616849">
<ele>243.6</ele>
<time>2024-05-09T14:15:46Z</time>
</trkpt>
<trkpt lat="49.58979028277099" lon="9.252474708482625">
<ele>243.4</ele>
<time>2024-05-09T14:15:47Z</time>
</trkpt>
<trkpt lat="49.58971786312759" lon="9.252476636320353">
<ele>243.4</ele>
<time>2024-05-09T14:15:48Z</time>
</trkpt>
<trkpt lat="49.5896415039897" lon="9.252478564158082">
<ele>243.2</ele>
<time>2024-05-09T14:15:49Z</time>
</trkpt>
<trkpt lat="49.58957285620272" lon="9.25248141400516">
<ele>243</ele>
<time>2024-05-09T14:15:50Z</time>
</trkpt>
<trkpt lat="49.58950420841575" lon="9.252486191689968">
<ele>243</ele>
<time>2024-05-09T14:15:51Z</time>
</trkpt>
<trkpt lat="49.5894393324852" lon="9.252492897212504">
<ele>242.8</ele>
<time>2024-05-09T14:15:52Z</time>
</trkpt>
<trkpt lat="49.589370684698224" lon="9.252498596906662">
<ele>242.8</ele>
<time>2024-05-09T14:15:53Z</time>
</trkpt>
<trkpt lat="49.58930580876768" lon="9.2525053024292">
<ele>242.6</ele>
<time>2024-05-09T14:15:54Z</time>
</trkpt>
<trkpt lat="49.58924101665616" lon="9.252511924132705">
<ele>242.6</ele>
<time>2024-05-09T14:15:55Z</time>
</trkpt>
<trkpt lat="49.58917991258204" lon="9.25252340734005">
<ele>242.4</ele>
<time>2024-05-09T14:15:56Z</time>
</trkpt>
<trkpt lat="49.58911512047053" lon="9.252534806728365">
<ele>242.4</ele>
<time>2024-05-09T14:15:57Z</time>
</trkpt>
<trkpt lat="49.58905787207186" lon="9.252548217773438">
<ele>242.4</ele>
<time>2024-05-09T14:15:58Z</time>
</trkpt>
<trkpt lat="49.58899685181677" lon="9.25256347283721">
<ele>242.2</ele>
<time>2024-05-09T14:15:59Z</time>
</trkpt>
<trkpt lat="49.588935831561685" lon="9.25257964991033">
<ele>242.2</ele>
<time>2024-05-09T14:16:00Z</time>
</trkpt>
<trkpt lat="49.58887481130659" lon="9.252594904974105">
<ele>242.4</ele>
<time>2024-05-09T14:16:01Z</time>
</trkpt>
<trkpt lat="49.588817562907934" lon="9.252606388181448">
<ele>242.4</ele>
<time>2024-05-09T14:16:02Z</time>
</trkpt>
<trkpt lat="49.58876417018473" lon="9.25262164324522">
<ele>242.4</ele>
<time>2024-05-09T14:16:03Z</time>
</trkpt>
<trkpt lat="49.58870692178607" lon="9.252636898308992">
<ele>242.6</ele>
<time>2024-05-09T14:16:04Z</time>
</trkpt>
<trkpt lat="49.58864967338741" lon="9.252651147544384">
<ele>242.6</ele>
<time>2024-05-09T14:16:05Z</time>
</trkpt>
<trkpt lat="49.588596280664206" lon="9.252671180292964">
<ele>242.8</ele>
<time>2024-05-09T14:16:06Z</time>
</trkpt>
<trkpt lat="49.588542887941" lon="9.252686435356736">
<ele>242.8</ele>
<time>2024-05-09T14:16:07Z</time>
</trkpt>
<trkpt lat="49.5884894952178" lon="9.252703618258238">
<ele>243</ele>
<time>2024-05-09T14:16:08Z</time>
</trkpt>
<trkpt lat="49.588439874351025" lon="9.252721723169088">
<ele>243</ele>
<time>2024-05-09T14:16:09Z</time>
</trkpt>
<trkpt lat="49.58839033730328" lon="9.252743683755398">
<ele>243.2</ele>
<time>2024-05-09T14:16:10Z</time>
</trkpt>
<trkpt lat="49.58834457211197" lon="9.252761788666248">
<ele>243.2</ele>
<time>2024-05-09T14:16:11Z</time>
</trkpt>
<trkpt lat="49.58829495124519" lon="9.252783749252558">
<ele>243.2</ele>
<time>2024-05-09T14:16:12Z</time>
</trkpt>
<trkpt lat="49.58824918605387" lon="9.25279992632568">
<ele>243.4</ele>
<time>2024-05-09T14:16:13Z</time>
</trkpt>
<trkpt lat="49.58820342086256" lon="9.25281710922718">
<ele>243.4</ele>
<time>2024-05-09T14:16:14Z</time>
</trkpt>
<trkpt lat="49.58815757185221" lon="9.252836219966412">
<ele>243.6</ele>
<time>2024-05-09T14:16:15Z</time>
</trkpt>
<trkpt lat="49.58811180666089" lon="9.252856252714992">
<ele>243.8</ele>
<time>2024-05-09T14:16:16Z</time>
</trkpt>
<trkpt lat="49.58806226961315" lon="9.25287812948227">
<ele>243.8</ele>
<time>2024-05-09T14:16:17Z</time>
</trkpt>
<trkpt lat="49.58801650442183" lon="9.252902939915655">
<ele>244</ele>
<time>2024-05-09T14:16:18Z</time>
</trkpt>
<trkpt lat="49.58797828294337" lon="9.252928672358394">
<ele>244.2</ele>
<time>2024-05-09T14:16:19Z</time>
</trkpt>
<trkpt lat="49.587928745895624" lon="9.252949710935354">
<ele>244.2</ele>
<time>2024-05-09T14:16:20Z</time>
</trkpt>
<trkpt lat="49.587886752560735" lon="9.252969659864902">
<ele>244.4</ele>
<time>2024-05-09T14:16:21Z</time>
</trkpt>
<trkpt lat="49.58784484304488" lon="9.252991620451212">
<ele>244.4</ele>
<time>2024-05-09T14:16:22Z</time>
</trkpt>
<trkpt lat="49.58779899403453" lon="9.25301450304687">
<ele>244.4</ele>
<time>2024-05-09T14:16:23Z</time>
</trkpt>
<trkpt lat="49.58775322884321" lon="9.25303646363318">
<ele>244.6</ele>
<time>2024-05-09T14:16:24Z</time>
</trkpt>
<trkpt lat="49.587711319327354" lon="9.253058424219487">
<ele>244.8</ele>
<time>2024-05-09T14:16:25Z</time>
</trkpt>
<trkpt lat="49.58766555413604" lon="9.253083150833843">
<ele>245</ele>
<time>2024-05-09T14:16:26Z</time>
</trkpt>
<trkpt lat="49.58761970512569" lon="9.253111816942692">
<ele>245.2</ele>
<time>2024-05-09T14:16:27Z</time>
</trkpt>
<trkpt lat="49.58757393993437" lon="9.253140399232509">
<ele>245.6</ele>
<time>2024-05-09T14:16:28Z</time>
</trkpt>
<trkpt lat="49.587528174743056" lon="9.253168059512973">
<ele>245.8</ele>
<time>2024-05-09T14:16:29Z</time>
</trkpt>
<trkpt lat="49.5874862652272" lon="9.253196641802788">
<ele>246</ele>
<time>2024-05-09T14:16:30Z</time>
</trkpt>
<trkpt lat="49.58744427189231" lon="9.253221452236176">
<ele>246.4</ele>
<time>2024-05-09T14:16:31Z</time>
</trkpt>
<trkpt lat="49.58740227855742" lon="9.253246262669563">
<ele>246.6</ele>
<time>2024-05-09T14:16:32Z</time>
</trkpt>
<trkpt lat="49.58736036904156" lon="9.2532719951123">
<ele>246.8</ele>
<time>2024-05-09T14:16:33Z</time>
</trkpt>
<trkpt lat="49.58731837570667" lon="9.253298733383415">
<ele>246.8</ele>
<time>2024-05-09T14:16:34Z</time>
</trkpt>
<trkpt lat="49.58728023804724" lon="9.253321615979075">
<ele>247</ele>
<time>2024-05-09T14:16:35Z</time>
</trkpt>
<trkpt lat="49.58723824471235" lon="9.253346426412463">
<ele>247.2</ele>
<time>2024-05-09T14:16:36Z</time>
</trkpt>
<trkpt lat="49.58720010705292" lon="9.253373080864549">
<ele>247.2</ele>
<time>2024-05-09T14:16:37Z</time>
</trkpt>
<trkpt lat="49.58716196939349" lon="9.253401746973395">
<ele>247.4</ele>
<time>2024-05-09T14:16:38Z</time>
</trkpt>
<trkpt lat="49.5871199760586" lon="9.25342840142548">
<ele>247.6</ele>
<time>2024-05-09T14:16:39Z</time>
</trkpt>
<trkpt lat="49.58708183839917" lon="9.253457989543676">
<ele>247.8</ele>
<time>2024-05-09T14:16:40Z</time>
</trkpt>
<trkpt lat="49.58704370073974" lon="9.25348849967122">
<ele>247.8</ele>
<time>2024-05-09T14:16:41Z</time>
</trkpt>
<trkpt lat="49.58700941875577" lon="9.253518087789416">
<ele>248</ele>
<time>2024-05-09T14:16:42Z</time>
</trkpt>
<trkpt lat="49.58696742542088" lon="9.25355144776404">
<ele>248</ele>
<time>2024-05-09T14:16:43Z</time>
</trkpt>
<trkpt lat="49.58693305961788" lon="9.253581957891583">
<ele>248.2</ele>
<time>2024-05-09T14:16:44Z</time>
</trkpt>
<trkpt lat="49.58689492195845" lon="9.253613390028477">
<ele>248.2</ele>
<time>2024-05-09T14:16:45Z</time>
</trkpt>
<trkpt lat="49.586856784299016" lon="9.253646833822131">
<ele>248.2</ele>
<time>2024-05-09T14:16:46Z</time>
</trkpt>
<trkpt lat="49.58681487478316" lon="9.253680193796754">
<ele>248.2</ele>
<time>2024-05-09T14:16:47Z</time>
</trkpt>
<trkpt lat="49.586776653304696" lon="9.253718331456184">
<ele>248.4</ele>
<time>2024-05-09T14:16:48Z</time>
</trkpt>
<trkpt lat="49.58674237132072" lon="9.253753619268537">
<ele>248.4</ele>
<time>2024-05-09T14:16:49Z</time>
</trkpt>
<trkpt lat="49.586704233661294" lon="9.25378697924316">
<ele>248.6</ele>
<time>2024-05-09T14:16:50Z</time>
</trkpt>
<trkpt lat="49.58666986785829" lon="9.253818495199084">
<ele>248.6</ele>
<time>2024-05-09T14:16:51Z</time>
</trkpt>
<trkpt lat="49.586639357730746" lon="9.253849927335978">
<ele>248.8</ele>
<time>2024-05-09T14:16:52Z</time>
</trkpt>
<trkpt lat="49.58660499192774" lon="9.2538832873106">
<ele>249</ele>
<time>2024-05-09T14:16:53Z</time>
</trkpt>
<trkpt lat="49.58656685426831" lon="9.253916731104256">
<ele>249.2</ele>
<time>2024-05-09T14:16:54Z</time>
</trkpt>
<trkpt lat="49.58653634414077" lon="9.253950091078876">
<ele>249.4</ele>
<time>2024-05-09T14:16:55Z</time>
</trkpt>
<trkpt lat="49.58649820648134" lon="9.2539834510535">
<ele>249.6</ele>
<time>2024-05-09T14:16:56Z</time>
</trkpt>
<trkpt lat="49.586463924497366" lon="9.254018738865852">
<ele>249.6</ele>
<time>2024-05-09T14:16:57Z</time>
</trkpt>
<trkpt lat="49.58642955869436" lon="9.254054948687552">
<ele>250</ele>
<time>2024-05-09T14:16:58Z</time>
</trkpt>
<trkpt lat="49.58639519289136" lon="9.254093170166016">
<ele>250.2</ele>
<time>2024-05-09T14:16:59Z</time>
</trkpt>
<trkpt lat="49.58636091090739" lon="9.254126530140638">
<ele>250.2</ele>
<time>2024-05-09T14:17:00Z</time>
</trkpt>
<trkpt lat="49.586326545104384" lon="9.254163661971688">
<ele>250.4</ele>
<time>2024-05-09T14:17:01Z</time>
</trkpt>
<trkpt lat="49.586288407444954" lon="9.25419995561242">
<ele>250.8</ele>
<time>2024-05-09T14:17:02Z</time>
</trkpt>
<trkpt lat="49.58625026978552" lon="9.254236165434122">
<ele>251</ele>
<time>2024-05-09T14:17:03Z</time>
</trkpt>
<trkpt lat="49.58621590398252" lon="9.254273381084204">
<ele>251</ele>
<time>2024-05-09T14:17:04Z</time>
</trkpt>
<trkpt lat="49.58618162199855" lon="9.254309590905905">
<ele>251.2</ele>
<time>2024-05-09T14:17:05Z</time>
</trkpt>
<trkpt lat="49.58614348433912" lon="9.254344878718255">
<ele>251.2</ele>
<time>2024-05-09T14:17:06Z</time>
</trkpt>
<trkpt lat="49.586109118536115" lon="9.254383016377687">
<ele>251.2</ele>
<time>2024-05-09T14:17:07Z</time>
</trkpt>
<trkpt lat="49.58607475273311" lon="9.254425009712577">
<ele>251.4</ele>
<time>2024-05-09T14:17:08Z</time>
</trkpt>
<trkpt lat="49.58604047074914" lon="9.254467003047466">
<ele>251.6</ele>
<time>2024-05-09T14:17:09Z</time>
</trkpt>
<trkpt lat="49.58600610494614" lon="9.254505140706897">
<ele>251.6</ele>
<time>2024-05-09T14:17:10Z</time>
</trkpt>
<trkpt lat="49.58597559481859" lon="9.254547050222754">
<ele>251.8</ele>
<time>2024-05-09T14:17:11Z</time>
</trkpt>
<trkpt lat="49.58594131283462" lon="9.254586193710566">
<ele>251.8</ele>
<time>2024-05-09T14:17:12Z</time>
</trkpt>
<trkpt lat="49.58591071888805" lon="9.254630031064153">
<ele>252</ele>
<time>2024-05-09T14:17:13Z</time>
</trkpt>
<trkpt lat="49.58587643690407" lon="9.25467487424612">
<ele>252</ele>
<time>2024-05-09T14:17:14Z</time>
</trkpt>
<trkpt lat="49.58584207110107" lon="9.254719717428088">
<ele>252.2</ele>
<time>2024-05-09T14:17:15Z</time>
</trkpt>
<trkpt lat="49.5858077891171" lon="9.254761626943946">
<ele>252.4</ele>
<time>2024-05-09T14:17:16Z</time>
</trkpt>
<trkpt lat="49.585773423314095" lon="9.254806470125914">
<ele>252.6</ele>
<time>2024-05-09T14:17:17Z</time>
</trkpt>
<trkpt lat="49.58573905751109" lon="9.25485131330788">
<ele>252.8</ele>
<time>2024-05-09T14:17:18Z</time>
</trkpt>
<trkpt lat="49.58570477552712" lon="9.254899928346276">
<ele>253</ele>
<time>2024-05-09T14:17:19Z</time>
</trkpt>
<trkpt lat="49.58567040972411" lon="9.254948543384671">
<ele>253</ele>
<time>2024-05-09T14:17:20Z</time>
</trkpt>
<trkpt lat="49.58563989959657" lon="9.254995314404368">
<ele>253.2</ele>
<time>2024-05-09T14:17:21Z</time>
</trkpt>
<trkpt lat="49.5856056176126" lon="9.255043007433414">
<ele>253.2</ele>
<time>2024-05-09T14:17:22Z</time>
</trkpt>
<trkpt lat="49.585575023666024" lon="9.25509355030954">
<ele>253.4</ele>
<time>2024-05-09T14:17:23Z</time>
</trkpt>
<trkpt lat="49.58554451353848" lon="9.255140237510204">
<ele>253.6</ele>
<time>2024-05-09T14:17:24Z</time>
</trkpt>
<trkpt lat="49.585514003410935" lon="9.25518793053925">
<ele>253.8</ele>
<time>2024-05-09T14:17:25Z</time>
</trkpt>
<trkpt lat="49.58547972142696" lon="9.255238473415377">
<ele>254.2</ele>
<time>2024-05-09T14:17:26Z</time>
</trkpt>
<trkpt lat="49.58544921129942" lon="9.25528616644442">
<ele>254.4</ele>
<time>2024-05-09T14:17:27Z</time>
</trkpt>
<trkpt lat="49.585418701171875" lon="9.255332937464118">
<ele>254.6</ele>
<time>2024-05-09T14:17:28Z</time>
</trkpt>
<trkpt lat="49.5853881072253" lon="9.255379624664783">
<ele>255</ele>
<time>2024-05-09T14:17:29Z</time>
</trkpt>
<trkpt lat="49.58535382524133" lon="9.2554253898561">
<ele>255</ele>
<time>2024-05-09T14:17:30Z</time>
</trkpt>
<trkpt lat="49.58532331511378" lon="9.255471155047417">
<ele>255.2</ele>
<time>2024-05-09T14:17:31Z</time>
</trkpt>
<trkpt lat="49.585296576842666" lon="9.255517004057763">
<ele>255.2</ele>
<time>2024-05-09T14:17:32Z</time>
</trkpt>
<trkpt lat="49.58526992239058" lon="9.2555617634207">
<ele>255.4</ele>
<time>2024-05-09T14:17:33Z</time>
</trkpt>
<trkpt lat="49.58524318411946" lon="9.255608534440398">
<ele>255.4</ele>
<time>2024-05-09T14:17:34Z</time>
</trkpt>
<trkpt lat="49.585216445848346" lon="9.255658071488142">
<ele>255.4</ele>
<time>2024-05-09T14:17:35Z</time>
</trkpt>
<trkpt lat="49.5851859357208" lon="9.25570484250784">
<ele>255.4</ele>
<time>2024-05-09T14:17:36Z</time>
</trkpt>
<trkpt lat="49.58516305312514" lon="9.255748679861426">
<ele>255.4</ele>
<time>2024-05-09T14:17:37Z</time>
</trkpt>
<trkpt lat="49.58513639867306" lon="9.255789751186969">
<ele>255.6</ele>
<time>2024-05-09T14:17:38Z</time>
</trkpt>
<trkpt lat="49.5851135160774" lon="9.255833588540554">
<ele>255.8</ele>
<time>2024-05-09T14:17:39Z</time>
</trkpt>
<trkpt lat="49.585083005949855" lon="9.255874576047065">
<ele>255.8</ele>
<time>2024-05-09T14:17:40Z</time>
</trkpt>
<trkpt lat="49.58505626767874" lon="9.255918497219682">
<ele>256</ele>
<time>2024-05-09T14:17:41Z</time>
</trkpt>
<trkpt lat="49.58502952940762" lon="9.25596040673554">
<ele>256.2</ele>
<time>2024-05-09T14:17:42Z</time>
</trkpt>
<trkpt lat="49.58500664681196" lon="9.256005249917507">
<ele>256.4</ele>
<time>2024-05-09T14:17:43Z</time>
</trkpt>
<trkpt lat="49.58497999235988" lon="9.256050093099477">
<ele>256.6</ele>
<time>2024-05-09T14:17:44Z</time>
</trkpt>
<trkpt lat="49.58495325408876" lon="9.25609678030014">
<ele>256.799</ele>
<time>2024-05-09T14:17:45Z</time>
</trkpt>
<trkpt lat="49.584926599636674" lon="9.256141623482108">
<ele>256.799</ele>
<time>2024-05-09T14:17:46Z</time>
</trkpt>
<trkpt lat="49.584903717041016" lon="9.256186466664076">
<ele>257</ele>
<time>2024-05-09T14:17:47Z</time>
</trkpt>
<trkpt lat="49.5848769787699" lon="9.256231226027012">
<ele>257</ele>
<time>2024-05-09T14:17:48Z</time>
</trkpt>
<trkpt lat="49.58485024049878" lon="9.25627707503736">
<ele>257</ele>
<time>2024-05-09T14:17:49Z</time>
</trkpt>
<trkpt lat="49.58482735790312" lon="9.256321834400296">
<ele>257.2</ele>
<time>2024-05-09T14:17:50Z</time>
</trkpt>
<trkpt lat="49.584804475307465" lon="9.256369527429342">
<ele>257.2</ele>
<time>2024-05-09T14:17:51Z</time>
</trkpt>
<trkpt lat="49.584781592711806" lon="9.25641344860196">
<ele>257.2</ele>
<time>2024-05-09T14:17:52Z</time>
</trkpt>
<trkpt lat="49.58475493825972" lon="9.2564563639462">
<ele>257.2</ele>
<time>2024-05-09T14:17:53Z</time>
</trkpt>
<trkpt lat="49.58472819998861" lon="9.256500201299788">
<ele>257.4</ele>
<time>2024-05-09T14:17:54Z</time>
</trkpt>
<trkpt lat="49.584705317392945" lon="9.256545044481754">
<ele>257.4</ele>
<time>2024-05-09T14:17:55Z</time>
</trkpt>
<trkpt lat="49.58467857912183" lon="9.25659173168242">
<ele>257.4</ele>
<time>2024-05-09T14:17:56Z</time>
</trkpt>
<trkpt lat="49.58465569652617" lon="9.256636574864388">
<ele>257.6</ele>
<time>2024-05-09T14:17:57Z</time>
</trkpt>
<trkpt lat="49.58462904207408" lon="9.256683345884085">
<ele>257.6</ele>
<time>2024-05-09T14:17:58Z</time>
</trkpt>
<trkpt lat="49.58460230380297" lon="9.25673003308475">
<ele>257.6</ele>
<time>2024-05-09T14:17:59Z</time>
</trkpt>
<trkpt lat="49.58457942120731" lon="9.256776804104447">
<ele>257.799</ele>
<time>2024-05-09T14:18:00Z</time>
</trkpt>
<trkpt lat="49.58455268293619" lon="9.256825419142842">
<ele>257.799</ele>
<time>2024-05-09T14:18:01Z</time>
</trkpt>
<trkpt lat="49.58452980034053" lon="9.256874956190586">
<ele>257.799</ele>
<time>2024-05-09T14:18:02Z</time>
</trkpt>
<trkpt lat="49.58450314588845" lon="9.256926504895093">
<ele>257.799</ele>
<time>2024-05-09T14:18:03Z</time>
</trkpt>
<trkpt lat="49.58448026329279" lon="9.256977047771215">
<ele>258</ele>
<time>2024-05-09T14:18:04Z</time>
</trkpt>
<trkpt lat="49.58445352502167" lon="9.257026668637993">
<ele>258</ele>
<time>2024-05-09T14:18:05Z</time>
</trkpt>
<trkpt lat="49.584430642426014" lon="9.257075283676386">
<ele>258.2</ele>
<time>2024-05-09T14:18:06Z</time>
</trkpt>
<trkpt lat="49.58440398797393" lon="9.257122976705432">
<ele>258.4</ele>
<time>2024-05-09T14:18:07Z</time>
</trkpt>
<trkpt lat="49.58437724970281" lon="9.257173519581556">
<ele>258.4</ele>
<time>2024-05-09T14:18:08Z</time>
</trkpt>
<trkpt lat="49.58434673957527" lon="9.2572230566293">
<ele>258.6</ele>
<time>2024-05-09T14:18:09Z</time>
</trkpt>
<trkpt lat="49.58432000130415" lon="9.257271755486729">
<ele>258.799</ele>
<time>2024-05-09T14:18:10Z</time>
</trkpt>
<trkpt lat="49.584293346852064" lon="9.25732129253447">
<ele>258.799</ele>
<time>2024-05-09T14:18:11Z</time>
</trkpt>
<trkpt lat="49.58426283672452" lon="9.257373763248324">
<ele>258.799</ele>
<time>2024-05-09T14:18:12Z</time>
</trkpt>
<trkpt lat="49.584232326596975" lon="9.257430005818604">
<ele>259</ele>
<time>2024-05-09T14:18:13Z</time>
</trkpt>
<trkpt lat="49.5842017326504" lon="9.257485326379538">
<ele>259.2</ele>
<time>2024-05-09T14:18:14Z</time>
</trkpt>
<trkpt lat="49.584175078198314" lon="9.25753972493112">
<ele>259.4</ele>
<time>2024-05-09T14:18:15Z</time>
</trkpt>
<trkpt lat="49.58414456807077" lon="9.257595045492051">
<ele>259.6</ele>
<time>2024-05-09T14:18:16Z</time>
</trkpt>
<trkpt lat="49.584114057943225" lon="9.257653215900064">
<ele>259.799</ele>
<time>2024-05-09T14:18:17Z</time>
</trkpt>
<trkpt lat="49.58408354781568" lon="9.257708536460996">
<ele>260</ele>
<time>2024-05-09T14:18:18Z</time>
</trkpt>
<trkpt lat="49.584053037688136" lon="9.257762851193547">
<ele>260</ele>
<time>2024-05-09T14:18:19Z</time>
</trkpt>
<trkpt lat="49.58402244374156" lon="9.257820099592209">
<ele>260.2</ele>
<time>2024-05-09T14:18:20Z</time>
</trkpt>
<trkpt lat="49.58398816175759" lon="9.25787542015314">
<ele>260.4</ele>
<time>2024-05-09T14:18:21Z</time>
</trkpt>
<trkpt lat="49.58395765163005" lon="9.257933590561152">
<ele>260.4</ele>
<time>2024-05-09T14:18:22Z</time>
</trkpt>
<trkpt lat="49.58392328582704" lon="9.257991760969162">
<ele>260.4</ele>
<time>2024-05-09T14:18:23Z</time>
</trkpt>
<trkpt lat="49.58388900384307" lon="9.258049931377172">
<ele>260.4</ele>
<time>2024-05-09T14:18:24Z</time>
</trkpt>
<trkpt lat="49.58385840989649" lon="9.258110029622912">
<ele>260.6</ele>
<time>2024-05-09T14:18:25Z</time>
</trkpt>
<trkpt lat="49.58382412791252" lon="9.258166272193192">
<ele>260.6</ele>
<time>2024-05-09T14:18:26Z</time>
</trkpt>
<trkpt lat="49.58378599025309" lon="9.258226370438932">
<ele>260.4</ele>
<time>2024-05-09T14:18:27Z</time>
</trkpt>
<trkpt lat="49.58375162445009" lon="9.258283535018563">
<ele>260.4</ele>
<time>2024-05-09T14:18:28Z</time>
</trkpt>
<trkpt lat="49.58371348679066" lon="9.258341789245604">
<ele>260.4</ele>
<time>2024-05-09T14:18:29Z</time>
</trkpt>
<trkpt lat="49.583679120987654" lon="9.258401803672314">
<ele>260.4</ele>
<time>2024-05-09T14:18:30Z</time>
</trkpt>
<trkpt lat="49.58364483900368" lon="9.258459974080324">
<ele>260.4</ele>
<time>2024-05-09T14:18:31Z</time>
</trkpt>
<trkpt lat="49.58360670134425" lon="9.258518144488336">
<ele>260.6</ele>
<time>2024-05-09T14:18:32Z</time>
</trkpt>
<trkpt lat="49.58356470800936" lon="9.258573465049269">
<ele>260.6</ele>
<time>2024-05-09T14:18:33Z</time>
</trkpt>
<trkpt lat="49.58352271467447" lon="9.258631635457276">
<ele>260.6</ele>
<time>2024-05-09T14:18:34Z</time>
</trkpt>
<trkpt lat="49.58347694948315" lon="9.258689805865288">
<ele>260.6</ele>
<time>2024-05-09T14:18:35Z</time>
</trkpt>
<trkpt lat="49.58343118429184" lon="9.25874705426395">
<ele>260.6</ele>
<time>2024-05-09T14:18:36Z</time>
</trkpt>
<trkpt lat="49.58338927477598" lon="9.258808074519038">
<ele>260.6</ele>
<time>2024-05-09T14:18:37Z</time>
</trkpt>
<trkpt lat="49.58334728144109" lon="9.258872028440235">
<ele>260.6</ele>
<time>2024-05-09T14:18:38Z</time>
</trkpt>
<trkpt lat="49.583301516249776" lon="9.258936820551751">
<ele>260.6</ele>
<time>2024-05-09T14:18:39Z</time>
</trkpt>
<trkpt lat="49.58325575105846" lon="9.2590016964823">
<ele>260.6</ele>
<time>2024-05-09T14:18:40Z</time>
</trkpt>
<trkpt lat="49.58320235833526" lon="9.25906464457512">
<ele>260.4</ele>
<time>2024-05-09T14:18:41Z</time>
</trkpt>
<trkpt lat="49.58315273746848" lon="9.259131364524364">
<ele>260.4</ele>
<time>2024-05-09T14:18:42Z</time>
</trkpt>
<trkpt lat="49.58309934474528" lon="9.259198168292642">
<ele>260.4</ele>
<time>2024-05-09T14:18:43Z</time>
</trkpt>
<trkpt lat="49.58304595202208" lon="9.259262960404158">
<ele>260.2</ele>
<time>2024-05-09T14:18:44Z</time>
</trkpt>
<trkpt lat="49.58299247547984" lon="9.259334541857244">
<ele>260</ele>
<time>2024-05-09T14:18:45Z</time>
</trkpt>
<trkpt lat="49.58293531090021" lon="9.259405117481949">
<ele>259.799</ele>
<time>2024-05-09T14:18:46Z</time>
</trkpt>
<trkpt lat="49.58287806250155" lon="9.259479464963078">
<ele>259.799</ele>
<time>2024-05-09T14:18:47Z</time>
</trkpt>
<trkpt lat="49.58282466977835" lon="9.25955674611032">
<ele>259.4</ele>
<time>2024-05-09T14:18:48Z</time>
</trkpt>
<trkpt lat="49.582767421379685" lon="9.259632099419832">
<ele>259.2</ele>
<time>2024-05-09T14:18:49Z</time>
</trkpt>
<trkpt lat="49.582710256800056" lon="9.259706446900964">
<ele>259</ele>
<time>2024-05-09T14:18:50Z</time>
</trkpt>
<trkpt lat="49.582653008401394" lon="9.259783728048204">
<ele>258.799</ele>
<time>2024-05-09T14:18:51Z</time>
</trkpt>
<trkpt lat="49.58259576000273" lon="9.259860003367066">
<ele>258.4</ele>
<time>2024-05-09T14:18:52Z</time>
</trkpt>
<trkpt lat="49.5825385954231" lon="9.25993535667658">
<ele>258</ele>
<time>2024-05-09T14:18:53Z</time>
</trkpt>
<trkpt lat="49.58248134702444" lon="9.260018337517977">
<ele>257.6</ele>
<time>2024-05-09T14:18:54Z</time>
</trkpt>
<trkpt lat="49.58242795430124" lon="9.260105090215802">
<ele>257.2</ele>
<time>2024-05-09T14:18:55Z</time>
</trkpt>
<trkpt lat="49.58237833343446" lon="9.260191842913628">
<ele>256.799</ele>
<time>2024-05-09T14:18:56Z</time>
</trkpt>
<trkpt lat="49.58232494071126" lon="9.260279601439834">
<ele>256.6</ele>
<time>2024-05-09T14:18:57Z</time>
</trkpt>
<trkpt lat="49.58227531984448" lon="9.260368281975389">
<ele>256.2</ele>
<time>2024-05-09T14:18:58Z</time>
</trkpt>
<trkpt lat="49.58222578279674" lon="9.260456962510943">
<ele>255.6</ele>
<time>2024-05-09T14:18:59Z</time>
</trkpt>
<trkpt lat="49.582176161929965" lon="9.26054472103715">
<ele>255.2</ele>
<time>2024-05-09T14:19:00Z</time>
</trkpt>
<trkpt lat="49.58212654106319" lon="9.260633401572704">
<ele>254.8</ele>
<time>2024-05-09T14:19:01Z</time>
</trkpt>
<trkpt lat="49.582077004015446" lon="9.26072116009891">
<ele>254.2</ele>
<time>2024-05-09T14:19:02Z</time>
</trkpt>
<trkpt lat="49.58203123882413" lon="9.260807912796736">
<ele>253.6</ele>
<time>2024-05-09T14:19:03Z</time>
</trkpt>
<trkpt lat="49.581981617957354" lon="9.260894749313591">
<ele>253.2</ele>
<time>2024-05-09T14:19:04Z</time>
</trkpt>
<trkpt lat="49.581939624622464" lon="9.260986279696226">
<ele>252.8</ele>
<time>2024-05-09T14:19:05Z</time>
</trkpt>
<trkpt lat="49.58189771510661" lon="9.26107781007886">
<ele>252.2</ele>
<time>2024-05-09T14:19:06Z</time>
</trkpt>
<trkpt lat="49.58185572177172" lon="9.261170346289871">
<ele>251.8</ele>
<time>2024-05-09T14:19:07Z</time>
</trkpt>
<trkpt lat="49.58181381225586" lon="9.26125810481608">
<ele>251.4</ele>
<time>2024-05-09T14:19:08Z</time>
</trkpt>
<trkpt lat="49.58177181892097" lon="9.261342929676175">
<ele>251</ele>
<time>2024-05-09T14:19:09Z</time>
</trkpt>
<trkpt lat="49.58173368126154" lon="9.261426916345954">
<ele>250.4</ele>
<time>2024-05-09T14:19:10Z</time>
</trkpt>
<trkpt lat="49.58169554360211" lon="9.26151174120605">
<ele>250</ele>
<time>2024-05-09T14:19:11Z</time>
</trkpt>
<trkpt lat="49.58165740594268" lon="9.26159279420972">
<ele>249.6</ele>
<time>2024-05-09T14:19:12Z</time>
</trkpt>
<trkpt lat="49.581619184464216" lon="9.26167007535696">
<ele>249.4</ele>
<time>2024-05-09T14:19:13Z</time>
</trkpt>
<trkpt lat="49.581584902480245" lon="9.26174635067582">
<ele>249</ele>
<time>2024-05-09T14:19:14Z</time>
</trkpt>
<trkpt lat="49.58155053667724" lon="9.26182648167014">
<ele>248.8</ele>
<time>2024-05-09T14:19:15Z</time>
</trkpt>
<trkpt lat="49.5815200265497" lon="9.26190661266446">
<ele>248.6</ele>
<time>2024-05-09T14:19:16Z</time>
</trkpt>
<trkpt lat="49.581481888890266" lon="9.26198959350586">
<ele>248.6</ele>
<time>2024-05-09T14:19:17Z</time>
</trkpt>
<trkpt lat="49.58144752308726" lon="9.262073496356606">
<ele>248.4</ele>
<time>2024-05-09T14:19:18Z</time>
</trkpt>
<trkpt lat="49.58141324110329" lon="9.262153543531896">
<ele>248.4</ele>
<time>2024-05-09T14:19:19Z</time>
</trkpt>
<trkpt lat="49.58137510344386" lon="9.262233674526216">
<ele>248.2</ele>
<time>2024-05-09T14:19:20Z</time>
</trkpt>
<trkpt lat="49.58133696578443" lon="9.262312883511186">
<ele>248.2</ele>
<time>2024-05-09T14:19:21Z</time>
</trkpt>
<trkpt lat="49.58130259998143" lon="9.262392008677123">
<ele>248</ele>
<time>2024-05-09T14:19:22Z</time>
</trkpt>
<trkpt lat="49.581268234178424" lon="9.262470211833715">
<ele>247.8</ele>
<time>2024-05-09T14:19:23Z</time>
</trkpt>
<trkpt lat="49.58123395219445" lon="9.262544559314849">
<ele>247.6</ele>
<time>2024-05-09T14:19:24Z</time>
</trkpt>
<trkpt lat="49.58119958639145" lon="9.26261798478663">
<ele>247.4</ele>
<time>2024-05-09T14:19:25Z</time>
</trkpt>
<trkpt lat="49.58116144873202" lon="9.262689566239716">
<ele>247.4</ele>
<time>2024-05-09T14:19:26Z</time>
</trkpt>
<trkpt lat="49.58112716674805" lon="9.262762991711496">
<ele>247.2</ele>
<time>2024-05-09T14:19:27Z</time>
</trkpt>
<trkpt lat="49.58109657280147" lon="9.262833567336202">
<ele>247</ele>
<time>2024-05-09T14:19:28Z</time>
</trkpt>
<trkpt lat="49.5810622908175" lon="9.262901293113828">
<ele>247</ele>
<time>2024-05-09T14:19:29Z</time>
</trkpt>
<trkpt lat="49.581031780689955" lon="9.262965163215997">
<ele>246.8</ele>
<time>2024-05-09T14:19:30Z</time>
</trkpt>
<trkpt lat="49.58099741488695" lon="9.263026183471084">
<ele>246.8</ele>
<time>2024-05-09T14:19:31Z</time>
</trkpt>
<trkpt lat="49.58096690475941" lon="9.263085359707476">
<ele>246.8</ele>
<time>2024-05-09T14:19:32Z</time>
</trkpt>
<trkpt lat="49.58094016648829" lon="9.263139674440026">
<ele>246.8</ele>
<time>2024-05-09T14:19:33Z</time>
</trkpt>
<trkpt lat="49.580909656360745" lon="9.263193067163227">
<ele>246.6</ele>
<time>2024-05-09T14:19:34Z</time>
</trkpt>
<trkpt lat="49.58088677376509" lon="9.263243610039352">
<ele>246.6</ele>
<time>2024-05-09T14:19:35Z</time>
</trkpt>
<trkpt lat="49.580860119313" lon="9.26329038105905">
<ele>246.6</ele>
<time>2024-05-09T14:19:36Z</time>
</trkpt>
<trkpt lat="49.58083338104189" lon="9.263335224241018">
<ele>246.8</ele>
<time>2024-05-09T14:19:37Z</time>
</trkpt>
<trkpt lat="49.5808067265898" lon="9.26336858421564">
<ele>246.8</ele>
<time>2024-05-09T14:19:38Z</time>
</trkpt>
<trkpt lat="49.58077613264322" lon="9.263378139585257">
<ele>246.8</ele>
<time>2024-05-09T14:19:39Z</time>
</trkpt>
<trkpt lat="49.58074185065925" lon="9.263359950855374">
<ele>247</ele>
<time>2024-05-09T14:19:40Z</time>
</trkpt>
<trkpt lat="49.58071134053171" lon="9.263321813195944">
<ele>247</ele>
<time>2024-05-09T14:19:41Z</time>
</trkpt>
<trkpt lat="49.58068083040416" lon="9.26326842047274">
<ele>247</ele>
<time>2024-05-09T14:19:42Z</time>
</trkpt>
<trkpt lat="49.58064646460116" lon="9.263197844848037">
<ele>247</ele>
<time>2024-05-09T14:19:43Z</time>
</trkpt>
<trkpt lat="49.58061218261719" lon="9.263119641691446">
<ele>246.8</ele>
<time>2024-05-09T14:19:44Z</time>
</trkpt>
<trkpt lat="49.580573961138725" lon="9.263038588687778">
<ele>246.6</ele>
<time>2024-05-09T14:19:45Z</time>
</trkpt>
<trkpt lat="49.580539679154754" lon="9.262960385531189">
<ele>246.4</ele>
<time>2024-05-09T14:19:46Z</time>
</trkpt>
<trkpt lat="49.58050531335175" lon="9.262881260365248">
<ele>246</ele>
<time>2024-05-09T14:19:47Z</time>
</trkpt>
<trkpt lat="49.580478658899665" lon="9.262802051380277">
<ele>245.8</ele>
<time>2024-05-09T14:19:48Z</time>
</trkpt>
<trkpt lat="49.58044429309666" lon="9.262728625908494">
<ele>245.4</ele>
<time>2024-05-09T14:19:49Z</time>
</trkpt>
<trkpt lat="49.580417554825544" lon="9.262662827968596">
<ele>245</ele>
<time>2024-05-09T14:19:50Z</time>
</trkpt>
<trkpt lat="49.580387044698" lon="9.262595102190971">
<ele>244.6</ele>
<time>2024-05-09T14:19:51Z</time>
</trkpt>
<trkpt lat="49.58036416210234" lon="9.262523604556918">
<ele>244.2</ele>
<time>2024-05-09T14:19:52Z</time>
</trkpt>
<trkpt lat="49.580337507650256" lon="9.262454956769943">
<ele>244</ele>
<time>2024-05-09T14:19:53Z</time>
</trkpt>
<trkpt lat="49.58031076937914" lon="9.262388153001666">
<ele>243.6</ele>
<time>2024-05-09T14:19:54Z</time>
</trkpt>
<trkpt lat="49.58028411492705" lon="9.262328138574958">
<ele>243.4</ele>
<time>2024-05-09T14:19:55Z</time>
</trkpt>
<trkpt lat="49.58024974912405" lon="9.262274662032723">
<ele>243.2</ele>
<time>2024-05-09T14:19:56Z</time>
</trkpt>
<trkpt lat="49.58021161146462" lon="9.262234680354595">
<ele>243</ele>
<time>2024-05-09T14:19:57Z</time>
</trkpt>
<trkpt lat="49.58016961812973" lon="9.262209869921207">
<ele>242.8</ele>
<time>2024-05-09T14:19:58Z</time>
</trkpt>
<trkpt lat="49.58012770861387" lon="9.262194614857435">
<ele>242.2</ele>
<time>2024-05-09T14:19:59Z</time>
</trkpt>
<trkpt lat="49.58009334281087" lon="9.26218120381236">
<ele>241.8</ele>
<time>2024-05-09T14:20:00Z</time>
</trkpt>
<trkpt lat="49.58006660453975" lon="9.26216695457697">
<ele>241.6</ele>
<time>2024-05-09T14:20:01Z</time>
</trkpt>
<trkpt lat="49.58003995008767" lon="9.262158321216702">
<ele>241.4</ele>
<time>2024-05-09T14:20:02Z</time>
</trkpt>
<trkpt lat="49.58001321181655" lon="9.262153543531896">
<ele>241</ele>
<time>2024-05-09T14:20:03Z</time>
</trkpt>
<trkpt lat="49.57999032922089" lon="9.262153543531896">
<ele>241</ele>
<time>2024-05-09T14:20:04Z</time>
</trkpt>
<trkpt lat="49.57996744662523" lon="9.262154549360275">
<ele>241</ele>
<time>2024-05-09T14:20:05Z</time>
</trkpt>
<trkpt lat="49.57994841970503" lon="9.262151699513195">
<ele>240.8</ele>
<time>2024-05-09T14:20:06Z</time>
</trkpt>
<trkpt lat="49.57993316464126" lon="9.262134516611695">
<ele>240.8</ele>
<time>2024-05-09T14:20:07Z</time>
</trkpt>
<trkpt lat="49.579925537109375" lon="9.262107778340578">
<ele>240.8</ele>
<time>2024-05-09T14:20:08Z</time>
</trkpt>
<trkpt lat="49.579925537109375" lon="9.262080118060112">
<ele>241</ele>
<time>2024-05-09T14:20:09Z</time>
</trkpt>
<trkpt lat="49.5799293089658" lon="9.26204868592322">
<ele>241</ele>
<time>2024-05-09T14:20:10Z</time>
</trkpt>
<trkpt lat="49.57993316464126" lon="9.262016247957945">
<ele>241.2</ele>
<time>2024-05-09T14:20:11Z</time>
</trkpt>
<trkpt lat="49.57994079217315" lon="9.261980038136244">
<ele>241.2</ele>
<time>2024-05-09T14:20:12Z</time>
</trkpt>
<trkpt lat="49.57994841970503" lon="9.261943744495513">
<ele>241.4</ele>
<time>2024-05-09T14:20:13Z</time>
</trkpt>
<trkpt lat="49.57994841970503" lon="9.26190661266446">
<ele>241.6</ele>
<time>2024-05-09T14:20:14Z</time>
</trkpt>
<trkpt lat="49.57995219156146" lon="9.261870319023728">
<ele>241.8</ele>
<time>2024-05-09T14:20:15Z</time>
</trkpt>
<trkpt lat="49.57995981909335" lon="9.261831259354947">
<ele>241.8</ele>
<time>2024-05-09T14:20:16Z</time>
</trkpt>
<trkpt lat="49.579963674768806" lon="9.26178834401071">
<ele>241.8</ele>
<time>2024-05-09T14:20:17Z</time>
</trkpt>
<trkpt lat="49.57996744662523" lon="9.261743500828745">
<ele>242</ele>
<time>2024-05-09T14:20:18Z</time>
</trkpt>
<trkpt lat="49.57996744662523" lon="9.261694885790348">
<ele>242</ele>
<time>2024-05-09T14:20:19Z</time>
</trkpt>
<trkpt lat="49.57996744662523" lon="9.261639565229416">
<ele>241.8</ele>
<time>2024-05-09T14:20:20Z</time>
</trkpt>
<trkpt lat="49.57997130230069" lon="9.261583322659137">
<ele>241.8</ele>
<time>2024-05-09T14:20:21Z</time>
</trkpt>
<trkpt lat="49.57997507415712" lon="9.261521296575664">
<ele>241.6</ele>
<time>2024-05-09T14:20:22Z</time>
</trkpt>
<trkpt lat="49.57997507415712" lon="9.26145457662642">
<ele>241.6</ele>
<time>2024-05-09T14:20:23Z</time>
</trkpt>
<trkpt lat="49.57997892983258" lon="9.261391628533602">
<ele>241.4</ele>
<time>2024-05-09T14:20:24Z</time>
</trkpt>
<trkpt lat="49.57997892983258" lon="9.261324824765325">
<ele>241.4</ele>
<time>2024-05-09T14:20:25Z</time>
</trkpt>
<trkpt lat="49.57997507415712" lon="9.26125810481608">
<ele>241.2</ele>
<time>2024-05-09T14:20:26Z</time>
</trkpt>
<trkpt lat="49.57997130230069" lon="9.261191301047802">
<ele>241.2</ele>
<time>2024-05-09T14:20:27Z</time>
</trkpt>
<trkpt lat="49.57995981909335" lon="9.261126508936286">
<ele>241.2</ele>
<time>2024-05-09T14:20:28Z</time>
</trkpt>
<trkpt lat="49.57995604723692" lon="9.261059705168009">
<ele>241</ele>
<time>2024-05-09T14:20:29Z</time>
</trkpt>
<trkpt lat="49.57994841970503" lon="9.260991979390385">
<ele>241</ele>
<time>2024-05-09T14:20:30Z</time>
</trkpt>
<trkpt lat="49.579944564029574" lon="9.260925259441136">
<ele>241</ele>
<time>2024-05-09T14:20:31Z</time>
</trkpt>
<trkpt lat="49.57993316464126" lon="9.26086038351059">
<ele>241</ele>
<time>2024-05-09T14:20:32Z</time>
</trkpt>
<trkpt lat="49.57991782575846" lon="9.260794585570691">
<ele>241</ele>
<time>2024-05-09T14:20:33Z</time>
</trkpt>
<trkpt lat="49.579902570694685" lon="9.260731637477877">
<ele>241</ele>
<time>2024-05-09T14:20:34Z</time>
</trkpt>
<trkpt lat="49.579883543774486" lon="9.260669695213435">
<ele>241</ele>
<time>2024-05-09T14:20:35Z</time>
</trkpt>
<trkpt lat="49.579864433035254" lon="9.260615296661854">
<ele>241</ele>
<time>2024-05-09T14:20:36Z</time>
</trkpt>
<trkpt lat="49.57983777858317" lon="9.260562825948">
<ele>241.2</ele>
<time>2024-05-09T14:20:37Z</time>
</trkpt>
<trkpt lat="49.579807268455625" lon="9.260519910603762">
<ele>241.4</ele>
<time>2024-05-09T14:20:38Z</time>
</trkpt>
<trkpt lat="49.57977675832808" lon="9.260481772944331">
<ele>241.4</ele>
<time>2024-05-09T14:20:39Z</time>
</trkpt>
<trkpt lat="49.57974239252508" lon="9.260448412969708">
<ele>241.6</ele>
<time>2024-05-09T14:20:40Z</time>
</trkpt>
<trkpt lat="49.579704254865646" lon="9.260430308058858">
<ele>241.8</ele>
<time>2024-05-09T14:20:41Z</time>
</trkpt>
<trkpt lat="49.57966226153076" lon="9.260415052995086">
<ele>241.8</ele>
<time>2024-05-09T14:20:42Z</time>
</trkpt>
<trkpt lat="49.579624123871326" lon="9.260399797931314">
<ele>242</ele>
<time>2024-05-09T14:20:43Z</time>
</trkpt>
<trkpt lat="49.579585986211896" lon="9.26038454286754">
<ele>242</ele>
<time>2024-05-09T14:20:44Z</time>
</trkpt>
<trkpt lat="49.579547848552465" lon="9.260371131822469">
<ele>242</ele>
<time>2024-05-09T14:20:45Z</time>
</trkpt>
<trkpt lat="49.579509710893035" lon="9.260356882587075">
<ele>242.2</ele>
<time>2024-05-09T14:20:46Z</time>
</trkpt>
<trkpt lat="49.5794715732336" lon="9.260338777676225">
<ele>242.4</ele>
<time>2024-05-09T14:20:47Z</time>
</trkpt>
<trkpt lat="49.5794372074306" lon="9.260321594774725">
<ele>242.4</ele>
<time>2024-05-09T14:20:48Z</time>
</trkpt>
<trkpt lat="49.57939906977117" lon="9.26030633971095">
<ele>242.6</ele>
<time>2024-05-09T14:20:49Z</time>
</trkpt>
<trkpt lat="49.57936093211174" lon="9.260290078818798">
<ele>242.8</ele>
<time>2024-05-09T14:20:50Z</time>
</trkpt>
<trkpt lat="49.57931893877685" lon="9.260274823755026">
<ele>242.8</ele>
<time>2024-05-09T14:20:51Z</time>
</trkpt>
<trkpt lat="49.57928465679288" lon="9.260259568691254">
<ele>243</ele>
<time>2024-05-09T14:20:52Z</time>
</trkpt>
<trkpt lat="49.57924651913345" lon="9.260241463780403">
<ele>243</ele>
<time>2024-05-09T14:20:53Z</time>
</trkpt>
<trkpt lat="49.579208297654986" lon="9.260226208716633">
<ele>243.2</ele>
<time>2024-05-09T14:20:54Z</time>
</trkpt>
<trkpt lat="49.57917015999555" lon="9.260211875662208">
<ele>243.2</ele>
<time>2024-05-09T14:20:55Z</time>
</trkpt>
<trkpt lat="49.579135878011584" lon="9.260194776579738">
<ele>243.4</ele>
<time>2024-05-09T14:20:56Z</time>
</trkpt>
<trkpt lat="49.579097740352154" lon="9.260183293372393">
<ele>243.6</ele>
<time>2024-05-09T14:20:57Z</time>
</trkpt>
<trkpt lat="49.57906337454915" lon="9.260178515687585">
<ele>243.8</ele>
<time>2024-05-09T14:20:58Z</time>
</trkpt>
<trkpt lat="49.57902900874615" lon="9.260173738002775">
<ele>243.8</ele>
<time>2024-05-09T14:20:59Z</time>
</trkpt>
<trkpt lat="49.578994726762176" lon="9.260176587849855">
<ele>244</ele>
<time>2024-05-09T14:21:00Z</time>
</trkpt>
<trkpt lat="49.57897184416652" lon="9.260201398283243">
<ele>244.2</ele>
<time>2024-05-09T14:21:01Z</time>
</trkpt>
<trkpt lat="49.578952733427286" lon="9.260234758257866">
<ele>244.4</ele>
<time>2024-05-09T14:21:02Z</time>
</trkpt>
<trkpt lat="49.578937478363514" lon="9.260272979736328">
<ele>244.6</ele>
<time>2024-05-09T14:21:03Z</time>
</trkpt>
<trkpt lat="49.5789260789752" lon="9.260310111567378">
<ele>244.6</ele>
<time>2024-05-09T14:21:04Z</time>
</trkpt>
<trkpt lat="49.578914595767856" lon="9.26034640520811">
<ele>244.8</ele>
<time>2024-05-09T14:21:05Z</time>
</trkpt>
<trkpt lat="49.57890319637954" lon="9.260376915335655">
<ele>245</ele>
<time>2024-05-09T14:21:06Z</time>
</trkpt>
<trkpt lat="49.5788917131722" lon="9.26040457561612">
<ele>245</ele>
<time>2024-05-09T14:21:07Z</time>
</trkpt>
<trkpt lat="49.57888022996485" lon="9.260435085743666">
<ele>245.2</ele>
<time>2024-05-09T14:21:08Z</time>
</trkpt>
<trkpt lat="49.57886883057654" lon="9.26046366803348">
<ele>245.2</ele>
<time>2024-05-09T14:21:09Z</time>
</trkpt>
<trkpt lat="49.57886120304465" lon="9.260493256151676">
<ele>245.4</ele>
<time>2024-05-09T14:21:10Z</time>
</trkpt>
<trkpt lat="49.57884971983731" lon="9.26052468828857">
<ele>245.6</ele>
<time>2024-05-09T14:21:11Z</time>
</trkpt>
<trkpt lat="49.578838320448995" lon="9.260555198416114">
<ele>245.8</ele>
<time>2024-05-09T14:21:12Z</time>
</trkpt>
<trkpt lat="49.57883069291711" lon="9.26058478653431">
<ele>246</ele>
<time>2024-05-09T14:21:13Z</time>
</trkpt>
<trkpt lat="49.57881920970976" lon="9.260608591139317">
<ele>246.2</ele>
<time>2024-05-09T14:21:14Z</time>
</trkpt>
<trkpt lat="49.57880781032145" lon="9.260633401572704">
<ele>246.4</ele>
<time>2024-05-09T14:21:15Z</time>
</trkpt>
<trkpt lat="49.57879255525768" lon="9.260662067681553">
<ele>246.6</ele>
<time>2024-05-09T14:21:16Z</time>
</trkpt>
<trkpt lat="49.57878107205033" lon="9.260691571980717">
<ele>246.8</ele>
<time>2024-05-09T14:21:17Z</time>
</trkpt>
<trkpt lat="49.57877344451845" lon="9.260726859793069">
<ele>247</ele>
<time>2024-05-09T14:21:18Z</time>
</trkpt>
<trkpt lat="49.578758189454675" lon="9.260758375748992">
<ele>247.4</ele>
<time>2024-05-09T14:21:19Z</time>
</trkpt>
<trkpt lat="49.57874679006636" lon="9.260794585570691">
<ele>247.6</ele>
<time>2024-05-09T14:21:20Z</time>
</trkpt>
<trkpt lat="49.57873153500259" lon="9.260833729058504">
<ele>248</ele>
<time>2024-05-09T14:21:21Z</time>
</trkpt>
<trkpt lat="49.57871242426336" lon="9.260869938880203">
<ele>248.4</ele>
<time>2024-05-09T14:21:22Z</time>
</trkpt>
<trkpt lat="49.57869331352413" lon="9.260905226692556">
<ele>248.8</ele>
<time>2024-05-09T14:21:23Z</time>
</trkpt>
<trkpt lat="49.578678058460355" lon="9.26093959249556">
<ele>249</ele>
<time>2024-05-09T14:21:24Z</time>
</trkpt>
<trkpt lat="49.57866280339658" lon="9.260972952470183">
<ele>249.4</ele>
<time>2024-05-09T14:21:25Z</time>
</trkpt>
<trkpt lat="49.57864377647638" lon="9.261006312444806">
<ele>249.8</ele>
<time>2024-05-09T14:21:26Z</time>
</trkpt>
<trkpt lat="49.57862852141261" lon="9.26103875041008">
<ele>250.2</ele>
<time>2024-05-09T14:21:27Z</time>
</trkpt>
<trkpt lat="49.57861326634884" lon="9.261068338528275">
<ele>250.4</ele>
<time>2024-05-09T14:21:28Z</time>
</trkpt>
<trkpt lat="49.57859801128507" lon="9.26109784282744">
<ele>250.6</ele>
<time>2024-05-09T14:21:29Z</time>
</trkpt>
<trkpt lat="49.578578900545835" lon="9.261130280792711">
<ele>250.8</ele>
<time>2024-05-09T14:21:30Z</time>
</trkpt>
<trkpt lat="49.57856364548206" lon="9.26115794107318">
<ele>251</ele>
<time>2024-05-09T14:21:31Z</time>
</trkpt>
<trkpt lat="49.57854839041829" lon="9.261188451200724">
<ele>251.2</ele>
<time>2024-05-09T14:21:32Z</time>
</trkpt>
<trkpt lat="49.57853313535452" lon="9.261224744841456">
<ele>251.4</ele>
<time>2024-05-09T14:21:33Z</time>
</trkpt>
<trkpt lat="49.57851402461529" lon="9.261253327131271">
<ele>251.6</ele>
<time>2024-05-09T14:21:34Z</time>
</trkpt>
<trkpt lat="49.57849499769509" lon="9.261282915249469">
<ele>251.8</ele>
<time>2024-05-09T14:21:35Z</time>
</trkpt>
<trkpt lat="49.57847588695586" lon="9.261313425377011">
<ele>251.8</ele>
<time>2024-05-09T14:21:36Z</time>
</trkpt>
<trkpt lat="49.5784530043602" lon="9.261344857513905">
<ele>252</ele>
<time>2024-05-09T14:21:37Z</time>
</trkpt>
<trkpt lat="49.57843397744" lon="9.26137343980372">
<ele>252</ele>
<time>2024-05-09T14:21:38Z</time>
</trkpt>
<trkpt lat="49.57841109484434" lon="9.261402105912566">
<ele>252.2</ele>
<time>2024-05-09T14:21:39Z</time>
</trkpt>
<trkpt lat="49.57838821224868" lon="9.26143454387784">
<ele>252.2</ele>
<time>2024-05-09T14:21:40Z</time>
</trkpt>
<trkpt lat="49.57836524583399" lon="9.261466898024082">
<ele>252.2</ele>
<time>2024-05-09T14:21:41Z</time>
</trkpt>
<trkpt lat="49.578342363238335" lon="9.261498413980007">
<ele>252.2</ele>
<time>2024-05-09T14:21:42Z</time>
</trkpt>
<trkpt lat="49.57831948064267" lon="9.26153177395463">
<ele>252.2</ele>
<time>2024-05-09T14:21:43Z</time>
</trkpt>
<trkpt lat="49.57829659804702" lon="9.261565133929253">
<ele>252.4</ele>
<time>2024-05-09T14:21:44Z</time>
</trkpt>
<trkpt lat="49.57826994359493" lon="9.261596649885178">
<ele>252.4</ele>
<time>2024-05-09T14:21:45Z</time>
</trkpt>
<trkpt lat="49.578247060999274" lon="9.261625232174993">
<ele>252.6</ele>
<time>2024-05-09T14:21:46Z</time>
</trkpt>
<trkpt lat="49.57821655087173" lon="9.261654820293188">
<ele>252.6</ele>
<time>2024-05-09T14:21:47Z</time>
</trkpt>
<trkpt lat="49.57819358445704" lon="9.26168818026781">
<ele>252.6</ele>
<time>2024-05-09T14:21:48Z</time>
</trkpt>
<trkpt lat="49.578163074329495" lon="9.26172631792724">
<ele>252.6</ele>
<time>2024-05-09T14:21:49Z</time>
</trkpt>
<trkpt lat="49.57814019173384" lon="9.261761605739594">
<ele>252.6</ele>
<time>2024-05-09T14:21:50Z</time>
</trkpt>
<trkpt lat="49.57811353728175" lon="9.261796893551946">
<ele>252.6</ele>
<time>2024-05-09T14:21:51Z</time>
</trkpt>
<trkpt lat="49.578086799010634" lon="9.261831259354947">
<ele>252.6</ele>
<time>2024-05-09T14:21:52Z</time>
</trkpt>
<trkpt lat="49.57805628888309" lon="9.261877024546266">
<ele>252.8</ele>
<time>2024-05-09T14:21:53Z</time>
</trkpt>
<trkpt lat="49.578025778755546" lon="9.261917090043426">
<ele>252.8</ele>
<time>2024-05-09T14:21:54Z</time>
</trkpt>
<trkpt lat="49.577995268628" lon="9.261955227702856">
<ele>253</ele>
<time>2024-05-09T14:21:55Z</time>
</trkpt>
<trkpt lat="49.57796475850046" lon="9.261993365362288">
<ele>253</ele>
<time>2024-05-09T14:21:56Z</time>
</trkpt>
<trkpt lat="49.57793424837291" lon="9.262031503021715">
<ele>253.4</ele>
<time>2024-05-09T14:21:57Z</time>
</trkpt>
<trkpt lat="49.57789988256991" lon="9.262069640681148">
<ele>253.4</ele>
<time>2024-05-09T14:21:58Z</time>
</trkpt>
<trkpt lat="49.577869372442365" lon="9.262107778340578">
<ele>253.6</ele>
<time>2024-05-09T14:21:59Z</time>
</trkpt>
<trkpt lat="49.57783886231482" lon="9.26214692182839">
<ele>253.8</ele>
<time>2024-05-09T14:22:00Z</time>
</trkpt>
<trkpt lat="49.57780835218728" lon="9.262171732261775">
<ele>254</ele>
<time>2024-05-09T14:22:01Z</time>
</trkpt>
<trkpt lat="49.57778161391616" lon="9.26220316439867">
<ele>254.2</ele>
<time>2024-05-09T14:22:02Z</time>
</trkpt>
<trkpt lat="49.57774733193219" lon="9.262229902669787">
<ele>254.2</ele>
<time>2024-05-09T14:22:03Z</time>
</trkpt>
<trkpt lat="49.57771682180464" lon="9.262249935418367">
<ele>254.4</ele>
<time>2024-05-09T14:22:04Z</time>
</trkpt>
<trkpt lat="49.57768622785807" lon="9.262269968166947">
<ele>254.6</ele>
<time>2024-05-09T14:22:05Z</time>
</trkpt>
<trkpt lat="49.57765571773052" lon="9.262296622619033">
<ele>254.8</ele>
<time>2024-05-09T14:22:06Z</time>
</trkpt>
<trkpt lat="49.57762520760298" lon="9.262325204908848">
<ele>254.8</ele>
<time>2024-05-09T14:22:07Z</time>
</trkpt>
<trkpt lat="49.57759855315089" lon="9.262351943179963">
<ele>255</ele>
<time>2024-05-09T14:22:08Z</time>
</trkpt>
<trkpt lat="49.57756804302335" lon="9.26238345913589">
<ele>255.2</ele>
<time>2024-05-09T14:22:09Z</time>
</trkpt>
<trkpt lat="49.5775375328958" lon="9.262406341731548">
<ele>255.4</ele>
<time>2024-05-09T14:22:10Z</time>
</trkpt>
<trkpt lat="49.5775031670928" lon="9.262425368651748">
<ele>255.6</ele>
<time>2024-05-09T14:22:11Z</time>
</trkpt>
<trkpt lat="49.57747642882168" lon="9.262450179085135">
<ele>255.8</ele>
<time>2024-05-09T14:22:12Z</time>
</trkpt>
<trkpt lat="49.57744214683771" lon="9.262501643970609">
<ele>256.2</ele>
<time>2024-05-09T14:22:13Z</time>
</trkpt>
<trkpt lat="49.57741163671017" lon="9.262553192675114">
<ele>256.4</ele>
<time>2024-05-09T14:22:14Z</time>
</trkpt>
<trkpt lat="49.57737727090717" lon="9.262610357254744">
<ele>256.799</ele>
<time>2024-05-09T14:22:15Z</time>
</trkpt>
<trkpt lat="49.57734290510416" lon="9.26265997812152">
<ele>257.2</ele>
<time>2024-05-09T14:22:16Z</time>
</trkpt>
<trkpt lat="49.577312394976616" lon="9.262704821303489">
<ele>257.4</ele>
<time>2024-05-09T14:22:17Z</time>
</trkpt>
<trkpt lat="49.57728574052453" lon="9.262755364179611">
<ele>257.799</ele>
<time>2024-05-09T14:22:18Z</time>
</trkpt>
<trkpt lat="49.57725900225341" lon="9.26279635168612">
<ele>258.2</ele>
<time>2024-05-09T14:22:19Z</time>
</trkpt>
<trkpt lat="49.577236119657755" lon="9.262840189039707">
<ele>258.799</ele>
<time>2024-05-09T14:22:20Z</time>
</trkpt>
<trkpt lat="49.577217092737556" lon="9.262887882068751">
<ele>259.2</ele>
<time>2024-05-09T14:22:21Z</time>
</trkpt>
<trkpt lat="49.57720183767378" lon="9.262931803241372">
<ele>259.4</ele>
<time>2024-05-09T14:22:22Z</time>
</trkpt>
<trkpt lat="49.57719035446644" lon="9.26297471858561">
<ele>259.799</ele>
<time>2024-05-09T14:22:23Z</time>
</trkpt>
<trkpt lat="49.577178955078125" lon="9.263025261461737">
<ele>260</ele>
<time>2024-05-09T14:22:24Z</time>
</trkpt>
<trkpt lat="49.57716361619532" lon="9.26307479850948">
<ele>260.4</ele>
<time>2024-05-09T14:22:25Z</time>
</trkpt>
<trkpt lat="49.577155988663435" lon="9.263125341385605">
<ele>260.6</ele>
<time>2024-05-09T14:22:26Z</time>
</trkpt>
<trkpt lat="49.57714458927512" lon="9.263174962252378">
<ele>260.6</ele>
<time>2024-05-09T14:22:27Z</time>
</trkpt>
<trkpt lat="49.57713310606778" lon="9.26323028281331">
<ele>260.799</ele>
<time>2024-05-09T14:22:28Z</time>
</trkpt>
<trkpt lat="49.57712170667946" lon="9.263284681364894">
<ele>261</ele>
<time>2024-05-09T14:22:29Z</time>
</trkpt>
<trkpt lat="49.57711022347212" lon="9.263344695791602">
<ele>261</ele>
<time>2024-05-09T14:22:30Z</time>
</trkpt>
<trkpt lat="49.577094968408346" lon="9.263415271416306">
<ele>261</ele>
<time>2024-05-09T14:22:31Z</time>
</trkpt>
<trkpt lat="49.577079713344574" lon="9.263495402410626">
<ele>261</ele>
<time>2024-05-09T14:22:32Z</time>
</trkpt>
<trkpt lat="49.5770644582808" lon="9.263578383252025">
<ele>260.799</ele>
<time>2024-05-09T14:22:33Z</time>
</trkpt>
<trkpt lat="49.57704920321703" lon="9.263660358265042">
<ele>260.4</ele>
<time>2024-05-09T14:22:34Z</time>
</trkpt>
<trkpt lat="49.57703394815326" lon="9.263748116791248">
<ele>260</ele>
<time>2024-05-09T14:22:35Z</time>
</trkpt>
<trkpt lat="49.577018693089485" lon="9.263830175623298">
<ele>259.6</ele>
<time>2024-05-09T14:22:36Z</time>
</trkpt>
<trkpt lat="49.57700343802571" lon="9.26389974541962">
<ele>259.2</ele>
<time>2024-05-09T14:22:37Z</time>
</trkpt>
<trkpt lat="49.57698432728648" lon="9.26396462135017">
<ele>258.799</ele>
<time>2024-05-09T14:22:38Z</time>
</trkpt>
<trkpt lat="49.576961444690824" lon="9.264023713767529">
<ele>258.4</ele>
<time>2024-05-09T14:22:39Z</time>
</trkpt>
<trkpt lat="49.576942417770624" lon="9.26408289000392">
<ele>258</ele>
<time>2024-05-09T14:22:40Z</time>
</trkpt>
<trkpt lat="49.57691567949951" lon="9.264138210564852">
<ele>257.6</ele>
<time>2024-05-09T14:22:41Z</time>
</trkpt>
<trkpt lat="49.57688902504742" lon="9.264184897765515">
<ele>257.2</ele>
<time>2024-05-09T14:22:42Z</time>
</trkpt>
<trkpt lat="49.576862286776304" lon="9.264233512803912">
<ele>256.799</ele>
<time>2024-05-09T14:22:43Z</time>
</trkpt>
<trkpt lat="49.576839404180646" lon="9.264286989346148">
<ele>256.4</ele>
<time>2024-05-09T14:22:44Z</time>
</trkpt>
<trkpt lat="49.57681266590953" lon="9.26433845423162">
<ele>256</ele>
<time>2024-05-09T14:22:45Z</time>
</trkpt>
<trkpt lat="49.576782155781984" lon="9.264385141432284">
<ele>255.6</ele>
<time>2024-05-09T14:22:46Z</time>
</trkpt>
<trkpt lat="49.57675164565444" lon="9.264428056776524">
<ele>255.2</ele>
<time>2024-05-09T14:22:47Z</time>
</trkpt>
<trkpt lat="49.576724991202354" lon="9.264472899958491">
<ele>254.8</ele>
<time>2024-05-09T14:22:48Z</time>
</trkpt>
<trkpt lat="49.57669448107481" lon="9.264519670978189">
<ele>254.6</ele>
<time>2024-05-09T14:22:49Z</time>
</trkpt>
<trkpt lat="49.57666774280369" lon="9.264564514160156">
<ele>254.4</ele>
<time>2024-05-09T14:22:50Z</time>
</trkpt>
<trkpt lat="49.57663723267615" lon="9.264606423676014">
<ele>254.2</ele>
<time>2024-05-09T14:22:51Z</time>
</trkpt>
<trkpt lat="49.57661049440503" lon="9.264653194695711">
<ele>254</ele>
<time>2024-05-09T14:22:52Z</time>
</trkpt>
<trkpt lat="49.57657998427749" lon="9.264701809734106">
<ele>253.8</ele>
<time>2024-05-09T14:22:53Z</time>
</trkpt>
<trkpt lat="49.5765533298254" lon="9.26475327461958">
<ele>253.6</ele>
<time>2024-05-09T14:22:54Z</time>
</trkpt>
<trkpt lat="49.57652659155429" lon="9.264802895486357">
<ele>253.6</ele>
<time>2024-05-09T14:22:55Z</time>
</trkpt>
<trkpt lat="49.5764999371022" lon="9.26485151052475">
<ele>253.6</ele>
<time>2024-05-09T14:22:56Z</time>
</trkpt>
<trkpt lat="49.57646934315562" lon="9.264896353706716">
<ele>253.6</ele>
<time>2024-05-09T14:22:57Z</time>
</trkpt>
<trkpt lat="49.57643506117165" lon="9.264940191060305">
<ele>253.6</ele>
<time>2024-05-09T14:22:58Z</time>
</trkpt>
<trkpt lat="49.576408322900534" lon="9.264983106404545">
<ele>253.8</ele>
<time>2024-05-09T14:22:59Z</time>
</trkpt>
<trkpt lat="49.57637781277299" lon="9.26502794958651">
<ele>253.8</ele>
<time>2024-05-09T14:23:00Z</time>
</trkpt>
<trkpt lat="49.576347302645445" lon="9.265080420300364">
<ele>254</ele>
<time>2024-05-09T14:23:01Z</time>
</trkpt>
<trkpt lat="49.57632064819336" lon="9.26513004116714">
<ele>254</ele>
<time>2024-05-09T14:23:02Z</time>
</trkpt>
<trkpt lat="49.57629390992224" lon="9.265178656205537">
<ele>254.2</ele>
<time>2024-05-09T14:23:03Z</time>
</trkpt>
<trkpt lat="49.5762633997947" lon="9.2652253434062">
<ele>254.4</ele>
<time>2024-05-09T14:23:04Z</time>
</trkpt>
<trkpt lat="49.57623666152358" lon="9.265270186588168">
<ele>254.4</ele>
<time>2024-05-09T14:23:05Z</time>
</trkpt>
<trkpt lat="49.57620237953961" lon="9.265315029770136">
<ele>254.6</ele>
<time>2024-05-09T14:23:06Z</time>
</trkpt>
<trkpt lat="49.576171869412065" lon="9.265359872952104">
<ele>254.6</ele>
<time>2024-05-09T14:23:07Z</time>
</trkpt>
<trkpt lat="49.57614513114095" lon="9.2654084879905">
<ele>254.8</ele>
<time>2024-05-09T14:23:08Z</time>
</trkpt>
<trkpt lat="49.5761146210134" lon="9.265457103028892">
<ele>255</ele>
<time>2024-05-09T14:23:09Z</time>
</trkpt>
<trkpt lat="49.57608411088586" lon="9.26550194621086">
<ele>255.2</ele>
<time>2024-05-09T14:23:10Z</time>
</trkpt>
<trkpt lat="49.576053600758314" lon="9.26554293371737">
<ele>255.4</ele>
<time>2024-05-09T14:23:11Z</time>
</trkpt>
<trkpt lat="49.57601923495531" lon="9.26558207720518">
<ele>255.6</ele>
<time>2024-05-09T14:23:12Z</time>
</trkpt>
<trkpt lat="49.57598495297134" lon="9.265620214864612">
<ele>255.6</ele>
<time>2024-05-09T14:23:13Z</time>
</trkpt>
<trkpt lat="49.57594673149288" lon="9.265654496848583">
<ele>256</ele>
<time>2024-05-09T14:23:14Z</time>
</trkpt>
<trkpt lat="49.575912449508905" lon="9.265689784660935">
<ele>256.2</ele>
<time>2024-05-09T14:23:15Z</time>
</trkpt>
<trkpt lat="49.575874311849475" lon="9.26572130061686">
<ele>256.4</ele>
<time>2024-05-09T14:23:16Z</time>
</trkpt>
<trkpt lat="49.57583617419005" lon="9.265756588429213">
<ele>256.6</ele>
<time>2024-05-09T14:23:17Z</time>
</trkpt>
<trkpt lat="49.57579795271158" lon="9.265791876241565">
<ele>256.799</ele>
<time>2024-05-09T14:23:18Z</time>
</trkpt>
<trkpt lat="49.57575981505215" lon="9.265826158225536">
<ele>257</ele>
<time>2024-05-09T14:23:19Z</time>
</trkpt>
<trkpt lat="49.57572167739272" lon="9.265861446037889">
<ele>257</ele>
<time>2024-05-09T14:23:20Z</time>
</trkpt>
<trkpt lat="49.57568739540875" lon="9.26589866168797">
<ele>257.2</ele>
<time>2024-05-09T14:23:21Z</time>
</trkpt>
<trkpt lat="49.575653029605746" lon="9.26593872718513">
<ele>257.4</ele>
<time>2024-05-09T14:23:22Z</time>
</trkpt>
<trkpt lat="49.57561489194632" lon="9.26597686484456">
<ele>257.4</ele>
<time>2024-05-09T14:23:23Z</time>
</trkpt>
<trkpt lat="49.57558052614331" lon="9.266015002503991">
<ele>257.6</ele>
<time>2024-05-09T14:23:24Z</time>
</trkpt>
<trkpt lat="49.57554624415934" lon="9.266053140163422">
<ele>257.6</ele>
<time>2024-05-09T14:23:25Z</time>
</trkpt>
<trkpt lat="49.57551187835634" lon="9.266091277822852">
<ele>257.6</ele>
<time>2024-05-09T14:23:26Z</time>
</trkpt>
<trkpt lat="49.575477596372366" lon="9.266128493472934">
<ele>257.6</ele>
<time>2024-05-09T14:23:27Z</time>
</trkpt>
<trkpt lat="49.57544323056936" lon="9.266166631132364">
<ele>257.799</ele>
<time>2024-05-09T14:23:28Z</time>
</trkpt>
<trkpt lat="49.57541272044182" lon="9.266206696629524">
<ele>257.799</ele>
<time>2024-05-09T14:23:29Z</time>
</trkpt>
<trkpt lat="49.575378354638815" lon="9.266242906451224">
<ele>257.799</ele>
<time>2024-05-09T14:23:30Z</time>
</trkpt>
<trkpt lat="49.57534407265484" lon="9.266282971948383">
<ele>257.799</ele>
<time>2024-05-09T14:23:31Z</time>
</trkpt>
<trkpt lat="49.57530970685184" lon="9.266320187598469">
<ele>257.799</ele>
<time>2024-05-09T14:23:32Z</time>
</trkpt>
<trkpt lat="49.57527156919241" lon="9.266358325257896">
<ele>257.799</ele>
<time>2024-05-09T14:23:33Z</time>
</trkpt>
<trkpt lat="49.57523343153298" lon="9.266394535079598">
<ele>257.799</ele>
<time>2024-05-09T14:23:34Z</time>
</trkpt>
<trkpt lat="49.57519529387355" lon="9.26643175072968">
<ele>257.799</ele>
<time>2024-05-09T14:23:35Z</time>
</trkpt>
<trkpt lat="49.57515330053866" lon="9.26646988838911">
<ele>257.799</ele>
<time>2024-05-09T14:23:36Z</time>
</trkpt>
<trkpt lat="49.57510753534734" lon="9.266505176201465">
<ele>257.799</ele>
<time>2024-05-09T14:23:37Z</time>
</trkpt>
<trkpt lat="49.575061770156026" lon="9.266538619995115">
<ele>257.6</ele>
<time>2024-05-09T14:23:38Z</time>
</trkpt>
<trkpt lat="49.57501977682114" lon="9.26657005213201">
<ele>257.6</ele>
<time>2024-05-09T14:23:39Z</time>
</trkpt>
<trkpt lat="49.57497401162982" lon="9.266601484268904">
<ele>257.6</ele>
<time>2024-05-09T14:23:40Z</time>
</trkpt>
<trkpt lat="49.5749282464385" lon="9.266636772081256">
<ele>257.6</ele>
<time>2024-05-09T14:23:41Z</time>
</trkpt>
<trkpt lat="49.574886253103614" lon="9.26667021587491">
<ele>257.6</ele>
<time>2024-05-09T14:23:42Z</time>
</trkpt>
<trkpt lat="49.5748404879123" lon="9.266697876155376">
<ele>257.6</ele>
<time>2024-05-09T14:23:43Z</time>
</trkpt>
<trkpt lat="49.57479472272098" lon="9.266726458445191">
<ele>257.799</ele>
<time>2024-05-09T14:23:44Z</time>
</trkpt>
<trkpt lat="49.574745101854205" lon="9.266753196716309">
<ele>257.799</ele>
<time>2024-05-09T14:23:45Z</time>
</trkpt>
<trkpt lat="49.57469933666289" lon="9.266777923330665">
<ele>258</ele>
<time>2024-05-09T14:23:46Z</time>
</trkpt>
<trkpt lat="49.57465357147157" lon="9.266799883916974">
<ele>258</ele>
<time>2024-05-09T14:23:47Z</time>
</trkpt>
<trkpt lat="49.574607806280255" lon="9.266819916665554">
<ele>257.799</ele>
<time>2024-05-09T14:23:48Z</time>
</trkpt>
<trkpt lat="49.57455818541348" lon="9.26684372127056">
<ele>257.799</ele>
<time>2024-05-09T14:23:49Z</time>
</trkpt>
<trkpt lat="49.57451627589762" lon="9.26686660386622">
<ele>257.799</ele>
<time>2024-05-09T14:23:50Z</time>
</trkpt>
<trkpt lat="49.57446665503085" lon="9.266888564452527">
<ele>257.799</ele>
<time>2024-05-09T14:23:51Z</time>
</trkpt>
<trkpt lat="49.57442088983953" lon="9.266908597201107">
<ele>258</ele>
<time>2024-05-09T14:23:52Z</time>
</trkpt>
<trkpt lat="49.574371268972754" lon="9.266922930255532">
<ele>258</ele>
<time>2024-05-09T14:23:53Z</time>
</trkpt>
<trkpt lat="49.57432173192501" lon="9.266936257481577">
<ele>258.4</ele>
<time>2024-05-09T14:23:54Z</time>
</trkpt>
<trkpt lat="49.574275966733694" lon="9.266948662698267">
<ele>258.6</ele>
<time>2024-05-09T14:23:55Z</time>
</trkpt>
<trkpt lat="49.574230117723346" lon="9.266958218067884">
<ele>258.799</ele>
<time>2024-05-09T14:23:56Z</time>
</trkpt>
<trkpt lat="49.574191980063915" lon="9.266962995752692">
<ele>259.2</ele>
<time>2024-05-09T14:23:57Z</time>
</trkpt>
<trkpt lat="49.574153842404485" lon="9.266968695446849">
<ele>259.4</ele>
<time>2024-05-09T14:23:58Z</time>
</trkpt>
<trkpt lat="49.57411956042051" lon="9.26696676760912">
<ele>259.799</ele>
<time>2024-05-09T14:23:59Z</time>
</trkpt>
<trkpt lat="49.57408519461751" lon="9.266968695446849">
<ele>260.2</ele>
<time>2024-05-09T14:24:00Z</time>
</trkpt>
<trkpt lat="49.57405082881451" lon="9.266975400969386">
<ele>260.4</ele>
<time>2024-05-09T14:24:01Z</time>
</trkpt>
<trkpt lat="49.574016546830535" lon="9.266978250816464">
<ele>260.799</ele>
<time>2024-05-09T14:24:02Z</time>
</trkpt>
<trkpt lat="49.57398218102753" lon="9.266983028501272">
<ele>261</ele>
<time>2024-05-09T14:24:03Z</time>
</trkpt>
<trkpt lat="49.57394789904356" lon="9.266988728195429">
<ele>261.2</ele>
<time>2024-05-09T14:24:04Z</time>
</trkpt>
<trkpt lat="49.57391353324056" lon="9.266991578042507">
<ele>261.4</ele>
<time>2024-05-09T14:24:05Z</time>
</trkpt>
<trkpt lat="49.573875395581126" lon="9.266996355727317">
<ele>261.799</ele>
<time>2024-05-09T14:24:06Z</time>
</trkpt>
<trkpt lat="49.57384102977812" lon="9.267002055421472">
<ele>262</ele>
<time>2024-05-09T14:24:07Z</time>
</trkpt>
<trkpt lat="49.57380674779415" lon="9.26700490526855">
<ele>262.2</ele>
<time>2024-05-09T14:24:08Z</time>
</trkpt>
<trkpt lat="49.57376861013472" lon="9.26700683310628">
<ele>262.6</ele>
<time>2024-05-09T14:24:09Z</time>
</trkpt>
<trkpt lat="49.57373424433172" lon="9.26700683310628">
<ele>262.8</ele>
<time>2024-05-09T14:24:10Z</time>
</trkpt>
<trkpt lat="49.57369610667229" lon="9.26700683310628">
<ele>263</ele>
<time>2024-05-09T14:24:11Z</time>
</trkpt>
<trkpt lat="49.57366174086928" lon="9.26700683310628">
<ele>263.2</ele>
<time>2024-05-09T14:24:12Z</time>
</trkpt>
<trkpt lat="49.57362745888531" lon="9.26700683310628">
<ele>263.4</ele>
<time>2024-05-09T14:24:13Z</time>
</trkpt>
<trkpt lat="49.57359309308231" lon="9.26700490526855">
<ele>263.6</ele>
<time>2024-05-09T14:24:14Z</time>
</trkpt>
<trkpt lat="49.57355495542288" lon="9.26700490526855">
<ele>263.8</ele>
<time>2024-05-09T14:24:15Z</time>
</trkpt>
<trkpt lat="49.573520589619875" lon="9.26700297743082">
<ele>264</ele>
<time>2024-05-09T14:24:16Z</time>
</trkpt>
<trkpt lat="49.5734863076359" lon="9.26700297743082">
<ele>264</ele>
<time>2024-05-09T14:24:17Z</time>
</trkpt>
<trkpt lat="49.5734519418329" lon="9.26700683310628">
<ele>264.2</ele>
<time>2024-05-09T14:24:18Z</time>
</trkpt>
<trkpt lat="49.57341765984893" lon="9.267008760944009">
<ele>264.4</ele>
<time>2024-05-09T14:24:19Z</time>
</trkpt>
<trkpt lat="49.573383294045925" lon="9.267013538628817">
<ele>264.6</ele>
<time>2024-05-09T14:24:20Z</time>
</trkpt>
<trkpt lat="49.573345156386495" lon="9.267015382647514">
<ele>264.6</ele>
<time>2024-05-09T14:24:21Z</time>
</trkpt>
<trkpt lat="49.57331464625895" lon="9.267020160332322">
<ele>264.8</ele>
<time>2024-05-09T14:24:22Z</time>
</trkpt>
<trkpt lat="49.57327650859952" lon="9.26702493801713">
<ele>265</ele>
<time>2024-05-09T14:24:23Z</time>
</trkpt>
<trkpt lat="49.57324214279651" lon="9.267033571377397">
<ele>265.2</ele>
<time>2024-05-09T14:24:24Z</time>
</trkpt>
<trkpt lat="49.57320777699351" lon="9.26704497076571">
<ele>265.4</ele>
<time>2024-05-09T14:24:25Z</time>
</trkpt>
<trkpt lat="49.57317349500954" lon="9.267054526135324">
<ele>265.6</ele>
<time>2024-05-09T14:24:26Z</time>
</trkpt>
<trkpt lat="49.57313912920654" lon="9.26706500351429">
<ele>265.8</ele>
<time>2024-05-09T14:24:27Z</time>
</trkpt>
<trkpt lat="49.57310484722257" lon="9.267076486721637">
<ele>265.8</ele>
<time>2024-05-09T14:24:28Z</time>
</trkpt>
<trkpt lat="49.573066709563136" lon="9.2670869641006">
<ele>266</ele>
<time>2024-05-09T14:24:29Z</time>
</trkpt>
<trkpt lat="49.57303234376013" lon="9.267094591632484">
<ele>266.2</ele>
<time>2024-05-09T14:24:30Z</time>
</trkpt>
<trkpt lat="49.57299797795713" lon="9.26710506901145">
<ele>266.4</ele>
<time>2024-05-09T14:24:31Z</time>
</trkpt>
<trkpt lat="49.57296369597316" lon="9.267113618552685">
<ele>266.6</ele>
<time>2024-05-09T14:24:32Z</time>
</trkpt>
<trkpt lat="49.572929330170155" lon="9.26712124608457">
<ele>266.8</ele>
<time>2024-05-09T14:24:33Z</time>
</trkpt>
<trkpt lat="49.57289504818618" lon="9.267127951607108">
<ele>267</ele>
<time>2024-05-09T14:24:34Z</time>
</trkpt>
<trkpt lat="49.57285682670772" lon="9.267136501148345">
<ele>267.2</ele>
<time>2024-05-09T14:24:35Z</time>
</trkpt>
<trkpt lat="49.572826316580176" lon="9.26714513450861">
<ele>267.4</ele>
<time>2024-05-09T14:24:36Z</time>
</trkpt>
<trkpt lat="49.572788178920746" lon="9.267156533896925">
<ele>267.8</ele>
<time>2024-05-09T14:24:37Z</time>
</trkpt>
<trkpt lat="49.5727576687932" lon="9.267167011275887">
<ele>268</ele>
<time>2024-05-09T14:24:38Z</time>
</trkpt>
<trkpt lat="49.57272338680923" lon="9.267176566645505">
<ele>268.4</ele>
<time>2024-05-09T14:24:39Z</time>
</trkpt>
<trkpt lat="49.57268902100623" lon="9.26718327216804">
<ele>268.8</ele>
<time>2024-05-09T14:24:40Z</time>
</trkpt>
<trkpt lat="49.57265851087868" lon="9.267189977690578">
<ele>269.4</ele>
<time>2024-05-09T14:24:41Z</time>
</trkpt>
<trkpt lat="49.57262414507568" lon="9.267200455069542">
<ele>269.8</ele>
<time>2024-05-09T14:24:42Z</time>
</trkpt>
<trkpt lat="49.572593634948134" lon="9.267214704304934">
<ele>270.2</ele>
<time>2024-05-09T14:24:43Z</time>
</trkpt>
<trkpt lat="49.57256312482059" lon="9.267231887206435">
<ele>270.4</ele>
<time>2024-05-09T14:24:44Z</time>
</trkpt>
<trkpt lat="49.57253638654947" lon="9.267251919955015">
<ele>270.8</ele>
<time>2024-05-09T14:24:45Z</time>
</trkpt>
<trkpt lat="49.57250587642193" lon="9.267270024865866">
<ele>271</ele>
<time>2024-05-09T14:24:46Z</time>
</trkpt>
<trkpt lat="49.572475366294384" lon="9.267288129776716">
<ele>271.2</ele>
<time>2024-05-09T14:24:47Z</time>
</trkpt>
<trkpt lat="49.57244485616684" lon="9.267308162525296">
<ele>271.4</ele>
<time>2024-05-09T14:24:48Z</time>
</trkpt>
<trkpt lat="49.572414346039295" lon="9.267330123111606">
<ele>271.6</ele>
<time>2024-05-09T14:24:49Z</time>
</trkpt>
<trkpt lat="49.57238769158721" lon="9.267352083697917">
<ele>271.8</ele>
<time>2024-05-09T14:24:50Z</time>
</trkpt>
<trkpt lat="49.572357097640634" lon="9.267374966293572">
<ele>272</ele>
<time>2024-05-09T14:24:51Z</time>
</trkpt>
<trkpt lat="49.57232658751309" lon="9.26739977672696">
<ele>272.2</ele>
<time>2024-05-09T14:24:52Z</time>
</trkpt>
<trkpt lat="49.572296077385545" lon="9.267423581331968">
<ele>272.4</ele>
<time>2024-05-09T14:24:53Z</time>
</trkpt>
<trkpt lat="49.572265567258" lon="9.267446463927628">
<ele>272.4</ele>
<time>2024-05-09T14:24:54Z</time>
</trkpt>
<trkpt lat="49.572235057130456" lon="9.267473202198744">
<ele>272.4</ele>
<time>2024-05-09T14:24:55Z</time>
</trkpt>
<trkpt lat="49.57220454700291" lon="9.267503712326288">
<ele>272.4</ele>
<time>2024-05-09T14:24:56Z</time>
</trkpt>
<trkpt lat="49.57217403687537" lon="9.267537072300913">
<ele>272.6</ele>
<time>2024-05-09T14:24:57Z</time>
</trkpt>
<trkpt lat="49.57213967107237" lon="9.267569510266185">
<ele>272.6</ele>
<time>2024-05-09T14:24:58Z</time>
</trkpt>
<trkpt lat="49.57210538908839" lon="9.267608569934964">
<ele>272.6</ele>
<time>2024-05-09T14:24:59Z</time>
</trkpt>
<trkpt lat="49.57207102328539" lon="9.267648635432124">
<ele>272.6</ele>
<time>2024-05-09T14:25:00Z</time>
</trkpt>
<trkpt lat="49.57203288562596" lon="9.267686773091556">
<ele>272.6</ele>
<time>2024-05-09T14:25:01Z</time>
</trkpt>
<trkpt lat="49.57199474796653" lon="9.267729688435791">
<ele>272.6</ele>
<time>2024-05-09T14:25:02Z</time>
</trkpt>
<trkpt lat="49.5719566103071" lon="9.26777453161776">
<ele>272.4</ele>
<time>2024-05-09T14:25:03Z</time>
</trkpt>
<trkpt lat="49.57191847264767" lon="9.267825074493883">
<ele>272.2</ele>
<time>2024-05-09T14:25:04Z</time>
</trkpt>
<trkpt lat="49.57187647931278" lon="9.26787662319839">
<ele>272.2</ele>
<time>2024-05-09T14:25:05Z</time>
</trkpt>
<trkpt lat="49.57183071412146" lon="9.267928088083863">
<ele>272</ele>
<time>2024-05-09T14:25:06Z</time>
</trkpt>
<trkpt lat="49.571784948930144" lon="9.267979552969337">
<ele>272</ele>
<time>2024-05-09T14:25:07Z</time>
</trkpt>
<trkpt lat="49.57173155620694" lon="9.26803294569254">
<ele>271.8</ele>
<time>2024-05-09T14:25:08Z</time>
</trkpt>
<trkpt lat="49.57167807966471" lon="9.268083572387695">
<ele>271.6</ele>
<time>2024-05-09T14:25:09Z</time>
</trkpt>
<trkpt lat="49.571624686941504" lon="9.268136965110898">
<ele>271.4</ele>
<time>2024-05-09T14:25:10Z</time>
</trkpt>
<trkpt lat="49.5715712942183" lon="9.2681903578341">
<ele>271.4</ele>
<time>2024-05-09T14:25:11Z</time>
</trkpt>
<trkpt lat="49.5715179014951" lon="9.268243750557303">
<ele>271.2</ele>
<time>2024-05-09T14:25:12Z</time>
</trkpt>
<trkpt lat="49.571464508771896" lon="9.268298149108888">
<ele>271</ele>
<time>2024-05-09T14:25:13Z</time>
</trkpt>
<trkpt lat="49.57141488790512" lon="9.26835154183209">
<ele>271</ele>
<time>2024-05-09T14:25:14Z</time>
</trkpt>
<trkpt lat="49.57136149518192" lon="9.268400156870484">
<ele>270.8</ele>
<time>2024-05-09T14:25:15Z</time>
</trkpt>
<trkpt lat="49.57131187431514" lon="9.26844784989953">
<ele>270.6</ele>
<time>2024-05-09T14:25:16Z</time>
</trkpt>
<trkpt lat="49.5712623372674" lon="9.268498392775657">
<ele>270.4</ele>
<time>2024-05-09T14:25:17Z</time>
</trkpt>
<trkpt lat="49.57121271640062" lon="9.26854700781405">
<ele>270.4</ele>
<time>2024-05-09T14:25:18Z</time>
</trkpt>
<trkpt lat="49.57116309553385" lon="9.268594700843096">
<ele>270.2</ele>
<time>2024-05-09T14:25:19Z</time>
</trkpt>
<trkpt lat="49.571113558486104" lon="9.268638538196685">
<ele>270.2</ele>
<time>2024-05-09T14:25:20Z</time>
</trkpt>
<trkpt lat="49.57106393761933" lon="9.26868338137865">
<ele>270.2</ele>
<time>2024-05-09T14:25:21Z</time>
</trkpt>
<trkpt lat="49.57101817242801" lon="9.268726296722887">
<ele>270</ele>
<time>2024-05-09T14:25:22Z</time>
</trkpt>
<trkpt lat="49.57097617909312" lon="9.268768290057778">
<ele>270</ele>
<time>2024-05-09T14:25:23Z</time>
</trkpt>
<trkpt lat="49.570930413901806" lon="9.268808355554938">
<ele>269.8</ele>
<time>2024-05-09T14:25:24Z</time>
</trkpt>
<trkpt lat="49.57088850438595" lon="9.268851270899177">
<ele>269.6</ele>
<time>2024-05-09T14:25:25Z</time>
</trkpt>
<trkpt lat="49.57085036672652" lon="9.268897958099842">
<ele>269.4</ele>
<time>2024-05-09T14:25:26Z</time>
</trkpt>
<trkpt lat="49.570812145248055" lon="9.268946573138235">
<ele>269.2</ele>
<time>2024-05-09T14:25:27Z</time>
</trkpt>
<trkpt lat="49.570774007588625" lon="9.268998121842742">
<ele>269.2</ele>
<time>2024-05-09T14:25:28Z</time>
</trkpt>
<trkpt lat="49.57073972560465" lon="9.269051514565945">
<ele>269</ele>
<time>2024-05-09T14:25:29Z</time>
</trkpt>
<trkpt lat="49.570712987333536" lon="9.269109684973955">
<ele>269</ele>
<time>2024-05-09T14:25:30Z</time>
</trkpt>
<trkpt lat="49.570678705349565" lon="9.269171711057425">
<ele>269.2</ele>
<time>2024-05-09T14:25:31Z</time>
</trkpt>
<trkpt lat="49.57064433954656" lon="9.269234575331213">
<ele>269.2</ele>
<time>2024-05-09T14:25:32Z</time>
</trkpt>
<trkpt lat="49.57060997374356" lon="9.26929852925241">
<ele>269.2</ele>
<time>2024-05-09T14:25:33Z</time>
</trkpt>
<trkpt lat="49.57057183608413" lon="9.269363321363926">
<ele>269.2</ele>
<time>2024-05-09T14:25:34Z</time>
</trkpt>
<trkpt lat="49.5705336984247" lon="9.269432052969933">
<ele>269.2</ele>
<time>2024-05-09T14:25:35Z</time>
</trkpt>
<trkpt lat="49.570495560765266" lon="9.26949977874756">
<ele>269.2</ele>
<time>2024-05-09T14:25:36Z</time>
</trkpt>
<trkpt lat="49.57044979557395" lon="9.269566498696804">
<ele>269.2</ele>
<time>2024-05-09T14:25:37Z</time>
</trkpt>
<trkpt lat="49.57040780223906" lon="9.26963321864605">
<ele>269.2</ele>
<time>2024-05-09T14:25:38Z</time>
</trkpt>
<trkpt lat="49.570362037047744" lon="9.269702872261403">
<ele>269.2</ele>
<time>2024-05-09T14:25:39Z</time>
</trkpt>
<trkpt lat="49.570320127531886" lon="9.26977344788611">
<ele>269.2</ele>
<time>2024-05-09T14:25:40Z</time>
</trkpt>
<trkpt lat="49.570278134197" lon="9.269842095673084">
<ele>269.2</ele>
<time>2024-05-09T14:25:41Z</time>
</trkpt>
<trkpt lat="49.570239996537566" lon="9.26991174928844">
<ele>269.2</ele>
<time>2024-05-09T14:25:42Z</time>
</trkpt>
<trkpt lat="49.570201858878136" lon="9.269974697381258">
<ele>269</ele>
<time>2024-05-09T14:25:43Z</time>
</trkpt>
<trkpt lat="49.570163721218705" lon="9.270038567483423">
<ele>269</ele>
<time>2024-05-09T14:25:44Z</time>
</trkpt>
<trkpt lat="49.5701293554157" lon="9.270099587738514">
<ele>268.8</ele>
<time>2024-05-09T14:25:45Z</time>
</trkpt>
<trkpt lat="49.57009121775627" lon="9.270161613821983">
<ele>268.8</ele>
<time>2024-05-09T14:25:46Z</time>
</trkpt>
<trkpt lat="49.570045452564955" lon="9.270219784229994">
<ele>268.6</ele>
<time>2024-05-09T14:25:47Z</time>
</trkpt>
<trkpt lat="49.56999583169818" lon="9.270276948809624">
<ele>268.4</ele>
<time>2024-05-09T14:25:48Z</time>
</trkpt>
<trkpt lat="49.56993858329952" lon="9.270337047055364">
<ele>268.2</ele>
<time>2024-05-09T14:25:49Z</time>
</trkpt>
<trkpt lat="49.56987756304443" lon="9.270398067310452">
<ele>268</ele>
<time>2024-05-09T14:25:50Z</time>
</trkpt>
<trkpt lat="49.56980514340103" lon="9.270468642935157">
<ele>267.8</ele>
<time>2024-05-09T14:25:51Z</time>
</trkpt>
<trkpt lat="49.56973263993859" lon="9.270534440875052">
<ele>267.4</ele>
<time>2024-05-09T14:25:52Z</time>
</trkpt>
<trkpt lat="49.56965636461973" lon="9.27060317248106">
<ele>267.2</ele>
<time>2024-05-09T14:25:53Z</time>
</trkpt>
<trkpt lat="49.56957623362541" lon="9.270667964592576">
<ele>266.8</ele>
<time>2024-05-09T14:25:54Z</time>
</trkpt>
<trkpt lat="49.56949610263109" lon="9.270728062838316">
<ele>266.4</ele>
<time>2024-05-09T14:25:55Z</time>
</trkpt>
<trkpt lat="49.56941982731223" lon="9.270786233246326">
<ele>266</ele>
<time>2024-05-09T14:25:56Z</time>
</trkpt>
<trkpt lat="49.56933969631791" lon="9.270848259329796">
<ele>265.6</ele>
<time>2024-05-09T14:25:57Z</time>
</trkpt>
<trkpt lat="49.569271048530936" lon="9.270903579890728">
<ele>265.2</ele>
<time>2024-05-09T14:25:58Z</time>
</trkpt>
<trkpt lat="49.569194773212075" lon="9.270963594317436">
<ele>264.8</ele>
<time>2024-05-09T14:25:59Z</time>
</trkpt>
<trkpt lat="49.56910315901041" lon="9.271039953455327">
<ele>264.4</ele>
<time>2024-05-09T14:26:00Z</time>
</trkpt>
<trkpt lat="49.56902311183512" lon="9.271122850477695">
<ele>263.8</ele>
<time>2024-05-09T14:26:01Z</time>
</trkpt>
<trkpt lat="49.56894683651626" lon="9.271184876561165">
<ele>263</ele>
<time>2024-05-09T14:26:02Z</time>
</trkpt>
<trkpt lat="49.568859077990055" lon="9.27125453017652">
<ele>262.6</ele>
<time>2024-05-09T14:26:03Z</time>
</trkpt>
<trkpt lat="49.56878657452762" lon="9.27131362259388">
<ele>262.2</ele>
<time>2024-05-09T14:26:04Z</time>
</trkpt>
<trkpt lat="49.56871407106519" lon="9.271381348371506">
<ele>261.799</ele>
<time>2024-05-09T14:26:05Z</time>
</trkpt>
<trkpt lat="49.568641651421785" lon="9.27144999615848">
<ele>261.6</ele>
<time>2024-05-09T14:26:06Z</time>
</trkpt>
<trkpt lat="49.56856914795935" lon="9.271519649773836">
<ele>261.4</ele>
<time>2024-05-09T14:26:07Z</time>
</trkpt>
<trkpt lat="49.56850050017238" lon="9.271586369723082">
<ele>261.4</ele>
<time>2024-05-09T14:26:08Z</time>
</trkpt>
<trkpt lat="49.5684318523854" lon="9.271655017510056">
<ele>261.4</ele>
<time>2024-05-09T14:26:09Z</time>
</trkpt>
<trkpt lat="49.56835934892297" lon="9.271721821278334">
<ele>261.2</ele>
<time>2024-05-09T14:26:10Z</time>
</trkpt>
<trkpt lat="49.56829447299242" lon="9.271782841533422">
<ele>261.2</ele>
<time>2024-05-09T14:26:11Z</time>
</trkpt>
<trkpt lat="49.56822959706187" lon="9.27184478379786">
<ele>261.2</ele>
<time>2024-05-09T14:26:12Z</time>
</trkpt>
<trkpt lat="49.568168576806784" lon="9.27190873771906">
<ele>261.4</ele>
<time>2024-05-09T14:26:13Z</time>
</trkpt>
<trkpt lat="49.568111412227154" lon="9.271973529830577">
<ele>261.2</ele>
<time>2024-05-09T14:26:14Z</time>
</trkpt>
<trkpt lat="49.56805793568492" lon="9.272031784057615">
<ele>261.2</ele>
<time>2024-05-09T14:26:15Z</time>
</trkpt>
<trkpt lat="49.56800454296172" lon="9.27208517678082">
<ele>261.2</ele>
<time>2024-05-09T14:26:16Z</time>
</trkpt>
<trkpt lat="49.567951150238514" lon="9.272131863981484">
<ele>261</ele>
<time>2024-05-09T14:26:17Z</time>
</trkpt>
<trkpt lat="49.56790152937174" lon="9.272174779325724">
<ele>260.799</ele>
<time>2024-05-09T14:26:18Z</time>
</trkpt>
<trkpt lat="49.56785576418042" lon="9.272212916985154">
<ele>260.799</ele>
<time>2024-05-09T14:26:19Z</time>
</trkpt>
<trkpt lat="49.567809998989105" lon="9.272248204797506">
<ele>260.799</ele>
<time>2024-05-09T14:26:20Z</time>
</trkpt>
<trkpt lat="49.56776423379779" lon="9.272281564772127">
<ele>260.799</ele>
<time>2024-05-09T14:26:21Z</time>
</trkpt>
<trkpt lat="49.56771846860647" lon="9.272313080728054">
<ele>260.799</ele>
<time>2024-05-09T14:26:22Z</time>
</trkpt>
<trkpt lat="49.567672703415155" lon="9.272344512864947">
<ele>260.799</ele>
<time>2024-05-09T14:26:23Z</time>
</trkpt>
<trkpt lat="49.567630710080266" lon="9.272375106811523">
<ele>260.799</ele>
<time>2024-05-09T14:26:24Z</time>
</trkpt>
<trkpt lat="49.56758494488895" lon="9.272406538948417">
<ele>260.799</ele>
<time>2024-05-09T14:26:25Z</time>
</trkpt>
<trkpt lat="49.56754295155406" lon="9.27243704907596">
<ele>261</ele>
<time>2024-05-09T14:26:26Z</time>
</trkpt>
<trkpt lat="49.5675010420382" lon="9.272464709356427">
<ele>261</ele>
<time>2024-05-09T14:26:27Z</time>
</trkpt>
<trkpt lat="49.56745904870331" lon="9.272491447627544">
<ele>261</ele>
<time>2024-05-09T14:26:28Z</time>
</trkpt>
<trkpt lat="49.567417139187455" lon="9.2725161742419">
<ele>261</ele>
<time>2024-05-09T14:26:29Z</time>
</trkpt>
<trkpt lat="49.56738277338445" lon="9.272535284981132">
<ele>261.2</ele>
<time>2024-05-09T14:26:30Z</time>
</trkpt>
<trkpt lat="49.56734463572502" lon="9.272549618035557">
<ele>261.2</ele>
<time>2024-05-09T14:26:31Z</time>
</trkpt>
<trkpt lat="49.56730649806559" lon="9.272562945261598">
<ele>261.2</ele>
<time>2024-05-09T14:26:32Z</time>
</trkpt>
<trkpt lat="49.56727213226259" lon="9.272575350478292">
<ele>261.4</ele>
<time>2024-05-09T14:26:33Z</time>
</trkpt>
<trkpt lat="49.56723399460316" lon="9.272586749866605">
<ele>261.6</ele>
<time>2024-05-09T14:26:34Z</time>
</trkpt>
<trkpt lat="49.56719585694373" lon="9.27259630523622">
<ele>261.799</ele>
<time>2024-05-09T14:26:35Z</time>
</trkpt>
<trkpt lat="49.567157719284296" lon="9.272603010758758">
<ele>262</ele>
<time>2024-05-09T14:26:36Z</time>
</trkpt>
<trkpt lat="49.567119581624866" lon="9.272609632462265">
<ele>262.2</ele>
<time>2024-05-09T14:26:37Z</time>
</trkpt>
<trkpt lat="49.567081443965435" lon="9.272613488137722">
<ele>262.2</ele>
<time>2024-05-09T14:26:38Z</time>
</trkpt>
<trkpt lat="49.56704707816243" lon="9.272615415975451">
<ele>262.4</ele>
<time>2024-05-09T14:26:39Z</time>
</trkpt>
<trkpt lat="49.567008940503" lon="9.2726163379848">
<ele>262.6</ele>
<time>2024-05-09T14:26:40Z</time>
</trkpt>
<trkpt lat="49.5669745747" lon="9.27262019366026">
<ele>262.8</ele>
<time>2024-05-09T14:26:41Z</time>
</trkpt>
<trkpt lat="49.566940292716026" lon="9.272622037678955">
<ele>263</ele>
<time>2024-05-09T14:26:42Z</time>
</trkpt>
<trkpt lat="49.56690978258848" lon="9.272623043507338">
<ele>263.2</ele>
<time>2024-05-09T14:26:43Z</time>
</trkpt>
<trkpt lat="49.56687156111002" lon="9.272623043507338">
<ele>263.4</ele>
<time>2024-05-09T14:26:44Z</time>
</trkpt>
<trkpt lat="49.56683727912605" lon="9.272622037678955">
<ele>263.6</ele>
<time>2024-05-09T14:26:45Z</time>
</trkpt>
<trkpt lat="49.566802913323045" lon="9.27262019366026">
<ele>264</ele>
<time>2024-05-09T14:26:46Z</time>
</trkpt>
<trkpt lat="49.56676863133907" lon="9.27261826582253">
<ele>264.2</ele>
<time>2024-05-09T14:26:47Z</time>
</trkpt>
<trkpt lat="49.56673812121153" lon="9.27261826582253">
<ele>264.6</ele>
<time>2024-05-09T14:26:48Z</time>
</trkpt>
<trkpt lat="49.566703755408525" lon="9.272622037678955">
<ele>265</ele>
<time>2024-05-09T14:26:49Z</time>
</trkpt>
<trkpt lat="49.56666938960552" lon="9.272629665210845">
<ele>265.2</ele>
<time>2024-05-09T14:26:50Z</time>
</trkpt>
<trkpt lat="49.56663510762155" lon="9.272647853940724">
<ele>265.6</ele>
<time>2024-05-09T14:26:51Z</time>
</trkpt>
<trkpt lat="49.56660074181855" lon="9.27267450839281">
<ele>265.8</ele>
<time>2024-05-09T14:26:52Z</time>
</trkpt>
<trkpt lat="49.566566459834576" lon="9.272705018520355">
<ele>266</ele>
<time>2024-05-09T14:26:53Z</time>
</trkpt>
<trkpt lat="49.56652823835611" lon="9.27273653447628">
<ele>266.2</ele>
<time>2024-05-09T14:26:54Z</time>
</trkpt>
<trkpt lat="49.56649010069668" lon="9.27277366630733">
<ele>266.2</ele>
<time>2024-05-09T14:26:55Z</time>
</trkpt>
<trkpt lat="49.56645196303725" lon="9.272811887785792">
<ele>266.4</ele>
<time>2024-05-09T14:26:56Z</time>
</trkpt>
<trkpt lat="49.566410053521395" lon="9.272850025445225">
<ele>266.4</ele>
<time>2024-05-09T14:26:57Z</time>
</trkpt>
<trkpt lat="49.566368060186505" lon="9.272886235266924">
<ele>266.6</ele>
<time>2024-05-09T14:26:58Z</time>
</trkpt>
<trkpt lat="49.566326066851616" lon="9.272923450917006">
<ele>266.6</ele>
<time>2024-05-09T14:26:59Z</time>
</trkpt>
<trkpt lat="49.5662803016603" lon="9.272959660738708">
<ele>266.6</ele>
<time>2024-05-09T14:27:00Z</time>
</trkpt>
<trkpt lat="49.56623839214444" lon="9.27299302071333">
<ele>266.6</ele>
<time>2024-05-09T14:27:01Z</time>
</trkpt>
<trkpt lat="49.56620025448501" lon="9.273026464506984">
<ele>266.6</ele>
<time>2024-05-09T14:27:02Z</time>
</trkpt>
<trkpt lat="49.56615826115012" lon="9.273059824481606">
<ele>266.6</ele>
<time>2024-05-09T14:27:03Z</time>
</trkpt>
<trkpt lat="49.56611626781523" lon="9.27309033460915">
<ele>266.6</ele>
<time>2024-05-09T14:27:04Z</time>
</trkpt>
<trkpt lat="49.56607050262392" lon="9.273116989061236">
<ele>266.6</ele>
<time>2024-05-09T14:27:05Z</time>
</trkpt>
<trkpt lat="49.56602859310806" lon="9.273143727332354">
<ele>266.6</ele>
<time>2024-05-09T14:27:06Z</time>
</trkpt>
<trkpt lat="49.56598659977317" lon="9.27317138761282">
<ele>266.4</ele>
<time>2024-05-09T14:27:07Z</time>
</trkpt>
<trkpt lat="49.56594460643828" lon="9.273201897740364">
<ele>266.4</ele>
<time>2024-05-09T14:27:08Z</time>
</trkpt>
<trkpt lat="49.56589884124696" lon="9.27322955802083">
<ele>266.4</ele>
<time>2024-05-09T14:27:09Z</time>
</trkpt>
<trkpt lat="49.565856931731105" lon="9.273256296291947">
<ele>266.4</ele>
<time>2024-05-09T14:27:10Z</time>
</trkpt>
<trkpt lat="49.565814938396215" lon="9.273282028734684">
<ele>266.4</ele>
<time>2024-05-09T14:27:11Z</time>
</trkpt>
<trkpt lat="49.565776800736785" lon="9.27330868318677">
<ele>266.2</ele>
<time>2024-05-09T14:27:12Z</time>
</trkpt>
<trkpt lat="49.565734807401896" lon="9.273331565782428">
<ele>266</ele>
<time>2024-05-09T14:27:13Z</time>
</trkpt>
<trkpt lat="49.565696669742465" lon="9.273355454206468">
<ele>266</ele>
<time>2024-05-09T14:27:14Z</time>
</trkpt>
<trkpt lat="49.565654676407576" lon="9.273378336802123">
<ele>265.8</ele>
<time>2024-05-09T14:27:15Z</time>
</trkpt>
<trkpt lat="49.56561276689172" lon="9.273400297388434">
<ele>265.8</ele>
<time>2024-05-09T14:27:16Z</time>
</trkpt>
<trkpt lat="49.56557462923229" lon="9.27342502400279">
<ele>265.8</ele>
<time>2024-05-09T14:27:17Z</time>
</trkpt>
<trkpt lat="49.5655326358974" lon="9.273451762273908">
<ele>265.8</ele>
<time>2024-05-09T14:27:18Z</time>
</trkpt>
<trkpt lat="49.56549449823797" lon="9.273478500545025">
<ele>266</ele>
<time>2024-05-09T14:27:19Z</time>
</trkpt>
<trkpt lat="49.56545636057854" lon="9.273501383140683">
<ele>266</ele>
<time>2024-05-09T14:27:20Z</time>
</trkpt>
<trkpt lat="49.56541822291911" lon="9.27352518774569">
<ele>266</ele>
<time>2024-05-09T14:27:21Z</time>
</trkpt>
<trkpt lat="49.56538008525968" lon="9.27354614250362">
<ele>266</ele>
<time>2024-05-09T14:27:22Z</time>
</trkpt>
<trkpt lat="49.56534571945667" lon="9.273568103089929">
<ele>265.8</ele>
<time>2024-05-09T14:27:23Z</time>
</trkpt>
<trkpt lat="49.56531135365367" lon="9.273590063676238">
<ele>265.8</ele>
<time>2024-05-09T14:27:24Z</time>
</trkpt>
<trkpt lat="49.56527321599424" lon="9.273610096424818">
<ele>265.8</ele>
<time>2024-05-09T14:27:25Z</time>
</trkpt>
<trkpt lat="49.56523893401027" lon="9.273628201335669">
<ele>265.8</ele>
<time>2024-05-09T14:27:26Z</time>
</trkpt>
<trkpt lat="49.56519694067538" lon="9.273650161921978">
<ele>265.8</ele>
<time>2024-05-09T14:27:27Z</time>
</trkpt>
<trkpt lat="49.56515880301595" lon="9.273668266832829">
<ele>266</ele>
<time>2024-05-09T14:27:28Z</time>
</trkpt>
<trkpt lat="49.56512066535652" lon="9.273693077266216">
<ele>266</ele>
<time>2024-05-09T14:27:29Z</time>
</trkpt>
<trkpt lat="49.565082527697086" lon="9.273717803880572">
<ele>266</ele>
<time>2024-05-09T14:27:30Z</time>
</trkpt>
<trkpt lat="49.5650405343622" lon="9.273741692304611">
<ele>266</ele>
<time>2024-05-09T14:27:31Z</time>
</trkpt>
<trkpt lat="49.565002396702766" lon="9.273766502738">
<ele>266</ele>
<time>2024-05-09T14:27:32Z</time>
</trkpt>
<trkpt lat="49.56496040336788" lon="9.273791313171388">
<ele>266</ele>
<time>2024-05-09T14:27:33Z</time>
</trkpt>
<trkpt lat="49.56491849385202" lon="9.273815117776394">
<ele>266.2</ele>
<time>2024-05-09T14:27:34Z</time>
</trkpt>
<trkpt lat="49.56487650051713" lon="9.273838000372052">
<ele>266.2</ele>
<time>2024-05-09T14:27:35Z</time>
</trkpt>
<trkpt lat="49.56483459100127" lon="9.273859960958362">
<ele>266.2</ele>
<time>2024-05-09T14:27:36Z</time>
</trkpt>
<trkpt lat="49.56479259766638" lon="9.27388477139175">
<ele>266.2</ele>
<time>2024-05-09T14:27:37Z</time>
</trkpt>
<trkpt lat="49.56475060433149" lon="9.273909498006104">
<ele>266.4</ele>
<time>2024-05-09T14:27:38Z</time>
</trkpt>
<trkpt lat="49.56470869481563" lon="9.273936236277224">
<ele>266.4</ele>
<time>2024-05-09T14:27:39Z</time>
</trkpt>
<trkpt lat="49.564670557156205" lon="9.27396004088223">
<ele>266.4</ele>
<time>2024-05-09T14:27:40Z</time>
</trkpt>
<trkpt lat="49.56463233567774" lon="9.273984851315618">
<ele>266.4</ele>
<time>2024-05-09T14:27:41Z</time>
</trkpt>
<trkpt lat="49.564590426161885" lon="9.274009661749004">
<ele>266.4</ele>
<time>2024-05-09T14:27:42Z</time>
</trkpt>
<trkpt lat="49.564552288502455" lon="9.274026844650509">
<ele>266.6</ele>
<time>2024-05-09T14:27:43Z</time>
</trkpt>
<trkpt lat="49.564514150843024" lon="9.274043021723628">
<ele>266.6</ele>
<time>2024-05-09T14:27:44Z</time>
</trkpt>
<trkpt lat="49.56447978504002" lon="9.27406112663448">
<ele>266.8</ele>
<time>2024-05-09T14:27:45Z</time>
</trkpt>
<trkpt lat="49.564453046768904" lon="9.27407830953598">
<ele>266.8</ele>
<time>2024-05-09T14:27:46Z</time>
</trkpt>
<trkpt lat="49.56442639231682" lon="9.274103119969368">
<ele>266.8</ele>
<time>2024-05-09T14:27:47Z</time>
</trkpt>
<trkpt lat="49.56438825465739" lon="9.27412122488022">
<ele>267</ele>
<time>2024-05-09T14:27:48Z</time>
</trkpt>
<trkpt lat="49.5643462613225" lon="9.27414033561945">
<ele>267</ele>
<time>2024-05-09T14:27:49Z</time>
</trkpt>
<trkpt lat="49.56430049613118" lon="9.274166990071537">
<ele>267</ele>
<time>2024-05-09T14:27:50Z</time>
</trkpt>
<trkpt lat="49.564254730939865" lon="9.274193728342652">
<ele>267.2</ele>
<time>2024-05-09T14:27:51Z</time>
</trkpt>
<trkpt lat="49.56420896574855" lon="9.274221388623118">
<ele>267.2</ele>
<time>2024-05-09T14:27:52Z</time>
</trkpt>
<trkpt lat="49.56416697241366" lon="9.274246199056506">
<ele>267.2</ele>
<time>2024-05-09T14:27:53Z</time>
</trkpt>
<trkpt lat="49.56412883475423" lon="9.274272853508592">
<ele>267.4</ele>
<time>2024-05-09T14:27:54Z</time>
</trkpt>
<trkpt lat="49.56408306956291" lon="9.274291964247825">
<ele>267.2</ele>
<time>2024-05-09T14:27:55Z</time>
</trkpt>
<trkpt lat="49.564037304371595" lon="9.274312919005752">
<ele>267.2</ele>
<time>2024-05-09T14:27:56Z</time>
</trkpt>
<trkpt lat="49.56399153918028" lon="9.274346278980374">
<ele>267</ele>
<time>2024-05-09T14:27:57Z</time>
</trkpt>
<trkpt lat="49.56394954584539" lon="9.274370167404411">
<ele>267</ele>
<time>2024-05-09T14:27:58Z</time>
</trkpt>
<trkpt lat="49.5639075525105" lon="9.274392127990724">
<ele>266.8</ele>
<time>2024-05-09T14:27:59Z</time>
</trkpt>
<trkpt lat="49.56387327052653" lon="9.27441685460508">
<ele>266.6</ele>
<time>2024-05-09T14:28:00Z</time>
</trkpt>
<trkpt lat="49.563842760398984" lon="9.27443504333496">
<ele>266.6</ele>
<time>2024-05-09T14:28:01Z</time>
</trkpt>
<trkpt lat="49.563819877803326" lon="9.274450298398731">
<ele>266.6</ele>
<time>2024-05-09T14:28:02Z</time>
</trkpt>
<trkpt lat="49.56379699520767" lon="9.274463625624776">
<ele>266.8</ele>
<time>2024-05-09T14:28:03Z</time>
</trkpt>
<trkpt lat="49.56377402879298" lon="9.274484580382705">
<ele>266.8</ele>
<time>2024-05-09T14:28:04Z</time>
</trkpt>
<trkpt lat="49.56374351866543" lon="9.274501763284206">
<ele>267</ele>
<time>2024-05-09T14:28:05Z</time>
</trkpt>
<trkpt lat="49.56371686421335" lon="9.27451509051025">
<ele>267.2</ele>
<time>2024-05-09T14:28:06Z</time>
</trkpt>
<trkpt lat="49.563682498410344" lon="9.274528501555324">
<ele>267.2</ele>
<time>2024-05-09T14:28:07Z</time>
</trkpt>
<trkpt lat="49.563640588894486" lon="9.274539900943635">
<ele>267.4</ele>
<time>2024-05-09T14:28:08Z</time>
</trkpt>
<trkpt lat="49.56359473988414" lon="9.274551384150982">
<ele>267.6</ele>
<time>2024-05-09T14:28:09Z</time>
</trkpt>
<trkpt lat="49.56356045790017" lon="9.274561861529946">
<ele>267.8</ele>
<time>2024-05-09T14:28:10Z</time>
</trkpt>
<trkpt lat="49.563522320240736" lon="9.274575188755987">
<ele>268</ele>
<time>2024-05-09T14:28:11Z</time>
</trkpt>
<trkpt lat="49.563484182581306" lon="9.274583738297224">
<ele>268</ele>
<time>2024-05-09T14:28:12Z</time>
</trkpt>
<trkpt lat="49.563446044921875" lon="9.274599999189377">
<ele>268.2</ele>
<time>2024-05-09T14:28:13Z</time>
</trkpt>
<trkpt lat="49.56340782344341" lon="9.274615254253147">
<ele>268.4</ele>
<time>2024-05-09T14:28:14Z</time>
</trkpt>
<trkpt lat="49.56336968578398" lon="9.274636209011078">
<ele>268.6</ele>
<time>2024-05-09T14:28:15Z</time>
</trkpt>
<trkpt lat="49.56333154812455" lon="9.274661941453816">
<ele>268.6</ele>
<time>2024-05-09T14:28:16Z</time>
</trkpt>
<trkpt lat="49.56329341046512" lon="9.27469152957201">
<ele>268.8</ele>
<time>2024-05-09T14:28:17Z</time>
</trkpt>
<trkpt lat="49.56326290033758" lon="9.274728745222092">
<ele>268.8</ele>
<time>2024-05-09T14:28:18Z</time>
</trkpt>
<trkpt lat="49.563228534534574" lon="9.2747697327286">
<ele>269</ele>
<time>2024-05-09T14:28:19Z</time>
</trkpt>
<trkpt lat="49.56320188008249" lon="9.274813570082188">
<ele>269</ele>
<time>2024-05-09T14:28:20Z</time>
</trkpt>
<trkpt lat="49.563171369954944" lon="9.27484986372292">
<ele>269</ele>
<time>2024-05-09T14:28:21Z</time>
</trkpt>
<trkpt lat="49.563144631683826" lon="9.274881295859814">
<ele>269.2</ele>
<time>2024-05-09T14:28:22Z</time>
</trkpt>
<trkpt lat="49.56312174908817" lon="9.274908034130933">
<ele>269.2</ele>
<time>2024-05-09T14:28:23Z</time>
</trkpt>
<trkpt lat="49.56309501081705" lon="9.274936616420746">
<ele>269.4</ele>
<time>2024-05-09T14:28:24Z</time>
</trkpt>
<trkpt lat="49.563068356364965" lon="9.274965282529593">
<ele>269.6</ele>
<time>2024-05-09T14:28:25Z</time>
</trkpt>
<trkpt lat="49.56304161809385" lon="9.274996714666486">
<ele>269.8</ele>
<time>2024-05-09T14:28:26Z</time>
</trkpt>
<trkpt lat="49.56301496364176" lon="9.27502814680338">
<ele>270</ele>
<time>2024-05-09T14:28:27Z</time>
</trkpt>
<trkpt lat="49.56298445351422" lon="9.275061590597034">
<ele>270</ele>
<time>2024-05-09T14:28:28Z</time>
</trkpt>
<trkpt lat="49.562950087711215" lon="9.275093022733929">
<ele>270.2</ele>
<time>2024-05-09T14:28:29Z</time>
</trkpt>
<trkpt lat="49.56291572190821" lon="9.27512831054628">
<ele>270.2</ele>
<time>2024-05-09T14:28:30Z</time>
</trkpt>
<trkpt lat="49.56288143992424" lon="9.275161670520902">
<ele>270.4</ele>
<time>2024-05-09T14:28:31Z</time>
</trkpt>
<trkpt lat="49.56284707412124" lon="9.27518455311656">
<ele>270.4</ele>
<time>2024-05-09T14:28:32Z</time>
</trkpt>
<trkpt lat="49.56281656399369" lon="9.275203663855793">
<ele>270.4</ele>
<time>2024-05-09T14:28:33Z</time>
</trkpt>
<trkpt lat="49.56278605386615" lon="9.27522461861372">
<ele>270.6</ele>
<time>2024-05-09T14:28:34Z</time>
</trkpt>
<trkpt lat="49.562751688063145" lon="9.275250434875488">
<ele>270.8</ele>
<time>2024-05-09T14:28:35Z</time>
</trkpt>
<trkpt lat="49.56272503361106" lon="9.275275161489844">
<ele>271</ele>
<time>2024-05-09T14:28:36Z</time>
</trkpt>
<trkpt lat="49.562694523483515" lon="9.275296200066805">
<ele>271.2</ele>
<time>2024-05-09T14:28:37Z</time>
</trkpt>
<trkpt lat="49.5626677852124" lon="9.275321932509542">
<ele>271.4</ele>
<time>2024-05-09T14:28:38Z</time>
</trkpt>
<trkpt lat="49.562633503228426" lon="9.275348586961629">
<ele>271.6</ele>
<time>2024-05-09T14:28:39Z</time>
</trkpt>
<trkpt lat="49.56259913742542" lon="9.275375325232744">
<ele>271.8</ele>
<time>2024-05-09T14:28:40Z</time>
</trkpt>
<trkpt lat="49.56256477162242" lon="9.27540491335094">
<ele>272</ele>
<time>2024-05-09T14:28:41Z</time>
</trkpt>
<trkpt lat="49.56252663396299" lon="9.275433495640756">
<ele>272.2</ele>
<time>2024-05-09T14:28:42Z</time>
</trkpt>
<trkpt lat="49.56248849630356" lon="9.275460233911872">
<ele>272.4</ele>
<time>2024-05-09T14:28:43Z</time>
</trkpt>
<trkpt lat="49.56245035864413" lon="9.275486888363956">
<ele>272.6</ele>
<time>2024-05-09T14:28:44Z</time>
</trkpt>
<trkpt lat="49.5624122209847" lon="9.275511698797343">
<ele>272.6</ele>
<time>2024-05-09T14:28:45Z</time>
</trkpt>
<trkpt lat="49.56237022764981" lon="9.275534581393003">
<ele>272.6</ele>
<time>2024-05-09T14:28:46Z</time>
</trkpt>
<trkpt lat="49.56233208999038" lon="9.275558469817042">
<ele>272.6</ele>
<time>2024-05-09T14:28:47Z</time>
</trkpt>
<trkpt lat="49.56229018047452" lon="9.27557841874659">
<ele>272.6</ele>
<time>2024-05-09T14:28:48Z</time>
</trkpt>
<trkpt lat="49.56225204281509" lon="9.275596607476473">
<ele>272.6</ele>
<time>2024-05-09T14:28:49Z</time>
</trkpt>
<trkpt lat="49.56221382133663" lon="9.275613706558945">
<ele>272.4</ele>
<time>2024-05-09T14:28:50Z</time>
</trkpt>
<trkpt lat="49.5621756836772" lon="9.275625189766288">
<ele>272.4</ele>
<time>2024-05-09T14:28:51Z</time>
</trkpt>
<trkpt lat="49.56213377416134" lon="9.275632817298174">
<ele>272.4</ele>
<time>2024-05-09T14:28:52Z</time>
</trkpt>
<trkpt lat="49.56209563650191" lon="9.275632817298174">
<ele>272.2</ele>
<time>2024-05-09T14:28:53Z</time>
</trkpt>
<trkpt lat="49.56206504255533" lon="9.275628039613366">
<ele>272.4</ele>
<time>2024-05-09T14:28:54Z</time>
</trkpt>
<trkpt lat="49.5620269048959" lon="9.275621334090827">
<ele>272.4</ele>
<time>2024-05-09T14:28:55Z</time>
</trkpt>
<trkpt lat="49.56199639476836" lon="9.275613706558945">
<ele>272.4</ele>
<time>2024-05-09T14:28:56Z</time>
</trkpt>
<trkpt lat="49.561962112784386" lon="9.275607084855436">
<ele>272.6</ele>
<time>2024-05-09T14:28:57Z</time>
</trkpt>
<trkpt lat="49.56193160265684" lon="9.275603229179978">
<ele>272.8</ele>
<time>2024-05-09T14:28:58Z</time>
</trkpt>
<trkpt lat="49.56189723685384" lon="9.275603229179978">
<ele>273</ele>
<time>2024-05-09T14:28:59Z</time>
</trkpt>
<trkpt lat="49.561866726726294" lon="9.275607084855436">
<ele>273.4</ele>
<time>2024-05-09T14:29:00Z</time>
</trkpt>
<trkpt lat="49.561839988455176" lon="9.275614712387323">
<ele>273.8</ele>
<time>2024-05-09T14:29:01Z</time>
</trkpt>
<trkpt lat="49.56180947832763" lon="9.275625189766288">
<ele>274.2</ele>
<time>2024-05-09T14:29:02Z</time>
</trkpt>
<trkpt lat="49.56177896820009" lon="9.275636672973633">
<ele>274.6</ele>
<time>2024-05-09T14:29:03Z</time>
</trkpt>
<trkpt lat="49.56174845807254" lon="9.275648072361946">
<ele>275.2</ele>
<time>2024-05-09T14:29:04Z</time>
</trkpt>
<trkpt lat="49.561717947945" lon="9.275659555569291">
<ele>275.6</ele>
<time>2024-05-09T14:29:05Z</time>
</trkpt>
<trkpt lat="49.561687437817454" lon="9.275672882795334">
<ele>276.2</ele>
<time>2024-05-09T14:29:06Z</time>
</trkpt>
<trkpt lat="49.56165692768991" lon="9.275686210021377">
<ele>276.6</ele>
<time>2024-05-09T14:29:07Z</time>
</trkpt>
<trkpt lat="49.56163018941879" lon="9.27569953724742">
<ele>277</ele>
<time>2024-05-09T14:29:08Z</time>
</trkpt>
<trkpt lat="49.56159967929125" lon="9.275710098445415">
<ele>277.6</ele>
<time>2024-05-09T14:29:09Z</time>
</trkpt>
<trkpt lat="49.561569169163704" lon="9.275723425671458">
<ele>278</ele>
<time>2024-05-09T14:29:10Z</time>
</trkpt>
<trkpt lat="49.5615348033607" lon="9.2757367528975">
<ele>278.2</ele>
<time>2024-05-09T14:29:11Z</time>
</trkpt>
<trkpt lat="49.56150429323315" lon="9.275748236104846">
<ele>278.6</ele>
<time>2024-05-09T14:29:12Z</time>
</trkpt>
<trkpt lat="49.56147378310561" lon="9.275754857808352">
<ele>278.8</ele>
<time>2024-05-09T14:29:13Z</time>
</trkpt>
<trkpt lat="49.56144327297807" lon="9.27575963549316">
<ele>279.2</ele>
<time>2024-05-09T14:29:14Z</time>
</trkpt>
<trkpt lat="49.56141661852598" lon="9.275763491168618">
<ele>279.2</ele>
<time>2024-05-09T14:29:15Z</time>
</trkpt>
<trkpt lat="49.561389880254865" lon="9.275766341015697">
<ele>279.4</ele>
<time>2024-05-09T14:29:16Z</time>
</trkpt>
<trkpt lat="49.56136314198375" lon="9.275770112872124">
<ele>279.6</ele>
<time>2024-05-09T14:29:17Z</time>
</trkpt>
<trkpt lat="49.56133648753166" lon="9.275772040709851">
<ele>279.6</ele>
<time>2024-05-09T14:29:18Z</time>
</trkpt>
<trkpt lat="49.56130597740412" lon="9.27577874623239">
<ele>279.8</ele>
<time>2024-05-09T14:29:19Z</time>
</trkpt>
<trkpt lat="49.561279239133" lon="9.275788301602006">
<ele>280</ele>
<time>2024-05-09T14:29:20Z</time>
</trkpt>
<trkpt lat="49.561248729005456" lon="9.27579877898097">
<ele>280.2</ele>
<time>2024-05-09T14:29:21Z</time>
</trkpt>
<trkpt lat="49.5612258464098" lon="9.275808334350586">
<ele>280.4</ele>
<time>2024-05-09T14:29:22Z</time>
</trkpt>
<trkpt lat="49.56119533628225" lon="9.27581688389182">
<ele>280.4</ele>
<time>2024-05-09T14:29:23Z</time>
</trkpt>
<trkpt lat="49.561172453686595" lon="9.275821661576629">
<ele>280.6</ele>
<time>2024-05-09T14:29:24Z</time>
</trkpt>
<trkpt lat="49.56114957109094" lon="9.275823589414358">
<ele>280.8</ele>
<time>2024-05-09T14:29:25Z</time>
</trkpt>
<trkpt lat="49.561130460351706" lon="9.275826439261436">
<ele>280.8</ele>
<time>2024-05-09T14:29:26Z</time>
</trkpt>
<trkpt lat="49.56110757775605" lon="9.275841694325209">
<ele>280.8</ele>
<time>2024-05-09T14:29:27Z</time>
</trkpt>
<trkpt lat="49.56108092330396" lon="9.275855021551251">
<ele>281</ele>
<time>2024-05-09T14:29:28Z</time>
</trkpt>
<trkpt lat="49.561054185032845" lon="9.275853093713522">
<ele>281</ele>
<time>2024-05-09T14:29:29Z</time>
</trkpt>
<trkpt lat="49.56102744676173" lon="9.27585694938898">
<ele>281.2</ele>
<time>2024-05-09T14:29:30Z</time>
</trkpt>
<trkpt lat="49.56100079230964" lon="9.27585979923606">
<ele>281.4</ele>
<time>2024-05-09T14:29:31Z</time>
</trkpt>
<trkpt lat="49.56096642650664" lon="9.275864576920869">
<ele>281.4</ele>
<time>2024-05-09T14:29:32Z</time>
</trkpt>
<trkpt lat="49.56092828884721" lon="9.275873126462102">
<ele>281.6</ele>
<time>2024-05-09T14:29:33Z</time>
</trkpt>
<trkpt lat="49.56090163439512" lon="9.275883603841066">
<ele>281.6</ele>
<time>2024-05-09T14:29:34Z</time>
</trkpt>
<trkpt lat="49.560874896124005" lon="9.275893159210682">
<ele>281.8</ele>
<time>2024-05-09T14:29:35Z</time>
</trkpt>
<trkpt lat="49.56084438599646" lon="9.275906486436725">
<ele>281.8</ele>
<time>2024-05-09T14:29:36Z</time>
</trkpt>
<trkpt lat="49.56080624833703" lon="9.27591704763472">
<ele>282</ele>
<time>2024-05-09T14:29:37Z</time>
</trkpt>
<trkpt lat="49.56077188253403" lon="9.275924675166609">
<ele>282</ele>
<time>2024-05-09T14:29:38Z</time>
</trkpt>
<trkpt lat="49.56074137240648" lon="9.275933224707842">
<ele>282.2</ele>
<time>2024-05-09T14:29:39Z</time>
</trkpt>
<trkpt lat="49.56070323474705" lon="9.275948479771614">
<ele>282.2</ele>
<time>2024-05-09T14:29:40Z</time>
</trkpt>
<trkpt lat="49.56066509708762" lon="9.275964656844735">
<ele>282.2</ele>
<time>2024-05-09T14:29:41Z</time>
</trkpt>
<trkpt lat="49.56062695942819" lon="9.27597806788981">
<ele>282.4</ele>
<time>2024-05-09T14:29:42Z</time>
</trkpt>
<trkpt lat="49.56059644930065" lon="9.275995250791311">
<ele>282.4</ele>
<time>2024-05-09T14:29:43Z</time>
</trkpt>
<trkpt lat="49.56055445596576" lon="9.276009500026705">
<ele>282.4</ele>
<time>2024-05-09T14:29:44Z</time>
</trkpt>
<trkpt lat="49.560497207567096" lon="9.276031460613012">
<ele>282.4</ele>
<time>2024-05-09T14:29:45Z</time>
</trkpt>
<trkpt lat="49.56043618731201" lon="9.276051493361592">
<ele>282.4</ele>
<time>2024-05-09T14:29:46Z</time>
</trkpt>
<trkpt lat="49.56036753952503" lon="9.27607630379498">
<ele>282.4</ele>
<time>2024-05-09T14:29:47Z</time>
</trkpt>
<trkpt lat="49.56028740853071" lon="9.276109663769605">
<ele>282.2</ele>
<time>2024-05-09T14:29:48Z</time>
</trkpt>
<trkpt lat="49.560203505679965" lon="9.276138246059418">
<ele>282</ele>
<time>2024-05-09T14:29:49Z</time>
</trkpt>
<trkpt lat="49.56011960282922" lon="9.27615350112319">
<ele>281.8</ele>
<time>2024-05-09T14:29:50Z</time>
</trkpt>
<trkpt lat="49.56003184430301" lon="9.27619356662035">
<ele>281.6</ele>
<time>2024-05-09T14:29:51Z</time>
</trkpt>
<trkpt lat="49.55995934084058" lon="9.27623170427978">
<ele>281.4</ele>
<time>2024-05-09T14:29:52Z</time>
</trkpt>
<trkpt lat="49.559886921197176" lon="9.27627176977694">
<ele>281</ele>
<time>2024-05-09T14:29:53Z</time>
</trkpt>
<trkpt lat="49.55982204526663" lon="9.27630990743637">
<ele>280.8</ele>
<time>2024-05-09T14:29:54Z</time>
</trkpt>
<trkpt lat="49.55975716933608" lon="9.276346201077104">
<ele>280.6</ele>
<time>2024-05-09T14:29:55Z</time>
</trkpt>
<trkpt lat="49.559688521549106" lon="9.276386182755232">
<ele>280.4</ele>
<time>2024-05-09T14:29:56Z</time>
</trkpt>
<trkpt lat="49.55962750129402" lon="9.276412921026347">
<ele>280.2</ele>
<time>2024-05-09T14:29:57Z</time>
</trkpt>
<trkpt lat="49.55956648103893" lon="9.27643488161266">
<ele>280</ele>
<time>2024-05-09T14:29:58Z</time>
</trkpt>
<trkpt lat="49.55950160510838" lon="9.276452986523507">
<ele>280</ele>
<time>2024-05-09T14:29:59Z</time>
</trkpt>
<trkpt lat="49.55944058485329" lon="9.276472013443708">
<ele>279.8</ele>
<time>2024-05-09T14:30:00Z</time>
</trkpt>
<trkpt lat="49.5593795645982" lon="9.276486346498132">
<ele>279.6</ele>
<time>2024-05-09T14:30:01Z</time>
</trkpt>
<trkpt lat="49.55932231619954" lon="9.276496823877096">
<ele>279.4</ele>
<time>2024-05-09T14:30:02Z</time>
</trkpt>
<trkpt lat="49.55926506780088" lon="9.276503529399632">
<ele>279.4</ele>
<time>2024-05-09T14:30:03Z</time>
</trkpt>
<trkpt lat="49.55921167507768" lon="9.276512078940868">
<ele>279.2</ele>
<time>2024-05-09T14:30:04Z</time>
</trkpt>
<trkpt lat="49.55916590988636" lon="9.276523562148212">
<ele>279.2</ele>
<time>2024-05-09T14:30:05Z</time>
</trkpt>
<trkpt lat="49.55912391655147" lon="9.276533117517827">
<ele>279.2</ele>
<time>2024-05-09T14:30:06Z</time>
</trkpt>
<trkpt lat="49.5590896345675" lon="9.2765502166003">
<ele>279.2</ele>
<time>2024-05-09T14:30:07Z</time>
</trkpt>
<trkpt lat="49.55905149690807" lon="9.27657125517726">
<ele>279.2</ele>
<time>2024-05-09T14:30:08Z</time>
</trkpt>
<trkpt lat="49.559017131105065" lon="9.27659028209746">
<ele>279.2</ele>
<time>2024-05-09T14:30:09Z</time>
</trkpt>
<trkpt lat="49.558978993445635" lon="9.276617942377923">
<ele>279.4</ele>
<time>2024-05-09T14:30:10Z</time>
</trkpt>
<trkpt lat="49.55894848331809" lon="9.276643674820662">
<ele>279.4</ele>
<time>2024-05-09T14:30:11Z</time>
</trkpt>
<trkpt lat="49.5589064899832" lon="9.276673262938855">
<ele>279.4</ele>
<time>2024-05-09T14:30:12Z</time>
</trkpt>
<trkpt lat="49.55886458046734" lon="9.276715256273746">
<ele>279.4</ele>
<time>2024-05-09T14:30:13Z</time>
</trkpt>
<trkpt lat="49.55881495960057" lon="9.276756243780255">
<ele>279.6</ele>
<time>2024-05-09T14:30:14Z</time>
</trkpt>
<trkpt lat="49.55876533873379" lon="9.276795387268066">
<ele>279.6</ele>
<time>2024-05-09T14:30:15Z</time>
</trkpt>
<trkpt lat="49.55871580168605" lon="9.276833524927495">
<ele>279.6</ele>
<time>2024-05-09T14:30:16Z</time>
</trkpt>
<trkpt lat="49.558662408962846" lon="9.276868812739847">
<ele>279.4</ele>
<time>2024-05-09T14:30:17Z</time>
</trkpt>
<trkpt lat="49.55861278809607" lon="9.276896473020315">
<ele>279.4</ele>
<time>2024-05-09T14:30:18Z</time>
</trkpt>
<trkpt lat="49.558563167229295" lon="9.27692505531013">
<ele>279.4</ele>
<time>2024-05-09T14:30:19Z</time>
</trkpt>
<trkpt lat="49.55851740203798" lon="9.276951709762216">
<ele>279.4</ele>
<time>2024-05-09T14:30:20Z</time>
</trkpt>
<trkpt lat="49.55847549252212" lon="9.276980375871062">
<ele>279.2</ele>
<time>2024-05-09T14:30:21Z</time>
</trkpt>
<trkpt lat="49.55842964351177" lon="9.27700518630445">
<ele>279.2</ele>
<time>2024-05-09T14:30:22Z</time>
</trkpt>
<trkpt lat="49.55839150585234" lon="9.2770232912153">
<ele>279.2</ele>
<time>2024-05-09T14:30:23Z</time>
</trkpt>
<trkpt lat="49.55835722386837" lon="9.277040474116802">
<ele>279</ele>
<time>2024-05-09T14:30:24Z</time>
</trkpt>
<trkpt lat="49.558326713740826" lon="9.277054723352194">
<ele>279</ele>
<time>2024-05-09T14:30:25Z</time>
</trkpt>
<trkpt lat="49.55829234793782" lon="9.277068134397268">
<ele>279.2</ele>
<time>2024-05-09T14:30:26Z</time>
</trkpt>
<trkpt lat="49.55825421027839" lon="9.277090011164546">
<ele>279.2</ele>
<time>2024-05-09T14:30:27Z</time>
</trkpt>
<trkpt lat="49.5582122169435" lon="9.277114821597934">
<ele>279.2</ele>
<time>2024-05-09T14:30:28Z</time>
</trkpt>
<trkpt lat="49.55817793495953" lon="9.277139632031322">
<ele>279.2</ele>
<time>2024-05-09T14:30:29Z</time>
</trkpt>
<trkpt lat="49.558147424831986" lon="9.277150109410286">
<ele>279.4</ele>
<time>2024-05-09T14:30:30Z</time>
</trkpt>
<trkpt lat="49.55811683088541" lon="9.277166286483409">
<ele>279.4</ele>
<time>2024-05-09T14:30:31Z</time>
</trkpt>
<trkpt lat="49.558090176433325" lon="9.277183469384909">
<ele>279.4</ele>
<time>2024-05-09T14:30:32Z</time>
</trkpt>
<trkpt lat="49.55805581063032" lon="9.27720450796187">
<ele>279.4</ele>
<time>2024-05-09T14:30:33Z</time>
</trkpt>
<trkpt lat="49.55802915617824" lon="9.277231162413957">
<ele>279.6</ele>
<time>2024-05-09T14:30:34Z</time>
</trkpt>
<trkpt lat="49.55799479037523" lon="9.277277933433652">
<ele>279.6</ele>
<time>2024-05-09T14:30:35Z</time>
</trkpt>
<trkpt lat="49.5579566527158" lon="9.277343731373549">
<ele>279.6</ele>
<time>2024-05-09T14:30:36Z</time>
</trkpt>
<trkpt lat="49.5579222869128" lon="9.277409529313443">
<ele>279.6</ele>
<time>2024-05-09T14:30:37Z</time>
</trkpt>
<trkpt lat="49.557891776785254" lon="9.27747624926269">
<ele>279.6</ele>
<time>2024-05-09T14:30:38Z</time>
</trkpt>
<trkpt lat="49.55786126665771" lon="9.277533497661352">
<ele>279.8</ele>
<time>2024-05-09T14:30:39Z</time>
</trkpt>
<trkpt lat="49.55782312899828" lon="9.27759644575417">
<ele>279.6</ele>
<time>2024-05-09T14:30:40Z</time>
</trkpt>
<trkpt lat="49.55778884701431" lon="9.277678420767188">
<ele>279.4</ele>
<time>2024-05-09T14:30:41Z</time>
</trkpt>
<trkpt lat="49.55776588059962" lon="9.27775662392378">
<ele>279</ele>
<time>2024-05-09T14:30:42Z</time>
</trkpt>
<trkpt lat="49.557735370472074" lon="9.277859637513757">
<ele>278.4</ele>
<time>2024-05-09T14:30:43Z</time>
</trkpt>
<trkpt lat="49.55769723281264" lon="9.2779731284827">
<ele>277.8</ele>
<time>2024-05-09T14:30:44Z</time>
</trkpt>
<trkpt lat="49.557655323296785" lon="9.278078069910409">
<ele>277.2</ele>
<time>2024-05-09T14:30:45Z</time>
</trkpt>
<trkpt lat="49.55760955810547" lon="9.27816960029304">
<ele>276.8</ele>
<time>2024-05-09T14:30:46Z</time>
</trkpt>
<trkpt lat="49.55755993723869" lon="9.278253503143787">
<ele>276.4</ele>
<time>2024-05-09T14:30:47Z</time>
</trkpt>
<trkpt lat="49.55751031637192" lon="9.278329778462648">
<ele>276</ele>
<time>2024-05-09T14:30:48Z</time>
</trkpt>
<trkpt lat="49.5574645511806" lon="9.278396582230926">
<ele>275.8</ele>
<time>2024-05-09T14:30:49Z</time>
</trkpt>
<trkpt lat="49.557414930313826" lon="9.278458524495363">
<ele>275.4</ele>
<time>2024-05-09T14:30:50Z</time>
</trkpt>
<trkpt lat="49.55736916512251" lon="9.27852147258818">
<ele>275</ele>
<time>2024-05-09T14:30:51Z</time>
</trkpt>
<trkpt lat="49.55732339993119" lon="9.278573021292686">
<ele>274.8</ele>
<time>2024-05-09T14:30:52Z</time>
</trkpt>
<trkpt lat="49.557281490415335" lon="9.27862834185362">
<ele>274.6</ele>
<time>2024-05-09T14:30:53Z</time>
</trkpt>
<trkpt lat="49.557235641404986" lon="9.278677878901362">
<ele>274.6</ele>
<time>2024-05-09T14:30:54Z</time>
</trkpt>
<trkpt lat="49.55718987621367" lon="9.27872180007398">
<ele>274.4</ele>
<time>2024-05-09T14:30:55Z</time>
</trkpt>
<trkpt lat="49.55714411102235" lon="9.278770415112376">
<ele>274.4</ele>
<time>2024-05-09T14:30:56Z</time>
</trkpt>
<trkpt lat="49.557102201506495" lon="9.278813330456614">
<ele>274.2</ele>
<time>2024-05-09T14:30:57Z</time>
</trkpt>
<trkpt lat="49.557060208171606" lon="9.278864795342088">
<ele>274</ele>
<time>2024-05-09T14:30:58Z</time>
</trkpt>
<trkpt lat="49.55701821483672" lon="9.278908716514708">
<ele>273.8</ele>
<time>2024-05-09T14:30:59Z</time>
</trkpt>
<trkpt lat="49.556980077177286" lon="9.278936376795173">
<ele>273.8</ele>
<time>2024-05-09T14:31:00Z</time>
</trkpt>
<trkpt lat="49.55694956704974" lon="9.27895825356245">
<ele>273.8</ele>
<time>2024-05-09T14:31:01Z</time>
</trkpt>
<trkpt lat="49.55691520124674" lon="9.27898021414876">
<ele>273.8</ele>
<time>2024-05-09T14:31:02Z</time>
</trkpt>
<trkpt lat="49.55688091926277" lon="9.279005024582148">
<ele>273.8</ele>
<time>2024-05-09T14:31:03Z</time>
</trkpt>
<trkpt lat="49.556842781603336" lon="9.279029835015535">
<ele>273.6</ele>
<time>2024-05-09T14:31:04Z</time>
</trkpt>
<trkpt lat="49.55679316073656" lon="9.279054561629891">
<ele>273.6</ele>
<time>2024-05-09T14:31:05Z</time>
</trkpt>
<trkpt lat="49.55674739554525" lon="9.279086999595163">
<ele>273.4</ele>
<time>2024-05-09T14:31:06Z</time>
</trkpt>
<trkpt lat="49.55670163035393" lon="9.27911851555109">
<ele>273.2</ele>
<time>2024-05-09T14:31:07Z</time>
</trkpt>
<trkpt lat="49.55665586516261" lon="9.27915665321052">
<ele>273</ele>
<time>2024-05-09T14:31:08Z</time>
</trkpt>
<trkpt lat="49.55661772750318" lon="9.27919671870768">
<ele>272.8</ele>
<time>2024-05-09T14:31:09Z</time>
</trkpt>
<trkpt lat="49.55658336170018" lon="9.279246255755424">
<ele>272.8</ele>
<time>2024-05-09T14:31:10Z</time>
</trkpt>
<trkpt lat="49.55655662342906" lon="9.279296798631549">
<ele>272.6</ele>
<time>2024-05-09T14:31:11Z</time>
</trkpt>
<trkpt lat="49.5565337408334" lon="9.279343569651246">
<ele>272.4</ele>
<time>2024-05-09T14:31:12Z</time>
</trkpt>
<trkpt lat="49.55651848576963" lon="9.279383635148406">
<ele>272.2</ele>
<time>2024-05-09T14:31:13Z</time>
</trkpt>
<trkpt lat="49.55649560317397" lon="9.279426550492644">
<ele>272.2</ele>
<time>2024-05-09T14:31:14Z</time>
</trkpt>
<trkpt lat="49.55647272057831" lon="9.279468460008502">
<ele>272.2</ele>
<time>2024-05-09T14:31:15Z</time>
</trkpt>
<trkpt lat="49.55644606612623" lon="9.279508525505662">
<ele>272.2</ele>
<time>2024-05-09T14:31:16Z</time>
</trkpt>
<trkpt lat="49.55641932785511" lon="9.279549596831204">
<ele>272.4</ele>
<time>2024-05-09T14:31:17Z</time>
</trkpt>
<trkpt lat="49.55638496205211" lon="9.27959150634706">
<ele>272.6</ele>
<time>2024-05-09T14:31:18Z</time>
</trkpt>
<trkpt lat="49.556350680068135" lon="9.27962964400649">
<ele>272.8</ele>
<time>2024-05-09T14:31:19Z</time>
</trkpt>
<trkpt lat="49.55631631426513" lon="9.279668787494302">
<ele>272.8</ele>
<time>2024-05-09T14:31:20Z</time>
</trkpt>
<trkpt lat="49.55628203228116" lon="9.279706925153732">
<ele>273</ele>
<time>2024-05-09T14:31:21Z</time>
</trkpt>
<trkpt lat="49.556251522153616" lon="9.279740285128357">
<ele>273.2</ele>
<time>2024-05-09T14:31:22Z</time>
</trkpt>
<trkpt lat="49.55622092820704" lon="9.279774650931358">
<ele>273.2</ele>
<time>2024-05-09T14:31:23Z</time>
</trkpt>
<trkpt lat="49.556194273754954" lon="9.27980801090598">
<ele>273.4</ele>
<time>2024-05-09T14:31:24Z</time>
</trkpt>
<trkpt lat="49.55616753548384" lon="9.279845226556064">
<ele>273.6</ele>
<time>2024-05-09T14:31:25Z</time>
</trkpt>
<trkpt lat="49.55613702535629" lon="9.279883364215491">
<ele>273.8</ele>
<time>2024-05-09T14:31:26Z</time>
</trkpt>
<trkpt lat="49.55610651522875" lon="9.279931979253888">
<ele>274</ele>
<time>2024-05-09T14:31:27Z</time>
</trkpt>
<trkpt lat="49.5560760051012" lon="9.279978750273584">
<ele>274.2</ele>
<time>2024-05-09T14:31:28Z</time>
</trkpt>
<trkpt lat="49.5560416392982" lon="9.28002350963652">
<ele>274.4</ele>
<time>2024-05-09T14:31:29Z</time>
</trkpt>
<trkpt lat="49.556014984846115" lon="9.28006642498076">
<ele>274.6</ele>
<time>2024-05-09T14:31:30Z</time>
</trkpt>
<trkpt lat="49.55598061904311" lon="9.280115123838186">
<ele>274.8</ele>
<time>2024-05-09T14:31:31Z</time>
</trkpt>
<trkpt lat="49.555953964591026" lon="9.280159883201122">
<ele>275</ele>
<time>2024-05-09T14:31:32Z</time>
</trkpt>
<trkpt lat="49.55592345446348" lon="9.28020279854536">
<ele>275</ele>
<time>2024-05-09T14:31:33Z</time>
</trkpt>
<trkpt lat="49.555896716192365" lon="9.28024671971798">
<ele>275.2</ele>
<time>2024-05-09T14:31:34Z</time>
</trkpt>
<trkpt lat="49.55586620606482" lon="9.280288629233835">
<ele>275.2</ele>
<time>2024-05-09T14:31:35Z</time>
</trkpt>
<trkpt lat="49.5558394677937" lon="9.280331544578075">
<ele>275.2</ele>
<time>2024-05-09T14:31:36Z</time>
</trkpt>
<trkpt lat="49.55580895766616" lon="9.280371610075235">
<ele>275</ele>
<time>2024-05-09T14:31:37Z</time>
</trkpt>
<trkpt lat="49.555778447538614" lon="9.280413603410125">
<ele>275</ele>
<time>2024-05-09T14:31:38Z</time>
</trkpt>
<trkpt lat="49.55574793741107" lon="9.280453668907285">
<ele>274.8</ele>
<time>2024-05-09T14:31:39Z</time>
</trkpt>
<trkpt lat="49.55571357160807" lon="9.280491806566715">
<ele>274.8</ele>
<time>2024-05-09T14:31:40Z</time>
</trkpt>
<trkpt lat="49.55568306148052" lon="9.280528016388416">
<ele>274.8</ele>
<time>2024-05-09T14:31:41Z</time>
</trkpt>
<trkpt lat="49.55565255135298" lon="9.28055953234434">
<ele>274.6</ele>
<time>2024-05-09T14:31:42Z</time>
</trkpt>
<trkpt lat="49.555618269369006" lon="9.280594820156692">
<ele>274.6</ele>
<time>2024-05-09T14:31:43Z</time>
</trkpt>
<trkpt lat="49.555580131709576" lon="9.280626252293589">
<ele>274.4</ele>
<time>2024-05-09T14:31:44Z</time>
</trkpt>
<trkpt lat="49.55554191023111" lon="9.280651984736323">
<ele>274.4</ele>
<time>2024-05-09T14:31:45Z</time>
</trkpt>
<trkpt lat="49.55550377257168" lon="9.28067872300744">
<ele>274.4</ele>
<time>2024-05-09T14:31:46Z</time>
</trkpt>
<trkpt lat="49.55546563491225" lon="9.280705377459526">
<ele>274.4</ele>
<time>2024-05-09T14:31:47Z</time>
</trkpt>
<trkpt lat="49.55543135292828" lon="9.28073974326253">
<ele>274.6</ele>
<time>2024-05-09T14:31:48Z</time>
</trkpt>
<trkpt lat="49.55539321526885" lon="9.280771175399424">
<ele>274.8</ele>
<time>2024-05-09T14:31:49Z</time>
</trkpt>
<trkpt lat="49.555362621322274" lon="9.280806463211777">
<ele>274.8</ele>
<time>2024-05-09T14:31:50Z</time>
</trkpt>
<trkpt lat="49.55533211119473" lon="9.280831273645164">
<ele>275</ele>
<time>2024-05-09T14:31:51Z</time>
</trkpt>
<trkpt lat="49.555301601067185" lon="9.280861783772709">
<ele>275.2</ele>
<time>2024-05-09T14:31:52Z</time>
</trkpt>
<trkpt lat="49.5552749466151" lon="9.280889444053171">
<ele>275.4</ele>
<time>2024-05-09T14:31:53Z</time>
</trkpt>
<trkpt lat="49.55524820834398" lon="9.280928587540984">
<ele>275.6</ele>
<time>2024-05-09T14:31:54Z</time>
</trkpt>
<trkpt lat="49.5552215538919" lon="9.280973430722952">
<ele>275.8</ele>
<time>2024-05-09T14:31:55Z</time>
</trkpt>
<trkpt lat="49.55519095994532" lon="9.281008718535304">
<ele>276</ele>
<time>2024-05-09T14:31:56Z</time>
</trkpt>
<trkpt lat="49.55516430549323" lon="9.281040150672196">
<ele>276</ele>
<time>2024-05-09T14:31:57Z</time>
</trkpt>
<trkpt lat="49.55512993969023" lon="9.28107158280909">
<ele>276.2</ele>
<time>2024-05-09T14:31:58Z</time>
</trkpt>
<trkpt lat="49.55510328523815" lon="9.281106870621445">
<ele>276.6</ele>
<time>2024-05-09T14:31:59Z</time>
</trkpt>
<trkpt lat="49.55507654696703" lon="9.281146936118605">
<ele>276.8</ele>
<time>2024-05-09T14:32:00Z</time>
</trkpt>
<trkpt lat="49.55504226498306" lon="9.281181301921606">
<ele>277</ele>
<time>2024-05-09T14:32:01Z</time>
</trkpt>
<trkpt lat="49.55501167103648" lon="9.281216589733958">
<ele>277</ele>
<time>2024-05-09T14:32:02Z</time>
</trkpt>
<trkpt lat="49.55497738905251" lon="9.281245172023771">
<ele>277.2</ele>
<time>2024-05-09T14:32:03Z</time>
</trkpt>
<trkpt lat="49.55493925139308" lon="9.281283309683204">
<ele>277.2</ele>
<time>2024-05-09T14:32:04Z</time>
</trkpt>
<trkpt lat="49.55490488559008" lon="9.281321447342634">
<ele>277.4</ele>
<time>2024-05-09T14:32:05Z</time>
</trkpt>
<trkpt lat="49.55487823113799" lon="9.281356735154986">
<ele>277.6</ele>
<time>2024-05-09T14:32:06Z</time>
</trkpt>
<trkpt lat="49.55484386533499" lon="9.28139017894864">
<ele>277.6</ele>
<time>2024-05-09T14:32:07Z</time>
</trkpt>
<trkpt lat="49.554809499531984" lon="9.281416833400726">
<ele>277.6</ele>
<time>2024-05-09T14:32:08Z</time>
</trkpt>
<trkpt lat="49.55477521754801" lon="9.281443571671844">
<ele>277.8</ele>
<time>2024-05-09T14:32:09Z</time>
</trkpt>
<trkpt lat="49.55474470742047" lon="9.28147123195231">
<ele>277.8</ele>
<time>2024-05-09T14:32:10Z</time>
</trkpt>
<trkpt lat="49.55470656976104" lon="9.281503669917583">
<ele>277.8</ele>
<time>2024-05-09T14:32:11Z</time>
</trkpt>
<trkpt lat="49.55467597581446" lon="9.281537951901557">
<ele>277.8</ele>
<time>2024-05-09T14:32:12Z</time>
</trkpt>
<trkpt lat="49.55464169383049" lon="9.281571311876178">
<ele>278</ele>
<time>2024-05-09T14:32:13Z</time>
</trkpt>
<trkpt lat="49.554611183702946" lon="9.281602827832105">
<ele>278</ele>
<time>2024-05-09T14:32:14Z</time>
</trkpt>
<trkpt lat="49.55457681789994" lon="9.28162663243711">
<ele>278</ele>
<time>2024-05-09T14:32:15Z</time>
</trkpt>
<trkpt lat="49.5545463077724" lon="9.281656220555304">
<ele>278</ele>
<time>2024-05-09T14:32:16Z</time>
</trkpt>
<trkpt lat="49.554511941969395" lon="9.281680025160313">
<ele>278</ele>
<time>2024-05-09T14:32:17Z</time>
</trkpt>
<trkpt lat="49.55447765998542" lon="9.28170676343143">
<ele>278.2</ele>
<time>2024-05-09T14:32:18Z</time>
</trkpt>
<trkpt lat="49.55444714985788" lon="9.281733501702549">
<ele>278.2</ele>
<time>2024-05-09T14:32:19Z</time>
</trkpt>
<trkpt lat="49.55440901219845" lon="9.281762083992362">
<ele>278.4</ele>
<time>2024-05-09T14:32:20Z</time>
</trkpt>
<trkpt lat="49.554374646395445" lon="9.281800221651793">
<ele>278.4</ele>
<time>2024-05-09T14:32:21Z</time>
</trkpt>
<trkpt lat="49.5543441362679" lon="9.281834587454796">
<ele>278.4</ele>
<time>2024-05-09T14:32:22Z</time>
</trkpt>
<trkpt lat="49.5543097704649" lon="9.281873647123575">
<ele>278.4</ele>
<time>2024-05-09T14:32:23Z</time>
</trkpt>
<trkpt lat="49.554275488480926" lon="9.281913712620735">
<ele>278.4</ele>
<time>2024-05-09T14:32:24Z</time>
</trkpt>
<trkpt lat="49.55424497835338" lon="9.281949922442436">
<ele>278.4</ele>
<time>2024-05-09T14:32:25Z</time>
</trkpt>
<trkpt lat="49.55421061255038" lon="9.281979510560632">
<ele>278.2</ele>
<time>2024-05-09T14:32:26Z</time>
</trkpt>
<trkpt lat="49.55418010242283" lon="9.282012870535254">
<ele>278.4</ele>
<time>2024-05-09T14:32:27Z</time>
</trkpt>
<trkpt lat="49.5541419647634" lon="9.2820415366441">
<ele>278.4</ele>
<time>2024-05-09T14:32:28Z</time>
</trkpt>
<trkpt lat="49.55410382710397" lon="9.282066263258455">
<ele>278.6</ele>
<time>2024-05-09T14:32:29Z</time>
</trkpt>
<trkpt lat="49.55406946130097" lon="9.282093001529574">
<ele>278.6</ele>
<time>2024-05-09T14:32:30Z</time>
</trkpt>
<trkpt lat="49.554035179317" lon="9.282117811962962">
<ele>278.8</ele>
<time>2024-05-09T14:32:31Z</time>
</trkpt>
<trkpt lat="49.553996957838535" lon="9.282139772549272">
<ele>279</ele>
<time>2024-05-09T14:32:32Z</time>
</trkpt>
<trkpt lat="49.553958820179105" lon="9.282159805297852">
<ele>279</ele>
<time>2024-05-09T14:32:33Z</time>
</trkpt>
<trkpt lat="49.55392453819513" lon="9.2821797542274">
<ele>279</ele>
<time>2024-05-09T14:32:34Z</time>
</trkpt>
<trkpt lat="49.5538864005357" lon="9.282197942957282">
<ele>279</ele>
<time>2024-05-09T14:32:35Z</time>
</trkpt>
<trkpt lat="49.55385589040816" lon="9.282213198021054">
<ele>279.2</ele>
<time>2024-05-09T14:32:36Z</time>
</trkpt>
<trkpt lat="49.553821524605155" lon="9.282228453084826">
<ele>279.4</ele>
<time>2024-05-09T14:32:37Z</time>
</trkpt>
<trkpt lat="49.55379101447761" lon="9.2822437081486">
<ele>279.6</ele>
<time>2024-05-09T14:32:38Z</time>
</trkpt>
<trkpt lat="49.55375664867461" lon="9.282251335680485">
<ele>279.6</ele>
<time>2024-05-09T14:32:39Z</time>
</trkpt>
<trkpt lat="49.55372613854706" lon="9.28226181305945">
<ele>279.8</ele>
<time>2024-05-09T14:32:40Z</time>
</trkpt>
<trkpt lat="49.55369948409498" lon="9.282273212447762">
<ele>279.8</ele>
<time>2024-05-09T14:32:41Z</time>
</trkpt>
<trkpt lat="49.55366897396743" lon="9.28228184580803">
<ele>280</ele>
<time>2024-05-09T14:32:42Z</time>
</trkpt>
<trkpt lat="49.55363838002086" lon="9.282295173034072">
<ele>280.2</ele>
<time>2024-05-09T14:32:43Z</time>
</trkpt>
<trkpt lat="49.553604098036885" lon="9.282308500260116">
<ele>280.2</ele>
<time>2024-05-09T14:32:44Z</time>
</trkpt>
<trkpt lat="49.55356973223388" lon="9.282316127792">
<ele>280.4</ele>
<time>2024-05-09T14:32:45Z</time>
</trkpt>
<trkpt lat="49.55353922210634" lon="9.282326688989995">
<ele>280.6</ele>
<time>2024-05-09T14:32:46Z</time>
</trkpt>
<trkpt lat="49.55350108444691" lon="9.28233808837831">
<ele>280.6</ele>
<time>2024-05-09T14:32:47Z</time>
</trkpt>
<trkpt lat="49.55347057431936" lon="9.282349571585655">
<ele>280.6</ele>
<time>2024-05-09T14:32:48Z</time>
</trkpt>
<trkpt lat="49.553447691723704" lon="9.282368598505856">
<ele>280.8</ele>
<time>2024-05-09T14:32:49Z</time>
</trkpt>
<trkpt lat="49.55341718159616" lon="9.282388631254436">
<ele>280.8</ele>
<time>2024-05-09T14:32:50Z</time>
</trkpt>
<trkpt lat="49.553386671468616" lon="9.282422997057438">
<ele>280.8</ele>
<time>2024-05-09T14:32:51Z</time>
</trkpt>
<trkpt lat="49.553348533809185" lon="9.282449651509523">
<ele>280.8</ele>
<time>2024-05-09T14:32:52Z</time>
</trkpt>
<trkpt lat="49.553306540474296" lon="9.28247638978064">
<ele>280.8</ele>
<time>2024-05-09T14:32:53Z</time>
</trkpt>
<trkpt lat="49.55326077528298" lon="9.28249642252922">
<ele>281</ele>
<time>2024-05-09T14:32:54Z</time>
</trkpt>
<trkpt lat="49.55321878194809" lon="9.282523076981306">
<ele>281.2</ele>
<time>2024-05-09T14:32:55Z</time>
</trkpt>
<trkpt lat="49.55318064428866" lon="9.282553670927882">
<ele>281.2</ele>
<time>2024-05-09T14:32:56Z</time>
</trkpt>
<trkpt lat="49.55313865095377" lon="9.282581247389317">
<ele>281.4</ele>
<time>2024-05-09T14:32:57Z</time>
</trkpt>
<trkpt lat="49.55310051329434" lon="9.282603207975626">
<ele>281.6</ele>
<time>2024-05-09T14:32:58Z</time>
</trkpt>
<trkpt lat="49.55306237563491" lon="9.282621312886477">
<ele>281.8</ele>
<time>2024-05-09T14:32:59Z</time>
</trkpt>
<trkpt lat="49.55303186550736" lon="9.282643273472786">
<ele>282</ele>
<time>2024-05-09T14:33:00Z</time>
</trkpt>
<trkpt lat="49.55300521105528" lon="9.282668083906174">
<ele>282.2</ele>
<time>2024-05-09T14:33:01Z</time>
</trkpt>
<trkpt lat="49.55298610031605" lon="9.282699516043069">
<ele>282.2</ele>
<time>2024-05-09T14:33:02Z</time>
</trkpt>
<trkpt lat="49.552974700927734" lon="9.282739581540229">
<ele>282.4</ele>
<time>2024-05-09T14:33:03Z</time>
</trkpt>
<trkpt lat="49.55295936204493" lon="9.282785346731544">
<ele>282.2</ele>
<time>2024-05-09T14:33:04Z</time>
</trkpt>
<trkpt lat="49.55294033512473" lon="9.282839745283129">
<ele>282.2</ele>
<time>2024-05-09T14:33:05Z</time>
</trkpt>
<trkpt lat="49.552913596853614" lon="9.282890288159251">
<ele>282.2</ele>
<time>2024-05-09T14:33:06Z</time>
</trkpt>
<trkpt lat="49.55288308672607" lon="9.282936975359917">
<ele>282.2</ele>
<time>2024-05-09T14:33:07Z</time>
</trkpt>
<trkpt lat="49.552852576598525" lon="9.282983746379614">
<ele>282.2</ele>
<time>2024-05-09T14:33:08Z</time>
</trkpt>
<trkpt lat="49.55281829461455" lon="9.28302951157093">
<ele>282.2</ele>
<time>2024-05-09T14:33:09Z</time>
</trkpt>
<trkpt lat="49.55278392881155" lon="9.283078126609324">
<ele>282</ele>
<time>2024-05-09T14:33:10Z</time>
</trkpt>
<trkpt lat="49.55273816362023" lon="9.283116264268756">
<ele>281.8</ele>
<time>2024-05-09T14:33:11Z</time>
</trkpt>
<trkpt lat="49.5527000259608" lon="9.283155407756569">
<ele>281.6</ele>
<time>2024-05-09T14:33:12Z</time>
</trkpt>
<trkpt lat="49.55266188830137" lon="9.283198323100804">
<ele>281.6</ele>
<time>2024-05-09T14:33:13Z</time>
</trkpt>
<trkpt lat="49.55262752249837" lon="9.283241238445044">
<ele>281.6</ele>
<time>2024-05-09T14:33:14Z</time>
</trkpt>
<trkpt lat="49.55258938483894" lon="9.283283231779931">
<ele>281.4</ele>
<time>2024-05-09T14:33:15Z</time>
</trkpt>
<trkpt lat="49.55255124717951" lon="9.283331846818328">
<ele>281.2</ele>
<time>2024-05-09T14:33:16Z</time>
</trkpt>
<trkpt lat="49.55251310952008" lon="9.28336327895522">
<ele>281.2</ele>
<time>2024-05-09T14:33:17Z</time>
</trkpt>
<trkpt lat="49.552478743717074" lon="9.28340334445238">
<ele>281.2</ele>
<time>2024-05-09T14:33:18Z</time>
</trkpt>
<trkpt lat="49.55244060605765" lon="9.28344625979662">
<ele>281</ele>
<time>2024-05-09T14:33:19Z</time>
</trkpt>
<trkpt lat="49.5524100959301" lon="9.283492024987936">
<ele>281.2</ele>
<time>2024-05-09T14:33:20Z</time>
</trkpt>
<trkpt lat="49.552375730127096" lon="9.283538796007631">
<ele>281.2</ele>
<time>2024-05-09T14:33:21Z</time>
</trkpt>
<trkpt lat="49.55234521999955" lon="9.283588333055375">
<ele>281.2</ele>
<time>2024-05-09T14:33:22Z</time>
</trkpt>
<trkpt lat="49.55231093801558" lon="9.283637953922153">
<ele>281.4</ele>
<time>2024-05-09T14:33:23Z</time>
</trkpt>
<trkpt lat="49.55227657221258" lon="9.283688496798275">
<ele>281.4</ele>
<time>2024-05-09T14:33:24Z</time>
</trkpt>
<trkpt lat="49.552238434553146" lon="9.283738117665052">
<ele>281.6</ele>
<time>2024-05-09T14:33:25Z</time>
</trkpt>
<trkpt lat="49.5522079244256" lon="9.283786732703447">
<ele>281.6</ele>
<time>2024-05-09T14:33:26Z</time>
</trkpt>
<trkpt lat="49.55217741429806" lon="9.283831575885417">
<ele>281.6</ele>
<time>2024-05-09T14:33:27Z</time>
</trkpt>
<trkpt lat="49.55215067602694" lon="9.283873485401273">
<ele>281.6</ele>
<time>2024-05-09T14:33:28Z</time>
</trkpt>
<trkpt lat="49.55212016589939" lon="9.283911623060703">
<ele>281.6</ele>
<time>2024-05-09T14:33:29Z</time>
</trkpt>
<trkpt lat="49.55209342762828" lon="9.283949844539164">
<ele>281.6</ele>
<time>2024-05-09T14:33:30Z</time>
</trkpt>
<trkpt lat="49.552062917500734" lon="9.283993681892753">
<ele>281.6</ele>
<time>2024-05-09T14:33:31Z</time>
</trkpt>
<trkpt lat="49.55203626304865" lon="9.284040369093418">
<ele>281.6</ele>
<time>2024-05-09T14:33:32Z</time>
</trkpt>
<trkpt lat="49.55200952477753" lon="9.284091917797925">
<ele>281.4</ele>
<time>2024-05-09T14:33:33Z</time>
</trkpt>
<trkpt lat="49.55197901464999" lon="9.28413961082697">
<ele>281.2</ele>
<time>2024-05-09T14:33:34Z</time>
</trkpt>
<trkpt lat="49.55195613205433" lon="9.284185376018286">
<ele>281.2</ele>
<time>2024-05-09T14:33:35Z</time>
</trkpt>
<trkpt lat="49.55193324945867" lon="9.284228291362524">
<ele>281.2</ele>
<time>2024-05-09T14:33:36Z</time>
</trkpt>
<trkpt lat="49.55190651118755" lon="9.2842779122293">
<ele>281.2</ele>
<time>2024-05-09T14:33:37Z</time>
</trkpt>
<trkpt lat="49.551883628591895" lon="9.284324599429963">
<ele>281</ele>
<time>2024-05-09T14:33:38Z</time>
</trkpt>
<trkpt lat="49.55186837352812" lon="9.284368436783552">
<ele>280.8</ele>
<time>2024-05-09T14:33:39Z</time>
</trkpt>
<trkpt lat="49.551845490932465" lon="9.28441520780325">
<ele>280.8</ele>
<time>2024-05-09T14:33:40Z</time>
</trkpt>
<trkpt lat="49.55181883648038" lon="9.284466672688724">
<ele>280.8</ele>
<time>2024-05-09T14:33:41Z</time>
</trkpt>
<trkpt lat="49.55179209820926" lon="9.28451151587069">
<ele>280.6</ele>
<time>2024-05-09T14:33:42Z</time>
</trkpt>
<trkpt lat="49.551765359938145" lon="9.284555353224276">
<ele>280.4</ele>
<time>2024-05-09T14:33:43Z</time>
</trkpt>
<trkpt lat="49.551742477342486" lon="9.284595418721436">
<ele>280.2</ele>
<time>2024-05-09T14:33:44Z</time>
</trkpt>
<trkpt lat="49.5517158228904" lon="9.284638334065676">
<ele>280.2</ele>
<time>2024-05-09T14:33:45Z</time>
</trkpt>
<trkpt lat="49.55168908461928" lon="9.284680327400563">
<ele>280</ele>
<time>2024-05-09T14:33:46Z</time>
</trkpt>
<trkpt lat="49.55165857449174" lon="9.28472701460123">
<ele>280</ele>
<time>2024-05-09T14:33:47Z</time>
</trkpt>
<trkpt lat="49.55162429250777" lon="9.284768085926771">
<ele>280</ele>
<time>2024-05-09T14:33:48Z</time>
</trkpt>
<trkpt lat="49.55158992670477" lon="9.284806223586202">
<ele>280</ele>
<time>2024-05-09T14:33:49Z</time>
</trkpt>
<trkpt lat="49.55156318843365" lon="9.284850060939789">
<ele>280</ele>
<time>2024-05-09T14:33:50Z</time>
</trkpt>
<trkpt lat="49.55153653398156" lon="9.284894904121757">
<ele>280</ele>
<time>2024-05-09T14:33:51Z</time>
</trkpt>
<trkpt lat="49.5515136513859" lon="9.284939747303724">
<ele>280.2</ele>
<time>2024-05-09T14:33:52Z</time>
</trkpt>
<trkpt lat="49.551486913114786" lon="9.28498836234212">
<ele>280.2</ele>
<time>2024-05-09T14:33:53Z</time>
</trkpt>
<trkpt lat="49.551452631130815" lon="9.285031277686356">
<ele>280.4</ele>
<time>2024-05-09T14:33:54Z</time>
</trkpt>
<trkpt lat="49.55142203718424" lon="9.28508467040956">
<ele>280.6</ele>
<time>2024-05-09T14:33:55Z</time>
</trkpt>
<trkpt lat="49.551391527056694" lon="9.285136219114063">
<ele>280.8</ele>
<time>2024-05-09T14:33:56Z</time>
</trkpt>
<trkpt lat="49.55135724507272" lon="9.285178128629925">
<ele>281</ele>
<time>2024-05-09T14:33:57Z</time>
</trkpt>
<trkpt lat="49.55132287926972" lon="9.285213416442277">
<ele>281</ele>
<time>2024-05-09T14:33:58Z</time>
</trkpt>
<trkpt lat="49.551292369142175" lon="9.285249710083008">
<ele>281</ele>
<time>2024-05-09T14:33:59Z</time>
</trkpt>
<trkpt lat="49.55126571469009" lon="9.285291619598866">
<ele>281.2</ele>
<time>2024-05-09T14:34:00Z</time>
</trkpt>
<trkpt lat="49.55123897641897" lon="9.285324979573488">
<ele>281.2</ele>
<time>2024-05-09T14:34:01Z</time>
</trkpt>
<trkpt lat="49.551212238147855" lon="9.285367894917728">
<ele>281.2</ele>
<time>2024-05-09T14:34:02Z</time>
</trkpt>
<trkpt lat="49.551193211227655" lon="9.28542321547866">
<ele>281</ele>
<time>2024-05-09T14:34:03Z</time>
</trkpt>
<trkpt lat="49.55115884542465" lon="9.285468058660626">
<ele>281</ele>
<time>2024-05-09T14:34:04Z</time>
</trkpt>
<trkpt lat="49.55112833529711" lon="9.285512901842594">
<ele>281</ele>
<time>2024-05-09T14:34:05Z</time>
</trkpt>
<trkpt lat="49.55109782516956" lon="9.28555673919618">
<ele>281</ele>
<time>2024-05-09T14:34:06Z</time>
</trkpt>
<trkpt lat="49.55106345936656" lon="9.28559873253107">
<ele>281</ele>
<time>2024-05-09T14:34:07Z</time>
</trkpt>
<trkpt lat="49.551032949239016" lon="9.285650197416544">
<ele>280.8</ele>
<time>2024-05-09T14:34:08Z</time>
</trkpt>
<trkpt lat="49.55100243911147" lon="9.28569981828332">
<ele>280.8</ele>
<time>2024-05-09T14:34:09Z</time>
</trkpt>
<trkpt lat="49.550975784659386" lon="9.285746505483983">
<ele>280.8</ele>
<time>2024-05-09T14:34:10Z</time>
</trkpt>
<trkpt lat="49.55095290206373" lon="9.285799898207188">
<ele>281</ele>
<time>2024-05-09T14:34:11Z</time>
</trkpt>
<trkpt lat="49.550933791324496" lon="9.28585521876812">
<ele>281.2</ele>
<time>2024-05-09T14:34:12Z</time>
</trkpt>
<trkpt lat="49.5509147644043" lon="9.285908695310354">
<ele>281.4</ele>
<time>2024-05-09T14:34:13Z</time>
</trkpt>
<trkpt lat="49.55089179798961" lon="9.285958232358098">
<ele>281.4</ele>
<time>2024-05-09T14:34:14Z</time>
</trkpt>
<trkpt lat="49.55086514353752" lon="9.286003075540066">
<ele>281.6</ele>
<time>2024-05-09T14:34:15Z</time>
</trkpt>
<trkpt lat="49.5508384052664" lon="9.286049762740731">
<ele>281.6</ele>
<time>2024-05-09T14:34:16Z</time>
</trkpt>
<trkpt lat="49.55080789513886" lon="9.286098461598158">
<ele>281.6</ele>
<time>2024-05-09T14:34:17Z</time>
</trkpt>
<trkpt lat="49.550777385011315" lon="9.286147076636553">
<ele>281.6</ele>
<time>2024-05-09T14:34:18Z</time>
</trkpt>
<trkpt lat="49.550743103027344" lon="9.286198541522026">
<ele>281.4</ele>
<time>2024-05-09T14:34:19Z</time>
</trkpt>
<trkpt lat="49.55071636475623" lon="9.286256711930037">
<ele>281.4</ele>
<time>2024-05-09T14:34:20Z</time>
</trkpt>
<trkpt lat="49.55068962648511" lon="9.28631303831935">
<ele>281.2</ele>
<time>2024-05-09T14:34:21Z</time>
</trkpt>
<trkpt lat="49.550662972033024" lon="9.28636835888028">
<ele>281</ele>
<time>2024-05-09T14:34:22Z</time>
</trkpt>
<trkpt lat="49.55063246190548" lon="9.286426529288292">
<ele>280.8</ele>
<time>2024-05-09T14:34:23Z</time>
</trkpt>
<trkpt lat="49.55060572363436" lon="9.286484699696302">
<ele>280.6</ele>
<time>2024-05-09T14:34:24Z</time>
</trkpt>
<trkpt lat="49.550582841038704" lon="9.286540020257236">
<ele>280.6</ele>
<time>2024-05-09T14:34:25Z</time>
</trkpt>
<trkpt lat="49.55055610276759" lon="9.286601962521672">
<ele>280.2</ele>
<time>2024-05-09T14:34:26Z</time>
</trkpt>
<trkpt lat="49.55052559264004" lon="9.286660132929685">
<ele>280</ele>
<time>2024-05-09T14:34:27Z</time>
</trkpt>
<trkpt lat="49.5504950825125" lon="9.286718303337691">
<ele>279.8</ele>
<time>2024-05-09T14:34:28Z</time>
</trkpt>
<trkpt lat="49.55046457238495" lon="9.286776473745704">
<ele>279.6</ele>
<time>2024-05-09T14:34:29Z</time>
</trkpt>
<trkpt lat="49.55043791793287" lon="9.286828022450209">
<ele>279.6</ele>
<time>2024-05-09T14:34:30Z</time>
</trkpt>
<trkpt lat="49.550403552129865" lon="9.286878565326331">
<ele>279.4</ele>
<time>2024-05-09T14:34:31Z</time>
</trkpt>
<trkpt lat="49.550365414470434" lon="9.28692625835538">
<ele>279.4</ele>
<time>2024-05-09T14:34:32Z</time>
</trkpt>
<trkpt lat="49.55032727681101" lon="9.286968167871237">
<ele>279.2</ele>
<time>2024-05-09T14:34:33Z</time>
</trkpt>
<trkpt lat="49.550285283476114" lon="9.287012089043856">
<ele>279.2</ele>
<time>2024-05-09T14:34:34Z</time>
</trkpt>
<trkpt lat="49.55025100149214" lon="9.287053076550364">
<ele>279.2</ele>
<time>2024-05-09T14:34:35Z</time>
</trkpt>
<trkpt lat="49.55021663568914" lon="9.287093142047524">
<ele>279</ele>
<time>2024-05-09T14:34:36Z</time>
</trkpt>
<trkpt lat="49.550182269886136" lon="9.287128429859877">
<ele>278.8</ele>
<time>2024-05-09T14:34:37Z</time>
</trkpt>
<trkpt lat="49.55015561543405" lon="9.287155084311962">
<ele>278.8</ele>
<time>2024-05-09T14:34:38Z</time>
</trkpt>
<trkpt lat="49.55012887716293" lon="9.28717796690762">
<ele>278.8</ele>
<time>2024-05-09T14:34:39Z</time>
</trkpt>
<trkpt lat="49.55009836703539" lon="9.28720185533166">
<ele>278.8</ele>
<time>2024-05-09T14:34:40Z</time>
</trkpt>
<trkpt lat="49.55006408505142" lon="9.287235215306282">
<ele>278.8</ele>
<time>2024-05-09T14:34:41Z</time>
</trkpt>
<trkpt lat="49.550029719248414" lon="9.287275280803442">
<ele>279</ele>
<time>2024-05-09T14:34:42Z</time>
</trkpt>
<trkpt lat="49.54999158158898" lon="9.287321968004107">
<ele>279.2</ele>
<time>2024-05-09T14:34:43Z</time>
</trkpt>
<trkpt lat="49.54995721578598" lon="9.287369661033154">
<ele>279.2</ele>
<time>2024-05-09T14:34:44Z</time>
</trkpt>
<trkpt lat="49.54992670565843" lon="9.28741835989058">
<ele>279.4</ele>
<time>2024-05-09T14:34:45Z</time>
</trkpt>
<trkpt lat="49.549892423674464" lon="9.287463119253516">
<ele>279.2</ele>
<time>2024-05-09T14:34:46Z</time>
</trkpt>
<trkpt lat="49.54985805787146" lon="9.287507040426137">
<ele>279.2</ele>
<time>2024-05-09T14:34:47Z</time>
</trkpt>
<trkpt lat="49.54981992021203" lon="9.287547105923297">
<ele>279.2</ele>
<time>2024-05-09T14:34:48Z</time>
</trkpt>
<trkpt lat="49.54978555440903" lon="9.287590021267532">
<ele>279</ele>
<time>2024-05-09T14:34:49Z</time>
</trkpt>
<trkpt lat="49.54975504428148" lon="9.287630002945662">
<ele>279</ele>
<time>2024-05-09T14:34:50Z</time>
</trkpt>
<trkpt lat="49.54972076229751" lon="9.2876729182899">
<ele>278.8</ele>
<time>2024-05-09T14:34:51Z</time>
</trkpt>
<trkpt lat="49.54967876896262" lon="9.287708206102252">
<ele>278.8</ele>
<time>2024-05-09T14:34:52Z</time>
</trkpt>
<trkpt lat="49.54963677562773" lon="9.287732094526293">
<ele>278.6</ele>
<time>2024-05-09T14:34:53Z</time>
</trkpt>
<trkpt lat="49.549594866111875" lon="9.287768304347992">
<ele>278.6</ele>
<time>2024-05-09T14:34:54Z</time>
</trkpt>
<trkpt lat="49.549552872776985" lon="9.28781121969223">
<ele>278.4</ele>
<time>2024-05-09T14:34:55Z</time>
</trkpt>
<trkpt lat="49.549514735117555" lon="9.28785036318004">
<ele>278.4</ele>
<time>2024-05-09T14:34:56Z</time>
</trkpt>
<trkpt lat="49.549472741782665" lon="9.2878904286772">
<ele>278</ele>
<time>2024-05-09T14:34:57Z</time>
</trkpt>
<trkpt lat="49.54942697659135" lon="9.287928566336632">
<ele>277.8</ele>
<time>2024-05-09T14:34:58Z</time>
</trkpt>
<trkpt lat="49.54938121140003" lon="9.28797148168087">
<ele>277.6</ele>
<time>2024-05-09T14:34:59Z</time>
</trkpt>
<trkpt lat="49.5493430737406" lon="9.288015319034455">
<ele>277.4</ele>
<time>2024-05-09T14:35:00Z</time>
</trkpt>
<trkpt lat="49.54930108040571" lon="9.288062090054154">
<ele>277.2</ele>
<time>2024-05-09T14:35:01Z</time>
</trkpt>
<trkpt lat="49.5492553152144" lon="9.288109699264169">
<ele>277</ele>
<time>2024-05-09T14:35:02Z</time>
</trkpt>
<trkpt lat="49.549217177554965" lon="9.288163175806403">
<ele>276.8</ele>
<time>2024-05-09T14:35:03Z</time>
</trkpt>
<trkpt lat="49.54917518422008" lon="9.28822511807084">
<ele>276.6</ele>
<time>2024-05-09T14:35:04Z</time>
</trkpt>
<trkpt lat="49.549137046560645" lon="9.28828521631658">
<ele>276.6</ele>
<time>2024-05-09T14:35:05Z</time>
</trkpt>
<trkpt lat="49.54910276457667" lon="9.28834531456232">
<ele>276.4</ele>
<time>2024-05-09T14:35:06Z</time>
</trkpt>
<trkpt lat="49.54906839877367" lon="9.288401557132602">
<ele>276.2</ele>
<time>2024-05-09T14:35:07Z</time>
</trkpt>
<trkpt lat="49.54903026111424" lon="9.288461655378342">
<ele>276.2</ele>
<time>2024-05-09T14:35:08Z</time>
</trkpt>
<trkpt lat="49.548999750986695" lon="9.288519825786352">
<ele>276</ele>
<time>2024-05-09T14:35:09Z</time>
</trkpt>
<trkpt lat="49.54897301271558" lon="9.288575146347284">
<ele>275.8</ele>
<time>2024-05-09T14:35:10Z</time>
</trkpt>
<trkpt lat="49.548942502588034" lon="9.288635244593024">
<ele>275.8</ele>
<time>2024-05-09T14:35:11Z</time>
</trkpt>
<trkpt lat="49.54891199246049" lon="9.288698192685844">
<ele>275.6</ele>
<time>2024-05-09T14:35:12Z</time>
</trkpt>
<trkpt lat="49.5488853380084" lon="9.28876206278801">
<ele>275.4</ele>
<time>2024-05-09T14:35:13Z</time>
</trkpt>
<trkpt lat="49.54886622726917" lon="9.288826938718556">
<ele>275.4</ele>
<time>2024-05-09T14:35:14Z</time>
</trkpt>
<trkpt lat="49.548839488998055" lon="9.288886953145266">
<ele>275.2</ele>
<time>2024-05-09T14:35:15Z</time>
</trkpt>
<trkpt lat="49.54880897887051" lon="9.288945123553276">
<ele>275.2</ele>
<time>2024-05-09T14:35:16Z</time>
</trkpt>
<trkpt lat="49.548782324418426" lon="9.28899860009551">
<ele>275</ele>
<time>2024-05-09T14:35:17Z</time>
</trkpt>
<trkpt lat="49.54875944182277" lon="9.289048137143254">
<ele>275</ele>
<time>2024-05-09T14:35:18Z</time>
</trkpt>
<trkpt lat="49.54873655922711" lon="9.28909868001938">
<ele>275</ele>
<time>2024-05-09T14:35:19Z</time>
</trkpt>
<trkpt lat="49.54871367663145" lon="9.28915785625577">
<ele>274.8</ele>
<time>2024-05-09T14:35:20Z</time>
</trkpt>
<trkpt lat="49.54869456589222" lon="9.289217870682478">
<ele>274.8</ele>
<time>2024-05-09T14:35:21Z</time>
</trkpt>
<trkpt lat="49.5486678276211" lon="9.28927319124341">
<ele>274.8</ele>
<time>2024-05-09T14:35:22Z</time>
</trkpt>
<trkpt lat="49.54863731749356" lon="9.289326667785645">
<ele>274.6</ele>
<time>2024-05-09T14:35:23Z</time>
</trkpt>
<trkpt lat="49.54860680736601" lon="9.289388610050082">
<ele>274.4</ele>
<time>2024-05-09T14:35:24Z</time>
</trkpt>
<trkpt lat="49.548583924770355" lon="9.289444852620363">
<ele>274.4</ele>
<time>2024-05-09T14:35:25Z</time>
</trkpt>
<trkpt lat="49.54855727031827" lon="9.289501179009676">
<ele>274.2</ele>
<time>2024-05-09T14:35:26Z</time>
</trkpt>
<trkpt lat="49.54853438772261" lon="9.289561193436384">
<ele>274.2</ele>
<time>2024-05-09T14:35:27Z</time>
</trkpt>
<trkpt lat="49.548507649451494" lon="9.289621291682124">
<ele>274</ele>
<time>2024-05-09T14:35:28Z</time>
</trkpt>
<trkpt lat="49.54848091118038" lon="9.28966999053955">
<ele>274</ele>
<time>2024-05-09T14:35:29Z</time>
</trkpt>
<trkpt lat="49.54845802858472" lon="9.289714749902489">
<ele>274</ele>
<time>2024-05-09T14:35:30Z</time>
</trkpt>
<trkpt lat="49.54843137413263" lon="9.289751965552568">
<ele>274</ele>
<time>2024-05-09T14:35:31Z</time>
</trkpt>
<trkpt lat="49.54840086400509" lon="9.289774848148229">
<ele>273.8</ele>
<time>2024-05-09T14:35:32Z</time>
</trkpt>
<trkpt lat="49.54838175326586" lon="9.289783397689462">
<ele>273.6</ele>
<time>2024-05-09T14:35:33Z</time>
</trkpt>
<trkpt lat="49.548366498202085" lon="9.289792031049728">
<ele>273.6</ele>
<time>2024-05-09T14:35:34Z</time>
</trkpt>
<trkpt lat="49.548366498202085" lon="9.289796808734536">
<ele>273.4</ele>
<time>2024-05-09T14:35:35Z</time>
</trkpt>
<trkpt lat="49.548366498202085" lon="9.289799658581614">
<ele>273.2</ele>
<time>2024-05-09T14:35:36Z</time>
</trkpt>
<trkpt lat="49.548366498202085" lon="9.289801586419344">
<ele>273</ele>
<time>2024-05-09T14:35:38Z</time>
</trkpt>
<trkpt lat="49.54836272634566" lon="9.289801586419344">
<ele>273</ele>
<time>2024-05-09T14:35:40Z</time>
</trkpt>
<trkpt lat="49.54836272634566" lon="9.289803430438042">
<ele>272.8</ele>
<time>2024-05-09T14:35:43Z</time>
</trkpt>
<trkpt lat="49.54835124313831" lon="9.289796808734536">
<ele>272.8</ele>
<time>2024-05-09T14:35:45Z</time>
</trkpt>
<trkpt lat="49.548328360542655" lon="9.28978817537427">
<ele>272.6</ele>
<time>2024-05-09T14:35:46Z</time>
</trkpt>
<trkpt lat="49.548305477947" lon="9.289772920310496">
<ele>272.6</ele>
<time>2024-05-09T14:35:47Z</time>
</trkpt>
<trkpt lat="49.54827873967588" lon="9.289758671075106">
<ele>272.6</ele>
<time>2024-05-09T14:35:48Z</time>
</trkpt>
<trkpt lat="49.548252085223794" lon="9.289746265858412">
<ele>272.4</ele>
<time>2024-05-09T14:35:49Z</time>
</trkpt>
<trkpt lat="49.54822534695268" lon="9.289736710488796">
<ele>272.4</ele>
<time>2024-05-09T14:35:50Z</time>
</trkpt>
<trkpt lat="49.54820246435702" lon="9.28972816094756">
<ele>272.4</ele>
<time>2024-05-09T14:35:51Z</time>
</trkpt>
<trkpt lat="49.54817958176136" lon="9.289718605577946">
<ele>272.4</ele>
<time>2024-05-09T14:35:52Z</time>
</trkpt>
<trkpt lat="49.54816047102213" lon="9.28970997221768">
<ele>272.4</ele>
<time>2024-05-09T14:35:53Z</time>
</trkpt>
<trkpt lat="49.54814144410193" lon="9.289703350514174">
<ele>272.4</ele>
<time>2024-05-09T14:35:54Z</time>
</trkpt>
<trkpt lat="49.54811856150627" lon="9.289699494838716">
<ele>272.2</ele>
<time>2024-05-09T14:35:55Z</time>
</trkpt>
<trkpt lat="49.54809945076704" lon="9.289699494838716">
<ele>272.2</ele>
<time>2024-05-09T14:35:56Z</time>
</trkpt>
<trkpt lat="49.54808042384684" lon="9.289696644991636">
<ele>272</ele>
<time>2024-05-09T14:35:57Z</time>
</trkpt>
<trkpt lat="49.54806516878307" lon="9.289692873135207">
<ele>271.8</ele>
<time>2024-05-09T14:35:58Z</time>
</trkpt>
<trkpt lat="49.54806131310761" lon="9.289692873135207">
<ele>271.8</ele>
<time>2024-05-09T14:35:59Z</time>
</trkpt>
<trkpt lat="49.54806131310761" lon="9.289691867306828">
<ele>271.6</ele>
<time>2024-05-09T14:36:00Z</time>
</trkpt>
<trkpt lat="49.54806516878307" lon="9.289691867306828">
<ele>271.6</ele>
<time>2024-05-09T14:36:01Z</time>
</trkpt>
<trkpt lat="49.54806516878307" lon="9.2896899394691">
<ele>271.4</ele>
<time>2024-05-09T14:36:06Z</time>
</trkpt>
<trkpt lat="49.54806516878307" lon="9.289691867306828">
<ele>271.4</ele>
<time>2024-05-09T14:36:07Z</time>
</trkpt>
<trkpt lat="49.54805754125118" lon="9.289691867306828">
<ele>271.4</ele>
<time>2024-05-09T14:36:08Z</time>
</trkpt>
<trkpt lat="49.54805368557573" lon="9.289694717153909">
<ele>271.4</ele>
<time>2024-05-09T14:36:09Z</time>
</trkpt>
<trkpt lat="49.54804605804384" lon="9.289699494838716">
<ele>271.4</ele>
<time>2024-05-09T14:36:10Z</time>
</trkpt>
<trkpt lat="49.54803843051195" lon="9.289705194532871">
<ele>271.2</ele>
<time>2024-05-09T14:36:11Z</time>
</trkpt>
<trkpt lat="49.54802703112364" lon="9.289698572829366">
<ele>271.2</ele>
<time>2024-05-09T14:36:12Z</time>
</trkpt>
<trkpt lat="49.548011776059866" lon="9.289694717153909">
<ele>271</ele>
<time>2024-05-09T14:36:13Z</time>
</trkpt>
<trkpt lat="49.54798503778875" lon="9.289692873135207">
<ele>271</ele>
<time>2024-05-09T14:36:14Z</time>
</trkpt>
<trkpt lat="49.54796215519309" lon="9.2896880954504">
<ele>270.8</ele>
<time>2024-05-09T14:36:15Z</time>
</trkpt>
<trkpt lat="49.547931645065546" lon="9.2896880954504">
<ele>270.8</ele>
<time>2024-05-09T14:36:16Z</time>
</trkpt>
<trkpt lat="49.54789727926254" lon="9.289691867306828">
<ele>270.8</ele>
<time>2024-05-09T14:36:17Z</time>
</trkpt>
<trkpt lat="49.547866769135" lon="9.289698572829366">
<ele>270.6</ele>
<time>2024-05-09T14:36:18Z</time>
</trkpt>
<trkpt lat="49.54784011468291" lon="9.289703350514174">
<ele>270.6</ele>
<time>2024-05-09T14:36:19Z</time>
</trkpt>
<trkpt lat="49.54781337641179" lon="9.28970997221768">
<ele>270.6</ele>
<time>2024-05-09T14:36:20Z</time>
</trkpt>
<trkpt lat="49.54778663814068" lon="9.289719527587296">
<ele>270.6</ele>
<time>2024-05-09T14:36:21Z</time>
</trkpt>
<trkpt lat="49.54775235615671" lon="9.289731932803988">
<ele>270.6</ele>
<time>2024-05-09T14:36:22Z</time>
</trkpt>
<trkpt lat="49.5477179903537" lon="9.289739560335876">
<ele>270.8</ele>
<time>2024-05-09T14:36:23Z</time>
</trkpt>
<trkpt lat="49.54768370836973" lon="9.289743416011332">
<ele>270.8</ele>
<time>2024-05-09T14:36:24Z</time>
</trkpt>
<trkpt lat="49.54765319824219" lon="9.289746265858412">
<ele>271</ele>
<time>2024-05-09T14:36:25Z</time>
</trkpt>
<trkpt lat="49.54762645997107" lon="9.289751965552568">
<ele>271</ele>
<time>2024-05-09T14:36:26Z</time>
</trkpt>
<trkpt lat="49.54759972169995" lon="9.289761520922184">
<ele>271.2</ele>
<time>2024-05-09T14:36:27Z</time>
</trkpt>
<trkpt lat="49.547576839104295" lon="9.28977007046342">
<ele>271.2</ele>
<time>2024-05-09T14:36:28Z</time>
</trkpt>
<trkpt lat="49.54755395650864" lon="9.289774848148229">
<ele>271.4</ele>
<time>2024-05-09T14:36:29Z</time>
</trkpt>
<trkpt lat="49.54753492958844" lon="9.289781553670764">
<ele>271.4</ele>
<time>2024-05-09T14:36:30Z</time>
</trkpt>
<trkpt lat="49.547519674524665" lon="9.289792031049728">
<ele>271.6</ele>
<time>2024-05-09T14:36:31Z</time>
</trkpt>
<trkpt lat="49.547500563785434" lon="9.289794880896808">
<ele>271.8</ele>
<time>2024-05-09T14:36:32Z</time>
</trkpt>
<trkpt lat="49.54748916439712" lon="9.289792031049728">
<ele>272</ele>
<time>2024-05-09T14:36:33Z</time>
</trkpt>
<trkpt lat="49.547481536865234" lon="9.289794880896808">
<ele>272.4</ele>
<time>2024-05-09T14:36:34Z</time>
</trkpt>
<trkpt lat="49.54747382551432" lon="9.289796808734536">
<ele>272.6</ele>
<time>2024-05-09T14:36:35Z</time>
</trkpt>
<trkpt lat="49.54747005365789" lon="9.289796808734536">
<ele>273</ele>
<time>2024-05-09T14:36:36Z</time>
</trkpt>
<trkpt lat="49.54746619798243" lon="9.289796808734536">
<ele>273.2</ele>
<time>2024-05-09T14:36:37Z</time>
</trkpt>
<trkpt lat="49.54746619798243" lon="9.289794880896808">
<ele>273.4</ele>
<time>2024-05-09T14:36:38Z</time>
</trkpt>
<trkpt lat="49.547462426126" lon="9.289794880896808">
<ele>273.6</ele>
<time>2024-05-09T14:36:39Z</time>
</trkpt>
<trkpt lat="49.547462426126" lon="9.289792953059075">
<ele>274</ele>
<time>2024-05-09T14:36:40Z</time>
</trkpt>
<trkpt lat="49.54746619798243" lon="9.289792953059075">
<ele>274.2</ele>
<time>2024-05-09T14:36:43Z</time>
</trkpt>
<trkpt lat="49.54746619798243" lon="9.289792031049728">
<ele>274.4</ele>
<time>2024-05-09T14:36:45Z</time>
</trkpt>
<trkpt lat="49.547462426126" lon="9.289792953059075">
<ele>274.6</ele>
<time>2024-05-09T14:36:46Z</time>
</trkpt>
<trkpt lat="49.547462426126" lon="9.289792031049728">
<ele>274.8</ele>
<time>2024-05-09T14:36:47Z</time>
</trkpt>
<trkpt lat="49.547462426126" lon="9.289792953059075">
<ele>275</ele>
<time>2024-05-09T14:36:49Z</time>
</trkpt>
<trkpt lat="49.547462426126" lon="9.289794880896808">
<ele>275.2</ele>
<time>2024-05-09T14:36:53Z</time>
</trkpt>
<trkpt lat="49.547462426126" lon="9.289796808734536">
<ele>275.4</ele>
<time>2024-05-09T14:36:54Z</time>
</trkpt>
<trkpt lat="49.547462426126" lon="9.289794880896808">
<ele>275.4</ele>
<time>2024-05-09T14:36:55Z</time>
</trkpt>
<trkpt lat="49.547462426126" lon="9.289796808734536">
<ele>275.4</ele>
<time>2024-05-09T14:36:57Z</time>
</trkpt>
<trkpt lat="49.547462426126" lon="9.289794880896808">
<ele>275.6</ele>
<time>2024-05-09T14:36:58Z</time>
</trkpt>
<trkpt lat="49.547462426126" lon="9.289796808734536">
<ele>275.6</ele>
<time>2024-05-09T14:36:59Z</time>
</trkpt>
<trkpt lat="49.547462426126" lon="9.289798736572266">
<ele>275.6</ele>
<time>2024-05-09T14:37:00Z</time>
</trkpt>
<trkpt lat="49.547462426126" lon="9.289799658581614">
<ele>275.6</ele>
<time>2024-05-09T14:37:01Z</time>
</trkpt>
<trkpt lat="49.547462426126" lon="9.289798736572266">
<ele>275.6</ele>
<time>2024-05-09T14:37:02Z</time>
</trkpt>
<trkpt lat="49.547462426126" lon="9.289799658581614">
<ele>275.6</ele>
<time>2024-05-09T14:37:04Z</time>
</trkpt>
<trkpt lat="49.547462426126" lon="9.289801586419344">
<ele>275.6</ele>
<time>2024-05-09T14:37:06Z</time>
</trkpt>
<trkpt lat="49.547462426126" lon="9.289803430438042">
<ele>275.6</ele>
<time>2024-05-09T14:37:08Z</time>
</trkpt>
<trkpt lat="49.547462426126" lon="9.289805358275771">
<ele>275.6</ele>
<time>2024-05-09T14:37:09Z</time>
</trkpt>
<trkpt lat="49.547462426126" lon="9.289806364104152">
<ele>275.6</ele>
<time>2024-05-09T14:37:11Z</time>
</trkpt>
<trkpt lat="49.547462426126" lon="9.28980820812285">
<ele>275.6</ele>
<time>2024-05-09T14:37:14Z</time>
</trkpt>
<trkpt lat="49.54746619798243" lon="9.28981013596058">
<ele>275.6</ele>
<time>2024-05-09T14:37:19Z</time>
</trkpt>
<trkpt lat="49.54746619798243" lon="9.289812063798308">
<ele>275.6</ele>
<time>2024-05-09T14:37:21Z</time>
</trkpt>
<trkpt lat="49.54746619798243" lon="9.28981013596058">
<ele>275.6</ele>
<time>2024-05-09T14:37:22Z</time>
</trkpt>
<trkpt lat="49.54746619798243" lon="9.289812063798308">
<ele>275.6</ele>
<time>2024-05-09T14:37:24Z</time>
</trkpt>
<trkpt lat="49.547462426126" lon="9.289812063798308">
<ele>275.6</ele>
<time>2024-05-09T14:37:29Z</time>
</trkpt>
<trkpt lat="49.547462426126" lon="9.289812985807655">
<ele>275.6</ele>
<time>2024-05-09T14:37:30Z</time>
</trkpt>
<trkpt lat="49.547462426126" lon="9.289812063798308">
<ele>275.6</ele>
<time>2024-05-09T14:37:31Z</time>
</trkpt>
<trkpt lat="49.547462426126" lon="9.289812985807655">
<ele>275.4</ele>
<time>2024-05-09T14:37:32Z</time>
</trkpt>
<trkpt lat="49.547462426126" lon="9.289812063798308">
<ele>275.4</ele>
<time>2024-05-09T14:37:34Z</time>
</trkpt>
<trkpt lat="49.547462426126" lon="9.28981013596058">
<ele>275.4</ele>
<time>2024-05-09T14:37:35Z</time>
</trkpt>
<trkpt lat="49.547462426126" lon="9.289812063798308">
<ele>275.4</ele>
<time>2024-05-09T14:37:36Z</time>
</trkpt>
<trkpt lat="49.547462426126" lon="9.289812985807655">
<ele>275.4</ele>
<time>2024-05-09T14:37:37Z</time>
</trkpt>
<trkpt lat="49.547462426126" lon="9.289814913645388">
<ele>275.4</ele>
<time>2024-05-09T14:37:39Z</time>
</trkpt>
<trkpt lat="49.547462426126" lon="9.289816841483116">
<ele>275.4</ele>
<time>2024-05-09T14:37:51Z</time>
</trkpt>
<trkpt lat="49.547462426126" lon="9.289819691330194">
<ele>275.4</ele>
<time>2024-05-09T14:37:53Z</time>
</trkpt>
<trkpt lat="49.547462426126" lon="9.289821619167924">
<ele>275.4</ele>
<time>2024-05-09T14:37:57Z</time>
</trkpt>
<trkpt lat="49.547462426126" lon="9.289819691330194">
<ele>275.4</ele>
<time>2024-05-09T14:37:59Z</time>
</trkpt>
<trkpt lat="49.547462426126" lon="9.289821619167924">
<ele>275.4</ele>
<time>2024-05-09T14:38:00Z</time>
</trkpt>
<trkpt lat="49.547462426126" lon="9.289823463186622">
<ele>275.6</ele>
<time>2024-05-09T14:38:08Z</time>
</trkpt>
<trkpt lat="49.547462426126" lon="9.289825391024351">
<ele>275.6</ele>
<time>2024-05-09T14:38:11Z</time>
</trkpt>
<trkpt lat="49.547462426126" lon="9.2898263130337">
<ele>275.6</ele>
<time>2024-05-09T14:38:15Z</time>
</trkpt>
<trkpt lat="49.547462426126" lon="9.28982824087143">
<ele>275.8</ele>
<time>2024-05-09T14:38:16Z</time>
</trkpt>
<trkpt lat="49.547462426126" lon="9.28983016870916">
<ele>275.8</ele>
<time>2024-05-09T14:38:18Z</time>
</trkpt>
<trkpt lat="49.547462426126" lon="9.289832096546888">
<ele>276</ele>
<time>2024-05-09T14:38:20Z</time>
</trkpt>
<trkpt lat="49.547458570450544" lon="9.289832096546888">
<ele>276</ele>
<time>2024-05-09T14:38:23Z</time>
</trkpt>
<trkpt lat="49.547458570450544" lon="9.289833018556235">
<ele>276</ele>
<time>2024-05-09T14:38:24Z</time>
</trkpt>
<trkpt lat="49.547458570450544" lon="9.289832096546888">
<ele>276.2</ele>
<time>2024-05-09T14:38:25Z</time>
</trkpt>
<trkpt lat="49.547458570450544" lon="9.289833018556235">
<ele>276.2</ele>
<time>2024-05-09T14:38:26Z</time>
</trkpt>
<trkpt lat="49.547458570450544" lon="9.289832096546888">
<ele>276.2</ele>
<time>2024-05-09T14:38:27Z</time>
</trkpt>
<trkpt lat="49.547458570450544" lon="9.289833018556235">
<ele>276.2</ele>
<time>2024-05-09T14:38:29Z</time>
</trkpt>
<trkpt lat="49.547458570450544" lon="9.289832096546888">
<ele>276.2</ele>
<time>2024-05-09T14:38:30Z</time>
</trkpt>
<trkpt lat="49.547458570450544" lon="9.289833018556235">
<ele>276.2</ele>
<time>2024-05-09T14:38:31Z</time>
</trkpt>
<trkpt lat="49.547458570450544" lon="9.289832096546888">
<ele>276.2</ele>
<time>2024-05-09T14:38:32Z</time>
</trkpt>
<trkpt lat="49.547458570450544" lon="9.289833018556235">
<ele>276.2</ele>
<time>2024-05-09T14:38:34Z</time>
</trkpt>
<trkpt lat="49.547458570450544" lon="9.289832096546888">
<ele>276.2</ele>
<time>2024-05-09T14:38:37Z</time>
</trkpt>
<trkpt lat="49.547458570450544" lon="9.28983016870916">
<ele>276.2</ele>
<time>2024-05-09T14:38:41Z</time>
</trkpt>
<trkpt lat="49.547458570450544" lon="9.289832096546888">
<ele>276.2</ele>
<time>2024-05-09T14:38:47Z</time>
</trkpt>
<trkpt lat="49.547458570450544" lon="9.28983016870916">
<ele>276.2</ele>
<time>2024-05-09T14:38:57Z</time>
</trkpt>
<trkpt lat="49.54745479859412" lon="9.289832096546888">
<ele>276.2</ele>
<time>2024-05-09T14:39:00Z</time>
</trkpt>
<trkpt lat="49.54745479859412" lon="9.28983016870916">
<ele>276.2</ele>
<time>2024-05-09T14:39:01Z</time>
</trkpt>
<trkpt lat="49.547458570450544" lon="9.28983016870916">
<ele>276</ele>
<time>2024-05-09T14:39:09Z</time>
</trkpt>
<trkpt lat="49.547458570450544" lon="9.28982824087143">
<ele>276</ele>
<time>2024-05-09T14:39:11Z</time>
</trkpt>
<trkpt lat="49.547458570450544" lon="9.2898263130337">
<ele>276</ele>
<time>2024-05-09T14:39:13Z</time>
</trkpt>
<trkpt lat="49.54745479859412" lon="9.2898263130337">
<ele>276</ele>
<time>2024-05-09T14:39:16Z</time>
</trkpt>
<trkpt lat="49.547458570450544" lon="9.28982824087143">
<ele>276</ele>
<time>2024-05-09T14:39:25Z</time>
</trkpt>
<trkpt lat="49.547458570450544" lon="9.28983016870916">
<ele>276</ele>
<time>2024-05-09T14:39:30Z</time>
</trkpt>
<trkpt lat="49.547458570450544" lon="9.28982824087143">
<ele>276</ele>
<time>2024-05-09T14:39:37Z</time>
</trkpt>
<trkpt lat="49.547458570450544" lon="9.28983016870916">
<ele>276</ele>
<time>2024-05-09T14:39:42Z</time>
</trkpt>
<trkpt lat="49.547458570450544" lon="9.28982824087143">
<ele>276</ele>
<time>2024-05-09T14:39:46Z</time>
</trkpt>
<trkpt lat="49.54745479859412" lon="9.2898263130337">
<ele>276</ele>
<time>2024-05-09T14:39:54Z</time>
</trkpt>
<trkpt lat="49.54745479859412" lon="9.28982824087143">
<ele>276.2</ele>
<time>2024-05-09T14:39:57Z</time>
</trkpt>
<trkpt lat="49.54745479859412" lon="9.2898263130337">
<ele>276.2</ele>
<time>2024-05-09T14:40:08Z</time>
</trkpt>
<trkpt lat="49.54745479859412" lon="9.289825391024351">
<ele>276.2</ele>
<time>2024-05-09T14:40:11Z</time>
</trkpt>
<trkpt lat="49.54745094291866" lon="9.289825391024351">
<ele>276.2</ele>
<time>2024-05-09T14:40:14Z</time>
</trkpt>
<trkpt lat="49.54745094291866" lon="9.289823463186622">
<ele>276.2</ele>
<time>2024-05-09T14:40:15Z</time>
</trkpt>
<trkpt lat="49.54745094291866" lon="9.289821619167924">
<ele>276.2</ele>
<time>2024-05-09T14:40:18Z</time>
</trkpt>
<trkpt lat="49.54745094291866" lon="9.289823463186622">
<ele>276.2</ele>
<time>2024-05-09T14:40:21Z</time>
</trkpt>
<trkpt lat="49.54744717106223" lon="9.289825391024351">
<ele>276.2</ele>
<time>2024-05-09T14:40:27Z</time>
</trkpt>
<trkpt lat="49.54744717106223" lon="9.2898263130337">
<ele>276</ele>
<time>2024-05-09T14:40:30Z</time>
</trkpt>
<trkpt lat="49.54744717106223" lon="9.28982824087143">
<ele>276</ele>
<time>2024-05-09T14:40:36Z</time>
</trkpt>
<trkpt lat="49.54744717106223" lon="9.28983016870916">
<ele>276</ele>
<time>2024-05-09T14:40:39Z</time>
</trkpt>
<trkpt lat="49.54744717106223" lon="9.289832096546888">
<ele>276.2</ele>
<time>2024-05-09T14:40:44Z</time>
</trkpt>
<trkpt lat="49.54744717106223" lon="9.289833018556235">
<ele>276.2</ele>
<time>2024-05-09T14:40:47Z</time>
</trkpt>
<trkpt lat="49.54744331538677" lon="9.289833018556235">
<ele>276.2</ele>
<time>2024-05-09T14:40:50Z</time>
</trkpt>
<trkpt lat="49.54744331538677" lon="9.289832096546888">
<ele>276.4</ele>
<time>2024-05-09T14:40:54Z</time>
</trkpt>
<trkpt lat="49.54744717106223" lon="9.289832096546888">
<ele>276.4</ele>
<time>2024-05-09T14:40:58Z</time>
</trkpt>
<trkpt lat="49.54744331538677" lon="9.28983016870916">
<ele>276.4</ele>
<time>2024-05-09T14:41:00Z</time>
</trkpt>
<trkpt lat="49.54744717106223" lon="9.28983016870916">
<ele>276.6</ele>
<time>2024-05-09T14:41:01Z</time>
</trkpt>
<trkpt lat="49.54744717106223" lon="9.289832096546888">
<ele>276.8</ele>
<time>2024-05-09T14:41:02Z</time>
</trkpt>
<trkpt lat="49.54744717106223" lon="9.28983016870916">
<ele>276.8</ele>
<time>2024-05-09T14:41:05Z</time>
</trkpt>
<trkpt lat="49.54744717106223" lon="9.28982824087143">
<ele>276.8</ele>
<time>2024-05-09T14:41:11Z</time>
</trkpt>
<trkpt lat="49.54744717106223" lon="9.2898263130337">
<ele>276.8</ele>
<time>2024-05-09T14:41:15Z</time>
</trkpt>
<trkpt lat="49.54745094291866" lon="9.2898263130337">
<ele>277</ele>
<time>2024-05-09T14:41:17Z</time>
</trkpt>
<trkpt lat="49.54745094291866" lon="9.289825391024351">
<ele>277</ele>
<time>2024-05-09T14:41:21Z</time>
</trkpt>
<trkpt lat="49.54744717106223" lon="9.289825391024351">
<ele>277</ele>
<time>2024-05-09T14:41:30Z</time>
</trkpt>
<trkpt lat="49.54744717106223" lon="9.289823463186622">
<ele>277</ele>
<time>2024-05-09T14:41:38Z</time>
</trkpt>
<trkpt lat="49.54745094291866" lon="9.289823463186622">
<ele>277</ele>
<time>2024-05-09T14:41:39Z</time>
</trkpt>
<trkpt lat="49.54745094291866" lon="9.289825391024351">
<ele>277</ele>
<time>2024-05-09T14:41:41Z</time>
</trkpt>
<trkpt lat="49.54745094291866" lon="9.2898263130337">
<ele>276.8</ele>
<time>2024-05-09T14:41:51Z</time>
</trkpt>
<trkpt lat="49.54745094291866" lon="9.289825391024351">
<ele>276.8</ele>
<time>2024-05-09T14:41:57Z</time>
</trkpt>
<trkpt lat="49.54745094291866" lon="9.289823463186622">
<ele>276.8</ele>
<time>2024-05-09T14:42:05Z</time>
</trkpt>
<trkpt lat="49.54745094291866" lon="9.289825391024351">
<ele>276.8</ele>
<time>2024-05-09T14:42:06Z</time>
</trkpt>
<trkpt lat="49.54745094291866" lon="9.2898263130337">
<ele>276.8</ele>
<time>2024-05-09T14:42:07Z</time>
</trkpt>
<trkpt lat="49.54745094291866" lon="9.28982824087143">
<ele>276.8</ele>
<time>2024-05-09T14:42:10Z</time>
</trkpt>
<trkpt lat="49.54745094291866" lon="9.2898263130337">
<ele>276.8</ele>
<time>2024-05-09T14:42:19Z</time>
</trkpt>
<trkpt lat="49.54744717106223" lon="9.2898263130337">
<ele>276.8</ele>
<time>2024-05-09T14:42:25Z</time>
</trkpt>
<trkpt lat="49.54744717106223" lon="9.289825391024351">
<ele>276.8</ele>
<time>2024-05-09T14:42:26Z</time>
</trkpt>
<trkpt lat="49.54744717106223" lon="9.289823463186622">
<ele>276.8</ele>
<time>2024-05-09T14:42:28Z</time>
</trkpt>
<trkpt lat="49.54744717106223" lon="9.289821619167924">
<ele>276.8</ele>
<time>2024-05-09T14:42:31Z</time>
</trkpt>
<trkpt lat="49.54744717106223" lon="9.289819691330194">
<ele>276.8</ele>
<time>2024-05-09T14:42:34Z</time>
</trkpt>
<trkpt lat="49.54744717106223" lon="9.289821619167924">
<ele>276.8</ele>
<time>2024-05-09T14:42:39Z</time>
</trkpt>
<trkpt lat="49.54744331538677" lon="9.289821619167924">
<ele>276.8</ele>
<time>2024-05-09T14:42:40Z</time>
</trkpt>
<trkpt lat="49.54744331538677" lon="9.289823463186622">
<ele>276.8</ele>
<time>2024-05-09T14:42:42Z</time>
</trkpt>
<trkpt lat="49.54744331538677" lon="9.289825391024351">
<ele>276.8</ele>
<time>2024-05-09T14:43:06Z</time>
</trkpt>
<trkpt lat="49.54744331538677" lon="9.289823463186622">
<ele>276.8</ele>
<time>2024-05-09T14:43:18Z</time>
</trkpt>
<trkpt lat="49.54744331538677" lon="9.289825391024351">
<ele>276.8</ele>
<time>2024-05-09T14:43:19Z</time>
</trkpt>
<trkpt lat="49.54744331538677" lon="9.2898263130337">
<ele>276.8</ele>
<time>2024-05-09T14:43:26Z</time>
</trkpt>
<trkpt lat="49.54744331538677" lon="9.289825391024351">
<ele>276.8</ele>
<time>2024-05-09T14:43:27Z</time>
</trkpt>
<trkpt lat="49.547439543530345" lon="9.2898263130337">
<ele>276.8</ele>
<time>2024-05-09T14:43:29Z</time>
</trkpt>
<trkpt lat="49.547439543530345" lon="9.28982824087143">
<ele>276.8</ele>
<time>2024-05-09T14:43:35Z</time>
</trkpt>
<trkpt lat="49.54744331538677" lon="9.28982824087143">
<ele>276.8</ele>
<time>2024-05-09T14:43:39Z</time>
</trkpt>
<trkpt lat="49.54744331538677" lon="9.28983016870916">
<ele>276.8</ele>
<time>2024-05-09T14:43:40Z</time>
</trkpt>
<trkpt lat="49.54744331538677" lon="9.28982824087143">
<ele>276.8</ele>
<time>2024-05-09T14:43:41Z</time>
</trkpt>
<trkpt lat="49.54744331538677" lon="9.28983016870916">
<ele>276.8</ele>
<time>2024-05-09T14:43:42Z</time>
</trkpt>
<trkpt lat="49.54744331538677" lon="9.28982824087143">
<ele>276.8</ele>
<time>2024-05-09T14:43:43Z</time>
</trkpt>
<trkpt lat="49.54744331538677" lon="9.28983016870916">
<ele>276.8</ele>
<time>2024-05-09T14:43:44Z</time>
</trkpt>
<trkpt lat="49.54744331538677" lon="9.28982824087143">
<ele>276.8</ele>
<time>2024-05-09T14:44:01Z</time>
</trkpt>
<trkpt lat="49.54744331538677" lon="9.2898263130337">
<ele>276.8</ele>
<time>2024-05-09T14:44:18Z</time>
</trkpt>
<trkpt lat="49.54744331538677" lon="9.289825391024351">
<ele>276.8</ele>
<time>2024-05-09T14:44:22Z</time>
</trkpt>
<trkpt lat="49.54744331538677" lon="9.289823463186622">
<ele>276.8</ele>
<time>2024-05-09T14:44:26Z</time>
</trkpt>
<trkpt lat="49.54744331538677" lon="9.289821619167924">
<ele>276.8</ele>
<time>2024-05-09T14:44:31Z</time>
</trkpt>
<trkpt lat="49.54744331538677" lon="9.289823463186622">
<ele>276.8</ele>
<time>2024-05-09T14:44:33Z</time>
</trkpt>
<trkpt lat="49.54744331538677" lon="9.289825391024351">
<ele>276.8</ele>
<time>2024-05-09T14:44:36Z</time>
</trkpt>
<trkpt lat="49.54744331538677" lon="9.2898263130337">
<ele>276.8</ele>
<time>2024-05-09T14:44:39Z</time>
</trkpt>
<trkpt lat="49.54744331538677" lon="9.28982824087143">
<ele>276.8</ele>
<time>2024-05-09T14:44:48Z</time>
</trkpt>
<trkpt lat="49.547439543530345" lon="9.28982824087143">
<ele>276.8</ele>
<time>2024-05-09T14:44:49Z</time>
</trkpt>
<trkpt lat="49.547439543530345" lon="9.2898263130337">
<ele>276.8</ele>
<time>2024-05-09T14:45:00Z</time>
</trkpt>
<trkpt lat="49.547439543530345" lon="9.28982824087143">
<ele>276.8</ele>
<time>2024-05-09T14:45:02Z</time>
</trkpt>
<trkpt lat="49.54744331538677" lon="9.28982824087143">
<ele>276.8</ele>
<time>2024-05-09T14:45:06Z</time>
</trkpt>
<trkpt lat="49.54744331538677" lon="9.2898263130337">
<ele>276.8</ele>
<time>2024-05-09T14:45:07Z</time>
</trkpt>
<trkpt lat="49.54744331538677" lon="9.28982824087143">
<ele>276.8</ele>
<time>2024-05-09T14:45:15Z</time>
</trkpt>
<trkpt lat="49.54744331538677" lon="9.28983016870916">
<ele>276.8</ele>
<time>2024-05-09T14:45:28Z</time>
</trkpt>
<trkpt lat="49.54744331538677" lon="9.28982824087143">
<ele>276.8</ele>
<time>2024-05-09T14:45:38Z</time>
</trkpt>
<trkpt lat="49.54744331538677" lon="9.28983016870916">
<ele>276.8</ele>
<time>2024-05-09T14:45:43Z</time>
</trkpt>
<trkpt lat="49.54744331538677" lon="9.289832096546888">
<ele>276.8</ele>
<time>2024-05-09T14:45:47Z</time>
</trkpt>
<trkpt lat="49.54744331538677" lon="9.289833018556235">
<ele>276.8</ele>
<time>2024-05-09T14:45:53Z</time>
</trkpt>
<trkpt lat="49.54744331538677" lon="9.289832096546888">
<ele>276.8</ele>
<time>2024-05-09T14:46:03Z</time>
</trkpt>
<trkpt lat="49.547439543530345" lon="9.289833018556235">
<ele>276.8</ele>
<time>2024-05-09T14:46:08Z</time>
</trkpt>
<trkpt lat="49.547439543530345" lon="9.289834946393968">
<ele>276.8</ele>
<time>2024-05-09T14:46:11Z</time>
</trkpt>
<trkpt lat="49.547439543530345" lon="9.289833018556235">
<ele>276.8</ele>
<time>2024-05-09T14:46:24Z</time>
</trkpt>
<trkpt lat="49.547439543530345" lon="9.289832096546888">
<ele>276.8</ele>
<time>2024-05-09T14:46:28Z</time>
</trkpt>
<trkpt lat="49.547439543530345" lon="9.28983016870916">
<ele>276.8</ele>
<time>2024-05-09T14:46:30Z</time>
</trkpt>
<trkpt lat="49.54744331538677" lon="9.28983016870916">
<ele>276.8</ele>
<time>2024-05-09T14:46:31Z</time>
</trkpt>
<trkpt lat="49.547439543530345" lon="9.28983016870916">
<ele>276.8</ele>
<time>2024-05-09T14:46:33Z</time>
</trkpt>
<trkpt lat="49.547439543530345" lon="9.289832096546888">
<ele>276.8</ele>
<time>2024-05-09T14:46:35Z</time>
</trkpt>
<trkpt lat="49.547439543530345" lon="9.289833018556235">
<ele>276.8</ele>
<time>2024-05-09T14:46:41Z</time>
</trkpt>
<trkpt lat="49.547439543530345" lon="9.289834946393968">
<ele>276.8</ele>
<time>2024-05-09T14:46:46Z</time>
</trkpt>
<trkpt lat="49.547439543530345" lon="9.289836874231696">
<ele>276.8</ele>
<time>2024-05-09T14:46:50Z</time>
</trkpt>
<trkpt lat="49.547439543530345" lon="9.289834946393968">
<ele>276.8</ele>
<time>2024-05-09T14:46:52Z</time>
</trkpt>
<trkpt lat="49.547439543530345" lon="9.289833018556235">
<ele>276.8</ele>
<time>2024-05-09T14:46:55Z</time>
</trkpt>
<trkpt lat="49.547439543530345" lon="9.289832096546888">
<ele>276.8</ele>
<time>2024-05-09T14:46:56Z</time>
</trkpt>
<trkpt lat="49.547439543530345" lon="9.28983016870916">
<ele>276.8</ele>
<time>2024-05-09T14:46:59Z</time>
</trkpt>
<trkpt lat="49.547439543530345" lon="9.28982824087143">
<ele>276.8</ele>
<time>2024-05-09T14:47:02Z</time>
</trkpt>
<trkpt lat="49.547439543530345" lon="9.28983016870916">
<ele>276.8</ele>
<time>2024-05-09T14:47:09Z</time>
</trkpt>
<trkpt lat="49.547439543530345" lon="9.289832096546888">
<ele>276.8</ele>
<time>2024-05-09T14:47:14Z</time>
</trkpt>
<trkpt lat="49.547439543530345" lon="9.28983016870916">
<ele>276.8</ele>
<time>2024-05-09T14:47:28Z</time>
</trkpt>
<trkpt lat="49.547439543530345" lon="9.28982824087143">
<ele>276.8</ele>
<time>2024-05-09T14:47:31Z</time>
</trkpt>
<trkpt lat="49.547439543530345" lon="9.2898263130337">
<ele>276.8</ele>
<time>2024-05-09T14:47:34Z</time>
</trkpt>
<trkpt lat="49.547439543530345" lon="9.28982824087143">
<ele>276.8</ele>
<time>2024-05-09T14:47:37Z</time>
</trkpt>
<trkpt lat="49.547439543530345" lon="9.2898263130337">
<ele>276.8</ele>
<time>2024-05-09T14:47:38Z</time>
</trkpt>
<trkpt lat="49.547439543530345" lon="9.28982824087143">
<ele>276.8</ele>
<time>2024-05-09T14:47:39Z</time>
</trkpt>
<trkpt lat="49.547439543530345" lon="9.2898263130337">
<ele>276.8</ele>
<time>2024-05-09T14:47:40Z</time>
</trkpt>
<trkpt lat="49.547439543530345" lon="9.289825391024351">
<ele>276.8</ele>
<time>2024-05-09T14:47:45Z</time>
</trkpt>
<trkpt lat="49.547439543530345" lon="9.289823463186622">
<ele>276.8</ele>
<time>2024-05-09T14:47:48Z</time>
</trkpt>
<trkpt lat="49.547439543530345" lon="9.289821619167924">
<ele>276.8</ele>
<time>2024-05-09T14:47:51Z</time>
</trkpt>
<trkpt lat="49.547439543530345" lon="9.289819691330194">
<ele>276.8</ele>
<time>2024-05-09T14:47:53Z</time>
</trkpt>
<trkpt lat="49.547435687854886" lon="9.289819691330194">
<ele>276.8</ele>
<time>2024-05-09T14:47:55Z</time>
</trkpt>
<trkpt lat="49.547435687854886" lon="9.289818685501814">
<ele>276.8</ele>
<time>2024-05-09T14:47:57Z</time>
</trkpt>
<trkpt lat="49.547435687854886" lon="9.289819691330194">
<ele>276.8</ele>
<time>2024-05-09T14:47:59Z</time>
</trkpt>
<trkpt lat="49.547435687854886" lon="9.289821619167924">
<ele>276.8</ele>
<time>2024-05-09T14:48:04Z</time>
</trkpt>
<trkpt lat="49.547435687854886" lon="9.289823463186622">
<ele>276.8</ele>
<time>2024-05-09T14:48:09Z</time>
</trkpt>
<trkpt lat="49.547435687854886" lon="9.2898263130337">
<ele>276.8</ele>
<time>2024-05-09T14:48:10Z</time>
</trkpt>
<trkpt lat="49.547435687854886" lon="9.289825391024351">
<ele>276.8</ele>
<time>2024-05-09T14:48:13Z</time>
</trkpt>
<trkpt lat="49.547439543530345" lon="9.289825391024351">
<ele>276.8</ele>
<time>2024-05-09T14:48:14Z</time>
</trkpt>
<trkpt lat="49.547439543530345" lon="9.289823463186622">
<ele>276.8</ele>
<time>2024-05-09T14:48:16Z</time>
</trkpt>
<trkpt lat="49.547435687854886" lon="9.289823463186622">
<ele>276.8</ele>
<time>2024-05-09T14:48:17Z</time>
</trkpt>
<trkpt lat="49.547428060323" lon="9.2898263130337">
<ele>276.8</ele>
<time>2024-05-09T14:48:18Z</time>
</trkpt>
<trkpt lat="49.547420432791114" lon="9.28983016870916">
<ele>276.8</ele>
<time>2024-05-09T14:48:19Z</time>
</trkpt>
<trkpt lat="49.54741666093469" lon="9.28983016870916">
<ele>276.8</ele>
<time>2024-05-09T14:48:20Z</time>
</trkpt>
<trkpt lat="49.54741280525923" lon="9.289832096546888">
<ele>276.8</ele>
<time>2024-05-09T14:48:21Z</time>
</trkpt>
<trkpt lat="49.547401405870914" lon="9.289834946393968">
<ele>276.8</ele>
<time>2024-05-09T14:48:22Z</time>
</trkpt>
<trkpt lat="49.54738992266357" lon="9.289838718250394">
<ele>276.8</ele>
<time>2024-05-09T14:48:23Z</time>
</trkpt>
<trkpt lat="49.54738229513168" lon="9.289843495935202">
<ele>276.8</ele>
<time>2024-05-09T14:48:24Z</time>
</trkpt>
<trkpt lat="49.547378523275256" lon="9.28984827362001">
<ele>276.8</ele>
<time>2024-05-09T14:48:25Z</time>
</trkpt>
<trkpt lat="49.54737089574337" lon="9.289856906980276">
<ele>276.8</ele>
<time>2024-05-09T14:48:26Z</time>
</trkpt>
<trkpt lat="49.547359412536025" lon="9.28986637853086">
<ele>276.8</ele>
<time>2024-05-09T14:48:27Z</time>
</trkpt>
<trkpt lat="49.54733275808394" lon="9.289883561432362">
<ele>276.8</ele>
<time>2024-05-09T14:48:28Z</time>
</trkpt>
<trkpt lat="49.547321274876595" lon="9.289901666343212">
<ele>276.8</ele>
<time>2024-05-09T14:48:29Z</time>
</trkpt>
<trkpt lat="49.547298392280936" lon="9.28992454893887">
<ele>276.8</ele>
<time>2024-05-09T14:48:30Z</time>
</trkpt>
<trkpt lat="49.54727550968528" lon="9.28995036520064">
<ele>276.8</ele>
<time>2024-05-09T14:48:31Z</time>
</trkpt>
<trkpt lat="49.547260254621506" lon="9.28996847011149">
<ele>276.8</ele>
<time>2024-05-09T14:48:32Z</time>
</trkpt>
<trkpt lat="49.54725262708962" lon="9.289981797337532">
<ele>276.8</ele>
<time>2024-05-09T14:48:33Z</time>
</trkpt>
<trkpt lat="49.54724499955773" lon="9.289997052401304">
<ele>276.8</ele>
<time>2024-05-09T14:48:34Z</time>
</trkpt>
<trkpt lat="49.54723737202585" lon="9.290013313293455">
<ele>276.8</ele>
<time>2024-05-09T14:48:35Z</time>
</trkpt>
<trkpt lat="49.54723351635039" lon="9.29002856835723">
<ele>276.8</ele>
<time>2024-05-09T14:48:36Z</time>
</trkpt>
<trkpt lat="49.547222116962075" lon="9.29004281759262">
<ele>276.8</ele>
<time>2024-05-09T14:48:37Z</time>
</trkpt>
<trkpt lat="49.54721063375473" lon="9.2900628503412">
<ele>276.8</ele>
<time>2024-05-09T14:48:38Z</time>
</trkpt>
<trkpt lat="49.54719923436642" lon="9.290080033242702">
<ele>276.8</ele>
<time>2024-05-09T14:48:39Z</time>
</trkpt>
<trkpt lat="49.54718775115907" lon="9.290100065991282">
<ele>276.8</ele>
<time>2024-05-09T14:48:40Z</time>
</trkpt>
<trkpt lat="49.54717635177076" lon="9.290116243064404">
<ele>276.8</ele>
<time>2024-05-09T14:48:41Z</time>
</trkpt>
<trkpt lat="49.547164868563414" lon="9.290136275812984">
<ele>276.8</ele>
<time>2024-05-09T14:48:42Z</time>
</trkpt>
<trkpt lat="49.54714961349964" lon="9.290155386552216">
<ele>276.8</ele>
<time>2024-05-09T14:48:43Z</time>
</trkpt>
<trkpt lat="49.54713821411133" lon="9.290173491463063">
<ele>276.8</ele>
<time>2024-05-09T14:48:44Z</time>
</trkpt>
<trkpt lat="49.5471191033721" lon="9.290196374058723">
<ele>276.8</ele>
<time>2024-05-09T14:48:45Z</time>
</trkpt>
<trkpt lat="49.547103848308325" lon="9.290221184492111">
<ele>276.8</ele>
<time>2024-05-09T14:48:46Z</time>
</trkpt>
<trkpt lat="49.54709236510098" lon="9.290244989097118">
<ele>276.8</ele>
<time>2024-05-09T14:48:47Z</time>
</trkpt>
<trkpt lat="49.54707711003721" lon="9.290267871692777">
<ele>276.8</ele>
<time>2024-05-09T14:48:48Z</time>
</trkpt>
<trkpt lat="49.547061854973435" lon="9.290287904441357">
<ele>276.8</ele>
<time>2024-05-09T14:48:49Z</time>
</trkpt>
<trkpt lat="49.54704659990966" lon="9.290311792865396">
<ele>276.8</ele>
<time>2024-05-09T14:48:50Z</time>
</trkpt>
<trkpt lat="49.54703134484589" lon="9.290331825613976">
<ele>276.8</ele>
<time>2024-05-09T14:48:51Z</time>
</trkpt>
<trkpt lat="49.54701994545758" lon="9.290353702381251">
<ele>276.8</ele>
<time>2024-05-09T14:48:52Z</time>
</trkpt>
<trkpt lat="49.54700846225023" lon="9.290374740958214">
<ele>276.8</ele>
<time>2024-05-09T14:48:53Z</time>
</trkpt>
<trkpt lat="49.54699320718646" lon="9.290403323248029">
<ele>276.8</ele>
<time>2024-05-09T14:48:54Z</time>
</trkpt>
<trkpt lat="49.54697795212269" lon="9.290423355996609">
<ele>276.8</ele>
<time>2024-05-09T14:48:55Z</time>
</trkpt>
<trkpt lat="49.54695884138346" lon="9.290443388745189">
<ele>276.8</ele>
<time>2024-05-09T14:48:56Z</time>
</trkpt>
<trkpt lat="49.546943586319685" lon="9.29045956581831">
<ele>276.8</ele>
<time>2024-05-09T14:48:57Z</time>
</trkpt>
<trkpt lat="49.54692833125591" lon="9.29048152640462">
<ele>276.8</ele>
<time>2024-05-09T14:48:58Z</time>
</trkpt>
<trkpt lat="49.54690930433571" lon="9.290508264675736">
<ele>276.8</ele>
<time>2024-05-09T14:48:59Z</time>
</trkpt>
<trkpt lat="49.54689019359648" lon="9.290534919127822">
<ele>276.8</ele>
<time>2024-05-09T14:49:00Z</time>
</trkpt>
<trkpt lat="49.546867311000824" lon="9.290553024038672">
<ele>277</ele>
<time>2024-05-09T14:49:01Z</time>
</trkpt>
<trkpt lat="49.54685205593705" lon="9.290573056787252">
<ele>277</ele>
<time>2024-05-09T14:49:02Z</time>
</trkpt>
<trkpt lat="49.54683680087328" lon="9.290590239688754">
<ele>277.2</ele>
<time>2024-05-09T14:49:03Z</time>
</trkpt>
<trkpt lat="49.54682154580951" lon="9.290606416761875">
<ele>277.2</ele>
<time>2024-05-09T14:49:04Z</time>
</trkpt>
<trkpt lat="49.546810146421194" lon="9.29061982780695">
<ele>277.4</ele>
<time>2024-05-09T14:49:05Z</time>
</trkpt>
<trkpt lat="49.54679103568196" lon="9.290631227195265">
<ele>277.6</ele>
<time>2024-05-09T14:49:06Z</time>
</trkpt>
<trkpt lat="49.54677955247462" lon="9.290643632411957">
<ele>277.8</ele>
<time>2024-05-09T14:49:07Z</time>
</trkpt>
<trkpt lat="49.54677192494273" lon="9.290661737322807">
<ele>278</ele>
<time>2024-05-09T14:49:08Z</time>
</trkpt>
<trkpt lat="49.546764297410846" lon="9.290671292692425">
<ele>278.4</ele>
<time>2024-05-09T14:49:09Z</time>
</trkpt>
<trkpt lat="49.546749042347074" lon="9.29067799821496">
<ele>278.6</ele>
<time>2024-05-09T14:49:10Z</time>
</trkpt>
<trkpt lat="49.546730015426874" lon="9.29069995880127">
<ele>279</ele>
<time>2024-05-09T14:49:11Z</time>
</trkpt>
<trkpt lat="49.5467147603631" lon="9.290713286027312">
<ele>279.2</ele>
<time>2024-05-09T14:49:12Z</time>
</trkpt>
<trkpt lat="49.54669187776744" lon="9.290724685415626">
<ele>279.4</ele>
<time>2024-05-09T14:49:13Z</time>
</trkpt>
<trkpt lat="49.54667662270367" lon="9.290748573839664">
<ele>279.6</ele>
<time>2024-05-09T14:49:14Z</time>
</trkpt>
<trkpt lat="49.54665374010801" lon="9.290764750912786">
<ele>279.8</ele>
<time>2024-05-09T14:49:15Z</time>
</trkpt>
<trkpt lat="49.54663462936878" lon="9.290788639336824">
<ele>280.2</ele>
<time>2024-05-09T14:49:16Z</time>
</trkpt>
<trkpt lat="49.54661937430501" lon="9.290818143635988">
<ele>280.4</ele>
<time>2024-05-09T14:49:17Z</time>
</trkpt>
<trkpt lat="49.54660411924124" lon="9.290842032060027">
<ele>280.6</ele>
<time>2024-05-09T14:49:18Z</time>
</trkpt>
<trkpt lat="49.54658500850201" lon="9.290862986817956">
<ele>281</ele>
<time>2024-05-09T14:49:19Z</time>
</trkpt>
<trkpt lat="49.54656598158181" lon="9.290884947404264">
<ele>281.2</ele>
<time>2024-05-09T14:49:20Z</time>
</trkpt>
<trkpt lat="49.546546870842576" lon="9.290906824171543">
<ele>281.6</ele>
<time>2024-05-09T14:49:21Z</time>
</trkpt>
<trkpt lat="49.54652784392238" lon="9.290925012901424">
<ele>281.8</ele>
<time>2024-05-09T14:49:22Z</time>
</trkpt>
<trkpt lat="49.54650496132672" lon="9.290946889668705">
<ele>282</ele>
<time>2024-05-09T14:49:23Z</time>
</trkpt>
<trkpt lat="49.546489706262946" lon="9.290966922417285">
<ele>282</ele>
<time>2024-05-09T14:49:24Z</time>
</trkpt>
<trkpt lat="49.546470595523715" lon="9.290986955165865">
<ele>282.2</ele>
<time>2024-05-09T14:49:25Z</time>
</trkpt>
<trkpt lat="49.54645156860352" lon="9.29100983776152">
<ele>282.4</ele>
<time>2024-05-09T14:49:26Z</time>
</trkpt>
<trkpt lat="49.54643622972071" lon="9.29103657603264">
<ele>282.8</ele>
<time>2024-05-09T14:49:27Z</time>
</trkpt>
<trkpt lat="49.54641720280051" lon="9.291067086160185">
<ele>283</ele>
<time>2024-05-09T14:49:28Z</time>
</trkpt>
<trkpt lat="49.54639809206128" lon="9.29109281860292">
<ele>283.2</ele>
<time>2024-05-09T14:49:29Z</time>
</trkpt>
<trkpt lat="49.54638669267297" lon="9.291119556874037">
<ele>283.6</ele>
<time>2024-05-09T14:49:30Z</time>
</trkpt>
<trkpt lat="49.5463714376092" lon="9.291145289316772">
<ele>283.8</ele>
<time>2024-05-09T14:49:31Z</time>
</trkpt>
<trkpt lat="49.546352326869965" lon="9.291174877434967">
<ele>284.2</ele>
<time>2024-05-09T14:49:32Z</time>
</trkpt>
<trkpt lat="49.546329444274306" lon="9.291199604049323">
<ele>284.4</ele>
<time>2024-05-09T14:49:33Z</time>
</trkpt>
<trkpt lat="49.546314189210534" lon="9.291218714788556">
<ele>284.8</ele>
<time>2024-05-09T14:49:34Z</time>
</trkpt>
<trkpt lat="49.54630278982222" lon="9.291234891861675">
<ele>285.2</ele>
<time>2024-05-09T14:49:35Z</time>
</trkpt>
<trkpt lat="49.546295162290335" lon="9.291263557970524">
<ele>285.6</ele>
<time>2024-05-09T14:49:36Z</time>
</trkpt>
<trkpt lat="49.54627990722656" lon="9.291283590719104">
<ele>286</ele>
<time>2024-05-09T14:49:37Z</time>
</trkpt>
<trkpt lat="49.54625694081187" lon="9.29131024517119">
<ele>286.2</ele>
<time>2024-05-09T14:49:38Z</time>
</trkpt>
<trkpt lat="49.5462416857481" lon="9.291335055604575">
<ele>286.4</ele>
<time>2024-05-09T14:49:39Z</time>
</trkpt>
<trkpt lat="49.546215031296015" lon="9.2913684155792">
<ele>286.8</ele>
<time>2024-05-09T14:49:40Z</time>
</trkpt>
<trkpt lat="49.546195920556784" lon="9.291397081688046">
<ele>287</ele>
<time>2024-05-09T14:49:41Z</time>
</trkpt>
<trkpt lat="49.546176893636584" lon="9.291424741968513">
<ele>287.2</ele>
<time>2024-05-09T14:49:42Z</time>
</trkpt>
<trkpt lat="49.54616163857281" lon="9.29144661873579">
<ele>287.4</ele>
<time>2024-05-09T14:49:43Z</time>
</trkpt>
<trkpt lat="49.546134900301695" lon="9.291461873799562">
<ele>287.8</ele>
<time>2024-05-09T14:49:44Z</time>
</trkpt>
<trkpt lat="49.54612350091338" lon="9.29148475639522">
<ele>288</ele>
<time>2024-05-09T14:49:45Z</time>
</trkpt>
<trkpt lat="49.54610053449869" lon="9.291509566828609">
<ele>288.2</ele>
<time>2024-05-09T14:49:46Z</time>
</trkpt>
<trkpt lat="49.54608913511038" lon="9.29154678247869">
<ele>288.4</ele>
<time>2024-05-09T14:49:47Z</time>
</trkpt>
<trkpt lat="49.54607765190303" lon="9.291573520749807">
<ele>288.6</ele>
<time>2024-05-09T14:49:48Z</time>
</trkpt>
<trkpt lat="49.54606239683926" lon="9.291595397517083">
<ele>288.8</ele>
<time>2024-05-09T14:49:49Z</time>
</trkpt>
<trkpt lat="49.54604336991906" lon="9.29162691347301">
<ele>289.2</ele>
<time>2024-05-09T14:49:50Z</time>
</trkpt>
<trkpt lat="49.54603188671172" lon="9.29164786823094">
<ele>289.4</ele>
<time>2024-05-09T14:49:51Z</time>
</trkpt>
<trkpt lat="49.54602425917983" lon="9.291673600673676">
<ele>289.6</ele>
<time>2024-05-09T14:49:52Z</time>
</trkpt>
<trkpt lat="49.54600900411606" lon="9.291689861565828">
<ele>289.8</ele>
<time>2024-05-09T14:49:53Z</time>
</trkpt>
<trkpt lat="49.54598997719586" lon="9.291718443855643">
<ele>290</ele>
<time>2024-05-09T14:49:54Z</time>
</trkpt>
<trkpt lat="49.5459670946002" lon="9.29174518212676">
<ele>290.4</ele>
<time>2024-05-09T14:49:55Z</time>
</trkpt>
<trkpt lat="49.54596323892474" lon="9.291767058894038">
<ele>290.6</ele>
<time>2024-05-09T14:49:56Z</time>
</trkpt>
<trkpt lat="49.54594798386097" lon="9.291796647012234">
<ele>290.8</ele>
<time>2024-05-09T14:49:57Z</time>
</trkpt>
<trkpt lat="49.54592510126531" lon="9.291828079149129">
<ele>291</ele>
<time>2024-05-09T14:49:58Z</time>
</trkpt>
<trkpt lat="49.545898362994194" lon="9.291858673095703">
<ele>291.2</ele>
<time>2024-05-09T14:49:59Z</time>
</trkpt>
<trkpt lat="49.54587170854211" lon="9.291886249557136">
<ele>291.4</ele>
<time>2024-05-09T14:50:00Z</time>
</trkpt>
<trkpt lat="49.54584497027099" lon="9.291912987828256">
<ele>291.6</ele>
<time>2024-05-09T14:50:01Z</time>
</trkpt>
<trkpt lat="49.54582208767533" lon="9.291945425793529">
<ele>291.6</ele>
<time>2024-05-09T14:50:02Z</time>
</trkpt>
<trkpt lat="49.545803060755134" lon="9.291970236226916">
<ele>291.8</ele>
<time>2024-05-09T14:50:03Z</time>
</trkpt>
<trkpt lat="49.5457839500159" lon="9.291996890679002">
<ele>291.8</ele>
<time>2024-05-09T14:50:04Z</time>
</trkpt>
<trkpt lat="49.54576106742024" lon="9.292014995589852">
<ele>292</ele>
<time>2024-05-09T14:50:05Z</time>
</trkpt>
<trkpt lat="49.545738184824586" lon="9.292033184319736">
<ele>292.2</ele>
<time>2024-05-09T14:50:06Z</time>
</trkpt>
<trkpt lat="49.545719074085355" lon="9.292050283402205">
<ele>292.4</ele>
<time>2024-05-09T14:50:07Z</time>
</trkpt>
<trkpt lat="49.54569241963327" lon="9.292068472132089">
<ele>292.6</ele>
<time>2024-05-09T14:50:08Z</time>
</trkpt>
<trkpt lat="49.54567330889404" lon="9.292084649205208">
<ele>292.8</ele>
<time>2024-05-09T14:50:09Z</time>
</trkpt>
<trkpt lat="49.54565042629838" lon="9.292111387476323">
<ele>293</ele>
<time>2024-05-09T14:50:10Z</time>
</trkpt>
<trkpt lat="49.54563139937818" lon="9.29213804192841">
<ele>293</ele>
<time>2024-05-09T14:50:11Z</time>
</trkpt>
<trkpt lat="49.545619916170835" lon="9.292169557884336">
<ele>293.2</ele>
<time>2024-05-09T14:50:12Z</time>
</trkpt>
<trkpt lat="49.54560466110706" lon="9.29220006801188">
<ele>293.4</ele>
<time>2024-05-09T14:50:13Z</time>
</trkpt>
<trkpt lat="49.54558555036783" lon="9.292229572311044">
<ele>293.6</ele>
<time>2024-05-09T14:50:14Z</time>
</trkpt>
<trkpt lat="49.545562667772174" lon="9.292264860123396">
<ele>293.8</ele>
<time>2024-05-09T14:50:15Z</time>
</trkpt>
<trkpt lat="49.54553601332009" lon="9.292289670556784">
<ele>294</ele>
<time>2024-05-09T14:50:16Z</time>
</trkpt>
<trkpt lat="49.54550927504897" lon="9.292309703305364">
<ele>294.2</ele>
<time>2024-05-09T14:50:17Z</time>
</trkpt>
<trkpt lat="49.54549024812877" lon="9.292331663891671">
<ele>294.4</ele>
<time>2024-05-09T14:50:18Z</time>
</trkpt>
<trkpt lat="49.545474993065" lon="9.292353624477984">
<ele>294.6</ele>
<time>2024-05-09T14:50:19Z</time>
</trkpt>
<trkpt lat="49.54544825479388" lon="9.292374579235911">
<ele>294.8</ele>
<time>2024-05-09T14:50:20Z</time>
</trkpt>
<trkpt lat="49.54542922787368" lon="9.292394611984491">
<ele>295</ele>
<time>2024-05-09T14:50:21Z</time>
</trkpt>
<trkpt lat="49.54541011713445" lon="9.292407939210534">
<ele>295.2</ele>
<time>2024-05-09T14:50:22Z</time>
</trkpt>
<trkpt lat="49.545383378863335" lon="9.292423194274306">
<ele>295.4</ele>
<time>2024-05-09T14:50:23Z</time>
</trkpt>
<trkpt lat="49.54536049626768" lon="9.292443227022886">
<ele>295.6</ele>
<time>2024-05-09T14:50:24Z</time>
</trkpt>
<trkpt lat="49.545345241203904" lon="9.292468037456274">
<ele>295.6</ele>
<time>2024-05-09T14:50:25Z</time>
</trkpt>
<trkpt lat="49.545326214283705" lon="9.292496619746087">
<ele>295.6</ele>
<time>2024-05-09T14:50:26Z</time>
</trkpt>
<trkpt lat="49.54531095921993" lon="9.292523358017206">
<ele>295.6</ele>
<time>2024-05-09T14:50:27Z</time>
</trkpt>
<trkpt lat="49.54529570415616" lon="9.292546240612864">
<ele>295.8</ele>
<time>2024-05-09T14:50:28Z</time>
</trkpt>
<trkpt lat="49.545288076624274" lon="9.292559567838907">
<ele>295.8</ele>
<time>2024-05-09T14:50:29Z</time>
</trkpt>
<trkpt lat="49.545284220948815" lon="9.292568201199174">
<ele>295.8</ele>
<time>2024-05-09T14:50:30Z</time>
</trkpt>
<trkpt lat="49.54528044909239" lon="9.29257482290268">
<ele>296</ele>
<time>2024-05-09T14:50:31Z</time>
</trkpt>
<trkpt lat="49.54528044909239" lon="9.292581528425217">
<ele>296</ele>
<time>2024-05-09T14:50:32Z</time>
</trkpt>
<trkpt lat="49.54528044909239" lon="9.292583456262946">
<ele>296</ele>
<time>2024-05-09T14:50:33Z</time>
</trkpt>
<trkpt lat="49.54527659341693" lon="9.292588233947754">
<ele>296.2</ele>
<time>2024-05-09T14:50:34Z</time>
</trkpt>
<trkpt lat="49.54527659341693" lon="9.29259200580418">
<ele>296.2</ele>
<time>2024-05-09T14:50:35Z</time>
</trkpt>
<trkpt lat="49.54527659341693" lon="9.29259292781353">
<ele>296.2</ele>
<time>2024-05-09T14:50:38Z</time>
</trkpt>
<trkpt lat="49.54527659341693" lon="9.29259485565126">
<ele>296.2</ele>
<time>2024-05-09T14:50:39Z</time>
</trkpt>
<trkpt lat="49.54527659341693" lon="9.292598711326718">
<ele>296.2</ele>
<time>2024-05-09T14:50:40Z</time>
</trkpt>
<trkpt lat="49.5452728215605" lon="9.292598711326718">
<ele>296.2</ele>
<time>2024-05-09T14:50:41Z</time>
</trkpt>
<trkpt lat="49.54527659341693" lon="9.292601561173797">
<ele>296.2</ele>
<time>2024-05-09T14:50:43Z</time>
</trkpt>
<trkpt lat="49.54527659341693" lon="9.292599633336067">
<ele>296.2</ele>
<time>2024-05-09T14:50:44Z</time>
</trkpt>
<trkpt lat="49.5452728215605" lon="9.292599633336067">
<ele>296.2</ele>
<time>2024-05-09T14:50:45Z</time>
</trkpt>
<trkpt lat="49.5452728215605" lon="9.292596783488989">
<ele>296.2</ele>
<time>2024-05-09T14:50:46Z</time>
</trkpt>
<trkpt lat="49.54526896588504" lon="9.292590077966452">
<ele>296.2</ele>
<time>2024-05-09T14:50:47Z</time>
</trkpt>
<trkpt lat="49.54526896588504" lon="9.292588233947754">
<ele>296.2</ele>
<time>2024-05-09T14:50:48Z</time>
</trkpt>
<trkpt lat="49.54526896588504" lon="9.292583456262946">
<ele>296.2</ele>
<time>2024-05-09T14:50:49Z</time>
</trkpt>
<trkpt lat="49.54526896588504" lon="9.292579600587487">
<ele>296.2</ele>
<time>2024-05-09T14:50:50Z</time>
</trkpt>
<trkpt lat="49.545265194028616" lon="9.29257482290268">
<ele>296.4</ele>
<time>2024-05-09T14:50:51Z</time>
</trkpt>
<trkpt lat="49.545265194028616" lon="9.292568201199174">
<ele>296.4</ele>
<time>2024-05-09T14:50:52Z</time>
</trkpt>
<trkpt lat="49.545265194028616" lon="9.292565267533064">
<ele>296.4</ele>
<time>2024-05-09T14:50:53Z</time>
</trkpt>
<trkpt lat="49.54526896588504" lon="9.292559567838907">
<ele>296.4</ele>
<time>2024-05-09T14:50:54Z</time>
</trkpt>
<trkpt lat="49.54526896588504" lon="9.29255194030702">
<ele>296.4</ele>
<time>2024-05-09T14:50:55Z</time>
</trkpt>
<trkpt lat="49.5452728215605" lon="9.292548168450594">
<ele>296.4</ele>
<time>2024-05-09T14:50:56Z</time>
</trkpt>
<trkpt lat="49.5452728215605" lon="9.292546240612864">
<ele>296.4</ele>
<time>2024-05-09T14:50:57Z</time>
</trkpt>
<trkpt lat="49.54527659341693" lon="9.292536685243247">
<ele>296.4</ele>
<time>2024-05-09T14:50:58Z</time>
</trkpt>
<trkpt lat="49.545284220948815" lon="9.292521430179477">
<ele>296.4</ele>
<time>2024-05-09T14:50:59Z</time>
</trkpt>
<trkpt lat="49.545288076624274" lon="9.292506175115705">
<ele>296.4</ele>
<time>2024-05-09T14:51:00Z</time>
</trkpt>
<trkpt lat="49.54531095921993" lon="9.292480442672968">
<ele>296.4</ele>
<time>2024-05-09T14:51:01Z</time>
</trkpt>
<trkpt lat="49.545326214283705" lon="9.292458482086658">
<ele>296.6</ele>
<time>2024-05-09T14:51:02Z</time>
</trkpt>
<trkpt lat="49.54534146934748" lon="9.292447082698343">
<ele>296.6</ele>
<time>2024-05-09T14:51:03Z</time>
</trkpt>
<trkpt lat="49.545364351943135" lon="9.292429899796844">
<ele>296.6</ele>
<time>2024-05-09T14:51:04Z</time>
</trkpt>
<trkpt lat="49.545383378863335" lon="9.2924165725708">
<ele>296.8</ele>
<time>2024-05-09T14:51:05Z</time>
</trkpt>
<trkpt lat="49.54540626145899" lon="9.29239838384092">
<ele>296.8</ele>
<time>2024-05-09T14:51:06Z</time>
</trkpt>
<trkpt lat="49.54542922787368" lon="9.292383128777146">
<ele>296.6</ele>
<time>2024-05-09T14:51:07Z</time>
</trkpt>
<trkpt lat="49.54545211046934" lon="9.292354546487331">
<ele>296.4</ele>
<time>2024-05-09T14:51:08Z</time>
</trkpt>
<trkpt lat="49.545474993065" lon="9.292329736053944">
<ele>296.2</ele>
<time>2024-05-09T14:51:09Z</time>
</trkpt>
<trkpt lat="49.545501647517085" lon="9.292306853458284">
<ele>296.2</ele>
<time>2024-05-09T14:51:10Z</time>
</trkpt>
<trkpt lat="49.54552453011274" lon="9.292289670556784">
<ele>296</ele>
<time>2024-05-09T14:51:11Z</time>
</trkpt>
<trkpt lat="49.5455474127084" lon="9.292268715798857">
<ele>296</ele>
<time>2024-05-09T14:51:12Z</time>
</trkpt>
<trkpt lat="49.54557029530406" lon="9.292241977527738">
<ele>295.8</ele>
<time>2024-05-09T14:51:13Z</time>
</trkpt>
<trkpt lat="49.54559703357518" lon="9.292216245085">
<ele>295.6</ele>
<time>2024-05-09T14:51:14Z</time>
</trkpt>
<trkpt lat="49.54563139937818" lon="9.292189590632915">
<ele>295.4</ele>
<time>2024-05-09T14:51:15Z</time>
</trkpt>
<trkpt lat="49.545658053830266" lon="9.292148519307377">
<ele>295.2</ele>
<time>2024-05-09T14:51:16Z</time>
</trkpt>
<trkpt lat="49.54568856395781" lon="9.292110381647944">
<ele>295</ele>
<time>2024-05-09T14:51:17Z</time>
</trkpt>
<trkpt lat="49.545719074085355" lon="9.292071321979163">
<ele>294.6</ele>
<time>2024-05-09T14:51:18Z</time>
</trkpt>
<trkpt lat="49.54575343988836" lon="9.29203980602324">
<ele>294.6</ele>
<time>2024-05-09T14:51:19Z</time>
</trkpt>
<trkpt lat="49.545780178159475" lon="9.292008373886349">
<ele>294.4</ele>
<time>2024-05-09T14:51:20Z</time>
</trkpt>
<trkpt lat="49.54581446014345" lon="9.291976857930422">
<ele>294.2</ele>
<time>2024-05-09T14:51:21Z</time>
</trkpt>
<trkpt lat="49.54584497027099" lon="9.29194157011807">
<ele>294</ele>
<time>2024-05-09T14:51:22Z</time>
</trkpt>
<trkpt lat="49.54586408101022" lon="9.291892955079676">
<ele>294</ele>
<time>2024-05-09T14:51:23Z</time>
</trkpt>
<trkpt lat="49.54588696360588" lon="9.291845262050629">
<ele>293.8</ele>
<time>2024-05-09T14:51:24Z</time>
</trkpt>
<trkpt lat="49.545913618057966" lon="9.291793797165155">
<ele>293.6</ele>
<time>2024-05-09T14:51:25Z</time>
</trkpt>
<trkpt lat="49.5459327287972" lon="9.291753731667995">
<ele>293.4</ele>
<time>2024-05-09T14:51:26Z</time>
</trkpt>
<trkpt lat="49.54594035632908" lon="9.291721293702722">
<ele>293.2</ele>
<time>2024-05-09T14:51:27Z</time>
</trkpt>
<trkpt lat="49.54595183953643" lon="9.291694639250636">
<ele>293</ele>
<time>2024-05-09T14:51:28Z</time>
</trkpt>
<trkpt lat="49.54597086645663" lon="9.29168701171875">
<ele>292.8</ele>
<time>2024-05-09T14:51:29Z</time>
</trkpt>
<trkpt lat="49.545978493988514" lon="9.291678378358483">
<ele>292.6</ele>
<time>2024-05-09T14:51:30Z</time>
</trkpt>
<trkpt lat="49.545978493988514" lon="9.291669828817248">
<ele>292.4</ele>
<time>2024-05-09T14:51:31Z</time>
</trkpt>
<trkpt lat="49.54598234966397" lon="9.29166505113244">
<ele>292</ele>
<time>2024-05-09T14:51:32Z</time>
</trkpt>
<trkpt lat="49.54598997719586" lon="9.29166790097952">
<ele>291.8</ele>
<time>2024-05-09T14:51:33Z</time>
</trkpt>
<trkpt lat="49.545997604727745" lon="9.29166790097952">
<ele>291.6</ele>
<time>2024-05-09T14:51:34Z</time>
</trkpt>
<trkpt lat="49.54600137658417" lon="9.291671672835946">
<ele>291.6</ele>
<time>2024-05-09T14:51:35Z</time>
</trkpt>
<trkpt lat="49.54600900411606" lon="9.291681228205562">
<ele>291.4</ele>
<time>2024-05-09T14:51:36Z</time>
</trkpt>
<trkpt lat="49.54600900411606" lon="9.291700338944793">
<ele>291</ele>
<time>2024-05-09T14:51:37Z</time>
</trkpt>
<trkpt lat="49.546016631647944" lon="9.29172799922526">
<ele>291</ele>
<time>2024-05-09T14:51:38Z</time>
</trkpt>
<trkpt lat="49.54601285979152" lon="9.291754653677344">
<ele>290.8</ele>
<time>2024-05-09T14:51:39Z</time>
</trkpt>
<trkpt lat="49.54600900411606" lon="9.291794719174504">
<ele>290.8</ele>
<time>2024-05-09T14:51:40Z</time>
</trkpt>
<trkpt lat="49.545997604727745" lon="9.291839562356472">
<ele>290.6</ele>
<time>2024-05-09T14:51:41Z</time>
</trkpt>
<trkpt lat="49.54598997719586" lon="9.291870072484016">
<ele>290.4</ele>
<time>2024-05-09T14:51:42Z</time>
</trkpt>
<trkpt lat="49.545978493988514" lon="9.291898654773831">
<ele>290.4</ele>
<time>2024-05-09T14:51:43Z</time>
</trkpt>
<trkpt lat="49.54596323892474" lon="9.291928242892029">
<ele>290.2</ele>
<time>2024-05-09T14:51:44Z</time>
</trkpt>
<trkpt lat="49.54595183953643" lon="9.291957831010222">
<ele>289.8</ele>
<time>2024-05-09T14:51:45Z</time>
</trkpt>
<trkpt lat="49.545936584472656" lon="9.291996890679002">
<ele>289.6</ele>
<time>2024-05-09T14:51:46Z</time>
</trkpt>
<trkpt lat="49.54592510126531" lon="9.29203980602324">
<ele>289.4</ele>
<time>2024-05-09T14:51:47Z</time>
</trkpt>
<trkpt lat="49.54590984620154" lon="9.292070316150784">
<ele>289.2</ele>
<time>2024-05-09T14:51:48Z</time>
</trkpt>
<trkpt lat="49.545898362994194" lon="9.292095126584172">
<ele>289</ele>
<time>2024-05-09T14:51:49Z</time>
</trkpt>
<trkpt lat="49.54588310793042" lon="9.29212379269302">
<ele>288.8</ele>
<time>2024-05-09T14:51:50Z</time>
</trkpt>
<trkpt lat="49.54587170854211" lon="9.29215807467699">
<ele>288.6</ele>
<time>2024-05-09T14:51:51Z</time>
</trkpt>
<trkpt lat="49.54586022533476" lon="9.292195290327072">
<ele>288.6</ele>
<time>2024-05-09T14:51:52Z</time>
</trkpt>
<trkpt lat="49.54584882594645" lon="9.29224013350904">
<ele>288.4</ele>
<time>2024-05-09T14:51:53Z</time>
</trkpt>
<trkpt lat="49.54582594335079" lon="9.292282043024898">
<ele>288.4</ele>
<time>2024-05-09T14:51:54Z</time>
</trkpt>
<trkpt lat="49.54579157754779" lon="9.29235831834376">
<ele>288.2</ele>
<time>2024-05-09T14:51:55Z</time>
</trkpt>
<trkpt lat="49.54575343988836" lon="9.292441299185157">
<ele>288</ele>
<time>2024-05-09T14:51:56Z</time>
</trkpt>
<trkpt lat="49.54571144655347" lon="9.292552946135402">
<ele>287.6</ele>
<time>2024-05-09T14:51:57Z</time>
</trkpt>
<trkpt lat="49.54568093642592" lon="9.292656881734729">
<ele>287.2</ele>
<time>2024-05-09T14:51:58Z</time>
</trkpt>
<trkpt lat="49.54564665444195" lon="9.29275126196444">
<ele>286.8</ele>
<time>2024-05-09T14:51:59Z</time>
</trkpt>
<trkpt lat="49.545619916170835" lon="9.292842792347074">
<ele>286.4</ele>
<time>2024-05-09T14:52:00Z</time>
</trkpt>
<trkpt lat="49.54559326171875" lon="9.292926779016852">
<ele>286</ele>
<time>2024-05-09T14:52:01Z</time>
</trkpt>
<trkpt lat="49.54556652344763" lon="9.293004982173445">
<ele>285.8</ele>
<time>2024-05-09T14:52:02Z</time>
</trkpt>
<trkpt lat="49.54553978517651" lon="9.293076479807496">
<ele>285.6</ele>
<time>2024-05-09T14:52:03Z</time>
</trkpt>
<trkpt lat="49.54552075825632" lon="9.293143199756742">
<ele>285.4</ele>
<time>2024-05-09T14:52:04Z</time>
</trkpt>
<trkpt lat="49.54549787566066" lon="9.29320614784956">
<ele>285.4</ele>
<time>2024-05-09T14:52:05Z</time>
</trkpt>
<trkpt lat="49.545474993065" lon="9.29326339624822">
<ele>285.2</ele>
<time>2024-05-09T14:52:06Z</time>
</trkpt>
<trkpt lat="49.54545588232577" lon="9.293319638818502">
<ele>285.2</ele>
<time>2024-05-09T14:52:07Z</time>
</trkpt>
<trkpt lat="49.54543685540557" lon="9.293377809226511">
<ele>285</ele>
<time>2024-05-09T14:52:08Z</time>
</trkpt>
<trkpt lat="49.5454216003418" lon="9.293441763147712">
<ele>285</ele>
<time>2024-05-09T14:52:09Z</time>
</trkpt>
<trkpt lat="49.54541011713445" lon="9.29350177757442">
<ele>285</ele>
<time>2024-05-09T14:52:10Z</time>
</trkpt>
<trkpt lat="49.54539486207068" lon="9.29356288164854">
<ele>285</ele>
<time>2024-05-09T14:52:11Z</time>
</trkpt>
<trkpt lat="49.545383378863335" lon="9.293633457273245">
<ele>285</ele>
<time>2024-05-09T14:52:12Z</time>
</trkpt>
<trkpt lat="49.54536812379956" lon="9.293696321547031">
<ele>285</ele>
<time>2024-05-09T14:52:13Z</time>
</trkpt>
<trkpt lat="49.54535672441125" lon="9.29376027546823">
<ele>285.2</ele>
<time>2024-05-09T14:52:14Z</time>
</trkpt>
<trkpt lat="49.54534146934748" lon="9.29382037371397">
<ele>285.2</ele>
<time>2024-05-09T14:52:15Z</time>
</trkpt>
<trkpt lat="49.54532998614013" lon="9.293880388140678">
<ele>285.2</ele>
<time>2024-05-09T14:52:16Z</time>
</trkpt>
<trkpt lat="49.54531858675182" lon="9.29393956437707">
<ele>285.4</ele>
<time>2024-05-09T14:52:17Z</time>
</trkpt>
<trkpt lat="49.545307103544474" lon="9.293998656794429">
<ele>285.4</ele>
<time>2024-05-09T14:52:18Z</time>
</trkpt>
<trkpt lat="49.5452918484807" lon="9.29405783303082">
<ele>285.4</ele>
<time>2024-05-09T14:52:19Z</time>
</trkpt>
<trkpt lat="49.54528044909239" lon="9.294117847457528">
<ele>285.4</ele>
<time>2024-05-09T14:52:20Z</time>
</trkpt>
<trkpt lat="49.545265194028616" lon="9.294181801378729">
<ele>285.6</ele>
<time>2024-05-09T14:52:21Z</time>
</trkpt>
<trkpt lat="49.54524993896485" lon="9.294242821633816">
<ele>285.6</ele>
<time>2024-05-09T14:52:22Z</time>
</trkpt>
<trkpt lat="49.5452384557575" lon="9.294304847717283">
<ele>285.8</ele>
<time>2024-05-09T14:52:23Z</time>
</trkpt>
<trkpt lat="49.54523082822561" lon="9.294364862143992">
<ele>285.8</ele>
<time>2024-05-09T14:52:24Z</time>
</trkpt>
<trkpt lat="49.54521934501827" lon="9.294423032552004">
<ele>285.8</ele>
<time>2024-05-09T14:52:25Z</time>
</trkpt>
<trkpt lat="49.54521171748638" lon="9.294480280950664">
<ele>285.8</ele>
<time>2024-05-09T14:52:26Z</time>
</trkpt>
<trkpt lat="49.54520031809807" lon="9.294538451358676">
<ele>285.8</ele>
<time>2024-05-09T14:52:27Z</time>
</trkpt>
<trkpt lat="49.54519269056618" lon="9.294599471613765">
<ele>285.8</ele>
<time>2024-05-09T14:52:28Z</time>
</trkpt>
<trkpt lat="49.545185063034296" lon="9.294661497697234">
<ele>285.6</ele>
<time>2024-05-09T14:52:29Z</time>
</trkpt>
<trkpt lat="49.54517357982695" lon="9.294723439961672">
<ele>285.4</ele>
<time>2024-05-09T14:52:30Z</time>
</trkpt>
<trkpt lat="49.545165952295065" lon="9.294783538207412">
<ele>285.4</ele>
<time>2024-05-09T14:52:31Z</time>
</trkpt>
<trkpt lat="49.54515832476318" lon="9.2948445584625">
<ele>285.2</ele>
<time>2024-05-09T14:52:32Z</time>
</trkpt>
<trkpt lat="49.54515069723129" lon="9.29490658454597">
<ele>285.2</ele>
<time>2024-05-09T14:52:33Z</time>
</trkpt>
<trkpt lat="49.54514306969941" lon="9.294968526810408">
<ele>285.2</ele>
<time>2024-05-09T14:52:34Z</time>
</trkpt>
<trkpt lat="49.54513544216752" lon="9.295026697218418">
<ele>285.2</ele>
<time>2024-05-09T14:52:35Z</time>
</trkpt>
<trkpt lat="49.545127814635634" lon="9.295086795464158">
<ele>285.2</ele>
<time>2024-05-09T14:52:36Z</time>
</trkpt>
<trkpt lat="49.54511641524732" lon="9.295146893709898">
<ele>285.4</ele>
<time>2024-05-09T14:52:37Z</time>
</trkpt>
<trkpt lat="49.545104932039976" lon="9.295206991955638">
<ele>285.4</ele>
<time>2024-05-09T14:52:38Z</time>
</trkpt>
<trkpt lat="49.54509353265166" lon="9.295267090201378">
<ele>285.4</ele>
<time>2024-05-09T14:52:39Z</time>
</trkpt>
<trkpt lat="49.54507827758789" lon="9.295325260609388">
<ele>285.4</ele>
<time>2024-05-09T14:52:40Z</time>
</trkpt>
<trkpt lat="49.545066794380546" lon="9.295385358855128">
<ele>285.2</ele>
<time>2024-05-09T14:52:41Z</time>
</trkpt>
<trkpt lat="49.54505153931677" lon="9.29544160142541">
<ele>285.2</ele>
<time>2024-05-09T14:52:42Z</time>
</trkpt>
<trkpt lat="49.545036284253" lon="9.29549692198634">
<ele>285.2</ele>
<time>2024-05-09T14:52:43Z</time>
</trkpt>
<trkpt lat="49.54502102918923" lon="9.295550314709544">
<ele>285</ele>
<time>2024-05-09T14:52:44Z</time>
</trkpt>
<trkpt lat="49.54500191845" lon="9.29559993557632">
<ele>285</ele>
<time>2024-05-09T14:52:45Z</time>
</trkpt>
<trkpt lat="49.544986663386226" lon="9.295648550614716">
<ele>285</ele>
<time>2024-05-09T14:52:46Z</time>
</trkpt>
<trkpt lat="49.544967636466026" lon="9.295698087662458">
<ele>284.8</ele>
<time>2024-05-09T14:52:47Z</time>
</trkpt>
<trkpt lat="49.544948525726795" lon="9.295746786519883">
<ele>285</ele>
<time>2024-05-09T14:52:48Z</time>
</trkpt>
<trkpt lat="49.54493327066302" lon="9.295796323567629">
<ele>285</ele>
<time>2024-05-09T14:52:49Z</time>
</trkpt>
<trkpt lat="49.544914243742824" lon="9.295846866443751">
<ele>285</ele>
<time>2024-05-09T14:52:50Z</time>
</trkpt>
<trkpt lat="49.54489513300359" lon="9.295896487310529">
<ele>285</ele>
<time>2024-05-09T14:52:51Z</time>
</trkpt>
<trkpt lat="49.54487602226436" lon="9.295947952196002">
<ele>285</ele>
<time>2024-05-09T14:52:52Z</time>
</trkpt>
<trkpt lat="49.54485699534416" lon="9.295996651053429">
<ele>285.2</ele>
<time>2024-05-09T14:52:53Z</time>
</trkpt>
<trkpt lat="49.544834112748504" lon="9.296045266091824">
<ele>285.2</ele>
<time>2024-05-09T14:52:54Z</time>
</trkpt>
<trkpt lat="49.54481500200927" lon="9.296090109273791">
<ele>285.4</ele>
<time>2024-05-09T14:52:55Z</time>
</trkpt>
<trkpt lat="49.544792119413614" lon="9.296134868636727">
<ele>285.6</ele>
<time>2024-05-09T14:52:56Z</time>
</trkpt>
<trkpt lat="49.544773092493415" lon="9.296181639656425">
<ele>285.8</ele>
<time>2024-05-09T14:52:57Z</time>
</trkpt>
<trkpt lat="49.5447463542223" lon="9.296224555000665">
<ele>286</ele>
<time>2024-05-09T14:52:58Z</time>
</trkpt>
<trkpt lat="49.54472347162664" lon="9.29627032019198">
<ele>286.2</ele>
<time>2024-05-09T14:52:59Z</time>
</trkpt>
<trkpt lat="49.54469673335552" lon="9.296317091211677">
<ele>286.4</ele>
<time>2024-05-09T14:53:00Z</time>
</trkpt>
<trkpt lat="49.54467007890344" lon="9.296362856402991">
<ele>286.6</ele>
<time>2024-05-09T14:53:01Z</time>
</trkpt>
<trkpt lat="49.54464334063232" lon="9.29640862159431">
<ele>286.8</ele>
<time>2024-05-09T14:53:02Z</time>
</trkpt>
<trkpt lat="49.544612830504775" lon="9.296453464776278">
<ele>287</ele>
<time>2024-05-09T14:53:03Z</time>
</trkpt>
<trkpt lat="49.54458617605269" lon="9.296496380120516">
<ele>287.2</ele>
<time>2024-05-09T14:53:04Z</time>
</trkpt>
<trkpt lat="49.54455558210611" lon="9.296536445617676">
<ele>287.6</ele>
<time>2024-05-09T14:53:05Z</time>
</trkpt>
<trkpt lat="49.544532699510455" lon="9.296574583277106">
<ele>288</ele>
<time>2024-05-09T14:53:06Z</time>
</trkpt>
<trkpt lat="49.54450604505837" lon="9.296613642945886">
<ele>288.2</ele>
<time>2024-05-09T14:53:07Z</time>
</trkpt>
<trkpt lat="49.54448316246271" lon="9.296654630452394">
<ele>288.6</ele>
<time>2024-05-09T14:53:08Z</time>
</trkpt>
<trkpt lat="49.54445265233517" lon="9.296694695949554">
<ele>288.8</ele>
<time>2024-05-09T14:53:09Z</time>
</trkpt>
<trkpt lat="49.54442591406405" lon="9.296736689284444">
<ele>289</ele>
<time>2024-05-09T14:53:10Z</time>
</trkpt>
<trkpt lat="49.54440303146839" lon="9.296781532466412">
<ele>289.4</ele>
<time>2024-05-09T14:53:11Z</time>
</trkpt>
<trkpt lat="49.544376293197274" lon="9.296828219667075">
<ele>289.4</ele>
<time>2024-05-09T14:53:12Z</time>
</trkpt>
<trkpt lat="49.54434963874519" lon="9.296873062849045">
<ele>289.8</ele>
<time>2024-05-09T14:53:13Z</time>
</trkpt>
<trkpt lat="49.54432290047407" lon="9.29691975004971">
<ele>290</ele>
<time>2024-05-09T14:53:14Z</time>
</trkpt>
<trkpt lat="49.544296246021986" lon="9.296966521069407">
<ele>290.2</ele>
<time>2024-05-09T14:53:15Z</time>
</trkpt>
<trkpt lat="49.54426950775087" lon="9.297015136107802">
<ele>290.4</ele>
<time>2024-05-09T14:53:16Z</time>
</trkpt>
<trkpt lat="49.54424285329878" lon="9.29705997928977">
<ele>290.6</ele>
<time>2024-05-09T14:53:17Z</time>
</trkpt>
<trkpt lat="49.544216115027666" lon="9.29710197262466">
<ele>290.8</ele>
<time>2024-05-09T14:53:18Z</time>
</trkpt>
<trkpt lat="49.54418937675655" lon="9.297146731987596">
<ele>291</ele>
<time>2024-05-09T14:53:19Z</time>
</trkpt>
<trkpt lat="49.54416272230446" lon="9.297189647331834">
<ele>291</ele>
<time>2024-05-09T14:53:20Z</time>
</trkpt>
<trkpt lat="49.544135984033346" lon="9.297229712828994">
<ele>291.2</ele>
<time>2024-05-09T14:53:21Z</time>
</trkpt>
<trkpt lat="49.54411310143769" lon="9.297274556010962">
<ele>291.6</ele>
<time>2024-05-09T14:53:22Z</time>
</trkpt>
<trkpt lat="49.5440864469856" lon="9.297318393364549">
<ele>291.8</ele>
<time>2024-05-09T14:53:23Z</time>
</trkpt>
<trkpt lat="49.544059708714485" lon="9.297363236546516">
<ele>292</ele>
<time>2024-05-09T14:53:24Z</time>
</trkpt>
<trkpt lat="49.54403297044337" lon="9.297403302043676">
<ele>292.4</ele>
<time>2024-05-09T14:53:25Z</time>
</trkpt>
<trkpt lat="49.54400631599128" lon="9.297448145225644">
<ele>292.4</ele>
<time>2024-05-09T14:53:26Z</time>
</trkpt>
<trkpt lat="49.543979577720165" lon="9.297491982579231">
<ele>292.6</ele>
<time>2024-05-09T14:53:27Z</time>
</trkpt>
<trkpt lat="49.54395292326808" lon="9.29753489792347">
<ele>292.8</ele>
<time>2024-05-09T14:53:28Z</time>
</trkpt>
<trkpt lat="49.54392618499696" lon="9.29757689125836">
<ele>293</ele>
<time>2024-05-09T14:53:29Z</time>
</trkpt>
<trkpt lat="49.54389953054488" lon="9.297617878764868">
<ele>293.2</ele>
<time>2024-05-09T14:53:30Z</time>
</trkpt>
<trkpt lat="49.54387664794922" lon="9.297661716118457">
<ele>293.2</ele>
<time>2024-05-09T14:53:31Z</time>
</trkpt>
<trkpt lat="49.5438499096781" lon="9.297704631462691">
<ele>293.2</ele>
<time>2024-05-09T14:53:32Z</time>
</trkpt>
<trkpt lat="49.543823171406984" lon="9.297748552635312">
<ele>293.4</ele>
<time>2024-05-09T14:53:33Z</time>
</trkpt>
<trkpt lat="49.5437965169549" lon="9.297793311998248">
<ele>293.4</ele>
<time>2024-05-09T14:53:34Z</time>
</trkpt>
<trkpt lat="49.54377363435924" lon="9.297836227342486">
<ele>293.6</ele>
<time>2024-05-09T14:53:35Z</time>
</trkpt>
<trkpt lat="49.54374689608812" lon="9.297880148515103">
<ele>293.8</ele>
<time>2024-05-09T14:53:36Z</time>
</trkpt>
<trkpt lat="49.543724013492465" lon="9.297924991697071">
<ele>294</ele>
<time>2024-05-09T14:53:37Z</time>
</trkpt>
<trkpt lat="49.54370113089681" lon="9.297969751060007">
<ele>294.2</ele>
<time>2024-05-09T14:53:38Z</time>
</trkpt>
<trkpt lat="49.54367824830115" lon="9.298014594241977">
<ele>294.4</ele>
<time>2024-05-09T14:53:39Z</time>
</trkpt>
<trkpt lat="49.54365151003003" lon="9.298063209280372">
<ele>294.6</ele>
<time>2024-05-09T14:53:40Z</time>
</trkpt>
<trkpt lat="49.54362862743437" lon="9.298109980300069">
<ele>294.8</ele>
<time>2024-05-09T14:53:41Z</time>
</trkpt>
<trkpt lat="49.543605744838715" lon="9.298154823482037">
<ele>295</ele>
<time>2024-05-09T14:53:42Z</time>
</trkpt>
<trkpt lat="49.54357909038663" lon="9.298198660835624">
<ele>295</ele>
<time>2024-05-09T14:53:43Z</time>
</trkpt>
<trkpt lat="49.54355620779097" lon="9.298239648342133">
<ele>295.2</ele>
<time>2024-05-09T14:53:44Z</time>
</trkpt>
<trkpt lat="49.543529469519854" lon="9.298283569514751">
<ele>295.2</ele>
<time>2024-05-09T14:53:45Z</time>
</trkpt>
<trkpt lat="49.543506586924195" lon="9.29832455702126">
<ele>295.2</ele>
<time>2024-05-09T14:53:46Z</time>
</trkpt>
<trkpt lat="49.54347984865308" lon="9.29836361669004">
<ele>295.2</ele>
<time>2024-05-09T14:53:47Z</time>
</trkpt>
<trkpt lat="49.54345319420099" lon="9.29840175434947">
<ele>295.2</ele>
<time>2024-05-09T14:53:48Z</time>
</trkpt>
<trkpt lat="49.54342268407345" lon="9.29844181984663">
<ele>295.2</ele>
<time>2024-05-09T14:53:49Z</time>
</trkpt>
<trkpt lat="49.54339594580233" lon="9.298478113487365">
<ele>295.4</ele>
<time>2024-05-09T14:53:50Z</time>
</trkpt>
<trkpt lat="49.54336543567479" lon="9.298516251146792">
<ele>295.4</ele>
<time>2024-05-09T14:53:51Z</time>
</trkpt>
<trkpt lat="49.54333869740367" lon="9.298553466796877">
<ele>295.4</ele>
<time>2024-05-09T14:53:52Z</time>
</trkpt>
<trkpt lat="49.543312042951584" lon="9.298591604456306">
<ele>295.4</ele>
<time>2024-05-09T14:53:53Z</time>
</trkpt>
<trkpt lat="49.54328530468047" lon="9.298627814278008">
<ele>295.4</ele>
<time>2024-05-09T14:53:54Z</time>
</trkpt>
<trkpt lat="49.54325865022838" lon="9.298666873946786">
<ele>295.4</ele>
<time>2024-05-09T14:53:55Z</time>
</trkpt>
<trkpt lat="49.54322814010084" lon="9.29870123974979">
<ele>295.6</ele>
<time>2024-05-09T14:53:56Z</time>
</trkpt>
<trkpt lat="49.54320140182972" lon="9.29873845539987">
<ele>295.6</ele>
<time>2024-05-09T14:53:57Z</time>
</trkpt>
<trkpt lat="49.543170891702175" lon="9.298780364915729">
<ele>295.8</ele>
<time>2024-05-09T14:53:58Z</time>
</trkpt>
<trkpt lat="49.54314038157463" lon="9.298821436241267">
<ele>295.8</ele>
<time>2024-05-09T14:53:59Z</time>
</trkpt>
<trkpt lat="49.543109871447086" lon="9.298863345757129">
<ele>296</ele>
<time>2024-05-09T14:54:00Z</time>
</trkpt>
<trkpt lat="49.54307550564408" lon="9.298906261101363">
<ele>296.2</ele>
<time>2024-05-09T14:54:01Z</time>
</trkpt>
<trkpt lat="49.54304499551654" lon="9.298952026292682">
<ele>296.4</ele>
<time>2024-05-09T14:54:02Z</time>
</trkpt>
<trkpt lat="49.54301834106445" lon="9.298993097618222">
<ele>296.4</ele>
<time>2024-05-09T14:54:03Z</time>
</trkpt>
<trkpt lat="49.54298774711788" lon="9.29903693497181">
<ele>296.6</ele>
<time>2024-05-09T14:54:04Z</time>
</trkpt>
<trkpt lat="49.54295723699033" lon="9.299077922478318">
<ele>296.6</ele>
<time>2024-05-09T14:54:05Z</time>
</trkpt>
<trkpt lat="49.54292672686279" lon="9.299117987975478">
<ele>296.8</ele>
<time>2024-05-09T14:54:06Z</time>
</trkpt>
<trkpt lat="49.54289621673525" lon="9.299158053472638">
<ele>296.8</ele>
<time>2024-05-09T14:54:07Z</time>
</trkpt>
<trkpt lat="49.54286956228316" lon="9.299196191132069">
<ele>296.8</ele>
<time>2024-05-09T14:54:08Z</time>
</trkpt>
<trkpt lat="49.54283896833658" lon="9.29923533461988">
<ele>296.8</ele>
<time>2024-05-09T14:54:09Z</time>
</trkpt>
<trkpt lat="49.54280845820904" lon="9.29927154444158">
<ele>296.8</ele>
<time>2024-05-09T14:54:10Z</time>
</trkpt>
<trkpt lat="49.54278180375695" lon="9.299309682101011">
<ele>297</ele>
<time>2024-05-09T14:54:11Z</time>
</trkpt>
<trkpt lat="49.54274743795395" lon="9.299346897751091">
<ele>297</ele>
<time>2024-05-09T14:54:12Z</time>
</trkpt>
<trkpt lat="49.542716927826405" lon="9.299385035410523">
<ele>297</ele>
<time>2024-05-09T14:54:13Z</time>
</trkpt>
<trkpt lat="49.54268641769886" lon="9.299427028745413">
<ele>297</ele>
<time>2024-05-09T14:54:14Z</time>
</trkpt>
<trkpt lat="49.54265205189586" lon="9.299469944089653">
<ele>297</ele>
<time>2024-05-09T14:54:15Z</time>
</trkpt>
<trkpt lat="49.54262154176831" lon="9.29950992576778">
<ele>297</ele>
<time>2024-05-09T14:54:16Z</time>
</trkpt>
<trkpt lat="49.54259488731623" lon="9.299551919102669">
<ele>296.8</ele>
<time>2024-05-09T14:54:17Z</time>
</trkpt>
<trkpt lat="49.54256814904511" lon="9.299592906609178">
<ele>297</ele>
<time>2024-05-09T14:54:18Z</time>
</trkpt>
<trkpt lat="49.542541494593024" lon="9.299638671800494">
<ele>297</ele>
<time>2024-05-09T14:54:19Z</time>
</trkpt>
<trkpt lat="49.54251098446548" lon="9.299681587144732">
<ele>297.2</ele>
<time>2024-05-09T14:54:20Z</time>
</trkpt>
<trkpt lat="49.54248424619436" lon="9.299723580479622">
<ele>297.4</ele>
<time>2024-05-09T14:54:21Z</time>
</trkpt>
<trkpt lat="49.54245373606682" lon="9.29976456798613">
<ele>297.6</ele>
<time>2024-05-09T14:54:22Z</time>
</trkpt>
<trkpt lat="49.542423225939274" lon="9.299810333177447">
<ele>297.6</ele>
<time>2024-05-09T14:54:23Z</time>
</trkpt>
<trkpt lat="49.54239648766816" lon="9.299851404502988">
<ele>297.8</ele>
<time>2024-05-09T14:54:24Z</time>
</trkpt>
<trkpt lat="49.54236597754061" lon="9.299896163865924">
<ele>298</ele>
<time>2024-05-09T14:54:25Z</time>
</trkpt>
<trkpt lat="49.54233546741307" lon="9.29994293488562">
<ele>298</ele>
<time>2024-05-09T14:54:26Z</time>
</trkpt>
<trkpt lat="49.54230495728552" lon="9.299988700076938">
<ele>298.2</ele>
<time>2024-05-09T14:54:27Z</time>
</trkpt>
<trkpt lat="49.542278219014406" lon="9.300031615421176">
<ele>298.2</ele>
<time>2024-05-09T14:54:28Z</time>
</trkpt>
<trkpt lat="49.542243937030435" lon="9.300074530765414">
<ele>298.2</ele>
<time>2024-05-09T14:54:29Z</time>
</trkpt>
<trkpt lat="49.54220579937101" lon="9.300116524100304">
<ele>298.2</ele>
<time>2024-05-09T14:54:30Z</time>
</trkpt>
<trkpt lat="49.542163806036115" lon="9.300149884074926">
<ele>298.2</ele>
<time>2024-05-09T14:54:31Z</time>
</trkpt>
<trkpt lat="49.542121812701225" lon="9.30018131621182">
<ele>298.2</ele>
<time>2024-05-09T14:54:32Z</time>
</trkpt>
<trkpt lat="49.54207604750991" lon="9.300211826339364">
<ele>298.2</ele>
<time>2024-05-09T14:54:33Z</time>
</trkpt>
<trkpt lat="49.542026510462165" lon="9.30023948661983">
<ele>298</ele>
<time>2024-05-09T14:54:34Z</time>
</trkpt>
<trkpt lat="49.54197688959539" lon="9.300272930413485">
<ele>298</ele>
<time>2024-05-09T14:54:35Z</time>
</trkpt>
<trkpt lat="49.541927268728614" lon="9.30029958486557">
<ele>297.8</ele>
<time>2024-05-09T14:54:36Z</time>
</trkpt>
<trkpt lat="49.54187387600541" lon="9.300325317308308">
<ele>297.4</ele>
<time>2024-05-09T14:54:37Z</time>
</trkpt>
<trkpt lat="49.54181285575032" lon="9.300352055579424">
<ele>297.2</ele>
<time>2024-05-09T14:54:38Z</time>
</trkpt>
<trkpt lat="49.54175183549523" lon="9.300376866012812">
<ele>296.8</ele>
<time>2024-05-09T14:54:39Z</time>
</trkpt>
<trkpt lat="49.541686959564686" lon="9.30039974860847">
<ele>296.4</ele>
<time>2024-05-09T14:54:40Z</time>
</trkpt>
<trkpt lat="49.5416259393096" lon="9.30042170919478">
<ele>296</ele>
<time>2024-05-09T14:54:41Z</time>
</trkpt>
<trkpt lat="49.54156106337905" lon="9.30044174194336">
<ele>295.6</ele>
<time>2024-05-09T14:54:42Z</time>
</trkpt>
<trkpt lat="49.541492415592074" lon="9.30045984685421">
<ele>295.2</ele>
<time>2024-05-09T14:54:43Z</time>
</trkpt>
<trkpt lat="49.54142753966153" lon="9.30047795176506">
<ele>294.8</ele>
<time>2024-05-09T14:54:44Z</time>
</trkpt>
<trkpt lat="49.54135889187455" lon="9.30049697868526">
<ele>294.4</ele>
<time>2024-05-09T14:54:45Z</time>
</trkpt>
<trkpt lat="49.541294015944" lon="9.300519861280918">
<ele>294.4</ele>
<time>2024-05-09T14:54:46Z</time>
</trkpt>
<trkpt lat="49.541232995688915" lon="9.300543749704955">
<ele>294.4</ele>
<time>2024-05-09T14:54:47Z</time>
</trkpt>
<trkpt lat="49.5411682035774" lon="9.300566632300615">
<ele>294.2</ele>
<time>2024-05-09T14:54:48Z</time>
</trkpt>
<trkpt lat="49.54111095517874" lon="9.300588592886925">
<ele>294</ele>
<time>2024-05-09T14:54:49Z</time>
</trkpt>
<trkpt lat="49.54105370678008" lon="9.300611475482585">
<ele>293.8</ele>
<time>2024-05-09T14:54:50Z</time>
</trkpt>
<trkpt lat="49.54100031405687" lon="9.30063335224986">
<ele>293.6</ele>
<time>2024-05-09T14:54:51Z</time>
</trkpt>
<trkpt lat="49.5409506931901" lon="9.300642907619476">
<ele>293.6</ele>
<time>2024-05-09T14:54:52Z</time>
</trkpt>
<trkpt lat="49.540897300466895" lon="9.300651540979745">
<ele>293.4</ele>
<time>2024-05-09T14:54:53Z</time>
</trkpt>
<trkpt lat="49.54084776341915" lon="9.300660090520978">
<ele>293.4</ele>
<time>2024-05-09T14:54:54Z</time>
</trkpt>
<trkpt lat="49.540801998227835" lon="9.300666796043515">
<ele>293.2</ele>
<time>2024-05-09T14:54:55Z</time>
</trkpt>
<trkpt lat="49.540760004892945" lon="9.30067341774702">
<ele>293</ele>
<time>2024-05-09T14:54:56Z</time>
</trkpt>
<trkpt lat="49.54071423970163" lon="9.3006762675941">
<ele>293</ele>
<time>2024-05-09T14:54:57Z</time>
</trkpt>
<trkpt lat="49.54066847451031" lon="9.300680123269558">
<ele>293</ele>
<time>2024-05-09T14:54:58Z</time>
</trkpt>
<trkpt lat="49.540622709318995" lon="9.300678195431828">
<ele>292.8</ele>
<time>2024-05-09T14:54:59Z</time>
</trkpt>
<trkpt lat="49.54057686030865" lon="9.300678195431828">
<ele>292.8</ele>
<time>2024-05-09T14:55:00Z</time>
</trkpt>
<trkpt lat="49.54053495079279" lon="9.300682051107287">
<ele>292.6</ele>
<time>2024-05-09T14:55:01Z</time>
</trkpt>
<trkpt lat="49.5404929574579" lon="9.300682973116636">
<ele>292.4</ele>
<time>2024-05-09T14:55:02Z</time>
</trkpt>
<trkpt lat="49.54045104794204" lon="9.300682973116636">
<ele>292.2</ele>
<time>2024-05-09T14:55:03Z</time>
</trkpt>
<trkpt lat="49.54040905460715" lon="9.300686828792095">
<ele>292.4</ele>
<time>2024-05-09T14:55:04Z</time>
</trkpt>
<trkpt lat="49.54037091694772" lon="9.300691522657871">
<ele>292.2</ele>
<time>2024-05-09T14:55:05Z</time>
</trkpt>
<trkpt lat="49.54033277928829" lon="9.30069630034268">
<ele>292.2</ele>
<time>2024-05-09T14:55:06Z</time>
</trkpt>
<trkpt lat="49.54029464162886" lon="9.300702083855867">
<ele>292.2</ele>
<time>2024-05-09T14:55:07Z</time>
</trkpt>
<trkpt lat="49.5402564201504" lon="9.300706861540675">
<ele>292.2</ele>
<time>2024-05-09T14:55:08Z</time>
</trkpt>
<trkpt lat="49.54021828249097" lon="9.300708705559371">
<ele>292.2</ele>
<time>2024-05-09T14:55:09Z</time>
</trkpt>
<trkpt lat="49.54017637297511" lon="9.30071348324418">
<ele>292.4</ele>
<time>2024-05-09T14:55:10Z</time>
</trkpt>
<trkpt lat="49.54013437964022" lon="9.300718260928988">
<ele>292.4</ele>
<time>2024-05-09T14:55:11Z</time>
</trkpt>
<trkpt lat="49.540088614448905" lon="9.300723038613796">
<ele>292.6</ele>
<time>2024-05-09T14:55:12Z</time>
</trkpt>
<trkpt lat="49.54004284925759" lon="9.300726810470223">
<ele>292.8</ele>
<time>2024-05-09T14:55:13Z</time>
</trkpt>
<trkpt lat="49.53999322839081" lon="9.300731588155031">
<ele>292.8</ele>
<time>2024-05-09T14:55:14Z</time>
</trkpt>
<trkpt lat="49.539951318874955" lon="9.300738293677568">
<ele>292.8</ele>
<time>2024-05-09T14:55:15Z</time>
</trkpt>
<trkpt lat="49.53990546986461" lon="9.300740221515298">
<ele>292.8</ele>
<time>2024-05-09T14:55:16Z</time>
</trkpt>
<trkpt lat="49.53986356034875" lon="9.300740221515298">
<ele>293</ele>
<time>2024-05-09T14:55:17Z</time>
</trkpt>
<trkpt lat="49.53982542268932" lon="9.30073544383049">
<ele>293</ele>
<time>2024-05-09T14:55:18Z</time>
</trkpt>
<trkpt lat="49.53978728502989" lon="9.300729744136332">
<ele>293</ele>
<time>2024-05-09T14:55:19Z</time>
</trkpt>
<trkpt lat="49.53974143601954" lon="9.300729744136332">
<ele>293</ele>
<time>2024-05-09T14:55:20Z</time>
</trkpt>
<trkpt lat="49.53969189897179" lon="9.300731588155031">
<ele>293</ele>
<time>2024-05-09T14:55:21Z</time>
</trkpt>
<trkpt lat="49.53964227810502" lon="9.300724966451526">
<ele>293</ele>
<time>2024-05-09T14:55:22Z</time>
</trkpt>
<trkpt lat="49.53958888538182" lon="9.300718260928988">
<ele>293</ele>
<time>2024-05-09T14:55:23Z</time>
</trkpt>
<trkpt lat="49.53953926451504" lon="9.300720188766718">
<ele>293</ele>
<time>2024-05-09T14:55:24Z</time>
</trkpt>
<trkpt lat="49.53948587179184" lon="9.300722116604447">
<ele>293</ele>
<time>2024-05-09T14:55:25Z</time>
</trkpt>
<trkpt lat="49.53942870721221" lon="9.300731588155031">
<ele>293</ele>
<time>2024-05-09T14:55:26Z</time>
</trkpt>
<trkpt lat="49.539375230669975" lon="9.300751620903611">
<ele>293</ele>
<time>2024-05-09T14:55:27Z</time>
</trkpt>
<trkpt lat="49.53932183794677" lon="9.300771653652191">
<ele>293.2</ele>
<time>2024-05-09T14:55:28Z</time>
</trkpt>
<trkpt lat="49.53927230089903" lon="9.300791686400771">
<ele>293.4</ele>
<time>2024-05-09T14:55:29Z</time>
</trkpt>
<trkpt lat="49.53922645188868" lon="9.30081649683416">
<ele>293.6</ele>
<time>2024-05-09T14:55:30Z</time>
</trkpt>
<trkpt lat="49.53917691484094" lon="9.300841307267548">
<ele>294</ele>
<time>2024-05-09T14:55:31Z</time>
</trkpt>
<trkpt lat="49.53913114964962" lon="9.300867039710283">
<ele>294.4</ele>
<time>2024-05-09T14:55:32Z</time>
</trkpt>
<trkpt lat="49.53908915631473" lon="9.30089469999075">
<ele>294.8</ele>
<time>2024-05-09T14:55:33Z</time>
</trkpt>
<trkpt lat="49.5390510186553" lon="9.300920432433486">
<ele>295.2</ele>
<time>2024-05-09T14:55:34Z</time>
</trkpt>
<trkpt lat="49.53901288099587" lon="9.300943315029144">
<ele>295.6</ele>
<time>2024-05-09T14:55:35Z</time>
</trkpt>
<trkpt lat="49.53897474333644" lon="9.300965275615454">
<ele>295.8</ele>
<time>2024-05-09T14:55:36Z</time>
</trkpt>
<trkpt lat="49.53893660567701" lon="9.300983380526304">
<ele>296.2</ele>
<time>2024-05-09T14:55:37Z</time>
</trkpt>
<trkpt lat="49.538902239874005" lon="9.301001485437157">
<ele>296.6</ele>
<time>2024-05-09T14:55:38Z</time>
</trkpt>
<trkpt lat="49.53887172974646" lon="9.301021518185737">
<ele>297</ele>
<time>2024-05-09T14:55:39Z</time>
</trkpt>
<trkpt lat="49.53883736394346" lon="9.301043478772044">
<ele>297.4</ele>
<time>2024-05-09T14:55:40Z</time>
</trkpt>
<trkpt lat="49.538803081959486" lon="9.301066361367702">
<ele>297.6</ele>
<time>2024-05-09T14:55:41Z</time>
</trkpt>
<trkpt lat="49.53876871615648" lon="9.30109016597271">
<ele>298</ele>
<time>2024-05-09T14:55:42Z</time>
</trkpt>
<trkpt lat="49.53873057849705" lon="9.30111019872129">
<ele>298.2</ele>
<time>2024-05-09T14:55:43Z</time>
</trkpt>
<trkpt lat="49.53869244083762" lon="9.301135009154676">
<ele>298.4</ele>
<time>2024-05-09T14:55:44Z</time>
</trkpt>
<trkpt lat="49.53865430317819" lon="9.301159819588063">
<ele>298.6</ele>
<time>2024-05-09T14:55:45Z</time>
</trkpt>
<trkpt lat="49.53861616551876" lon="9.301184630021451">
<ele>298.8</ele>
<time>2024-05-09T14:55:46Z</time>
</trkpt>
<trkpt lat="49.53857802785933" lon="9.30120650678873">
<ele>298.8</ele>
<time>2024-05-09T14:55:47Z</time>
</trkpt>
<trkpt lat="49.53854366205633" lon="9.301231317222118">
<ele>299</ele>
<time>2024-05-09T14:55:48Z</time>
</trkpt>
<trkpt lat="49.538505524396896" lon="9.301255205646155">
<ele>299</ele>
<time>2024-05-09T14:55:49Z</time>
</trkpt>
<trkpt lat="49.53847115859389" lon="9.301280016079543">
<ele>299</ele>
<time>2024-05-09T14:55:50Z</time>
</trkpt>
<trkpt lat="49.53843687660992" lon="9.3013047426939">
<ele>299</ele>
<time>2024-05-09T14:55:51Z</time>
</trkpt>
<trkpt lat="49.53840251080692" lon="9.30132863111794">
<ele>299</ele>
<time>2024-05-09T14:55:52Z</time>
</trkpt>
<trkpt lat="49.538368145003915" lon="9.301353441551328">
<ele>299</ele>
<time>2024-05-09T14:55:53Z</time>
</trkpt>
<trkpt lat="49.53833386301994" lon="9.301382023841144">
<ele>299</ele>
<time>2024-05-09T14:55:54Z</time>
</trkpt>
<trkpt lat="49.53829949721694" lon="9.301413455978036">
<ele>299</ele>
<time>2024-05-09T14:55:55Z</time>
</trkpt>
<trkpt lat="49.53826521523297" lon="9.30144497193396">
<ele>299</ele>
<time>2024-05-09T14:55:56Z</time>
</trkpt>
<trkpt lat="49.538230849429965" lon="9.301478331908584">
<ele>299</ele>
<time>2024-05-09T14:55:57Z</time>
</trkpt>
<trkpt lat="49.538192711770535" lon="9.301509847864509">
<ele>299</ele>
<time>2024-05-09T14:55:58Z</time>
</trkpt>
<trkpt lat="49.53815834596753" lon="9.301543207839131">
<ele>299</ele>
<time>2024-05-09T14:55:59Z</time>
</trkpt>
<trkpt lat="49.5381202083081" lon="9.301578495651484">
<ele>299</ele>
<time>2024-05-09T14:56:00Z</time>
</trkpt>
<trkpt lat="49.53808592632413" lon="9.301611855626106">
<ele>299</ele>
<time>2024-05-09T14:56:01Z</time>
</trkpt>
<trkpt lat="49.538051560521126" lon="9.30164622142911">
<ele>298.8</ele>
<time>2024-05-09T14:56:02Z</time>
</trkpt>
<trkpt lat="49.53801719471812" lon="9.301681509241462">
<ele>298.8</ele>
<time>2024-05-09T14:56:03Z</time>
</trkpt>
<trkpt lat="49.53798291273415" lon="9.301718641072512">
<ele>298.8</ele>
<time>2024-05-09T14:56:04Z</time>
</trkpt>
<trkpt lat="49.53794477507472" lon="9.301754934713244">
<ele>298.8</ele>
<time>2024-05-09T14:56:05Z</time>
</trkpt>
<trkpt lat="49.53790663741529" lon="9.301793072372677">
<ele>298.8</ele>
<time>2024-05-09T14:56:06Z</time>
</trkpt>
<trkpt lat="49.53786849975586" lon="9.301834981888533">
<ele>298.8</ele>
<time>2024-05-09T14:56:07Z</time>
</trkpt>
<trkpt lat="49.5378302782774" lon="9.301877897232773">
<ele>298.8</ele>
<time>2024-05-09T14:56:08Z</time>
</trkpt>
<trkpt lat="49.53779214061797" lon="9.30191796272993">
<ele>298.8</ele>
<time>2024-05-09T14:56:09Z</time>
</trkpt>
<trkpt lat="49.537754002958536" lon="9.30195610038936">
<ele>298.8</ele>
<time>2024-05-09T14:56:10Z</time>
</trkpt>
<trkpt lat="49.537719720974565" lon="9.301993316039445">
<ele>298.8</ele>
<time>2024-05-09T14:56:11Z</time>
</trkpt>
<trkpt lat="49.5376814994961" lon="9.302031453698874">
<ele>298.8</ele>
<time>2024-05-09T14:56:12Z</time>
</trkpt>
<trkpt lat="49.53764336183667" lon="9.302069591358304">
<ele>298.8</ele>
<time>2024-05-09T14:56:13Z</time>
</trkpt>
<trkpt lat="49.5376090798527" lon="9.302106807008386">
<ele>299</ele>
<time>2024-05-09T14:56:14Z</time>
</trkpt>
<trkpt lat="49.5375747140497" lon="9.302144944667816">
<ele>299</ele>
<time>2024-05-09T14:56:15Z</time>
</trkpt>
<trkpt lat="49.537536576390266" lon="9.302183082327248">
<ele>299</ele>
<time>2024-05-09T14:56:16Z</time>
</trkpt>
<trkpt lat="49.53750221058726" lon="9.302221219986675">
<ele>299</ele>
<time>2024-05-09T14:56:17Z</time>
</trkpt>
<trkpt lat="49.53746792860329" lon="9.302260363474488">
<ele>299.2</ele>
<time>2024-05-09T14:56:18Z</time>
</trkpt>
<trkpt lat="49.53743356280029" lon="9.30229850113392">
<ele>299.2</ele>
<time>2024-05-09T14:56:19Z</time>
</trkpt>
<trkpt lat="49.53739928081632" lon="9.30233663879335">
<ele>299.2</ele>
<time>2024-05-09T14:56:20Z</time>
</trkpt>
<trkpt lat="49.53736491501331" lon="9.30237477645278">
<ele>299.4</ele>
<time>2024-05-09T14:56:21Z</time>
</trkpt>
<trkpt lat="49.53733054921031" lon="9.30241676978767">
<ele>299.4</ele>
<time>2024-05-09T14:56:22Z</time>
</trkpt>
<trkpt lat="49.537300039082766" lon="9.30245876312256">
<ele>299.6</ele>
<time>2024-05-09T14:56:23Z</time>
</trkpt>
<trkpt lat="49.53727338463068" lon="9.302499750629067">
<ele>299.8</ele>
<time>2024-05-09T14:56:24Z</time>
</trkpt>
<trkpt lat="49.537242874503136" lon="9.302541660144923">
<ele>300</ele>
<time>2024-05-09T14:56:25Z</time>
</trkpt>
<trkpt lat="49.53721236437559" lon="9.302583653479816">
<ele>300</ele>
<time>2024-05-09T14:56:26Z</time>
</trkpt>
<trkpt lat="49.537185626104474" lon="9.302630424499512">
<ele>300</ele>
<time>2024-05-09T14:56:27Z</time>
</trkpt>
<trkpt lat="49.53715888783336" lon="9.302678033709526">
<ele>300</ele>
<time>2024-05-09T14:56:28Z</time>
</trkpt>
<trkpt lat="49.53713223338127" lon="9.302726732566953">
<ele>300</ele>
<time>2024-05-09T14:56:29Z</time>
</trkpt>
<trkpt lat="49.53710172325373" lon="9.302776269614697">
<ele>300</ele>
<time>2024-05-09T14:56:30Z</time>
</trkpt>
<trkpt lat="49.53707498498261" lon="9.30282681249082">
<ele>300</ele>
<time>2024-05-09T14:56:31Z</time>
</trkpt>
<trkpt lat="49.537044474855065" lon="9.302878361195326">
<ele>300</ele>
<time>2024-05-09T14:56:32Z</time>
</trkpt>
<trkpt lat="49.537010192871094" lon="9.30292789824307">
<ele>299.8</ele>
<time>2024-05-09T14:56:33Z</time>
</trkpt>
<trkpt lat="49.53697959892452" lon="9.302974669262769">
<ele>299.8</ele>
<time>2024-05-09T14:56:34Z</time>
</trkpt>
<trkpt lat="49.536945316940546" lon="9.303021356463432">
<ele>299.8</ele>
<time>2024-05-09T14:56:35Z</time>
</trkpt>
<trkpt lat="49.53691095113754" lon="9.30306812748313">
<ele>299.8</ele>
<time>2024-05-09T14:56:36Z</time>
</trkpt>
<trkpt lat="49.53687666915357" lon="9.303116742521524">
<ele>300</ele>
<time>2024-05-09T14:56:37Z</time>
</trkpt>
<trkpt lat="49.53683853149414" lon="9.303161585703492">
<ele>300</ele>
<time>2024-05-09T14:56:38Z</time>
</trkpt>
<trkpt lat="49.53680031001568" lon="9.30320642888546">
<ele>300</ele>
<time>2024-05-09T14:56:39Z</time>
</trkpt>
<trkpt lat="49.53676602803171" lon="9.303251188248396">
<ele>300</ele>
<time>2024-05-09T14:56:40Z</time>
</trkpt>
<trkpt lat="49.53672789037227" lon="9.303297037258744">
<ele>300</ele>
<time>2024-05-09T14:56:41Z</time>
</trkpt>
<trkpt lat="49.536689752712846" lon="9.303339952602984">
<ele>300</ele>
<time>2024-05-09T14:56:42Z</time>
</trkpt>
<trkpt lat="49.536651531234384" lon="9.30338186211884">
<ele>300</ele>
<time>2024-05-09T14:56:43Z</time>
</trkpt>
<trkpt lat="49.53661339357495" lon="9.303426705300808">
<ele>300.2</ele>
<time>2024-05-09T14:56:44Z</time>
</trkpt>
<trkpt lat="49.536571484059095" lon="9.303469620645046">
<ele>300.2</ele>
<time>2024-05-09T14:56:45Z</time>
</trkpt>
<trkpt lat="49.536533346399665" lon="9.303511613979936">
<ele>300.4</ele>
<time>2024-05-09T14:56:46Z</time>
</trkpt>
<trkpt lat="49.536495208740234" lon="9.303551595658064">
<ele>300.4</ele>
<time>2024-05-09T14:56:47Z</time>
</trkpt>
<trkpt lat="49.53645698726177" lon="9.303591661155224">
<ele>300.4</ele>
<time>2024-05-09T14:56:48Z</time>
</trkpt>
<trkpt lat="49.53641884960234" lon="9.303627954795957">
<ele>300.4</ele>
<time>2024-05-09T14:56:49Z</time>
</trkpt>
<trkpt lat="49.53638071194291" lon="9.303663242608309">
<ele>300.4</ele>
<time>2024-05-09T14:56:50Z</time>
</trkpt>
<trkpt lat="49.53633880242705" lon="9.30369853042066">
<ele>300.4</ele>
<time>2024-05-09T14:56:51Z</time>
</trkpt>
<trkpt lat="49.53630058094859" lon="9.303731890395284">
<ele>300.4</ele>
<time>2024-05-09T14:56:52Z</time>
</trkpt>
<trkpt lat="49.53626244328916" lon="9.303766172379255">
<ele>300.2</ele>
<time>2024-05-09T14:56:53Z</time>
</trkpt>
<trkpt lat="49.53622430562973" lon="9.303801460191607">
<ele>300.2</ele>
<time>2024-05-09T14:56:54Z</time>
</trkpt>
<trkpt lat="49.53618239611387" lon="9.303834903985262">
<ele>300.2</ele>
<time>2024-05-09T14:56:55Z</time>
</trkpt>
<trkpt lat="49.53614417463541" lon="9.303868263959885">
<ele>300</ele>
<time>2024-05-09T14:56:56Z</time>
</trkpt>
<trkpt lat="49.53610603697598" lon="9.303901623934507">
<ele>300.2</ele>
<time>2024-05-09T14:56:57Z</time>
</trkpt>
<trkpt lat="49.53606789931655" lon="9.30393691174686">
<ele>300.2</ele>
<time>2024-05-09T14:56:58Z</time>
</trkpt>
<trkpt lat="49.53602976165712" lon="9.303966499865057">
<ele>300.2</ele>
<time>2024-05-09T14:56:59Z</time>
</trkpt>
<trkpt lat="49.53599162399769" lon="9.30399315431714">
<ele>300.2</ele>
<time>2024-05-09T14:57:00Z</time>
</trkpt>
<trkpt lat="49.5359496306628" lon="9.304017964750528">
<ele>300.2</ele>
<time>2024-05-09T14:57:01Z</time>
</trkpt>
<trkpt lat="49.53590772114694" lon="9.304043697193263">
<ele>300.2</ele>
<time>2024-05-09T14:57:02Z</time>
</trkpt>
<trkpt lat="49.53586572781205" lon="9.304063729941843">
<ele>300.2</ele>
<time>2024-05-09T14:57:03Z</time>
</trkpt>
<trkpt lat="49.535823818296194" lon="9.304081834852695">
<ele>300.2</ele>
<time>2024-05-09T14:57:04Z</time>
</trkpt>
<trkpt lat="49.535781824961305" lon="9.304101867601275">
<ele>300</ele>
<time>2024-05-09T14:57:05Z</time>
</trkpt>
<trkpt lat="49.535739831626415" lon="9.304118128493428">
<ele>300</ele>
<time>2024-05-09T14:57:06Z</time>
</trkpt>
<trkpt lat="49.53569792211056" lon="9.30413531139493">
<ele>300</ele>
<time>2024-05-09T14:57:07Z</time>
</trkpt>
<trkpt lat="49.53565592877567" lon="9.304151488468053">
<ele>300.2</ele>
<time>2024-05-09T14:57:08Z</time>
</trkpt>
<trkpt lat="49.53561779111624" lon="9.304168671369553">
<ele>300.2</ele>
<time>2024-05-09T14:57:09Z</time>
</trkpt>
<trkpt lat="49.53557579778135" lon="9.304184848442674">
<ele>300.2</ele>
<time>2024-05-09T14:57:10Z</time>
</trkpt>
<trkpt lat="49.53553766012192" lon="9.304204881191254">
<ele>300.4</ele>
<time>2024-05-09T14:57:11Z</time>
</trkpt>
<trkpt lat="49.535503378137946" lon="9.304224913939834">
<ele>300.4</ele>
<time>2024-05-09T14:57:12Z</time>
</trkpt>
<trkpt lat="49.53546138480306" lon="9.304246874526145">
<ele>300.6</ele>
<time>2024-05-09T14:57:13Z</time>
</trkpt>
<trkpt lat="49.53542701900005" lon="9.30427168495953">
<ele>300.6</ele>
<time>2024-05-09T14:57:14Z</time>
</trkpt>
<trkpt lat="49.53538888134062" lon="9.304300267249346">
<ele>300.6</ele>
<time>2024-05-09T14:57:15Z</time>
</trkpt>
<trkpt lat="49.53535459935665" lon="9.304327005520465">
<ele>300.8</ele>
<time>2024-05-09T14:57:16Z</time>
</trkpt>
<trkpt lat="49.53532023355365" lon="9.304356509819629">
<ele>300.8</ele>
<time>2024-05-09T14:57:17Z</time>
</trkpt>
<trkpt lat="49.53528209589422" lon="9.304385175928472">
<ele>300.8</ele>
<time>2024-05-09T14:57:18Z</time>
</trkpt>
<trkpt lat="49.535247730091214" lon="9.30441283620894">
<ele>300.8</ele>
<time>2024-05-09T14:57:19Z</time>
</trkpt>
<trkpt lat="49.535209592431784" lon="9.304436640813949">
<ele>300.8</ele>
<time>2024-05-09T14:57:20Z</time>
</trkpt>
<trkpt lat="49.53517145477235" lon="9.304465223103762">
<ele>300.8</ele>
<time>2024-05-09T14:57:21Z</time>
</trkpt>
<trkpt lat="49.53513717278838" lon="9.304498666897416">
<ele>301</ele>
<time>2024-05-09T14:57:22Z</time>
</trkpt>
<trkpt lat="49.53510280698538" lon="9.30453009903431">
<ele>301</ele>
<time>2024-05-09T14:57:23Z</time>
</trkpt>
<trkpt lat="49.53506466932595" lon="9.304563459008932">
<ele>301.2</ele>
<time>2024-05-09T14:57:24Z</time>
</trkpt>
<trkpt lat="49.53502653166652" lon="9.304593047127128">
<ele>301.2</ele>
<time>2024-05-09T14:57:25Z</time>
</trkpt>
<trkpt lat="49.53498839400709" lon="9.304621629416944">
<ele>301.2</ele>
<time>2024-05-09T14:57:26Z</time>
</trkpt>
<trkpt lat="49.534950256347656" lon="9.304653145372868">
<ele>301.4</ele>
<time>2024-05-09T14:57:27Z</time>
</trkpt>
<trkpt lat="49.534912034869194" lon="9.30468650534749">
<ele>301.4</ele>
<time>2024-05-09T14:57:28Z</time>
</trkpt>
<trkpt lat="49.53487389720976" lon="9.304717015475036">
<ele>301.4</ele>
<time>2024-05-09T14:57:29Z</time>
</trkpt>
<trkpt lat="49.53483961522579" lon="9.304750375449656">
<ele>301.6</ele>
<time>2024-05-09T14:57:30Z</time>
</trkpt>
<trkpt lat="49.53480147756636" lon="9.304782813414931">
<ele>301.6</ele>
<time>2024-05-09T14:57:31Z</time>
</trkpt>
<trkpt lat="49.53476711176336" lon="9.304820029065011">
<ele>301.8</ele>
<time>2024-05-09T14:57:32Z</time>
</trkpt>
<trkpt lat="49.534732745960355" lon="9.304858166724443">
<ele>302</ele>
<time>2024-05-09T14:57:33Z</time>
</trkpt>
<trkpt lat="49.53469846397638" lon="9.304895382374523">
<ele>302</ele>
<time>2024-05-09T14:57:34Z</time>
</trkpt>
<trkpt lat="49.53466032631695" lon="9.304935447871683">
<ele>302.2</ele>
<time>2024-05-09T14:57:35Z</time>
</trkpt>
<trkpt lat="49.53462596051395" lon="9.304974507540464">
<ele>302.2</ele>
<time>2024-05-09T14:57:36Z</time>
</trkpt>
<trkpt lat="49.534591594710946" lon="9.305016500875354">
<ele>302.4</ele>
<time>2024-05-09T14:57:37Z</time>
</trkpt>
<trkpt lat="49.534557312726974" lon="9.30506033822894">
<ele>302.4</ele>
<time>2024-05-09T14:57:38Z</time>
</trkpt>
<trkpt lat="49.53452680259943" lon="9.30510132573545">
<ele>302.4</ele>
<time>2024-05-09T14:57:39Z</time>
</trkpt>
<trkpt lat="49.534496292471886" lon="9.305146168917418">
<ele>302.4</ele>
<time>2024-05-09T14:57:40Z</time>
</trkpt>
<trkpt lat="49.53446578234434" lon="9.305190006271005">
<ele>302.4</ele>
<time>2024-05-09T14:57:41Z</time>
</trkpt>
<trkpt lat="49.5344352722168" lon="9.305231999605894">
<ele>302.4</ele>
<time>2024-05-09T14:57:42Z</time>
</trkpt>
<trkpt lat="49.53440467827022" lon="9.305272987112405">
<ele>302.4</ele>
<time>2024-05-09T14:57:43Z</time>
</trkpt>
<trkpt lat="49.53437416814267" lon="9.30532168596983">
<ele>302.2</ele>
<time>2024-05-09T14:57:44Z</time>
</trkpt>
<trkpt lat="49.53434365801513" lon="9.305373150855305">
<ele>302.4</ele>
<time>2024-05-09T14:57:45Z</time>
</trkpt>
<trkpt lat="49.53431314788759" lon="9.305424615740776">
<ele>302.4</ele>
<time>2024-05-09T14:57:46Z</time>
</trkpt>
<trkpt lat="49.53428263776004" lon="9.30547708645463">
<ele>302.4</ele>
<time>2024-05-09T14:57:47Z</time>
</trkpt>
<trkpt lat="49.5342521276325" lon="9.305526707321404">
<ele>302.6</ele>
<time>2024-05-09T14:57:48Z</time>
</trkpt>
<trkpt lat="49.534221617504954" lon="9.305582027882338">
<ele>302.6</ele>
<time>2024-05-09T14:57:49Z</time>
</trkpt>
<trkpt lat="49.53419110737741" lon="9.30563542060554">
<ele>302.6</ele>
<time>2024-05-09T14:57:50Z</time>
</trkpt>
<trkpt lat="49.534160597249866" lon="9.305681185796857">
<ele>302.8</ele>
<time>2024-05-09T14:57:51Z</time>
</trkpt>
<trkpt lat="49.53413008712232" lon="9.305726950988172">
<ele>302.8</ele>
<time>2024-05-09T14:57:52Z</time>
</trkpt>
<trkpt lat="49.5341033488512" lon="9.30577464401722">
<ele>303</ele>
<time>2024-05-09T14:57:53Z</time>
</trkpt>
<trkpt lat="49.53407283872366" lon="9.305828036740422">
<ele>303</ele>
<time>2024-05-09T14:57:54Z</time>
</trkpt>
<trkpt lat="49.53404610045254" lon="9.305883357301354">
<ele>303.2</ele>
<time>2024-05-09T14:57:55Z</time>
</trkpt>
<trkpt lat="49.534015590325" lon="9.305939599871635">
<ele>303.2</ele>
<time>2024-05-09T14:57:56Z</time>
</trkpt>
<trkpt lat="49.53398508019745" lon="9.305994920432568">
<ele>303.4</ele>
<time>2024-05-09T14:57:57Z</time>
</trkpt>
<trkpt lat="49.53394694253802" lon="9.306056946516035">
<ele>303.4</ele>
<time>2024-05-09T14:57:58Z</time>
</trkpt>
<trkpt lat="49.53390880487859" lon="9.306115116924047">
<ele>303.4</ele>
<time>2024-05-09T14:57:59Z</time>
</trkpt>
<trkpt lat="49.5338668115437" lon="9.306173287332058">
<ele>303.6</ele>
<time>2024-05-09T14:58:00Z</time>
</trkpt>
<trkpt lat="49.53382104635239" lon="9.306224752217531">
<ele>303.6</ele>
<time>2024-05-09T14:58:01Z</time>
</trkpt>
<trkpt lat="49.53377528116107" lon="9.306256268173456">
<ele>304</ele>
<time>2024-05-09T14:58:02Z</time>
</trkpt>
<trkpt lat="49.53372951596975" lon="9.306278228759766">
<ele>304.4</ele>
<time>2024-05-09T14:58:03Z</time>
</trkpt>
<trkpt lat="49.53369137831032" lon="9.306304883211851">
<ele>304.6</ele>
<time>2024-05-09T14:58:04Z</time>
</trkpt>
<trkpt lat="49.53366086818278" lon="9.306335393339396">
<ele>305</ele>
<time>2024-05-09T14:58:05Z</time>
</trkpt>
<trkpt lat="49.53363412991166" lon="9.30636783130467">
<ele>305.2</ele>
<time>2024-05-09T14:58:06Z</time>
</trkpt>
<trkpt lat="49.533607475459576" lon="9.306405046954753">
<ele>305.6</ele>
<time>2024-05-09T14:58:07Z</time>
</trkpt>
<trkpt lat="49.533588364720345" lon="9.306443184614182">
<ele>306</ele>
<time>2024-05-09T14:58:08Z</time>
</trkpt>
<trkpt lat="49.53357310965657" lon="9.306487021967769">
<ele>306.2</ele>
<time>2024-05-09T14:58:09Z</time>
</trkpt>
<trkpt lat="49.53356162644923" lon="9.306529937312009">
<ele>306.6</ele>
<time>2024-05-09T14:58:10Z</time>
</trkpt>
<trkpt lat="49.533546371385455" lon="9.306568074971436">
<ele>307</ele>
<time>2024-05-09T14:58:11Z</time>
</trkpt>
<trkpt lat="49.53353874385357" lon="9.306606212630868">
<ele>307.2</ele>
<time>2024-05-09T14:58:12Z</time>
</trkpt>
<trkpt lat="49.533527344465256" lon="9.306638650596142">
<ele>307.6</ele>
<time>2024-05-09T14:58:13Z</time>
</trkpt>
<trkpt lat="49.5335234887898" lon="9.306679721921682">
<ele>307.8</ele>
<time>2024-05-09T14:58:14Z</time>
</trkpt>
<trkpt lat="49.53351586125791" lon="9.306716853752732">
<ele>308</ele>
<time>2024-05-09T14:58:15Z</time>
</trkpt>
<trkpt lat="49.5335044618696" lon="9.306754991412165">
<ele>308.2</ele>
<time>2024-05-09T14:58:16Z</time>
</trkpt>
<trkpt lat="49.53350060619414" lon="9.306790279224517">
<ele>308.2</ele>
<time>2024-05-09T14:58:17Z</time>
</trkpt>
<trkpt lat="49.53350060619414" lon="9.306830344721677">
<ele>308.4</ele>
<time>2024-05-09T14:58:18Z</time>
</trkpt>
<trkpt lat="49.53349683433771" lon="9.306870410218837">
<ele>308.4</ele>
<time>2024-05-09T14:58:19Z</time>
</trkpt>
<trkpt lat="49.53347772359848" lon="9.306906620040536">
<ele>308.4</ele>
<time>2024-05-09T14:58:20Z</time>
</trkpt>
<trkpt lat="49.53345484100282" lon="9.306949535384774">
<ele>308.4</ele>
<time>2024-05-09T14:58:21Z</time>
</trkpt>
<trkpt lat="49.53343581408262" lon="9.307002006098628">
<ele>308.4</ele>
<time>2024-05-09T14:58:22Z</time>
</trkpt>
<trkpt lat="49.53342433087528" lon="9.307053554803131">
<ele>308.4</ele>
<time>2024-05-09T14:58:23Z</time>
</trkpt>
<trkpt lat="49.53341293148696" lon="9.307105019688606">
<ele>308.4</ele>
<time>2024-05-09T14:58:24Z</time>
</trkpt>
<trkpt lat="49.53339759260416" lon="9.307161262258887">
<ele>308.4</ele>
<time>2024-05-09T14:58:25Z</time>
</trkpt>
<trkpt lat="49.53337856568396" lon="9.30721465498209">
<ele>308.4</ele>
<time>2024-05-09T14:58:26Z</time>
</trkpt>
<trkpt lat="49.533367082476616" lon="9.307263353839517">
<ele>308.4</ele>
<time>2024-05-09T14:58:27Z</time>
</trkpt>
<trkpt lat="49.53334805555642" lon="9.307305263355374">
<ele>308.4</ele>
<time>2024-05-09T14:58:28Z</time>
</trkpt>
<trkpt lat="49.53333657234907" lon="9.307343401014805">
<ele>308.4</ele>
<time>2024-05-09T14:58:29Z</time>
</trkpt>
<trkpt lat="49.533328944817185" lon="9.307378688827155">
<ele>308.4</ele>
<time>2024-05-09T14:58:30Z</time>
</trkpt>
<trkpt lat="49.5333213172853" lon="9.307421604171395">
<ele>308.4</ele>
<time>2024-05-09T14:58:31Z</time>
</trkpt>
<trkpt lat="49.53331754542887" lon="9.307470303028822">
<ele>308.4</ele>
<time>2024-05-09T14:58:32Z</time>
</trkpt>
<trkpt lat="49.533309917896986" lon="9.307510368525982">
<ele>308.2</ele>
<time>2024-05-09T14:58:33Z</time>
</trkpt>
<trkpt lat="49.53330606222153" lon="9.307538028806448">
<ele>308.2</ele>
<time>2024-05-09T14:58:34Z</time>
</trkpt>
<trkpt lat="49.53329843468964" lon="9.30757038295269">
<ele>308.2</ele>
<time>2024-05-09T14:58:35Z</time>
</trkpt>
<trkpt lat="49.533290807157755" lon="9.307606676593425">
<ele>308.2</ele>
<time>2024-05-09T14:58:36Z</time>
</trkpt>
<trkpt lat="49.53327940776944" lon="9.30764858610928">
<ele>308</ele>
<time>2024-05-09T14:58:37Z</time>
</trkpt>
<trkpt lat="49.5332679245621" lon="9.30768965743482">
<ele>308</ele>
<time>2024-05-09T14:58:38Z</time>
</trkpt>
<trkpt lat="49.53325652517378" lon="9.30773156695068">
<ele>308</ele>
<time>2024-05-09T14:58:39Z</time>
</trkpt>
<trkpt lat="49.5332488976419" lon="9.307773560285568">
<ele>307.8</ele>
<time>2024-05-09T14:58:40Z</time>
</trkpt>
<trkpt lat="49.53324504196644" lon="9.30780784226954">
<ele>307.6</ele>
<time>2024-05-09T14:58:41Z</time>
</trkpt>
<trkpt lat="49.533229786902666" lon="9.30784505791962">
<ele>307.6</ele>
<time>2024-05-09T14:58:42Z</time>
</trkpt>
<trkpt lat="49.53321830369532" lon="9.307883195579052">
<ele>307.6</ele>
<time>2024-05-09T14:58:43Z</time>
</trkpt>
<trkpt lat="49.53320304863155" lon="9.30792518891394">
<ele>307.6</ele>
<time>2024-05-09T14:58:44Z</time>
</trkpt>
<trkpt lat="49.53318402171135" lon="9.3079652544111">
<ele>307.4</ele>
<time>2024-05-09T14:58:45Z</time>
</trkpt>
<trkpt lat="49.53316491097212" lon="9.308010097593067">
<ele>307.6</ele>
<time>2024-05-09T14:58:46Z</time>
</trkpt>
<trkpt lat="49.53314588405192" lon="9.308056784793736">
<ele>307.6</ele>
<time>2024-05-09T14:58:47Z</time>
</trkpt>
<trkpt lat="49.53312677331269" lon="9.308101627975702">
<ele>307.6</ele>
<time>2024-05-09T14:58:48Z</time>
</trkpt>
<trkpt lat="49.53310389071703" lon="9.308155020698903">
<ele>307.6</ele>
<time>2024-05-09T14:58:49Z</time>
</trkpt>
<trkpt lat="49.53308100812137" lon="9.30820464156568">
<ele>307.6</ele>
<time>2024-05-09T14:58:50Z</time>
</trkpt>
<trkpt lat="49.53305812552571" lon="9.308251328766346">
<ele>307.6</ele>
<time>2024-05-09T14:58:51Z</time>
</trkpt>
<trkpt lat="49.533035242930055" lon="9.308296171948314">
<ele>307.6</ele>
<time>2024-05-09T14:58:52Z</time>
</trkpt>
<trkpt lat="49.5330123603344" lon="9.3083400093019">
<ele>307.6</ele>
<time>2024-05-09T14:58:53Z</time>
</trkpt>
<trkpt lat="49.532993249595165" lon="9.30838292464614">
<ele>307.8</ele>
<time>2024-05-09T14:58:54Z</time>
</trkpt>
<trkpt lat="49.53297036699951" lon="9.308426845818758">
<ele>308</ele>
<time>2024-05-09T14:58:55Z</time>
</trkpt>
<trkpt lat="49.53294748440385" lon="9.308469761162996">
<ele>308</ele>
<time>2024-05-09T14:58:56Z</time>
</trkpt>
<trkpt lat="49.53292460180819" lon="9.308518376201391">
<ele>308.2</ele>
<time>2024-05-09T14:58:57Z</time>
</trkpt>
<trkpt lat="49.53290557488799" lon="9.308565063402057">
<ele>308.4</ele>
<time>2024-05-09T14:58:58Z</time>
</trkpt>
<trkpt lat="49.53288646414876" lon="9.308607978746297">
<ele>308.6</ele>
<time>2024-05-09T14:58:59Z</time>
</trkpt>
<trkpt lat="49.53286735340953" lon="9.308648044243457">
<ele>308.6</ele>
<time>2024-05-09T14:59:00Z</time>
</trkpt>
<trkpt lat="49.53284832648933" lon="9.308686181902884">
<ele>308.6</ele>
<time>2024-05-09T14:59:01Z</time>
</trkpt>
<trkpt lat="49.53282158821821" lon="9.308732952922584">
<ele>308.8</ele>
<time>2024-05-09T14:59:02Z</time>
</trkpt>
<trkpt lat="49.532798705622554" lon="9.3087787181139">
<ele>308.8</ele>
<time>2024-05-09T14:59:03Z</time>
</trkpt>
<trkpt lat="49.532775823026896" lon="9.308823561295869">
<ele>309</ele>
<time>2024-05-09T14:59:04Z</time>
</trkpt>
<trkpt lat="49.53274916857481" lon="9.308863626793029">
<ele>309.2</ele>
<time>2024-05-09T14:59:05Z</time>
</trkpt>
<trkpt lat="49.53272628597915" lon="9.308906542137263">
<ele>309.2</ele>
<time>2024-05-09T14:59:06Z</time>
</trkpt>
<trkpt lat="49.53270331956446" lon="9.308946607634423">
<ele>309.4</ele>
<time>2024-05-09T14:59:07Z</time>
</trkpt>
<trkpt lat="49.5326804369688" lon="9.308981895446776">
<ele>309.6</ele>
<time>2024-05-09T14:59:08Z</time>
</trkpt>
<trkpt lat="49.53264992684126" lon="9.30901332758367">
<ele>309.6</ele>
<time>2024-05-09T14:59:09Z</time>
</trkpt>
<trkpt lat="49.53261178918183" lon="9.309046687558292">
<ele>309.8</ele>
<time>2024-05-09T14:59:10Z</time>
</trkpt>
<trkpt lat="49.5325736515224" lon="9.30907342582941">
<ele>309.8</ele>
<time>2024-05-09T14:59:11Z</time>
</trkpt>
<trkpt lat="49.532539285719395" lon="9.309100080281496">
<ele>309.8</ele>
<time>2024-05-09T14:59:12Z</time>
</trkpt>
<trkpt lat="49.53250500373542" lon="9.309122962877154">
<ele>310</ele>
<time>2024-05-09T14:59:13Z</time>
</trkpt>
<trkpt lat="49.53247449360788" lon="9.309144923463464">
<ele>310</ele>
<time>2024-05-09T14:59:14Z</time>
</trkpt>
<trkpt lat="49.532440127804875" lon="9.309162106364964">
<ele>310</ele>
<time>2024-05-09T14:59:15Z</time>
</trkpt>
<trkpt lat="49.532405845820904" lon="9.30917166173458">
<ele>310.2</ele>
<time>2024-05-09T14:59:16Z</time>
</trkpt>
<trkpt lat="49.53237533569336" lon="9.309181133285165">
<ele>310.4</ele>
<time>2024-05-09T14:59:17Z</time>
</trkpt>
<trkpt lat="49.53234474174678" lon="9.30919454433024">
<ele>310.6</ele>
<time>2024-05-09T14:59:18Z</time>
</trkpt>
<trkpt lat="49.5323180872947" lon="9.309216421097515">
<ele>310.8</ele>
<time>2024-05-09T14:59:19Z</time>
</trkpt>
<trkpt lat="49.53229520469904" lon="9.309236453846095">
<ele>311</ele>
<time>2024-05-09T14:59:20Z</time>
</trkpt>
<trkpt lat="49.532264694571495" lon="9.30925464257598">
<ele>311.2</ele>
<time>2024-05-09T14:59:21Z</time>
</trkpt>
<trkpt lat="49.53223418444395" lon="9.309283224865794">
<ele>311.4</ele>
<time>2024-05-09T14:59:22Z</time>
</trkpt>
<trkpt lat="49.53219596296549" lon="9.30931180715561">
<ele>311.4</ele>
<time>2024-05-09T14:59:23Z</time>
</trkpt>
<trkpt lat="49.53216168098152" lon="9.309338545426726">
<ele>311.6</ele>
<time>2024-05-09T14:59:24Z</time>
</trkpt>
<trkpt lat="49.532123543322086" lon="9.309358578175306">
<ele>311.8</ele>
<time>2024-05-09T14:59:25Z</time>
</trkpt>
<trkpt lat="49.53208917751908" lon="9.309376683086157">
<ele>312</ele>
<time>2024-05-09T14:59:26Z</time>
</trkpt>
<trkpt lat="49.53205866739154" lon="9.309398643672466">
<ele>312.2</ele>
<time>2024-05-09T14:59:27Z</time>
</trkpt>
<trkpt lat="49.53202052973211" lon="9.309414820745587">
<ele>312.4</ele>
<time>2024-05-09T14:59:28Z</time>
</trkpt>
<trkpt lat="49.53198239207268" lon="9.309421526268125">
<ele>312.6</ele>
<time>2024-05-09T14:59:29Z</time>
</trkpt>
<trkpt lat="49.53194039873779" lon="9.30943007580936">
<ele>312.6</ele>
<time>2024-05-09T14:59:30Z</time>
</trkpt>
<trkpt lat="49.53190611675382" lon="9.309443403035402">
<ele>312.8</ele>
<time>2024-05-09T14:59:31Z</time>
</trkpt>
<trkpt lat="49.53187175095081" lon="9.309454886242747">
<ele>313</ele>
<time>2024-05-09T14:59:32Z</time>
</trkpt>
<trkpt lat="49.531845012679696" lon="9.309463435783982">
<ele>313</ele>
<time>2024-05-09T14:59:33Z</time>
</trkpt>
<trkpt lat="49.53181835822761" lon="9.309463435783982">
<ele>313.2</ele>
<time>2024-05-09T14:59:34Z</time>
</trkpt>
<trkpt lat="49.53179161995649" lon="9.30946821346879">
<ele>313.4</ele>
<time>2024-05-09T14:59:35Z</time>
</trkpt>
<trkpt lat="49.53175348229706" lon="9.309483468532562">
<ele>313.6</ele>
<time>2024-05-09T14:59:36Z</time>
</trkpt>
<trkpt lat="49.53171920031309" lon="9.309499729424717">
<ele>313.8</ele>
<time>2024-05-09T14:59:37Z</time>
</trkpt>
<trkpt lat="49.5316772069782" lon="9.309521606191993">
<ele>313.8</ele>
<time>2024-05-09T14:59:38Z</time>
</trkpt>
<trkpt lat="49.53163521364331" lon="9.309543566778302">
<ele>314</ele>
<time>2024-05-09T14:59:39Z</time>
</trkpt>
<trkpt lat="49.53158567659557" lon="9.30956644937396">
<ele>314.2</ele>
<time>2024-05-09T14:59:40Z</time>
</trkpt>
<trkpt lat="49.53153991140425" lon="9.309579776600003">
<ele>314.4</ele>
<time>2024-05-09T14:59:41Z</time>
</trkpt>
<trkpt lat="49.531494062393904" lon="9.309584554284813">
<ele>314.4</ele>
<time>2024-05-09T14:59:42Z</time>
</trkpt>
<trkpt lat="49.531452152878046" lon="9.309590337798">
<ele>314.4</ele>
<time>2024-05-09T14:59:43Z</time>
</trkpt>
<trkpt lat="49.53141015954316" lon="9.309595031663775">
<ele>314.2</ele>
<time>2024-05-09T14:59:44Z</time>
</trkpt>
<trkpt lat="49.53136062249541" lon="9.30960651487112">
<ele>314</ele>
<time>2024-05-09T14:59:45Z</time>
</trkpt>
<trkpt lat="49.531314773485065" lon="9.30960651487112">
<ele>313.8</ele>
<time>2024-05-09T14:59:46Z</time>
</trkpt>
<trkpt lat="49.53126138076186" lon="9.309613220393658">
<ele>313.6</ele>
<time>2024-05-09T14:59:47Z</time>
</trkpt>
<trkpt lat="49.53120421618223" lon="9.309619842097163">
<ele>313.4</ele>
<time>2024-05-09T14:59:48Z</time>
</trkpt>
<trkpt lat="49.53114696778357" lon="9.309623697772622">
<ele>313.4</ele>
<time>2024-05-09T14:59:49Z</time>
</trkpt>
<trkpt lat="49.53109357506037" lon="9.309623697772622">
<ele>313.2</ele>
<time>2024-05-09T14:59:50Z</time>
</trkpt>
<trkpt lat="49.53104395419359" lon="9.309617914259434">
<ele>313.2</ele>
<time>2024-05-09T14:59:51Z</time>
</trkpt>
<trkpt lat="49.530998189002275" lon="9.30960651487112">
<ele>313</ele>
<time>2024-05-09T14:59:52Z</time>
</trkpt>
<trkpt lat="49.53095242381096" lon="9.309595031663775">
<ele>313</ele>
<time>2024-05-09T14:59:53Z</time>
</trkpt>
<trkpt lat="49.53090665861964" lon="9.309581704437733">
<ele>313</ele>
<time>2024-05-09T14:59:54Z</time>
</trkpt>
<trkpt lat="49.53086466528475" lon="9.309564521536233">
<ele>312.8</ele>
<time>2024-05-09T14:59:55Z</time>
</trkpt>
<trkpt lat="49.53082267194986" lon="9.30954834446311">
<ele>312.8</ele>
<time>2024-05-09T14:59:56Z</time>
</trkpt>
<trkpt lat="49.530780762434006" lon="9.30953023955226">
<ele>312.8</ele>
<time>2024-05-09T14:59:57Z</time>
</trkpt>
<trkpt lat="49.530742624774575" lon="9.309516828507183">
<ele>312.6</ele>
<time>2024-05-09T14:59:58Z</time>
</trkpt>
<trkpt lat="49.53070825897157" lon="9.309494951739907">
<ele>312.6</ele>
<time>2024-05-09T14:59:59Z</time>
</trkpt>
<trkpt lat="49.53067012131214" lon="9.30947014130652">
<ele>312.8</ele>
<time>2024-05-09T15:00:00Z</time>
</trkpt>
<trkpt lat="49.53063575550914" lon="9.30944625288248">
<ele>312.8</ele>
<time>2024-05-09T15:00:01Z</time>
</trkpt>
<trkpt lat="49.53059761784971" lon="9.30942814797163">
<ele>313</ele>
<time>2024-05-09T15:00:02Z</time>
</trkpt>
<trkpt lat="49.530563335865736" lon="9.30941004306078">
<ele>313</ele>
<time>2024-05-09T15:00:03Z</time>
</trkpt>
<trkpt lat="49.53053659759462" lon="9.309391938149927">
<ele>313.2</ele>
<time>2024-05-09T15:00:04Z</time>
</trkpt>
<trkpt lat="49.530506087467074" lon="9.309372827410698">
<ele>313.2</ele>
<time>2024-05-09T15:00:05Z</time>
</trkpt>
<trkpt lat="49.53047934919596" lon="9.309356650337577">
<ele>313.4</ele>
<time>2024-05-09T15:00:06Z</time>
</trkpt>
<trkpt lat="49.53044883906841" lon="9.309343323111534">
<ele>313.4</ele>
<time>2024-05-09T15:00:07Z</time>
</trkpt>
<trkpt lat="49.53041455708444" lon="9.309331839904187">
<ele>313.6</ele>
<time>2024-05-09T15:00:08Z</time>
</trkpt>
<trkpt lat="49.53038019128144" lon="9.309320440515876">
<ele>313.8</ele>
<time>2024-05-09T15:00:09Z</time>
</trkpt>
<trkpt lat="49.53033828176558" lon="9.3093070294708">
<ele>314</ele>
<time>2024-05-09T15:00:10Z</time>
</trkpt>
<trkpt lat="49.53029628843069" lon="9.309288002550602">
<ele>314</ele>
<time>2024-05-09T15:00:11Z</time>
</trkpt>
<trkpt lat="49.530250523239374" lon="9.309265119954944">
<ele>314.2</ele>
<time>2024-05-09T15:00:12Z</time>
</trkpt>
<trkpt lat="49.53020475804806" lon="9.309243159368634">
<ele>314.2</ele>
<time>2024-05-09T15:00:13Z</time>
</trkpt>
<trkpt lat="49.53015513718128" lon="9.309220276772976">
<ele>314.2</ele>
<time>2024-05-09T15:00:14Z</time>
</trkpt>
<trkpt lat="49.53010551631451" lon="9.309196472167969">
<ele>314.2</ele>
<time>2024-05-09T15:00:15Z</time>
</trkpt>
<trkpt lat="49.530052123591304" lon="9.309175433591008">
<ele>314</ele>
<time>2024-05-09T15:00:16Z</time>
</trkpt>
<trkpt lat="49.5299987308681" lon="9.309156406670809">
<ele>314</ele>
<time>2024-05-09T15:00:17Z</time>
</trkpt>
<trkpt lat="49.529949110001326" lon="9.309135368093848">
<ele>313.8</ele>
<time>2024-05-09T15:00:18Z</time>
</trkpt>
<trkpt lat="49.52990334481001" lon="9.309109635651112">
<ele>313.6</ele>
<time>2024-05-09T15:00:19Z</time>
</trkpt>
<trkpt lat="49.529853807762265" lon="9.309086753055452">
<ele>313.4</ele>
<time>2024-05-09T15:00:20Z</time>
</trkpt>
<trkpt lat="49.529811814427376" lon="9.30907149799168">
<ele>313.2</ele>
<time>2024-05-09T15:00:21Z</time>
</trkpt>
<trkpt lat="49.529769821092486" lon="9.309060014784336">
<ele>313</ele>
<time>2024-05-09T15:00:22Z</time>
</trkpt>
<trkpt lat="49.529731683433056" lon="9.309040065854788">
<ele>312.8</ele>
<time>2024-05-09T15:00:23Z</time>
</trkpt>
<trkpt lat="49.529693545773625" lon="9.309021877124906">
<ele>312.6</ele>
<time>2024-05-09T15:00:24Z</time>
</trkpt>
<trkpt lat="49.52965163625777" lon="9.30901332758367">
<ele>312.4</ele>
<time>2024-05-09T15:00:25Z</time>
</trkpt>
<trkpt lat="49.529613414779305" lon="9.3090152554214">
<ele>312.2</ele>
<time>2024-05-09T15:00:26Z</time>
</trkpt>
<trkpt lat="49.52957150526345" lon="9.309029504656792">
<ele>312</ele>
<time>2024-05-09T15:00:27Z</time>
</trkpt>
<trkpt lat="49.529537139460444" lon="9.309061942622066">
<ele>311.8</ele>
<time>2024-05-09T15:00:28Z</time>
</trkpt>
<trkpt lat="49.5295066293329" lon="9.309100080281496">
<ele>311.6</ele>
<time>2024-05-09T15:00:29Z</time>
</trkpt>
<trkpt lat="49.529479974880815" lon="9.309142073616384">
<ele>311.4</ele>
<time>2024-05-09T15:00:30Z</time>
</trkpt>
<trkpt lat="49.52946086414158" lon="9.30919169448316">
<ele>311.2</ele>
<time>2024-05-09T15:00:31Z</time>
</trkpt>
<trkpt lat="49.52944175340235" lon="9.309238381683826">
<ele>311</ele>
<time>2024-05-09T15:00:32Z</time>
</trkpt>
<trkpt lat="49.52942272648215" lon="9.309285152703524">
<ele>310.8</ele>
<time>2024-05-09T15:00:33Z</time>
</trkpt>
<trkpt lat="49.529399843886495" lon="9.309331839904187">
<ele>310.6</ele>
<time>2024-05-09T15:00:34Z</time>
</trkpt>
<trkpt lat="49.52937696129083" lon="9.309374755248427">
<ele>310.4</ele>
<time>2024-05-09T15:00:35Z</time>
</trkpt>
<trkpt lat="49.529357850551605" lon="9.309418676421046">
<ele>310.2</ele>
<time>2024-05-09T15:00:36Z</time>
</trkpt>
<trkpt lat="49.52933119609952" lon="9.309459663927557">
<ele>310</ele>
<time>2024-05-09T15:00:37Z</time>
</trkpt>
<trkpt lat="49.52930831350386" lon="9.309505429118872">
<ele>309.8</ele>
<time>2024-05-09T15:00:38Z</time>
</trkpt>
<trkpt lat="49.529281575232744" lon="9.30955027230084">
<ele>309.6</ele>
<time>2024-05-09T15:00:39Z</time>
</trkpt>
<trkpt lat="49.529258692637086" lon="9.309601737186313">
<ele>309.4</ele>
<time>2024-05-09T15:00:40Z</time>
</trkpt>
<trkpt lat="49.52923195436597" lon="9.309651358053088">
<ele>309.2</ele>
<time>2024-05-09T15:00:41Z</time>
</trkpt>
<trkpt lat="49.529201444238424" lon="9.309698045253754">
<ele>309.2</ele>
<time>2024-05-09T15:00:42Z</time>
</trkpt>
<trkpt lat="49.52917478978634" lon="9.309741966426373">
<ele>309</ele>
<time>2024-05-09T15:00:43Z</time>
</trkpt>
<trkpt lat="49.529144279658794" lon="9.309780104085805">
<ele>309</ele>
<time>2024-05-09T15:00:44Z</time>
</trkpt>
<trkpt lat="49.52911754138768" lon="9.309818241745234">
<ele>309</ele>
<time>2024-05-09T15:00:45Z</time>
</trkpt>
<trkpt lat="49.52909080311656" lon="9.309855457395315">
<ele>309</ele>
<time>2024-05-09T15:00:46Z</time>
</trkpt>
<trkpt lat="49.5290679205209" lon="9.309893595054746">
<ele>309</ele>
<time>2024-05-09T15:00:47Z</time>
</trkpt>
<trkpt lat="49.529041266068816" lon="9.309929804876449">
<ele>308.8</ele>
<time>2024-05-09T15:00:48Z</time>
</trkpt>
<trkpt lat="49.5290145277977" lon="9.30996316485107">
<ele>308.8</ele>
<time>2024-05-09T15:00:49Z</time>
</trkpt>
<trkpt lat="49.52899164520204" lon="9.309996524825692">
<ele>308.8</ele>
<time>2024-05-09T15:00:50Z</time>
</trkpt>
<trkpt lat="49.528964990749955" lon="9.310036590322852">
<ele>308.8</ele>
<time>2024-05-09T15:00:51Z</time>
</trkpt>
<trkpt lat="49.52893825247884" lon="9.310074727982284">
<ele>308.8</ele>
<time>2024-05-09T15:00:52Z</time>
</trkpt>
<trkpt lat="49.52891151420772" lon="9.310108171775935">
<ele>308.8</ele>
<time>2024-05-09T15:00:53Z</time>
</trkpt>
<trkpt lat="49.528884859755635" lon="9.310150081291797">
<ele>309</ele>
<time>2024-05-09T15:00:54Z</time>
</trkpt>
<trkpt lat="49.52885434962809" lon="9.310186374932528">
<ele>309</ele>
<time>2024-05-09T15:00:55Z</time>
</trkpt>
<trkpt lat="49.52882383950055" lon="9.310223506763576">
<ele>309</ele>
<time>2024-05-09T15:00:56Z</time>
</trkpt>
<trkpt lat="49.52879710122943" lon="9.310266422107816">
<ele>309.4</ele>
<time>2024-05-09T15:00:57Z</time>
</trkpt>
<trkpt lat="49.528770446777344" lon="9.31031696498394">
<ele>309.6</ele>
<time>2024-05-09T15:00:58Z</time>
</trkpt>
<trkpt lat="49.52873985283077" lon="9.310363736003636">
<ele>309.8</ele>
<time>2024-05-09T15:00:59Z</time>
</trkpt>
<trkpt lat="49.52871697023511" lon="9.31039810180664">
<ele>310</ele>
<time>2024-05-09T15:01:00Z</time>
</trkpt>
<trkpt lat="49.528686460107565" lon="9.310438083484769">
<ele>310</ele>
<time>2024-05-09T15:01:01Z</time>
</trkpt>
<trkpt lat="49.52866357751191" lon="9.310478148981929">
<ele>310.2</ele>
<time>2024-05-09T15:01:02Z</time>
</trkpt>
<trkpt lat="49.52863306738436" lon="9.31051536463201">
<ele>310.4</ele>
<time>2024-05-09T15:01:03Z</time>
</trkpt>
<trkpt lat="49.52860641293228" lon="9.31055543012917">
<ele>310.6</ele>
<time>2024-05-09T15:01:04Z</time>
</trkpt>
<trkpt lat="49.5285758189857" lon="9.310591639950871">
<ele>310.8</ele>
<time>2024-05-09T15:01:05Z</time>
</trkpt>
<trkpt lat="49.52855293639004" lon="9.310629777610302">
<ele>311</ele>
<time>2024-05-09T15:01:06Z</time>
</trkpt>
<trkpt lat="49.52852628193796" lon="9.310666993260384">
<ele>311.2</ele>
<time>2024-05-09T15:01:07Z</time>
</trkpt>
<trkpt lat="49.52849954366684" lon="9.31069465354085">
<ele>311.4</ele>
<time>2024-05-09T15:01:08Z</time>
</trkpt>
<trkpt lat="49.52846526168287" lon="9.310725163668394">
<ele>311.6</ele>
<time>2024-05-09T15:01:09Z</time>
</trkpt>
<trkpt lat="49.52843475155533" lon="9.310759529471396">
<ele>311.8</ele>
<time>2024-05-09T15:01:10Z</time>
</trkpt>
<trkpt lat="49.528411785140634" lon="9.310799594968556">
<ele>312</ele>
<time>2024-05-09T15:01:11Z</time>
</trkpt>
<trkpt lat="49.52838513068855" lon="9.310838654637337">
<ele>312.2</ele>
<time>2024-05-09T15:01:12Z</time>
</trkpt>
<trkpt lat="49.52835839241743" lon="9.310878720134497">
<ele>312.4</ele>
<time>2024-05-09T15:01:13Z</time>
</trkpt>
<trkpt lat="49.52832788228989" lon="9.310914929956198">
<ele>312.6</ele>
<time>2024-05-09T15:01:14Z</time>
</trkpt>
<trkpt lat="49.52830499969423" lon="9.31095122359693">
<ele>312.8</ele>
<time>2024-05-09T15:01:15Z</time>
</trkpt>
<trkpt lat="49.52828211709857" lon="9.31099028326571">
<ele>313</ele>
<time>2024-05-09T15:01:16Z</time>
</trkpt>
<trkpt lat="49.52825923450291" lon="9.311026493087413">
<ele>313.4</ele>
<time>2024-05-09T15:01:17Z</time>
</trkpt>
<trkpt lat="49.52823635190725" lon="9.311064714565871">
<ele>313.6</ele>
<time>2024-05-09T15:01:18Z</time>
</trkpt>
<trkpt lat="49.528213469311595" lon="9.311104696244">
<ele>314</ele>
<time>2024-05-09T15:01:19Z</time>
</trkpt>
<trkpt lat="49.52819058671594" lon="9.311139984056354">
<ele>314.2</ele>
<time>2024-05-09T15:01:20Z</time>
</trkpt>
<trkpt lat="49.52816770412028" lon="9.311181977391245">
<ele>314.4</ele>
<time>2024-05-09T15:01:21Z</time>
</trkpt>
<trkpt lat="49.52814859338105" lon="9.311218187212944">
<ele>314.8</ele>
<time>2024-05-09T15:01:22Z</time>
</trkpt>
<trkpt lat="49.52812571078539" lon="9.311255402863026">
<ele>315</ele>
<time>2024-05-09T15:01:23Z</time>
</trkpt>
<trkpt lat="49.52810282818973" lon="9.311289768666027">
<ele>315.2</ele>
<time>2024-05-09T15:01:24Z</time>
</trkpt>
<trkpt lat="49.52807994559407" lon="9.31132790632546">
<ele>315.4</ele>
<time>2024-05-09T15:01:25Z</time>
</trkpt>
<trkpt lat="49.528057062998414" lon="9.31136512197554">
<ele>315.4</ele>
<time>2024-05-09T15:01:26Z</time>
</trkpt>
<trkpt lat="49.52803418040275" lon="9.311398481950164">
<ele>315.6</ele>
<time>2024-05-09T15:01:27Z</time>
</trkpt>
<trkpt lat="49.5280112978071" lon="9.311429914087055">
<ele>315.8</ele>
<time>2024-05-09T15:01:28Z</time>
</trkpt>
<trkpt lat="49.52798841521144" lon="9.311459502205253">
<ele>316</ele>
<time>2024-05-09T15:01:29Z</time>
</trkpt>
<trkpt lat="49.52796553261578" lon="9.311490012332795">
<ele>316.4</ele>
<time>2024-05-09T15:01:30Z</time>
</trkpt>
<trkpt lat="49.52794265002012" lon="9.31152337230742">
<ele>316.6</ele>
<time>2024-05-09T15:01:31Z</time>
</trkpt>
<trkpt lat="49.52792353928089" lon="9.311566287651658">
<ele>317</ele>
<time>2024-05-09T15:01:32Z</time>
</trkpt>
<trkpt lat="49.52790442854166" lon="9.311608280986547">
<ele>317.2</ele>
<time>2024-05-09T15:01:33Z</time>
</trkpt>
<trkpt lat="49.527881545946" lon="9.311644490808249">
<ele>317.6</ele>
<time>2024-05-09T15:01:34Z</time>
</trkpt>
<trkpt lat="49.52785489149392" lon="9.311684556305408">
<ele>318</ele>
<time>2024-05-09T15:01:35Z</time>
</trkpt>
<trkpt lat="49.52783200889826" lon="9.311726549640298">
<ele>318.4</ele>
<time>2024-05-09T15:01:36Z</time>
</trkpt>
<trkpt lat="49.52780527062714" lon="9.311764687299728">
<ele>318.8</ele>
<time>2024-05-09T15:01:37Z</time>
</trkpt>
<trkpt lat="49.527778616175056" lon="9.311808524653316">
<ele>319</ele>
<time>2024-05-09T15:01:38Z</time>
</trkpt>
<trkpt lat="49.5277557335794" lon="9.31184004060924">
<ele>319.4</ele>
<time>2024-05-09T15:01:39Z</time>
</trkpt>
<trkpt lat="49.52773276716471" lon="9.311876250430942">
<ele>319.8</ele>
<time>2024-05-09T15:01:40Z</time>
</trkpt>
<trkpt lat="49.52771374024451" lon="9.311915393918753">
<ele>320.2</ele>
<time>2024-05-09T15:01:41Z</time>
</trkpt>
<trkpt lat="49.52769462950528" lon="9.311953531578183">
<ele>320.4</ele>
<time>2024-05-09T15:01:42Z</time>
</trkpt>
<trkpt lat="49.52767560258508" lon="9.31199644692242">
<ele>320.8</ele>
<time>2024-05-09T15:01:43Z</time>
</trkpt>
<trkpt lat="49.527656491845846" lon="9.312034584581852">
<ele>321.2</ele>
<time>2024-05-09T15:01:44Z</time>
</trkpt>
<trkpt lat="49.527641236782074" lon="9.312073644250631">
<ele>321.6</ele>
<time>2024-05-09T15:01:45Z</time>
</trkpt>
<trkpt lat="49.527622209861875" lon="9.312103232368829">
<ele>321.8</ele>
<time>2024-05-09T15:01:46Z</time>
</trkpt>
<trkpt lat="49.52760309912264" lon="9.312131814658642">
<ele>322.2</ele>
<time>2024-05-09T15:01:47Z</time>
</trkpt>
<trkpt lat="49.52758784405887" lon="9.312165258452296">
<ele>322.4</ele>
<time>2024-05-09T15:01:48Z</time>
</trkpt>
<trkpt lat="49.5275725889951" lon="9.312201468273996">
<ele>322.8</ele>
<time>2024-05-09T15:01:49Z</time>
</trkpt>
<trkpt lat="49.52755733393133" lon="9.31223868392408">
<ele>323.2</ele>
<time>2024-05-09T15:01:50Z</time>
</trkpt>
<trkpt lat="49.527542078867555" lon="9.31227296590805">
<ele>323.4</ele>
<time>2024-05-09T15:01:51Z</time>
</trkpt>
<trkpt lat="49.52752682380378" lon="9.312305403873324">
<ele>323.8</ele>
<time>2024-05-09T15:01:52Z</time>
</trkpt>
<trkpt lat="49.52751534059644" lon="9.312343541532757">
<ele>324.2</ele>
<time>2024-05-09T15:01:53Z</time>
</trkpt>
<trkpt lat="49.52750771306455" lon="9.312377907335758">
<ele>324.6</ele>
<time>2024-05-09T15:01:54Z</time>
</trkpt>
<trkpt lat="49.52749631367624" lon="9.312416967004538">
<ele>324.8</ele>
<time>2024-05-09T15:01:55Z</time>
</trkpt>
<trkpt lat="49.52748868614435" lon="9.312455104663968">
<ele>325</ele>
<time>2024-05-09T15:01:56Z</time>
</trkpt>
<trkpt lat="49.527481058612466" lon="9.3124932423234">
<ele>325.2</ele>
<time>2024-05-09T15:01:57Z</time>
</trkpt>
<trkpt lat="49.527481058612466" lon="9.31252853013575">
<ele>325.4</ele>
<time>2024-05-09T15:01:58Z</time>
</trkpt>
<trkpt lat="49.527481058612466" lon="9.312562895938754">
<ele>325.6</ele>
<time>2024-05-09T15:01:59Z</time>
</trkpt>
<trkpt lat="49.52748483046889" lon="9.312586784362791">
<ele>325.8</ele>
<time>2024-05-09T15:02:00Z</time>
</trkpt>
<trkpt lat="49.52748483046889" lon="9.312611510977147">
<ele>326</ele>
<time>2024-05-09T15:02:01Z</time>
</trkpt>
<trkpt lat="49.527481058612466" lon="9.312616288661957">
<ele>326.2</ele>
<time>2024-05-09T15:02:02Z</time>
</trkpt>
<trkpt lat="49.527481058612466" lon="9.312618216499686">
<ele>326.2</ele>
<time>2024-05-09T15:02:04Z</time>
</trkpt>
<trkpt lat="49.527481058612466" lon="9.312621988356112">
<ele>326.4</ele>
<time>2024-05-09T15:02:06Z</time>
</trkpt>
<trkpt lat="49.527481058612466" lon="9.312624922022223">
<ele>326.4</ele>
<time>2024-05-09T15:02:07Z</time>
</trkpt>
<trkpt lat="49.527481058612466" lon="9.312622994184494">
<ele>326.6</ele>
<time>2024-05-09T15:02:08Z</time>
</trkpt>
<trkpt lat="49.527481058612466" lon="9.312621988356112">
<ele>326.6</ele>
<time>2024-05-09T15:02:09Z</time>
</trkpt>
<trkpt lat="49.52747720293701" lon="9.312620144337416">
<ele>326.6</ele>
<time>2024-05-09T15:02:11Z</time>
</trkpt>
<trkpt lat="49.52747343108058" lon="9.312629699707031">
<ele>326.6</ele>
<time>2024-05-09T15:02:14Z</time>
</trkpt>
<trkpt lat="49.527465803548694" lon="9.312640177085996">
<ele>326.6</ele>
<time>2024-05-09T15:02:15Z</time>
</trkpt>
<trkpt lat="49.52745432034135" lon="9.31264964863658">
<ele>326.6</ele>
<time>2024-05-09T15:02:16Z</time>
</trkpt>
<trkpt lat="49.52744669280946" lon="9.312663059681654">
<ele>326.6</ele>
<time>2024-05-09T15:02:17Z</time>
</trkpt>
<trkpt lat="49.527439065277576" lon="9.312671609222887">
<ele>326.6</ele>
<time>2024-05-09T15:02:18Z</time>
</trkpt>
<trkpt lat="49.527439065277576" lon="9.312681164592505">
<ele>326.4</ele>
<time>2024-05-09T15:02:19Z</time>
</trkpt>
<trkpt lat="49.527439065277576" lon="9.312687870115042">
<ele>326.4</ele>
<time>2024-05-09T15:02:20Z</time>
</trkpt>
<trkpt lat="49.527439065277576" lon="9.312696419656277">
<ele>326.4</ele>
<time>2024-05-09T15:02:21Z</time>
</trkpt>
<trkpt lat="49.527439065277576" lon="9.312700191512704">
<ele>326.4</ele>
<time>2024-05-09T15:02:22Z</time>
</trkpt>
<trkpt lat="49.527439065277576" lon="9.312701197341084">
<ele>326.4</ele>
<time>2024-05-09T15:02:23Z</time>
</trkpt>
<trkpt lat="49.527439065277576" lon="9.312703125178814">
<ele>326.4</ele>
<time>2024-05-09T15:02:24Z</time>
</trkpt>
<trkpt lat="49.52743529342115" lon="9.312703125178814">
<ele>326.4</ele>
<time>2024-05-09T15:02:25Z</time>
</trkpt>
<trkpt lat="49.52743529342115" lon="9.31270689703524">
<ele>326.4</ele>
<time>2024-05-09T15:02:26Z</time>
</trkpt>
<trkpt lat="49.52743143774569" lon="9.31270781904459">
<ele>326.4</ele>
<time>2024-05-09T15:02:27Z</time>
</trkpt>
<trkpt lat="49.52743143774569" lon="9.31270974688232">
<ele>326.4</ele>
<time>2024-05-09T15:02:29Z</time>
</trkpt>
<trkpt lat="49.52743143774569" lon="9.312711674720047">
<ele>326.4</ele>
<time>2024-05-09T15:02:30Z</time>
</trkpt>
<trkpt lat="49.52743143774569" lon="9.312713602557778">
<ele>326.4</ele>
<time>2024-05-09T15:02:32Z</time>
</trkpt>
<trkpt lat="49.52743143774569" lon="9.312714524567127">
<ele>326.4</ele>
<time>2024-05-09T15:02:33Z</time>
</trkpt>
<trkpt lat="49.52742766588926" lon="9.312714524567127">
<ele>326.4</ele>
<time>2024-05-09T15:02:37Z</time>
</trkpt>
<trkpt lat="49.52742766588926" lon="9.312716452404857">
<ele>326.4</ele>
<time>2024-05-09T15:02:39Z</time>
</trkpt>
<trkpt lat="49.52742381021381" lon="9.312716452404857">
<ele>326.4</ele>
<time>2024-05-09T15:02:43Z</time>
</trkpt>
<trkpt lat="49.52742003835738" lon="9.312731707468629">
<ele>326.2</ele>
<time>2024-05-09T15:02:45Z</time>
</trkpt>
<trkpt lat="49.52741618268192" lon="9.312756517902017">
<ele>326.2</ele>
<time>2024-05-09T15:02:46Z</time>
</trkpt>
<trkpt lat="49.52741618268192" lon="9.312783172354102">
<ele>326</ele>
<time>2024-05-09T15:02:47Z</time>
</trkpt>
<trkpt lat="49.52741618268192" lon="9.312816616147757">
<ele>326</ele>
<time>2024-05-09T15:02:48Z</time>
</trkpt>
<trkpt lat="49.52740855515003" lon="9.312843270599842">
<ele>326</ele>
<time>2024-05-09T15:02:49Z</time>
</trkpt>
<trkpt lat="49.52739715576172" lon="9.312876630574465">
<ele>325.8</ele>
<time>2024-05-09T15:02:50Z</time>
</trkpt>
<trkpt lat="49.527381816878915" lon="9.31290621869266">
<ele>325.8</ele>
<time>2024-05-09T15:02:51Z</time>
</trkpt>
<trkpt lat="49.52736656181514" lon="9.312939578667285">
<ele>325.8</ele>
<time>2024-05-09T15:02:52Z</time>
</trkpt>
<trkpt lat="49.52735516242683" lon="9.312974866479635">
<ele>325.8</ele>
<time>2024-05-09T15:02:53Z</time>
</trkpt>
<trkpt lat="49.52733990736306" lon="9.313014931976795">
<ele>325.8</ele>
<time>2024-05-09T15:02:54Z</time>
</trkpt>
<trkpt lat="49.527320796623826" lon="9.313054997473955">
<ele>325.8</ele>
<time>2024-05-09T15:02:55Z</time>
</trkpt>
<trkpt lat="49.527305541560054" lon="9.313099840655925">
<ele>325.8</ele>
<time>2024-05-09T15:02:56Z</time>
</trkpt>
<trkpt lat="49.52729028649628" lon="9.31314367800951">
<ele>325.8</ele>
<time>2024-05-09T15:02:57Z</time>
</trkpt>
<trkpt lat="49.52727503143251" lon="9.313191371038556">
<ele>325.8</ele>
<time>2024-05-09T15:02:58Z</time>
</trkpt>
<trkpt lat="49.52725977636874" lon="9.313238142058252">
<ele>325.8</ele>
<time>2024-05-09T15:02:59Z</time>
</trkpt>
<trkpt lat="49.527244521304965" lon="9.313286757096648">
<ele>325.8</ele>
<time>2024-05-09T15:03:00Z</time>
</trkpt>
<trkpt lat="49.52722163870931" lon="9.313331600278616">
<ele>325.8</ele>
<time>2024-05-09T15:03:01Z</time>
</trkpt>
<trkpt lat="49.527206383645535" lon="9.31338113732636">
<ele>325.8</ele>
<time>2024-05-09T15:03:02Z</time>
</trkpt>
<trkpt lat="49.5271872729063" lon="9.313431680202484">
<ele>326</ele>
<time>2024-05-09T15:03:03Z</time>
</trkpt>
<trkpt lat="49.52717201784253" lon="9.313483228906987">
<ele>326</ele>
<time>2024-05-09T15:03:04Z</time>
</trkpt>
<trkpt lat="49.52715299092233" lon="9.313533771783112">
<ele>326.2</ele>
<time>2024-05-09T15:03:05Z</time>
</trkpt>
<trkpt lat="49.5271338801831" lon="9.313585236668589">
<ele>326.2</ele>
<time>2024-05-09T15:03:06Z</time>
</trkpt>
<trkpt lat="49.5271148532629" lon="9.31363670155406">
<ele>326.4</ele>
<time>2024-05-09T15:03:07Z</time>
</trkpt>
<trkpt lat="49.52709959819913" lon="9.3136967997998">
<ele>326.4</ele>
<time>2024-05-09T15:03:08Z</time>
</trkpt>
<trkpt lat="49.5270804874599" lon="9.313753126189113">
<ele>326.6</ele>
<time>2024-05-09T15:03:09Z</time>
</trkpt>
<trkpt lat="49.5270614605397" lon="9.313808362931011">
<ele>326.8</ele>
<time>2024-05-09T15:03:10Z</time>
</trkpt>
<trkpt lat="49.52704234980047" lon="9.313863683491943">
<ele>326.8</ele>
<time>2024-05-09T15:03:11Z</time>
</trkpt>
<trkpt lat="49.52702323906123" lon="9.313918082043529">
<ele>327</ele>
<time>2024-05-09T15:03:12Z</time>
</trkpt>
<trkpt lat="49.52700035646558" lon="9.31397340260446">
<ele>327.2</ele>
<time>2024-05-09T15:03:13Z</time>
</trkpt>
<trkpt lat="49.526985101401806" lon="9.31403635069728">
<ele>327.4</ele>
<time>2024-05-09T15:03:14Z</time>
</trkpt>
<trkpt lat="49.52695844694972" lon="9.314100220799446">
<ele>327.4</ele>
<time>2024-05-09T15:03:15Z</time>
</trkpt>
<trkpt lat="49.52693556435406" lon="9.314158391207457">
<ele>327.6</ele>
<time>2024-05-09T15:03:16Z</time>
</trkpt>
<trkpt lat="49.52691645361483" lon="9.314213711768389">
<ele>327.8</ele>
<time>2024-05-09T15:03:17Z</time>
</trkpt>
<trkpt lat="49.52689742669463" lon="9.3142718821764">
<ele>328</ele>
<time>2024-05-09T15:03:18Z</time>
</trkpt>
<trkpt lat="49.52688217163086" lon="9.314332902431488">
<ele>328.2</ele>
<time>2024-05-09T15:03:19Z</time>
</trkpt>
<trkpt lat="49.526866832748055" lon="9.314394928514956">
<ele>328.2</ele>
<time>2024-05-09T15:03:20Z</time>
</trkpt>
<trkpt lat="49.526847805827856" lon="9.314459720626472">
<ele>328.4</ele>
<time>2024-05-09T15:03:21Z</time>
</trkpt>
<trkpt lat="49.526828695088625" lon="9.314516969025137">
<ele>328.6</ele>
<time>2024-05-09T15:03:22Z</time>
</trkpt>
<trkpt lat="49.52681344002485" lon="9.314575139433146">
<ele>328.6</ele>
<time>2024-05-09T15:03:23Z</time>
</trkpt>
<trkpt lat="49.526790557429194" lon="9.314631382003428">
<ele>328.6</ele>
<time>2024-05-09T15:03:24Z</time>
</trkpt>
<trkpt lat="49.526771530508995" lon="9.31468670256436">
<ele>328.6</ele>
<time>2024-05-09T15:03:25Z</time>
</trkpt>
<trkpt lat="49.52675241976976" lon="9.314748728647828">
<ele>328.6</ele>
<time>2024-05-09T15:03:26Z</time>
</trkpt>
<trkpt lat="49.526733392849565" lon="9.314813604578376">
<ele>328.6</ele>
<time>2024-05-09T15:03:27Z</time>
</trkpt>
<trkpt lat="49.52671813778579" lon="9.314878396689892">
<ele>328.6</ele>
<time>2024-05-09T15:03:28Z</time>
</trkpt>
<trkpt lat="49.5266951713711" lon="9.314938494935632">
<ele>328.6</ele>
<time>2024-05-09T15:03:29Z</time>
</trkpt>
<trkpt lat="49.5266761444509" lon="9.314998593181372">
<ele>328.6</ele>
<time>2024-05-09T15:03:30Z</time>
</trkpt>
<trkpt lat="49.52665703371167" lon="9.31505961343646">
<ele>328.4</ele>
<time>2024-05-09T15:03:31Z</time>
</trkpt>
<trkpt lat="49.52663415111601" lon="9.31512163951993">
<ele>328.4</ele>
<time>2024-05-09T15:03:32Z</time>
</trkpt>
<trkpt lat="49.526615124195814" lon="9.31517980992794">
<ele>328.2</ele>
<time>2024-05-09T15:03:33Z</time>
</trkpt>
<trkpt lat="49.52659224160016" lon="9.315243680030107">
<ele>328.2</ele>
<time>2024-05-09T15:03:34Z</time>
</trkpt>
<trkpt lat="49.52656550332904" lon="9.315301850438118">
<ele>328</ele>
<time>2024-05-09T15:03:35Z</time>
</trkpt>
<trkpt lat="49.52654262073338" lon="9.315361948683858">
<ele>328</ele>
<time>2024-05-09T15:03:36Z</time>
</trkpt>
<trkpt lat="49.52651588246226" lon="9.315422046929598">
<ele>328</ele>
<time>2024-05-09T15:03:37Z</time>
</trkpt>
<trkpt lat="49.526492999866605" lon="9.315481139346955">
<ele>327.8</ele>
<time>2024-05-09T15:03:38Z</time>
</trkpt>
<trkpt lat="49.52646634541452" lon="9.315541237592695">
<ele>327.8</ele>
<time>2024-05-09T15:03:39Z</time>
</trkpt>
<trkpt lat="49.5264396071434" lon="9.31559848599136">
<ele>328</ele>
<time>2024-05-09T15:03:40Z</time>
</trkpt>
<trkpt lat="49.526416724547744" lon="9.315658500418069">
<ele>328</ele>
<time>2024-05-09T15:03:41Z</time>
</trkpt>
<trkpt lat="49.52639007009566" lon="9.31571289896965">
<ele>327.8</ele>
<time>2024-05-09T15:03:42Z</time>
</trkpt>
<trkpt lat="49.52636333182454" lon="9.315768219530582">
<ele>327.8</ele>
<time>2024-05-09T15:03:43Z</time>
</trkpt>
<trkpt lat="49.526336593553424" lon="9.315823540091516">
<ele>327.6</ele>
<time>2024-05-09T15:03:44Z</time>
</trkpt>
<trkpt lat="49.52630608342588" lon="9.315876932814716">
<ele>327.6</ele>
<time>2024-05-09T15:03:45Z</time>
</trkpt>
<trkpt lat="49.526275573298335" lon="9.315935103222728">
<ele>327.4</ele>
<time>2024-05-09T15:03:46Z</time>
</trkpt>
<trkpt lat="49.52624891884625" lon="9.315998051315546">
<ele>327.4</ele>
<time>2024-05-09T15:03:47Z</time>
</trkpt>
<trkpt lat="49.52622218057513" lon="9.316055215895176">
<ele>327.2</ele>
<time>2024-05-09T15:03:48Z</time>
</trkpt>
<trkpt lat="49.52619167044759" lon="9.316111542284489">
<ele>327.2</ele>
<time>2024-05-09T15:03:49Z</time>
</trkpt>
<trkpt lat="49.52616493217647" lon="9.31616686284542">
<ele>327.2</ele>
<time>2024-05-09T15:03:50Z</time>
</trkpt>
<trkpt lat="49.526138277724385" lon="9.316221177577972">
<ele>327.2</ele>
<time>2024-05-09T15:03:51Z</time>
</trkpt>
<trkpt lat="49.52610776759684" lon="9.316278425976634">
<ele>327.2</ele>
<time>2024-05-09T15:03:52Z</time>
</trkpt>
<trkpt lat="49.52608488500118" lon="9.316334668546917">
<ele>327.2</ele>
<time>2024-05-09T15:03:53Z</time>
</trkpt>
<trkpt lat="49.526058146730065" lon="9.316392838954926">
<ele>327.4</ele>
<time>2024-05-09T15:03:54Z</time>
</trkpt>
<trkpt lat="49.52603526413441" lon="9.316452015191317">
<ele>327.4</ele>
<time>2024-05-09T15:03:55Z</time>
</trkpt>
<trkpt lat="49.52601238153875" lon="9.316512029618025">
<ele>327.4</ele>
<time>2024-05-09T15:03:56Z</time>
</trkpt>
<trkpt lat="49.52598949894309" lon="9.316570200026035">
<ele>327.2</ele>
<time>2024-05-09T15:03:57Z</time>
</trkpt>
<trkpt lat="49.52596276067197" lon="9.316630298271775">
<ele>327.2</ele>
<time>2024-05-09T15:03:58Z</time>
</trkpt>
<trkpt lat="49.525939878076315" lon="9.316693246364594">
<ele>327.2</ele>
<time>2024-05-09T15:03:59Z</time>
</trkpt>
<trkpt lat="49.525920851156116" lon="9.316756194457412">
<ele>327.2</ele>
<time>2024-05-09T15:04:00Z</time>
</trkpt>
<trkpt lat="49.52590174041688" lon="9.31681822054088">
<ele>327.2</ele>
<time>2024-05-09T15:04:01Z</time>
</trkpt>
<trkpt lat="49.525882713496685" lon="9.31688016280532">
<ele>327.2</ele>
<time>2024-05-09T15:04:02Z</time>
</trkpt>
<trkpt lat="49.52585983090103" lon="9.31694026105106">
<ele>327.2</ele>
<time>2024-05-09T15:04:03Z</time>
</trkpt>
<trkpt lat="49.52584072016179" lon="9.3170003592968">
<ele>327.2</ele>
<time>2024-05-09T15:04:04Z</time>
</trkpt>
<trkpt lat="49.52582546509802" lon="9.31706045754254">
<ele>327.2</ele>
<time>2024-05-09T15:04:05Z</time>
</trkpt>
<trkpt lat="49.52581021003425" lon="9.31711862795055">
<ele>327.4</ele>
<time>2024-05-09T15:04:06Z</time>
</trkpt>
<trkpt lat="49.525798726826906" lon="9.317178726196287">
<ele>327.6</ele>
<time>2024-05-09T15:04:07Z</time>
</trkpt>
<trkpt lat="49.52577969990671" lon="9.317237818613648">
<ele>327.6</ele>
<time>2024-05-09T15:04:08Z</time>
</trkpt>
<trkpt lat="49.525764444842935" lon="9.317299760878086">
<ele>327.8</ele>
<time>2024-05-09T15:04:09Z</time>
</trkpt>
<trkpt lat="49.5257453341037" lon="9.317361786961555">
<ele>328</ele>
<time>2024-05-09T15:04:10Z</time>
</trkpt>
<trkpt lat="49.52573007903993" lon="9.317426662892103">
<ele>328.2</ele>
<time>2024-05-09T15:04:11Z</time>
</trkpt>
<trkpt lat="49.52571482397616" lon="9.31748860515654">
<ele>328.4</ele>
<time>2024-05-09T15:04:12Z</time>
</trkpt>
<trkpt lat="49.525703424587846" lon="9.31755155324936">
<ele>328.6</ele>
<time>2024-05-09T15:04:13Z</time>
</trkpt>
<trkpt lat="49.525684313848615" lon="9.31760972365737">
<ele>329</ele>
<time>2024-05-09T15:04:14Z</time>
</trkpt>
<trkpt lat="49.52566905878484" lon="9.317674599587916">
<ele>329.2</ele>
<time>2024-05-09T15:04:15Z</time>
</trkpt>
<trkpt lat="49.52564994804561" lon="9.317738469690084">
<ele>329.4</ele>
<time>2024-05-09T15:04:16Z</time>
</trkpt>
<trkpt lat="49.52563092112541" lon="9.317799489945171">
<ele>329.8</ele>
<time>2024-05-09T15:04:17Z</time>
</trkpt>
<trkpt lat="49.52561181038618" lon="9.317861516028644">
<ele>330</ele>
<time>2024-05-09T15:04:18Z</time>
</trkpt>
<trkpt lat="49.52558892779052" lon="9.317928235977888">
<ele>330</ele>
<time>2024-05-09T15:04:19Z</time>
</trkpt>
<trkpt lat="49.52557367272675" lon="9.317993111908436">
<ele>330.2</ele>
<time>2024-05-09T15:04:20Z</time>
</trkpt>
<trkpt lat="49.52555841766298" lon="9.318057987838984">
<ele>330.4</ele>
<time>2024-05-09T15:04:21Z</time>
</trkpt>
<trkpt lat="49.525543162599206" lon="9.318128563463688">
<ele>330.4</ele>
<time>2024-05-09T15:04:22Z</time>
</trkpt>
<trkpt lat="49.52552028000355" lon="9.318188661709428">
<ele>330.6</ele>
<time>2024-05-09T15:04:23Z</time>
</trkpt>
<trkpt lat="49.525505024939775" lon="9.318249681964517">
<ele>330.6</ele>
<time>2024-05-09T15:04:24Z</time>
</trkpt>
<trkpt lat="49.525485914200544" lon="9.318311624228954">
<ele>330.8</ele>
<time>2024-05-09T15:04:25Z</time>
</trkpt>
<trkpt lat="49.525466887280345" lon="9.318376500159502">
<ele>331</ele>
<time>2024-05-09T15:04:26Z</time>
</trkpt>
<trkpt lat="49.52545163221657" lon="9.318438526242971">
<ele>331.2</ele>
<time>2024-05-09T15:04:27Z</time>
</trkpt>
<trkpt lat="49.525428749620914" lon="9.31849954649806">
<ele>331.4</ele>
<time>2024-05-09T15:04:28Z</time>
</trkpt>
<trkpt lat="49.52540963888168" lon="9.318563416600227">
<ele>331.6</ele>
<time>2024-05-09T15:04:29Z</time>
</trkpt>
<trkpt lat="49.525386756286025" lon="9.318621587008238">
<ele>331.6</ele>
<time>2024-05-09T15:04:30Z</time>
</trkpt>
<trkpt lat="49.52536010183394" lon="9.318681685253978">
<ele>331.8</ele>
<time>2024-05-09T15:04:31Z</time>
</trkpt>
<trkpt lat="49.52534099109471" lon="9.31873792782426">
<ele>331.8</ele>
<time>2024-05-09T15:04:32Z</time>
</trkpt>
<trkpt lat="49.52531810849905" lon="9.318793248385193">
<ele>331.8</ele>
<time>2024-05-09T15:04:33Z</time>
</trkpt>
<trkpt lat="49.52529899775982" lon="9.318849490955472">
<ele>331.8</ele>
<time>2024-05-09T15:04:34Z</time>
</trkpt>
<trkpt lat="49.52527997083962" lon="9.318909589201212">
<ele>332</ele>
<time>2024-05-09T15:04:35Z</time>
</trkpt>
<trkpt lat="49.5252532325685" lon="9.318962059915066">
<ele>332</ele>
<time>2024-05-09T15:04:36Z</time>
</trkpt>
<trkpt lat="49.52523034997285" lon="9.31901453062892">
<ele>332.2</ele>
<time>2024-05-09T15:04:37Z</time>
</trkpt>
<trkpt lat="49.525207467377186" lon="9.319067001342772">
<ele>332.4</ele>
<time>2024-05-09T15:04:38Z</time>
</trkpt>
<trkpt lat="49.52518458478153" lon="9.319116538390515">
<ele>332.6</ele>
<time>2024-05-09T15:04:39Z</time>
</trkpt>
<trkpt lat="49.52515784651041" lon="9.319168087095022">
<ele>332.8</ele>
<time>2024-05-09T15:04:40Z</time>
</trkpt>
<trkpt lat="49.52513496391475" lon="9.319221479818223">
<ele>332.8</ele>
<time>2024-05-09T15:04:41Z</time>
</trkpt>
<trkpt lat="49.525112081319094" lon="9.319274872541428">
<ele>333</ele>
<time>2024-05-09T15:04:42Z</time>
</trkpt>
<trkpt lat="49.525089198723435" lon="9.3193263374269">
<ele>333</ele>
<time>2024-05-09T15:04:43Z</time>
</trkpt>
<trkpt lat="49.52506631612778" lon="9.319379730150104">
<ele>333.2</ele>
<time>2024-05-09T15:04:44Z</time>
</trkpt>
<trkpt lat="49.52504343353212" lon="9.319433206692338">
<ele>333.2</ele>
<time>2024-05-09T15:04:45Z</time>
</trkpt>
<trkpt lat="49.52501677908003" lon="9.31948659941554">
<ele>333.2</ele>
<time>2024-05-09T15:04:46Z</time>
</trkpt>
<trkpt lat="49.52499004080891" lon="9.319539992138743">
<ele>333.4</ele>
<time>2024-05-09T15:04:47Z</time>
</trkpt>
<trkpt lat="49.52496715821326" lon="9.319593384861946">
<ele>333.4</ele>
<time>2024-05-09T15:04:48Z</time>
</trkpt>
<trkpt lat="49.52494041994214" lon="9.31964484974742">
<ele>333.4</ele>
<time>2024-05-09T15:04:49Z</time>
</trkpt>
<trkpt lat="49.524913765490055" lon="9.319698326289654">
<ele>333.4</ele>
<time>2024-05-09T15:04:50Z</time>
</trkpt>
<trkpt lat="49.52488702721894" lon="9.319751719012856">
<ele>333.6</ele>
<time>2024-05-09T15:04:51Z</time>
</trkpt>
<trkpt lat="49.52486414462328" lon="9.319807039573789">
<ele>333.6</ele>
<time>2024-05-09T15:04:52Z</time>
</trkpt>
<trkpt lat="49.52484126202762" lon="9.31986328214407">
<ele>333.8</ele>
<time>2024-05-09T15:04:53Z</time>
</trkpt>
<trkpt lat="49.524814523756504" lon="9.319914747029545">
<ele>334</ele>
<time>2024-05-09T15:04:54Z</time>
</trkpt>
<trkpt lat="49.52478786930442" lon="9.319968223571776">
<ele>334</ele>
<time>2024-05-09T15:04:55Z</time>
</trkpt>
<trkpt lat="49.52476498670876" lon="9.320023460313678">
<ele>334.2</ele>
<time>2024-05-09T15:04:56Z</time>
</trkpt>
<trkpt lat="49.52473824843764" lon="9.32007785886526">
<ele>334.2</ele>
<time>2024-05-09T15:04:57Z</time>
</trkpt>
<trkpt lat="49.52471159398556" lon="9.320130329579117">
<ele>334.4</ele>
<time>2024-05-09T15:04:58Z</time>
</trkpt>
<trkpt lat="49.52468108385801" lon="9.320181794464588">
<ele>334.4</ele>
<time>2024-05-09T15:04:59Z</time>
</trkpt>
<trkpt lat="49.524654345586896" lon="9.320230409502985">
<ele>334.4</ele>
<time>2024-05-09T15:05:00Z</time>
</trkpt>
<trkpt lat="49.52462383545935" lon="9.32027810253203">
<ele>334.6</ele>
<time>2024-05-09T15:05:01Z</time>
</trkpt>
<trkpt lat="49.52459332533181" lon="9.320328645408154">
<ele>334.6</ele>
<time>2024-05-09T15:05:02Z</time>
</trkpt>
<trkpt lat="49.52456658706069" lon="9.3203763384372">
<ele>334.6</ele>
<time>2024-05-09T15:05:03Z</time>
</trkpt>
<trkpt lat="49.524536076933146" lon="9.320424953475596">
<ele>334.6</ele>
<time>2024-05-09T15:05:04Z</time>
</trkpt>
<trkpt lat="49.524501794949174" lon="9.320467868819833">
<ele>334.6</ele>
<time>2024-05-09T15:05:05Z</time>
</trkpt>
<trkpt lat="49.52446742914617" lon="9.320509862154722">
<ele>334.8</ele>
<time>2024-05-09T15:05:06Z</time>
</trkpt>
<trkpt lat="49.524436919018626" lon="9.320551855489612">
<ele>334.8</ele>
<time>2024-05-09T15:05:07Z</time>
</trkpt>
<trkpt lat="49.52440255321562" lon="9.32059477083385">
<ele>335</ele>
<time>2024-05-09T15:05:08Z</time>
</trkpt>
<trkpt lat="49.52436827123165" lon="9.32063483633101">
<ele>335</ele>
<time>2024-05-09T15:05:09Z</time>
</trkpt>
<trkpt lat="49.52433390542865" lon="9.32067297399044">
<ele>335.2</ele>
<time>2024-05-09T15:05:10Z</time>
</trkpt>
<trkpt lat="49.524299539625645" lon="9.32071203365922">
<ele>335.2</ele>
<time>2024-05-09T15:05:11Z</time>
</trkpt>
<trkpt lat="49.52426525764167" lon="9.320745393633842">
<ele>335.4</ele>
<time>2024-05-09T15:05:12Z</time>
</trkpt>
<trkpt lat="49.52422711998224" lon="9.320777831599116">
<ele>335.4</ele>
<time>2024-05-09T15:05:13Z</time>
</trkpt>
<trkpt lat="49.52418898232281" lon="9.32081026956439">
<ele>335.4</ele>
<time>2024-05-09T15:05:14Z</time>
</trkpt>
<trkpt lat="49.52415084466338" lon="9.320837929844856">
<ele>335.6</ele>
<time>2024-05-09T15:05:15Z</time>
</trkpt>
<trkpt lat="49.52410885132849" lon="9.320866512134671">
<ele>335.6</ele>
<time>2024-05-09T15:05:16Z</time>
</trkpt>
<trkpt lat="49.5240668579936" lon="9.320895178243518">
<ele>335.6</ele>
<time>2024-05-09T15:05:17Z</time>
</trkpt>
<trkpt lat="49.524024948477745" lon="9.320917055010796">
<ele>335.6</ele>
<time>2024-05-09T15:05:18Z</time>
</trkpt>
<trkpt lat="49.523982955142856" lon="9.320935243740678">
<ele>335.6</ele>
<time>2024-05-09T15:05:19Z</time>
</trkpt>
<trkpt lat="49.523944817483425" lon="9.32094857096672">
<ele>335.8</ele>
<time>2024-05-09T15:05:20Z</time>
</trkpt>
<trkpt lat="49.523902824148536" lon="9.3209686037153">
<ele>335.8</ele>
<time>2024-05-09T15:05:21Z</time>
</trkpt>
<trkpt lat="49.52385705895722" lon="9.32098863646388">
<ele>336</ele>
<time>2024-05-09T15:05:22Z</time>
</trkpt>
<trkpt lat="49.52381514944136" lon="9.321004813537002">
<ele>336.2</ele>
<time>2024-05-09T15:05:23Z</time>
</trkpt>
<trkpt lat="49.52377315610647" lon="9.321020068600774">
<ele>336.2</ele>
<time>2024-05-09T15:05:24Z</time>
</trkpt>
<trkpt lat="49.52373116277158" lon="9.321035323664546">
<ele>336.4</ele>
<time>2024-05-09T15:05:25Z</time>
</trkpt>
<trkpt lat="49.523689253255725" lon="9.32104873470962">
<ele>336.4</ele>
<time>2024-05-09T15:05:26Z</time>
</trkpt>
<trkpt lat="49.523651115596294" lon="9.321058206260204">
<ele>336.4</ele>
<time>2024-05-09T15:05:27Z</time>
</trkpt>
<trkpt lat="49.52361289411783" lon="9.321068683639169">
<ele>336.6</ele>
<time>2024-05-09T15:05:28Z</time>
</trkpt>
<trkpt lat="49.5235747564584" lon="9.321082094684243">
<ele>336.6</ele>
<time>2024-05-09T15:05:29Z</time>
</trkpt>
<trkpt lat="49.52353661879897" lon="9.321096343919637">
<ele>336.6</ele>
<time>2024-05-09T15:05:30Z</time>
</trkpt>
<trkpt lat="49.52349848113954" lon="9.321111598983409">
<ele>336.8</ele>
<time>2024-05-09T15:05:31Z</time>
</trkpt>
<trkpt lat="49.52345657162368" lon="9.321121154353024">
<ele>337</ele>
<time>2024-05-09T15:05:32Z</time>
</trkpt>
<trkpt lat="49.52342220582068" lon="9.321136409416797">
<ele>337</ele>
<time>2024-05-09T15:05:33Z</time>
</trkpt>
<trkpt lat="49.52338784001768" lon="9.321151664480569">
<ele>337.2</ele>
<time>2024-05-09T15:05:34Z</time>
</trkpt>
<trkpt lat="49.523353558033705" lon="9.32116792537272">
<ele>337.2</ele>
<time>2024-05-09T15:05:35Z</time>
</trkpt>
<trkpt lat="49.52332304790616" lon="9.321180330589414">
<ele>337.4</ele>
<time>2024-05-09T15:05:36Z</time>
</trkpt>
<trkpt lat="49.52329630963504" lon="9.321193657815456">
<ele>337.4</ele>
<time>2024-05-09T15:05:37Z</time>
</trkpt>
<trkpt lat="49.523273427039385" lon="9.32120799086988">
<ele>337.6</ele>
<time>2024-05-09T15:05:38Z</time>
</trkpt>
<trkpt lat="49.523254316300154" lon="9.321218468248844">
<ele>337.6</ele>
<time>2024-05-09T15:05:39Z</time>
</trkpt>
<trkpt lat="49.523235289379954" lon="9.32122701779008">
<ele>337.8</ele>
<time>2024-05-09T15:05:40Z</time>
</trkpt>
<trkpt lat="49.52322766184807" lon="9.321240345016122">
<ele>338</ele>
<time>2024-05-09T15:05:41Z</time>
</trkpt>
<trkpt lat="49.52322003431618" lon="9.321256605908276">
<ele>338</ele>
<time>2024-05-09T15:05:42Z</time>
</trkpt>
<trkpt lat="49.52322003431618" lon="9.321278566494584">
<ele>338.2</ele>
<time>2024-05-09T15:05:43Z</time>
</trkpt>
<trkpt lat="49.52322003431618" lon="9.32130329310894">
<ele>338.4</ele>
<time>2024-05-09T15:05:44Z</time>
</trkpt>
<trkpt lat="49.52322766184807" lon="9.32132332585752">
<ele>338.4</ele>
<time>2024-05-09T15:05:45Z</time>
</trkpt>
<trkpt lat="49.523235289379954" lon="9.321338580921292">
<ele>338.6</ele>
<time>2024-05-09T15:05:46Z</time>
</trkpt>
<trkpt lat="49.52324668876827" lon="9.321356769651176">
<ele>338.6</ele>
<time>2024-05-09T15:05:47Z</time>
</trkpt>
<trkpt lat="49.5232657995075" lon="9.321378646418452">
<ele>338.8</ele>
<time>2024-05-09T15:05:48Z</time>
</trkpt>
<trkpt lat="49.52328491024673" lon="9.32140345685184">
<ele>338.8</ele>
<time>2024-05-09T15:05:49Z</time>
</trkpt>
<trkpt lat="49.5233001653105" lon="9.321428267285228">
<ele>338.8</ele>
<time>2024-05-09T15:05:50Z</time>
</trkpt>
<trkpt lat="49.523311564698815" lon="9.321448300033808">
<ele>338.8</ele>
<time>2024-05-09T15:05:51Z</time>
</trkpt>
<trkpt lat="49.52332304790616" lon="9.321464477106929">
<ele>338.8</ele>
<time>2024-05-09T15:05:52Z</time>
</trkpt>
<trkpt lat="49.52333067543805" lon="9.321473110467196">
<ele>338.8</ele>
<time>2024-05-09T15:05:53Z</time>
</trkpt>
<trkpt lat="49.52333067543805" lon="9.321474954485891">
<ele>339</ele>
<time>2024-05-09T15:05:55Z</time>
</trkpt>
<trkpt lat="49.52333067543805" lon="9.321473110467196">
<ele>339</ele>
<time>2024-05-09T15:05:57Z</time>
</trkpt>
<trkpt lat="49.52332681976259" lon="9.321471182629466">
<ele>339.2</ele>
<time>2024-05-09T15:05:58Z</time>
</trkpt>
<trkpt lat="49.52333067543805" lon="9.321471182629466">
<ele>339.4</ele>
<time>2024-05-09T15:05:59Z</time>
</trkpt>
<trkpt lat="49.52333067543805" lon="9.321470260620115">
<ele>339.4</ele>
<time>2024-05-09T15:06:01Z</time>
</trkpt>
<trkpt lat="49.523334447294474" lon="9.321466404944658">
<ele>339.6</ele>
<time>2024-05-09T15:06:02Z</time>
</trkpt>
<trkpt lat="49.523334447294474" lon="9.321464477106929">
<ele>339.6</ele>
<time>2024-05-09T15:06:03Z</time>
</trkpt>
<trkpt lat="49.523334447294474" lon="9.32146355509758">
<ele>339.8</ele>
<time>2024-05-09T15:06:04Z</time>
</trkpt>
<trkpt lat="49.523334447294474" lon="9.32146162725985">
<ele>339.8</ele>
<time>2024-05-09T15:06:06Z</time>
</trkpt>
<trkpt lat="49.52333830296993" lon="9.32145969942212">
<ele>339.8</ele>
<time>2024-05-09T15:06:09Z</time>
</trkpt>
<trkpt lat="49.52333830296993" lon="9.321458777412772">
<ele>339.6</ele>
<time>2024-05-09T15:06:11Z</time>
</trkpt>
<trkpt lat="49.52333830296993" lon="9.321456849575045">
<ele>339.6</ele>
<time>2024-05-09T15:06:12Z</time>
</trkpt>
<trkpt lat="49.52333830296993" lon="9.321454921737311">
<ele>339.4</ele>
<time>2024-05-09T15:06:14Z</time>
</trkpt>
<trkpt lat="49.52333830296993" lon="9.321453077718616">
<ele>339.4</ele>
<time>2024-05-09T15:06:15Z</time>
</trkpt>
<trkpt lat="49.52333830296993" lon="9.321451149880886">
<ele>339.2</ele>
<time>2024-05-09T15:06:17Z</time>
</trkpt>
<trkpt lat="49.52333830296993" lon="9.321450227871535">
<ele>339.2</ele>
<time>2024-05-09T15:06:19Z</time>
</trkpt>
<trkpt lat="49.52333830296993" lon="9.321448300033808">
<ele>339</ele>
<time>2024-05-09T15:06:21Z</time>
</trkpt>
<trkpt lat="49.52333830296993" lon="9.321446372196078">
<ele>339</ele>
<time>2024-05-09T15:06:23Z</time>
</trkpt>
<trkpt lat="49.52333830296993" lon="9.32144545018673">
<ele>339</ele>
<time>2024-05-09T15:06:27Z</time>
</trkpt>
<trkpt lat="49.52333830296993" lon="9.321443522349">
<ele>338.8</ele>
<time>2024-05-09T15:06:29Z</time>
</trkpt>
<trkpt lat="49.52333830296993" lon="9.32144159451127">
<ele>338.8</ele>
<time>2024-05-09T15:06:32Z</time>
</trkpt>
<trkpt lat="49.523334447294474" lon="9.32144159451127">
<ele>338.8</ele>
<time>2024-05-09T15:06:35Z</time>
</trkpt>
<trkpt lat="49.523334447294474" lon="9.321443522349">
<ele>338.6</ele>
<time>2024-05-09T15:06:44Z</time>
</trkpt>
<trkpt lat="49.523334447294474" lon="9.32144545018673">
<ele>338.6</ele>
<time>2024-05-09T15:06:50Z</time>
</trkpt>
<trkpt lat="49.52333067543805" lon="9.32144545018673">
<ele>338.6</ele>
<time>2024-05-09T15:06:58Z</time>
</trkpt>
<trkpt lat="49.52333067543805" lon="9.321443522349">
<ele>338.4</ele>
<time>2024-05-09T15:07:06Z</time>
</trkpt>
<trkpt lat="49.52333067543805" lon="9.32144159451127">
<ele>338.2</ele>
<time>2024-05-09T15:07:12Z</time>
</trkpt>
<trkpt lat="49.52333067543805" lon="9.321443522349">
<ele>338.2</ele>
<time>2024-05-09T15:07:13Z</time>
</trkpt>
<trkpt lat="49.52333067543805" lon="9.32144159451127">
<ele>338</ele>
<time>2024-05-09T15:07:16Z</time>
</trkpt>
<trkpt lat="49.52333067543805" lon="9.32143966667354">
<ele>338</ele>
<time>2024-05-09T15:07:19Z</time>
</trkpt>
<trkpt lat="49.52333067543805" lon="9.321438744664192">
<ele>337.8</ele>
<time>2024-05-09T15:07:22Z</time>
</trkpt>
<trkpt lat="49.52332681976259" lon="9.321438744664192">
<ele>337.6</ele>
<time>2024-05-09T15:07:25Z</time>
</trkpt>
<trkpt lat="49.52332681976259" lon="9.321436816826465">
<ele>337.6</ele>
<time>2024-05-09T15:07:26Z</time>
</trkpt>
<trkpt lat="49.52332681976259" lon="9.321434972807763">
<ele>337.6</ele>
<time>2024-05-09T15:07:28Z</time>
</trkpt>
<trkpt lat="49.52332681976259" lon="9.321433044970036">
<ele>337.4</ele>
<time>2024-05-09T15:07:31Z</time>
</trkpt>
<trkpt lat="49.52332681976259" lon="9.321432039141657">
<ele>337.4</ele>
<time>2024-05-09T15:07:41Z</time>
</trkpt>
<trkpt lat="49.52332681976259" lon="9.321430195122955">
<ele>337.2</ele>
<time>2024-05-09T15:07:48Z</time>
</trkpt>
<trkpt lat="49.52332304790616" lon="9.321432039141657">
<ele>337.2</ele>
<time>2024-05-09T15:07:53Z</time>
</trkpt>
<trkpt lat="49.52332681976259" lon="9.321432039141657">
<ele>337.2</ele>
<time>2024-05-09T15:07:54Z</time>
</trkpt>
<trkpt lat="49.52332681976259" lon="9.321430195122955">
<ele>337</ele>
<time>2024-05-09T15:07:55Z</time>
</trkpt>
<trkpt lat="49.52332681976259" lon="9.321430195122955">
<ele>337</ele>
</trkpt>
</trkseg>
</trk>
</gpx>